<?xml version='1.0' encoding='UTF-8'?><gpx version="1.1" creator="JPX - https://github.com/jenetics/jpx" xmlns="http://www.topografix.com/GPX/1/1"><trk><trkseg><trkpt lat="45.7792453" lon="8.7319514"><ele>286.0</ele><time>2026-03-22T13:32:13.34Z</time></trkpt><trkpt lat="45.7790798" lon="8.7319466"><ele>286.0</ele><time>2026-03-22T13:32:14.34Z</time></trkpt><trkpt lat="45.7789466" lon="8.7319395"><ele>286.0</ele><time>2026-03-22T13:32:15.34Z</time></trkpt><trkpt lat="45.778806" lon="8.7319142"><ele>286.0</ele><time>2026-03-22T13:32:16.34Z</time></trkpt><trkpt lat="45.7786575" lon="8.7319201"><ele>287.5</ele><time>2026-03-22T13:32:17.34Z</time></trkpt><trkpt lat="45.7785015" lon="8.7319642"><ele>289.0</ele><time>2026-03-22T13:32:18.34Z</time></trkpt><trkpt lat="45.7783727" lon="8.732002"><ele>290.5</ele><time>2026-03-22T13:32:19.34Z</time></trkpt><trkpt lat="45.7782689" lon="8.7320146"><ele>292.0</ele><time>2026-03-22T13:32:20.34Z</time></trkpt><trkpt lat="45.7781865" lon="8.7319897"><ele>292.0</ele><time>2026-03-22T13:32:21.34Z</time></trkpt><trkpt lat="45.7781178" lon="8.7319442"><ele>292.0</ele><time>2026-03-22T13:32:22.34Z</time></trkpt><trkpt lat="45.7780742" lon="8.7318663"><ele>292.0</ele><time>2026-03-22T13:32:23.34Z</time></trkpt><trkpt lat="45.7780272" lon="8.7317674"><ele>292.0</ele><time>2026-03-22T13:32:24.34Z</time></trkpt><trkpt lat="45.7779804" lon="8.731636"><ele>292.0</ele><time>2026-03-22T13:32:25.34Z</time></trkpt><trkpt lat="45.7779326" lon="8.7314693"><ele>292.4</ele><time>2026-03-22T13:32:26.34Z</time></trkpt><trkpt lat="45.7778867" lon="8.7312997"><ele>292.79999999999995</ele><time>2026-03-22T13:32:27.34Z</time></trkpt><trkpt lat="45.7778384" lon="8.7311657"><ele>293.2</ele><time>2026-03-22T13:32:28.34Z</time></trkpt><trkpt lat="45.7777797" lon="8.7310883"><ele>293.59999999999997</ele><time>2026-03-22T13:32:29.34Z</time></trkpt><trkpt lat="45.7777083" lon="8.7310806"><ele>294.0</ele><time>2026-03-22T13:32:30.34Z</time></trkpt><trkpt lat="45.7776308" lon="8.7311099"><ele>294.59999999999997</ele><time>2026-03-22T13:32:31.34Z</time></trkpt><trkpt lat="45.7775387" lon="8.7311715"><ele>295.2</ele><time>2026-03-22T13:32:32.34Z</time></trkpt><trkpt lat="45.777431" lon="8.7312508"><ele>295.79999999999995</ele><time>2026-03-22T13:32:33.34Z</time></trkpt><trkpt lat="45.7773343" lon="8.7313217"><ele>296.4</ele><time>2026-03-22T13:32:34.34Z</time></trkpt><trkpt lat="45.7772435" lon="8.7313462"><ele>297.0</ele><time>2026-03-22T13:32:35.34Z</time></trkpt><trkpt lat="45.7771625" lon="8.7313309"><ele>297.0</ele><time>2026-03-22T13:32:36.34Z</time></trkpt><trkpt lat="45.7770883" lon="8.731275"><ele>297.0</ele><time>2026-03-22T13:32:37.34Z</time></trkpt><trkpt lat="45.7770067" lon="8.7311783"><ele>297.0</ele><time>2026-03-22T13:32:38.34Z</time></trkpt><trkpt lat="45.7769367" lon="8.73102"><ele>297.0</ele><time>2026-03-22T13:32:39.34Z</time></trkpt><trkpt lat="45.776875" lon="8.7308033"><ele>296.3333333333333</ele><time>2026-03-22T13:32:40.34Z</time></trkpt><trkpt lat="45.7768167" lon="8.7305817"><ele>295.66666666666663</ele><time>2026-03-22T13:32:41.34Z</time></trkpt><trkpt lat="45.7767467" lon="8.7303567"><ele>295.0</ele><time>2026-03-22T13:32:42.34Z</time></trkpt><trkpt lat="45.7766767" lon="8.7301417"><ele>292.3333333333333</ele><time>2026-03-22T13:32:43.34Z</time></trkpt><trkpt lat="45.77661" lon="8.7299533"><ele>289.6666666666667</ele><time>2026-03-22T13:32:44.34Z</time></trkpt><trkpt lat="45.7765383" lon="8.7297633"><ele>287.0</ele><time>2026-03-22T13:32:45.34Z</time></trkpt><trkpt lat="45.77647" lon="8.7295667"><ele>287.25</ele><time>2026-03-22T13:32:46.34Z</time></trkpt><trkpt lat="45.7764133" lon="8.7293733"><ele>287.5</ele><time>2026-03-22T13:32:47.34Z</time></trkpt><trkpt lat="45.7763883" lon="8.729175"><ele>287.75</ele><time>2026-03-22T13:32:48.34Z</time></trkpt><trkpt lat="45.7763917" lon="8.7289733"><ele>288.0</ele><time>2026-03-22T13:32:49.34Z</time></trkpt><trkpt lat="45.7764133" lon="8.7287683"><ele>288.0</ele><time>2026-03-22T13:32:50.34Z</time></trkpt><trkpt lat="45.7764367" lon="8.7285617"><ele>288.0</ele><time>2026-03-22T13:32:51.34Z</time></trkpt><trkpt lat="45.7764867" lon="8.7283933"><ele>288.0</ele><time>2026-03-22T13:32:52.34Z</time></trkpt><trkpt lat="45.776575" lon="8.728245"><ele>288.0</ele><time>2026-03-22T13:32:53.34Z</time></trkpt><trkpt lat="45.7766883" lon="8.7281333"><ele>288.25</ele><time>2026-03-22T13:32:54.34Z</time></trkpt><trkpt lat="45.7767967" lon="8.7280167"><ele>288.5</ele><time>2026-03-22T13:32:55.34Z</time></trkpt><trkpt lat="45.7769133" lon="8.7278983"><ele>288.75</ele><time>2026-03-22T13:32:56.34Z</time></trkpt><trkpt lat="45.777015" lon="8.7277717"><ele>289.0</ele><time>2026-03-22T13:32:57.34Z</time></trkpt><trkpt lat="45.7771067" lon="8.7276617"><ele>286.5</ele><time>2026-03-22T13:32:58.34Z</time></trkpt><trkpt lat="45.7771817" lon="8.7275433"><ele>284.0</ele><time>2026-03-22T13:32:59.34Z</time></trkpt><trkpt lat="45.77722" lon="8.7273967"><ele>281.5</ele><time>2026-03-22T13:33:00.34Z</time></trkpt><trkpt lat="45.7772383" lon="8.7272067"><ele>279.0</ele><time>2026-03-22T13:33:01.34Z</time></trkpt><trkpt lat="45.7772283" lon="8.7269867"><ele>278.25</ele><time>2026-03-22T13:33:02.34Z</time></trkpt><trkpt lat="45.7772117" lon="8.7267767"><ele>277.5</ele><time>2026-03-22T13:33:03.34Z</time></trkpt><trkpt lat="45.777185" lon="8.726605"><ele>276.75</ele><time>2026-03-22T13:33:04.34Z</time></trkpt><trkpt lat="45.7771333" lon="8.7264717"><ele>276.0</ele><time>2026-03-22T13:33:05.34Z</time></trkpt><trkpt lat="45.77705" lon="8.7263567"><ele>276.0</ele><time>2026-03-22T13:33:06.34Z</time></trkpt><trkpt lat="45.77695" lon="8.726245"><ele>276.0</ele><time>2026-03-22T13:33:07.34Z</time></trkpt><trkpt lat="45.77684" lon="8.7261167"><ele>276.0</ele><time>2026-03-22T13:33:08.34Z</time></trkpt><trkpt lat="45.776725" lon="8.725965"><ele>276.0</ele><time>2026-03-22T13:33:09.34Z</time></trkpt><trkpt lat="45.7765933" lon="8.7257967"><ele>275.0</ele><time>2026-03-22T13:33:10.34Z</time></trkpt><trkpt lat="45.7764646" lon="8.7256219"><ele>274.0</ele><time>2026-03-22T13:33:11.34Z</time></trkpt><trkpt lat="45.7763411" lon="8.7254398"><ele>273.0</ele><time>2026-03-22T13:33:12.34Z</time></trkpt><trkpt lat="45.7762449" lon="8.7252423"><ele>269.6666666666667</ele><time>2026-03-22T13:33:13.34Z</time></trkpt><trkpt lat="45.7761564" lon="8.7250227"><ele>266.33333333333337</ele><time>2026-03-22T13:33:14.34Z</time></trkpt><trkpt lat="45.7760566" lon="8.7247985"><ele>263.0</ele><time>2026-03-22T13:33:15.34Z</time></trkpt><trkpt lat="45.7759329" lon="8.724591"><ele>263.0</ele><time>2026-03-22T13:33:16.34Z</time></trkpt><trkpt lat="45.7758078" lon="8.7244023"><ele>263.0</ele><time>2026-03-22T13:33:17.34Z</time></trkpt><trkpt lat="45.7756864" lon="8.724231"><ele>263.0</ele><time>2026-03-22T13:33:18.34Z</time></trkpt><trkpt lat="45.7755715" lon="8.7240686"><ele>263.25</ele><time>2026-03-22T13:33:19.34Z</time></trkpt><trkpt lat="45.7754623" lon="8.7239176"><ele>263.5</ele><time>2026-03-22T13:33:20.34Z</time></trkpt><trkpt lat="45.775346" lon="8.7237967"><ele>263.75</ele><time>2026-03-22T13:33:21.34Z</time></trkpt><trkpt lat="45.7752265" lon="8.7237092"><ele>264.0</ele><time>2026-03-22T13:33:22.34Z</time></trkpt><trkpt lat="45.7750982" lon="8.7236384"><ele>264.0</ele><time>2026-03-22T13:33:23.34Z</time></trkpt><trkpt lat="45.7749672" lon="8.7235695"><ele>264.0</ele><time>2026-03-22T13:33:24.34Z</time></trkpt><trkpt lat="45.7748446" lon="8.723498"><ele>264.0</ele><time>2026-03-22T13:33:25.34Z</time></trkpt><trkpt lat="45.7747302" lon="8.7234186"><ele>264.0</ele><time>2026-03-22T13:33:26.34Z</time></trkpt><trkpt lat="45.7746139" lon="8.7233291"><ele>262.25</ele><time>2026-03-22T13:33:27.34Z</time></trkpt><trkpt lat="45.7745132" lon="8.7232169"><ele>260.5</ele><time>2026-03-22T13:33:28.341Z</time></trkpt><trkpt lat="45.7744219" lon="8.7230776"><ele>258.75</ele><time>2026-03-22T13:33:29.34Z</time></trkpt><trkpt lat="45.7743317" lon="8.7229253"><ele>257.0</ele><time>2026-03-22T13:33:30.34Z</time></trkpt><trkpt lat="45.7742547" lon="8.722776"><ele>256.0</ele><time>2026-03-22T13:33:31.34Z</time></trkpt><trkpt lat="45.7741788" lon="8.7226382"><ele>255.0</ele><time>2026-03-22T13:33:32.34Z</time></trkpt><trkpt lat="45.7740922" lon="8.7224948"><ele>254.0</ele><time>2026-03-22T13:33:33.34Z</time></trkpt><trkpt lat="45.7739807" lon="8.7223616"><ele>253.0</ele><time>2026-03-22T13:33:34.34Z</time></trkpt><trkpt lat="45.7738427" lon="8.7222408"><ele>253.0</ele><time>2026-03-22T13:33:35.34Z</time></trkpt><trkpt lat="45.7736877" lon="8.7221196"><ele>253.0</ele><time>2026-03-22T13:33:36.34Z</time></trkpt><trkpt lat="45.7735059" lon="8.721999"><ele>253.0</ele><time>2026-03-22T13:33:37.34Z</time></trkpt><trkpt lat="45.7733131" lon="8.7218686"><ele>251.66666666666666</ele><time>2026-03-22T13:33:38.34Z</time></trkpt><trkpt lat="45.7731198" lon="8.721726"><ele>250.33333333333331</ele><time>2026-03-22T13:33:39.34Z</time></trkpt><trkpt lat="45.7729306" lon="8.7215895"><ele>249.0</ele><time>2026-03-22T13:33:40.34Z</time></trkpt><trkpt lat="45.7727437" lon="8.7214705"><ele>250.66666666666669</ele><time>2026-03-22T13:33:41.34Z</time></trkpt><trkpt lat="45.7725618" lon="8.721365"><ele>252.33333333333334</ele><time>2026-03-22T13:33:42.34Z</time></trkpt><trkpt lat="45.7723813" lon="8.7212748"><ele>254.0</ele><time>2026-03-22T13:33:43.34Z</time></trkpt><trkpt lat="45.7721998" lon="8.721202"><ele>254.0</ele><time>2026-03-22T13:33:44.34Z</time></trkpt><trkpt lat="45.7720195" lon="8.7211231"><ele>254.0</ele><time>2026-03-22T13:33:45.34Z</time></trkpt><trkpt lat="45.7718396" lon="8.7210372"><ele>254.0</ele><time>2026-03-22T13:33:46.34Z</time></trkpt><trkpt lat="45.7716572" lon="8.7209497"><ele>252.0</ele><time>2026-03-22T13:33:47.34Z</time></trkpt><trkpt lat="45.7714747" lon="8.7208528"><ele>250.0</ele><time>2026-03-22T13:33:48.34Z</time></trkpt><trkpt lat="45.7712902" lon="8.7207468"><ele>248.0</ele><time>2026-03-22T13:33:49.34Z</time></trkpt><trkpt lat="45.7711076" lon="8.7206303"><ele>247.33333333333334</ele><time>2026-03-22T13:33:50.34Z</time></trkpt><trkpt lat="45.7709197" lon="8.720489"><ele>246.66666666666669</ele><time>2026-03-22T13:33:51.34Z</time></trkpt><trkpt lat="45.7707369" lon="8.7203338"><ele>246.0</ele><time>2026-03-22T13:33:52.34Z</time></trkpt><trkpt lat="45.7705667" lon="8.7201806"><ele>246.0</ele><time>2026-03-22T13:33:53.34Z</time></trkpt><trkpt lat="45.7704067" lon="8.7200278"><ele>246.0</ele><time>2026-03-22T13:33:54.34Z</time></trkpt><trkpt lat="45.7702445" lon="8.719888"><ele>246.0</ele><time>2026-03-22T13:33:55.34Z</time></trkpt><trkpt lat="45.7700835" lon="8.7197513"><ele>247.0</ele><time>2026-03-22T13:33:56.34Z</time></trkpt><trkpt lat="45.7699196" lon="8.7196178"><ele>248.0</ele><time>2026-03-22T13:33:57.34Z</time></trkpt><trkpt lat="45.7697597" lon="8.7194893"><ele>249.0</ele><time>2026-03-22T13:33:58.34Z</time></trkpt><trkpt lat="45.7696039" lon="8.7193512"><ele>249.0</ele><time>2026-03-22T13:33:59.34Z</time></trkpt><trkpt lat="45.7694643" lon="8.7191962"><ele>249.0</ele><time>2026-03-22T13:34:00.34Z</time></trkpt><trkpt lat="45.7693326" lon="8.7190169"><ele>249.0</ele><time>2026-03-22T13:34:01.34Z</time></trkpt><trkpt lat="45.769215" lon="8.718794"><ele>250.33333333333331</ele><time>2026-03-22T13:34:02.34Z</time></trkpt><trkpt lat="45.7691068" lon="8.7185595"><ele>251.66666666666666</ele><time>2026-03-22T13:34:03.34Z</time></trkpt><trkpt lat="45.7689859" lon="8.7183189"><ele>253.0</ele><time>2026-03-22T13:34:04.34Z</time></trkpt><trkpt lat="45.7688587" lon="8.7180843"><ele>253.0</ele><time>2026-03-22T13:34:05.34Z</time></trkpt><trkpt lat="45.7687342" lon="8.7178548"><ele>253.0</ele><time>2026-03-22T13:34:06.34Z</time></trkpt><trkpt lat="45.7686137" lon="8.7176394"><ele>253.0</ele><time>2026-03-22T13:34:07.34Z</time></trkpt><trkpt lat="45.7684987" lon="8.7174416"><ele>253.0</ele><time>2026-03-22T13:34:08.34Z</time></trkpt><trkpt lat="45.768387" lon="8.7172689"><ele>253.0</ele><time>2026-03-22T13:34:09.34Z</time></trkpt><trkpt lat="45.7682869" lon="8.7171111"><ele>253.0</ele><time>2026-03-22T13:34:10.34Z</time></trkpt><trkpt lat="45.7681941" lon="8.716966"><ele>251.0</ele><time>2026-03-22T13:34:11.34Z</time></trkpt><trkpt lat="45.7681138" lon="8.7168189"><ele>249.0</ele><time>2026-03-22T13:34:12.34Z</time></trkpt><trkpt lat="45.7680658" lon="8.716669"><ele>247.0</ele><time>2026-03-22T13:34:13.34Z</time></trkpt><trkpt lat="45.7680658" lon="8.716497"><ele>245.0</ele><time>2026-03-22T13:34:14.34Z</time></trkpt><trkpt lat="45.7681162" lon="8.7162923"><ele>244.0</ele><time>2026-03-22T13:34:15.34Z</time></trkpt><trkpt lat="45.7681998" lon="8.7160676"><ele>243.0</ele><time>2026-03-22T13:34:16.34Z</time></trkpt><trkpt lat="45.7682893" lon="8.715821"><ele>242.0</ele><time>2026-03-22T13:34:17.34Z</time></trkpt><trkpt lat="45.7683727" lon="8.7155682"><ele>242.0</ele><time>2026-03-22T13:34:18.34Z</time></trkpt><trkpt lat="45.7684656" lon="8.7152972"><ele>242.0</ele><time>2026-03-22T13:34:19.34Z</time></trkpt><trkpt lat="45.7685647" lon="8.7150127"><ele>242.0</ele><time>2026-03-22T13:34:20.34Z</time></trkpt><trkpt lat="45.7686611" lon="8.714713"><ele>241.5</ele><time>2026-03-22T13:34:21.34Z</time></trkpt><trkpt lat="45.7687549" lon="8.7144188"><ele>241.0</ele><time>2026-03-22T13:34:22.34Z</time></trkpt><trkpt lat="45.7688516" lon="8.7141212"><ele>241.0</ele><time>2026-03-22T13:34:23.34Z</time></trkpt><trkpt lat="45.7689424" lon="8.7138215"><ele>241.0</ele><time>2026-03-22T13:34:24.34Z</time></trkpt><trkpt lat="45.7690155" lon="8.713499"><ele>241.5</ele><time>2026-03-22T13:34:25.34Z</time></trkpt><trkpt lat="45.7690677" lon="8.7131564"><ele>242.0</ele><time>2026-03-22T13:34:26.34Z</time></trkpt><trkpt lat="45.7691047" lon="8.7127885"><ele>242.0</ele><time>2026-03-22T13:34:27.34Z</time></trkpt><trkpt lat="45.7691388" lon="8.7124113"><ele>242.0</ele><time>2026-03-22T13:34:28.34Z</time></trkpt><trkpt lat="45.7691813" lon="8.7120345"><ele>242.0</ele><time>2026-03-22T13:34:29.34Z</time></trkpt><trkpt lat="45.7692195" lon="8.7116561"><ele>242.0</ele><time>2026-03-22T13:34:30.34Z</time></trkpt><trkpt lat="45.769259" lon="8.7112885"><ele>241.0</ele><time>2026-03-22T13:34:31.34Z</time></trkpt><trkpt lat="45.7692968" lon="8.7109465"><ele>240.0</ele><time>2026-03-22T13:34:32.34Z</time></trkpt><trkpt lat="45.7693337" lon="8.7106306"><ele>240.0</ele><time>2026-03-22T13:34:33.34Z</time></trkpt><trkpt lat="45.7693699" lon="8.7103429"><ele>240.0</ele><time>2026-03-22T13:34:34.34Z</time></trkpt><trkpt lat="45.7694055" lon="8.7100819"><ele>240.0</ele><time>2026-03-22T13:34:35.34Z</time></trkpt><trkpt lat="45.7694389" lon="8.7098545"><ele>240.5</ele><time>2026-03-22T13:34:36.34Z</time></trkpt><trkpt lat="45.7694588" lon="8.709649"><ele>241.0</ele><time>2026-03-22T13:34:37.34Z</time></trkpt><trkpt lat="45.7694622" lon="8.7094668"><ele>241.5</ele><time>2026-03-22T13:34:38.34Z</time></trkpt><trkpt lat="45.7694182" lon="8.709287"><ele>242.0</ele><time>2026-03-22T13:34:39.34Z</time></trkpt><trkpt lat="45.7693343" lon="8.7091047"><ele>242.33333333333334</ele><time>2026-03-22T13:34:40.34Z</time></trkpt><trkpt lat="45.7692188" lon="8.7089152"><ele>242.66666666666669</ele><time>2026-03-22T13:34:41.34Z</time></trkpt><trkpt lat="45.7690911" lon="8.7087071"><ele>243.0</ele><time>2026-03-22T13:34:42.34Z</time></trkpt><trkpt lat="45.7689517" lon="8.7084829"><ele>244.0</ele><time>2026-03-22T13:34:43.34Z</time></trkpt><trkpt lat="45.7688115" lon="8.7082518"><ele>245.0</ele><time>2026-03-22T13:34:44.34Z</time></trkpt><trkpt lat="45.7686671" lon="8.70801"><ele>246.0</ele><time>2026-03-22T13:34:45.34Z</time></trkpt><trkpt lat="45.7685248" lon="8.7077585"><ele>247.66666666666669</ele><time>2026-03-22T13:34:46.34Z</time></trkpt><trkpt lat="45.768391" lon="8.7075044"><ele>249.33333333333334</ele><time>2026-03-22T13:34:47.34Z</time></trkpt><trkpt lat="45.7682716" lon="8.7072609"><ele>251.0</ele><time>2026-03-22T13:34:48.34Z</time></trkpt><trkpt lat="45.7681652" lon="8.7070383"><ele>251.0</ele><time>2026-03-22T13:34:49.34Z</time></trkpt><trkpt lat="45.7680727" lon="8.7068324"><ele>251.0</ele><time>2026-03-22T13:34:50.34Z</time></trkpt><trkpt lat="45.7679907" lon="8.7066472"><ele>251.0</ele><time>2026-03-22T13:34:51.34Z</time></trkpt><trkpt lat="45.767935" lon="8.70649"><ele>251.0</ele><time>2026-03-22T13:34:52.34Z</time></trkpt><trkpt lat="45.76788" lon="8.70636"><ele>251.0</ele><time>2026-03-22T13:34:53.34Z</time></trkpt><trkpt lat="45.7678617" lon="8.7062483"><ele>251.00000000000003</ele><time>2026-03-22T13:34:54.34Z</time></trkpt><trkpt lat="45.767875" lon="8.70614"><ele>251.00000000000003</ele><time>2026-03-22T13:34:55.34Z</time></trkpt><trkpt lat="45.7679483" lon="8.7060467"><ele>251.0</ele><time>2026-03-22T13:34:56.34Z</time></trkpt><trkpt lat="45.7680617" lon="8.7059617"><ele>251.0</ele><time>2026-03-22T13:34:57.34Z</time></trkpt><trkpt lat="45.76821" lon="8.705885"><ele>251.0</ele><time>2026-03-22T13:34:58.34Z</time></trkpt><trkpt lat="45.7683433" lon="8.70581"><ele>251.00000000000003</ele><time>2026-03-22T13:34:59.34Z</time></trkpt><trkpt lat="45.7684517" lon="8.70574"><ele>251.00000000000003</ele><time>2026-03-22T13:35:00.34Z</time></trkpt><trkpt lat="45.7685317" lon="8.7056817"><ele>251.0</ele><time>2026-03-22T13:35:01.34Z</time></trkpt><trkpt lat="45.76859" lon="8.7056283"><ele>251.0</ele><time>2026-03-22T13:35:02.34Z</time></trkpt><trkpt lat="45.768635" lon="8.7055233"><ele>251.0</ele><time>2026-03-22T13:35:04.34Z</time></trkpt><trkpt lat="45.7685767" lon="8.7054083"><ele>251.00000000000003</ele><time>2026-03-22T13:35:06.34Z</time></trkpt><trkpt lat="45.76852" lon="8.7053483"><ele>251.00000000000003</ele><time>2026-03-22T13:35:07.34Z</time></trkpt><trkpt lat="45.768435" lon="8.7052717"><ele>251.0</ele><time>2026-03-22T13:35:08.34Z</time></trkpt><trkpt lat="45.7683117" lon="8.705185"><ele>251.0</ele><time>2026-03-22T13:35:09.34Z</time></trkpt><trkpt lat="45.7681317" lon="8.7050883"><ele>251.66666666666669</ele><time>2026-03-22T13:35:10.34Z</time></trkpt><trkpt lat="45.76795" lon="8.70498"><ele>252.33333333333331</ele><time>2026-03-22T13:35:11.34Z</time></trkpt><trkpt lat="45.7677817" lon="8.7048733"><ele>253.0</ele><time>2026-03-22T13:35:12.34Z</time></trkpt><trkpt lat="45.767635" lon="8.704765"><ele>253.2</ele><time>2026-03-22T13:35:13.34Z</time></trkpt><trkpt lat="45.7675233" lon="8.704675"><ele>253.4</ele><time>2026-03-22T13:35:14.34Z</time></trkpt><trkpt lat="45.7674333" lon="8.7045783"><ele>253.59999999999997</ele><time>2026-03-22T13:35:15.34Z</time></trkpt><trkpt lat="45.7673733" lon="8.70448"><ele>253.79999999999998</ele><time>2026-03-22T13:35:16.34Z</time></trkpt><trkpt lat="45.767345" lon="8.7043967"><ele>254.0</ele><time>2026-03-22T13:35:17.34Z</time></trkpt><trkpt lat="45.7673467" lon="8.7042867"><ele>253.50000000000003</ele><time>2026-03-22T13:35:19.34Z</time></trkpt><trkpt lat="45.7673567" lon="8.704125"><ele>253.0</ele><time>2026-03-22T13:35:21.34Z</time></trkpt><trkpt lat="45.7673283" lon="8.7040217"><ele>252.5</ele><time>2026-03-22T13:35:22.34Z</time></trkpt><trkpt lat="45.7672717" lon="8.703955"><ele>252.0</ele><time>2026-03-22T13:35:23.34Z</time></trkpt><trkpt lat="45.76719" lon="8.7039367"><ele>251.50000000000003</ele><time>2026-03-22T13:35:24.34Z</time></trkpt><trkpt lat="45.7670933" lon="8.7039667"><ele>251.0</ele><time>2026-03-22T13:35:25.34Z</time></trkpt><trkpt lat="45.7669817" lon="8.7040233"><ele>251.25</ele><time>2026-03-22T13:35:26.34Z</time></trkpt><trkpt lat="45.7668583" lon="8.704035"><ele>251.5</ele><time>2026-03-22T13:35:27.34Z</time></trkpt><trkpt lat="45.7667167" lon="8.7039733"><ele>251.75</ele><time>2026-03-22T13:35:28.34Z</time></trkpt><trkpt lat="45.766585" lon="8.70385"><ele>252.0</ele><time>2026-03-22T13:35:29.34Z</time></trkpt><trkpt lat="45.76644" lon="8.7037133"><ele>251.33333333333331</ele><time>2026-03-22T13:35:30.34Z</time></trkpt><trkpt lat="45.7662967" lon="8.7035567"><ele>250.66666666666666</ele><time>2026-03-22T13:35:31.34Z</time></trkpt><trkpt lat="45.7661533" lon="8.7034267"><ele>250.0</ele><time>2026-03-22T13:35:32.34Z</time></trkpt><trkpt lat="45.7660233" lon="8.703315"><ele>250.0</ele><time>2026-03-22T13:35:33.34Z</time></trkpt><trkpt lat="45.765895" lon="8.7032117"><ele>250.0</ele><time>2026-03-22T13:35:34.34Z</time></trkpt><trkpt lat="45.7657533" lon="8.7031033"><ele>250.0</ele><time>2026-03-22T13:35:35.34Z</time></trkpt><trkpt lat="45.7656117" lon="8.7029983"><ele>250.0</ele><time>2026-03-22T13:35:36.34Z</time></trkpt><trkpt lat="45.765455" lon="8.7028917"><ele>250.0</ele><time>2026-03-22T13:35:37.34Z</time></trkpt><trkpt lat="45.7652933" lon="8.7028"><ele>250.0</ele><time>2026-03-22T13:35:38.34Z</time></trkpt><trkpt lat="45.765135" lon="8.702715"><ele>250.66666666666666</ele><time>2026-03-22T13:35:39.34Z</time></trkpt><trkpt lat="45.76497" lon="8.7026317"><ele>251.33333333333331</ele><time>2026-03-22T13:35:40.34Z</time></trkpt><trkpt lat="45.7648133" lon="8.70255"><ele>252.0</ele><time>2026-03-22T13:35:41.34Z</time></trkpt><trkpt lat="45.7646517" lon="8.7024683"><ele>252.0</ele><time>2026-03-22T13:35:42.34Z</time></trkpt><trkpt lat="45.764475" lon="8.7023867"><ele>252.0</ele><time>2026-03-22T13:35:43.34Z</time></trkpt><trkpt lat="45.7642967" lon="8.7023133"><ele>252.0</ele><time>2026-03-22T13:35:44.34Z</time></trkpt><trkpt lat="45.7641183" lon="8.7022333"><ele>252.66666666666669</ele><time>2026-03-22T13:35:45.34Z</time></trkpt><trkpt lat="45.7639383" lon="8.7021433"><ele>253.33333333333334</ele><time>2026-03-22T13:35:46.34Z</time></trkpt><trkpt lat="45.7637517" lon="8.7020583"><ele>254.0</ele><time>2026-03-22T13:35:47.34Z</time></trkpt><trkpt lat="45.76357" lon="8.701955"><ele>252.33333333333334</ele><time>2026-03-22T13:35:48.34Z</time></trkpt><trkpt lat="45.7633817" lon="8.7018567"><ele>250.66666666666669</ele><time>2026-03-22T13:35:49.34Z</time></trkpt><trkpt lat="45.7631917" lon="8.7017667"><ele>249.0</ele><time>2026-03-22T13:35:50.34Z</time></trkpt><trkpt lat="45.7630017" lon="8.7016717"><ele>249.0</ele><time>2026-03-22T13:35:51.34Z</time></trkpt><trkpt lat="45.7628083" lon="8.7015767"><ele>249.0</ele><time>2026-03-22T13:35:52.34Z</time></trkpt><trkpt lat="45.7626133" lon="8.7014817"><ele>249.0</ele><time>2026-03-22T13:35:53.34Z</time></trkpt><trkpt lat="45.762425" lon="8.7013867"><ele>249.33333333333331</ele><time>2026-03-22T13:35:54.34Z</time></trkpt><trkpt lat="45.762245" lon="8.701285"><ele>249.66666666666666</ele><time>2026-03-22T13:35:55.34Z</time></trkpt><trkpt lat="45.762055" lon="8.7011867"><ele>250.0</ele><time>2026-03-22T13:35:56.34Z</time></trkpt><trkpt lat="45.761865" lon="8.7010817"><ele>250.0</ele><time>2026-03-22T13:35:57.34Z</time></trkpt><trkpt lat="45.7616617" lon="8.700975"><ele>250.0</ele><time>2026-03-22T13:35:58.34Z</time></trkpt><trkpt lat="45.7614617" lon="8.7008767"><ele>250.0</ele><time>2026-03-22T13:35:59.34Z</time></trkpt><trkpt lat="45.7612667" lon="8.7007767"><ele>250.0</ele><time>2026-03-22T13:36:00.34Z</time></trkpt><trkpt lat="45.7610783" lon="8.7006717"><ele>250.0</ele><time>2026-03-22T13:36:01.34Z</time></trkpt><trkpt lat="45.76089" lon="8.70058"><ele>250.0</ele><time>2026-03-22T13:36:02.34Z</time></trkpt><trkpt lat="45.7606933" lon="8.700495"><ele>251.66666666666666</ele><time>2026-03-22T13:36:03.34Z</time></trkpt><trkpt lat="45.7604967" lon="8.70042"><ele>253.33333333333331</ele><time>2026-03-22T13:36:04.34Z</time></trkpt><trkpt lat="45.7602967" lon="8.70034"><ele>255.0</ele><time>2026-03-22T13:36:05.34Z</time></trkpt><trkpt lat="45.7600983" lon="8.7002667"><ele>255.0</ele><time>2026-03-22T13:36:06.34Z</time></trkpt><trkpt lat="45.75989" lon="8.700205"><ele>255.0</ele><time>2026-03-22T13:36:07.34Z</time></trkpt><trkpt lat="45.7596833" lon="8.70015"><ele>255.0</ele><time>2026-03-22T13:36:08.34Z</time></trkpt><trkpt lat="45.7594717" lon="8.7001033"><ele>255.66666666666669</ele><time>2026-03-22T13:36:09.34Z</time></trkpt><trkpt lat="45.75926" lon="8.7000533"><ele>256.33333333333337</ele><time>2026-03-22T13:36:10.34Z</time></trkpt><trkpt lat="45.7590467" lon="8.70001"><ele>257.0</ele><time>2026-03-22T13:36:11.34Z</time></trkpt><trkpt lat="45.758835" lon="8.69997"><ele>257.0</ele><time>2026-03-22T13:36:12.34Z</time></trkpt><trkpt lat="45.758625" lon="8.69994"><ele>257.0</ele><time>2026-03-22T13:36:13.34Z</time></trkpt><trkpt lat="45.758415" lon="8.6999117"><ele>257.0</ele><time>2026-03-22T13:36:14.34Z</time></trkpt><trkpt lat="45.7582183" lon="8.699885"><ele>259.6666666666667</ele><time>2026-03-22T13:36:15.34Z</time></trkpt><trkpt lat="45.758015" lon="8.6998533"><ele>262.3333333333333</ele><time>2026-03-22T13:36:16.34Z</time></trkpt><trkpt lat="45.75781" lon="8.6998083"><ele>265.0</ele><time>2026-03-22T13:36:17.34Z</time></trkpt><trkpt lat="45.7575983" lon="8.6997733"><ele>266.3333333333333</ele><time>2026-03-22T13:36:18.34Z</time></trkpt><trkpt lat="45.7573933" lon="8.6997317"><ele>267.6666666666667</ele><time>2026-03-22T13:36:19.34Z</time></trkpt><trkpt lat="45.7571917" lon="8.6996867"><ele>269.0</ele><time>2026-03-22T13:36:20.34Z</time></trkpt><trkpt lat="45.7569867" lon="8.6996283"><ele>271.33333333333337</ele><time>2026-03-22T13:36:21.34Z</time></trkpt><trkpt lat="45.7567683" lon="8.6995367"><ele>273.6666666666667</ele><time>2026-03-22T13:36:22.34Z</time></trkpt><trkpt lat="45.7565717" lon="8.69942"><ele>276.0</ele><time>2026-03-22T13:36:23.34Z</time></trkpt><trkpt lat="45.75639" lon="8.6992733"><ele>275.0</ele><time>2026-03-22T13:36:24.34Z</time></trkpt><trkpt lat="45.7562067" lon="8.6990983"><ele>274.0</ele><time>2026-03-22T13:36:25.34Z</time></trkpt><trkpt lat="45.75602" lon="8.69892"><ele>273.0</ele><time>2026-03-22T13:36:26.34Z</time></trkpt><trkpt lat="45.755835" lon="8.69874"><ele>269.6666666666667</ele><time>2026-03-22T13:36:27.34Z</time></trkpt><trkpt lat="45.7556517" lon="8.6985633"><ele>266.33333333333337</ele><time>2026-03-22T13:36:28.34Z</time></trkpt><trkpt lat="45.7554683" lon="8.69839"><ele>263.0</ele><time>2026-03-22T13:36:29.34Z</time></trkpt><trkpt lat="45.7552917" lon="8.6982117"><ele>263.0</ele><time>2026-03-22T13:36:30.34Z</time></trkpt><trkpt lat="45.7551217" lon="8.6980383"><ele>263.0</ele><time>2026-03-22T13:36:31.34Z</time></trkpt><trkpt lat="45.7549583" lon="8.6978783"><ele>263.0</ele><time>2026-03-22T13:36:32.34Z</time></trkpt><trkpt lat="45.7547917" lon="8.6977217"><ele>263.0</ele><time>2026-03-22T13:36:33.34Z</time></trkpt><trkpt lat="45.7546217" lon="8.697565"><ele>263.0</ele><time>2026-03-22T13:36:34.34Z</time></trkpt><trkpt lat="45.7544433" lon="8.69741"><ele>263.0</ele><time>2026-03-22T13:36:35.34Z</time></trkpt><trkpt lat="45.754265" lon="8.6972817"><ele>262.0</ele><time>2026-03-22T13:36:36.34Z</time></trkpt><trkpt lat="45.75408" lon="8.6971533"><ele>261.0</ele><time>2026-03-22T13:36:37.34Z</time></trkpt><trkpt lat="45.7538983" lon="8.6970267"><ele>260.0</ele><time>2026-03-22T13:36:38.34Z</time></trkpt><trkpt lat="45.7537167" lon="8.6969033"><ele>263.0</ele><time>2026-03-22T13:36:39.34Z</time></trkpt><trkpt lat="45.753535" lon="8.696785"><ele>266.0</ele><time>2026-03-22T13:36:40.34Z</time></trkpt><trkpt lat="45.7533533" lon="8.696665"><ele>269.0</ele><time>2026-03-22T13:36:41.34Z</time></trkpt><trkpt lat="45.753175" lon="8.696545"><ele>269.0</ele><time>2026-03-22T13:36:42.34Z</time></trkpt><trkpt lat="45.753" lon="8.69642"><ele>269.0</ele><time>2026-03-22T13:36:43.34Z</time></trkpt><trkpt lat="45.7528183" lon="8.6962983"><ele>269.0</ele><time>2026-03-22T13:36:44.34Z</time></trkpt><trkpt lat="45.7526417" lon="8.69616"><ele>268.6666666666667</ele><time>2026-03-22T13:36:45.34Z</time></trkpt><trkpt lat="45.7524633" lon="8.6960067"><ele>268.3333333333333</ele><time>2026-03-22T13:36:46.34Z</time></trkpt><trkpt lat="45.752285" lon="8.695845"><ele>268.0</ele><time>2026-03-22T13:36:47.34Z</time></trkpt><trkpt lat="45.752105" lon="8.695675"><ele>268.0</ele><time>2026-03-22T13:36:48.34Z</time></trkpt><trkpt lat="45.7519283" lon="8.695505"><ele>268.0</ele><time>2026-03-22T13:36:49.34Z</time></trkpt><trkpt lat="45.7517417" lon="8.6953283"><ele>268.0</ele><time>2026-03-22T13:36:50.34Z</time></trkpt><trkpt lat="45.7515533" lon="8.6951517"><ele>268.66666666666663</ele><time>2026-03-22T13:36:51.34Z</time></trkpt><trkpt lat="45.7513717" lon="8.6949667"><ele>269.3333333333333</ele><time>2026-03-22T13:36:52.34Z</time></trkpt><trkpt lat="45.7512033" lon="8.69479"><ele>270.0</ele><time>2026-03-22T13:36:53.34Z</time></trkpt><trkpt lat="45.7510283" lon="8.694615"><ele>269.6666666666667</ele><time>2026-03-22T13:36:54.34Z</time></trkpt><trkpt lat="45.75086" lon="8.6944467"><ele>269.33333333333337</ele><time>2026-03-22T13:36:55.34Z</time></trkpt><trkpt lat="45.7506883" lon="8.6942767"><ele>269.0</ele><time>2026-03-22T13:36:56.34Z</time></trkpt><trkpt lat="45.7505233" lon="8.694105"><ele>269.0</ele><time>2026-03-22T13:36:57.34Z</time></trkpt><trkpt lat="45.750365" lon="8.6939433"><ele>269.0</ele><time>2026-03-22T13:36:58.34Z</time></trkpt><trkpt lat="45.7501983" lon="8.6937867"><ele>269.0</ele><time>2026-03-22T13:36:59.34Z</time></trkpt><trkpt lat="45.7500333" lon="8.6936283"><ele>270.33333333333337</ele><time>2026-03-22T13:37:00.34Z</time></trkpt><trkpt lat="45.7498633" lon="8.693475"><ele>271.6666666666667</ele><time>2026-03-22T13:37:01.34Z</time></trkpt><trkpt lat="45.7496967" lon="8.6933167"><ele>273.0</ele><time>2026-03-22T13:37:02.34Z</time></trkpt><trkpt lat="45.7495217" lon="8.6931483"><ele>273.3333333333333</ele><time>2026-03-22T13:37:03.34Z</time></trkpt><trkpt lat="45.7493633" lon="8.6929883"><ele>273.66666666666663</ele><time>2026-03-22T13:37:04.34Z</time></trkpt><trkpt lat="45.7491883" lon="8.69283"><ele>274.0</ele><time>2026-03-22T13:37:05.34Z</time></trkpt><trkpt lat="45.7490067" lon="8.6926783"><ele>274.0</ele><time>2026-03-22T13:37:06.34Z</time></trkpt><trkpt lat="45.748815" lon="8.6925567"><ele>274.0</ele><time>2026-03-22T13:37:07.34Z</time></trkpt><trkpt lat="45.7486133" lon="8.6924333"><ele>274.0</ele><time>2026-03-22T13:37:08.34Z</time></trkpt><trkpt lat="45.7484083" lon="8.6923067"><ele>277.66666666666663</ele><time>2026-03-22T13:37:09.34Z</time></trkpt><trkpt lat="45.7482117" lon="8.6921883"><ele>281.3333333333333</ele><time>2026-03-22T13:37:10.34Z</time></trkpt><trkpt lat="45.7480167" lon="8.6920783"><ele>285.0</ele><time>2026-03-22T13:37:11.34Z</time></trkpt><trkpt lat="45.74783" lon="8.6919733"><ele>284.0</ele><time>2026-03-22T13:37:12.34Z</time></trkpt><trkpt lat="45.7476533" lon="8.691855"><ele>283.0</ele><time>2026-03-22T13:37:13.34Z</time></trkpt><trkpt lat="45.7474767" lon="8.6917533"><ele>282.0</ele><time>2026-03-22T13:37:14.34Z</time></trkpt><trkpt lat="45.7473" lon="8.69164"><ele>282.0</ele><time>2026-03-22T13:37:15.34Z</time></trkpt><trkpt lat="45.7471117" lon="8.6915267"><ele>282.0</ele><time>2026-03-22T13:37:16.34Z</time></trkpt><trkpt lat="45.74691" lon="8.6914"><ele>282.0</ele><time>2026-03-22T13:37:17.34Z</time></trkpt><trkpt lat="45.7467117" lon="8.6912783"><ele>283.3333333333333</ele><time>2026-03-22T13:37:18.34Z</time></trkpt><trkpt lat="45.7465217" lon="8.6911567"><ele>284.66666666666663</ele><time>2026-03-22T13:37:19.34Z</time></trkpt><trkpt lat="45.74633" lon="8.6910433"><ele>286.0</ele><time>2026-03-22T13:37:20.34Z</time></trkpt><trkpt lat="45.74615" lon="8.6909317"><ele>288.0</ele><time>2026-03-22T13:37:21.34Z</time></trkpt><trkpt lat="45.7459683" lon="8.6908167"><ele>290.0</ele><time>2026-03-22T13:37:22.34Z</time></trkpt><trkpt lat="45.74579" lon="8.6907"><ele>292.0</ele><time>2026-03-22T13:37:23.34Z</time></trkpt><trkpt lat="45.7456233" lon="8.6905633"><ele>292.0</ele><time>2026-03-22T13:37:24.34Z</time></trkpt><trkpt lat="45.74546" lon="8.6904117"><ele>292.0</ele><time>2026-03-22T13:37:25.34Z</time></trkpt><trkpt lat="45.7453083" lon="8.690245"><ele>292.0</ele><time>2026-03-22T13:37:26.34Z</time></trkpt><trkpt lat="45.7451633" lon="8.6900517"><ele>291.66666666666663</ele><time>2026-03-22T13:37:27.34Z</time></trkpt><trkpt lat="45.7450267" lon="8.6898533"><ele>291.3333333333333</ele><time>2026-03-22T13:37:28.34Z</time></trkpt><trkpt lat="45.744895" lon="8.6896333"><ele>291.0</ele><time>2026-03-22T13:37:29.34Z</time></trkpt><trkpt lat="45.744775" lon="8.689405"><ele>289.6666666666667</ele><time>2026-03-22T13:37:30.34Z</time></trkpt><trkpt lat="45.744655" lon="8.6891783"><ele>288.33333333333337</ele><time>2026-03-22T13:37:31.34Z</time></trkpt><trkpt lat="45.7445467" lon="8.6889417"><ele>287.0</ele><time>2026-03-22T13:37:32.34Z</time></trkpt><trkpt lat="45.7444367" lon="8.6887117"><ele>286.6666666666667</ele><time>2026-03-22T13:37:33.34Z</time></trkpt><trkpt lat="45.7443233" lon="8.6884933"><ele>286.3333333333333</ele><time>2026-03-22T13:37:34.34Z</time></trkpt><trkpt lat="45.74421" lon="8.6882617"><ele>286.0</ele><time>2026-03-22T13:37:35.34Z</time></trkpt><trkpt lat="45.7440933" lon="8.68803"><ele>286.0</ele><time>2026-03-22T13:37:36.34Z</time></trkpt><trkpt lat="45.7439767" lon="8.6878033"><ele>286.0</ele><time>2026-03-22T13:37:37.34Z</time></trkpt><trkpt lat="45.7438633" lon="8.68758"><ele>286.0</ele><time>2026-03-22T13:37:38.34Z</time></trkpt><trkpt lat="45.7437517" lon="8.6873683"><ele>284.0</ele><time>2026-03-22T13:37:39.34Z</time></trkpt><trkpt lat="45.7436367" lon="8.6871433"><ele>282.0</ele><time>2026-03-22T13:37:40.34Z</time></trkpt><trkpt lat="45.74351" lon="8.6869183"><ele>280.0</ele><time>2026-03-22T13:37:41.34Z</time></trkpt><trkpt lat="45.7433817" lon="8.686715"><ele>280.0</ele><time>2026-03-22T13:37:42.34Z</time></trkpt><trkpt lat="45.7432417" lon="8.68652"><ele>280.0</ele><time>2026-03-22T13:37:43.34Z</time></trkpt><trkpt lat="45.7431067" lon="8.6863483"><ele>280.0</ele><time>2026-03-22T13:37:44.34Z</time></trkpt><trkpt lat="45.742965" lon="8.6861967"><ele>280.0</ele><time>2026-03-22T13:37:45.34Z</time></trkpt><trkpt lat="45.7428333" lon="8.686065"><ele>280.0</ele><time>2026-03-22T13:37:46.34Z</time></trkpt><trkpt lat="45.742705" lon="8.685955"><ele>280.0</ele><time>2026-03-22T13:37:47.34Z</time></trkpt><trkpt lat="45.7425783" lon="8.68586"><ele>280.0</ele><time>2026-03-22T13:37:48.34Z</time></trkpt><trkpt lat="45.7424783" lon="8.685755"><ele>280.0</ele><time>2026-03-22T13:37:49.34Z</time></trkpt><trkpt lat="45.74241" lon="8.68564"><ele>280.0</ele><time>2026-03-22T13:37:50.34Z</time></trkpt><trkpt lat="45.742365" lon="8.6854983"><ele>280.0</ele><time>2026-03-22T13:37:51.34Z</time></trkpt><trkpt lat="45.7423367" lon="8.6853133"><ele>278.3333333333333</ele><time>2026-03-22T13:37:52.34Z</time></trkpt><trkpt lat="45.7422967" lon="8.6850967"><ele>276.6666666666667</ele><time>2026-03-22T13:37:53.34Z</time></trkpt><trkpt lat="45.7422483" lon="8.6848517"><ele>275.0</ele><time>2026-03-22T13:37:54.34Z</time></trkpt><trkpt lat="45.742195" lon="8.6845883"><ele>274.33333333333337</ele><time>2026-03-22T13:37:55.34Z</time></trkpt><trkpt lat="45.7421267" lon="8.684305"><ele>273.6666666666667</ele><time>2026-03-22T13:37:56.34Z</time></trkpt><trkpt lat="45.74207" lon="8.6840083"><ele>273.0</ele><time>2026-03-22T13:37:57.34Z</time></trkpt><trkpt lat="45.7420133" lon="8.6837133"><ele>272.6666666666667</ele><time>2026-03-22T13:37:58.34Z</time></trkpt><trkpt lat="45.7419533" lon="8.683445"><ele>272.33333333333337</ele><time>2026-03-22T13:37:59.34Z</time></trkpt><trkpt lat="45.7419033" lon="8.6832017"><ele>272.0</ele><time>2026-03-22T13:38:00.34Z</time></trkpt><trkpt lat="45.7418583" lon="8.6830083"><ele>273.75</ele><time>2026-03-22T13:38:01.34Z</time></trkpt><trkpt lat="45.7418017" lon="8.6828533"><ele>275.5</ele><time>2026-03-22T13:38:02.34Z</time></trkpt><trkpt lat="45.7417467" lon="8.682705"><ele>277.25</ele><time>2026-03-22T13:38:03.34Z</time></trkpt><trkpt lat="45.74167" lon="8.68256"><ele>279.0</ele><time>2026-03-22T13:38:04.34Z</time></trkpt><trkpt lat="45.7415583" lon="8.682425"><ele>279.0</ele><time>2026-03-22T13:38:05.34Z</time></trkpt><trkpt lat="45.7414267" lon="8.6823033"><ele>279.0</ele><time>2026-03-22T13:38:06.34Z</time></trkpt><trkpt lat="45.7412883" lon="8.682185"><ele>279.0</ele><time>2026-03-22T13:38:07.34Z</time></trkpt><trkpt lat="45.7411333" lon="8.682045"><ele>279.6666666666667</ele><time>2026-03-22T13:38:08.34Z</time></trkpt><trkpt lat="45.7409767" lon="8.6818917"><ele>280.33333333333337</ele><time>2026-03-22T13:38:09.34Z</time></trkpt><trkpt lat="45.7408" lon="8.6817317"><ele>281.0</ele><time>2026-03-22T13:38:10.34Z</time></trkpt><trkpt lat="45.7406167" lon="8.6815567"><ele>281.0</ele><time>2026-03-22T13:38:11.34Z</time></trkpt><trkpt lat="45.7404317" lon="8.6813617"><ele>281.0</ele><time>2026-03-22T13:38:12.34Z</time></trkpt><trkpt lat="45.7402383" lon="8.6811783"><ele>281.5</ele><time>2026-03-22T13:38:13.34Z</time></trkpt><trkpt lat="45.74004" lon="8.6809783"><ele>282.0</ele><time>2026-03-22T13:38:14.34Z</time></trkpt><trkpt lat="45.739825" lon="8.680785"><ele>282.0</ele><time>2026-03-22T13:38:15.34Z</time></trkpt><trkpt lat="45.739605" lon="8.68059"><ele>282.0</ele><time>2026-03-22T13:38:16.34Z</time></trkpt><trkpt lat="45.739385" lon="8.6804083"><ele>281.5</ele><time>2026-03-22T13:38:17.34Z</time></trkpt><trkpt lat="45.739175" lon="8.6802333"><ele>281.0</ele><time>2026-03-22T13:38:18.34Z</time></trkpt><trkpt lat="45.7389833" lon="8.6800833"><ele>281.0</ele><time>2026-03-22T13:38:19.34Z</time></trkpt><trkpt lat="45.7388" lon="8.67993"><ele>281.0</ele><time>2026-03-22T13:38:20.34Z</time></trkpt><trkpt lat="45.738625" lon="8.67978"><ele>281.0</ele><time>2026-03-22T13:38:21.34Z</time></trkpt><trkpt lat="45.7384583" lon="8.679635"><ele>279.5</ele><time>2026-03-22T13:38:22.34Z</time></trkpt><trkpt lat="45.7383133" lon="8.6795183"><ele>278.0</ele><time>2026-03-22T13:38:23.34Z</time></trkpt><trkpt lat="45.7381883" lon="8.6794233"><ele>276.5</ele><time>2026-03-22T13:38:24.34Z</time></trkpt><trkpt lat="45.73809" lon="8.6793283"><ele>275.0</ele><time>2026-03-22T13:38:25.34Z</time></trkpt><trkpt lat="45.738015" lon="8.67923"><ele>275.0</ele><time>2026-03-22T13:38:26.34Z</time></trkpt><trkpt lat="45.73797" lon="8.6791333"><ele>275.0</ele><time>2026-03-22T13:38:27.34Z</time></trkpt><trkpt lat="45.7379217" lon="8.678995"><ele>275.0</ele><time>2026-03-22T13:38:29.34Z</time></trkpt><trkpt lat="45.7379083" lon="8.6789067"><ele>275.0</ele><time>2026-03-22T13:38:30.34Z</time></trkpt><trkpt lat="45.7378833" lon="8.6787983"><ele>275.0</ele><time>2026-03-22T13:38:31.34Z</time></trkpt><trkpt lat="45.7378367" lon="8.6786867"><ele>275.0</ele><time>2026-03-22T13:38:32.34Z</time></trkpt><trkpt lat="45.7377633" lon="8.6786"><ele>275.0</ele><time>2026-03-22T13:38:33.34Z</time></trkpt><trkpt lat="45.7376533" lon="8.6785617"><ele>275.0</ele><time>2026-03-22T13:38:34.34Z</time></trkpt><trkpt lat="45.7375283" lon="8.67854"><ele>275.0</ele><time>2026-03-22T13:38:35.34Z</time></trkpt><trkpt lat="45.7373833" lon="8.678495"><ele>275.0</ele><time>2026-03-22T13:38:36.34Z</time></trkpt><trkpt lat="45.7372317" lon="8.67844"><ele>275.0</ele><time>2026-03-22T13:38:37.34Z</time></trkpt><trkpt lat="45.7370833" lon="8.6783883"><ele>275.0</ele><time>2026-03-22T13:38:38.34Z</time></trkpt><trkpt lat="45.736935" lon="8.67834"><ele>275.0</ele><time>2026-03-22T13:38:39.34Z</time></trkpt><trkpt lat="45.7368017" lon="8.6782767"><ele>275.0</ele><time>2026-03-22T13:38:40.34Z</time></trkpt><trkpt lat="45.736685" lon="8.678205"><ele>274.2</ele><time>2026-03-22T13:38:41.34Z</time></trkpt><trkpt lat="45.7365817" lon="8.678135"><ele>273.4</ele><time>2026-03-22T13:38:42.34Z</time></trkpt><trkpt lat="45.7365" lon="8.6780433"><ele>272.6</ele><time>2026-03-22T13:38:43.34Z</time></trkpt><trkpt lat="45.7364383" lon="8.6779467"><ele>271.8</ele><time>2026-03-22T13:38:44.34Z</time></trkpt><trkpt lat="45.7364283" lon="8.67784"><ele>271.0</ele><time>2026-03-22T13:38:45.34Z</time></trkpt><trkpt lat="45.7364617" lon="8.6777167"><ele>270.0</ele><time>2026-03-22T13:38:46.34Z</time></trkpt><trkpt lat="45.7365233" lon="8.6775733"><ele>269.0</ele><time>2026-03-22T13:38:47.34Z</time></trkpt><trkpt lat="45.7365783" lon="8.6774133"><ele>268.0</ele><time>2026-03-22T13:38:48.34Z</time></trkpt><trkpt lat="45.7365967" lon="8.677255"><ele>267.0</ele><time>2026-03-22T13:38:49.34Z</time></trkpt><trkpt lat="45.7365617" lon="8.6770783"><ele>263.6666666666667</ele><time>2026-03-22T13:38:50.34Z</time></trkpt><trkpt lat="45.7364817" lon="8.67688"><ele>260.33333333333337</ele><time>2026-03-22T13:38:51.34Z</time></trkpt><trkpt lat="45.7363917" lon="8.6766833"><ele>257.0</ele><time>2026-03-22T13:38:52.34Z</time></trkpt><trkpt lat="45.7363067" lon="8.6764783"><ele>257.0</ele><time>2026-03-22T13:38:53.34Z</time></trkpt><trkpt lat="45.7362233" lon="8.67628"><ele>257.0</ele><time>2026-03-22T13:38:54.34Z</time></trkpt><trkpt lat="45.7361317" lon="8.6761"><ele>257.0</ele><time>2026-03-22T13:38:55.34Z</time></trkpt><trkpt lat="45.7360483" lon="8.6759233"><ele>260.33333333333337</ele><time>2026-03-22T13:38:56.34Z</time></trkpt><trkpt lat="45.7359667" lon="8.67573"><ele>263.6666666666667</ele><time>2026-03-22T13:38:57.34Z</time></trkpt><trkpt lat="45.73589" lon="8.6755333"><ele>267.0</ele><time>2026-03-22T13:38:58.34Z</time></trkpt><trkpt lat="45.7358217" lon="8.6753267"><ele>264.3333333333333</ele><time>2026-03-22T13:38:59.34Z</time></trkpt><trkpt lat="45.7357617" lon="8.6751233"><ele>261.66666666666663</ele><time>2026-03-22T13:39:00.34Z</time></trkpt><trkpt lat="45.73575" lon="8.6748983"><ele>259.0</ele><time>2026-03-22T13:39:01.34Z</time></trkpt><trkpt lat="45.7357683" lon="8.674665"><ele>259.3333333333333</ele><time>2026-03-22T13:39:02.34Z</time></trkpt><trkpt lat="45.735785" lon="8.6744133"><ele>259.6666666666667</ele><time>2026-03-22T13:39:03.34Z</time></trkpt><trkpt lat="45.7358483" lon="8.6741233"><ele>260.0</ele><time>2026-03-22T13:39:04.34Z</time></trkpt><trkpt lat="45.735905" lon="8.6738333"><ele>261.6666666666667</ele><time>2026-03-22T13:39:05.34Z</time></trkpt><trkpt lat="45.7359617" lon="8.6735833"><ele>263.3333333333333</ele><time>2026-03-22T13:39:06.34Z</time></trkpt><trkpt lat="45.73602" lon="8.6733467"><ele>265.0</ele><time>2026-03-22T13:39:07.34Z</time></trkpt><trkpt lat="45.73609" lon="8.6731233"><ele>257.66666666666663</ele><time>2026-03-22T13:39:08.34Z</time></trkpt><trkpt lat="45.73615" lon="8.672885"><ele>250.33333333333331</ele><time>2026-03-22T13:39:09.34Z</time></trkpt><trkpt lat="45.7362017" lon="8.6726367"><ele>243.0</ele><time>2026-03-22T13:39:10.34Z</time></trkpt><trkpt lat="45.7362583" lon="8.6723733"><ele>243.0</ele><time>2026-03-22T13:39:11.34Z</time></trkpt><trkpt lat="45.736325" lon="8.672125"><ele>243.0</ele><time>2026-03-22T13:39:12.34Z</time></trkpt><trkpt lat="45.7363733" lon="8.6718767"><ele>243.0</ele><time>2026-03-22T13:39:13.34Z</time></trkpt><trkpt lat="45.73642" lon="8.6716183"><ele>242.66666666666669</ele><time>2026-03-22T13:39:14.34Z</time></trkpt><trkpt lat="45.73646" lon="8.671335"><ele>242.33333333333334</ele><time>2026-03-22T13:39:15.34Z</time></trkpt><trkpt lat="45.7364767" lon="8.671045"><ele>242.0</ele><time>2026-03-22T13:39:16.34Z</time></trkpt><trkpt lat="45.73648" lon="8.670745"><ele>242.0</ele><time>2026-03-22T13:39:17.34Z</time></trkpt><trkpt lat="45.7364567" lon="8.670447"><ele>242.0</ele><time>2026-03-22T13:39:18.34Z</time></trkpt><trkpt lat="45.7364136" lon="8.6701567"><ele>242.0</ele><time>2026-03-22T13:39:19.34Z</time></trkpt><trkpt lat="45.7363595" lon="8.6698714"><ele>241.33333333333334</ele><time>2026-03-22T13:39:20.34Z</time></trkpt><trkpt lat="45.736308" lon="8.6695935"><ele>240.66666666666669</ele><time>2026-03-22T13:39:21.34Z</time></trkpt><trkpt lat="45.7362568" lon="8.6693181"><ele>240.0</ele><time>2026-03-22T13:39:22.34Z</time></trkpt><trkpt lat="45.7362103" lon="8.6690335"><ele>239.0</ele><time>2026-03-22T13:39:23.34Z</time></trkpt><trkpt lat="45.7361793" lon="8.668737"><ele>238.0</ele><time>2026-03-22T13:39:24.34Z</time></trkpt><trkpt lat="45.7361537" lon="8.6684309"><ele>237.0</ele><time>2026-03-22T13:39:25.341Z</time></trkpt><trkpt lat="45.7361325" lon="8.6681166"><ele>237.0</ele><time>2026-03-22T13:39:26.34Z</time></trkpt><trkpt lat="45.7361113" lon="8.6678199"><ele>237.0</ele><time>2026-03-22T13:39:27.34Z</time></trkpt><trkpt lat="45.7360947" lon="8.6675407"><ele>237.0</ele><time>2026-03-22T13:39:28.34Z</time></trkpt><trkpt lat="45.7360826" lon="8.6672775"><ele>237.33333333333331</ele><time>2026-03-22T13:39:29.34Z</time></trkpt><trkpt lat="45.7360709" lon="8.6670128"><ele>237.66666666666666</ele><time>2026-03-22T13:39:30.34Z</time></trkpt><trkpt lat="45.7360515" lon="8.6667471"><ele>238.0</ele><time>2026-03-22T13:39:31.34Z</time></trkpt><trkpt lat="45.7360317" lon="8.6664768"><ele>238.0</ele><time>2026-03-22T13:39:32.34Z</time></trkpt><trkpt lat="45.7360105" lon="8.6662029"><ele>238.0</ele><time>2026-03-22T13:39:33.34Z</time></trkpt><trkpt lat="45.7359867" lon="8.6659164"><ele>238.0</ele><time>2026-03-22T13:39:34.34Z</time></trkpt><trkpt lat="45.7359528" lon="8.6656174"><ele>239.0</ele><time>2026-03-22T13:39:35.34Z</time></trkpt><trkpt lat="45.7359038" lon="8.6653026"><ele>240.0</ele><time>2026-03-22T13:39:36.34Z</time></trkpt><trkpt lat="45.7358417" lon="8.6649895"><ele>240.66666666666669</ele><time>2026-03-22T13:39:37.34Z</time></trkpt><trkpt lat="45.7357885" lon="8.6646926"><ele>241.33333333333334</ele><time>2026-03-22T13:39:38.34Z</time></trkpt><trkpt lat="45.7357441" lon="8.6644256"><ele>242.0</ele><time>2026-03-22T13:39:39.34Z</time></trkpt><trkpt lat="45.7357057" lon="8.6641872"><ele>242.25</ele><time>2026-03-22T13:39:40.34Z</time></trkpt><trkpt lat="45.7356695" lon="8.6639676"><ele>242.5</ele><time>2026-03-22T13:39:41.34Z</time></trkpt><trkpt lat="45.735636" lon="8.6637634"><ele>242.75</ele><time>2026-03-22T13:39:42.34Z</time></trkpt><trkpt lat="45.7356025" lon="8.6635788"><ele>243.0</ele><time>2026-03-22T13:39:43.34Z</time></trkpt><trkpt lat="45.7355786" lon="8.6634188"><ele>242.60000000000002</ele><time>2026-03-22T13:39:44.341Z</time></trkpt><trkpt lat="45.7355599" lon="8.6632963"><ele>242.20000000000002</ele><time>2026-03-22T13:39:45.341Z</time></trkpt><trkpt lat="45.735539" lon="8.6631454"><ele>241.8</ele><time>2026-03-22T13:39:47.341Z</time></trkpt><trkpt lat="45.7354935" lon="8.6629906"><ele>241.4</ele><time>2026-03-22T13:39:49.341Z</time></trkpt><trkpt lat="45.7354343" lon="8.6628787"><ele>241.0</ele><time>2026-03-22T13:39:50.341Z</time></trkpt><trkpt lat="45.735339" lon="8.6627429"><ele>240.5</ele><time>2026-03-22T13:39:51.341Z</time></trkpt><trkpt lat="45.7352438" lon="8.6625899"><ele>240.0</ele><time>2026-03-22T13:39:52.341Z</time></trkpt><trkpt lat="45.7351526" lon="8.6624571"><ele>239.5</ele><time>2026-03-22T13:39:53.341Z</time></trkpt><trkpt lat="45.7350714" lon="8.6623197"><ele>239.0</ele><time>2026-03-22T13:39:54.341Z</time></trkpt><trkpt lat="45.7349875" lon="8.6621821"><ele>239.0</ele><time>2026-03-22T13:39:55.341Z</time></trkpt><trkpt lat="45.7349008" lon="8.6620332"><ele>239.0</ele><time>2026-03-22T13:39:56.341Z</time></trkpt><trkpt lat="45.7348174" lon="8.6618813"><ele>239.0</ele><time>2026-03-22T13:39:57.341Z</time></trkpt><trkpt lat="45.734732" lon="8.6617362"><ele>239.0</ele><time>2026-03-22T13:39:58.341Z</time></trkpt><trkpt lat="45.7346379" lon="8.6615942"><ele>238.75</ele><time>2026-03-22T13:39:59.341Z</time></trkpt><trkpt lat="45.7345464" lon="8.6614472"><ele>238.5</ele><time>2026-03-22T13:40:00.341Z</time></trkpt><trkpt lat="45.7344648" lon="8.6612995"><ele>238.25</ele><time>2026-03-22T13:40:01.341Z</time></trkpt><trkpt lat="45.7343814" lon="8.6611472"><ele>238.0</ele><time>2026-03-22T13:40:02.341Z</time></trkpt><trkpt lat="45.7342949" lon="8.6610022"><ele>238.0</ele><time>2026-03-22T13:40:03.341Z</time></trkpt><trkpt lat="45.7342008" lon="8.6608477"><ele>238.0</ele><time>2026-03-22T13:40:04.341Z</time></trkpt><trkpt lat="45.734099" lon="8.6606934"><ele>238.0</ele><time>2026-03-22T13:40:05.341Z</time></trkpt><trkpt lat="45.7340044" lon="8.6605573"><ele>238.0</ele><time>2026-03-22T13:40:06.341Z</time></trkpt><trkpt lat="45.7339064" lon="8.6604458"><ele>238.0</ele><time>2026-03-22T13:40:07.341Z</time></trkpt><trkpt lat="45.7338142" lon="8.6603325"><ele>238.0</ele><time>2026-03-22T13:40:08.341Z</time></trkpt><trkpt lat="45.7337145" lon="8.6602195"><ele>238.0</ele><time>2026-03-22T13:40:09.341Z</time></trkpt><trkpt lat="45.7336111" lon="8.6600913"><ele>238.0</ele><time>2026-03-22T13:40:10.341Z</time></trkpt><trkpt lat="45.7335006" lon="8.6599579"><ele>237.66666666666666</ele><time>2026-03-22T13:40:11.341Z</time></trkpt><trkpt lat="45.73338" lon="8.6598152"><ele>237.33333333333331</ele><time>2026-03-22T13:40:12.341Z</time></trkpt><trkpt lat="45.7332622" lon="8.6596633"><ele>237.0</ele><time>2026-03-22T13:40:13.341Z</time></trkpt><trkpt lat="45.7331471" lon="8.6595218"><ele>238.5</ele><time>2026-03-22T13:40:14.341Z</time></trkpt><trkpt lat="45.7330384" lon="8.659395"><ele>240.0</ele><time>2026-03-22T13:40:15.341Z</time></trkpt><trkpt lat="45.7329441" lon="8.6592751"><ele>241.5</ele><time>2026-03-22T13:40:16.341Z</time></trkpt><trkpt lat="45.7328609" lon="8.6591597"><ele>243.0</ele><time>2026-03-22T13:40:17.341Z</time></trkpt><trkpt lat="45.7327869" lon="8.6590533"><ele>243.0</ele><time>2026-03-22T13:40:18.341Z</time></trkpt><trkpt lat="45.7327233" lon="8.6589692"><ele>243.0</ele><time>2026-03-22T13:40:19.341Z</time></trkpt><trkpt lat="45.7326672" lon="8.6588747"><ele>243.0</ele><time>2026-03-22T13:40:20.341Z</time></trkpt><trkpt lat="45.7326028" lon="8.6587732"><ele>243.0</ele><time>2026-03-22T13:40:21.341Z</time></trkpt><trkpt lat="45.7325235" lon="8.658657"><ele>243.0</ele><time>2026-03-22T13:40:22.341Z</time></trkpt><trkpt lat="45.7324241" lon="8.6585217"><ele>241.33333333333331</ele><time>2026-03-22T13:40:23.341Z</time></trkpt><trkpt lat="45.7323059" lon="8.6583674"><ele>239.66666666666666</ele><time>2026-03-22T13:40:24.341Z</time></trkpt><trkpt lat="45.7321617" lon="8.65821"><ele>238.0</ele><time>2026-03-22T13:40:25.341Z</time></trkpt><trkpt lat="45.7320148" lon="8.6580598"><ele>236.66666666666666</ele><time>2026-03-22T13:40:26.341Z</time></trkpt><trkpt lat="45.7318673" lon="8.657903"><ele>235.33333333333331</ele><time>2026-03-22T13:40:27.341Z</time></trkpt><trkpt lat="45.7317307" lon="8.6577561"><ele>234.0</ele><time>2026-03-22T13:40:28.341Z</time></trkpt><trkpt lat="45.7316002" lon="8.6576124"><ele>234.0</ele><time>2026-03-22T13:40:29.341Z</time></trkpt><trkpt lat="45.7314748" lon="8.6574732"><ele>234.0</ele><time>2026-03-22T13:40:30.341Z</time></trkpt><trkpt lat="45.7313564" lon="8.6573382"><ele>234.0</ele><time>2026-03-22T13:40:31.341Z</time></trkpt><trkpt lat="45.7312457" lon="8.6571948"><ele>234.0</ele><time>2026-03-22T13:40:32.341Z</time></trkpt><trkpt lat="45.7311434" lon="8.6570329"><ele>234.0</ele><time>2026-03-22T13:40:33.341Z</time></trkpt><trkpt lat="45.731057" lon="8.656846"><ele>234.0</ele><time>2026-03-22T13:40:34.341Z</time></trkpt><trkpt lat="45.7309915" lon="8.6566347"><ele>233.66666666666669</ele><time>2026-03-22T13:40:35.342Z</time></trkpt><trkpt lat="45.7309443" lon="8.6563919"><ele>233.33333333333334</ele><time>2026-03-22T13:40:36.341Z</time></trkpt><trkpt lat="45.7309022" lon="8.6561259"><ele>233.0</ele><time>2026-03-22T13:40:37.341Z</time></trkpt><trkpt lat="45.7308544" lon="8.6558628"><ele>233.0</ele><time>2026-03-22T13:40:38.341Z</time></trkpt><trkpt lat="45.7307988" lon="8.6556168"><ele>233.0</ele><time>2026-03-22T13:40:39.341Z</time></trkpt><trkpt lat="45.7307463" lon="8.6553938"><ele>233.0</ele><time>2026-03-22T13:40:40.342Z</time></trkpt><trkpt lat="45.7306905" lon="8.6551732"><ele>233.0</ele><time>2026-03-22T13:40:41.341Z</time></trkpt><trkpt lat="45.7306213" lon="8.654956"><ele>233.0</ele><time>2026-03-22T13:40:42.341Z</time></trkpt><trkpt lat="45.7305428" lon="8.6547297"><ele>233.0</ele><time>2026-03-22T13:40:43.341Z</time></trkpt><trkpt lat="45.7304601" lon="8.654494"><ele>233.0</ele><time>2026-03-22T13:40:44.341Z</time></trkpt><trkpt lat="45.730376" lon="8.6542506"><ele>233.0</ele><time>2026-03-22T13:40:45.341Z</time></trkpt><trkpt lat="45.7302839" lon="8.6540158"><ele>233.0</ele><time>2026-03-22T13:40:46.341Z</time></trkpt><trkpt lat="45.7301948" lon="8.6537785"><ele>232.33333333333334</ele><time>2026-03-22T13:40:47.341Z</time></trkpt><trkpt lat="45.7301197" lon="8.6535399"><ele>231.66666666666669</ele><time>2026-03-22T13:40:48.341Z</time></trkpt><trkpt lat="45.7300687" lon="8.6532972"><ele>231.0</ele><time>2026-03-22T13:40:49.341Z</time></trkpt><trkpt lat="45.730017" lon="8.6530526"><ele>231.0</ele><time>2026-03-22T13:40:50.341Z</time></trkpt><trkpt lat="45.7299588" lon="8.6528139"><ele>231.0</ele><time>2026-03-22T13:40:51.342Z</time></trkpt><trkpt lat="45.729892" lon="8.6525757"><ele>231.0</ele><time>2026-03-22T13:40:52.341Z</time></trkpt><trkpt lat="45.7298152" lon="8.6523572"><ele>230.0</ele><time>2026-03-22T13:40:53.341Z</time></trkpt><trkpt lat="45.7297407" lon="8.6521551"><ele>229.0</ele><time>2026-03-22T13:40:54.341Z</time></trkpt><trkpt lat="45.7296603" lon="8.6519652"><ele>228.0</ele><time>2026-03-22T13:40:55.341Z</time></trkpt><trkpt lat="45.7295845" lon="8.6517827"><ele>228.0</ele><time>2026-03-22T13:40:56.341Z</time></trkpt><trkpt lat="45.729511" lon="8.6516098"><ele>228.0</ele><time>2026-03-22T13:40:57.341Z</time></trkpt><trkpt lat="45.729442" lon="8.6514473"><ele>228.0</ele><time>2026-03-22T13:40:58.341Z</time></trkpt><trkpt lat="45.7293714" lon="8.6512799"><ele>228.0</ele><time>2026-03-22T13:40:59.341Z</time></trkpt><trkpt lat="45.7293028" lon="8.6511002"><ele>228.75</ele><time>2026-03-22T13:41:00.341Z</time></trkpt><trkpt lat="45.7292402" lon="8.6509114"><ele>229.5</ele><time>2026-03-22T13:41:01.341Z</time></trkpt><trkpt lat="45.7291857" lon="8.6507181"><ele>230.25</ele><time>2026-03-22T13:41:02.341Z</time></trkpt><trkpt lat="45.7291594" lon="8.6505082"><ele>231.0</ele><time>2026-03-22T13:41:03.341Z</time></trkpt><trkpt lat="45.7291538" lon="8.6502881"><ele>231.25</ele><time>2026-03-22T13:41:04.341Z</time></trkpt><trkpt lat="45.7291522" lon="8.6500829"><ele>231.5</ele><time>2026-03-22T13:41:05.341Z</time></trkpt><trkpt lat="45.7291564" lon="8.6499015"><ele>231.75</ele><time>2026-03-22T13:41:06.341Z</time></trkpt><trkpt lat="45.7291656" lon="8.6497423"><ele>232.0</ele><time>2026-03-22T13:41:07.341Z</time></trkpt><trkpt lat="45.729191" lon="8.649598"><ele>232.0</ele><time>2026-03-22T13:41:08.341Z</time></trkpt><trkpt lat="45.729222" lon="8.6494712"><ele>232.0</ele><time>2026-03-22T13:41:09.341Z</time></trkpt><trkpt lat="45.7292487" lon="8.64937"><ele>232.0</ele><time>2026-03-22T13:41:10.341Z</time></trkpt><trkpt lat="45.729287" lon="8.6492434"><ele>232.0</ele><time>2026-03-22T13:41:12.341Z</time></trkpt><trkpt lat="45.729305" lon="8.6489267"><ele>232.66666666666666</ele><time>2026-03-22T13:41:33.341Z</time></trkpt><trkpt lat="45.72917" lon="8.648815"><ele>233.33333333333331</ele><time>2026-03-22T13:41:35.341Z</time></trkpt><trkpt lat="45.72905" lon="8.648725"><ele>234.0</ele><time>2026-03-22T13:41:36.341Z</time></trkpt><trkpt lat="45.7288967" lon="8.6486033"><ele>234.0</ele><time>2026-03-22T13:41:37.341Z</time></trkpt><trkpt lat="45.72871" lon="8.6484783"><ele>234.0</ele><time>2026-03-22T13:41:38.341Z</time></trkpt><trkpt lat="45.7285033" lon="8.648355"><ele>234.0</ele><time>2026-03-22T13:41:39.341Z</time></trkpt><trkpt lat="45.728335" lon="8.6482317"><ele>234.0</ele><time>2026-03-22T13:41:40.341Z</time></trkpt><trkpt lat="45.7281783" lon="8.64812"><ele>234.0</ele><time>2026-03-22T13:41:41.341Z</time></trkpt><trkpt lat="45.7280233" lon="8.6480267"><ele>234.0</ele><time>2026-03-22T13:41:42.341Z</time></trkpt><trkpt lat="45.727885" lon="8.647935"><ele>234.0</ele><time>2026-03-22T13:41:43.341Z</time></trkpt><trkpt lat="45.7277633" lon="8.647845"><ele>234.0</ele><time>2026-03-22T13:41:44.341Z</time></trkpt><trkpt lat="45.7276517" lon="8.647765"><ele>234.0</ele><time>2026-03-22T13:41:45.341Z</time></trkpt><trkpt lat="45.72755" lon="8.647695"><ele>234.0</ele><time>2026-03-22T13:41:46.341Z</time></trkpt><trkpt lat="45.7274433" lon="8.6476183"><ele>233.79999999999998</ele><time>2026-03-22T13:41:47.341Z</time></trkpt><trkpt lat="45.727335" lon="8.64755"><ele>233.59999999999997</ele><time>2026-03-22T13:41:48.342Z</time></trkpt><trkpt lat="45.7272433" lon="8.647475"><ele>233.4</ele><time>2026-03-22T13:41:49.341Z</time></trkpt><trkpt lat="45.727145" lon="8.6474"><ele>233.2</ele><time>2026-03-22T13:41:50.341Z</time></trkpt><trkpt lat="45.7270467" lon="8.64732"><ele>233.0</ele><time>2026-03-22T13:41:51.341Z</time></trkpt><trkpt lat="45.7269583" lon="8.647245"><ele>231.60000000000002</ele><time>2026-03-22T13:41:52.341Z</time></trkpt><trkpt lat="45.7268667" lon="8.6471783"><ele>230.20000000000002</ele><time>2026-03-22T13:41:53.341Z</time></trkpt><trkpt lat="45.72678" lon="8.6471183"><ele>228.8</ele><time>2026-03-22T13:41:54.341Z</time></trkpt><trkpt lat="45.726695" lon="8.647065"><ele>227.4</ele><time>2026-03-22T13:41:55.341Z</time></trkpt><trkpt lat="45.7266083" lon="8.64701"><ele>226.0</ele><time>2026-03-22T13:41:56.341Z</time></trkpt><trkpt lat="45.7265183" lon="8.6469533"><ele>225.99999999999997</ele><time>2026-03-22T13:41:57.341Z</time></trkpt><trkpt lat="45.7264267" lon="8.6468817"><ele>226.0</ele><time>2026-03-22T13:41:58.341Z</time></trkpt><trkpt lat="45.7263367" lon="8.6468217"><ele>226.0</ele><time>2026-03-22T13:41:59.341Z</time></trkpt><trkpt lat="45.7262533" lon="8.6467683"><ele>226.0</ele><time>2026-03-22T13:42:00.341Z</time></trkpt><trkpt lat="45.7261833" lon="8.64672"><ele>225.99999999999997</ele><time>2026-03-22T13:42:01.341Z</time></trkpt><trkpt lat="45.7261133" lon="8.6466833"><ele>226.0</ele><time>2026-03-22T13:42:02.341Z</time></trkpt><trkpt lat="45.72601" lon="8.6466"><ele>225.33333333333331</ele><time>2026-03-22T13:42:04.341Z</time></trkpt><trkpt lat="45.725915" lon="8.6465283"><ele>224.66666666666666</ele><time>2026-03-22T13:42:06.341Z</time></trkpt><trkpt lat="45.7258083" lon="8.6464417"><ele>224.0</ele><time>2026-03-22T13:42:08.341Z</time></trkpt><trkpt lat="45.7257467" lon="8.6463983"><ele>223.33333333333331</ele><time>2026-03-22T13:42:09.341Z</time></trkpt><trkpt lat="45.7256833" lon="8.6463483"><ele>222.66666666666666</ele><time>2026-03-22T13:42:10.341Z</time></trkpt><trkpt lat="45.725615" lon="8.6463083"><ele>222.0</ele><time>2026-03-22T13:42:11.341Z</time></trkpt><trkpt lat="45.7255517" lon="8.6462617"><ele>222.0</ele><time>2026-03-22T13:42:12.341Z</time></trkpt><trkpt lat="45.7254933" lon="8.6462183"><ele>222.0</ele><time>2026-03-22T13:42:13.341Z</time></trkpt><trkpt lat="45.7254333" lon="8.646185"><ele>222.0</ele><time>2026-03-22T13:42:14.341Z</time></trkpt><trkpt lat="45.7253667" lon="8.646145"><ele>222.0</ele><time>2026-03-22T13:42:15.341Z</time></trkpt><trkpt lat="45.7252767" lon="8.6460817"><ele>222.0</ele><time>2026-03-22T13:42:16.341Z</time></trkpt><trkpt lat="45.7251967" lon="8.64602"><ele>222.0</ele><time>2026-03-22T13:42:17.341Z</time></trkpt><trkpt lat="45.7251333" lon="8.6459583"><ele>221.66666666666666</ele><time>2026-03-22T13:42:18.341Z</time></trkpt><trkpt lat="45.7250517" lon="8.6459"><ele>221.33333333333331</ele><time>2026-03-22T13:42:20.341Z</time></trkpt><trkpt lat="45.724975" lon="8.6458033"><ele>221.0</ele><time>2026-03-22T13:42:22.341Z</time></trkpt><trkpt lat="45.7248883" lon="8.6456917"><ele>220.66666666666666</ele><time>2026-03-22T13:42:24.341Z</time></trkpt><trkpt lat="45.7248417" lon="8.6456267"><ele>220.33333333333331</ele><time>2026-03-22T13:42:25.341Z</time></trkpt><trkpt lat="45.724785" lon="8.6455583"><ele>220.0</ele><time>2026-03-22T13:42:26.341Z</time></trkpt><trkpt lat="45.72472" lon="8.6454683"><ele>220.0</ele><time>2026-03-22T13:42:28.341Z</time></trkpt><trkpt lat="45.7246683" lon="8.6453517"><ele>220.0</ele><time>2026-03-22T13:42:31.341Z</time></trkpt><trkpt lat="45.7246517" lon="8.6452517"><ele>220.0</ele><time>2026-03-22T13:42:32.341Z</time></trkpt><trkpt lat="45.72464" lon="8.6451133"><ele>220.0</ele><time>2026-03-22T13:42:33.341Z</time></trkpt><trkpt lat="45.7246333" lon="8.64496"><ele>220.0</ele><time>2026-03-22T13:42:34.341Z</time></trkpt><trkpt lat="45.7246417" lon="8.6447717"><ele>219.75</ele><time>2026-03-22T13:42:35.341Z</time></trkpt><trkpt lat="45.7246533" lon="8.644575"><ele>219.5</ele><time>2026-03-22T13:42:36.341Z</time></trkpt><trkpt lat="45.7246717" lon="8.644395"><ele>219.25</ele><time>2026-03-22T13:42:37.341Z</time></trkpt><trkpt lat="45.724685" lon="8.6442233"><ele>219.0</ele><time>2026-03-22T13:42:38.341Z</time></trkpt><trkpt lat="45.724705" lon="8.6440617"><ele>219.0</ele><time>2026-03-22T13:42:39.341Z</time></trkpt><trkpt lat="45.724725" lon="8.643895"><ele>219.0</ele><time>2026-03-22T13:42:40.341Z</time></trkpt><trkpt lat="45.7247483" lon="8.6437267"><ele>219.0</ele><time>2026-03-22T13:42:41.341Z</time></trkpt><trkpt lat="45.72477" lon="8.6435617"><ele>219.0</ele><time>2026-03-22T13:42:42.341Z</time></trkpt><trkpt lat="45.724785" lon="8.6434083"><ele>218.6</ele><time>2026-03-22T13:42:43.341Z</time></trkpt><trkpt lat="45.7248" lon="8.6432733"><ele>218.2</ele><time>2026-03-22T13:42:44.341Z</time></trkpt><trkpt lat="45.7248117" lon="8.6431483"><ele>217.79999999999998</ele><time>2026-03-22T13:42:45.341Z</time></trkpt><trkpt lat="45.724825" lon="8.643025"><ele>217.39999999999998</ele><time>2026-03-22T13:42:46.341Z</time></trkpt><trkpt lat="45.7248433" lon="8.6428983"><ele>217.0</ele><time>2026-03-22T13:42:47.341Z</time></trkpt><trkpt lat="45.7248667" lon="8.6427717"><ele>216.33333333333331</ele><time>2026-03-22T13:42:48.341Z</time></trkpt><trkpt lat="45.72488" lon="8.6426533"><ele>215.66666666666666</ele><time>2026-03-22T13:42:49.341Z</time></trkpt><trkpt lat="45.724895" lon="8.642535"><ele>215.0</ele><time>2026-03-22T13:42:50.341Z</time></trkpt><trkpt lat="45.7249133" lon="8.64242"><ele>214.33333333333331</ele><time>2026-03-22T13:42:51.341Z</time></trkpt><trkpt lat="45.7249267" lon="8.642315"><ele>213.66666666666666</ele><time>2026-03-22T13:42:52.341Z</time></trkpt><trkpt lat="45.724945" lon="8.6422083"><ele>213.0</ele><time>2026-03-22T13:42:53.341Z</time></trkpt><trkpt lat="45.7249567" lon="8.6421017"><ele>213.0</ele><time>2026-03-22T13:42:54.341Z</time></trkpt><trkpt lat="45.7249717" lon="8.6419767"><ele>213.0</ele><time>2026-03-22T13:42:55.341Z</time></trkpt><trkpt lat="45.72499" lon="8.6418167"><ele>213.0</ele><time>2026-03-22T13:42:56.341Z</time></trkpt><trkpt lat="45.7250167" lon="8.64164"><ele>213.0</ele><time>2026-03-22T13:42:57.341Z</time></trkpt><trkpt lat="45.725035" lon="8.64146"><ele>212.5</ele><time>2026-03-22T13:42:58.341Z</time></trkpt><trkpt lat="45.725055" lon="8.6412867"><ele>212.0</ele><time>2026-03-22T13:42:59.341Z</time></trkpt><trkpt lat="45.7250717" lon="8.6411217"><ele>211.5</ele><time>2026-03-22T13:43:00.341Z</time></trkpt><trkpt lat="45.7250883" lon="8.6409583"><ele>211.0</ele><time>2026-03-22T13:43:01.341Z</time></trkpt><trkpt lat="45.7251083" lon="8.6408083"><ele>210.4</ele><time>2026-03-22T13:43:02.341Z</time></trkpt><trkpt lat="45.7251317" lon="8.64066"><ele>209.8</ele><time>2026-03-22T13:43:03.341Z</time></trkpt><trkpt lat="45.7251517" lon="8.640515"><ele>209.20000000000002</ele><time>2026-03-22T13:43:04.342Z</time></trkpt><trkpt lat="45.7251667" lon="8.6403617"><ele>208.60000000000002</ele><time>2026-03-22T13:43:05.341Z</time></trkpt><trkpt lat="45.7251833" lon="8.6402117"><ele>208.0</ele><time>2026-03-22T13:43:06.341Z</time></trkpt><trkpt lat="45.7251983" lon="8.6400633"><ele>208.0</ele><time>2026-03-22T13:43:07.341Z</time></trkpt><trkpt lat="45.7252183" lon="8.6399233"><ele>208.0</ele><time>2026-03-22T13:43:08.341Z</time></trkpt><trkpt lat="45.7252417" lon="8.6397783"><ele>208.0</ele><time>2026-03-22T13:43:09.341Z</time></trkpt><trkpt lat="45.72526" lon="8.6396283"><ele>208.0</ele><time>2026-03-22T13:43:10.341Z</time></trkpt><trkpt lat="45.7252783" lon="8.6394717"><ele>208.0</ele><time>2026-03-22T13:43:11.341Z</time></trkpt><trkpt lat="45.7253" lon="8.63931"><ele>209.0</ele><time>2026-03-22T13:43:12.341Z</time></trkpt><trkpt lat="45.7253267" lon="8.6391433"><ele>210.0</ele><time>2026-03-22T13:43:13.341Z</time></trkpt><trkpt lat="45.725355" lon="8.638955"><ele>211.0</ele><time>2026-03-22T13:43:14.341Z</time></trkpt><trkpt lat="45.72539" lon="8.638755"><ele>212.0</ele><time>2026-03-22T13:43:15.341Z</time></trkpt><trkpt lat="45.725435" lon="8.6385517"><ele>212.0</ele><time>2026-03-22T13:43:16.341Z</time></trkpt><trkpt lat="45.7254817" lon="8.638355"><ele>212.0</ele><time>2026-03-22T13:43:17.341Z</time></trkpt><trkpt lat="45.7255283" lon="8.638175"><ele>212.0</ele><time>2026-03-22T13:43:18.341Z</time></trkpt><trkpt lat="45.7255767" lon="8.6380133"><ele>212.0</ele><time>2026-03-22T13:43:19.341Z</time></trkpt><trkpt lat="45.7256133" lon="8.637845"><ele>211.39999999999998</ele><time>2026-03-22T13:43:20.341Z</time></trkpt><trkpt lat="45.7256533" lon="8.6376967"><ele>210.79999999999998</ele><time>2026-03-22T13:43:21.341Z</time></trkpt><trkpt lat="45.72569" lon="8.6375567"><ele>210.2</ele><time>2026-03-22T13:43:22.341Z</time></trkpt><trkpt lat="45.7257233" lon="8.6374267"><ele>209.6</ele><time>2026-03-22T13:43:23.341Z</time></trkpt><trkpt lat="45.7257517" lon="8.6373083"><ele>209.0</ele><time>2026-03-22T13:43:24.341Z</time></trkpt><trkpt lat="45.7257817" lon="8.6371967"><ele>209.0</ele><time>2026-03-22T13:43:25.341Z</time></trkpt><trkpt lat="45.7258117" lon="8.6370833"><ele>209.0</ele><time>2026-03-22T13:43:26.341Z</time></trkpt><trkpt lat="45.725835" lon="8.6369633"><ele>209.0</ele><time>2026-03-22T13:43:27.341Z</time></trkpt><trkpt lat="45.7258467" lon="8.636835"><ele>209.0</ele><time>2026-03-22T13:43:28.341Z</time></trkpt><trkpt lat="45.7258467" lon="8.6366983"><ele>209.0</ele><time>2026-03-22T13:43:29.341Z</time></trkpt><trkpt lat="45.7258417" lon="8.6365583"><ele>208.39999999999998</ele><time>2026-03-22T13:43:30.341Z</time></trkpt><trkpt lat="45.7258267" lon="8.6364183"><ele>207.8</ele><time>2026-03-22T13:43:31.341Z</time></trkpt><trkpt lat="45.7258167" lon="8.6362967"><ele>207.2</ele><time>2026-03-22T13:43:32.341Z</time></trkpt><trkpt lat="45.7258183" lon="8.636185"><ele>206.60000000000002</ele><time>2026-03-22T13:43:33.341Z</time></trkpt><trkpt lat="45.7258083" lon="8.63602"><ele>206.0</ele><time>2026-03-22T13:43:35.341Z</time></trkpt><trkpt lat="45.7258017" lon="8.6359133"><ele>205.66666666666669</ele><time>2026-03-22T13:43:37.341Z</time></trkpt><trkpt lat="45.7258333" lon="8.635765"><ele>205.33333333333334</ele><time>2026-03-22T13:43:40.341Z</time></trkpt><trkpt lat="45.725825" lon="8.6356183"><ele>205.0</ele><time>2026-03-22T13:43:42.341Z</time></trkpt><trkpt lat="45.725805" lon="8.6355283"><ele>204.66666666666669</ele><time>2026-03-22T13:43:43.341Z</time></trkpt><trkpt lat="45.7257767" lon="8.6354167"><ele>204.33333333333334</ele><time>2026-03-22T13:43:44.341Z</time></trkpt><trkpt lat="45.7257583" lon="8.635295"><ele>204.0</ele><time>2026-03-22T13:43:45.341Z</time></trkpt><trkpt lat="45.7257483" lon="8.6351783"><ele>204.0</ele><time>2026-03-22T13:43:46.341Z</time></trkpt><trkpt lat="45.72574" lon="8.6350633"><ele>204.0</ele><time>2026-03-22T13:43:47.341Z</time></trkpt><trkpt lat="45.72573" lon="8.6349517"><ele>204.0</ele><time>2026-03-22T13:43:48.341Z</time></trkpt><trkpt lat="45.725725" lon="8.6348117"><ele>204.0</ele><time>2026-03-22T13:43:49.341Z</time></trkpt><trkpt lat="45.7257067" lon="8.63466"><ele>204.0</ele><time>2026-03-22T13:43:50.341Z</time></trkpt><trkpt lat="45.7256867" lon="8.6344983"><ele>204.5</ele><time>2026-03-22T13:43:51.341Z</time></trkpt><trkpt lat="45.7256767" lon="8.634345"><ele>205.0</ele><time>2026-03-22T13:43:52.341Z</time></trkpt><trkpt lat="45.725655" lon="8.6341883"><ele>205.5</ele><time>2026-03-22T13:43:53.341Z</time></trkpt><trkpt lat="45.7256383" lon="8.6340133"><ele>206.0</ele><time>2026-03-22T13:43:54.341Z</time></trkpt><trkpt lat="45.7256183" lon="8.6338367"><ele>206.0</ele><time>2026-03-22T13:43:55.341Z</time></trkpt><trkpt lat="45.7255983" lon="8.6336717"><ele>206.0</ele><time>2026-03-22T13:43:56.341Z</time></trkpt><trkpt lat="45.7255767" lon="8.6335167"><ele>206.0</ele><time>2026-03-22T13:43:57.341Z</time></trkpt><trkpt lat="45.7255533" lon="8.633385"><ele>206.0</ele><time>2026-03-22T13:43:58.341Z</time></trkpt><trkpt lat="45.7255333" lon="8.6332733"><ele>206.0</ele><time>2026-03-22T13:43:59.341Z</time></trkpt><trkpt lat="45.7255183" lon="8.6331633"><ele>206.16666666666669</ele><time>2026-03-22T13:44:00.341Z</time></trkpt><trkpt lat="45.7255067" lon="8.6330617"><ele>206.33333333333334</ele><time>2026-03-22T13:44:01.341Z</time></trkpt><trkpt lat="45.7254717" lon="8.6328917"><ele>206.5</ele><time>2026-03-22T13:44:03.341Z</time></trkpt><trkpt lat="45.7254483" lon="8.632755"><ele>206.66666666666669</ele><time>2026-03-22T13:44:05.341Z</time></trkpt><trkpt lat="45.7254433" lon="8.63264"><ele>206.83333333333334</ele><time>2026-03-22T13:44:07.341Z</time></trkpt><trkpt lat="45.7254483" lon="8.6325467"><ele>207.0</ele><time>2026-03-22T13:44:09.341Z</time></trkpt><trkpt lat="45.725465" lon="8.6324067"><ele>206.39999999999998</ele><time>2026-03-22T13:44:12.341Z</time></trkpt><trkpt lat="45.7254567" lon="8.63225"><ele>205.79999999999998</ele><time>2026-03-22T13:44:14.341Z</time></trkpt><trkpt lat="45.7253983" lon="8.632125"><ele>205.2</ele><time>2026-03-22T13:44:16.341Z</time></trkpt><trkpt lat="45.725325" lon="8.63201"><ele>204.6</ele><time>2026-03-22T13:44:18.341Z</time></trkpt><trkpt lat="45.72526" lon="8.6318583"><ele>204.0</ele><time>2026-03-22T13:44:20.341Z</time></trkpt><trkpt lat="45.7252317" lon="8.631745"><ele>203.83333333333334</ele><time>2026-03-22T13:44:21.341Z</time></trkpt><trkpt lat="45.7251933" lon="8.6316183"><ele>203.66666666666669</ele><time>2026-03-22T13:44:22.341Z</time></trkpt><trkpt lat="45.725155" lon="8.6314917"><ele>203.5</ele><time>2026-03-22T13:44:23.341Z</time></trkpt><trkpt lat="45.72512" lon="8.6313733"><ele>203.33333333333334</ele><time>2026-03-22T13:44:24.341Z</time></trkpt><trkpt lat="45.7250867" lon="8.6312667"><ele>203.16666666666669</ele><time>2026-03-22T13:44:25.341Z</time></trkpt><trkpt lat="45.725055" lon="8.6311633"><ele>203.0</ele><time>2026-03-22T13:44:26.341Z</time></trkpt><trkpt lat="45.7250217" lon="8.6310583"><ele>203.00000000000003</ele><time>2026-03-22T13:44:27.341Z</time></trkpt><trkpt lat="45.7249967" lon="8.6309567"><ele>203.0</ele><time>2026-03-22T13:44:28.341Z</time></trkpt><trkpt lat="45.7249767" lon="8.6308467"><ele>203.0</ele><time>2026-03-22T13:44:29.341Z</time></trkpt><trkpt lat="45.724955" lon="8.6307483"><ele>203.0</ele><time>2026-03-22T13:44:30.341Z</time></trkpt><trkpt lat="45.72493" lon="8.6306633"><ele>203.00000000000003</ele><time>2026-03-22T13:44:31.341Z</time></trkpt><trkpt lat="45.7249017" lon="8.6305783"><ele>203.0</ele><time>2026-03-22T13:44:32.341Z</time></trkpt><trkpt lat="45.724865" lon="8.63042"><ele>203.00000000000003</ele><time>2026-03-22T13:44:34.341Z</time></trkpt><trkpt lat="45.72484" lon="8.630335"><ele>203.0</ele><time>2026-03-22T13:44:35.341Z</time></trkpt><trkpt lat="45.7247967" lon="8.6301933"><ele>203.0</ele><time>2026-03-22T13:44:37.341Z</time></trkpt><trkpt lat="45.7247667" lon="8.63009"><ele>203.0</ele><time>2026-03-22T13:44:39.341Z</time></trkpt><trkpt lat="45.7247433" lon="8.6299617"><ele>203.00000000000003</ele><time>2026-03-22T13:44:42.341Z</time></trkpt><trkpt lat="45.7247283" lon="8.6298583"><ele>203.0</ele><time>2026-03-22T13:44:44.341Z</time></trkpt><trkpt lat="45.72472" lon="8.6297333"><ele>204.0</ele><time>2026-03-22T13:44:46.341Z</time></trkpt><trkpt lat="45.7247" lon="8.62958"><ele>205.0</ele><time>2026-03-22T13:44:48.341Z</time></trkpt><trkpt lat="45.72462" lon="8.629415"><ele>206.0</ele><time>2026-03-22T13:44:50.341Z</time></trkpt><trkpt lat="45.72456" lon="8.6292783"><ele>207.0</ele><time>2026-03-22T13:44:51.341Z</time></trkpt><trkpt lat="45.7244983" lon="8.6291017"><ele>207.33333333333331</ele><time>2026-03-22T13:44:52.341Z</time></trkpt><trkpt lat="45.7244317" lon="8.628895"><ele>207.66666666666666</ele><time>2026-03-22T13:44:53.341Z</time></trkpt><trkpt lat="45.724365" lon="8.6286767"><ele>208.0</ele><time>2026-03-22T13:44:54.341Z</time></trkpt><trkpt lat="45.7243117" lon="8.62846"><ele>207.0</ele><time>2026-03-22T13:44:55.341Z</time></trkpt><trkpt lat="45.7242517" lon="8.6282617"><ele>206.0</ele><time>2026-03-22T13:44:56.341Z</time></trkpt><trkpt lat="45.7241933" lon="8.628075"><ele>205.0</ele><time>2026-03-22T13:44:57.341Z</time></trkpt><trkpt lat="45.72413" lon="8.62791"><ele>204.0</ele><time>2026-03-22T13:44:58.341Z</time></trkpt><trkpt lat="45.724055" lon="8.6277817"><ele>203.6</ele><time>2026-03-22T13:44:59.341Z</time></trkpt><trkpt lat="45.7239767" lon="8.6276933"><ele>203.2</ele><time>2026-03-22T13:45:00.341Z</time></trkpt><trkpt lat="45.7238867" lon="8.62763"><ele>202.79999999999998</ele><time>2026-03-22T13:45:01.341Z</time></trkpt><trkpt lat="45.7237917" lon="8.6275967"><ele>202.39999999999998</ele><time>2026-03-22T13:45:02.341Z</time></trkpt><trkpt lat="45.723695" lon="8.627575"><ele>202.0</ele><time>2026-03-22T13:45:03.341Z</time></trkpt><trkpt lat="45.723605" lon="8.627555"><ele>201.0</ele><time>2026-03-22T13:45:04.341Z</time></trkpt><trkpt lat="45.7235217" lon="8.6275267"><ele>200.0</ele><time>2026-03-22T13:45:05.341Z</time></trkpt><trkpt lat="45.7234283" lon="8.6275"><ele>199.0</ele><time>2026-03-22T13:45:06.341Z</time></trkpt><trkpt lat="45.7233233" lon="8.6274717"><ele>198.0</ele><time>2026-03-22T13:45:07.341Z</time></trkpt><trkpt lat="45.723225" lon="8.6274433"><ele>197.0</ele><time>2026-03-22T13:45:08.341Z</time></trkpt><trkpt lat="45.72313" lon="8.6274167"><ele>197.00000000000003</ele><time>2026-03-22T13:45:09.341Z</time></trkpt><trkpt lat="45.72303" lon="8.627395"><ele>197.0</ele><time>2026-03-22T13:45:10.341Z</time></trkpt><trkpt lat="45.7229417" lon="8.6273683"><ele>197.0</ele><time>2026-03-22T13:45:11.341Z</time></trkpt><trkpt lat="45.7228617" lon="8.6273367"><ele>197.0</ele><time>2026-03-22T13:45:12.341Z</time></trkpt><trkpt lat="45.72278" lon="8.6273233"><ele>197.00000000000003</ele><time>2026-03-22T13:45:13.341Z</time></trkpt><trkpt lat="45.7227067" lon="8.6273067"><ele>197.0</ele><time>2026-03-22T13:45:14.341Z</time></trkpt><trkpt lat="45.72264" lon="8.6272817"><ele>195.8</ele><time>2026-03-22T13:45:15.341Z</time></trkpt><trkpt lat="45.722575" lon="8.6272633"><ele>194.6</ele><time>2026-03-22T13:45:16.341Z</time></trkpt><trkpt lat="45.7224967" lon="8.627235"><ele>193.4</ele><time>2026-03-22T13:45:17.341Z</time></trkpt><trkpt lat="45.7224" lon="8.6271967"><ele>192.20000000000002</ele><time>2026-03-22T13:45:18.341Z</time></trkpt><trkpt lat="45.72228" lon="8.6271633"><ele>191.0</ele><time>2026-03-22T13:45:19.341Z</time></trkpt><trkpt lat="45.7221433" lon="8.6271217"><ele>191.0</ele><time>2026-03-22T13:45:20.341Z</time></trkpt><trkpt lat="45.722005" lon="8.6270833"><ele>191.0</ele><time>2026-03-22T13:45:21.341Z</time></trkpt><trkpt lat="45.72188" lon="8.6270583"><ele>191.0</ele><time>2026-03-22T13:45:22.341Z</time></trkpt><trkpt lat="45.721765" lon="8.62703"><ele>191.0</ele><time>2026-03-22T13:45:23.341Z</time></trkpt><trkpt lat="45.7216567" lon="8.6270117"><ele>191.57142857142858</ele><time>2026-03-22T13:45:24.341Z</time></trkpt><trkpt lat="45.72158" lon="8.626985"><ele>192.14285714285714</ele><time>2026-03-22T13:45:25.341Z</time></trkpt><trkpt lat="45.721515" lon="8.6269617"><ele>192.71428571428572</ele><time>2026-03-22T13:45:26.341Z</time></trkpt><trkpt lat="45.7214483" lon="8.6269383"><ele>193.28571428571428</ele><time>2026-03-22T13:45:27.341Z</time></trkpt><trkpt lat="45.721385" lon="8.6269117"><ele>193.85714285714283</ele><time>2026-03-22T13:45:28.341Z</time></trkpt><trkpt lat="45.7213233" lon="8.62687"><ele>194.42857142857142</ele><time>2026-03-22T13:45:29.341Z</time></trkpt><trkpt lat="45.721265" lon="8.6268133"><ele>195.0</ele><time>2026-03-22T13:45:30.341Z</time></trkpt><trkpt lat="45.7212033" lon="8.6267433"><ele>195.5</ele><time>2026-03-22T13:45:31.341Z</time></trkpt><trkpt lat="45.7211383" lon="8.6266717"><ele>196.0</ele><time>2026-03-22T13:45:32.341Z</time></trkpt><trkpt lat="45.7210717" lon="8.62661"><ele>196.5</ele><time>2026-03-22T13:45:33.341Z</time></trkpt><trkpt lat="45.7210017" lon="8.6265567"><ele>197.0</ele><time>2026-03-22T13:45:34.341Z</time></trkpt><trkpt lat="45.72092" lon="8.626505"><ele>197.5</ele><time>2026-03-22T13:45:35.341Z</time></trkpt><trkpt lat="45.720835" lon="8.626455"><ele>198.0</ele><time>2026-03-22T13:45:36.341Z</time></trkpt><trkpt lat="45.7207483" lon="8.6264033"><ele>199.16666666666666</ele><time>2026-03-22T13:45:37.341Z</time></trkpt><trkpt lat="45.7206667" lon="8.6263483"><ele>200.33333333333331</ele><time>2026-03-22T13:45:38.341Z</time></trkpt><trkpt lat="45.7205917" lon="8.6262933"><ele>201.5</ele><time>2026-03-22T13:45:39.341Z</time></trkpt><trkpt lat="45.7205133" lon="8.6262333"><ele>202.66666666666666</ele><time>2026-03-22T13:45:40.341Z</time></trkpt><trkpt lat="45.72044" lon="8.6261717"><ele>203.83333333333331</ele><time>2026-03-22T13:45:41.341Z</time></trkpt><trkpt lat="45.720365" lon="8.6261133"><ele>205.0</ele><time>2026-03-22T13:45:42.341Z</time></trkpt><trkpt lat="45.7202967" lon="8.626045"><ele>205.16666666666666</ele><time>2026-03-22T13:45:43.341Z</time></trkpt><trkpt lat="45.7202383" lon="8.625985"><ele>205.33333333333331</ele><time>2026-03-22T13:45:44.341Z</time></trkpt><trkpt lat="45.7201583" lon="8.6258767"><ele>205.5</ele><time>2026-03-22T13:45:46.341Z</time></trkpt><trkpt lat="45.7201017" lon="8.6258"><ele>205.66666666666669</ele><time>2026-03-22T13:45:48.341Z</time></trkpt><trkpt lat="45.720065" lon="8.62569"><ele>205.83333333333334</ele><time>2026-03-22T13:45:50.341Z</time></trkpt><trkpt lat="45.7200433" lon="8.6255967"><ele>206.0</ele><time>2026-03-22T13:45:51.341Z</time></trkpt><trkpt lat="45.720005" lon="8.6254633"><ele>206.75</ele><time>2026-03-22T13:45:52.341Z</time></trkpt><trkpt lat="45.7199617" lon="8.625305"><ele>207.5</ele><time>2026-03-22T13:45:53.341Z</time></trkpt><trkpt lat="45.7199333" lon="8.6251433"><ele>208.25</ele><time>2026-03-22T13:45:54.341Z</time></trkpt><trkpt lat="45.7199217" lon="8.62496"><ele>209.0</ele><time>2026-03-22T13:45:55.341Z</time></trkpt><trkpt lat="45.7199167" lon="8.62475"><ele>209.0</ele><time>2026-03-22T13:45:56.341Z</time></trkpt><trkpt lat="45.7199133" lon="8.6245267"><ele>209.0</ele><time>2026-03-22T13:45:57.341Z</time></trkpt><trkpt lat="45.7199067" lon="8.6243083"><ele>209.0</ele><time>2026-03-22T13:45:58.341Z</time></trkpt><trkpt lat="45.7198967" lon="8.6240967"><ele>209.25</ele><time>2026-03-22T13:45:59.341Z</time></trkpt><trkpt lat="45.719885" lon="8.62389"><ele>209.5</ele><time>2026-03-22T13:46:00.341Z</time></trkpt><trkpt lat="45.71988" lon="8.6236817"><ele>209.75</ele><time>2026-03-22T13:46:01.341Z</time></trkpt><trkpt lat="45.719865" lon="8.6234883"><ele>210.0</ele><time>2026-03-22T13:46:02.341Z</time></trkpt><trkpt lat="45.7198617" lon="8.6232767"><ele>210.0</ele><time>2026-03-22T13:46:03.341Z</time></trkpt><trkpt lat="45.71986" lon="8.623055"><ele>210.0</ele><time>2026-03-22T13:46:04.341Z</time></trkpt><trkpt lat="45.7198433" lon="8.622825"><ele>210.0</ele><time>2026-03-22T13:46:05.341Z</time></trkpt><trkpt lat="45.7198333" lon="8.62258"><ele>210.0</ele><time>2026-03-22T13:46:06.341Z</time></trkpt><trkpt lat="45.71983" lon="8.62235"><ele>210.0</ele><time>2026-03-22T13:46:07.341Z</time></trkpt><trkpt lat="45.71982" lon="8.6221133"><ele>210.0</ele><time>2026-03-22T13:46:08.341Z</time></trkpt><trkpt lat="45.7198183" lon="8.6218733"><ele>209.66666666666669</ele><time>2026-03-22T13:46:09.341Z</time></trkpt><trkpt lat="45.7198167" lon="8.6216383"><ele>209.33333333333334</ele><time>2026-03-22T13:46:10.341Z</time></trkpt><trkpt lat="45.7198167" lon="8.6214167"><ele>209.0</ele><time>2026-03-22T13:46:11.341Z</time></trkpt><trkpt lat="45.71981" lon="8.621215"><ele>208.5</ele><time>2026-03-22T13:46:12.341Z</time></trkpt><trkpt lat="45.7198117" lon="8.6210167"><ele>208.0</ele><time>2026-03-22T13:46:13.341Z</time></trkpt><trkpt lat="45.7198083" lon="8.6208183"><ele>207.5</ele><time>2026-03-22T13:46:14.341Z</time></trkpt><trkpt lat="45.71981" lon="8.62062"><ele>207.0</ele><time>2026-03-22T13:46:15.341Z</time></trkpt><trkpt lat="45.7198167" lon="8.620425"><ele>207.5</ele><time>2026-03-22T13:46:16.341Z</time></trkpt><trkpt lat="45.71982" lon="8.6202333"><ele>208.0</ele><time>2026-03-22T13:46:17.341Z</time></trkpt><trkpt lat="45.7198183" lon="8.62005"><ele>208.5</ele><time>2026-03-22T13:46:18.341Z</time></trkpt><trkpt lat="45.7198083" lon="8.6198633"><ele>209.0</ele><time>2026-03-22T13:46:19.341Z</time></trkpt><trkpt lat="45.7197967" lon="8.619675"><ele>209.0</ele><time>2026-03-22T13:46:20.341Z</time></trkpt><trkpt lat="45.7197933" lon="8.6194833"><ele>209.0</ele><time>2026-03-22T13:46:21.341Z</time></trkpt><trkpt lat="45.7197867" lon="8.6192767"><ele>209.0</ele><time>2026-03-22T13:46:22.341Z</time></trkpt><trkpt lat="45.7197833" lon="8.619075"><ele>209.0</ele><time>2026-03-22T13:46:23.341Z</time></trkpt><trkpt lat="45.719775" lon="8.6188733"><ele>209.0</ele><time>2026-03-22T13:46:24.341Z</time></trkpt><trkpt lat="45.7197733" lon="8.6186917"><ele>209.0</ele><time>2026-03-22T13:46:25.341Z</time></trkpt><trkpt lat="45.7197767" lon="8.6185183"><ele>209.0</ele><time>2026-03-22T13:46:26.341Z</time></trkpt><trkpt lat="45.7197767" lon="8.6183583"><ele>209.0</ele><time>2026-03-22T13:46:27.341Z</time></trkpt><trkpt lat="45.7197667" lon="8.618215"><ele>209.2</ele><time>2026-03-22T13:46:28.341Z</time></trkpt><trkpt lat="45.7197533" lon="8.6180733"><ele>209.39999999999998</ele><time>2026-03-22T13:46:29.341Z</time></trkpt><trkpt lat="45.71975" lon="8.617935"><ele>209.6</ele><time>2026-03-22T13:46:30.341Z</time></trkpt><trkpt lat="45.7197483" lon="8.6177983"><ele>209.8</ele><time>2026-03-22T13:46:31.341Z</time></trkpt><trkpt lat="45.71975" lon="8.6176633"><ele>210.0</ele><time>2026-03-22T13:46:32.341Z</time></trkpt><trkpt lat="45.7197517" lon="8.6175317"><ele>210.0</ele><time>2026-03-22T13:46:33.341Z</time></trkpt><trkpt lat="45.719745" lon="8.61741"><ele>210.0</ele><time>2026-03-22T13:46:34.341Z</time></trkpt><trkpt lat="45.7197417" lon="8.6173017"><ele>210.0</ele><time>2026-03-22T13:46:35.341Z</time></trkpt><trkpt lat="45.719735" lon="8.6172017"><ele>210.0</ele><time>2026-03-22T13:46:36.341Z</time></trkpt><trkpt lat="45.7197183" lon="8.6170283"><ele>210.0</ele><time>2026-03-22T13:46:38.341Z</time></trkpt><trkpt lat="45.7197017" lon="8.616875"><ele>209.8</ele><time>2026-03-22T13:46:40.341Z</time></trkpt><trkpt lat="45.7197017" lon="8.61673"><ele>209.6</ele><time>2026-03-22T13:46:42.341Z</time></trkpt><trkpt lat="45.7197033" lon="8.61656"><ele>209.39999999999998</ele><time>2026-03-22T13:46:44.341Z</time></trkpt><trkpt lat="45.7197" lon="8.6164533"><ele>209.2</ele><time>2026-03-22T13:46:45.341Z</time></trkpt><trkpt lat="45.7197" lon="8.6163233"><ele>209.0</ele><time>2026-03-22T13:46:46.341Z</time></trkpt><trkpt lat="45.719705" lon="8.6161717"><ele>209.5</ele><time>2026-03-22T13:46:47.341Z</time></trkpt><trkpt lat="45.719705" lon="8.6160133"><ele>210.0</ele><time>2026-03-22T13:46:48.341Z</time></trkpt><trkpt lat="45.7197033" lon="8.6158467"><ele>210.5</ele><time>2026-03-22T13:46:49.341Z</time></trkpt><trkpt lat="45.7197017" lon="8.6156733"><ele>211.0</ele><time>2026-03-22T13:46:50.341Z</time></trkpt><trkpt lat="45.7196983" lon="8.6154933"><ele>211.0</ele><time>2026-03-22T13:46:51.341Z</time></trkpt><trkpt lat="45.7196983" lon="8.61533"><ele>211.0</ele><time>2026-03-22T13:46:52.341Z</time></trkpt><trkpt lat="45.7197" lon="8.6151833"><ele>211.0</ele><time>2026-03-22T13:46:53.341Z</time></trkpt><trkpt lat="45.7197017" lon="8.6150317"><ele>211.0</ele><time>2026-03-22T13:46:54.341Z</time></trkpt><trkpt lat="45.7197017" lon="8.61488"><ele>211.0</ele><time>2026-03-22T13:46:55.341Z</time></trkpt><trkpt lat="45.7196933" lon="8.61473"><ele>210.8</ele><time>2026-03-22T13:46:56.341Z</time></trkpt><trkpt lat="45.7196867" lon="8.61458"><ele>210.60000000000002</ele><time>2026-03-22T13:46:57.341Z</time></trkpt><trkpt lat="45.71968" lon="8.6144367"><ele>210.4</ele><time>2026-03-22T13:46:58.341Z</time></trkpt><trkpt lat="45.719685" lon="8.6143067"><ele>210.2</ele><time>2026-03-22T13:46:59.341Z</time></trkpt><trkpt lat="45.7196833" lon="8.614185"><ele>210.0</ele><time>2026-03-22T13:47:00.341Z</time></trkpt><trkpt lat="45.7196783" lon="8.6140667"><ele>209.83333333333334</ele><time>2026-03-22T13:47:01.341Z</time></trkpt><trkpt lat="45.719675" lon="8.613945"><ele>209.66666666666669</ele><time>2026-03-22T13:47:02.341Z</time></trkpt><trkpt lat="45.719675" lon="8.6138217"><ele>209.5</ele><time>2026-03-22T13:47:03.341Z</time></trkpt><trkpt lat="45.7196733" lon="8.6137083"><ele>209.33333333333334</ele><time>2026-03-22T13:47:04.341Z</time></trkpt><trkpt lat="45.7196733" lon="8.6136067"><ele>209.16666666666669</ele><time>2026-03-22T13:47:05.341Z</time></trkpt><trkpt lat="45.71967" lon="8.6135083"><ele>209.0</ele><time>2026-03-22T13:47:06.341Z</time></trkpt><trkpt lat="45.7196683" lon="8.6134067"><ele>209.00000000000003</ele><time>2026-03-22T13:47:07.341Z</time></trkpt><trkpt lat="45.7196683" lon="8.61329"><ele>209.0</ele><time>2026-03-22T13:47:08.341Z</time></trkpt><trkpt lat="45.7196633" lon="8.6131633"><ele>209.0</ele><time>2026-03-22T13:47:09.341Z</time></trkpt><trkpt lat="45.719655" lon="8.6130417"><ele>209.0</ele><time>2026-03-22T13:47:10.341Z</time></trkpt><trkpt lat="45.7196517" lon="8.612935"><ele>209.00000000000003</ele><time>2026-03-22T13:47:11.341Z</time></trkpt><trkpt lat="45.7196483" lon="8.6128383"><ele>209.0</ele><time>2026-03-22T13:47:12.341Z</time></trkpt><trkpt lat="45.719655" lon="8.61274"><ele>209.0</ele><time>2026-03-22T13:47:13.341Z</time></trkpt><trkpt lat="45.7196767" lon="8.6125667"><ele>209.0</ele><time>2026-03-22T13:47:15.341Z</time></trkpt><trkpt lat="45.719705" lon="8.6124217"><ele>209.0</ele><time>2026-03-22T13:47:17.341Z</time></trkpt><trkpt lat="45.719735" lon="8.61233"><ele>209.0</ele><time>2026-03-22T13:47:19.341Z</time></trkpt><trkpt lat="45.7197783" lon="8.6122067"><ele>209.0</ele><time>2026-03-22T13:47:23.341Z</time></trkpt><trkpt lat="45.71984" lon="8.612095"><ele>209.00000000000003</ele><time>2026-03-22T13:47:25.341Z</time></trkpt><trkpt lat="45.7198567" lon="8.6119333"><ele>209.0</ele><time>2026-03-22T13:47:27.341Z</time></trkpt><trkpt lat="45.7198283" lon="8.6118483"><ele>209.0</ele><time>2026-03-22T13:47:28.341Z</time></trkpt><trkpt lat="45.7197733" lon="8.6117783"><ele>209.0</ele><time>2026-03-22T13:47:29.341Z</time></trkpt><trkpt lat="45.7197167" lon="8.6117117"><ele>209.00000000000003</ele><time>2026-03-22T13:47:30.341Z</time></trkpt><trkpt lat="45.7196633" lon="8.6116267"><ele>209.0</ele><time>2026-03-22T13:47:31.341Z</time></trkpt><trkpt lat="45.71963" lon="8.6115183"><ele>209.0</ele><time>2026-03-22T13:47:32.341Z</time></trkpt><trkpt lat="45.7196117" lon="8.61137"><ele>209.0</ele><time>2026-03-22T13:47:33.341Z</time></trkpt><trkpt lat="45.719605" lon="8.6111867"><ele>209.0</ele><time>2026-03-22T13:47:34.341Z</time></trkpt><trkpt lat="45.71961" lon="8.61096"><ele>209.0</ele><time>2026-03-22T13:47:35.341Z</time></trkpt><trkpt lat="45.7196167" lon="8.610695"><ele>209.0</ele><time>2026-03-22T13:47:36.341Z</time></trkpt><trkpt lat="45.7196167" lon="8.6103967"><ele>209.0</ele><time>2026-03-22T13:47:37.341Z</time></trkpt><trkpt lat="45.719615" lon="8.6101117"><ele>209.0</ele><time>2026-03-22T13:47:38.341Z</time></trkpt><trkpt lat="45.719605" lon="8.60984"><ele>208.66666666666669</ele><time>2026-03-22T13:47:39.341Z</time></trkpt><trkpt lat="45.7196" lon="8.60959"><ele>208.33333333333331</ele><time>2026-03-22T13:47:40.341Z</time></trkpt><trkpt lat="45.7195967" lon="8.609355"><ele>208.0</ele><time>2026-03-22T13:47:41.341Z</time></trkpt><trkpt lat="45.7195917" lon="8.6091367"><ele>208.5</ele><time>2026-03-22T13:47:42.341Z</time></trkpt><trkpt lat="45.71959" lon="8.6089367"><ele>209.0</ele><time>2026-03-22T13:47:43.341Z</time></trkpt><trkpt lat="45.7195817" lon="8.6087517"><ele>209.5</ele><time>2026-03-22T13:47:44.341Z</time></trkpt><trkpt lat="45.7195783" lon="8.6085783"><ele>210.0</ele><time>2026-03-22T13:47:45.341Z</time></trkpt><trkpt lat="45.7195717" lon="8.6084067"><ele>210.75</ele><time>2026-03-22T13:47:46.341Z</time></trkpt><trkpt lat="45.7195683" lon="8.6082433"><ele>211.5</ele><time>2026-03-22T13:47:47.341Z</time></trkpt><trkpt lat="45.7195717" lon="8.6080717"><ele>212.25</ele><time>2026-03-22T13:47:48.341Z</time></trkpt><trkpt lat="45.7195783" lon="8.6079017"><ele>213.0</ele><time>2026-03-22T13:47:49.341Z</time></trkpt><trkpt lat="45.7195767" lon="8.60773"><ele>213.25</ele><time>2026-03-22T13:47:50.341Z</time></trkpt><trkpt lat="45.7195683" lon="8.6075533"><ele>213.5</ele><time>2026-03-22T13:47:51.341Z</time></trkpt><trkpt lat="45.7195617" lon="8.60736"><ele>213.75</ele><time>2026-03-22T13:47:52.341Z</time></trkpt><trkpt lat="45.7195583" lon="8.60716"><ele>214.0</ele><time>2026-03-22T13:47:53.341Z</time></trkpt><trkpt lat="45.71955" lon="8.60697"><ele>213.5</ele><time>2026-03-22T13:47:54.341Z</time></trkpt><trkpt lat="45.7195383" lon="8.6067883"><ele>213.0</ele><time>2026-03-22T13:47:55.341Z</time></trkpt><trkpt lat="45.7195267" lon="8.6066"><ele>212.5</ele><time>2026-03-22T13:47:56.341Z</time></trkpt><trkpt lat="45.7195167" lon="8.606385"><ele>212.0</ele><time>2026-03-22T13:47:57.341Z</time></trkpt><trkpt lat="45.71951" lon="8.606175"><ele>212.0</ele><time>2026-03-22T13:47:58.341Z</time></trkpt><trkpt lat="45.7195067" lon="8.6059733"><ele>212.0</ele><time>2026-03-22T13:47:59.341Z</time></trkpt><trkpt lat="45.719505" lon="8.6057683"><ele>212.0</ele><time>2026-03-22T13:48:00.341Z</time></trkpt><trkpt lat="45.7195" lon="8.605555"><ele>212.0</ele><time>2026-03-22T13:48:01.341Z</time></trkpt><trkpt lat="45.71949" lon="8.6053433"><ele>211.75</ele><time>2026-03-22T13:48:02.341Z</time></trkpt><trkpt lat="45.7194867" lon="8.6051217"><ele>211.5</ele><time>2026-03-22T13:48:03.341Z</time></trkpt><trkpt lat="45.7194783" lon="8.6049167"><ele>211.25</ele><time>2026-03-22T13:48:04.341Z</time></trkpt><trkpt lat="45.7194833" lon="8.6047167"><ele>211.0</ele><time>2026-03-22T13:48:05.341Z</time></trkpt><trkpt lat="45.7194833" lon="8.6045333"><ele>210.4</ele><time>2026-03-22T13:48:06.341Z</time></trkpt><trkpt lat="45.7194883" lon="8.6043533"><ele>209.8</ele><time>2026-03-22T13:48:07.341Z</time></trkpt><trkpt lat="45.71949" lon="8.6041883"><ele>209.20000000000002</ele><time>2026-03-22T13:48:08.341Z</time></trkpt><trkpt lat="45.7194933" lon="8.6040467"><ele>208.60000000000002</ele><time>2026-03-22T13:48:09.341Z</time></trkpt><trkpt lat="45.7195" lon="8.6039217"><ele>208.0</ele><time>2026-03-22T13:48:10.341Z</time></trkpt><trkpt lat="45.7195117" lon="8.6038183"><ele>207.99999999999997</ele><time>2026-03-22T13:48:11.341Z</time></trkpt><trkpt lat="45.719525" lon="8.60373"><ele>208.0</ele><time>2026-03-22T13:48:12.341Z</time></trkpt><trkpt lat="45.7195483" lon="8.6036417"><ele>208.0</ele><time>2026-03-22T13:48:13.341Z</time></trkpt><trkpt lat="45.719605" lon="8.60353"><ele>208.0</ele><time>2026-03-22T13:48:15.341Z</time></trkpt><trkpt lat="45.7196567" lon="8.6034283"><ele>207.99999999999997</ele><time>2026-03-22T13:48:17.341Z</time></trkpt><trkpt lat="45.71969" lon="8.6032583"><ele>208.0</ele><time>2026-03-22T13:48:19.341Z</time></trkpt><trkpt lat="45.7196667" lon="8.6031033"><ele>207.83333333333331</ele><time>2026-03-22T13:48:21.341Z</time></trkpt><trkpt lat="45.7195867" lon="8.6029917"><ele>207.66666666666666</ele><time>2026-03-22T13:48:23.341Z</time></trkpt><trkpt lat="45.7195367" lon="8.60293"><ele>207.5</ele><time>2026-03-22T13:48:24.341Z</time></trkpt><trkpt lat="45.7194983" lon="8.602855"><ele>207.33333333333331</ele><time>2026-03-22T13:48:25.341Z</time></trkpt><trkpt lat="45.7194733" lon="8.602765"><ele>207.16666666666666</ele><time>2026-03-22T13:48:26.341Z</time></trkpt><trkpt lat="45.7194583" lon="8.6026633"><ele>207.0</ele><time>2026-03-22T13:48:27.341Z</time></trkpt><trkpt lat="45.7194483" lon="8.602555"><ele>207.0</ele><time>2026-03-22T13:48:28.341Z</time></trkpt><trkpt lat="45.71945" lon="8.6024333"><ele>207.0</ele><time>2026-03-22T13:48:29.341Z</time></trkpt><trkpt lat="45.7194483" lon="8.60228"><ele>207.0</ele><time>2026-03-22T13:48:30.341Z</time></trkpt><trkpt lat="45.719445" lon="8.60209"><ele>207.0</ele><time>2026-03-22T13:48:31.341Z</time></trkpt><trkpt lat="45.71944" lon="8.60186"><ele>207.0</ele><time>2026-03-22T13:48:32.341Z</time></trkpt><trkpt lat="45.71944" lon="8.601625"><ele>207.0</ele><time>2026-03-22T13:48:33.341Z</time></trkpt><trkpt lat="45.7194317" lon="8.601395"><ele>207.0</ele><time>2026-03-22T13:48:34.341Z</time></trkpt><trkpt lat="45.71943" lon="8.601165"><ele>205.66666666666669</ele><time>2026-03-22T13:48:35.341Z</time></trkpt><trkpt lat="45.7194217" lon="8.6009433"><ele>204.33333333333334</ele><time>2026-03-22T13:48:36.341Z</time></trkpt><trkpt lat="45.7194117" lon="8.6007233"><ele>203.0</ele><time>2026-03-22T13:48:37.341Z</time></trkpt><trkpt lat="45.7194033" lon="8.6005133"><ele>202.25</ele><time>2026-03-22T13:48:38.341Z</time></trkpt><trkpt lat="45.7194017" lon="8.6003033"><ele>201.5</ele><time>2026-03-22T13:48:39.341Z</time></trkpt><trkpt lat="45.7193983" lon="8.6000933"><ele>200.75</ele><time>2026-03-22T13:48:40.341Z</time></trkpt><trkpt lat="45.719395" lon="8.5998817"><ele>200.0</ele><time>2026-03-22T13:48:41.341Z</time></trkpt><trkpt lat="45.7193917" lon="8.599675"><ele>200.25</ele><time>2026-03-22T13:48:42.341Z</time></trkpt><trkpt lat="45.7193867" lon="8.599475"><ele>200.5</ele><time>2026-03-22T13:48:43.341Z</time></trkpt><trkpt lat="45.7193833" lon="8.5992783"><ele>200.75</ele><time>2026-03-22T13:48:44.341Z</time></trkpt><trkpt lat="45.7193767" lon="8.5990867"><ele>201.0</ele><time>2026-03-22T13:48:45.341Z</time></trkpt><trkpt lat="45.7193783" lon="8.5988983"><ele>201.0</ele><time>2026-03-22T13:48:46.341Z</time></trkpt><trkpt lat="45.7193833" lon="8.5987133"><ele>201.0</ele><time>2026-03-22T13:48:47.341Z</time></trkpt><trkpt lat="45.7193817" lon="8.59853"><ele>201.0</ele><time>2026-03-22T13:48:48.341Z</time></trkpt><trkpt lat="45.71938" lon="8.5983467"><ele>201.0</ele><time>2026-03-22T13:48:49.341Z</time></trkpt><trkpt lat="45.7193767" lon="8.5981483"><ele>201.33333333333331</ele><time>2026-03-22T13:48:50.341Z</time></trkpt><trkpt lat="45.719365" lon="8.5979417"><ele>201.66666666666666</ele><time>2026-03-22T13:48:51.341Z</time></trkpt><trkpt lat="45.71937" lon="8.5977117"><ele>202.0</ele><time>2026-03-22T13:48:52.341Z</time></trkpt><trkpt lat="45.719375" lon="8.5974617"><ele>202.33333333333331</ele><time>2026-03-22T13:48:53.341Z</time></trkpt><trkpt lat="45.71939" lon="8.5972167"><ele>202.66666666666669</ele><time>2026-03-22T13:48:54.341Z</time></trkpt><trkpt lat="45.7194033" lon="8.5969617"><ele>203.0</ele><time>2026-03-22T13:48:55.341Z</time></trkpt><trkpt lat="45.7194133" lon="8.5967067"><ele>203.66666666666669</ele><time>2026-03-22T13:48:56.341Z</time></trkpt><trkpt lat="45.71943" lon="8.5964717"><ele>204.33333333333331</ele><time>2026-03-22T13:48:57.341Z</time></trkpt><trkpt lat="45.7194483" lon="8.596255"><ele>205.0</ele><time>2026-03-22T13:48:58.341Z</time></trkpt><trkpt lat="45.7194583" lon="8.5960433"><ele>205.0</ele><time>2026-03-22T13:48:59.341Z</time></trkpt><trkpt lat="45.7194717" lon="8.5958183"><ele>205.0</ele><time>2026-03-22T13:49:00.341Z</time></trkpt><trkpt lat="45.7194867" lon="8.5955783"><ele>205.0</ele><time>2026-03-22T13:49:01.341Z</time></trkpt><trkpt lat="45.7195" lon="8.59533"><ele>205.0</ele><time>2026-03-22T13:49:02.341Z</time></trkpt><trkpt lat="45.7195017" lon="8.5950717"><ele>205.0</ele><time>2026-03-22T13:49:03.341Z</time></trkpt><trkpt lat="45.719515" lon="8.5948033"><ele>205.0</ele><time>2026-03-22T13:49:04.341Z</time></trkpt><trkpt lat="45.7195317" lon="8.59455"><ele>204.66666666666666</ele><time>2026-03-22T13:49:05.341Z</time></trkpt><trkpt lat="45.7195517" lon="8.5943217"><ele>204.33333333333331</ele><time>2026-03-22T13:49:06.341Z</time></trkpt><trkpt lat="45.719575" lon="8.5941033"><ele>204.0</ele><time>2026-03-22T13:49:07.341Z</time></trkpt><trkpt lat="45.7195917" lon="8.593895"><ele>204.0</ele><time>2026-03-22T13:49:08.341Z</time></trkpt><trkpt lat="45.719605" lon="8.59369"><ele>204.0</ele><time>2026-03-22T13:49:09.341Z</time></trkpt><trkpt lat="45.7196183" lon="8.5934933"><ele>204.0</ele><time>2026-03-22T13:49:10.341Z</time></trkpt><trkpt lat="45.7196367" lon="8.5933083"><ele>204.0</ele><time>2026-03-22T13:49:11.341Z</time></trkpt><trkpt lat="45.7196483" lon="8.5931367"><ele>204.2</ele><time>2026-03-22T13:49:12.341Z</time></trkpt><trkpt lat="45.7196633" lon="8.5929667"><ele>204.39999999999998</ele><time>2026-03-22T13:49:13.341Z</time></trkpt><trkpt lat="45.7196783" lon="8.592815"><ele>204.6</ele><time>2026-03-22T13:49:14.341Z</time></trkpt><trkpt lat="45.7196867" lon="8.5926617"><ele>204.8</ele><time>2026-03-22T13:49:15.341Z</time></trkpt><trkpt lat="45.7197" lon="8.59252"><ele>205.0</ele><time>2026-03-22T13:49:16.341Z</time></trkpt><trkpt lat="45.7197183" lon="8.5923667"><ele>205.2</ele><time>2026-03-22T13:49:17.341Z</time></trkpt><trkpt lat="45.7197333" lon="8.5922133"><ele>205.4</ele><time>2026-03-22T13:49:18.341Z</time></trkpt><trkpt lat="45.71974" lon="8.5920467"><ele>205.60000000000002</ele><time>2026-03-22T13:49:19.341Z</time></trkpt><trkpt lat="45.71974" lon="8.5918867"><ele>205.8</ele><time>2026-03-22T13:49:20.341Z</time></trkpt><trkpt lat="45.719735" lon="8.5917483"><ele>206.0</ele><time>2026-03-22T13:49:21.341Z</time></trkpt><trkpt lat="45.7197367" lon="8.5916417"><ele>206.0</ele><time>2026-03-22T13:49:22.341Z</time></trkpt><trkpt lat="45.719725" lon="8.5914983"><ele>206.0</ele><time>2026-03-22T13:49:24.341Z</time></trkpt><trkpt lat="45.7197483" lon="8.5913583"><ele>206.0</ele><time>2026-03-22T13:49:34.341Z</time></trkpt><trkpt lat="45.71978" lon="8.5912133"><ele>206.0</ele><time>2026-03-22T13:49:37.341Z</time></trkpt><trkpt lat="45.7197933" lon="8.5911133"><ele>206.0</ele><time>2026-03-22T13:49:38.341Z</time></trkpt><trkpt lat="45.71981" lon="8.5910033"><ele>205.8</ele><time>2026-03-22T13:49:39.341Z</time></trkpt><trkpt lat="45.7198117" lon="8.590865"><ele>205.60000000000002</ele><time>2026-03-22T13:49:40.341Z</time></trkpt><trkpt lat="45.71979" lon="8.590725"><ele>205.4</ele><time>2026-03-22T13:49:41.341Z</time></trkpt><trkpt lat="45.7197717" lon="8.5905817"><ele>205.2</ele><time>2026-03-22T13:49:42.341Z</time></trkpt><trkpt lat="45.7197667" lon="8.5904167"><ele>205.0</ele><time>2026-03-22T13:49:43.341Z</time></trkpt><trkpt lat="45.719785" lon="8.5902233"><ele>205.0</ele><time>2026-03-22T13:49:44.341Z</time></trkpt><trkpt lat="45.719805" lon="8.5900217"><ele>205.0</ele><time>2026-03-22T13:49:45.341Z</time></trkpt><trkpt lat="45.71983" lon="8.5898367"><ele>205.0</ele><time>2026-03-22T13:49:46.341Z</time></trkpt><trkpt lat="45.7198533" lon="8.589645"><ele>205.0</ele><time>2026-03-22T13:49:47.341Z</time></trkpt><trkpt lat="45.7198717" lon="8.5894567"><ele>204.75</ele><time>2026-03-22T13:49:48.341Z</time></trkpt><trkpt lat="45.7198833" lon="8.5892733"><ele>204.5</ele><time>2026-03-22T13:49:49.341Z</time></trkpt><trkpt lat="45.7198983" lon="8.5890867"><ele>204.25</ele><time>2026-03-22T13:49:50.341Z</time></trkpt><trkpt lat="45.7199117" lon="8.5888917"><ele>204.0</ele><time>2026-03-22T13:49:51.341Z</time></trkpt><trkpt lat="45.7199317" lon="8.5886833"><ele>204.0</ele><time>2026-03-22T13:49:52.341Z</time></trkpt><trkpt lat="45.71996" lon="8.5884733"><ele>204.0</ele><time>2026-03-22T13:49:53.341Z</time></trkpt><trkpt lat="45.7199867" lon="8.58824"><ele>204.0</ele><time>2026-03-22T13:49:54.341Z</time></trkpt><trkpt lat="45.7200117" lon="8.588015"><ele>204.0</ele><time>2026-03-22T13:49:55.341Z</time></trkpt><trkpt lat="45.7200333" lon="8.5878067"><ele>204.0</ele><time>2026-03-22T13:49:56.341Z</time></trkpt><trkpt lat="45.72004" lon="8.5876"><ele>204.0</ele><time>2026-03-22T13:49:57.341Z</time></trkpt><trkpt lat="45.7200433" lon="8.5874167"><ele>204.0</ele><time>2026-03-22T13:49:58.341Z</time></trkpt><trkpt lat="45.7200433" lon="8.5872383"><ele>204.0</ele><time>2026-03-22T13:49:59.341Z</time></trkpt><trkpt lat="45.7200417" lon="8.5870717"><ele>204.0</ele><time>2026-03-22T13:50:00.341Z</time></trkpt><trkpt lat="45.7200367" lon="8.5869217"><ele>204.0</ele><time>2026-03-22T13:50:01.341Z</time></trkpt><trkpt lat="45.720025" lon="8.5867833"><ele>204.0</ele><time>2026-03-22T13:50:02.341Z</time></trkpt><trkpt lat="45.7200217" lon="8.5866617"><ele>204.0</ele><time>2026-03-22T13:50:03.341Z</time></trkpt><trkpt lat="45.72002" lon="8.58656"><ele>203.85714285714286</ele><time>2026-03-22T13:50:04.341Z</time></trkpt><trkpt lat="45.72003" lon="8.5864583"><ele>203.71428571428572</ele><time>2026-03-22T13:50:05.341Z</time></trkpt><trkpt lat="45.7200467" lon="8.5863517"><ele>203.57142857142856</ele><time>2026-03-22T13:50:06.341Z</time></trkpt><trkpt lat="45.7200717" lon="8.5862483"><ele>203.42857142857144</ele><time>2026-03-22T13:50:07.341Z</time></trkpt><trkpt lat="45.7200967" lon="8.5861383"><ele>203.28571428571428</ele><time>2026-03-22T13:50:08.341Z</time></trkpt><trkpt lat="45.7201167" lon="8.58604"><ele>203.14285714285714</ele><time>2026-03-22T13:50:09.341Z</time></trkpt><trkpt lat="45.7201283" lon="8.5859483"><ele>203.0</ele><time>2026-03-22T13:50:10.341Z</time></trkpt><trkpt lat="45.7201433" lon="8.5858567"><ele>202.8</ele><time>2026-03-22T13:50:11.341Z</time></trkpt><trkpt lat="45.7201717" lon="8.585765"><ele>202.60000000000002</ele><time>2026-03-22T13:50:12.341Z</time></trkpt><trkpt lat="45.7202167" lon="8.5856617"><ele>202.39999999999998</ele><time>2026-03-22T13:50:13.341Z</time></trkpt><trkpt lat="45.72028" lon="8.5855467"><ele>202.2</ele><time>2026-03-22T13:50:14.341Z</time></trkpt><trkpt lat="45.7203583" lon="8.585425"><ele>202.0</ele><time>2026-03-22T13:50:15.341Z</time></trkpt><trkpt lat="45.7204533" lon="8.5853"><ele>202.0</ele><time>2026-03-22T13:50:16.341Z</time></trkpt><trkpt lat="45.7205567" lon="8.5851833"><ele>202.0</ele><time>2026-03-22T13:50:17.341Z</time></trkpt><trkpt lat="45.7206633" lon="8.58507"><ele>202.0</ele><time>2026-03-22T13:50:18.341Z</time></trkpt><trkpt lat="45.7207683" lon="8.5849633"><ele>202.0</ele><time>2026-03-22T13:50:19.341Z</time></trkpt><trkpt lat="45.7208633" lon="8.584865"><ele>202.0</ele><time>2026-03-22T13:50:20.341Z</time></trkpt><trkpt lat="45.7209533" lon="8.5847783"><ele>202.0</ele><time>2026-03-22T13:50:21.341Z</time></trkpt><trkpt lat="45.72105" lon="8.584685"><ele>202.0</ele><time>2026-03-22T13:50:22.341Z</time></trkpt><trkpt lat="45.721145" lon="8.5845933"><ele>202.0</ele><time>2026-03-22T13:50:23.341Z</time></trkpt><trkpt lat="45.721235" lon="8.5845"><ele>201.8</ele><time>2026-03-22T13:50:24.341Z</time></trkpt><trkpt lat="45.7213233" lon="8.5844117"><ele>201.6</ele><time>2026-03-22T13:50:25.341Z</time></trkpt><trkpt lat="45.7214033" lon="8.5843383"><ele>201.4</ele><time>2026-03-22T13:50:26.341Z</time></trkpt><trkpt lat="45.72148" lon="8.5842717"><ele>201.20000000000002</ele><time>2026-03-22T13:50:27.341Z</time></trkpt><trkpt lat="45.7215533" lon="8.5842"><ele>201.0</ele><time>2026-03-22T13:50:28.341Z</time></trkpt><trkpt lat="45.7216283" lon="8.58413"><ele>201.0</ele><time>2026-03-22T13:50:29.341Z</time></trkpt><trkpt lat="45.72171" lon="8.5840617"><ele>201.0</ele><time>2026-03-22T13:50:30.341Z</time></trkpt><trkpt lat="45.7217917" lon="8.584005"><ele>201.0</ele><time>2026-03-22T13:50:31.341Z</time></trkpt><trkpt lat="45.72188" lon="8.583925"><ele>201.0</ele><time>2026-03-22T13:50:32.341Z</time></trkpt><trkpt lat="45.7219767" lon="8.583835"><ele>201.0</ele><time>2026-03-22T13:50:33.342Z</time></trkpt><trkpt lat="45.7220867" lon="8.5837417"><ele>201.5</ele><time>2026-03-22T13:50:34.341Z</time></trkpt><trkpt lat="45.7222017" lon="8.5836483"><ele>202.0</ele><time>2026-03-22T13:50:35.341Z</time></trkpt><trkpt lat="45.7223133" lon="8.5835583"><ele>202.5</ele><time>2026-03-22T13:50:36.341Z</time></trkpt><trkpt lat="45.722415" lon="8.5834817"><ele>203.0</ele><time>2026-03-22T13:50:37.342Z</time></trkpt><trkpt lat="45.722515" lon="8.5834033"><ele>203.0</ele><time>2026-03-22T13:50:38.341Z</time></trkpt><trkpt lat="45.7226117" lon="8.583335"><ele>203.0</ele><time>2026-03-22T13:50:39.341Z</time></trkpt><trkpt lat="45.7227" lon="8.5832717"><ele>203.0</ele><time>2026-03-22T13:50:40.341Z</time></trkpt><trkpt lat="45.7227817" lon="8.5832133"><ele>203.0</ele><time>2026-03-22T13:50:41.341Z</time></trkpt><trkpt lat="45.7228667" lon="8.5831567"><ele>203.0</ele><time>2026-03-22T13:50:42.341Z</time></trkpt><trkpt lat="45.7229483" lon="8.5830967"><ele>202.8</ele><time>2026-03-22T13:50:43.341Z</time></trkpt><trkpt lat="45.72303" lon="8.5830267"><ele>202.60000000000002</ele><time>2026-03-22T13:50:44.341Z</time></trkpt><trkpt lat="45.7231233" lon="8.58295"><ele>202.39999999999998</ele><time>2026-03-22T13:50:45.341Z</time></trkpt><trkpt lat="45.72321" lon="8.5828817"><ele>202.2</ele><time>2026-03-22T13:50:46.341Z</time></trkpt><trkpt lat="45.7232983" lon="8.5828067"><ele>202.0</ele><time>2026-03-22T13:50:47.341Z</time></trkpt><trkpt lat="45.723405" lon="8.58272"><ele>202.0</ele><time>2026-03-22T13:50:48.341Z</time></trkpt><trkpt lat="45.7235183" lon="8.5826183"><ele>202.0</ele><time>2026-03-22T13:50:49.341Z</time></trkpt><trkpt lat="45.72364" lon="8.582525"><ele>202.0</ele><time>2026-03-22T13:50:50.341Z</time></trkpt><trkpt lat="45.7237733" lon="8.5824317"><ele>202.0</ele><time>2026-03-22T13:50:51.341Z</time></trkpt><trkpt lat="45.723905" lon="8.582335"><ele>201.75</ele><time>2026-03-22T13:50:52.341Z</time></trkpt><trkpt lat="45.7240333" lon="8.58223"><ele>201.5</ele><time>2026-03-22T13:50:53.341Z</time></trkpt><trkpt lat="45.7241633" lon="8.58213"><ele>201.25</ele><time>2026-03-22T13:50:54.341Z</time></trkpt><trkpt lat="45.7242833" lon="8.5820383"><ele>201.0</ele><time>2026-03-22T13:50:55.341Z</time></trkpt><trkpt lat="45.7243967" lon="8.5819533"><ele>201.0</ele><time>2026-03-22T13:50:56.341Z</time></trkpt><trkpt lat="45.7245083" lon="8.58187"><ele>201.0</ele><time>2026-03-22T13:50:57.341Z</time></trkpt><trkpt lat="45.7246217" lon="8.58178"><ele>201.0</ele><time>2026-03-22T13:50:58.341Z</time></trkpt><trkpt lat="45.7247317" lon="8.5816917"><ele>201.0</ele><time>2026-03-22T13:50:59.341Z</time></trkpt><trkpt lat="45.7248317" lon="8.5816083"><ele>201.0</ele><time>2026-03-22T13:51:00.341Z</time></trkpt><trkpt lat="45.7249333" lon="8.5815267"><ele>201.0</ele><time>2026-03-22T13:51:01.341Z</time></trkpt><trkpt lat="45.725035" lon="8.5814367"><ele>201.0</ele><time>2026-03-22T13:51:02.341Z</time></trkpt><trkpt lat="45.7251333" lon="8.5813533"><ele>201.0</ele><time>2026-03-22T13:51:03.341Z</time></trkpt><trkpt lat="45.72524" lon="8.5812717"><ele>201.0</ele><time>2026-03-22T13:51:04.341Z</time></trkpt><trkpt lat="45.725335" lon="8.5811933"><ele>201.0</ele><time>2026-03-22T13:51:05.341Z</time></trkpt><trkpt lat="45.725435" lon="8.5811117"><ele>201.0</ele><time>2026-03-22T13:51:06.341Z</time></trkpt><trkpt lat="45.7255467" lon="8.5810283"><ele>201.0</ele><time>2026-03-22T13:51:07.341Z</time></trkpt><trkpt lat="45.725655" lon="8.5809517"><ele>201.0</ele><time>2026-03-22T13:51:08.341Z</time></trkpt><trkpt lat="45.7257767" lon="8.5808733"><ele>201.0</ele><time>2026-03-22T13:51:09.341Z</time></trkpt><trkpt lat="45.7259067" lon="8.58078"><ele>201.0</ele><time>2026-03-22T13:51:10.341Z</time></trkpt><trkpt lat="45.726025" lon="8.5806767"><ele>201.0</ele><time>2026-03-22T13:51:11.341Z</time></trkpt><trkpt lat="45.7261667" lon="8.580605"><ele>201.0</ele><time>2026-03-22T13:51:12.341Z</time></trkpt><trkpt lat="45.72629" lon="8.5804883"><ele>201.0</ele><time>2026-03-22T13:51:13.341Z</time></trkpt><trkpt lat="45.7264233" lon="8.5803733"><ele>201.0</ele><time>2026-03-22T13:51:14.341Z</time></trkpt><trkpt lat="45.72656" lon="8.5802483"><ele>201.0</ele><time>2026-03-22T13:51:15.341Z</time></trkpt><trkpt lat="45.7266883" lon="8.58014"><ele>201.0</ele><time>2026-03-22T13:51:16.341Z</time></trkpt><trkpt lat="45.7268117" lon="8.5800417"><ele>201.0</ele><time>2026-03-22T13:51:17.341Z</time></trkpt><trkpt lat="45.72694" lon="8.579945"><ele>201.0</ele><time>2026-03-22T13:51:18.341Z</time></trkpt><trkpt lat="45.7270683" lon="8.5798567"><ele>201.0</ele><time>2026-03-22T13:51:19.341Z</time></trkpt><trkpt lat="45.7271883" lon="8.57977"><ele>201.0</ele><time>2026-03-22T13:51:20.341Z</time></trkpt><trkpt lat="45.7272933" lon="8.5797033"><ele>201.0</ele><time>2026-03-22T13:51:21.341Z</time></trkpt><trkpt lat="45.7273883" lon="8.57966"><ele>201.0</ele><time>2026-03-22T13:51:22.341Z</time></trkpt><trkpt lat="45.7274817" lon="8.579645"><ele>201.0</ele><time>2026-03-22T13:51:23.341Z</time></trkpt><trkpt lat="45.7275667" lon="8.5796467"><ele>201.0</ele><time>2026-03-22T13:51:24.341Z</time></trkpt><trkpt lat="45.727645" lon="8.57964"><ele>201.0</ele><time>2026-03-22T13:51:25.341Z</time></trkpt><trkpt lat="45.7277233" lon="8.5796"><ele>201.0</ele><time>2026-03-22T13:51:26.341Z</time></trkpt><trkpt lat="45.7277867" lon="8.5795117"><ele>201.0</ele><time>2026-03-22T13:51:27.341Z</time></trkpt><trkpt lat="45.7278533" lon="8.5793917"><ele>201.0</ele><time>2026-03-22T13:51:28.341Z</time></trkpt><trkpt lat="45.7279383" lon="8.5792467"><ele>201.66666666666669</ele><time>2026-03-22T13:51:29.341Z</time></trkpt><trkpt lat="45.7280617" lon="8.5791217"><ele>202.33333333333334</ele><time>2026-03-22T13:51:30.341Z</time></trkpt><trkpt lat="45.7282017" lon="8.5790133"><ele>203.0</ele><time>2026-03-22T13:51:31.341Z</time></trkpt><trkpt lat="45.7283333" lon="8.57891"><ele>203.0</ele><time>2026-03-22T13:51:32.341Z</time></trkpt><trkpt lat="45.7284433" lon="8.5788067"><ele>203.0</ele><time>2026-03-22T13:51:33.341Z</time></trkpt><trkpt lat="45.7285467" lon="8.5787"><ele>203.0</ele><time>2026-03-22T13:51:34.341Z</time></trkpt><trkpt lat="45.72865" lon="8.5786117"><ele>203.0</ele><time>2026-03-22T13:51:35.341Z</time></trkpt><trkpt lat="45.7287483" lon="8.5785333"><ele>203.25</ele><time>2026-03-22T13:51:36.341Z</time></trkpt><trkpt lat="45.7288417" lon="8.5784567"><ele>203.5</ele><time>2026-03-22T13:51:37.341Z</time></trkpt><trkpt lat="45.728935" lon="8.578375"><ele>203.75</ele><time>2026-03-22T13:51:38.341Z</time></trkpt><trkpt lat="45.7290433" lon="8.5782917"><ele>204.0</ele><time>2026-03-22T13:51:39.341Z</time></trkpt><trkpt lat="45.729155" lon="8.5781933"><ele>204.0</ele><time>2026-03-22T13:51:40.341Z</time></trkpt><trkpt lat="45.7292833" lon="8.5781033"><ele>204.0</ele><time>2026-03-22T13:51:41.341Z</time></trkpt><trkpt lat="45.7294067" lon="8.5780067"><ele>204.0</ele><time>2026-03-22T13:51:42.341Z</time></trkpt><trkpt lat="45.7295183" lon="8.5779133"><ele>204.0</ele><time>2026-03-22T13:51:43.341Z</time></trkpt><trkpt lat="45.7296167" lon="8.5778333"><ele>204.0</ele><time>2026-03-22T13:51:44.341Z</time></trkpt><trkpt lat="45.7297133" lon="8.5777483"><ele>204.0</ele><time>2026-03-22T13:51:45.341Z</time></trkpt><trkpt lat="45.7298133" lon="8.5776833"><ele>204.0</ele><time>2026-03-22T13:51:46.341Z</time></trkpt><trkpt lat="45.7299033" lon="8.577605"><ele>204.0</ele><time>2026-03-22T13:51:47.341Z</time></trkpt><trkpt lat="45.729995" lon="8.5775267"><ele>204.0</ele><time>2026-03-22T13:51:48.341Z</time></trkpt><trkpt lat="45.7300833" lon="8.57745"><ele>204.0</ele><time>2026-03-22T13:51:49.341Z</time></trkpt><trkpt lat="45.7301667" lon="8.5773817"><ele>204.0</ele><time>2026-03-22T13:51:50.341Z</time></trkpt><trkpt lat="45.73024" lon="8.5773217"><ele>204.0</ele><time>2026-03-22T13:51:51.341Z</time></trkpt><trkpt lat="45.7303117" lon="8.5772683"><ele>204.0</ele><time>2026-03-22T13:51:52.341Z</time></trkpt><trkpt lat="45.7303733" lon="8.5772267"><ele>204.0</ele><time>2026-03-22T13:51:53.341Z</time></trkpt><trkpt lat="45.730485" lon="8.57717"><ele>204.0</ele><time>2026-03-22T13:51:55.341Z</time></trkpt><trkpt lat="45.73062" lon="8.57719"><ele>203.66666666666666</ele><time>2026-03-22T13:51:57.341Z</time></trkpt><trkpt lat="45.7306933" lon="8.577195"><ele>203.33333333333331</ele><time>2026-03-22T13:51:58.341Z</time></trkpt><trkpt lat="45.73076" lon="8.5771583"><ele>203.0</ele><time>2026-03-22T13:51:59.341Z</time></trkpt><trkpt lat="45.7308017" lon="8.5770733"><ele>202.66666666666666</ele><time>2026-03-22T13:52:00.341Z</time></trkpt><trkpt lat="45.7308333" lon="8.5769717"><ele>202.33333333333331</ele><time>2026-03-22T13:52:01.341Z</time></trkpt><trkpt lat="45.7308733" lon="8.576875"><ele>202.0</ele><time>2026-03-22T13:52:02.341Z</time></trkpt><trkpt lat="45.73094" lon="8.5767967"><ele>202.0</ele><time>2026-03-22T13:52:03.341Z</time></trkpt><trkpt lat="45.7310183" lon="8.576735"><ele>202.0</ele><time>2026-03-22T13:52:04.341Z</time></trkpt><trkpt lat="45.7311017" lon="8.5766783"><ele>202.0</ele><time>2026-03-22T13:52:05.341Z</time></trkpt><trkpt lat="45.7311883" lon="8.576605"><ele>202.0</ele><time>2026-03-22T13:52:06.341Z</time></trkpt><trkpt lat="45.73127" lon="8.57652"><ele>202.0</ele><time>2026-03-22T13:52:07.341Z</time></trkpt><trkpt lat="45.731365" lon="8.5764417"><ele>202.0</ele><time>2026-03-22T13:52:08.341Z</time></trkpt><trkpt lat="45.7314633" lon="8.57637"><ele>202.0</ele><time>2026-03-22T13:52:09.341Z</time></trkpt><trkpt lat="45.7315583" lon="8.576295"><ele>202.0</ele><time>2026-03-22T13:52:10.341Z</time></trkpt><trkpt lat="45.7316517" lon="8.576235"><ele>202.0</ele><time>2026-03-22T13:52:11.341Z</time></trkpt><trkpt lat="45.7317483" lon="8.5761683"><ele>202.0</ele><time>2026-03-22T13:52:12.341Z</time></trkpt><trkpt lat="45.7318417" lon="8.5760967"><ele>202.39999999999998</ele><time>2026-03-22T13:52:13.341Z</time></trkpt><trkpt lat="45.731935" lon="8.5760233"><ele>202.79999999999998</ele><time>2026-03-22T13:52:14.341Z</time></trkpt><trkpt lat="45.732025" lon="8.5759533"><ele>203.2</ele><time>2026-03-22T13:52:15.341Z</time></trkpt><trkpt lat="45.732115" lon="8.5758817"><ele>203.6</ele><time>2026-03-22T13:52:16.341Z</time></trkpt><trkpt lat="45.7322" lon="8.57581"><ele>204.0</ele><time>2026-03-22T13:52:17.341Z</time></trkpt><trkpt lat="45.7322867" lon="8.57573"><ele>204.0</ele><time>2026-03-22T13:52:18.341Z</time></trkpt><trkpt lat="45.7323617" lon="8.5756633"><ele>204.0</ele><time>2026-03-22T13:52:19.341Z</time></trkpt><trkpt lat="45.732435" lon="8.5756033"><ele>204.0</ele><time>2026-03-22T13:52:20.341Z</time></trkpt><trkpt lat="45.7325117" lon="8.5755433"><ele>204.0</ele><time>2026-03-22T13:52:21.341Z</time></trkpt><trkpt lat="45.7325833" lon="8.5754867"><ele>204.0</ele><time>2026-03-22T13:52:22.341Z</time></trkpt><trkpt lat="45.7326517" lon="8.5754267"><ele>204.0</ele><time>2026-03-22T13:52:23.341Z</time></trkpt><trkpt lat="45.7327283" lon="8.5753633"><ele>204.2</ele><time>2026-03-22T13:52:24.341Z</time></trkpt><trkpt lat="45.732815" lon="8.5752983"><ele>204.39999999999998</ele><time>2026-03-22T13:52:25.341Z</time></trkpt><trkpt lat="45.732905" lon="8.5752283"><ele>204.6</ele><time>2026-03-22T13:52:26.341Z</time></trkpt><trkpt lat="45.7329933" lon="8.57516"><ele>204.8</ele><time>2026-03-22T13:52:27.341Z</time></trkpt><trkpt lat="45.7330733" lon="8.5751017"><ele>205.0</ele><time>2026-03-22T13:52:28.341Z</time></trkpt><trkpt lat="45.73314" lon="8.5750433"><ele>204.99999999999997</ele><time>2026-03-22T13:52:29.341Z</time></trkpt><trkpt lat="45.7331967" lon="8.5749967"><ele>205.0</ele><time>2026-03-22T13:52:30.341Z</time></trkpt><trkpt lat="45.7332517" lon="8.5749483"><ele>205.0</ele><time>2026-03-22T13:52:31.341Z</time></trkpt><trkpt lat="45.7333583" lon="8.5748683"><ele>205.0</ele><time>2026-03-22T13:52:33.341Z</time></trkpt><trkpt lat="45.73342" lon="8.5748283"><ele>204.99999999999997</ele><time>2026-03-22T13:52:34.341Z</time></trkpt><trkpt lat="45.73349" lon="8.5747783"><ele>205.0</ele><time>2026-03-22T13:52:35.341Z</time></trkpt><trkpt lat="45.73357" lon="8.574725"><ele>205.2</ele><time>2026-03-22T13:52:36.341Z</time></trkpt><trkpt lat="45.73366" lon="8.5746517"><ele>205.4</ele><time>2026-03-22T13:52:37.341Z</time></trkpt><trkpt lat="45.7337533" lon="8.5745683"><ele>205.60000000000002</ele><time>2026-03-22T13:52:38.341Z</time></trkpt><trkpt lat="45.73385" lon="8.5745"><ele>205.8</ele><time>2026-03-22T13:52:39.341Z</time></trkpt><trkpt lat="45.733935" lon="8.5744383"><ele>206.0</ele><time>2026-03-22T13:52:40.341Z</time></trkpt><trkpt lat="45.7340117" lon="8.574385"><ele>206.00000000000003</ele><time>2026-03-22T13:52:41.341Z</time></trkpt><trkpt lat="45.7340883" lon="8.5743283"><ele>206.0</ele><time>2026-03-22T13:52:42.341Z</time></trkpt><trkpt lat="45.7341683" lon="8.574265"><ele>206.0</ele><time>2026-03-22T13:52:43.341Z</time></trkpt><trkpt lat="45.7342483" lon="8.5742"><ele>206.0</ele><time>2026-03-22T13:52:44.341Z</time></trkpt><trkpt lat="45.73433" lon="8.5741417"><ele>206.00000000000003</ele><time>2026-03-22T13:52:45.341Z</time></trkpt><trkpt lat="45.7344033" lon="8.5741067"><ele>206.0</ele><time>2026-03-22T13:52:46.341Z</time></trkpt><trkpt lat="45.7344683" lon="8.5740933"><ele>206.25</ele><time>2026-03-22T13:52:47.341Z</time></trkpt><trkpt lat="45.7345767" lon="8.5741133"><ele>206.5</ele><time>2026-03-22T13:52:49.341Z</time></trkpt><trkpt lat="45.734695" lon="8.5741717"><ele>206.75</ele><time>2026-03-22T13:52:51.341Z</time></trkpt><trkpt lat="45.734815" lon="8.574195"><ele>207.0</ele><time>2026-03-22T13:52:53.341Z</time></trkpt><trkpt lat="45.7349217" lon="8.5741033"><ele>207.0</ele><time>2026-03-22T13:52:55.341Z</time></trkpt><trkpt lat="45.7349633" lon="8.5740117"><ele>207.0</ele><time>2026-03-22T13:52:56.341Z</time></trkpt><trkpt lat="45.734995" lon="8.5739083"><ele>207.0</ele><time>2026-03-22T13:52:57.341Z</time></trkpt><trkpt lat="45.7350217" lon="8.5738167"><ele>207.0</ele><time>2026-03-22T13:52:58.341Z</time></trkpt><trkpt lat="45.73506" lon="8.5737167"><ele>207.0</ele><time>2026-03-22T13:52:59.341Z</time></trkpt><trkpt lat="45.7351067" lon="8.57362"><ele>207.0</ele><time>2026-03-22T13:53:00.341Z</time></trkpt><trkpt lat="45.7351683" lon="8.5735233"><ele>207.2</ele><time>2026-03-22T13:53:01.341Z</time></trkpt><trkpt lat="45.7352333" lon="8.57344"><ele>207.39999999999998</ele><time>2026-03-22T13:53:02.341Z</time></trkpt><trkpt lat="45.735305" lon="8.5733633"><ele>207.60000000000002</ele><time>2026-03-22T13:53:03.341Z</time></trkpt><trkpt lat="45.7353867" lon="8.5732933"><ele>207.8</ele><time>2026-03-22T13:53:04.341Z</time></trkpt><trkpt lat="45.7354733" lon="8.57322"><ele>208.0</ele><time>2026-03-22T13:53:05.341Z</time></trkpt><trkpt lat="45.7355617" lon="8.5731533"><ele>208.0</ele><time>2026-03-22T13:53:06.341Z</time></trkpt><trkpt lat="45.735645" lon="8.5730833"><ele>208.0</ele><time>2026-03-22T13:53:07.341Z</time></trkpt><trkpt lat="45.73573" lon="8.57302"><ele>208.0</ele><time>2026-03-22T13:53:08.341Z</time></trkpt><trkpt lat="45.735815" lon="8.5729483"><ele>208.0</ele><time>2026-03-22T13:53:09.341Z</time></trkpt><trkpt lat="45.7359067" lon="8.572865"><ele>208.0</ele><time>2026-03-22T13:53:10.341Z</time></trkpt><trkpt lat="45.7360133" lon="8.5727817"><ele>207.66666666666666</ele><time>2026-03-22T13:53:11.341Z</time></trkpt><trkpt lat="45.7361333" lon="8.5726783"><ele>207.33333333333331</ele><time>2026-03-22T13:53:12.341Z</time></trkpt><trkpt lat="45.7362733" lon="8.5725717"><ele>207.0</ele><time>2026-03-22T13:53:13.341Z</time></trkpt><trkpt lat="45.736425" lon="8.5724583"><ele>207.0</ele><time>2026-03-22T13:53:14.341Z</time></trkpt><trkpt lat="45.7365733" lon="8.5723583"><ele>207.0</ele><time>2026-03-22T13:53:15.341Z</time></trkpt><trkpt lat="45.7367067" lon="8.5722633"><ele>207.0</ele><time>2026-03-22T13:53:16.341Z</time></trkpt><trkpt lat="45.736835" lon="8.572165"><ele>206.75</ele><time>2026-03-22T13:53:17.341Z</time></trkpt><trkpt lat="45.73696" lon="8.5720667"><ele>206.5</ele><time>2026-03-22T13:53:18.341Z</time></trkpt><trkpt lat="45.737085" lon="8.571965"><ele>206.25</ele><time>2026-03-22T13:53:19.341Z</time></trkpt><trkpt lat="45.73722" lon="8.5718583"><ele>206.0</ele><time>2026-03-22T13:53:20.341Z</time></trkpt><trkpt lat="45.73735" lon="8.5717433"><ele>206.66666666666669</ele><time>2026-03-22T13:53:21.341Z</time></trkpt><trkpt lat="45.7374833" lon="8.57163"><ele>207.33333333333331</ele><time>2026-03-22T13:53:22.341Z</time></trkpt><trkpt lat="45.7376167" lon="8.571525"><ele>208.0</ele><time>2026-03-22T13:53:23.341Z</time></trkpt><trkpt lat="45.737755" lon="8.5714133"><ele>208.0</ele><time>2026-03-22T13:53:24.341Z</time></trkpt><trkpt lat="45.7378883" lon="8.5712967"><ele>208.0</ele><time>2026-03-22T13:53:25.341Z</time></trkpt><trkpt lat="45.7380217" lon="8.571185"><ele>208.0</ele><time>2026-03-22T13:53:26.341Z</time></trkpt><trkpt lat="45.7381533" lon="8.571075"><ele>207.75</ele><time>2026-03-22T13:53:27.341Z</time></trkpt><trkpt lat="45.73828" lon="8.570975"><ele>207.5</ele><time>2026-03-22T13:53:28.341Z</time></trkpt><trkpt lat="45.7384067" lon="8.5708717"><ele>207.25</ele><time>2026-03-22T13:53:29.341Z</time></trkpt><trkpt lat="45.7385317" lon="8.570775"><ele>207.0</ele><time>2026-03-22T13:53:30.341Z</time></trkpt><trkpt lat="45.7386583" lon="8.5706767"><ele>207.0</ele><time>2026-03-22T13:53:31.341Z</time></trkpt><trkpt lat="45.7387733" lon="8.5705817"><ele>207.0</ele><time>2026-03-22T13:53:32.341Z</time></trkpt><trkpt lat="45.7388933" lon="8.5704883"><ele>207.0</ele><time>2026-03-22T13:53:33.341Z</time></trkpt><trkpt lat="45.7390133" lon="8.5704"><ele>207.0</ele><time>2026-03-22T13:53:34.342Z</time></trkpt><trkpt lat="45.7391417" lon="8.5703"><ele>207.0</ele><time>2026-03-22T13:53:35.341Z</time></trkpt><trkpt lat="45.73927" lon="8.5701917"><ele>207.0</ele><time>2026-03-22T13:53:36.341Z</time></trkpt><trkpt lat="45.7394017" lon="8.5700933"><ele>207.0</ele><time>2026-03-22T13:53:37.341Z</time></trkpt><trkpt lat="45.739525" lon="8.5699983"><ele>207.0</ele><time>2026-03-22T13:53:38.341Z</time></trkpt><trkpt lat="45.7396383" lon="8.5699117"><ele>207.25</ele><time>2026-03-22T13:53:39.341Z</time></trkpt><trkpt lat="45.7397483" lon="8.56983"><ele>207.5</ele><time>2026-03-22T13:53:40.341Z</time></trkpt><trkpt lat="45.739845" lon="8.5697583"><ele>207.75</ele><time>2026-03-22T13:53:41.341Z</time></trkpt><trkpt lat="45.739945" lon="8.5696833"><ele>208.0</ele><time>2026-03-22T13:53:42.341Z</time></trkpt><trkpt lat="45.740045" lon="8.5695983"><ele>208.0</ele><time>2026-03-22T13:53:43.341Z</time></trkpt><trkpt lat="45.7401467" lon="8.5695167"><ele>208.0</ele><time>2026-03-22T13:53:44.341Z</time></trkpt><trkpt lat="45.7402533" lon="8.569435"><ele>208.0</ele><time>2026-03-22T13:53:45.341Z</time></trkpt><trkpt lat="45.7403633" lon="8.5693533"><ele>208.0</ele><time>2026-03-22T13:53:46.341Z</time></trkpt><trkpt lat="45.7404733" lon="8.5692667"><ele>207.25</ele><time>2026-03-22T13:53:47.341Z</time></trkpt><trkpt lat="45.7405917" lon="8.5691767"><ele>206.5</ele><time>2026-03-22T13:53:48.341Z</time></trkpt><trkpt lat="45.7407117" lon="8.56908"><ele>205.75</ele><time>2026-03-22T13:53:49.341Z</time></trkpt><trkpt lat="45.740835" lon="8.5689717"><ele>205.0</ele><time>2026-03-22T13:53:50.341Z</time></trkpt><trkpt lat="45.7409783" lon="8.5688567"><ele>205.0</ele><time>2026-03-22T13:53:51.341Z</time></trkpt><trkpt lat="45.7411333" lon="8.5687333"><ele>205.0</ele><time>2026-03-22T13:53:52.341Z</time></trkpt><trkpt lat="45.741285" lon="8.5686033"><ele>205.0</ele><time>2026-03-22T13:53:53.341Z</time></trkpt><trkpt lat="45.7414333" lon="8.56848"><ele>205.0</ele><time>2026-03-22T13:53:54.341Z</time></trkpt><trkpt lat="45.74159" lon="8.5683517"><ele>205.0</ele><time>2026-03-22T13:53:55.341Z</time></trkpt><trkpt lat="45.741765" lon="8.5682217"><ele>205.0</ele><time>2026-03-22T13:53:56.341Z</time></trkpt><trkpt lat="45.74194" lon="8.5680817"><ele>205.0</ele><time>2026-03-22T13:53:57.341Z</time></trkpt><trkpt lat="45.7421133" lon="8.5679467"><ele>205.0</ele><time>2026-03-22T13:53:58.341Z</time></trkpt><trkpt lat="45.7422783" lon="8.5678267"><ele>205.0</ele><time>2026-03-22T13:53:59.341Z</time></trkpt><trkpt lat="45.7424367" lon="8.5677033"><ele>205.0</ele><time>2026-03-22T13:54:00.341Z</time></trkpt><trkpt lat="45.7425933" lon="8.5675933"><ele>205.0</ele><time>2026-03-22T13:54:01.341Z</time></trkpt><trkpt lat="45.7427333" lon="8.5674867"><ele>205.0</ele><time>2026-03-22T13:54:02.341Z</time></trkpt><trkpt lat="45.7428683" lon="8.5673683"><ele>204.5</ele><time>2026-03-22T13:54:03.341Z</time></trkpt><trkpt lat="45.7429983" lon="8.567265"><ele>204.0</ele><time>2026-03-22T13:54:04.341Z</time></trkpt><trkpt lat="45.7431267" lon="8.5671533"><ele>203.5</ele><time>2026-03-22T13:54:05.341Z</time></trkpt><trkpt lat="45.7432533" lon="8.567065"><ele>203.0</ele><time>2026-03-22T13:54:06.341Z</time></trkpt><trkpt lat="45.7433767" lon="8.5669817"><ele>203.0</ele><time>2026-03-22T13:54:07.341Z</time></trkpt><trkpt lat="45.743485" lon="8.5668883"><ele>203.0</ele><time>2026-03-22T13:54:08.341Z</time></trkpt><trkpt lat="45.74359" lon="8.5668033"><ele>203.0</ele><time>2026-03-22T13:54:09.341Z</time></trkpt><trkpt lat="45.743695" lon="8.5667167"><ele>203.0</ele><time>2026-03-22T13:54:10.341Z</time></trkpt><trkpt lat="45.7438033" lon="8.5666317"><ele>202.75</ele><time>2026-03-22T13:54:11.341Z</time></trkpt><trkpt lat="45.7439183" lon="8.5665417"><ele>202.5</ele><time>2026-03-22T13:54:12.341Z</time></trkpt><trkpt lat="45.744035" lon="8.5664583"><ele>202.25</ele><time>2026-03-22T13:54:13.341Z</time></trkpt><trkpt lat="45.7441483" lon="8.5663717"><ele>202.0</ele><time>2026-03-22T13:54:14.341Z</time></trkpt><trkpt lat="45.7442633" lon="8.566285"><ele>202.0</ele><time>2026-03-22T13:54:15.341Z</time></trkpt><trkpt lat="45.74437" lon="8.5662017"><ele>202.0</ele><time>2026-03-22T13:54:16.341Z</time></trkpt><trkpt lat="45.7444733" lon="8.5661233"><ele>202.0</ele><time>2026-03-22T13:54:17.341Z</time></trkpt><trkpt lat="45.744565" lon="8.5660467"><ele>202.0</ele><time>2026-03-22T13:54:18.341Z</time></trkpt><trkpt lat="45.7446517" lon="8.5659717"><ele>202.0</ele><time>2026-03-22T13:54:19.341Z</time></trkpt><trkpt lat="45.7447383" lon="8.565905"><ele>202.0</ele><time>2026-03-22T13:54:20.341Z</time></trkpt><trkpt lat="45.74482" lon="8.56583"><ele>202.0</ele><time>2026-03-22T13:54:21.341Z</time></trkpt><trkpt lat="45.744905" lon="8.5657617"><ele>202.0</ele><time>2026-03-22T13:54:22.341Z</time></trkpt><trkpt lat="45.744995" lon="8.56569"><ele>202.0</ele><time>2026-03-22T13:54:23.341Z</time></trkpt><trkpt lat="45.745085" lon="8.5656233"><ele>202.0</ele><time>2026-03-22T13:54:24.341Z</time></trkpt><trkpt lat="45.7451767" lon="8.5655517"><ele>202.0</ele><time>2026-03-22T13:54:25.341Z</time></trkpt><trkpt lat="45.7452667" lon="8.56547"><ele>202.0</ele><time>2026-03-22T13:54:26.341Z</time></trkpt><trkpt lat="45.7453583" lon="8.5653933"><ele>202.0</ele><time>2026-03-22T13:54:27.341Z</time></trkpt><trkpt lat="45.7454417" lon="8.565325"><ele>202.0</ele><time>2026-03-22T13:54:28.341Z</time></trkpt><trkpt lat="45.7455183" lon="8.565265"><ele>202.0</ele><time>2026-03-22T13:54:29.342Z</time></trkpt><trkpt lat="45.7455967" lon="8.5652067"><ele>201.8</ele><time>2026-03-22T13:54:30.342Z</time></trkpt><trkpt lat="45.7456767" lon="8.5651533"><ele>201.6</ele><time>2026-03-22T13:54:31.341Z</time></trkpt><trkpt lat="45.7457567" lon="8.56509"><ele>201.4</ele><time>2026-03-22T13:54:32.341Z</time></trkpt><trkpt lat="45.7458383" lon="8.56503"><ele>201.20000000000002</ele><time>2026-03-22T13:54:33.341Z</time></trkpt><trkpt lat="45.7459283" lon="8.5649683"><ele>201.0</ele><time>2026-03-22T13:54:34.341Z</time></trkpt><trkpt lat="45.7460283" lon="8.564915"><ele>200.8</ele><time>2026-03-22T13:54:35.341Z</time></trkpt><trkpt lat="45.7461333" lon="8.564875"><ele>200.60000000000002</ele><time>2026-03-22T13:54:36.341Z</time></trkpt><trkpt lat="45.7462267" lon="8.5648333"><ele>200.4</ele><time>2026-03-22T13:54:37.341Z</time></trkpt><trkpt lat="45.74632" lon="8.5648067"><ele>200.2</ele><time>2026-03-22T13:54:38.341Z</time></trkpt><trkpt lat="45.7464083" lon="8.5647867"><ele>200.0</ele><time>2026-03-22T13:54:39.341Z</time></trkpt><trkpt lat="45.74649" lon="8.5647767"><ele>200.00000000000003</ele><time>2026-03-22T13:54:40.341Z</time></trkpt><trkpt lat="45.7465633" lon="8.564765"><ele>200.0</ele><time>2026-03-22T13:54:41.341Z</time></trkpt><trkpt lat="45.7466367" lon="8.5647567"><ele>200.0</ele><time>2026-03-22T13:54:42.341Z</time></trkpt><trkpt lat="45.7467383" lon="8.5647367"><ele>200.0</ele><time>2026-03-22T13:54:44.341Z</time></trkpt><trkpt lat="45.7468233" lon="8.5647317"><ele>200.00000000000003</ele><time>2026-03-22T13:54:47.341Z</time></trkpt><trkpt lat="45.7468983" lon="8.5647483"><ele>200.0</ele><time>2026-03-22T13:54:50.341Z</time></trkpt><trkpt lat="45.7469817" lon="8.564815"><ele>200.16666666666669</ele><time>2026-03-22T13:54:52.341Z</time></trkpt><trkpt lat="45.747045" lon="8.5648533"><ele>200.33333333333334</ele><time>2026-03-22T13:54:53.341Z</time></trkpt><trkpt lat="45.7471133" lon="8.564855"><ele>200.5</ele><time>2026-03-22T13:54:54.341Z</time></trkpt><trkpt lat="45.7472033" lon="8.5647433"><ele>200.66666666666669</ele><time>2026-03-22T13:54:56.341Z</time></trkpt><trkpt lat="45.747205" lon="8.5646333"><ele>200.83333333333334</ele><time>2026-03-22T13:54:57.341Z</time></trkpt><trkpt lat="45.7471967" lon="8.5645067"><ele>201.0</ele><time>2026-03-22T13:54:58.341Z</time></trkpt><trkpt lat="45.7471983" lon="8.56439"><ele>201.4</ele><time>2026-03-22T13:54:59.341Z</time></trkpt><trkpt lat="45.7472283" lon="8.5642767"><ele>201.8</ele><time>2026-03-22T13:55:00.341Z</time></trkpt><trkpt lat="45.7472733" lon="8.5641517"><ele>202.20000000000002</ele><time>2026-03-22T13:55:01.341Z</time></trkpt><trkpt lat="45.7473267" lon="8.5640317"><ele>202.60000000000002</ele><time>2026-03-22T13:55:02.341Z</time></trkpt><trkpt lat="45.7473833" lon="8.56392"><ele>203.0</ele><time>2026-03-22T13:55:03.341Z</time></trkpt><trkpt lat="45.7474467" lon="8.5638233"><ele>203.00000000000003</ele><time>2026-03-22T13:55:04.341Z</time></trkpt><trkpt lat="45.7475133" lon="8.563745"><ele>203.0</ele><time>2026-03-22T13:55:05.341Z</time></trkpt><trkpt lat="45.747585" lon="8.563675"><ele>203.0</ele><time>2026-03-22T13:55:06.341Z</time></trkpt><trkpt lat="45.7476533" lon="8.5635967"><ele>203.0</ele><time>2026-03-22T13:55:07.341Z</time></trkpt><trkpt lat="45.7477267" lon="8.563525"><ele>203.00000000000003</ele><time>2026-03-22T13:55:08.341Z</time></trkpt><trkpt lat="45.7478017" lon="8.5634567"><ele>203.0</ele><time>2026-03-22T13:55:09.341Z</time></trkpt><trkpt lat="45.7478733" lon="8.5634033"><ele>202.71428571428572</ele><time>2026-03-22T13:55:10.341Z</time></trkpt><trkpt lat="45.7479367" lon="8.5633567"><ele>202.42857142857144</ele><time>2026-03-22T13:55:11.341Z</time></trkpt><trkpt lat="45.7479967" lon="8.563305"><ele>202.14285714285714</ele><time>2026-03-22T13:55:12.341Z</time></trkpt><trkpt lat="45.7480583" lon="8.5632483"><ele>201.85714285714286</ele><time>2026-03-22T13:55:13.341Z</time></trkpt><trkpt lat="45.7481283" lon="8.5632"><ele>201.57142857142858</ele><time>2026-03-22T13:55:14.341Z</time></trkpt><trkpt lat="45.7481967" lon="8.5631583"><ele>201.28571428571428</ele><time>2026-03-22T13:55:15.341Z</time></trkpt><trkpt lat="45.7482717" lon="8.56311"><ele>201.0</ele><time>2026-03-22T13:55:16.341Z</time></trkpt><trkpt lat="45.7483383" lon="8.5630617"><ele>201.0</ele><time>2026-03-22T13:55:17.341Z</time></trkpt><trkpt lat="45.748405" lon="8.5630133"><ele>201.0</ele><time>2026-03-22T13:55:18.341Z</time></trkpt><trkpt lat="45.7484767" lon="8.5629517"><ele>201.0</ele><time>2026-03-22T13:55:19.342Z</time></trkpt><trkpt lat="45.74855" lon="8.56288"><ele>201.0</ele><time>2026-03-22T13:55:20.341Z</time></trkpt><trkpt lat="45.74862" lon="8.5628233"><ele>201.0</ele><time>2026-03-22T13:55:21.341Z</time></trkpt><trkpt lat="45.74869" lon="8.5627767"><ele>201.0</ele><time>2026-03-22T13:55:22.341Z</time></trkpt><trkpt lat="45.7487517" lon="8.56273"><ele>201.16666666666666</ele><time>2026-03-22T13:55:23.341Z</time></trkpt><trkpt lat="45.7488133" lon="8.5626833"><ele>201.33333333333331</ele><time>2026-03-22T13:55:24.341Z</time></trkpt><trkpt lat="45.7488717" lon="8.56264"><ele>201.5</ele><time>2026-03-22T13:55:25.341Z</time></trkpt><trkpt lat="45.748945" lon="8.562575"><ele>201.66666666666666</ele><time>2026-03-22T13:55:26.341Z</time></trkpt><trkpt lat="45.7490217" lon="8.562505"><ele>201.83333333333331</ele><time>2026-03-22T13:55:27.341Z</time></trkpt><trkpt lat="45.7491083" lon="8.5624333"><ele>202.0</ele><time>2026-03-22T13:55:28.341Z</time></trkpt><trkpt lat="45.7491983" lon="8.56236"><ele>202.0</ele><time>2026-03-22T13:55:29.341Z</time></trkpt><trkpt lat="45.7492867" lon="8.562275"><ele>202.0</ele><time>2026-03-22T13:55:30.341Z</time></trkpt><trkpt lat="45.74937" lon="8.5622"><ele>202.0</ele><time>2026-03-22T13:55:31.341Z</time></trkpt><trkpt lat="45.7494483" lon="8.56213"><ele>202.0</ele><time>2026-03-22T13:55:32.341Z</time></trkpt><trkpt lat="45.7495483" lon="8.5620533"><ele>202.0</ele><time>2026-03-22T13:55:33.341Z</time></trkpt><trkpt lat="45.7496617" lon="8.5619667"><ele>202.0</ele><time>2026-03-22T13:55:34.341Z</time></trkpt><trkpt lat="45.7497883" lon="8.5618617"><ele>202.0</ele><time>2026-03-22T13:55:35.341Z</time></trkpt><trkpt lat="45.74993" lon="8.5617533"><ele>202.0</ele><time>2026-03-22T13:55:36.341Z</time></trkpt><trkpt lat="45.7500533" lon="8.561655"><ele>202.0</ele><time>2026-03-22T13:55:37.341Z</time></trkpt><trkpt lat="45.7501633" lon="8.561575"><ele>202.0</ele><time>2026-03-22T13:55:38.341Z</time></trkpt><trkpt lat="45.750265" lon="8.5615017"><ele>202.0</ele><time>2026-03-22T13:55:39.341Z</time></trkpt><trkpt lat="45.7503517" lon="8.5614283"><ele>202.0</ele><time>2026-03-22T13:55:40.341Z</time></trkpt><trkpt lat="45.7504283" lon="8.56136"><ele>202.0</ele><time>2026-03-22T13:55:41.341Z</time></trkpt><trkpt lat="45.750515" lon="8.5612917"><ele>202.0</ele><time>2026-03-22T13:55:42.341Z</time></trkpt><trkpt lat="45.7506133" lon="8.5612117"><ele>201.8</ele><time>2026-03-22T13:55:43.341Z</time></trkpt><trkpt lat="45.75071" lon="8.5611283"><ele>201.6</ele><time>2026-03-22T13:55:44.341Z</time></trkpt><trkpt lat="45.7508083" lon="8.5610583"><ele>201.4</ele><time>2026-03-22T13:55:45.341Z</time></trkpt><trkpt lat="45.7508917" lon="8.56099"><ele>201.20000000000002</ele><time>2026-03-22T13:55:46.341Z</time></trkpt><trkpt lat="45.7509733" lon="8.56093"><ele>201.0</ele><time>2026-03-22T13:55:47.341Z</time></trkpt><trkpt lat="45.7510633" lon="8.5608717"><ele>201.5</ele><time>2026-03-22T13:55:48.341Z</time></trkpt><trkpt lat="45.7511533" lon="8.560795"><ele>202.0</ele><time>2026-03-22T13:55:49.341Z</time></trkpt><trkpt lat="45.751255" lon="8.5607033"><ele>202.5</ele><time>2026-03-22T13:55:50.341Z</time></trkpt><trkpt lat="45.7513833" lon="8.5605917"><ele>203.0</ele><time>2026-03-22T13:55:51.341Z</time></trkpt><trkpt lat="45.75153" lon="8.560485"><ele>203.0</ele><time>2026-03-22T13:55:52.341Z</time></trkpt><trkpt lat="45.7516717" lon="8.56038"><ele>203.0</ele><time>2026-03-22T13:55:53.341Z</time></trkpt><trkpt lat="45.7518083" lon="8.5602867"><ele>203.0</ele><time>2026-03-22T13:55:54.341Z</time></trkpt><trkpt lat="45.7519367" lon="8.5601833"><ele>203.25</ele><time>2026-03-22T13:55:55.341Z</time></trkpt><trkpt lat="45.75204" lon="8.5601"><ele>203.5</ele><time>2026-03-22T13:55:56.341Z</time></trkpt><trkpt lat="45.7521433" lon="8.5600217"><ele>203.75</ele><time>2026-03-22T13:55:57.341Z</time></trkpt><trkpt lat="45.7522483" lon="8.5599417"><ele>204.0</ele><time>2026-03-22T13:55:58.341Z</time></trkpt><trkpt lat="45.7523483" lon="8.5598583"><ele>204.0</ele><time>2026-03-22T13:55:59.341Z</time></trkpt><trkpt lat="45.7524483" lon="8.5597783"><ele>204.0</ele><time>2026-03-22T13:56:00.341Z</time></trkpt><trkpt lat="45.7525517" lon="8.5597"><ele>204.0</ele><time>2026-03-22T13:56:01.341Z</time></trkpt><trkpt lat="45.7526567" lon="8.5596217"><ele>204.0</ele><time>2026-03-22T13:56:02.341Z</time></trkpt><trkpt lat="45.7527583" lon="8.559535"><ele>204.25</ele><time>2026-03-22T13:56:03.341Z</time></trkpt><trkpt lat="45.7528567" lon="8.5594533"><ele>204.5</ele><time>2026-03-22T13:56:04.341Z</time></trkpt><trkpt lat="45.7529617" lon="8.5593683"><ele>204.75</ele><time>2026-03-22T13:56:05.341Z</time></trkpt><trkpt lat="45.753065" lon="8.559285"><ele>205.0</ele><time>2026-03-22T13:56:06.341Z</time></trkpt><trkpt lat="45.7531683" lon="8.5592067"><ele>205.0</ele><time>2026-03-22T13:56:07.341Z</time></trkpt><trkpt lat="45.75327" lon="8.5591317"><ele>205.0</ele><time>2026-03-22T13:56:08.341Z</time></trkpt><trkpt lat="45.753375" lon="8.5590517"><ele>205.0</ele><time>2026-03-22T13:56:09.341Z</time></trkpt><trkpt lat="45.75347" lon="8.5589683"><ele>205.0</ele><time>2026-03-22T13:56:10.341Z</time></trkpt><trkpt lat="45.7535667" lon="8.55889"><ele>204.75</ele><time>2026-03-22T13:56:11.341Z</time></trkpt><trkpt lat="45.7536683" lon="8.5588133"><ele>204.5</ele><time>2026-03-22T13:56:12.341Z</time></trkpt><trkpt lat="45.7537717" lon="8.5587367"><ele>204.25</ele><time>2026-03-22T13:56:13.341Z</time></trkpt><trkpt lat="45.75388" lon="8.55865"><ele>204.0</ele><time>2026-03-22T13:56:14.341Z</time></trkpt><trkpt lat="45.7539833" lon="8.558565"><ele>204.2</ele><time>2026-03-22T13:56:15.341Z</time></trkpt><trkpt lat="45.7540833" lon="8.5584967"><ele>204.39999999999998</ele><time>2026-03-22T13:56:16.341Z</time></trkpt><trkpt lat="45.7541733" lon="8.5584233"><ele>204.6</ele><time>2026-03-22T13:56:17.341Z</time></trkpt><trkpt lat="45.7542633" lon="8.558355"><ele>204.8</ele><time>2026-03-22T13:56:18.341Z</time></trkpt><trkpt lat="45.7543483" lon="8.558285"><ele>205.0</ele><time>2026-03-22T13:56:19.341Z</time></trkpt><trkpt lat="45.754435" lon="8.5582233"><ele>204.99999999999997</ele><time>2026-03-22T13:56:20.341Z</time></trkpt><trkpt lat="45.754515" lon="8.55816"><ele>205.0</ele><time>2026-03-22T13:56:21.341Z</time></trkpt><trkpt lat="45.7545867" lon="8.5580983"><ele>205.0</ele><time>2026-03-22T13:56:22.341Z</time></trkpt><trkpt lat="45.75465" lon="8.5580467"><ele>205.0</ele><time>2026-03-22T13:56:23.341Z</time></trkpt><trkpt lat="45.7547533" lon="8.55797"><ele>204.99999999999997</ele><time>2026-03-22T13:56:30.341Z</time></trkpt><trkpt lat="45.7548117" lon="8.5579317"><ele>205.0</ele><time>2026-03-22T13:56:31.341Z</time></trkpt><trkpt lat="45.7549283" lon="8.5578567"><ele>204.8</ele><time>2026-03-22T13:56:33.341Z</time></trkpt><trkpt lat="45.7550017" lon="8.557805"><ele>204.6</ele><time>2026-03-22T13:56:34.341Z</time></trkpt><trkpt lat="45.7550883" lon="8.5577433"><ele>204.39999999999998</ele><time>2026-03-22T13:56:35.341Z</time></trkpt><trkpt lat="45.7551917" lon="8.5576883"><ele>204.2</ele><time>2026-03-22T13:56:36.341Z</time></trkpt><trkpt lat="45.7553083" lon="8.5576317"><ele>204.0</ele><time>2026-03-22T13:56:37.341Z</time></trkpt><trkpt lat="45.7554467" lon="8.5575633"><ele>204.5</ele><time>2026-03-22T13:56:38.341Z</time></trkpt><trkpt lat="45.7555983" lon="8.5575067"><ele>205.0</ele><time>2026-03-22T13:56:39.341Z</time></trkpt><trkpt lat="45.7557433" lon="8.5574633"><ele>205.5</ele><time>2026-03-22T13:56:40.341Z</time></trkpt><trkpt lat="45.7558783" lon="8.557425"><ele>206.0</ele><time>2026-03-22T13:56:41.341Z</time></trkpt><trkpt lat="45.7559983" lon="8.5574017"><ele>206.0</ele><time>2026-03-22T13:56:42.341Z</time></trkpt><trkpt lat="45.75611" lon="8.5573933"><ele>206.0</ele><time>2026-03-22T13:56:43.341Z</time></trkpt><trkpt lat="45.756215" lon="8.5573917"><ele>206.0</ele><time>2026-03-22T13:56:44.341Z</time></trkpt><trkpt lat="45.7563133" lon="8.557385"><ele>206.0</ele><time>2026-03-22T13:56:45.341Z</time></trkpt><trkpt lat="45.7563967" lon="8.5573833"><ele>206.0</ele><time>2026-03-22T13:56:46.341Z</time></trkpt><trkpt lat="45.7564717" lon="8.5573783"><ele>206.00000000000003</ele><time>2026-03-22T13:56:47.341Z</time></trkpt><trkpt lat="45.756535" lon="8.5573867"><ele>206.0</ele><time>2026-03-22T13:56:48.341Z</time></trkpt><trkpt lat="45.7566033" lon="8.5573983"><ele>206.0</ele><time>2026-03-22T13:56:50.341Z</time></trkpt><trkpt lat="45.7566617" lon="8.5574333"><ele>206.0</ele><time>2026-03-22T13:56:55.341Z</time></trkpt><trkpt lat="45.7567367" lon="8.557425"><ele>206.00000000000003</ele><time>2026-03-22T13:56:58.341Z</time></trkpt><trkpt lat="45.756815" lon="8.5573583"><ele>206.0</ele><time>2026-03-22T13:57:00.341Z</time></trkpt><trkpt lat="45.7568633" lon="8.5572167"><ele>206.20000000000002</ele><time>2026-03-22T13:57:02.341Z</time></trkpt><trkpt lat="45.7568817" lon="8.55712"><ele>206.4</ele><time>2026-03-22T13:57:03.341Z</time></trkpt><trkpt lat="45.7569133" lon="8.5570067"><ele>206.6</ele><time>2026-03-22T13:57:04.341Z</time></trkpt><trkpt lat="45.756965" lon="8.5568833"><ele>206.8</ele><time>2026-03-22T13:57:05.341Z</time></trkpt><trkpt lat="45.7570333" lon="8.556765"><ele>207.0</ele><time>2026-03-22T13:57:06.341Z</time></trkpt><trkpt lat="45.75711" lon="8.5566417"><ele>207.0</ele><time>2026-03-22T13:57:07.341Z</time></trkpt><trkpt lat="45.7571883" lon="8.5565067"><ele>207.0</ele><time>2026-03-22T13:57:08.341Z</time></trkpt><trkpt lat="45.757265" lon="8.5563767"><ele>207.0</ele><time>2026-03-22T13:57:09.341Z</time></trkpt><trkpt lat="45.7573333" lon="8.5562567"><ele>207.0</ele><time>2026-03-22T13:57:10.341Z</time></trkpt><trkpt lat="45.7573933" lon="8.5561433"><ele>207.0</ele><time>2026-03-22T13:57:11.341Z</time></trkpt><trkpt lat="45.7574567" lon="8.5560367"><ele>207.39999999999998</ele><time>2026-03-22T13:57:12.341Z</time></trkpt><trkpt lat="45.7575283" lon="8.5559317"><ele>207.79999999999998</ele><time>2026-03-22T13:57:13.341Z</time></trkpt><trkpt lat="45.7576017" lon="8.5558283"><ele>208.2</ele><time>2026-03-22T13:57:14.341Z</time></trkpt><trkpt lat="45.7576517" lon="8.5557383"><ele>208.6</ele><time>2026-03-22T13:57:15.341Z</time></trkpt><trkpt lat="45.7577033" lon="8.55566"><ele>209.0</ele><time>2026-03-22T13:57:16.341Z</time></trkpt><trkpt lat="45.7577867" lon="8.5555783"><ele>209.39999999999998</ele><time>2026-03-22T13:57:18.341Z</time></trkpt><trkpt lat="45.757915" lon="8.5555233"><ele>209.8</ele><time>2026-03-22T13:57:20.341Z</time></trkpt><trkpt lat="45.7579833" lon="8.5554517"><ele>210.2</ele><time>2026-03-22T13:57:21.341Z</time></trkpt><trkpt lat="45.7580717" lon="8.5553617"><ele>210.60000000000002</ele><time>2026-03-22T13:57:22.341Z</time></trkpt><trkpt lat="45.75816" lon="8.55527"><ele>211.0</ele><time>2026-03-22T13:57:23.341Z</time></trkpt><trkpt lat="45.75825" lon="8.5551867"><ele>211.20000000000002</ele><time>2026-03-22T13:57:24.341Z</time></trkpt><trkpt lat="45.75833" lon="8.5551117"><ele>211.4</ele><time>2026-03-22T13:57:25.342Z</time></trkpt><trkpt lat="45.7584" lon="8.5550483"><ele>211.6</ele><time>2026-03-22T13:57:26.341Z</time></trkpt><trkpt lat="45.758485" lon="8.5549833"><ele>211.8</ele><time>2026-03-22T13:57:27.341Z</time></trkpt><trkpt lat="45.7585733" lon="8.5549167"><ele>212.0</ele><time>2026-03-22T13:57:28.341Z</time></trkpt><trkpt lat="45.758655" lon="8.5548333"><ele>212.0</ele><time>2026-03-22T13:57:29.341Z</time></trkpt><trkpt lat="45.7587183" lon="8.5547533"><ele>212.0</ele><time>2026-03-22T13:57:30.341Z</time></trkpt><trkpt lat="45.7587867" lon="8.5546933"><ele>212.0</ele><time>2026-03-22T13:57:31.341Z</time></trkpt><trkpt lat="45.75886" lon="8.55463"><ele>212.0</ele><time>2026-03-22T13:57:32.341Z</time></trkpt><trkpt lat="45.7589433" lon="8.5545717"><ele>212.0</ele><time>2026-03-22T13:57:33.341Z</time></trkpt><trkpt lat="45.7590367" lon="8.554485"><ele>211.75</ele><time>2026-03-22T13:57:34.341Z</time></trkpt><trkpt lat="45.7591367" lon="8.5543833"><ele>211.5</ele><time>2026-03-22T13:57:35.341Z</time></trkpt><trkpt lat="45.7592417" lon="8.5542967"><ele>211.25</ele><time>2026-03-22T13:57:36.341Z</time></trkpt><trkpt lat="45.75935" lon="8.5542183"><ele>211.0</ele><time>2026-03-22T13:57:37.341Z</time></trkpt><trkpt lat="45.7594567" lon="8.554135"><ele>211.5</ele><time>2026-03-22T13:57:38.341Z</time></trkpt><trkpt lat="45.7595733" lon="8.55405"><ele>212.0</ele><time>2026-03-22T13:57:39.341Z</time></trkpt><trkpt lat="45.7596817" lon="8.5539667"><ele>212.5</ele><time>2026-03-22T13:57:40.341Z</time></trkpt><trkpt lat="45.7597917" lon="8.553885"><ele>213.0</ele><time>2026-03-22T13:57:41.341Z</time></trkpt><trkpt lat="45.7599" lon="8.55381"><ele>213.0</ele><time>2026-03-22T13:57:42.341Z</time></trkpt><trkpt lat="45.7600117" lon="8.5537317"><ele>213.0</ele><time>2026-03-22T13:57:43.341Z</time></trkpt><trkpt lat="45.760105" lon="8.5536467"><ele>213.0</ele><time>2026-03-22T13:57:44.341Z</time></trkpt><trkpt lat="45.7602033" lon="8.5535883"><ele>213.0</ele><time>2026-03-22T13:57:45.341Z</time></trkpt><trkpt lat="45.7602883" lon="8.55354"><ele>213.0</ele><time>2026-03-22T13:57:46.341Z</time></trkpt><trkpt lat="45.760365" lon="8.553485"><ele>213.8</ele><time>2026-03-22T13:57:47.341Z</time></trkpt><trkpt lat="45.7604367" lon="8.5534433"><ele>214.60000000000002</ele><time>2026-03-22T13:57:48.341Z</time></trkpt><trkpt lat="45.7605033" lon="8.5534083"><ele>215.39999999999998</ele><time>2026-03-22T13:57:49.341Z</time></trkpt><trkpt lat="45.7606033" lon="8.5533983"><ele>216.2</ele><time>2026-03-22T13:57:51.341Z</time></trkpt><trkpt lat="45.7606933" lon="8.5534583"><ele>217.0</ele><time>2026-03-22T13:57:53.341Z</time></trkpt><trkpt lat="45.7608133" lon="8.5534883"><ele>216.99999999999997</ele><time>2026-03-22T13:57:55.341Z</time></trkpt><trkpt lat="45.7608817" lon="8.5534817"><ele>217.0</ele><time>2026-03-22T13:57:56.341Z</time></trkpt><trkpt lat="45.76096" lon="8.553465"><ele>217.0</ele><time>2026-03-22T13:57:57.341Z</time></trkpt><trkpt lat="45.7610483" lon="8.553435"><ele>217.0</ele><time>2026-03-22T13:57:58.341Z</time></trkpt><trkpt lat="45.76114" lon="8.553425"><ele>216.99999999999997</ele><time>2026-03-22T13:57:59.341Z</time></trkpt><trkpt lat="45.76122" lon="8.5534083"><ele>217.0</ele><time>2026-03-22T13:58:00.341Z</time></trkpt><trkpt lat="45.76131" lon="8.5533983"><ele>217.39999999999998</ele><time>2026-03-22T13:58:01.342Z</time></trkpt><trkpt lat="45.761395" lon="8.5534383"><ele>217.79999999999998</ele><time>2026-03-22T13:58:02.341Z</time></trkpt><trkpt lat="45.7614633" lon="8.5535383"><ele>218.2</ele><time>2026-03-22T13:58:03.341Z</time></trkpt><trkpt lat="45.7615217" lon="8.553645"><ele>218.6</ele><time>2026-03-22T13:58:04.341Z</time></trkpt><trkpt lat="45.7615667" lon="8.55372"><ele>219.0</ele><time>2026-03-22T13:58:05.341Z</time></trkpt><trkpt lat="45.7616133" lon="8.5538583"><ele>219.0</ele><time>2026-03-22T13:58:07.341Z</time></trkpt><trkpt lat="45.7616733" lon="8.5540067"><ele>219.0</ele><time>2026-03-22T13:58:09.341Z</time></trkpt><trkpt lat="45.76171" lon="8.5540983"><ele>219.0</ele><time>2026-03-22T13:58:10.341Z</time></trkpt><trkpt lat="45.7617483" lon="8.55419"><ele>219.0</ele><time>2026-03-22T13:58:11.341Z</time></trkpt><trkpt lat="45.76178" lon="8.554275"><ele>219.0</ele><time>2026-03-22T13:58:12.341Z</time></trkpt><trkpt lat="45.7618167" lon="8.5543567"><ele>219.0</ele><time>2026-03-22T13:58:13.341Z</time></trkpt><trkpt lat="45.7618583" lon="8.5544433"><ele>222.0</ele><time>2026-03-22T13:58:14.341Z</time></trkpt><trkpt lat="45.7619" lon="8.5545367"><ele>225.0</ele><time>2026-03-22T13:58:15.341Z</time></trkpt><trkpt lat="45.7619267" lon="8.5546467"><ele>228.0</ele><time>2026-03-22T13:58:16.341Z</time></trkpt><trkpt lat="45.761955" lon="8.5547617"><ele>231.0</ele><time>2026-03-22T13:58:17.341Z</time></trkpt><trkpt lat="45.7620067" lon="8.5548583"><ele>234.0</ele><time>2026-03-22T13:58:18.341Z</time></trkpt><trkpt lat="45.7620517" lon="8.5549483"><ele>237.0</ele><time>2026-03-22T13:58:19.341Z</time></trkpt><trkpt lat="45.7621083" lon="8.55504"><ele>237.0</ele><time>2026-03-22T13:58:20.341Z</time></trkpt><trkpt lat="45.7621667" lon="8.5551367"><ele>237.0</ele><time>2026-03-22T13:58:21.341Z</time></trkpt><trkpt lat="45.7622167" lon="8.5552433"><ele>237.0</ele><time>2026-03-22T13:58:22.341Z</time></trkpt><trkpt lat="45.7622617" lon="8.5553533"><ele>237.0</ele><time>2026-03-22T13:58:23.341Z</time></trkpt><trkpt lat="45.7623" lon="8.5554567"><ele>237.0</ele><time>2026-03-22T13:58:24.341Z</time></trkpt><trkpt lat="45.7623433" lon="8.5555517"><ele>237.0</ele><time>2026-03-22T13:58:25.341Z</time></trkpt><trkpt lat="45.762385" lon="8.5556417"><ele>234.5</ele><time>2026-03-22T13:58:26.341Z</time></trkpt><trkpt lat="45.7624217" lon="8.5557267"><ele>232.0</ele><time>2026-03-22T13:58:27.341Z</time></trkpt><trkpt lat="45.7624633" lon="8.55581"><ele>229.5</ele><time>2026-03-22T13:58:28.341Z</time></trkpt><trkpt lat="45.7625017" lon="8.5558917"><ele>227.0</ele><time>2026-03-22T13:58:29.341Z</time></trkpt><trkpt lat="45.7625617" lon="8.5560333"><ele>224.5</ele><time>2026-03-22T13:58:31.341Z</time></trkpt><trkpt lat="45.7625883" lon="8.55612"><ele>222.0</ele><time>2026-03-22T13:58:33.341Z</time></trkpt><trkpt lat="45.7625967" lon="8.556235"><ele>221.8</ele><time>2026-03-22T13:58:36.341Z</time></trkpt><trkpt lat="45.7626617" lon="8.556365"><ele>221.6</ele><time>2026-03-22T13:58:38.341Z</time></trkpt><trkpt lat="45.7627217" lon="8.55644"><ele>221.40000000000003</ele><time>2026-03-22T13:58:39.341Z</time></trkpt><trkpt lat="45.7627867" lon="8.5565233"><ele>221.20000000000002</ele><time>2026-03-22T13:58:40.341Z</time></trkpt><trkpt lat="45.76286" lon="8.5566033"><ele>221.0</ele><time>2026-03-22T13:58:41.341Z</time></trkpt><trkpt lat="45.7629367" lon="8.5566683"><ele>221.0</ele><time>2026-03-22T13:58:42.341Z</time></trkpt><trkpt lat="45.763015" lon="8.5567133"><ele>221.00000000000003</ele><time>2026-03-22T13:58:43.341Z</time></trkpt><trkpt lat="45.7630967" lon="8.5567383"><ele>221.00000000000003</ele><time>2026-03-22T13:58:44.341Z</time></trkpt><trkpt lat="45.763195" lon="8.5567483"><ele>221.0</ele><time>2026-03-22T13:58:45.341Z</time></trkpt><trkpt lat="45.7633017" lon="8.5567567"><ele>221.0</ele><time>2026-03-22T13:58:46.341Z</time></trkpt><trkpt lat="45.7634083" lon="8.5567667"><ele>221.0</ele><time>2026-03-22T13:58:47.341Z</time></trkpt><trkpt lat="45.7635117" lon="8.5567833"><ele>221.00000000000003</ele><time>2026-03-22T13:58:48.341Z</time></trkpt><trkpt lat="45.7636083" lon="8.5568083"><ele>221.00000000000003</ele><time>2026-03-22T13:58:49.341Z</time></trkpt><trkpt lat="45.7637033" lon="8.55683"><ele>221.0</ele><time>2026-03-22T13:58:50.341Z</time></trkpt><trkpt lat="45.7638033" lon="8.5568467"><ele>221.0</ele><time>2026-03-22T13:58:51.341Z</time></trkpt><trkpt lat="45.7639083" lon="8.5568633"><ele>221.83333333333334</ele><time>2026-03-22T13:58:52.341Z</time></trkpt><trkpt lat="45.76401" lon="8.55688"><ele>222.66666666666669</ele><time>2026-03-22T13:58:53.341Z</time></trkpt><trkpt lat="45.7641067" lon="8.5568883"><ele>223.5</ele><time>2026-03-22T13:58:54.341Z</time></trkpt><trkpt lat="45.764195" lon="8.55689"><ele>224.33333333333331</ele><time>2026-03-22T13:58:55.341Z</time></trkpt><trkpt lat="45.7642733" lon="8.556875"><ele>225.16666666666666</ele><time>2026-03-22T13:58:56.341Z</time></trkpt><trkpt lat="45.7643467" lon="8.556845"><ele>226.0</ele><time>2026-03-22T13:58:57.341Z</time></trkpt><trkpt lat="45.7644217" lon="8.5568033"><ele>221.4</ele><time>2026-03-22T13:58:58.341Z</time></trkpt><trkpt lat="45.764495" lon="8.5567567"><ele>216.8</ele><time>2026-03-22T13:58:59.341Z</time></trkpt><trkpt lat="45.7645717" lon="8.5567017"><ele>212.20000000000002</ele><time>2026-03-22T13:59:00.341Z</time></trkpt><trkpt lat="45.764655" lon="8.5566417"><ele>207.60000000000002</ele><time>2026-03-22T13:59:01.341Z</time></trkpt><trkpt lat="45.7647433" lon="8.556575"><ele>203.0</ele><time>2026-03-22T13:59:02.341Z</time></trkpt><trkpt lat="45.7648367" lon="8.5565017"><ele>203.0</ele><time>2026-03-22T13:59:03.341Z</time></trkpt><trkpt lat="45.7649267" lon="8.55643"><ele>203.0</ele><time>2026-03-22T13:59:04.341Z</time></trkpt><trkpt lat="45.76501" lon="8.55637"><ele>203.0</ele><time>2026-03-22T13:59:05.341Z</time></trkpt><trkpt lat="45.7650867" lon="8.5563067"><ele>203.0</ele><time>2026-03-22T13:59:06.341Z</time></trkpt><trkpt lat="45.7651533" lon="8.5562183"><ele>203.0</ele><time>2026-03-22T13:59:07.341Z</time></trkpt><trkpt lat="45.7652133" lon="8.5561167"><ele>201.4</ele><time>2026-03-22T13:59:08.341Z</time></trkpt><trkpt lat="45.7652767" lon="8.5560017"><ele>199.8</ele><time>2026-03-22T13:59:09.341Z</time></trkpt><trkpt lat="45.76533" lon="8.5558833"><ele>198.2</ele><time>2026-03-22T13:59:10.341Z</time></trkpt><trkpt lat="45.76537" lon="8.5557583"><ele>196.6</ele><time>2026-03-22T13:59:11.341Z</time></trkpt><trkpt lat="45.7654083" lon="8.5556217"><ele>195.0</ele><time>2026-03-22T13:59:12.341Z</time></trkpt><trkpt lat="45.765445" lon="8.555495"><ele>195.0</ele><time>2026-03-22T13:59:13.341Z</time></trkpt><trkpt lat="45.7654833" lon="8.555375"><ele>195.0</ele><time>2026-03-22T13:59:14.341Z</time></trkpt><trkpt lat="45.765515" lon="8.5552633"><ele>195.0</ele><time>2026-03-22T13:59:15.341Z</time></trkpt><trkpt lat="45.765545" lon="8.55515"><ele>195.0</ele><time>2026-03-22T13:59:16.341Z</time></trkpt><trkpt lat="45.765575" lon="8.555045"><ele>195.0</ele><time>2026-03-22T13:59:17.341Z</time></trkpt><trkpt lat="45.7656017" lon="8.5549233"><ele>195.0</ele><time>2026-03-22T13:59:18.341Z</time></trkpt><trkpt lat="45.7656267" lon="8.5547817"><ele>196.66666666666669</ele><time>2026-03-22T13:59:19.341Z</time></trkpt><trkpt lat="45.7656617" lon="8.55459"><ele>198.33333333333334</ele><time>2026-03-22T13:59:20.341Z</time></trkpt><trkpt lat="45.7657067" lon="8.554375"><ele>200.0</ele><time>2026-03-22T13:59:21.341Z</time></trkpt><trkpt lat="45.7657683" lon="8.55416"><ele>204.0</ele><time>2026-03-22T13:59:22.341Z</time></trkpt><trkpt lat="45.7658283" lon="8.5539483"><ele>208.0</ele><time>2026-03-22T13:59:23.341Z</time></trkpt><trkpt lat="45.7658833" lon="8.55375"><ele>212.0</ele><time>2026-03-22T13:59:24.341Z</time></trkpt><trkpt lat="45.765945" lon="8.5535467"><ele>214.66666666666669</ele><time>2026-03-22T13:59:25.341Z</time></trkpt><trkpt lat="45.7660083" lon="8.5533367"><ele>217.33333333333331</ele><time>2026-03-22T13:59:26.341Z</time></trkpt><trkpt lat="45.7660817" lon="8.5531283"><ele>220.0</ele><time>2026-03-22T13:59:27.341Z</time></trkpt><trkpt lat="45.766165" lon="8.5529333"><ele>216.0</ele><time>2026-03-22T13:59:28.341Z</time></trkpt><trkpt lat="45.76626" lon="8.5527383"><ele>212.0</ele><time>2026-03-22T13:59:29.341Z</time></trkpt><trkpt lat="45.7663817" lon="8.5525383"><ele>208.0</ele><time>2026-03-22T13:59:30.341Z</time></trkpt><trkpt lat="45.766515" lon="8.5523283"><ele>208.0</ele><time>2026-03-22T13:59:31.341Z</time></trkpt><trkpt lat="45.7666417" lon="8.5521033"><ele>208.0</ele><time>2026-03-22T13:59:32.341Z</time></trkpt><trkpt lat="45.7667667" lon="8.5518917"><ele>208.0</ele><time>2026-03-22T13:59:33.341Z</time></trkpt><trkpt lat="45.7668933" lon="8.5516833"><ele>206.33333333333331</ele><time>2026-03-22T13:59:34.341Z</time></trkpt><trkpt lat="45.7670167" lon="8.5514883"><ele>204.66666666666669</ele><time>2026-03-22T13:59:35.341Z</time></trkpt><trkpt lat="45.76714" lon="8.551315"><ele>203.0</ele><time>2026-03-22T13:59:36.341Z</time></trkpt><trkpt lat="45.767245" lon="8.551125"><ele>206.66666666666669</ele><time>2026-03-22T13:59:37.341Z</time></trkpt><trkpt lat="45.767345" lon="8.5509067"><ele>210.33333333333331</ele><time>2026-03-22T13:59:38.341Z</time></trkpt><trkpt lat="45.7674433" lon="8.5506667"><ele>214.0</ele><time>2026-03-22T13:59:39.341Z</time></trkpt><trkpt lat="45.7675583" lon="8.5504133"><ele>212.0</ele><time>2026-03-22T13:59:40.341Z</time></trkpt><trkpt lat="45.7676733" lon="8.5501383"><ele>210.0</ele><time>2026-03-22T13:59:41.341Z</time></trkpt><trkpt lat="45.767805" lon="8.5498767"><ele>208.0</ele><time>2026-03-22T13:59:42.341Z</time></trkpt><trkpt lat="45.7679417" lon="8.549615"><ele>219.0</ele><time>2026-03-22T13:59:43.341Z</time></trkpt><trkpt lat="45.7680783" lon="8.5493533"><ele>230.0</ele><time>2026-03-22T13:59:44.341Z</time></trkpt><trkpt lat="45.7682083" lon="8.5490867"><ele>230.0</ele><time>2026-03-22T13:59:45.341Z</time></trkpt><trkpt lat="45.768325" lon="8.5488283"><ele>230.0</ele><time>2026-03-22T13:59:46.341Z</time></trkpt><trkpt lat="45.7684283" lon="8.54859"><ele>230.0</ele><time>2026-03-22T13:59:47.341Z</time></trkpt><trkpt lat="45.76852" lon="8.54837"><ele>232.8</ele><time>2026-03-22T13:59:48.341Z</time></trkpt><trkpt lat="45.7686217" lon="8.5482033"><ele>235.6</ele><time>2026-03-22T13:59:49.341Z</time></trkpt><trkpt lat="45.7687083" lon="8.54808"><ele>238.39999999999998</ele><time>2026-03-22T13:59:50.341Z</time></trkpt><trkpt lat="45.768775" lon="8.5479883"><ele>241.2</ele><time>2026-03-22T13:59:51.341Z</time></trkpt><trkpt lat="45.76882" lon="8.5479133"><ele>244.0</ele><time>2026-03-22T13:59:52.341Z</time></trkpt><trkpt lat="45.7688083" lon="8.5477767"><ele>244.0</ele><time>2026-03-22T13:59:54.341Z</time></trkpt><trkpt lat="45.768745" lon="8.5477867"><ele>243.99999999999997</ele><time>2026-03-22T13:59:56.341Z</time></trkpt><trkpt lat="45.7687017" lon="8.547855"><ele>243.99999999999997</ele><time>2026-03-22T13:59:57.341Z</time></trkpt><trkpt lat="45.7686417" lon="8.547965"><ele>244.0</ele><time>2026-03-22T13:59:58.341Z</time></trkpt><trkpt lat="45.768565" lon="8.5481083"><ele>244.0</ele><time>2026-03-22T13:59:59.341Z</time></trkpt><trkpt lat="45.7684567" lon="8.54831"><ele>247.33333333333331</ele><time>2026-03-22T14:00:00.341Z</time></trkpt><trkpt lat="45.7683267" lon="8.5485283"><ele>250.66666666666669</ele><time>2026-03-22T14:00:01.341Z</time></trkpt><trkpt lat="45.7681817" lon="8.5487267"><ele>254.0</ele><time>2026-03-22T14:00:02.341Z</time></trkpt><trkpt lat="45.7680633" lon="8.54892"><ele>249.2</ele><time>2026-03-22T14:00:03.341Z</time></trkpt><trkpt lat="45.767965" lon="8.54909"><ele>244.39999999999998</ele><time>2026-03-22T14:00:04.341Z</time></trkpt><trkpt lat="45.7678733" lon="8.54923"><ele>239.6</ele><time>2026-03-22T14:00:05.341Z</time></trkpt><trkpt lat="45.7678" lon="8.5493117"><ele>234.8</ele><time>2026-03-22T14:00:06.341Z</time></trkpt><trkpt lat="45.7677417" lon="8.5493633"><ele>230.0</ele><time>2026-03-22T14:00:07.341Z</time></trkpt><trkpt lat="45.7677" lon="8.5492883"><ele>230.0</ele><time>2026-03-22T14:00:09.341Z</time></trkpt><trkpt lat="45.7677533" lon="8.5491417"><ele>230.0</ele><time>2026-03-22T14:00:11.341Z</time></trkpt><trkpt lat="45.7678117" lon="8.5490383"><ele>230.0</ele><time>2026-03-22T14:00:12.341Z</time></trkpt><trkpt lat="45.7678817" lon="8.5488883"><ele>230.0</ele><time>2026-03-22T14:00:13.341Z</time></trkpt><trkpt lat="45.7679383" lon="8.5487017"><ele>236.0</ele><time>2026-03-22T14:00:14.341Z</time></trkpt><trkpt lat="45.7679817" lon="8.5485033"><ele>242.0</ele><time>2026-03-22T14:00:15.341Z</time></trkpt><trkpt lat="45.7680283" lon="8.5483"><ele>248.0</ele><time>2026-03-22T14:00:16.341Z</time></trkpt><trkpt lat="45.7680983" lon="8.548105"><ele>254.0</ele><time>2026-03-22T14:00:17.341Z</time></trkpt><trkpt lat="45.768195" lon="8.5479167"><ele>250.66666666666669</ele><time>2026-03-22T14:00:18.341Z</time></trkpt><trkpt lat="45.76833" lon="8.5477283"><ele>247.33333333333331</ele><time>2026-03-22T14:00:19.341Z</time></trkpt><trkpt lat="45.7684733" lon="8.54752"><ele>244.0</ele><time>2026-03-22T14:00:20.341Z</time></trkpt><trkpt lat="45.768605" lon="8.5472967"><ele>244.0</ele><time>2026-03-22T14:00:21.341Z</time></trkpt><trkpt lat="45.7687383" lon="8.54708"><ele>244.0</ele><time>2026-03-22T14:00:22.341Z</time></trkpt><trkpt lat="45.76886" lon="8.546885"><ele>244.0</ele><time>2026-03-22T14:00:23.341Z</time></trkpt><trkpt lat="45.7689833" lon="8.5467017"><ele>251.66666666666666</ele><time>2026-03-22T14:00:24.341Z</time></trkpt><trkpt lat="45.7691133" lon="8.5465667"><ele>259.3333333333333</ele><time>2026-03-22T14:00:25.341Z</time></trkpt><trkpt lat="45.769235" lon="8.54644"><ele>267.0</ele><time>2026-03-22T14:00:26.341Z</time></trkpt><trkpt lat="45.7693483" lon="8.5462867"><ele>267.6666666666667</ele><time>2026-03-22T14:00:27.341Z</time></trkpt><trkpt lat="45.7694533" lon="8.5461033"><ele>268.33333333333337</ele><time>2026-03-22T14:00:28.341Z</time></trkpt><trkpt lat="45.7695567" lon="8.545925"><ele>269.0</ele><time>2026-03-22T14:00:29.341Z</time></trkpt><trkpt lat="45.76964" lon="8.54578"><ele>269.0</ele><time>2026-03-22T14:00:30.341Z</time></trkpt><trkpt lat="45.7696933" lon="8.5456633"><ele>269.0</ele><time>2026-03-22T14:00:31.341Z</time></trkpt><trkpt lat="45.7697267" lon="8.5455567"><ele>269.0</ele><time>2026-03-22T14:00:32.341Z</time></trkpt><trkpt lat="45.7697267" lon="8.5454433"><ele>269.0</ele><time>2026-03-22T14:00:33.341Z</time></trkpt><trkpt lat="45.769695" lon="8.5453117"><ele>269.0</ele><time>2026-03-22T14:00:34.341Z</time></trkpt><trkpt lat="45.769635" lon="8.5451733"><ele>272.2</ele><time>2026-03-22T14:00:35.341Z</time></trkpt><trkpt lat="45.76955" lon="8.54504"><ele>275.4</ele><time>2026-03-22T14:00:36.341Z</time></trkpt><trkpt lat="45.7694633" lon="8.5449533"><ele>278.6</ele><time>2026-03-22T14:00:37.341Z</time></trkpt><trkpt lat="45.769365" lon="8.5449317"><ele>281.8</ele><time>2026-03-22T14:00:38.341Z</time></trkpt><trkpt lat="45.7692783" lon="8.5449217"><ele>285.0</ele><time>2026-03-22T14:00:39.341Z</time></trkpt><trkpt lat="45.7692183" lon="8.5448933"><ele>286.2</ele><time>2026-03-22T14:00:40.341Z</time></trkpt><trkpt lat="45.769175" lon="8.5447717"><ele>287.4</ele><time>2026-03-22T14:00:42.341Z</time></trkpt><trkpt lat="45.7692667" lon="8.5446117"><ele>288.6</ele><time>2026-03-22T14:00:44.341Z</time></trkpt><trkpt lat="45.7693583" lon="8.5445217"><ele>289.8</ele><time>2026-03-22T14:00:45.341Z</time></trkpt><trkpt lat="45.7694417" lon="8.5444483"><ele>291.0</ele><time>2026-03-22T14:00:46.341Z</time></trkpt><trkpt lat="45.769505" lon="8.54439"><ele>291.6666666666667</ele><time>2026-03-22T14:00:47.341Z</time></trkpt><trkpt lat="45.7696" lon="8.54432"><ele>292.3333333333333</ele><time>2026-03-22T14:00:49.341Z</time></trkpt><trkpt lat="45.7696667" lon="8.5442583"><ele>293.0</ele><time>2026-03-22T14:00:51.341Z</time></trkpt><trkpt lat="45.76968" lon="8.5441483"><ele>293.66666666666663</ele><time>2026-03-22T14:00:54.341Z</time></trkpt><trkpt lat="45.76961" lon="8.544085"><ele>294.3333333333333</ele><time>2026-03-22T14:00:57.341Z</time></trkpt><trkpt lat="45.76954" lon="8.5440717"><ele>295.0</ele><time>2026-03-22T14:01:00.341Z</time></trkpt><trkpt lat="45.76946" lon="8.5440333"><ele>295.0</ele><time>2026-03-22T14:01:03.341Z</time></trkpt><trkpt lat="45.7698086" lon="8.5440889"><ele>295.0</ele><time>2026-03-22T14:04:49.397Z</time></trkpt><trkpt lat="45.769714" lon="8.5441761"><ele>295.00000000000006</ele><time>2026-03-22T14:41:40.37Z</time></trkpt><trkpt lat="45.7696512" lon="8.5442118"><ele>295.0</ele><time>2026-03-22T14:41:59.087Z</time></trkpt><trkpt lat="45.7695721" lon="8.544172"><ele>295.0</ele><time>2026-03-22T14:42:03.404Z</time></trkpt><trkpt lat="45.76951" lon="8.5441481"><ele>295.0</ele><time>2026-03-22T14:42:12.44Z</time></trkpt><trkpt lat="45.7694732" lon="8.5440696"><ele>295.0</ele><time>2026-03-22T14:42:17.367Z</time></trkpt><trkpt lat="45.7694" lon="8.544065"><ele>295.00000000000006</ele><time>2026-03-22T14:45:40.368Z</time></trkpt><trkpt lat="45.769355" lon="8.544145"><ele>295.0</ele><time>2026-03-22T14:45:43.368Z</time></trkpt><trkpt lat="45.7693067" lon="8.544235"><ele>295.4</ele><time>2026-03-22T14:45:45.368Z</time></trkpt><trkpt lat="45.7692317" lon="8.5443267"><ele>295.8</ele><time>2026-03-22T14:45:47.368Z</time></trkpt><trkpt lat="45.76915" lon="8.5444167"><ele>296.2</ele><time>2026-03-22T14:45:49.368Z</time></trkpt><trkpt lat="45.769075" lon="8.5445117"><ele>296.6</ele><time>2026-03-22T14:45:51.368Z</time></trkpt><trkpt lat="45.7690117" lon="8.544605"><ele>297.0</ele><time>2026-03-22T14:45:53.368Z</time></trkpt><trkpt lat="45.7689383" lon="8.5447017"><ele>296.5</ele><time>2026-03-22T14:45:55.368Z</time></trkpt><trkpt lat="45.7688633" lon="8.544795"><ele>296.0</ele><time>2026-03-22T14:45:57.368Z</time></trkpt><trkpt lat="45.7687983" lon="8.5448633"><ele>295.5</ele><time>2026-03-22T14:45:59.368Z</time></trkpt><trkpt lat="45.7687417" lon="8.5449083"><ele>295.0</ele><time>2026-03-22T14:46:02.368Z</time></trkpt><trkpt lat="45.7686717" lon="8.5450433"><ele>294.5</ele><time>2026-03-22T14:46:31.368Z</time></trkpt><trkpt lat="45.7686" lon="8.5451117"><ele>294.0</ele><time>2026-03-22T14:46:32.368Z</time></trkpt><trkpt lat="45.7685117" lon="8.5451883"><ele>294.0</ele><time>2026-03-22T14:46:33.368Z</time></trkpt><trkpt lat="45.768405" lon="8.54527"><ele>294.0</ele><time>2026-03-22T14:46:34.368Z</time></trkpt><trkpt lat="45.7682933" lon="8.5453567"><ele>294.0</ele><time>2026-03-22T14:46:35.368Z</time></trkpt><trkpt lat="45.7681767" lon="8.54545"><ele>294.0</ele><time>2026-03-22T14:46:36.368Z</time></trkpt><trkpt lat="45.7680467" lon="8.54554"><ele>293.3333333333333</ele><time>2026-03-22T14:46:37.368Z</time></trkpt><trkpt lat="45.7679117" lon="8.5456217"><ele>292.66666666666663</ele><time>2026-03-22T14:46:38.368Z</time></trkpt><trkpt lat="45.7677683" lon="8.545715"><ele>292.0</ele><time>2026-03-22T14:46:39.368Z</time></trkpt><trkpt lat="45.7676217" lon="8.545815"><ele>292.0</ele><time>2026-03-22T14:46:40.368Z</time></trkpt><trkpt lat="45.7674767" lon="8.5458917"><ele>292.0</ele><time>2026-03-22T14:46:41.368Z</time></trkpt><trkpt lat="45.7673333" lon="8.545965"><ele>292.0</ele><time>2026-03-22T14:46:42.368Z</time></trkpt><trkpt lat="45.7671933" lon="8.546045"><ele>292.0</ele><time>2026-03-22T14:46:43.368Z</time></trkpt><trkpt lat="45.7670717" lon="8.54612"><ele>292.0</ele><time>2026-03-22T14:46:44.368Z</time></trkpt><trkpt lat="45.76696" lon="8.54619"><ele>292.0</ele><time>2026-03-22T14:46:45.368Z</time></trkpt><trkpt lat="45.7668517" lon="8.5462467"><ele>292.0</ele><time>2026-03-22T14:46:46.368Z</time></trkpt><trkpt lat="45.76674" lon="8.5462917"><ele>292.0</ele><time>2026-03-22T14:46:47.368Z</time></trkpt><trkpt lat="45.7666233" lon="8.546315"><ele>292.0</ele><time>2026-03-22T14:46:48.368Z</time></trkpt><trkpt lat="45.7664967" lon="8.546315"><ele>292.0</ele><time>2026-03-22T14:46:49.368Z</time></trkpt><trkpt lat="45.7663617" lon="8.5463017"><ele>292.0</ele><time>2026-03-22T14:46:50.368Z</time></trkpt><trkpt lat="45.7662183" lon="8.54628"><ele>292.0</ele><time>2026-03-22T14:46:51.368Z</time></trkpt><trkpt lat="45.7660683" lon="8.5462467"><ele>292.0</ele><time>2026-03-22T14:46:52.368Z</time></trkpt><trkpt lat="45.7659133" lon="8.5462133"><ele>292.0</ele><time>2026-03-22T14:46:53.368Z</time></trkpt><trkpt lat="45.7657583" lon="8.5461833"><ele>292.25</ele><time>2026-03-22T14:46:54.368Z</time></trkpt><trkpt lat="45.76561" lon="8.5461583"><ele>292.5</ele><time>2026-03-22T14:46:55.368Z</time></trkpt><trkpt lat="45.765465" lon="8.5461267"><ele>292.75</ele><time>2026-03-22T14:46:56.368Z</time></trkpt><trkpt lat="45.7653317" lon="8.546105"><ele>293.0</ele><time>2026-03-22T14:46:57.368Z</time></trkpt><trkpt lat="45.7652" lon="8.5460883"><ele>294.25</ele><time>2026-03-22T14:46:58.368Z</time></trkpt><trkpt lat="45.7650883" lon="8.5461"><ele>295.5</ele><time>2026-03-22T14:46:59.368Z</time></trkpt><trkpt lat="45.76498" lon="8.5461333"><ele>296.75</ele><time>2026-03-22T14:47:00.368Z</time></trkpt><trkpt lat="45.7648717" lon="8.54619"><ele>298.0</ele><time>2026-03-22T14:47:01.368Z</time></trkpt><trkpt lat="45.7647667" lon="8.546265"><ele>298.0</ele><time>2026-03-22T14:47:02.368Z</time></trkpt><trkpt lat="45.76465" lon="8.5463633"><ele>298.0</ele><time>2026-03-22T14:47:03.368Z</time></trkpt><trkpt lat="45.7645183" lon="8.5464883"><ele>298.0</ele><time>2026-03-22T14:47:04.368Z</time></trkpt><trkpt lat="45.7643883" lon="8.5466433"><ele>295.66666666666663</ele><time>2026-03-22T14:47:05.368Z</time></trkpt><trkpt lat="45.7642867" lon="8.5468183"><ele>293.3333333333333</ele><time>2026-03-22T14:47:06.368Z</time></trkpt><trkpt lat="45.7641883" lon="8.5469983"><ele>291.0</ele><time>2026-03-22T14:47:07.368Z</time></trkpt><trkpt lat="45.7640983" lon="8.547175"><ele>289.5</ele><time>2026-03-22T14:47:08.368Z</time></trkpt><trkpt lat="45.7640117" lon="8.547345"><ele>288.0</ele><time>2026-03-22T14:47:09.368Z</time></trkpt><trkpt lat="45.76392" lon="8.5475117"><ele>286.5</ele><time>2026-03-22T14:47:10.368Z</time></trkpt><trkpt lat="45.7638467" lon="8.54766"><ele>285.0</ele><time>2026-03-22T14:47:11.368Z</time></trkpt><trkpt lat="45.7638067" lon="8.5478183"><ele>284.2</ele><time>2026-03-22T14:47:12.368Z</time></trkpt><trkpt lat="45.7638067" lon="8.5479817"><ele>283.4</ele><time>2026-03-22T14:47:13.368Z</time></trkpt><trkpt lat="45.7638417" lon="8.5481267"><ele>282.6</ele><time>2026-03-22T14:47:14.368Z</time></trkpt><trkpt lat="45.763865" lon="8.548255"><ele>281.8</ele><time>2026-03-22T14:47:15.368Z</time></trkpt><trkpt lat="45.76387" lon="8.5483683"><ele>281.0</ele><time>2026-03-22T14:47:16.368Z</time></trkpt><trkpt lat="45.7638417" lon="8.548465"><ele>281.0</ele><time>2026-03-22T14:47:17.368Z</time></trkpt><trkpt lat="45.763785" lon="8.5485417"><ele>281.0</ele><time>2026-03-22T14:47:18.368Z</time></trkpt><trkpt lat="45.7637117" lon="8.548585"><ele>281.0</ele><time>2026-03-22T14:47:19.368Z</time></trkpt><trkpt lat="45.7636233" lon="8.548625"><ele>281.0</ele><time>2026-03-22T14:47:20.368Z</time></trkpt><trkpt lat="45.7635117" lon="8.5486633"><ele>281.0</ele><time>2026-03-22T14:47:21.368Z</time></trkpt><trkpt lat="45.763385" lon="8.548715"><ele>278.0</ele><time>2026-03-22T14:47:22.368Z</time></trkpt><trkpt lat="45.7632517" lon="8.5487633"><ele>275.0</ele><time>2026-03-22T14:47:23.368Z</time></trkpt><trkpt lat="45.763125" lon="8.548835"><ele>272.0</ele><time>2026-03-22T14:47:24.368Z</time></trkpt><trkpt lat="45.763005" lon="8.54891"><ele>269.0</ele><time>2026-03-22T14:47:25.368Z</time></trkpt><trkpt lat="45.7628733" lon="8.548975"><ele>269.0</ele><time>2026-03-22T14:47:26.368Z</time></trkpt><trkpt lat="45.7627633" lon="8.5490333"><ele>269.0</ele><time>2026-03-22T14:47:27.368Z</time></trkpt><trkpt lat="45.762655" lon="8.549055"><ele>269.0</ele><time>2026-03-22T14:47:28.368Z</time></trkpt><trkpt lat="45.7625517" lon="8.54904"><ele>269.0</ele><time>2026-03-22T14:47:29.368Z</time></trkpt><trkpt lat="45.7624533" lon="8.5490067"><ele>269.0</ele><time>2026-03-22T14:47:30.368Z</time></trkpt><trkpt lat="45.7623467" lon="8.5489683"><ele>267.4</ele><time>2026-03-22T14:47:31.368Z</time></trkpt><trkpt lat="45.7622317" lon="8.5489367"><ele>265.79999999999995</ele><time>2026-03-22T14:47:32.368Z</time></trkpt><trkpt lat="45.76212" lon="8.548935"><ele>264.20000000000005</ele><time>2026-03-22T14:47:33.368Z</time></trkpt><trkpt lat="45.7620167" lon="8.54897"><ele>262.6</ele><time>2026-03-22T14:47:34.368Z</time></trkpt><trkpt lat="45.761925" lon="8.5490167"><ele>261.0</ele><time>2026-03-22T14:47:35.368Z</time></trkpt><trkpt lat="45.7618433" lon="8.54902"><ele>260.1666666666667</ele><time>2026-03-22T14:47:36.368Z</time></trkpt><trkpt lat="45.76177" lon="8.5489867"><ele>259.3333333333333</ele><time>2026-03-22T14:47:37.368Z</time></trkpt><trkpt lat="45.7617117" lon="8.54892"><ele>258.5</ele><time>2026-03-22T14:47:38.368Z</time></trkpt><trkpt lat="45.7616533" lon="8.5488383"><ele>257.66666666666663</ele><time>2026-03-22T14:47:39.368Z</time></trkpt><trkpt lat="45.761555" lon="8.5487783"><ele>256.8333333333333</ele><time>2026-03-22T14:47:41.368Z</time></trkpt><trkpt lat="45.7615067" lon="8.5488367"><ele>256.0</ele><time>2026-03-22T14:47:42.368Z</time></trkpt><trkpt lat="45.7615" lon="8.5489367"><ele>256.0</ele><time>2026-03-22T14:47:43.368Z</time></trkpt><trkpt lat="45.7615417" lon="8.54905"><ele>256.0</ele><time>2026-03-22T14:47:44.368Z</time></trkpt><trkpt lat="45.7616083" lon="8.5491533"><ele>256.0</ele><time>2026-03-22T14:47:45.368Z</time></trkpt><trkpt lat="45.761695" lon="8.5492417"><ele>256.0</ele><time>2026-03-22T14:47:46.368Z</time></trkpt><trkpt lat="45.761795" lon="8.5493"><ele>256.0</ele><time>2026-03-22T14:47:47.368Z</time></trkpt><trkpt lat="45.7619083" lon="8.5493267"><ele>257.0</ele><time>2026-03-22T14:47:48.368Z</time></trkpt><trkpt lat="45.76202" lon="8.549345"><ele>258.0</ele><time>2026-03-22T14:47:49.368Z</time></trkpt><trkpt lat="45.762125" lon="8.5493683"><ele>259.0</ele><time>2026-03-22T14:47:50.368Z</time></trkpt><trkpt lat="45.7622167" lon="8.549435"><ele>260.0</ele><time>2026-03-22T14:47:51.368Z</time></trkpt><trkpt lat="45.76227" lon="8.5495367"><ele>261.0</ele><time>2026-03-22T14:47:52.368Z</time></trkpt><trkpt lat="45.7622967" lon="8.549665"><ele>257.8</ele><time>2026-03-22T14:47:53.368Z</time></trkpt><trkpt lat="45.7622867" lon="8.5497983"><ele>254.60000000000002</ele><time>2026-03-22T14:47:54.368Z</time></trkpt><trkpt lat="45.7622517" lon="8.5499333"><ele>251.4</ele><time>2026-03-22T14:47:55.368Z</time></trkpt><trkpt lat="45.7621917" lon="8.5500617"><ele>248.2</ele><time>2026-03-22T14:47:56.368Z</time></trkpt><trkpt lat="45.7621233" lon="8.550215"><ele>245.0</ele><time>2026-03-22T14:47:57.368Z</time></trkpt><trkpt lat="45.7620433" lon="8.5503667"><ele>244.0</ele><time>2026-03-22T14:47:58.368Z</time></trkpt><trkpt lat="45.7619783" lon="8.5505217"><ele>243.0</ele><time>2026-03-22T14:47:59.368Z</time></trkpt><trkpt lat="45.7619083" lon="8.550675"><ele>242.0</ele><time>2026-03-22T14:48:00.368Z</time></trkpt><trkpt lat="45.7618433" lon="8.5508333"><ele>241.0</ele><time>2026-03-22T14:48:01.368Z</time></trkpt><trkpt lat="45.761785" lon="8.5509733"><ele>240.16666666666666</ele><time>2026-03-22T14:48:02.368Z</time></trkpt><trkpt lat="45.761735" lon="8.5510983"><ele>239.33333333333331</ele><time>2026-03-22T14:48:03.368Z</time></trkpt><trkpt lat="45.7617" lon="8.5512083"><ele>238.5</ele><time>2026-03-22T14:48:04.368Z</time></trkpt><trkpt lat="45.7616733" lon="8.55131"><ele>237.66666666666669</ele><time>2026-03-22T14:48:05.368Z</time></trkpt><trkpt lat="45.7616717" lon="8.5514067"><ele>236.83333333333334</ele><time>2026-03-22T14:48:06.368Z</time></trkpt><trkpt lat="45.7616983" lon="8.5515133"><ele>236.0</ele><time>2026-03-22T14:48:07.368Z</time></trkpt><trkpt lat="45.7617483" lon="8.55162"><ele>236.0</ele><time>2026-03-22T14:48:08.368Z</time></trkpt><trkpt lat="45.7618067" lon="8.5517217"><ele>236.00000000000003</ele><time>2026-03-22T14:48:09.368Z</time></trkpt><trkpt lat="45.7618617" lon="8.5518283"><ele>236.00000000000003</ele><time>2026-03-22T14:48:10.369Z</time></trkpt><trkpt lat="45.7619333" lon="8.551935"><ele>236.0</ele><time>2026-03-22T14:48:11.368Z</time></trkpt><trkpt lat="45.7620083" lon="8.5520383"><ele>236.0</ele><time>2026-03-22T14:48:12.368Z</time></trkpt><trkpt lat="45.7620867" lon="8.55214"><ele>236.00000000000003</ele><time>2026-03-22T14:48:13.368Z</time></trkpt><trkpt lat="45.7621683" lon="8.5522083"><ele>236.0</ele><time>2026-03-22T14:48:14.368Z</time></trkpt><trkpt lat="45.7622433" lon="8.552255"><ele>236.0</ele><time>2026-03-22T14:48:15.368Z</time></trkpt><trkpt lat="45.7623417" lon="8.5522933"><ele>236.0</ele><time>2026-03-22T14:48:17.368Z</time></trkpt><trkpt lat="45.762385" lon="8.552385"><ele>236.00000000000003</ele><time>2026-03-22T14:48:22.368Z</time></trkpt><trkpt lat="45.7623367" lon="8.5524933"><ele>236.0</ele><time>2026-03-22T14:48:24.368Z</time></trkpt><trkpt lat="45.7622483" lon="8.5526333"><ele>236.00000000000003</ele><time>2026-03-22T14:48:26.368Z</time></trkpt><trkpt lat="45.7622017" lon="8.552705"><ele>236.0</ele><time>2026-03-22T14:48:27.368Z</time></trkpt><trkpt lat="45.7621617" lon="8.55287"><ele>236.0</ele><time>2026-03-22T14:48:29.368Z</time></trkpt><trkpt lat="45.7621633" lon="8.5529617"><ele>236.0</ele><time>2026-03-22T14:48:30.368Z</time></trkpt><trkpt lat="45.76215" lon="8.5530617"><ele>236.00000000000003</ele><time>2026-03-22T14:48:31.368Z</time></trkpt><trkpt lat="45.7621333" lon="8.553155"><ele>236.0</ele><time>2026-03-22T14:48:32.368Z</time></trkpt><trkpt lat="45.7621033" lon="8.5532367"><ele>236.50000000000003</ele><time>2026-03-22T14:48:33.368Z</time></trkpt><trkpt lat="45.7620583" lon="8.5533133"><ele>237.0</ele><time>2026-03-22T14:48:34.368Z</time></trkpt><trkpt lat="45.7619933" lon="8.5533667"><ele>237.5</ele><time>2026-03-22T14:48:35.368Z</time></trkpt><trkpt lat="45.7619283" lon="8.55342"><ele>238.0</ele><time>2026-03-22T14:48:36.368Z</time></trkpt><trkpt lat="45.76186" lon="8.5534817"><ele>238.50000000000003</ele><time>2026-03-22T14:48:37.368Z</time></trkpt><trkpt lat="45.7618" lon="8.55354"><ele>239.0</ele><time>2026-03-22T14:48:38.368Z</time></trkpt><trkpt lat="45.76171" lon="8.5536233"><ele>235.79999999999998</ele><time>2026-03-22T14:48:40.368Z</time></trkpt><trkpt lat="45.761615" lon="8.5536933"><ele>232.59999999999997</ele><time>2026-03-22T14:48:49.368Z</time></trkpt><trkpt lat="45.7615783" lon="8.5538067"><ele>229.4</ele><time>2026-03-22T14:48:51.368Z</time></trkpt><trkpt lat="45.7616333" lon="8.5539683"><ele>226.2</ele><time>2026-03-22T14:48:53.368Z</time></trkpt><trkpt lat="45.7616967" lon="8.5540817"><ele>223.0</ele><time>2026-03-22T14:48:54.368Z</time></trkpt><trkpt lat="45.7617717" lon="8.554225"><ele>221.66666666666666</ele><time>2026-03-22T14:48:55.368Z</time></trkpt><trkpt lat="45.76184" lon="8.5544283"><ele>220.33333333333331</ele><time>2026-03-22T14:48:56.368Z</time></trkpt><trkpt lat="45.7619133" lon="8.5546467"><ele>219.0</ele><time>2026-03-22T14:48:57.368Z</time></trkpt><trkpt lat="45.7619983" lon="8.55486"><ele>219.75</ele><time>2026-03-22T14:48:58.368Z</time></trkpt><trkpt lat="45.762075" lon="8.5550383"><ele>220.5</ele><time>2026-03-22T14:48:59.368Z</time></trkpt><trkpt lat="45.7621583" lon="8.5552133"><ele>221.25</ele><time>2026-03-22T14:49:00.368Z</time></trkpt><trkpt lat="45.7622433" lon="8.555385"><ele>222.0</ele><time>2026-03-22T14:49:01.368Z</time></trkpt><trkpt lat="45.762325" lon="8.555535"><ele>222.0</ele><time>2026-03-22T14:49:02.368Z</time></trkpt><trkpt lat="45.7623883" lon="8.5556783"><ele>222.0</ele><time>2026-03-22T14:49:03.368Z</time></trkpt><trkpt lat="45.7624467" lon="8.5558167"><ele>222.0</ele><time>2026-03-22T14:49:04.368Z</time></trkpt><trkpt lat="45.762495" lon="8.5559233"><ele>222.0</ele><time>2026-03-22T14:49:05.368Z</time></trkpt><trkpt lat="45.7625383" lon="8.5560383"><ele>222.0</ele><time>2026-03-22T14:49:06.368Z</time></trkpt><trkpt lat="45.7625733" lon="8.5561267"><ele>220.8</ele><time>2026-03-22T14:49:07.368Z</time></trkpt><trkpt lat="45.762585" lon="8.5562667"><ele>219.6</ele><time>2026-03-22T14:49:09.368Z</time></trkpt><trkpt lat="45.7625283" lon="8.5563817"><ele>218.40000000000003</ele><time>2026-03-22T14:49:11.368Z</time></trkpt><trkpt lat="45.7624683" lon="8.556455"><ele>217.20000000000002</ele><time>2026-03-22T14:49:12.368Z</time></trkpt><trkpt lat="45.7623983" lon="8.5565367"><ele>216.0</ele><time>2026-03-22T14:49:13.368Z</time></trkpt><trkpt lat="45.7623333" lon="8.5566133"><ele>216.0</ele><time>2026-03-22T14:49:14.368Z</time></trkpt><trkpt lat="45.76226" lon="8.5566883"><ele>216.0</ele><time>2026-03-22T14:49:15.368Z</time></trkpt><trkpt lat="45.76219" lon="8.5567633"><ele>216.0</ele><time>2026-03-22T14:49:16.368Z</time></trkpt><trkpt lat="45.7621267" lon="8.55683"><ele>216.0</ele><time>2026-03-22T14:49:17.368Z</time></trkpt><trkpt lat="45.7620583" lon="8.5568983"><ele>216.0</ele><time>2026-03-22T14:49:18.368Z</time></trkpt><trkpt lat="45.7619883" lon="8.5569683"><ele>216.0</ele><time>2026-03-22T14:49:19.368Z</time></trkpt><trkpt lat="45.761915" lon="8.5570517"><ele>215.60000000000002</ele><time>2026-03-22T14:49:20.368Z</time></trkpt><trkpt lat="45.7618383" lon="8.5571417"><ele>215.20000000000002</ele><time>2026-03-22T14:49:21.368Z</time></trkpt><trkpt lat="45.76176" lon="8.5572367"><ele>214.79999999999998</ele><time>2026-03-22T14:49:22.368Z</time></trkpt><trkpt lat="45.761685" lon="8.5573283"><ele>214.39999999999998</ele><time>2026-03-22T14:49:23.368Z</time></trkpt><trkpt lat="45.7616217" lon="8.557405"><ele>214.0</ele><time>2026-03-22T14:49:24.368Z</time></trkpt><trkpt lat="45.76156" lon="8.5574817"><ele>213.99999999999997</ele><time>2026-03-22T14:49:25.368Z</time></trkpt><trkpt lat="45.7615" lon="8.557555"><ele>214.0</ele><time>2026-03-22T14:49:26.368Z</time></trkpt><trkpt lat="45.7614333" lon="8.55763"><ele>214.0</ele><time>2026-03-22T14:49:27.368Z</time></trkpt><trkpt lat="45.7613767" lon="8.5576867"><ele>214.0</ele><time>2026-03-22T14:49:28.368Z</time></trkpt><trkpt lat="45.7613133" lon="8.55776"><ele>213.99999999999997</ele><time>2026-03-22T14:49:29.368Z</time></trkpt><trkpt lat="45.7612483" lon="8.5578467"><ele>214.0</ele><time>2026-03-22T14:49:30.368Z</time></trkpt><trkpt lat="45.761175" lon="8.5579483"><ele>214.2</ele><time>2026-03-22T14:49:31.368Z</time></trkpt><trkpt lat="45.761105" lon="8.5580333"><ele>214.39999999999998</ele><time>2026-03-22T14:49:32.368Z</time></trkpt><trkpt lat="45.7610033" lon="8.5581267"><ele>214.6</ele><time>2026-03-22T14:49:33.368Z</time></trkpt><trkpt lat="45.760915" lon="8.5582267"><ele>214.8</ele><time>2026-03-22T14:49:34.368Z</time></trkpt><trkpt lat="45.7608267" lon="8.5583233"><ele>215.0</ele><time>2026-03-22T14:49:35.368Z</time></trkpt><trkpt lat="45.7607317" lon="8.558435"><ele>215.0</ele><time>2026-03-22T14:49:36.368Z</time></trkpt><trkpt lat="45.760625" lon="8.5585283"><ele>215.0</ele><time>2026-03-22T14:49:37.368Z</time></trkpt><trkpt lat="45.7605233" lon="8.5586367"><ele>215.0</ele><time>2026-03-22T14:49:38.368Z</time></trkpt><trkpt lat="45.7604283" lon="8.5587433"><ele>215.0</ele><time>2026-03-22T14:49:39.368Z</time></trkpt><trkpt lat="45.7603467" lon="8.558845"><ele>215.33333333333334</ele><time>2026-03-22T14:49:40.368Z</time></trkpt><trkpt lat="45.7602733" lon="8.5589317"><ele>215.66666666666669</ele><time>2026-03-22T14:49:41.368Z</time></trkpt><trkpt lat="45.7602133" lon="8.55901"><ele>216.0</ele><time>2026-03-22T14:49:42.368Z</time></trkpt><trkpt lat="45.7601433" lon="8.559055"><ele>216.33333333333331</ele><time>2026-03-22T14:49:43.368Z</time></trkpt><trkpt lat="45.7600733" lon="8.55908"><ele>216.66666666666666</ele><time>2026-03-22T14:49:44.368Z</time></trkpt><trkpt lat="45.7599933" lon="8.5590867"><ele>217.0</ele><time>2026-03-22T14:49:45.368Z</time></trkpt><trkpt lat="45.7599133" lon="8.5590733"><ele>215.8</ele><time>2026-03-22T14:49:46.369Z</time></trkpt><trkpt lat="45.75983" lon="8.55904"><ele>214.6</ele><time>2026-03-22T14:49:47.368Z</time></trkpt><trkpt lat="45.7597467" lon="8.5589567"><ele>213.4</ele><time>2026-03-22T14:49:48.368Z</time></trkpt><trkpt lat="45.7596467" lon="8.5588833"><ele>212.20000000000002</ele><time>2026-03-22T14:49:49.368Z</time></trkpt><trkpt lat="45.7595483" lon="8.558825"><ele>211.0</ele><time>2026-03-22T14:49:50.368Z</time></trkpt><trkpt lat="45.75946" lon="8.55877"><ele>210.99999999999997</ele><time>2026-03-22T14:49:51.368Z</time></trkpt><trkpt lat="45.7593833" lon="8.55872"><ele>211.0</ele><time>2026-03-22T14:49:52.368Z</time></trkpt><trkpt lat="45.759315" lon="8.55867"><ele>211.0</ele><time>2026-03-22T14:49:53.368Z</time></trkpt><trkpt lat="45.7592533" lon="8.5586267"><ele>211.0</ele><time>2026-03-22T14:49:54.368Z</time></trkpt><trkpt lat="45.7591933" lon="8.55859"><ele>210.99999999999997</ele><time>2026-03-22T14:49:55.368Z</time></trkpt><trkpt lat="45.7591317" lon="8.5585517"><ele>211.0</ele><time>2026-03-22T14:49:56.368Z</time></trkpt><trkpt lat="45.7590333" lon="8.5584833"><ele>211.4</ele><time>2026-03-22T14:49:58.368Z</time></trkpt><trkpt lat="45.7589233" lon="8.5584133"><ele>211.8</ele><time>2026-03-22T14:50:00.368Z</time></trkpt><trkpt lat="45.75886" lon="8.5583867"><ele>212.20000000000002</ele><time>2026-03-22T14:50:01.368Z</time></trkpt><trkpt lat="45.7587583" lon="8.5583367"><ele>212.60000000000002</ele><time>2026-03-22T14:50:03.368Z</time></trkpt><trkpt lat="45.7586617" lon="8.55828"><ele>213.0</ele><time>2026-03-22T14:50:05.368Z</time></trkpt><trkpt lat="45.7585767" lon="8.5582317"><ele>212.42857142857142</ele><time>2026-03-22T14:50:07.368Z</time></trkpt><trkpt lat="45.7585083" lon="8.5581583"><ele>211.85714285714286</ele><time>2026-03-22T14:50:10.368Z</time></trkpt><trkpt lat="45.7584367" lon="8.5581467"><ele>211.28571428571428</ele><time>2026-03-22T14:50:13.368Z</time></trkpt><trkpt lat="45.7583867" lon="8.5582217"><ele>210.71428571428572</ele><time>2026-03-22T14:50:15.368Z</time></trkpt><trkpt lat="45.7583533" lon="8.55831"><ele>210.14285714285714</ele><time>2026-03-22T14:50:18.368Z</time></trkpt><trkpt lat="45.758335" lon="8.5584217"><ele>209.57142857142856</ele><time>2026-03-22T14:50:21.368Z</time></trkpt><trkpt lat="45.758325" lon="8.5585133"><ele>209.0</ele><time>2026-03-22T14:50:24.368Z</time></trkpt><trkpt lat="45.7583067" lon="8.55861"><ele>208.50000000000003</ele><time>2026-03-22T14:50:26.368Z</time></trkpt><trkpt lat="45.7582883" lon="8.5587033"><ele>208.0</ele><time>2026-03-22T14:50:28.368Z</time></trkpt><trkpt lat="45.7582617" lon="8.5588133"><ele>207.5</ele><time>2026-03-22T14:50:31.368Z</time></trkpt><trkpt lat="45.7582533" lon="8.5589367"><ele>207.0</ele><time>2026-03-22T14:50:34.368Z</time></trkpt><trkpt lat="45.7582367" lon="8.5590633"><ele>206.50000000000003</ele><time>2026-03-22T14:50:36.368Z</time></trkpt><trkpt lat="45.7582083" lon="8.5592083"><ele>206.0</ele><time>2026-03-22T14:50:38.368Z</time></trkpt><trkpt lat="45.758175" lon="8.5593683"><ele>205.8</ele><time>2026-03-22T14:50:40.369Z</time></trkpt><trkpt lat="45.758135" lon="8.5595433"><ele>205.60000000000002</ele><time>2026-03-22T14:50:42.368Z</time></trkpt><trkpt lat="45.75812" lon="8.5596367"><ele>205.4</ele><time>2026-03-22T14:50:43.368Z</time></trkpt><trkpt lat="45.7581067" lon="8.5597317"><ele>205.2</ele><time>2026-03-22T14:50:44.368Z</time></trkpt><trkpt lat="45.7580717" lon="8.5599033"><ele>205.0</ele><time>2026-03-22T14:50:46.368Z</time></trkpt><trkpt lat="45.7580467" lon="8.5600367"><ele>205.0</ele><time>2026-03-22T14:50:48.368Z</time></trkpt><trkpt lat="45.758005" lon="8.560105"><ele>205.0</ele><time>2026-03-22T14:50:51.368Z</time></trkpt><trkpt lat="45.7579683" lon="8.5601883"><ele>205.0</ele><time>2026-03-22T14:50:58.368Z</time></trkpt><trkpt lat="45.7578967" lon="8.5602533"><ele>205.0</ele><time>2026-03-22T14:51:01.368Z</time></trkpt><trkpt lat="45.757835" lon="8.5602717"><ele>205.0</ele><time>2026-03-22T14:51:03.368Z</time></trkpt><trkpt lat="45.7577583" lon="8.5602733"><ele>205.0</ele><time>2026-03-22T14:51:05.368Z</time></trkpt><trkpt lat="45.7576883" lon="8.5602317"><ele>205.0</ele><time>2026-03-22T14:51:08.368Z</time></trkpt><trkpt lat="45.75761" lon="8.5601883"><ele>204.83333333333331</ele><time>2026-03-22T14:51:10.368Z</time></trkpt><trkpt lat="45.7575233" lon="8.5601533"><ele>204.66666666666666</ele><time>2026-03-22T14:51:12.368Z</time></trkpt><trkpt lat="45.7574483" lon="8.5601183"><ele>204.5</ele><time>2026-03-22T14:51:14.368Z</time></trkpt><trkpt lat="45.7573867" lon="8.5600933"><ele>204.33333333333331</ele><time>2026-03-22T14:51:16.368Z</time></trkpt><trkpt lat="45.7573217" lon="8.5600867"><ele>204.16666666666666</ele><time>2026-03-22T14:51:19.368Z</time></trkpt><trkpt lat="45.7572433" lon="8.5600883"><ele>204.0</ele><time>2026-03-22T14:51:23.368Z</time></trkpt><trkpt lat="45.75717" lon="8.5600767"><ele>204.0</ele><time>2026-03-22T14:51:27.368Z</time></trkpt><trkpt lat="45.7571017" lon="8.56005"><ele>204.0</ele><time>2026-03-22T14:51:30.368Z</time></trkpt><trkpt lat="45.7569917" lon="8.5600017"><ele>204.0</ele><time>2026-03-22T14:51:32.368Z</time></trkpt><trkpt lat="45.7569" lon="8.5599483"><ele>204.0</ele><time>2026-03-22T14:51:33.368Z</time></trkpt><trkpt lat="45.7567983" lon="8.5599017"><ele>204.0</ele><time>2026-03-22T14:51:34.368Z</time></trkpt><trkpt lat="45.7566933" lon="8.559865"><ele>203.83333333333334</ele><time>2026-03-22T14:51:35.368Z</time></trkpt><trkpt lat="45.7566" lon="8.55984"><ele>203.66666666666669</ele><time>2026-03-22T14:51:36.368Z</time></trkpt><trkpt lat="45.7565183" lon="8.5598183"><ele>203.5</ele><time>2026-03-22T14:51:37.368Z</time></trkpt><trkpt lat="45.7564433" lon="8.5598167"><ele>203.33333333333334</ele><time>2026-03-22T14:51:38.368Z</time></trkpt><trkpt lat="45.75636" lon="8.55981"><ele>203.16666666666669</ele><time>2026-03-22T14:51:39.368Z</time></trkpt><trkpt lat="45.75627" lon="8.5598067"><ele>203.0</ele><time>2026-03-22T14:51:40.368Z</time></trkpt><trkpt lat="45.7561817" lon="8.5598083"><ele>203.0</ele><time>2026-03-22T14:51:41.368Z</time></trkpt><trkpt lat="45.7560867" lon="8.5598183"><ele>203.0</ele><time>2026-03-22T14:51:42.368Z</time></trkpt><trkpt lat="45.7559833" lon="8.5598533"><ele>203.0</ele><time>2026-03-22T14:51:43.368Z</time></trkpt><trkpt lat="45.7558867" lon="8.5598983"><ele>203.0</ele><time>2026-03-22T14:51:44.368Z</time></trkpt><trkpt lat="45.7558017" lon="8.5599417"><ele>203.0</ele><time>2026-03-22T14:51:45.368Z</time></trkpt><trkpt lat="45.7557183" lon="8.5599933"><ele>202.60000000000002</ele><time>2026-03-22T14:51:46.368Z</time></trkpt><trkpt lat="45.7556383" lon="8.56005"><ele>202.20000000000002</ele><time>2026-03-22T14:51:47.368Z</time></trkpt><trkpt lat="45.7555533" lon="8.5601083"><ele>201.8</ele><time>2026-03-22T14:51:48.368Z</time></trkpt><trkpt lat="45.75547" lon="8.56018"><ele>201.4</ele><time>2026-03-22T14:51:49.368Z</time></trkpt><trkpt lat="45.7553917" lon="8.56026"><ele>201.0</ele><time>2026-03-22T14:51:50.368Z</time></trkpt><trkpt lat="45.7553217" lon="8.5603417"><ele>200.83333333333334</ele><time>2026-03-22T14:51:51.368Z</time></trkpt><trkpt lat="45.7552583" lon="8.5604133"><ele>200.66666666666669</ele><time>2026-03-22T14:51:52.368Z</time></trkpt><trkpt lat="45.7552083" lon="8.560475"><ele>200.5</ele><time>2026-03-22T14:51:53.368Z</time></trkpt><trkpt lat="45.7551583" lon="8.5605333"><ele>200.33333333333334</ele><time>2026-03-22T14:51:54.368Z</time></trkpt><trkpt lat="45.75508" lon="8.56063"><ele>200.16666666666669</ele><time>2026-03-22T14:51:56.368Z</time></trkpt><trkpt lat="45.754995" lon="8.560715"><ele>200.0</ele><time>2026-03-22T14:51:58.368Z</time></trkpt><trkpt lat="45.7549133" lon="8.5608217"><ele>200.00000000000003</ele><time>2026-03-22T14:52:00.368Z</time></trkpt><trkpt lat="45.7548433" lon="8.5608967"><ele>200.0</ele><time>2026-03-22T14:52:02.368Z</time></trkpt><trkpt lat="45.7547633" lon="8.5609783"><ele>200.0</ele><time>2026-03-22T14:52:11.368Z</time></trkpt><trkpt lat="45.7546867" lon="8.5610817"><ele>200.0</ele><time>2026-03-22T14:52:13.368Z</time></trkpt><trkpt lat="45.75464" lon="8.561145"><ele>200.00000000000003</ele><time>2026-03-22T14:52:14.368Z</time></trkpt><trkpt lat="45.7545817" lon="8.5612083"><ele>200.0</ele><time>2026-03-22T14:52:15.368Z</time></trkpt><trkpt lat="45.754515" lon="8.5612783"><ele>199.83333333333334</ele><time>2026-03-22T14:52:16.368Z</time></trkpt><trkpt lat="45.75444" lon="8.5613583"><ele>199.66666666666669</ele><time>2026-03-22T14:52:17.368Z</time></trkpt><trkpt lat="45.754365" lon="8.561445"><ele>199.5</ele><time>2026-03-22T14:52:18.368Z</time></trkpt><trkpt lat="45.7542933" lon="8.5615017"><ele>199.33333333333331</ele><time>2026-03-22T14:52:19.368Z</time></trkpt><trkpt lat="45.7542317" lon="8.5615533"><ele>199.16666666666666</ele><time>2026-03-22T14:52:20.368Z</time></trkpt><trkpt lat="45.7541683" lon="8.56161"><ele>199.0</ele><time>2026-03-22T14:52:21.368Z</time></trkpt><trkpt lat="45.7540983" lon="8.5616767"><ele>199.49999999999997</ele><time>2026-03-22T14:52:22.368Z</time></trkpt><trkpt lat="45.754025" lon="8.5617367"><ele>200.0</ele><time>2026-03-22T14:52:23.368Z</time></trkpt><trkpt lat="45.7539533" lon="8.5617983"><ele>200.5</ele><time>2026-03-22T14:52:24.367Z</time></trkpt><trkpt lat="45.7538867" lon="8.5618567"><ele>201.0</ele><time>2026-03-22T14:52:25.368Z</time></trkpt><trkpt lat="45.7538183" lon="8.561905"><ele>201.49999999999997</ele><time>2026-03-22T14:52:26.368Z</time></trkpt><trkpt lat="45.75375" lon="8.5619617"><ele>202.0</ele><time>2026-03-22T14:52:27.368Z</time></trkpt><trkpt lat="45.7536767" lon="8.562025"><ele>201.99999999999997</ele><time>2026-03-22T14:52:28.368Z</time></trkpt><trkpt lat="45.7536033" lon="8.5620883"><ele>202.0</ele><time>2026-03-22T14:52:29.368Z</time></trkpt><trkpt lat="45.753535" lon="8.562155"><ele>202.0</ele><time>2026-03-22T14:52:30.368Z</time></trkpt><trkpt lat="45.7534733" lon="8.562205"><ele>202.0</ele><time>2026-03-22T14:52:31.368Z</time></trkpt><trkpt lat="45.753375" lon="8.56227"><ele>201.99999999999997</ele><time>2026-03-22T14:52:33.368Z</time></trkpt><trkpt lat="45.753285" lon="8.5623233"><ele>202.0</ele><time>2026-03-22T14:52:35.368Z</time></trkpt><trkpt lat="45.7532067" lon="8.5623717"><ele>201.99999999999997</ele><time>2026-03-22T14:52:37.368Z</time></trkpt><trkpt lat="45.753135" lon="8.562415"><ele>202.0</ele><time>2026-03-22T14:52:39.368Z</time></trkpt><trkpt lat="45.753055" lon="8.5624917"><ele>202.0</ele><time>2026-03-22T14:52:41.368Z</time></trkpt><trkpt lat="45.7529867" lon="8.562535"><ele>202.0</ele><time>2026-03-22T14:52:42.368Z</time></trkpt><trkpt lat="45.7529167" lon="8.5625733"><ele>201.99999999999997</ele><time>2026-03-22T14:52:43.368Z</time></trkpt><trkpt lat="45.7528533" lon="8.5626117"><ele>202.0</ele><time>2026-03-22T14:52:44.368Z</time></trkpt><trkpt lat="45.752755" lon="8.5626517"><ele>202.0</ele><time>2026-03-22T14:52:46.368Z</time></trkpt><trkpt lat="45.7526683" lon="8.562695"><ele>202.0</ele><time>2026-03-22T14:52:48.368Z</time></trkpt><trkpt lat="45.7525683" lon="8.5627617"><ele>202.0</ele><time>2026-03-22T14:52:50.368Z</time></trkpt><trkpt lat="45.7524733" lon="8.56282"><ele>202.0</ele><time>2026-03-22T14:52:52.368Z</time></trkpt><trkpt lat="45.752385" lon="8.56288"><ele>202.0</ele><time>2026-03-22T14:52:54.368Z</time></trkpt><trkpt lat="45.7522967" lon="8.5629283"><ele>201.8</ele><time>2026-03-22T14:52:56.368Z</time></trkpt><trkpt lat="45.7521817" lon="8.5630133"><ele>201.6</ele><time>2026-03-22T14:52:58.368Z</time></trkpt><trkpt lat="45.7521067" lon="8.5630617"><ele>201.4</ele><time>2026-03-22T14:52:59.368Z</time></trkpt><trkpt lat="45.7520283" lon="8.56311"><ele>201.20000000000002</ele><time>2026-03-22T14:53:00.368Z</time></trkpt><trkpt lat="45.7519417" lon="8.56315"><ele>201.0</ele><time>2026-03-22T14:53:01.368Z</time></trkpt><trkpt lat="45.7518517" lon="8.5631983"><ele>200.8</ele><time>2026-03-22T14:53:02.368Z</time></trkpt><trkpt lat="45.751765" lon="8.5632583"><ele>200.60000000000002</ele><time>2026-03-22T14:53:03.368Z</time></trkpt><trkpt lat="45.7516717" lon="8.5633117"><ele>200.4</ele><time>2026-03-22T14:53:04.368Z</time></trkpt><trkpt lat="45.7515733" lon="8.563365"><ele>200.2</ele><time>2026-03-22T14:53:05.368Z</time></trkpt><trkpt lat="45.7514733" lon="8.56342"><ele>200.0</ele><time>2026-03-22T14:53:06.368Z</time></trkpt><trkpt lat="45.75138" lon="8.56348"><ele>200.0</ele><time>2026-03-22T14:53:07.368Z</time></trkpt><trkpt lat="45.7512883" lon="8.5635367"><ele>200.0</ele><time>2026-03-22T14:53:08.368Z</time></trkpt><trkpt lat="45.7511967" lon="8.5635983"><ele>200.0</ele><time>2026-03-22T14:53:09.368Z</time></trkpt><trkpt lat="45.7511067" lon="8.563655"><ele>200.0</ele><time>2026-03-22T14:53:10.368Z</time></trkpt><trkpt lat="45.7510183" lon="8.5637083"><ele>200.0</ele><time>2026-03-22T14:53:11.368Z</time></trkpt><trkpt lat="45.7509333" lon="8.5637583"><ele>200.5</ele><time>2026-03-22T14:53:12.368Z</time></trkpt><trkpt lat="45.750835" lon="8.5638067"><ele>201.0</ele><time>2026-03-22T14:53:13.368Z</time></trkpt><trkpt lat="45.7507317" lon="8.5638717"><ele>201.5</ele><time>2026-03-22T14:53:14.368Z</time></trkpt><trkpt lat="45.750625" lon="8.5639383"><ele>202.0</ele><time>2026-03-22T14:53:15.368Z</time></trkpt><trkpt lat="45.7505133" lon="8.564015"><ele>202.0</ele><time>2026-03-22T14:53:16.368Z</time></trkpt><trkpt lat="45.7504" lon="8.5640833"><ele>202.0</ele><time>2026-03-22T14:53:17.368Z</time></trkpt><trkpt lat="45.7503" lon="8.5641417"><ele>202.0</ele><time>2026-03-22T14:53:18.368Z</time></trkpt><trkpt lat="45.7502133" lon="8.5641883"><ele>202.0</ele><time>2026-03-22T14:53:19.368Z</time></trkpt><trkpt lat="45.75012" lon="8.5642383"><ele>202.0</ele><time>2026-03-22T14:53:20.368Z</time></trkpt><trkpt lat="45.75003" lon="8.564295"><ele>202.0</ele><time>2026-03-22T14:53:21.368Z</time></trkpt><trkpt lat="45.7499283" lon="8.5643567"><ele>202.0</ele><time>2026-03-22T14:53:22.368Z</time></trkpt><trkpt lat="45.7498217" lon="8.56441"><ele>202.0</ele><time>2026-03-22T14:53:23.368Z</time></trkpt><trkpt lat="45.7497067" lon="8.5644667"><ele>202.0</ele><time>2026-03-22T14:53:24.368Z</time></trkpt><trkpt lat="45.7495933" lon="8.5645133"><ele>202.0</ele><time>2026-03-22T14:53:25.368Z</time></trkpt><trkpt lat="45.749485" lon="8.56455"><ele>202.0</ele><time>2026-03-22T14:53:26.368Z</time></trkpt><trkpt lat="45.749375" lon="8.5645783"><ele>202.0</ele><time>2026-03-22T14:53:27.368Z</time></trkpt><trkpt lat="45.7492683" lon="8.56461"><ele>202.0</ele><time>2026-03-22T14:53:28.368Z</time></trkpt><trkpt lat="45.74916" lon="8.5646433"><ele>202.0</ele><time>2026-03-22T14:53:29.368Z</time></trkpt><trkpt lat="45.7490467" lon="8.5646633"><ele>202.0</ele><time>2026-03-22T14:53:30.368Z</time></trkpt><trkpt lat="45.7489433" lon="8.5646817"><ele>202.0</ele><time>2026-03-22T14:53:31.368Z</time></trkpt><trkpt lat="45.7488333" lon="8.5646983"><ele>202.0</ele><time>2026-03-22T14:53:32.368Z</time></trkpt><trkpt lat="45.7487167" lon="8.5647033"><ele>202.0</ele><time>2026-03-22T14:53:33.368Z</time></trkpt><trkpt lat="45.7486083" lon="8.5647033"><ele>202.0</ele><time>2026-03-22T14:53:34.368Z</time></trkpt><trkpt lat="45.7484967" lon="8.5647033"><ele>202.0</ele><time>2026-03-22T14:53:35.368Z</time></trkpt><trkpt lat="45.7483733" lon="8.564705"><ele>202.0</ele><time>2026-03-22T14:53:36.368Z</time></trkpt><trkpt lat="45.7482483" lon="8.5647183"><ele>202.0</ele><time>2026-03-22T14:53:37.368Z</time></trkpt><trkpt lat="45.7481233" lon="8.5647233"><ele>202.0</ele><time>2026-03-22T14:53:38.368Z</time></trkpt><trkpt lat="45.7479917" lon="8.5647283"><ele>202.0</ele><time>2026-03-22T14:53:39.368Z</time></trkpt><trkpt lat="45.747865" lon="8.5647267"><ele>202.0</ele><time>2026-03-22T14:53:40.368Z</time></trkpt><trkpt lat="45.7477533" lon="8.5647267"><ele>202.0</ele><time>2026-03-22T14:53:41.368Z</time></trkpt><trkpt lat="45.7476517" lon="8.5647217"><ele>202.0</ele><time>2026-03-22T14:53:42.368Z</time></trkpt><trkpt lat="45.7475617" lon="8.56471"><ele>202.0</ele><time>2026-03-22T14:53:43.368Z</time></trkpt><trkpt lat="45.747475" lon="8.5647217"><ele>201.83333333333331</ele><time>2026-03-22T14:53:44.368Z</time></trkpt><trkpt lat="45.7473933" lon="8.5647167"><ele>201.66666666666666</ele><time>2026-03-22T14:53:45.368Z</time></trkpt><trkpt lat="45.7473183" lon="8.564705"><ele>201.5</ele><time>2026-03-22T14:53:46.368Z</time></trkpt><trkpt lat="45.7472533" lon="8.5646667"><ele>201.33333333333331</ele><time>2026-03-22T14:53:47.368Z</time></trkpt><trkpt lat="45.74718" lon="8.5646117"><ele>201.16666666666666</ele><time>2026-03-22T14:53:48.368Z</time></trkpt><trkpt lat="45.7471067" lon="8.56457"><ele>201.0</ele><time>2026-03-22T14:53:49.368Z</time></trkpt><trkpt lat="45.7470183" lon="8.5645633"><ele>201.0</ele><time>2026-03-22T14:53:50.368Z</time></trkpt><trkpt lat="45.7469017" lon="8.564595"><ele>201.0</ele><time>2026-03-22T14:53:51.368Z</time></trkpt><trkpt lat="45.7467733" lon="8.5646417"><ele>201.0</ele><time>2026-03-22T14:53:52.368Z</time></trkpt><trkpt lat="45.74665" lon="8.56467"><ele>201.0</ele><time>2026-03-22T14:53:53.368Z</time></trkpt><trkpt lat="45.7465267" lon="8.56468"><ele>201.0</ele><time>2026-03-22T14:53:54.368Z</time></trkpt><trkpt lat="45.7464017" lon="8.5646833"><ele>201.0</ele><time>2026-03-22T14:53:55.368Z</time></trkpt><trkpt lat="45.74628" lon="8.564695"><ele>201.0</ele><time>2026-03-22T14:53:56.368Z</time></trkpt><trkpt lat="45.74616" lon="8.5647283"><ele>201.0</ele><time>2026-03-22T14:53:57.368Z</time></trkpt><trkpt lat="45.7460333" lon="8.5647917"><ele>201.0</ele><time>2026-03-22T14:53:58.368Z</time></trkpt><trkpt lat="45.7459183" lon="8.5648767"><ele>201.0</ele><time>2026-03-22T14:53:59.368Z</time></trkpt><trkpt lat="45.7458033" lon="8.5649667"><ele>201.0</ele><time>2026-03-22T14:54:00.368Z</time></trkpt><trkpt lat="45.7456933" lon="8.565055"><ele>201.0</ele><time>2026-03-22T14:54:01.368Z</time></trkpt><trkpt lat="45.745595" lon="8.56514"><ele>201.0</ele><time>2026-03-22T14:54:02.368Z</time></trkpt><trkpt lat="45.7455" lon="8.5652217"><ele>201.0</ele><time>2026-03-22T14:54:03.368Z</time></trkpt><trkpt lat="45.745395" lon="8.565305"><ele>201.0</ele><time>2026-03-22T14:54:04.368Z</time></trkpt><trkpt lat="45.7452883" lon="8.5653933"><ele>201.0</ele><time>2026-03-22T14:54:05.368Z</time></trkpt><trkpt lat="45.745185" lon="8.5654633"><ele>201.20000000000002</ele><time>2026-03-22T14:54:06.368Z</time></trkpt><trkpt lat="45.7450917" lon="8.565535"><ele>201.4</ele><time>2026-03-22T14:54:07.368Z</time></trkpt><trkpt lat="45.745" lon="8.5656083"><ele>201.6</ele><time>2026-03-22T14:54:08.368Z</time></trkpt><trkpt lat="45.74491" lon="8.56569"><ele>201.8</ele><time>2026-03-22T14:54:09.368Z</time></trkpt><trkpt lat="45.744815" lon="8.565765"><ele>202.0</ele><time>2026-03-22T14:54:10.368Z</time></trkpt><trkpt lat="45.74471" lon="8.5658483"><ele>202.0</ele><time>2026-03-22T14:54:11.368Z</time></trkpt><trkpt lat="45.7445883" lon="8.5659333"><ele>202.0</ele><time>2026-03-22T14:54:12.368Z</time></trkpt><trkpt lat="45.7444717" lon="8.566025"><ele>202.0</ele><time>2026-03-22T14:54:13.368Z</time></trkpt><trkpt lat="45.7443483" lon="8.5661167"><ele>202.0</ele><time>2026-03-22T14:54:14.368Z</time></trkpt><trkpt lat="45.7442283" lon="8.5662167"><ele>202.0</ele><time>2026-03-22T14:54:15.368Z</time></trkpt><trkpt lat="45.7440967" lon="8.5663217"><ele>202.0</ele><time>2026-03-22T14:54:16.368Z</time></trkpt><trkpt lat="45.7439617" lon="8.5664267"><ele>202.0</ele><time>2026-03-22T14:54:17.368Z</time></trkpt><trkpt lat="45.743835" lon="8.5665317"><ele>202.0</ele><time>2026-03-22T14:54:18.368Z</time></trkpt><trkpt lat="45.743705" lon="8.5666267"><ele>202.0</ele><time>2026-03-22T14:54:19.368Z</time></trkpt><trkpt lat="45.7435833" lon="8.5667283"><ele>202.0</ele><time>2026-03-22T14:54:20.368Z</time></trkpt><trkpt lat="45.7434717" lon="8.5668133"><ele>202.0</ele><time>2026-03-22T14:54:21.368Z</time></trkpt><trkpt lat="45.7433683" lon="8.566905"><ele>202.0</ele><time>2026-03-22T14:54:22.368Z</time></trkpt><trkpt lat="45.7432633" lon="8.5670017"><ele>202.0</ele><time>2026-03-22T14:54:23.368Z</time></trkpt><trkpt lat="45.7431433" lon="8.5671033"><ele>202.0</ele><time>2026-03-22T14:54:24.368Z</time></trkpt><trkpt lat="45.7430117" lon="8.5672033"><ele>202.0</ele><time>2026-03-22T14:54:25.368Z</time></trkpt><trkpt lat="45.7428767" lon="8.5672983"><ele>202.0</ele><time>2026-03-22T14:54:26.368Z</time></trkpt><trkpt lat="45.74274" lon="8.5673883"><ele>202.0</ele><time>2026-03-22T14:54:27.368Z</time></trkpt><trkpt lat="45.7426233" lon="8.56748"><ele>202.0</ele><time>2026-03-22T14:54:28.368Z</time></trkpt><trkpt lat="45.7425283" lon="8.567555"><ele>202.0</ele><time>2026-03-22T14:54:29.368Z</time></trkpt><trkpt lat="45.7424383" lon="8.567605"><ele>201.99999999999997</ele><time>2026-03-22T14:54:30.368Z</time></trkpt><trkpt lat="45.7423717" lon="8.5676517"><ele>202.0</ele><time>2026-03-22T14:54:31.368Z</time></trkpt><trkpt lat="45.74231" lon="8.567705"><ele>202.0</ele><time>2026-03-22T14:54:32.368Z</time></trkpt><trkpt lat="45.74225" lon="8.56776"><ele>202.0</ele><time>2026-03-22T14:54:33.368Z</time></trkpt><trkpt lat="45.7421783" lon="8.5678333"><ele>201.99999999999997</ele><time>2026-03-22T14:54:34.368Z</time></trkpt><trkpt lat="45.7421067" lon="8.567905"><ele>202.0</ele><time>2026-03-22T14:54:35.368Z</time></trkpt><trkpt lat="45.7420217" lon="8.5679717"><ele>202.0</ele><time>2026-03-22T14:54:36.368Z</time></trkpt><trkpt lat="45.7419317" lon="8.5680467"><ele>202.0</ele><time>2026-03-22T14:54:37.368Z</time></trkpt><trkpt lat="45.74184" lon="8.5681233"><ele>202.0</ele><time>2026-03-22T14:54:38.368Z</time></trkpt><trkpt lat="45.7417417" lon="8.5681983"><ele>202.0</ele><time>2026-03-22T14:54:39.368Z</time></trkpt><trkpt lat="45.7416383" lon="8.5682817"><ele>202.0</ele><time>2026-03-22T14:54:40.369Z</time></trkpt><trkpt lat="45.7415333" lon="8.5683633"><ele>202.75</ele><time>2026-03-22T14:54:41.369Z</time></trkpt><trkpt lat="45.7414283" lon="8.568445"><ele>203.5</ele><time>2026-03-22T14:54:42.369Z</time></trkpt><trkpt lat="45.7413217" lon="8.5685233"><ele>204.25</ele><time>2026-03-22T14:54:43.369Z</time></trkpt><trkpt lat="45.7412167" lon="8.5686"><ele>205.0</ele><time>2026-03-22T14:54:44.369Z</time></trkpt><trkpt lat="45.741115" lon="8.5686767"><ele>205.0</ele><time>2026-03-22T14:54:45.369Z</time></trkpt><trkpt lat="45.7410133" lon="8.5687633"><ele>205.0</ele><time>2026-03-22T14:54:46.369Z</time></trkpt><trkpt lat="45.7409067" lon="8.5688483"><ele>205.0</ele><time>2026-03-22T14:54:47.369Z</time></trkpt><trkpt lat="45.7408017" lon="8.5689317"><ele>205.0</ele><time>2026-03-22T14:54:48.369Z</time></trkpt><trkpt lat="45.7406983" lon="8.5690067"><ele>205.0</ele><time>2026-03-22T14:54:49.369Z</time></trkpt><trkpt lat="45.7405967" lon="8.5690817"><ele>205.0</ele><time>2026-03-22T14:54:50.369Z</time></trkpt><trkpt lat="45.740495" lon="8.5691667"><ele>205.0</ele><time>2026-03-22T14:54:51.369Z</time></trkpt><trkpt lat="45.7403867" lon="8.5692567"><ele>205.0</ele><time>2026-03-22T14:54:52.369Z</time></trkpt><trkpt lat="45.7402817" lon="8.569335"><ele>205.6</ele><time>2026-03-22T14:54:53.369Z</time></trkpt><trkpt lat="45.74019" lon="8.5694083"><ele>206.2</ele><time>2026-03-22T14:54:54.369Z</time></trkpt><trkpt lat="45.7401033" lon="8.56948"><ele>206.8</ele><time>2026-03-22T14:54:55.369Z</time></trkpt><trkpt lat="45.7400167" lon="8.5695467"><ele>207.4</ele><time>2026-03-22T14:54:56.369Z</time></trkpt><trkpt lat="45.7399367" lon="8.569615"><ele>208.0</ele><time>2026-03-22T14:54:57.369Z</time></trkpt><trkpt lat="45.73985" lon="8.5696817"><ele>208.0</ele><time>2026-03-22T14:54:58.369Z</time></trkpt><trkpt lat="45.73977" lon="8.56974"><ele>208.0</ele><time>2026-03-22T14:54:59.369Z</time></trkpt><trkpt lat="45.739695" lon="8.5697983"><ele>208.0</ele><time>2026-03-22T14:55:00.369Z</time></trkpt><trkpt lat="45.7396167" lon="8.56987"><ele>208.0</ele><time>2026-03-22T14:55:01.37Z</time></trkpt><trkpt lat="45.7395333" lon="8.569935"><ele>208.0</ele><time>2026-03-22T14:55:02.369Z</time></trkpt><trkpt lat="45.7394517" lon="8.5700017"><ele>207.8</ele><time>2026-03-22T14:55:03.369Z</time></trkpt><trkpt lat="45.7393633" lon="8.5700683"><ele>207.60000000000002</ele><time>2026-03-22T14:55:04.369Z</time></trkpt><trkpt lat="45.73928" lon="8.5701433"><ele>207.39999999999998</ele><time>2026-03-22T14:55:05.369Z</time></trkpt><trkpt lat="45.73919" lon="8.570215"><ele>207.2</ele><time>2026-03-22T14:55:06.369Z</time></trkpt><trkpt lat="45.7390983" lon="8.5702917"><ele>207.0</ele><time>2026-03-22T14:55:07.369Z</time></trkpt><trkpt lat="45.739" lon="8.570375"><ele>207.5</ele><time>2026-03-22T14:55:08.369Z</time></trkpt><trkpt lat="45.7388983" lon="8.5704533"><ele>208.0</ele><time>2026-03-22T14:55:09.369Z</time></trkpt><trkpt lat="45.7387883" lon="8.570535"><ele>208.5</ele><time>2026-03-22T14:55:10.369Z</time></trkpt><trkpt lat="45.7386733" lon="8.570625"><ele>209.0</ele><time>2026-03-22T14:55:11.369Z</time></trkpt><trkpt lat="45.7385617" lon="8.5707117"><ele>208.6</ele><time>2026-03-22T14:55:12.369Z</time></trkpt><trkpt lat="45.7384533" lon="8.5708"><ele>208.2</ele><time>2026-03-22T14:55:13.369Z</time></trkpt><trkpt lat="45.738355" lon="8.5708717"><ele>207.79999999999998</ele><time>2026-03-22T14:55:14.369Z</time></trkpt><trkpt lat="45.7382633" lon="8.57095"><ele>207.39999999999998</ele><time>2026-03-22T14:55:15.369Z</time></trkpt><trkpt lat="45.73817" lon="8.5710267"><ele>207.0</ele><time>2026-03-22T14:55:16.369Z</time></trkpt><trkpt lat="45.7380667" lon="8.57111"><ele>207.25</ele><time>2026-03-22T14:55:17.369Z</time></trkpt><trkpt lat="45.73796" lon="8.5711917"><ele>207.5</ele><time>2026-03-22T14:55:18.369Z</time></trkpt><trkpt lat="45.73785" lon="8.5712833"><ele>207.75</ele><time>2026-03-22T14:55:19.369Z</time></trkpt><trkpt lat="45.737735" lon="8.5713733"><ele>208.0</ele><time>2026-03-22T14:55:20.369Z</time></trkpt><trkpt lat="45.7376217" lon="8.5714667"><ele>208.0</ele><time>2026-03-22T14:55:21.369Z</time></trkpt><trkpt lat="45.7375067" lon="8.5715567"><ele>208.0</ele><time>2026-03-22T14:55:22.369Z</time></trkpt><trkpt lat="45.7373883" lon="8.5716583"><ele>208.0</ele><time>2026-03-22T14:55:23.369Z</time></trkpt><trkpt lat="45.737275" lon="8.57175"><ele>208.0</ele><time>2026-03-22T14:55:24.369Z</time></trkpt><trkpt lat="45.737165" lon="8.57184"><ele>208.0</ele><time>2026-03-22T14:55:25.369Z</time></trkpt><trkpt lat="45.7370667" lon="8.57192"><ele>208.0</ele><time>2026-03-22T14:55:26.369Z</time></trkpt><trkpt lat="45.7369633" lon="8.5719917"><ele>208.0</ele><time>2026-03-22T14:55:27.369Z</time></trkpt><trkpt lat="45.7368683" lon="8.5720617"><ele>208.0</ele><time>2026-03-22T14:55:28.369Z</time></trkpt><trkpt lat="45.7367833" lon="8.57213"><ele>208.0</ele><time>2026-03-22T14:55:29.369Z</time></trkpt><trkpt lat="45.7367" lon="8.5721967"><ele>207.8</ele><time>2026-03-22T14:55:30.369Z</time></trkpt><trkpt lat="45.7366183" lon="8.5722583"><ele>207.60000000000002</ele><time>2026-03-22T14:55:31.369Z</time></trkpt><trkpt lat="45.7365367" lon="8.5723233"><ele>207.39999999999998</ele><time>2026-03-22T14:55:32.369Z</time></trkpt><trkpt lat="45.736455" lon="8.5723883"><ele>207.2</ele><time>2026-03-22T14:55:33.369Z</time></trkpt><trkpt lat="45.7363767" lon="8.5724483"><ele>207.0</ele><time>2026-03-22T14:55:34.369Z</time></trkpt><trkpt lat="45.7362967" lon="8.5725083"><ele>207.0</ele><time>2026-03-22T14:55:35.369Z</time></trkpt><trkpt lat="45.7362233" lon="8.572565"><ele>207.0</ele><time>2026-03-22T14:55:36.369Z</time></trkpt><trkpt lat="45.7361483" lon="8.5726283"><ele>207.0</ele><time>2026-03-22T14:55:37.369Z</time></trkpt><trkpt lat="45.7360667" lon="8.57269"><ele>207.0</ele><time>2026-03-22T14:55:38.369Z</time></trkpt><trkpt lat="45.7359883" lon="8.5727483"><ele>207.0</ele><time>2026-03-22T14:55:39.369Z</time></trkpt><trkpt lat="45.7359033" lon="8.57281"><ele>207.0</ele><time>2026-03-22T14:55:40.369Z</time></trkpt><trkpt lat="45.7358233" lon="8.5728817"><ele>207.16666666666666</ele><time>2026-03-22T14:55:41.369Z</time></trkpt><trkpt lat="45.735755" lon="8.5729383"><ele>207.33333333333331</ele><time>2026-03-22T14:55:42.369Z</time></trkpt><trkpt lat="45.7356883" lon="8.573"><ele>207.5</ele><time>2026-03-22T14:55:43.369Z</time></trkpt><trkpt lat="45.7356183" lon="8.57305"><ele>207.66666666666666</ele><time>2026-03-22T14:55:44.369Z</time></trkpt><trkpt lat="45.7355433" lon="8.5731017"><ele>207.83333333333331</ele><time>2026-03-22T14:55:45.369Z</time></trkpt><trkpt lat="45.7354717" lon="8.5731567"><ele>208.0</ele><time>2026-03-22T14:55:46.369Z</time></trkpt><trkpt lat="45.7353933" lon="8.573225"><ele>208.0</ele><time>2026-03-22T14:55:47.369Z</time></trkpt><trkpt lat="45.7353233" lon="8.5732783"><ele>208.0</ele><time>2026-03-22T14:55:48.369Z</time></trkpt><trkpt lat="45.7352567" lon="8.57332"><ele>208.0</ele><time>2026-03-22T14:55:49.369Z</time></trkpt><trkpt lat="45.7351617" lon="8.5734217"><ele>208.0</ele><time>2026-03-22T14:55:51.369Z</time></trkpt><trkpt lat="45.73508" lon="8.5735583"><ele>208.0</ele><time>2026-03-22T14:55:53.369Z</time></trkpt><trkpt lat="45.7350017" lon="8.57368"><ele>207.8</ele><time>2026-03-22T14:55:55.37Z</time></trkpt><trkpt lat="45.7349133" lon="8.5737317"><ele>207.60000000000002</ele><time>2026-03-22T14:55:57.369Z</time></trkpt><trkpt lat="45.7348133" lon="8.573745"><ele>207.39999999999998</ele><time>2026-03-22T14:55:59.369Z</time></trkpt><trkpt lat="45.7347283" lon="8.5737633"><ele>207.2</ele><time>2026-03-22T14:56:01.369Z</time></trkpt><trkpt lat="45.73464" lon="8.57383"><ele>207.0</ele><time>2026-03-22T14:56:03.369Z</time></trkpt><trkpt lat="45.73458" lon="8.5738817"><ele>207.0</ele><time>2026-03-22T14:56:04.369Z</time></trkpt><trkpt lat="45.7345033" lon="8.5739367"><ele>207.0</ele><time>2026-03-22T14:56:05.369Z</time></trkpt><trkpt lat="45.734435" lon="8.5739833"><ele>207.0</ele><time>2026-03-22T14:56:06.369Z</time></trkpt><trkpt lat="45.7343733" lon="8.5740283"><ele>207.0</ele><time>2026-03-22T14:56:07.369Z</time></trkpt><trkpt lat="45.7342783" lon="8.5741167"><ele>207.0</ele><time>2026-03-22T14:56:09.369Z</time></trkpt><trkpt lat="45.7341933" lon="8.5741933"><ele>207.0</ele><time>2026-03-22T14:56:11.369Z</time></trkpt><trkpt lat="45.734095" lon="8.574265"><ele>206.83333333333334</ele><time>2026-03-22T14:56:13.369Z</time></trkpt><trkpt lat="45.7339833" lon="8.5743517"><ele>206.66666666666669</ele><time>2026-03-22T14:56:15.369Z</time></trkpt><trkpt lat="45.73392" lon="8.574405"><ele>206.5</ele><time>2026-03-22T14:56:16.369Z</time></trkpt><trkpt lat="45.73385" lon="8.5744567"><ele>206.33333333333334</ele><time>2026-03-22T14:56:17.369Z</time></trkpt><trkpt lat="45.73378" lon="8.57451"><ele>206.16666666666669</ele><time>2026-03-22T14:56:18.369Z</time></trkpt><trkpt lat="45.73371" lon="8.5745667"><ele>206.0</ele><time>2026-03-22T14:56:19.369Z</time></trkpt><trkpt lat="45.7336367" lon="8.5746333"><ele>205.83333333333334</ele><time>2026-03-22T14:56:20.369Z</time></trkpt><trkpt lat="45.73356" lon="8.5746867"><ele>205.66666666666669</ele><time>2026-03-22T14:56:21.369Z</time></trkpt><trkpt lat="45.733485" lon="8.57474"><ele>205.5</ele><time>2026-03-22T14:56:22.369Z</time></trkpt><trkpt lat="45.73341" lon="8.5747933"><ele>205.33333333333331</ele><time>2026-03-22T14:56:23.369Z</time></trkpt><trkpt lat="45.73334" lon="8.574845"><ele>205.16666666666666</ele><time>2026-03-22T14:56:24.369Z</time></trkpt><trkpt lat="45.733275" lon="8.57489"><ele>205.0</ele><time>2026-03-22T14:56:25.369Z</time></trkpt><trkpt lat="45.7332167" lon="8.5749367"><ele>205.0</ele><time>2026-03-22T14:56:26.369Z</time></trkpt><trkpt lat="45.73315" lon="8.5749883"><ele>205.0</ele><time>2026-03-22T14:56:27.369Z</time></trkpt><trkpt lat="45.73308" lon="8.5750483"><ele>205.0</ele><time>2026-03-22T14:56:28.369Z</time></trkpt><trkpt lat="45.7329967" lon="8.575125"><ele>205.0</ele><time>2026-03-22T14:56:29.369Z</time></trkpt><trkpt lat="45.732905" lon="8.5751967"><ele>205.0</ele><time>2026-03-22T14:56:30.369Z</time></trkpt><trkpt lat="45.7328083" lon="8.5752667"><ele>205.2</ele><time>2026-03-22T14:56:31.369Z</time></trkpt><trkpt lat="45.73272" lon="8.5753333"><ele>205.4</ele><time>2026-03-22T14:56:32.369Z</time></trkpt><trkpt lat="45.7326367" lon="8.575395"><ele>205.60000000000002</ele><time>2026-03-22T14:56:33.369Z</time></trkpt><trkpt lat="45.7325583" lon="8.5754567"><ele>205.8</ele><time>2026-03-22T14:56:34.369Z</time></trkpt><trkpt lat="45.73248" lon="8.5755167"><ele>206.0</ele><time>2026-03-22T14:56:35.369Z</time></trkpt><trkpt lat="45.7324" lon="8.5755717"><ele>205.60000000000002</ele><time>2026-03-22T14:56:36.369Z</time></trkpt><trkpt lat="45.7323217" lon="8.57563"><ele>205.2</ele><time>2026-03-22T14:56:37.369Z</time></trkpt><trkpt lat="45.7322383" lon="8.5756967"><ele>204.8</ele><time>2026-03-22T14:56:38.369Z</time></trkpt><trkpt lat="45.7321533" lon="8.575755"><ele>204.39999999999998</ele><time>2026-03-22T14:56:39.369Z</time></trkpt><trkpt lat="45.7320733" lon="8.57582"><ele>204.0</ele><time>2026-03-22T14:56:40.369Z</time></trkpt><trkpt lat="45.7319967" lon="8.5758817"><ele>204.0</ele><time>2026-03-22T14:56:41.369Z</time></trkpt><trkpt lat="45.7319217" lon="8.5759433"><ele>204.0</ele><time>2026-03-22T14:56:42.369Z</time></trkpt><trkpt lat="45.7318417" lon="8.5760117"><ele>204.0</ele><time>2026-03-22T14:56:43.369Z</time></trkpt><trkpt lat="45.7317667" lon="8.5760767"><ele>204.0</ele><time>2026-03-22T14:56:44.369Z</time></trkpt><trkpt lat="45.7316867" lon="8.576145"><ele>204.0</ele><time>2026-03-22T14:56:45.369Z</time></trkpt><trkpt lat="45.73161" lon="8.5762067"><ele>204.0</ele><time>2026-03-22T14:56:46.369Z</time></trkpt><trkpt lat="45.7315283" lon="8.5762783"><ele>203.66666666666666</ele><time>2026-03-22T14:56:47.369Z</time></trkpt><trkpt lat="45.7314467" lon="8.5763333"><ele>203.33333333333331</ele><time>2026-03-22T14:56:48.369Z</time></trkpt><trkpt lat="45.7313617" lon="8.576385"><ele>203.0</ele><time>2026-03-22T14:56:49.369Z</time></trkpt><trkpt lat="45.731275" lon="8.5764383"><ele>202.66666666666666</ele><time>2026-03-22T14:56:50.369Z</time></trkpt><trkpt lat="45.731205" lon="8.5764917"><ele>202.33333333333331</ele><time>2026-03-22T14:56:51.369Z</time></trkpt><trkpt lat="45.7311417" lon="8.5765467"><ele>202.0</ele><time>2026-03-22T14:56:52.369Z</time></trkpt><trkpt lat="45.7310433" lon="8.5766383"><ele>202.0</ele><time>2026-03-22T14:56:54.369Z</time></trkpt><trkpt lat="45.7309283" lon="8.5767183"><ele>202.0</ele><time>2026-03-22T14:56:56.369Z</time></trkpt><trkpt lat="45.730835" lon="8.576785"><ele>202.0</ele><time>2026-03-22T14:56:58.369Z</time></trkpt><trkpt lat="45.7307467" lon="8.5768067"><ele>202.0</ele><time>2026-03-22T14:57:00.369Z</time></trkpt><trkpt lat="45.7306583" lon="8.576785"><ele>202.0</ele><time>2026-03-22T14:57:02.369Z</time></trkpt><trkpt lat="45.7305667" lon="8.576815"><ele>201.99999999999997</ele><time>2026-03-22T14:57:04.369Z</time></trkpt><trkpt lat="45.7304983" lon="8.57692"><ele>202.0</ele><time>2026-03-22T14:57:06.369Z</time></trkpt><trkpt lat="45.7304717" lon="8.577005"><ele>202.0</ele><time>2026-03-22T14:57:07.369Z</time></trkpt><trkpt lat="45.7304317" lon="8.5770917"><ele>202.0</ele><time>2026-03-22T14:57:08.369Z</time></trkpt><trkpt lat="45.7303683" lon="8.577175"><ele>201.99999999999997</ele><time>2026-03-22T14:57:09.369Z</time></trkpt><trkpt lat="45.7302917" lon="8.5772433"><ele>202.0</ele><time>2026-03-22T14:57:10.369Z</time></trkpt><trkpt lat="45.7302017" lon="8.5773267"><ele>202.5</ele><time>2026-03-22T14:57:11.369Z</time></trkpt><trkpt lat="45.7300917" lon="8.5774117"><ele>203.0</ele><time>2026-03-22T14:57:12.369Z</time></trkpt><trkpt lat="45.72997" lon="8.5775083"><ele>203.5</ele><time>2026-03-22T14:57:13.369Z</time></trkpt><trkpt lat="45.7298483" lon="8.5776017"><ele>204.0</ele><time>2026-03-22T14:57:14.369Z</time></trkpt><trkpt lat="45.7297317" lon="8.5776917"><ele>204.0</ele><time>2026-03-22T14:57:15.369Z</time></trkpt><trkpt lat="45.7296067" lon="8.57778"><ele>204.0</ele><time>2026-03-22T14:57:16.369Z</time></trkpt><trkpt lat="45.729485" lon="8.5778683"><ele>204.0</ele><time>2026-03-22T14:57:17.369Z</time></trkpt><trkpt lat="45.7293667" lon="8.577965"><ele>204.0</ele><time>2026-03-22T14:57:18.369Z</time></trkpt><trkpt lat="45.729255" lon="8.57805"><ele>204.0</ele><time>2026-03-22T14:57:19.369Z</time></trkpt><trkpt lat="45.72915" lon="8.5781333"><ele>204.0</ele><time>2026-03-22T14:57:20.369Z</time></trkpt><trkpt lat="45.7290533" lon="8.5782133"><ele>204.0</ele><time>2026-03-22T14:57:21.369Z</time></trkpt><trkpt lat="45.72896" lon="8.5782867"><ele>204.0</ele><time>2026-03-22T14:57:22.369Z</time></trkpt><trkpt lat="45.72887" lon="8.578365"><ele>204.0</ele><time>2026-03-22T14:57:23.369Z</time></trkpt><trkpt lat="45.7287867" lon="8.5784317"><ele>204.0</ele><time>2026-03-22T14:57:24.369Z</time></trkpt><trkpt lat="45.7286967" lon="8.5785017"><ele>204.0</ele><time>2026-03-22T14:57:25.369Z</time></trkpt><trkpt lat="45.7286083" lon="8.5785717"><ele>204.0</ele><time>2026-03-22T14:57:26.369Z</time></trkpt><trkpt lat="45.7285083" lon="8.57865"><ele>204.0</ele><time>2026-03-22T14:57:27.369Z</time></trkpt><trkpt lat="45.7284033" lon="8.5787433"><ele>204.0</ele><time>2026-03-22T14:57:28.369Z</time></trkpt><trkpt lat="45.7282933" lon="8.5788367"><ele>203.75</ele><time>2026-03-22T14:57:29.369Z</time></trkpt><trkpt lat="45.7281767" lon="8.5789367"><ele>203.5</ele><time>2026-03-22T14:57:30.369Z</time></trkpt><trkpt lat="45.7280683" lon="8.5790233"><ele>203.25</ele><time>2026-03-22T14:57:31.369Z</time></trkpt><trkpt lat="45.727975" lon="8.5790983"><ele>203.0</ele><time>2026-03-22T14:57:32.369Z</time></trkpt><trkpt lat="45.727885" lon="8.5791683"><ele>203.00000000000003</ele><time>2026-03-22T14:57:33.369Z</time></trkpt><trkpt lat="45.7278167" lon="8.5792267"><ele>203.0</ele><time>2026-03-22T14:57:34.369Z</time></trkpt><trkpt lat="45.7277583" lon="8.5792733"><ele>203.0</ele><time>2026-03-22T14:57:36.369Z</time></trkpt><trkpt lat="45.7276883" lon="8.57931"><ele>203.0</ele><time>2026-03-22T14:57:40.369Z</time></trkpt><trkpt lat="45.72762" lon="8.5793467"><ele>203.00000000000003</ele><time>2026-03-22T14:57:42.369Z</time></trkpt><trkpt lat="45.727545" lon="8.5794083"><ele>203.0</ele><time>2026-03-22T14:57:44.369Z</time></trkpt><trkpt lat="45.7274483" lon="8.5794967"><ele>202.66666666666669</ele><time>2026-03-22T14:57:46.369Z</time></trkpt><trkpt lat="45.7273867" lon="8.5795433"><ele>202.33333333333334</ele><time>2026-03-22T14:57:47.369Z</time></trkpt><trkpt lat="45.727315" lon="8.579595"><ele>202.0</ele><time>2026-03-22T14:57:48.369Z</time></trkpt><trkpt lat="45.7272317" lon="8.57965"><ele>201.66666666666669</ele><time>2026-03-22T14:57:49.369Z</time></trkpt><trkpt lat="45.7271483" lon="8.57971"><ele>201.33333333333334</ele><time>2026-03-22T14:57:50.369Z</time></trkpt><trkpt lat="45.7270633" lon="8.5797767"><ele>201.0</ele><time>2026-03-22T14:57:51.369Z</time></trkpt><trkpt lat="45.7269733" lon="8.57985"><ele>201.20000000000002</ele><time>2026-03-22T14:57:52.369Z</time></trkpt><trkpt lat="45.72688" lon="8.5799267"><ele>201.4</ele><time>2026-03-22T14:57:53.369Z</time></trkpt><trkpt lat="45.7267883" lon="8.5799983"><ele>201.6</ele><time>2026-03-22T14:57:54.369Z</time></trkpt><trkpt lat="45.7266933" lon="8.5800683"><ele>201.8</ele><time>2026-03-22T14:57:55.369Z</time></trkpt><trkpt lat="45.7265933" lon="8.5801433"><ele>202.0</ele><time>2026-03-22T14:57:56.369Z</time></trkpt><trkpt lat="45.726495" lon="8.5802217"><ele>202.0</ele><time>2026-03-22T14:57:57.369Z</time></trkpt><trkpt lat="45.7263967" lon="8.5803"><ele>202.0</ele><time>2026-03-22T14:57:58.369Z</time></trkpt><trkpt lat="45.7263" lon="8.5803767"><ele>202.0</ele><time>2026-03-22T14:57:59.369Z</time></trkpt><trkpt lat="45.726205" lon="8.5804483"><ele>202.0</ele><time>2026-03-22T14:58:00.369Z</time></trkpt><trkpt lat="45.7261233" lon="8.58052"><ele>202.0</ele><time>2026-03-22T14:58:01.369Z</time></trkpt><trkpt lat="45.7260383" lon="8.58059"><ele>202.2</ele><time>2026-03-22T14:58:02.369Z</time></trkpt><trkpt lat="45.7259533" lon="8.58065"><ele>202.39999999999998</ele><time>2026-03-22T14:58:03.369Z</time></trkpt><trkpt lat="45.7258733" lon="8.5807183"><ele>202.60000000000002</ele><time>2026-03-22T14:58:04.369Z</time></trkpt><trkpt lat="45.7257867" lon="8.5807967"><ele>202.8</ele><time>2026-03-22T14:58:05.369Z</time></trkpt><trkpt lat="45.72569" lon="8.5808633"><ele>203.0</ele><time>2026-03-22T14:58:06.369Z</time></trkpt><trkpt lat="45.7255967" lon="8.5809317"><ele>203.0</ele><time>2026-03-22T14:58:07.369Z</time></trkpt><trkpt lat="45.7255033" lon="8.5810233"><ele>203.0</ele><time>2026-03-22T14:58:08.369Z</time></trkpt><trkpt lat="45.7254133" lon="8.5811"><ele>203.0</ele><time>2026-03-22T14:58:09.369Z</time></trkpt><trkpt lat="45.7253133" lon="8.58119"><ele>203.0</ele><time>2026-03-22T14:58:10.369Z</time></trkpt><trkpt lat="45.7252133" lon="8.5812983"><ele>202.33333333333334</ele><time>2026-03-22T14:58:11.369Z</time></trkpt><trkpt lat="45.72507" lon="8.5814133"><ele>201.66666666666669</ele><time>2026-03-22T14:58:12.369Z</time></trkpt><trkpt lat="45.724935" lon="8.5815183"><ele>201.0</ele><time>2026-03-22T14:58:13.369Z</time></trkpt><trkpt lat="45.724785" lon="8.5816317"><ele>201.0</ele><time>2026-03-22T14:58:14.369Z</time></trkpt><trkpt lat="45.7246417" lon="8.5817383"><ele>201.0</ele><time>2026-03-22T14:58:15.369Z</time></trkpt><trkpt lat="45.7245017" lon="8.5818283"><ele>201.0</ele><time>2026-03-22T14:58:16.369Z</time></trkpt><trkpt lat="45.72437" lon="8.5819267"><ele>200.66666666666669</ele><time>2026-03-22T14:58:17.369Z</time></trkpt><trkpt lat="45.724235" lon="8.5820283"><ele>200.33333333333334</ele><time>2026-03-22T14:58:18.369Z</time></trkpt><trkpt lat="45.7240983" lon="8.5821317"><ele>200.0</ele><time>2026-03-22T14:58:19.369Z</time></trkpt><trkpt lat="45.72396" lon="8.58224"><ele>200.0</ele><time>2026-03-22T14:58:20.369Z</time></trkpt><trkpt lat="45.7238183" lon="8.58236"><ele>200.0</ele><time>2026-03-22T14:58:21.369Z</time></trkpt><trkpt lat="45.723665" lon="8.5824833"><ele>200.0</ele><time>2026-03-22T14:58:22.369Z</time></trkpt><trkpt lat="45.7235017" lon="8.582615"><ele>200.66666666666669</ele><time>2026-03-22T14:58:23.369Z</time></trkpt><trkpt lat="45.7233333" lon="8.5827517"><ele>201.33333333333331</ele><time>2026-03-22T14:58:24.369Z</time></trkpt><trkpt lat="45.723155" lon="8.5828833"><ele>202.0</ele><time>2026-03-22T14:58:25.369Z</time></trkpt><trkpt lat="45.72299" lon="8.583005"><ele>202.0</ele><time>2026-03-22T14:58:26.369Z</time></trkpt><trkpt lat="45.72283" lon="8.583125"><ele>202.0</ele><time>2026-03-22T14:58:27.369Z</time></trkpt><trkpt lat="45.7226867" lon="8.5832367"><ele>202.0</ele><time>2026-03-22T14:58:28.369Z</time></trkpt><trkpt lat="45.72254" lon="8.5833467"><ele>202.33333333333331</ele><time>2026-03-22T14:58:29.369Z</time></trkpt><trkpt lat="45.7224017" lon="8.5834583"><ele>202.66666666666669</ele><time>2026-03-22T14:58:30.369Z</time></trkpt><trkpt lat="45.7222733" lon="8.583565"><ele>203.0</ele><time>2026-03-22T14:58:31.369Z</time></trkpt><trkpt lat="45.7221467" lon="8.5836683"><ele>202.33333333333334</ele><time>2026-03-22T14:58:32.369Z</time></trkpt><trkpt lat="45.7220117" lon="8.58377"><ele>201.66666666666669</ele><time>2026-03-22T14:58:33.369Z</time></trkpt><trkpt lat="45.72188" lon="8.58388"><ele>201.0</ele><time>2026-03-22T14:58:34.369Z</time></trkpt><trkpt lat="45.7217467" lon="8.5839933"><ele>201.0</ele><time>2026-03-22T14:58:35.369Z</time></trkpt><trkpt lat="45.7216083" lon="8.584095"><ele>201.0</ele><time>2026-03-22T14:58:36.369Z</time></trkpt><trkpt lat="45.72147" lon="8.5842067"><ele>201.0</ele><time>2026-03-22T14:58:37.369Z</time></trkpt><trkpt lat="45.7213417" lon="8.58432"><ele>201.0</ele><time>2026-03-22T14:58:38.369Z</time></trkpt><trkpt lat="45.7212167" lon="8.5844183"><ele>201.0</ele><time>2026-03-22T14:58:39.369Z</time></trkpt><trkpt lat="45.7211067" lon="8.5845283"><ele>201.0</ele><time>2026-03-22T14:58:40.369Z</time></trkpt><trkpt lat="45.7209983" lon="8.584635"><ele>201.0</ele><time>2026-03-22T14:58:41.369Z</time></trkpt><trkpt lat="45.7208883" lon="8.5847417"><ele>201.25</ele><time>2026-03-22T14:58:42.369Z</time></trkpt><trkpt lat="45.7207733" lon="8.5848483"><ele>201.5</ele><time>2026-03-22T14:58:43.369Z</time></trkpt><trkpt lat="45.7206567" lon="8.5849533"><ele>201.75</ele><time>2026-03-22T14:58:44.369Z</time></trkpt><trkpt lat="45.7205383" lon="8.5850567"><ele>202.0</ele><time>2026-03-22T14:58:45.369Z</time></trkpt><trkpt lat="45.720435" lon="8.58517"><ele>202.0</ele><time>2026-03-22T14:58:46.369Z</time></trkpt><trkpt lat="45.7203283" lon="8.58529"><ele>202.0</ele><time>2026-03-22T14:58:47.369Z</time></trkpt><trkpt lat="45.72022" lon="8.5854083"><ele>202.0</ele><time>2026-03-22T14:58:48.369Z</time></trkpt><trkpt lat="45.720125" lon="8.5855317"><ele>202.0</ele><time>2026-03-22T14:58:49.369Z</time></trkpt><trkpt lat="45.7200283" lon="8.585635"><ele>201.99999999999997</ele><time>2026-03-22T14:58:50.369Z</time></trkpt><trkpt lat="45.71994" lon="8.5857233"><ele>202.0</ele><time>2026-03-22T14:58:51.369Z</time></trkpt><trkpt lat="45.71986" lon="8.5857983"><ele>202.0</ele><time>2026-03-22T14:58:52.369Z</time></trkpt><trkpt lat="45.7197967" lon="8.58587"><ele>202.0</ele><time>2026-03-22T14:58:53.369Z</time></trkpt><trkpt lat="45.7197467" lon="8.5859617"><ele>201.99999999999997</ele><time>2026-03-22T14:58:54.369Z</time></trkpt><trkpt lat="45.7197167" lon="8.586065"><ele>202.0</ele><time>2026-03-22T14:58:55.369Z</time></trkpt><trkpt lat="45.7197217" lon="8.5861783"><ele>202.2</ele><time>2026-03-22T14:58:56.369Z</time></trkpt><trkpt lat="45.7197633" lon="8.5862833"><ele>202.39999999999998</ele><time>2026-03-22T14:58:57.369Z</time></trkpt><trkpt lat="45.7198267" lon="8.5863967"><ele>202.60000000000002</ele><time>2026-03-22T14:58:58.369Z</time></trkpt><trkpt lat="45.7198833" lon="8.5865217"><ele>202.8</ele><time>2026-03-22T14:58:59.369Z</time></trkpt><trkpt lat="45.71992" lon="8.5866583"><ele>203.0</ele><time>2026-03-22T14:59:00.369Z</time></trkpt><trkpt lat="45.7199417" lon="8.5868033"><ele>203.0</ele><time>2026-03-22T14:59:01.369Z</time></trkpt><trkpt lat="45.7199367" lon="8.586975"><ele>203.0</ele><time>2026-03-22T14:59:02.369Z</time></trkpt><trkpt lat="45.7199267" lon="8.5871933"><ele>203.0</ele><time>2026-03-22T14:59:03.369Z</time></trkpt><trkpt lat="45.7199183" lon="8.5874467"><ele>203.33333333333334</ele><time>2026-03-22T14:59:04.369Z</time></trkpt><trkpt lat="45.7199083" lon="8.5877233"><ele>203.66666666666669</ele><time>2026-03-22T14:59:05.369Z</time></trkpt><trkpt lat="45.7198983" lon="8.5880217"><ele>204.0</ele><time>2026-03-22T14:59:06.369Z</time></trkpt><trkpt lat="45.7198817" lon="8.588325"><ele>204.0</ele><time>2026-03-22T14:59:07.369Z</time></trkpt><trkpt lat="45.7198667" lon="8.588635"><ele>204.0</ele><time>2026-03-22T14:59:08.369Z</time></trkpt><trkpt lat="45.7198433" lon="8.588935"><ele>204.0</ele><time>2026-03-22T14:59:09.369Z</time></trkpt><trkpt lat="45.7198233" lon="8.5892183"><ele>204.0</ele><time>2026-03-22T14:59:10.369Z</time></trkpt><trkpt lat="45.719805" lon="8.589485"><ele>204.0</ele><time>2026-03-22T14:59:11.369Z</time></trkpt><trkpt lat="45.7197833" lon="8.58975"><ele>204.0</ele><time>2026-03-22T14:59:12.369Z</time></trkpt><trkpt lat="45.7197633" lon="8.59"><ele>204.0</ele><time>2026-03-22T14:59:13.369Z</time></trkpt><trkpt lat="45.7197383" lon="8.5902283"><ele>204.0</ele><time>2026-03-22T14:59:14.369Z</time></trkpt><trkpt lat="45.7197017" lon="8.5903967"><ele>204.0</ele><time>2026-03-22T14:59:15.369Z</time></trkpt><trkpt lat="45.719665" lon="8.59052"><ele>204.0</ele><time>2026-03-22T14:59:16.369Z</time></trkpt><trkpt lat="45.7196317" lon="8.590605"><ele>204.0</ele><time>2026-03-22T14:59:17.369Z</time></trkpt><trkpt lat="45.7195317" lon="8.5907417"><ele>204.0</ele><time>2026-03-22T14:59:19.369Z</time></trkpt><trkpt lat="45.7194783" lon="8.5908483"><ele>204.0</ele><time>2026-03-22T14:59:20.369Z</time></trkpt><trkpt lat="45.7194433" lon="8.5909683"><ele>204.0</ele><time>2026-03-22T14:59:21.369Z</time></trkpt><trkpt lat="45.71945" lon="8.5910867"><ele>204.0</ele><time>2026-03-22T14:59:22.369Z</time></trkpt><trkpt lat="45.719495" lon="8.5912017"><ele>204.0</ele><time>2026-03-22T14:59:23.369Z</time></trkpt><trkpt lat="45.7195567" lon="8.5913117"><ele>204.33333333333334</ele><time>2026-03-22T14:59:24.369Z</time></trkpt><trkpt lat="45.7196033" lon="8.59142"><ele>204.66666666666669</ele><time>2026-03-22T14:59:25.369Z</time></trkpt><trkpt lat="45.7196367" lon="8.5915217"><ele>205.0</ele><time>2026-03-22T14:59:26.369Z</time></trkpt><trkpt lat="45.719655" lon="8.59163"><ele>205.33333333333334</ele><time>2026-03-22T14:59:27.369Z</time></trkpt><trkpt lat="45.719665" lon="8.5917467"><ele>205.66666666666669</ele><time>2026-03-22T14:59:28.369Z</time></trkpt><trkpt lat="45.7196667" lon="8.591885"><ele>206.0</ele><time>2026-03-22T14:59:29.369Z</time></trkpt><trkpt lat="45.71967" lon="8.5920317"><ele>206.20000000000002</ele><time>2026-03-22T14:59:30.369Z</time></trkpt><trkpt lat="45.71967" lon="8.5921767"><ele>206.4</ele><time>2026-03-22T14:59:31.369Z</time></trkpt><trkpt lat="45.7196683" lon="8.59231"><ele>206.6</ele><time>2026-03-22T14:59:32.369Z</time></trkpt><trkpt lat="45.7196667" lon="8.5924517"><ele>206.8</ele><time>2026-03-22T14:59:33.369Z</time></trkpt><trkpt lat="45.7196583" lon="8.5926083"><ele>207.0</ele><time>2026-03-22T14:59:34.369Z</time></trkpt><trkpt lat="45.7196483" lon="8.5927717"><ele>206.5</ele><time>2026-03-22T14:59:35.369Z</time></trkpt><trkpt lat="45.7196333" lon="8.5929383"><ele>206.0</ele><time>2026-03-22T14:59:36.369Z</time></trkpt><trkpt lat="45.71962" lon="8.5931183"><ele>205.5</ele><time>2026-03-22T14:59:37.369Z</time></trkpt><trkpt lat="45.719605" lon="8.5932917"><ele>205.0</ele><time>2026-03-22T14:59:38.369Z</time></trkpt><trkpt lat="45.7195933" lon="8.593465"><ele>205.0</ele><time>2026-03-22T14:59:39.369Z</time></trkpt><trkpt lat="45.7195733" lon="8.5936317"><ele>205.0</ele><time>2026-03-22T14:59:40.369Z</time></trkpt><trkpt lat="45.7195683" lon="8.593775"><ele>205.0</ele><time>2026-03-22T14:59:41.369Z</time></trkpt><trkpt lat="45.7195617" lon="8.5939217"><ele>205.0</ele><time>2026-03-22T14:59:42.369Z</time></trkpt><trkpt lat="45.7195517" lon="8.5940733"><ele>205.0</ele><time>2026-03-22T14:59:43.369Z</time></trkpt><trkpt lat="45.7195417" lon="8.5942267"><ele>205.0</ele><time>2026-03-22T14:59:44.369Z</time></trkpt><trkpt lat="45.71953" lon="8.5944"><ele>205.0</ele><time>2026-03-22T14:59:45.369Z</time></trkpt><trkpt lat="45.7195217" lon="8.5945867"><ele>205.0</ele><time>2026-03-22T14:59:46.369Z</time></trkpt><trkpt lat="45.7195033" lon="8.594795"><ele>205.0</ele><time>2026-03-22T14:59:47.369Z</time></trkpt><trkpt lat="45.7194817" lon="8.595"><ele>205.0</ele><time>2026-03-22T14:59:48.369Z</time></trkpt><trkpt lat="45.7194667" lon="8.59521"><ele>205.0</ele><time>2026-03-22T14:59:49.369Z</time></trkpt><trkpt lat="45.719455" lon="8.5954167"><ele>205.0</ele><time>2026-03-22T14:59:50.369Z</time></trkpt><trkpt lat="45.71944" lon="8.5956117"><ele>205.0</ele><time>2026-03-22T14:59:51.369Z</time></trkpt><trkpt lat="45.719425" lon="8.595805"><ele>205.0</ele><time>2026-03-22T14:59:52.369Z</time></trkpt><trkpt lat="45.71941" lon="8.595995"><ele>205.0</ele><time>2026-03-22T14:59:53.369Z</time></trkpt><trkpt lat="45.7194017" lon="8.5961867"><ele>205.0</ele><time>2026-03-22T14:59:54.369Z</time></trkpt><trkpt lat="45.7193867" lon="8.5963883"><ele>205.0</ele><time>2026-03-22T14:59:55.369Z</time></trkpt><trkpt lat="45.7193817" lon="8.5966083"><ele>204.33333333333331</ele><time>2026-03-22T14:59:56.369Z</time></trkpt><trkpt lat="45.7193683" lon="8.5968417"><ele>203.66666666666669</ele><time>2026-03-22T14:59:57.369Z</time></trkpt><trkpt lat="45.7193567" lon="8.5970867"><ele>203.0</ele><time>2026-03-22T14:59:58.369Z</time></trkpt><trkpt lat="45.7193483" lon="8.597325"><ele>203.0</ele><time>2026-03-22T14:59:59.369Z</time></trkpt><trkpt lat="45.7193467" lon="8.597565"><ele>203.0</ele><time>2026-03-22T15:00:00.369Z</time></trkpt><trkpt lat="45.7193467" lon="8.5978017"><ele>203.0</ele><time>2026-03-22T15:00:01.369Z</time></trkpt><trkpt lat="45.7193467" lon="8.5980433"><ele>202.75</ele><time>2026-03-22T15:00:02.369Z</time></trkpt><trkpt lat="45.719345" lon="8.5982733"><ele>202.5</ele><time>2026-03-22T15:00:03.369Z</time></trkpt><trkpt lat="45.719345" lon="8.598485"><ele>202.25</ele><time>2026-03-22T15:00:04.369Z</time></trkpt><trkpt lat="45.7193433" lon="8.598685"><ele>202.0</ele><time>2026-03-22T15:00:05.369Z</time></trkpt><trkpt lat="45.719345" lon="8.598875"><ele>201.75</ele><time>2026-03-22T15:00:06.369Z</time></trkpt><trkpt lat="45.7193483" lon="8.5990717"><ele>201.5</ele><time>2026-03-22T15:00:07.369Z</time></trkpt><trkpt lat="45.7193517" lon="8.5992717"><ele>201.25</ele><time>2026-03-22T15:00:08.369Z</time></trkpt><trkpt lat="45.719355" lon="8.59948"><ele>201.0</ele><time>2026-03-22T15:00:09.369Z</time></trkpt><trkpt lat="45.7193583" lon="8.59969"><ele>200.75</ele><time>2026-03-22T15:00:10.369Z</time></trkpt><trkpt lat="45.71936" lon="8.59991"><ele>200.5</ele><time>2026-03-22T15:00:11.369Z</time></trkpt><trkpt lat="45.719365" lon="8.6001067"><ele>200.25</ele><time>2026-03-22T15:00:12.369Z</time></trkpt><trkpt lat="45.7193617" lon="8.6002933"><ele>200.0</ele><time>2026-03-22T15:00:13.369Z</time></trkpt><trkpt lat="45.71936" lon="8.6004767"><ele>200.75</ele><time>2026-03-22T15:00:14.369Z</time></trkpt><trkpt lat="45.7193633" lon="8.6006567"><ele>201.5</ele><time>2026-03-22T15:00:15.369Z</time></trkpt><trkpt lat="45.7193717" lon="8.6008367"><ele>202.25</ele><time>2026-03-22T15:00:16.369Z</time></trkpt><trkpt lat="45.7193733" lon="8.6010033"><ele>203.0</ele><time>2026-03-22T15:00:17.369Z</time></trkpt><trkpt lat="45.7193783" lon="8.6011533"><ele>203.5</ele><time>2026-03-22T15:00:18.369Z</time></trkpt><trkpt lat="45.7193833" lon="8.6013067"><ele>204.0</ele><time>2026-03-22T15:00:19.369Z</time></trkpt><trkpt lat="45.7193917" lon="8.6014767"><ele>204.5</ele><time>2026-03-22T15:00:20.369Z</time></trkpt><trkpt lat="45.719395" lon="8.6016567"><ele>205.0</ele><time>2026-03-22T15:00:21.369Z</time></trkpt><trkpt lat="45.719395" lon="8.6018233"><ele>204.99999999999997</ele><time>2026-03-22T15:00:22.369Z</time></trkpt><trkpt lat="45.7193967" lon="8.601985"><ele>205.0</ele><time>2026-03-22T15:00:23.369Z</time></trkpt><trkpt lat="45.7193967" lon="8.6021283"><ele>205.0</ele><time>2026-03-22T15:00:24.369Z</time></trkpt><trkpt lat="45.7194033" lon="8.6022467"><ele>205.0</ele><time>2026-03-22T15:00:25.369Z</time></trkpt><trkpt lat="45.71942" lon="8.6023583"><ele>204.99999999999997</ele><time>2026-03-22T15:00:26.369Z</time></trkpt><trkpt lat="45.7194233" lon="8.602455"><ele>205.0</ele><time>2026-03-22T15:00:27.369Z</time></trkpt><trkpt lat="45.7194283" lon="8.60257"><ele>205.16666666666666</ele><time>2026-03-22T15:00:28.369Z</time></trkpt><trkpt lat="45.71943" lon="8.6026833"><ele>205.33333333333331</ele><time>2026-03-22T15:00:29.369Z</time></trkpt><trkpt lat="45.7194333" lon="8.6027883"><ele>205.5</ele><time>2026-03-22T15:00:30.369Z</time></trkpt><trkpt lat="45.71944" lon="8.6028833"><ele>205.66666666666669</ele><time>2026-03-22T15:00:31.369Z</time></trkpt><trkpt lat="45.7194417" lon="8.6030383"><ele>205.83333333333334</ele><time>2026-03-22T15:00:33.369Z</time></trkpt><trkpt lat="45.7194133" lon="8.6032017"><ele>206.0</ele><time>2026-03-22T15:00:35.369Z</time></trkpt><trkpt lat="45.7194017" lon="8.6033617"><ele>206.20000000000002</ele><time>2026-03-22T15:00:37.369Z</time></trkpt><trkpt lat="45.7194217" lon="8.60346"><ele>206.4</ele><time>2026-03-22T15:00:38.369Z</time></trkpt><trkpt lat="45.7194433" lon="8.6036017"><ele>206.6</ele><time>2026-03-22T15:00:39.369Z</time></trkpt><trkpt lat="45.7194517" lon="8.6037667"><ele>206.8</ele><time>2026-03-22T15:00:40.369Z</time></trkpt><trkpt lat="45.7194317" lon="8.6039667"><ele>207.0</ele><time>2026-03-22T15:00:41.369Z</time></trkpt><trkpt lat="45.7194267" lon="8.6041917"><ele>207.33333333333331</ele><time>2026-03-22T15:00:42.369Z</time></trkpt><trkpt lat="45.719435" lon="8.6044533"><ele>207.66666666666666</ele><time>2026-03-22T15:00:43.369Z</time></trkpt><trkpt lat="45.7194433" lon="8.6047167"><ele>208.0</ele><time>2026-03-22T15:00:44.369Z</time></trkpt><trkpt lat="45.7194483" lon="8.6049933"><ele>209.0</ele><time>2026-03-22T15:00:45.369Z</time></trkpt><trkpt lat="45.7194633" lon="8.6052683"><ele>210.0</ele><time>2026-03-22T15:00:46.369Z</time></trkpt><trkpt lat="45.7194633" lon="8.6055483"><ele>211.0</ele><time>2026-03-22T15:00:47.369Z</time></trkpt><trkpt lat="45.7194633" lon="8.6058183"><ele>211.33333333333331</ele><time>2026-03-22T15:00:48.369Z</time></trkpt><trkpt lat="45.71947" lon="8.6060683"><ele>211.66666666666669</ele><time>2026-03-22T15:00:49.369Z</time></trkpt><trkpt lat="45.719475" lon="8.6063117"><ele>212.0</ele><time>2026-03-22T15:00:50.369Z</time></trkpt><trkpt lat="45.7194867" lon="8.6065317"><ele>212.0</ele><time>2026-03-22T15:00:51.369Z</time></trkpt><trkpt lat="45.7195" lon="8.6067433"><ele>212.0</ele><time>2026-03-22T15:00:52.369Z</time></trkpt><trkpt lat="45.7195067" lon="8.6069517"><ele>212.0</ele><time>2026-03-22T15:00:53.369Z</time></trkpt><trkpt lat="45.71951" lon="8.6071717"><ele>212.0</ele><time>2026-03-22T15:00:54.369Z</time></trkpt><trkpt lat="45.7195117" lon="8.6073983"><ele>212.33333333333334</ele><time>2026-03-22T15:00:55.369Z</time></trkpt><trkpt lat="45.719515" lon="8.6076217"><ele>212.66666666666669</ele><time>2026-03-22T15:00:56.369Z</time></trkpt><trkpt lat="45.7195233" lon="8.6078383"><ele>213.0</ele><time>2026-03-22T15:00:57.369Z</time></trkpt><trkpt lat="45.71953" lon="8.6080533"><ele>213.0</ele><time>2026-03-22T15:00:58.369Z</time></trkpt><trkpt lat="45.719535" lon="8.6082733"><ele>213.0</ele><time>2026-03-22T15:00:59.369Z</time></trkpt><trkpt lat="45.7195367" lon="8.6084767"><ele>213.0</ele><time>2026-03-22T15:01:00.369Z</time></trkpt><trkpt lat="45.7195433" lon="8.6086767"><ele>213.0</ele><time>2026-03-22T15:01:01.369Z</time></trkpt><trkpt lat="45.7195483" lon="8.6088717"><ele>212.25</ele><time>2026-03-22T15:01:02.369Z</time></trkpt><trkpt lat="45.7195517" lon="8.6090633"><ele>211.5</ele><time>2026-03-22T15:01:03.369Z</time></trkpt><trkpt lat="45.719555" lon="8.609255"><ele>210.75</ele><time>2026-03-22T15:01:04.369Z</time></trkpt><trkpt lat="45.7195583" lon="8.6094367"><ele>210.0</ele><time>2026-03-22T15:01:05.369Z</time></trkpt><trkpt lat="45.7195583" lon="8.6096217"><ele>209.75</ele><time>2026-03-22T15:01:06.369Z</time></trkpt><trkpt lat="45.71956" lon="8.60981"><ele>209.5</ele><time>2026-03-22T15:01:07.369Z</time></trkpt><trkpt lat="45.71956" lon="8.6099867"><ele>209.25</ele><time>2026-03-22T15:01:08.369Z</time></trkpt><trkpt lat="45.7195667" lon="8.610175"><ele>209.0</ele><time>2026-03-22T15:01:09.369Z</time></trkpt><trkpt lat="45.7195733" lon="8.6103583"><ele>209.0</ele><time>2026-03-22T15:01:10.369Z</time></trkpt><trkpt lat="45.71958" lon="8.61053"><ele>209.0</ele><time>2026-03-22T15:01:11.369Z</time></trkpt><trkpt lat="45.7195883" lon="8.6106917"><ele>209.0</ele><time>2026-03-22T15:01:12.369Z</time></trkpt><trkpt lat="45.7195917" lon="8.6108483"><ele>209.0</ele><time>2026-03-22T15:01:13.369Z</time></trkpt><trkpt lat="45.7195967" lon="8.6109967"><ele>209.0</ele><time>2026-03-22T15:01:14.369Z</time></trkpt><trkpt lat="45.7196017" lon="8.611135"><ele>209.0</ele><time>2026-03-22T15:01:15.369Z</time></trkpt><trkpt lat="45.7196017" lon="8.6112567"><ele>209.0</ele><time>2026-03-22T15:01:16.369Z</time></trkpt><trkpt lat="45.7196083" lon="8.61136"><ele>209.0</ele><time>2026-03-22T15:01:17.369Z</time></trkpt><trkpt lat="45.7196117" lon="8.6115233"><ele>209.0</ele><time>2026-03-22T15:01:19.369Z</time></trkpt><trkpt lat="45.71961" lon="8.6116833"><ele>209.0</ele><time>2026-03-22T15:01:21.369Z</time></trkpt><trkpt lat="45.7195983" lon="8.61186"><ele>209.0</ele><time>2026-03-22T15:01:23.369Z</time></trkpt><trkpt lat="45.719595" lon="8.6119583"><ele>209.0</ele><time>2026-03-22T15:01:24.369Z</time></trkpt><trkpt lat="45.7196017" lon="8.6120583"><ele>209.0</ele><time>2026-03-22T15:01:25.369Z</time></trkpt><trkpt lat="45.7196183" lon="8.6121633"><ele>209.0</ele><time>2026-03-22T15:01:26.369Z</time></trkpt><trkpt lat="45.71963" lon="8.6122683"><ele>209.0</ele><time>2026-03-22T15:01:27.369Z</time></trkpt><trkpt lat="45.7196267" lon="8.6123617"><ele>209.0</ele><time>2026-03-22T15:01:28.369Z</time></trkpt><trkpt lat="45.7196233" lon="8.6124683"><ele>209.0</ele><time>2026-03-22T15:01:29.369Z</time></trkpt><trkpt lat="45.7196217" lon="8.6125883"><ele>209.0</ele><time>2026-03-22T15:01:30.369Z</time></trkpt><trkpt lat="45.71962" lon="8.612725"><ele>209.0</ele><time>2026-03-22T15:01:31.369Z</time></trkpt><trkpt lat="45.7196183" lon="8.6128817"><ele>209.0</ele><time>2026-03-22T15:01:32.369Z</time></trkpt><trkpt lat="45.71962" lon="8.613035"><ele>209.0</ele><time>2026-03-22T15:01:33.369Z</time></trkpt><trkpt lat="45.7196233" lon="8.6131717"><ele>209.0</ele><time>2026-03-22T15:01:34.369Z</time></trkpt><trkpt lat="45.7196267" lon="8.6133067"><ele>209.0</ele><time>2026-03-22T15:01:35.369Z</time></trkpt><trkpt lat="45.719635" lon="8.6134567"><ele>209.0</ele><time>2026-03-22T15:01:36.369Z</time></trkpt><trkpt lat="45.71964" lon="8.613635"><ele>209.0</ele><time>2026-03-22T15:01:37.369Z</time></trkpt><trkpt lat="45.71965" lon="8.6138333"><ele>209.0</ele><time>2026-03-22T15:01:38.369Z</time></trkpt><trkpt lat="45.7196533" lon="8.6140283"><ele>209.0</ele><time>2026-03-22T15:01:39.369Z</time></trkpt><trkpt lat="45.7196533" lon="8.6142367"><ele>209.0</ele><time>2026-03-22T15:01:40.369Z</time></trkpt><trkpt lat="45.7196583" lon="8.6144517"><ele>209.0</ele><time>2026-03-22T15:01:41.369Z</time></trkpt><trkpt lat="45.719665" lon="8.6146583"><ele>209.0</ele><time>2026-03-22T15:01:42.369Z</time></trkpt><trkpt lat="45.7196667" lon="8.61486"><ele>209.25</ele><time>2026-03-22T15:01:43.369Z</time></trkpt><trkpt lat="45.7196717" lon="8.6150533"><ele>209.5</ele><time>2026-03-22T15:01:44.369Z</time></trkpt><trkpt lat="45.719675" lon="8.6152317"><ele>209.75</ele><time>2026-03-22T15:01:45.369Z</time></trkpt><trkpt lat="45.7196783" lon="8.615405"><ele>210.0</ele><time>2026-03-22T15:01:46.369Z</time></trkpt><trkpt lat="45.71968" lon="8.6155567"><ele>210.16666666666666</ele><time>2026-03-22T15:01:47.369Z</time></trkpt><trkpt lat="45.7196817" lon="8.6157"><ele>210.33333333333331</ele><time>2026-03-22T15:01:48.369Z</time></trkpt><trkpt lat="45.7196833" lon="8.6158333"><ele>210.5</ele><time>2026-03-22T15:01:49.369Z</time></trkpt><trkpt lat="45.7196833" lon="8.6159517"><ele>210.66666666666666</ele><time>2026-03-22T15:01:50.369Z</time></trkpt><trkpt lat="45.7196817" lon="8.6160667"><ele>210.83333333333331</ele><time>2026-03-22T15:01:51.369Z</time></trkpt><trkpt lat="45.7196717" lon="8.6161717"><ele>211.0</ele><time>2026-03-22T15:01:52.369Z</time></trkpt><trkpt lat="45.7196317" lon="8.616285"><ele>210.66666666666666</ele><time>2026-03-22T15:01:53.369Z</time></trkpt><trkpt lat="45.7195783" lon="8.6163967"><ele>210.33333333333331</ele><time>2026-03-22T15:01:54.369Z</time></trkpt><trkpt lat="45.7195167" lon="8.6164917"><ele>210.0</ele><time>2026-03-22T15:01:55.369Z</time></trkpt><trkpt lat="45.7194783" lon="8.61659"><ele>209.66666666666669</ele><time>2026-03-22T15:01:56.369Z</time></trkpt><trkpt lat="45.7194783" lon="8.6166867"><ele>209.33333333333334</ele><time>2026-03-22T15:01:57.369Z</time></trkpt><trkpt lat="45.7195183" lon="8.6167783"><ele>209.0</ele><time>2026-03-22T15:01:58.369Z</time></trkpt><trkpt lat="45.7195767" lon="8.6168767"><ele>209.2</ele><time>2026-03-22T15:01:59.369Z</time></trkpt><trkpt lat="45.7196333" lon="8.6169983"><ele>209.39999999999998</ele><time>2026-03-22T15:02:00.369Z</time></trkpt><trkpt lat="45.7196733" lon="8.61714"><ele>209.6</ele><time>2026-03-22T15:02:01.369Z</time></trkpt><trkpt lat="45.7196967" lon="8.6173"><ele>209.8</ele><time>2026-03-22T15:02:02.369Z</time></trkpt><trkpt lat="45.7197017" lon="8.617455"><ele>210.0</ele><time>2026-03-22T15:02:03.369Z</time></trkpt><trkpt lat="45.7196983" lon="8.6175867"><ele>210.0</ele><time>2026-03-22T15:02:04.369Z</time></trkpt><trkpt lat="45.7197" lon="8.6177"><ele>210.0</ele><time>2026-03-22T15:02:05.369Z</time></trkpt><trkpt lat="45.7197" lon="8.6178183"><ele>210.0</ele><time>2026-03-22T15:02:06.369Z</time></trkpt><trkpt lat="45.719695" lon="8.6179467"><ele>210.0</ele><time>2026-03-22T15:02:07.369Z</time></trkpt><trkpt lat="45.7197033" lon="8.6180933"><ele>210.0</ele><time>2026-03-22T15:02:08.369Z</time></trkpt><trkpt lat="45.71971" lon="8.618255"><ele>210.0</ele><time>2026-03-22T15:02:09.369Z</time></trkpt><trkpt lat="45.71972" lon="8.6184133"><ele>210.0</ele><time>2026-03-22T15:02:10.369Z</time></trkpt><trkpt lat="45.7197283" lon="8.6185783"><ele>210.0</ele><time>2026-03-22T15:02:11.369Z</time></trkpt><trkpt lat="45.7197283" lon="8.6187583"><ele>210.0</ele><time>2026-03-22T15:02:12.369Z</time></trkpt><trkpt lat="45.7197383" lon="8.618955"><ele>209.66666666666669</ele><time>2026-03-22T15:02:13.369Z</time></trkpt><trkpt lat="45.719745" lon="8.619165"><ele>209.33333333333334</ele><time>2026-03-22T15:02:14.369Z</time></trkpt><trkpt lat="45.7197533" lon="8.6194"><ele>209.0</ele><time>2026-03-22T15:02:15.369Z</time></trkpt><trkpt lat="45.7197517" lon="8.6196617"><ele>209.0</ele><time>2026-03-22T15:02:16.369Z</time></trkpt><trkpt lat="45.7197533" lon="8.6199067"><ele>209.0</ele><time>2026-03-22T15:02:17.369Z</time></trkpt><trkpt lat="45.719755" lon="8.6201417"><ele>209.0</ele><time>2026-03-22T15:02:18.37Z</time></trkpt><trkpt lat="45.7197667" lon="8.6203767"><ele>208.33333333333334</ele><time>2026-03-22T15:02:19.369Z</time></trkpt><trkpt lat="45.719775" lon="8.620605"><ele>207.66666666666669</ele><time>2026-03-22T15:02:20.369Z</time></trkpt><trkpt lat="45.71978" lon="8.62084"><ele>207.0</ele><time>2026-03-22T15:02:21.369Z</time></trkpt><trkpt lat="45.7197983" lon="8.6210967"><ele>207.66666666666669</ele><time>2026-03-22T15:02:22.369Z</time></trkpt><trkpt lat="45.7197983" lon="8.6213867"><ele>208.33333333333334</ele><time>2026-03-22T15:02:23.369Z</time></trkpt><trkpt lat="45.7198" lon="8.6216617"><ele>209.0</ele><time>2026-03-22T15:02:24.369Z</time></trkpt><trkpt lat="45.7198017" lon="8.6219333"><ele>209.33333333333334</ele><time>2026-03-22T15:02:25.369Z</time></trkpt><trkpt lat="45.7198067" lon="8.6221883"><ele>209.66666666666669</ele><time>2026-03-22T15:02:26.369Z</time></trkpt><trkpt lat="45.7198083" lon="8.622425"><ele>210.0</ele><time>2026-03-22T15:02:27.369Z</time></trkpt><trkpt lat="45.7198067" lon="8.6226467"><ele>210.0</ele><time>2026-03-22T15:02:28.369Z</time></trkpt><trkpt lat="45.71981" lon="8.62286"><ele>210.0</ele><time>2026-03-22T15:02:29.369Z</time></trkpt><trkpt lat="45.7198083" lon="8.6230583"><ele>210.0</ele><time>2026-03-22T15:02:30.369Z</time></trkpt><trkpt lat="45.7198133" lon="8.62326"><ele>210.0</ele><time>2026-03-22T15:02:31.369Z</time></trkpt><trkpt lat="45.71982" lon="8.6234567"><ele>210.0</ele><time>2026-03-22T15:02:32.369Z</time></trkpt><trkpt lat="45.7198283" lon="8.623635"><ele>210.0</ele><time>2026-03-22T15:02:33.369Z</time></trkpt><trkpt lat="45.719825" lon="8.6238083"><ele>210.0</ele><time>2026-03-22T15:02:34.369Z</time></trkpt><trkpt lat="45.7198317" lon="8.6239683"><ele>210.0</ele><time>2026-03-22T15:02:35.369Z</time></trkpt><trkpt lat="45.7198333" lon="8.6241267"><ele>210.2</ele><time>2026-03-22T15:02:36.369Z</time></trkpt><trkpt lat="45.7198217" lon="8.6242717"><ele>210.4</ele><time>2026-03-22T15:02:37.369Z</time></trkpt><trkpt lat="45.7198133" lon="8.62441"><ele>210.60000000000002</ele><time>2026-03-22T15:02:38.369Z</time></trkpt><trkpt lat="45.7198117" lon="8.6245483"><ele>210.8</ele><time>2026-03-22T15:02:39.369Z</time></trkpt><trkpt lat="45.7198117" lon="8.6246983"><ele>211.0</ele><time>2026-03-22T15:02:40.369Z</time></trkpt><trkpt lat="45.7198117" lon="8.6248417"><ele>210.60000000000002</ele><time>2026-03-22T15:02:41.369Z</time></trkpt><trkpt lat="45.7198183" lon="8.6249917"><ele>210.2</ele><time>2026-03-22T15:02:42.369Z</time></trkpt><trkpt lat="45.7198217" lon="8.62513"><ele>209.8</ele><time>2026-03-22T15:02:43.369Z</time></trkpt><trkpt lat="45.7198283" lon="8.6252267"><ele>209.39999999999998</ele><time>2026-03-22T15:02:44.369Z</time></trkpt><trkpt lat="45.71981" lon="8.6253617"><ele>209.0</ele><time>2026-03-22T15:02:46.369Z</time></trkpt><trkpt lat="45.71978" lon="8.62548"><ele>208.39999999999998</ele><time>2026-03-22T15:02:48.369Z</time></trkpt><trkpt lat="45.7197633" lon="8.6256117"><ele>207.8</ele><time>2026-03-22T15:02:50.369Z</time></trkpt><trkpt lat="45.7198033" lon="8.625745"><ele>207.2</ele><time>2026-03-22T15:02:52.369Z</time></trkpt><trkpt lat="45.71989" lon="8.6258033"><ele>206.60000000000002</ele><time>2026-03-22T15:02:54.369Z</time></trkpt><trkpt lat="45.7199883" lon="8.6258317"><ele>206.0</ele><time>2026-03-22T15:02:56.369Z</time></trkpt><trkpt lat="45.7201117" lon="8.625925"><ele>206.00000000000003</ele><time>2026-03-22T15:02:58.369Z</time></trkpt><trkpt lat="45.7201767" lon="8.62598"><ele>206.0</ele><time>2026-03-22T15:02:59.369Z</time></trkpt><trkpt lat="45.720245" lon="8.626045"><ele>206.0</ele><time>2026-03-22T15:03:00.369Z</time></trkpt><trkpt lat="45.7203133" lon="8.6261117"><ele>206.0</ele><time>2026-03-22T15:03:01.369Z</time></trkpt><trkpt lat="45.7203867" lon="8.6261833"><ele>206.00000000000003</ele><time>2026-03-22T15:03:02.369Z</time></trkpt><trkpt lat="45.7204667" lon="8.62625"><ele>206.0</ele><time>2026-03-22T15:03:03.369Z</time></trkpt><trkpt lat="45.72055" lon="8.6263167"><ele>205.8</ele><time>2026-03-22T15:03:04.369Z</time></trkpt><trkpt lat="45.7206367" lon="8.6263833"><ele>205.60000000000002</ele><time>2026-03-22T15:03:05.369Z</time></trkpt><trkpt lat="45.7207267" lon="8.6264417"><ele>205.4</ele><time>2026-03-22T15:03:06.369Z</time></trkpt><trkpt lat="45.72081" lon="8.6264917"><ele>205.2</ele><time>2026-03-22T15:03:07.369Z</time></trkpt><trkpt lat="45.7208867" lon="8.626545"><ele>205.0</ele><time>2026-03-22T15:03:08.369Z</time></trkpt><trkpt lat="45.7209617" lon="8.6265917"><ele>205.0</ele><time>2026-03-22T15:03:09.369Z</time></trkpt><trkpt lat="45.7210267" lon="8.6266383"><ele>205.0</ele><time>2026-03-22T15:03:10.369Z</time></trkpt><trkpt lat="45.7210867" lon="8.62669"><ele>205.0</ele><time>2026-03-22T15:03:11.369Z</time></trkpt><trkpt lat="45.7211417" lon="8.6267383"><ele>205.0</ele><time>2026-03-22T15:03:12.369Z</time></trkpt><trkpt lat="45.7212" lon="8.6268"><ele>205.0</ele><time>2026-03-22T15:03:13.369Z</time></trkpt><trkpt lat="45.7212633" lon="8.62687"><ele>205.0</ele><time>2026-03-22T15:03:14.369Z</time></trkpt><trkpt lat="45.721325" lon="8.6269217"><ele>205.0</ele><time>2026-03-22T15:03:15.369Z</time></trkpt><trkpt lat="45.72139" lon="8.6269617"><ele>203.33333333333331</ele><time>2026-03-22T15:03:16.369Z</time></trkpt><trkpt lat="45.7214583" lon="8.6269883"><ele>201.66666666666666</ele><time>2026-03-22T15:03:17.369Z</time></trkpt><trkpt lat="45.72153" lon="8.62701"><ele>200.0</ele><time>2026-03-22T15:03:18.369Z</time></trkpt><trkpt lat="45.7216133" lon="8.627035"><ele>198.33333333333331</ele><time>2026-03-22T15:03:19.369Z</time></trkpt><trkpt lat="45.7216883" lon="8.6270567"><ele>196.66666666666666</ele><time>2026-03-22T15:03:20.369Z</time></trkpt><trkpt lat="45.7217717" lon="8.6270767"><ele>195.0</ele><time>2026-03-22T15:03:21.369Z</time></trkpt><trkpt lat="45.7218517" lon="8.6270967"><ele>194.2</ele><time>2026-03-22T15:03:22.369Z</time></trkpt><trkpt lat="45.7219317" lon="8.6271117"><ele>193.4</ele><time>2026-03-22T15:03:23.369Z</time></trkpt><trkpt lat="45.7220117" lon="8.6271317"><ele>192.60000000000002</ele><time>2026-03-22T15:03:24.369Z</time></trkpt><trkpt lat="45.7221" lon="8.6271533"><ele>191.8</ele><time>2026-03-22T15:03:25.369Z</time></trkpt><trkpt lat="45.722195" lon="8.6271767"><ele>191.0</ele><time>2026-03-22T15:03:26.369Z</time></trkpt><trkpt lat="45.7222967" lon="8.6272017"><ele>191.0</ele><time>2026-03-22T15:03:27.369Z</time></trkpt><trkpt lat="45.7224083" lon="8.62723"><ele>191.0</ele><time>2026-03-22T15:03:28.369Z</time></trkpt><trkpt lat="45.7225283" lon="8.627265"><ele>191.0</ele><time>2026-03-22T15:03:29.369Z</time></trkpt><trkpt lat="45.72264" lon="8.6273017"><ele>191.0</ele><time>2026-03-22T15:03:30.369Z</time></trkpt><trkpt lat="45.722745" lon="8.6273267"><ele>192.20000000000002</ele><time>2026-03-22T15:03:31.369Z</time></trkpt><trkpt lat="45.7228417" lon="8.62736"><ele>193.4</ele><time>2026-03-22T15:03:32.369Z</time></trkpt><trkpt lat="45.7229367" lon="8.6273883"><ele>194.6</ele><time>2026-03-22T15:03:33.369Z</time></trkpt><trkpt lat="45.723035" lon="8.6274083"><ele>195.8</ele><time>2026-03-22T15:03:34.369Z</time></trkpt><trkpt lat="45.7231433" lon="8.6274367"><ele>197.0</ele><time>2026-03-22T15:03:35.369Z</time></trkpt><trkpt lat="45.72326" lon="8.6274633"><ele>197.0</ele><time>2026-03-22T15:03:36.369Z</time></trkpt><trkpt lat="45.723375" lon="8.627495"><ele>197.0</ele><time>2026-03-22T15:03:37.369Z</time></trkpt><trkpt lat="45.72348" lon="8.6275267"><ele>197.0</ele><time>2026-03-22T15:03:38.369Z</time></trkpt><trkpt lat="45.7235767" lon="8.627555"><ele>197.0</ele><time>2026-03-22T15:03:39.369Z</time></trkpt><trkpt lat="45.7236617" lon="8.62758"><ele>197.0</ele><time>2026-03-22T15:03:40.369Z</time></trkpt><trkpt lat="45.7237433" lon="8.62761"><ele>197.83333333333334</ele><time>2026-03-22T15:03:41.369Z</time></trkpt><trkpt lat="45.7238167" lon="8.62763"><ele>198.66666666666669</ele><time>2026-03-22T15:03:42.369Z</time></trkpt><trkpt lat="45.7238817" lon="8.627665"><ele>199.5</ele><time>2026-03-22T15:03:43.369Z</time></trkpt><trkpt lat="45.723945" lon="8.6277033"><ele>200.33333333333331</ele><time>2026-03-22T15:03:44.369Z</time></trkpt><trkpt lat="45.7240417" lon="8.6278233"><ele>201.16666666666666</ele><time>2026-03-22T15:03:46.369Z</time></trkpt><trkpt lat="45.7240867" lon="8.6279133"><ele>202.0</ele><time>2026-03-22T15:03:47.369Z</time></trkpt><trkpt lat="45.7241283" lon="8.6280183"><ele>202.39999999999998</ele><time>2026-03-22T15:03:48.369Z</time></trkpt><trkpt lat="45.7241683" lon="8.628135"><ele>202.79999999999998</ele><time>2026-03-22T15:03:49.369Z</time></trkpt><trkpt lat="45.7241983" lon="8.6282767"><ele>203.2</ele><time>2026-03-22T15:03:50.369Z</time></trkpt><trkpt lat="45.7242317" lon="8.6284167"><ele>203.6</ele><time>2026-03-22T15:03:51.369Z</time></trkpt><trkpt lat="45.7242667" lon="8.6285367"><ele>204.0</ele><time>2026-03-22T15:03:52.369Z</time></trkpt><trkpt lat="45.7242933" lon="8.62865"><ele>204.0</ele><time>2026-03-22T15:03:53.369Z</time></trkpt><trkpt lat="45.7243217" lon="8.62876"><ele>204.0</ele><time>2026-03-22T15:03:54.369Z</time></trkpt><trkpt lat="45.7243483" lon="8.6288667"><ele>204.0</ele><time>2026-03-22T15:03:55.369Z</time></trkpt><trkpt lat="45.72438" lon="8.6289817"><ele>204.0</ele><time>2026-03-22T15:03:56.369Z</time></trkpt><trkpt lat="45.7244167" lon="8.6291033"><ele>204.0</ele><time>2026-03-22T15:03:57.369Z</time></trkpt><trkpt lat="45.7244483" lon="8.6292183"><ele>204.0</ele><time>2026-03-22T15:03:58.369Z</time></trkpt><trkpt lat="45.72448" lon="8.6293317"><ele>203.66666666666666</ele><time>2026-03-22T15:03:59.369Z</time></trkpt><trkpt lat="45.7244983" lon="8.6294367"><ele>203.33333333333331</ele><time>2026-03-22T15:04:00.369Z</time></trkpt><trkpt lat="45.7244867" lon="8.6295333"><ele>203.0</ele><time>2026-03-22T15:04:01.369Z</time></trkpt><trkpt lat="45.7244483" lon="8.6296167"><ele>202.66666666666666</ele><time>2026-03-22T15:04:02.369Z</time></trkpt><trkpt lat="45.72439" lon="8.629675"><ele>202.33333333333331</ele><time>2026-03-22T15:04:03.369Z</time></trkpt><trkpt lat="45.7243083" lon="8.629715"><ele>202.0</ele><time>2026-03-22T15:04:04.369Z</time></trkpt><trkpt lat="45.7242283" lon="8.62971"><ele>202.0</ele><time>2026-03-22T15:04:05.369Z</time></trkpt><trkpt lat="45.724145" lon="8.629665"><ele>202.0</ele><time>2026-03-22T15:04:06.369Z</time></trkpt><trkpt lat="45.7240683" lon="8.6295767"><ele>202.0</ele><time>2026-03-22T15:04:07.369Z</time></trkpt><trkpt lat="45.7239983" lon="8.629455"><ele>202.0</ele><time>2026-03-22T15:04:08.369Z</time></trkpt><trkpt lat="45.723935" lon="8.6293017"><ele>202.0</ele><time>2026-03-22T15:04:09.369Z</time></trkpt><trkpt lat="45.72388" lon="8.6291583"><ele>202.39999999999998</ele><time>2026-03-22T15:04:10.369Z</time></trkpt><trkpt lat="45.723835" lon="8.6290267"><ele>202.79999999999998</ele><time>2026-03-22T15:04:11.369Z</time></trkpt><trkpt lat="45.7237917" lon="8.6288933"><ele>203.2</ele><time>2026-03-22T15:04:12.369Z</time></trkpt><trkpt lat="45.7237433" lon="8.6287383"><ele>203.6</ele><time>2026-03-22T15:04:13.369Z</time></trkpt><trkpt lat="45.7237017" lon="8.6285783"><ele>204.0</ele><time>2026-03-22T15:04:14.369Z</time></trkpt><trkpt lat="45.723675" lon="8.6283983"><ele>204.0</ele><time>2026-03-22T15:04:15.369Z</time></trkpt><trkpt lat="45.72367" lon="8.6282033"><ele>204.0</ele><time>2026-03-22T15:04:16.369Z</time></trkpt><trkpt lat="45.7236783" lon="8.6279967"><ele>204.0</ele><time>2026-03-22T15:04:17.369Z</time></trkpt><trkpt lat="45.7237" lon="8.6277717"><ele>204.0</ele><time>2026-03-22T15:04:18.369Z</time></trkpt><trkpt lat="45.7237283" lon="8.6275583"><ele>203.5</ele><time>2026-03-22T15:04:19.369Z</time></trkpt><trkpt lat="45.72376" lon="8.62735"><ele>203.0</ele><time>2026-03-22T15:04:20.369Z</time></trkpt><trkpt lat="45.7238083" lon="8.6271617"><ele>202.5</ele><time>2026-03-22T15:04:21.369Z</time></trkpt><trkpt lat="45.7238883" lon="8.6270183"><ele>202.0</ele><time>2026-03-22T15:04:22.369Z</time></trkpt><trkpt lat="45.724005" lon="8.626925"><ele>201.0</ele><time>2026-03-22T15:04:23.369Z</time></trkpt><trkpt lat="45.7241433" lon="8.626845"><ele>200.0</ele><time>2026-03-22T15:04:24.369Z</time></trkpt><trkpt lat="45.7242933" lon="8.6267617"><ele>199.0</ele><time>2026-03-22T15:04:25.369Z</time></trkpt><trkpt lat="45.724435" lon="8.6266733"><ele>199.0</ele><time>2026-03-22T15:04:26.369Z</time></trkpt><trkpt lat="45.7245783" lon="8.6265817"><ele>199.0</ele><time>2026-03-22T15:04:27.369Z</time></trkpt><trkpt lat="45.7247267" lon="8.6264883"><ele>199.0</ele><time>2026-03-22T15:04:28.369Z</time></trkpt><trkpt lat="45.7248867" lon="8.6263933"><ele>199.0</ele><time>2026-03-22T15:04:29.369Z</time></trkpt><trkpt lat="45.7250433" lon="8.6263067"><ele>199.0</ele><time>2026-03-22T15:04:30.369Z</time></trkpt><trkpt lat="45.725195" lon="8.626215"><ele>199.0</ele><time>2026-03-22T15:04:31.369Z</time></trkpt><trkpt lat="45.7253417" lon="8.6261167"><ele>199.33333333333331</ele><time>2026-03-22T15:04:32.369Z</time></trkpt><trkpt lat="45.7255017" lon="8.626015"><ele>199.66666666666669</ele><time>2026-03-22T15:04:33.369Z</time></trkpt><trkpt lat="45.7256567" lon="8.6259083"><ele>200.0</ele><time>2026-03-22T15:04:34.369Z</time></trkpt><trkpt lat="45.7258167" lon="8.6258183"><ele>200.0</ele><time>2026-03-22T15:04:35.369Z</time></trkpt><trkpt lat="45.7259733" lon="8.6257233"><ele>200.0</ele><time>2026-03-22T15:04:36.369Z</time></trkpt><trkpt lat="45.7261333" lon="8.6256267"><ele>200.0</ele><time>2026-03-22T15:04:37.369Z</time></trkpt><trkpt lat="45.7262917" lon="8.6255283"><ele>200.33333333333334</ele><time>2026-03-22T15:04:38.369Z</time></trkpt><trkpt lat="45.7264533" lon="8.6254217"><ele>200.66666666666669</ele><time>2026-03-22T15:04:39.369Z</time></trkpt><trkpt lat="45.7266133" lon="8.6253233"><ele>201.0</ele><time>2026-03-22T15:04:40.369Z</time></trkpt><trkpt lat="45.726775" lon="8.6252267"><ele>200.66666666666669</ele><time>2026-03-22T15:04:41.369Z</time></trkpt><trkpt lat="45.7269317" lon="8.6251333"><ele>200.33333333333334</ele><time>2026-03-22T15:04:42.369Z</time></trkpt><trkpt lat="45.727085" lon="8.6250433"><ele>200.0</ele><time>2026-03-22T15:04:43.369Z</time></trkpt><trkpt lat="45.7272333" lon="8.6249533"><ele>200.0</ele><time>2026-03-22T15:04:44.369Z</time></trkpt><trkpt lat="45.7273817" lon="8.62486"><ele>200.0</ele><time>2026-03-22T15:04:45.369Z</time></trkpt><trkpt lat="45.7275317" lon="8.62476"><ele>200.0</ele><time>2026-03-22T15:04:46.369Z</time></trkpt><trkpt lat="45.72769" lon="8.6246417"><ele>200.0</ele><time>2026-03-22T15:04:47.369Z</time></trkpt><trkpt lat="45.7278433" lon="8.6245033"><ele>200.0</ele><time>2026-03-22T15:04:48.369Z</time></trkpt><trkpt lat="45.7279967" lon="8.6243467"><ele>200.0</ele><time>2026-03-22T15:04:49.369Z</time></trkpt><trkpt lat="45.72815" lon="8.62417"><ele>200.33333333333334</ele><time>2026-03-22T15:04:50.369Z</time></trkpt><trkpt lat="45.7283" lon="8.6239767"><ele>200.66666666666669</ele><time>2026-03-22T15:04:51.369Z</time></trkpt><trkpt lat="45.7284433" lon="8.623755"><ele>201.0</ele><time>2026-03-22T15:04:52.369Z</time></trkpt><trkpt lat="45.7285783" lon="8.6235117"><ele>201.66666666666669</ele><time>2026-03-22T15:04:53.369Z</time></trkpt><trkpt lat="45.7286983" lon="8.6232717"><ele>202.33333333333334</ele><time>2026-03-22T15:04:54.369Z</time></trkpt><trkpt lat="45.7288017" lon="8.6230333"><ele>203.0</ele><time>2026-03-22T15:04:55.369Z</time></trkpt><trkpt lat="45.7289" lon="8.6228067"><ele>203.0</ele><time>2026-03-22T15:04:56.369Z</time></trkpt><trkpt lat="45.7289956" lon="8.6225793"><ele>203.0</ele><time>2026-03-22T15:04:57.369Z</time></trkpt><trkpt lat="45.7290947" lon="8.6223681"><ele>203.0</ele><time>2026-03-22T15:04:58.369Z</time></trkpt><trkpt lat="45.7291952" lon="8.62215"><ele>203.0</ele><time>2026-03-22T15:04:59.369Z</time></trkpt><trkpt lat="45.7292907" lon="8.6219418"><ele>203.0</ele><time>2026-03-22T15:05:00.369Z</time></trkpt><trkpt lat="45.7293852" lon="8.62173"><ele>203.0</ele><time>2026-03-22T15:05:01.369Z</time></trkpt><trkpt lat="45.7294831" lon="8.6215191"><ele>203.0</ele><time>2026-03-22T15:05:02.369Z</time></trkpt><trkpt lat="45.7295746" lon="8.6213061"><ele>203.0</ele><time>2026-03-22T15:05:03.369Z</time></trkpt><trkpt lat="45.7296629" lon="8.6210943"><ele>203.0</ele><time>2026-03-22T15:05:04.369Z</time></trkpt><trkpt lat="45.729751" lon="8.6208858"><ele>203.0</ele><time>2026-03-22T15:05:05.369Z</time></trkpt><trkpt lat="45.7298392" lon="8.6206846"><ele>203.0</ele><time>2026-03-22T15:05:06.369Z</time></trkpt><trkpt lat="45.7299213" lon="8.6204873"><ele>203.0</ele><time>2026-03-22T15:05:07.369Z</time></trkpt><trkpt lat="45.7300038" lon="8.620302"><ele>202.5</ele><time>2026-03-22T15:05:08.369Z</time></trkpt><trkpt lat="45.7300822" lon="8.6201265"><ele>202.0</ele><time>2026-03-22T15:05:09.369Z</time></trkpt><trkpt lat="45.7301557" lon="8.6199569"><ele>201.5</ele><time>2026-03-22T15:05:10.369Z</time></trkpt><trkpt lat="45.730233" lon="8.6198145"><ele>201.0</ele><time>2026-03-22T15:05:11.369Z</time></trkpt><trkpt lat="45.7303018" lon="8.6196802"><ele>201.5</ele><time>2026-03-22T15:05:12.369Z</time></trkpt><trkpt lat="45.7303644" lon="8.6195428"><ele>202.0</ele><time>2026-03-22T15:05:13.369Z</time></trkpt><trkpt lat="45.7304195" lon="8.6194016"><ele>202.5</ele><time>2026-03-22T15:05:14.369Z</time></trkpt><trkpt lat="45.7304766" lon="8.6192603"><ele>203.0</ele><time>2026-03-22T15:05:15.369Z</time></trkpt><trkpt lat="45.7305424" lon="8.6191118"><ele>203.0</ele><time>2026-03-22T15:05:16.369Z</time></trkpt><trkpt lat="45.7306151" lon="8.6189546"><ele>203.0</ele><time>2026-03-22T15:05:17.369Z</time></trkpt><trkpt lat="45.7306865" lon="8.6187891"><ele>203.0</ele><time>2026-03-22T15:05:18.369Z</time></trkpt><trkpt lat="45.7307567" lon="8.6186205"><ele>203.0</ele><time>2026-03-22T15:05:19.369Z</time></trkpt><trkpt lat="45.7308272" lon="8.6184529"><ele>203.25</ele><time>2026-03-22T15:05:20.369Z</time></trkpt><trkpt lat="45.7308997" lon="8.6182871"><ele>203.5</ele><time>2026-03-22T15:05:21.369Z</time></trkpt><trkpt lat="45.7309706" lon="8.6181217"><ele>203.75</ele><time>2026-03-22T15:05:22.369Z</time></trkpt><trkpt lat="45.7310521" lon="8.6179577"><ele>204.0</ele><time>2026-03-22T15:05:23.369Z</time></trkpt><trkpt lat="45.7311295" lon="8.6177972"><ele>204.79999999999998</ele><time>2026-03-22T15:05:24.369Z</time></trkpt><trkpt lat="45.7311969" lon="8.6176429"><ele>205.6</ele><time>2026-03-22T15:05:25.369Z</time></trkpt><trkpt lat="45.731261" lon="8.6175071"><ele>206.4</ele><time>2026-03-22T15:05:26.369Z</time></trkpt><trkpt lat="45.7313145" lon="8.6173825"><ele>207.2</ele><time>2026-03-22T15:05:27.369Z</time></trkpt><trkpt lat="45.731359" lon="8.617269"><ele>208.0</ele><time>2026-03-22T15:05:28.369Z</time></trkpt><trkpt lat="45.7313993" lon="8.6171661"><ele>208.0</ele><time>2026-03-22T15:05:29.369Z</time></trkpt><trkpt lat="45.7314478" lon="8.6170583"><ele>208.0</ele><time>2026-03-22T15:05:30.369Z</time></trkpt><trkpt lat="45.7314995" lon="8.6169417"><ele>208.0</ele><time>2026-03-22T15:05:31.369Z</time></trkpt><trkpt lat="45.731557" lon="8.6168194"><ele>208.0</ele><time>2026-03-22T15:05:32.369Z</time></trkpt><trkpt lat="45.7316143" lon="8.616693"><ele>208.0</ele><time>2026-03-22T15:05:33.369Z</time></trkpt><trkpt lat="45.7316665" lon="8.6165715"><ele>207.8</ele><time>2026-03-22T15:05:34.369Z</time></trkpt><trkpt lat="45.7317136" lon="8.6164598"><ele>207.60000000000002</ele><time>2026-03-22T15:05:35.369Z</time></trkpt><trkpt lat="45.7317588" lon="8.6163431"><ele>207.39999999999998</ele><time>2026-03-22T15:05:36.369Z</time></trkpt><trkpt lat="45.7318154" lon="8.6162217"><ele>207.2</ele><time>2026-03-22T15:05:37.369Z</time></trkpt><trkpt lat="45.7318867" lon="8.6160828"><ele>207.0</ele><time>2026-03-22T15:05:38.369Z</time></trkpt><trkpt lat="45.7319603" lon="8.6159302"><ele>207.0</ele><time>2026-03-22T15:05:39.369Z</time></trkpt><trkpt lat="45.7320406" lon="8.6157529"><ele>207.0</ele><time>2026-03-22T15:05:40.369Z</time></trkpt><trkpt lat="45.7321204" lon="8.6155613"><ele>207.0</ele><time>2026-03-22T15:05:41.369Z</time></trkpt><trkpt lat="45.7322013" lon="8.6153693"><ele>207.33333333333331</ele><time>2026-03-22T15:05:42.369Z</time></trkpt><trkpt lat="45.7322871" lon="8.6151745"><ele>207.66666666666666</ele><time>2026-03-22T15:05:43.369Z</time></trkpt><trkpt lat="45.7323773" lon="8.6149741"><ele>208.0</ele><time>2026-03-22T15:05:44.369Z</time></trkpt><trkpt lat="45.7324711" lon="8.6147737"><ele>208.0</ele><time>2026-03-22T15:05:45.369Z</time></trkpt><trkpt lat="45.7325578" lon="8.6145727"><ele>208.0</ele><time>2026-03-22T15:05:46.369Z</time></trkpt><trkpt lat="45.7326494" lon="8.61436"><ele>208.0</ele><time>2026-03-22T15:05:47.369Z</time></trkpt><trkpt lat="45.7327462" lon="8.6141393"><ele>208.66666666666666</ele><time>2026-03-22T15:05:48.369Z</time></trkpt><trkpt lat="45.7328408" lon="8.6139197"><ele>209.33333333333331</ele><time>2026-03-22T15:05:49.369Z</time></trkpt><trkpt lat="45.7329327" lon="8.6137043"><ele>210.0</ele><time>2026-03-22T15:05:50.369Z</time></trkpt><trkpt lat="45.7330183" lon="8.6134969"><ele>210.33333333333331</ele><time>2026-03-22T15:05:51.369Z</time></trkpt><trkpt lat="45.7330988" lon="8.6132995"><ele>210.66666666666666</ele><time>2026-03-22T15:05:52.369Z</time></trkpt><trkpt lat="45.7331796" lon="8.6131109"><ele>211.0</ele><time>2026-03-22T15:05:53.369Z</time></trkpt><trkpt lat="45.7332607" lon="8.6129252"><ele>211.33333333333331</ele><time>2026-03-22T15:05:54.369Z</time></trkpt><trkpt lat="45.7333449" lon="8.6127397"><ele>211.66666666666669</ele><time>2026-03-22T15:05:55.369Z</time></trkpt><trkpt lat="45.7334278" lon="8.6125494"><ele>212.0</ele><time>2026-03-22T15:05:56.369Z</time></trkpt><trkpt lat="45.7335125" lon="8.6123598"><ele>213.66666666666669</ele><time>2026-03-22T15:05:57.369Z</time></trkpt><trkpt lat="45.7336009" lon="8.6121678"><ele>215.33333333333331</ele><time>2026-03-22T15:05:58.369Z</time></trkpt><trkpt lat="45.7336925" lon="8.6119707"><ele>217.0</ele><time>2026-03-22T15:05:59.369Z</time></trkpt><trkpt lat="45.7337861" lon="8.6117787"><ele>217.0</ele><time>2026-03-22T15:06:00.369Z</time></trkpt><trkpt lat="45.73388" lon="8.6115812"><ele>217.0</ele><time>2026-03-22T15:06:01.369Z</time></trkpt><trkpt lat="45.7339734" lon="8.6113767"><ele>217.0</ele><time>2026-03-22T15:06:02.369Z</time></trkpt><trkpt lat="45.7340666" lon="8.6111595"><ele>215.0</ele><time>2026-03-22T15:06:03.369Z</time></trkpt><trkpt lat="45.7341592" lon="8.6109432"><ele>213.0</ele><time>2026-03-22T15:06:04.369Z</time></trkpt><trkpt lat="45.73426" lon="8.6107343"><ele>211.0</ele><time>2026-03-22T15:06:05.369Z</time></trkpt><trkpt lat="45.7343717" lon="8.610535"><ele>212.0</ele><time>2026-03-22T15:06:06.37Z</time></trkpt><trkpt lat="45.7344817" lon="8.6103533"><ele>213.0</ele><time>2026-03-22T15:06:07.37Z</time></trkpt><trkpt lat="45.734595" lon="8.6101867"><ele>214.0</ele><time>2026-03-22T15:06:08.37Z</time></trkpt><trkpt lat="45.7347117" lon="8.610035"><ele>214.0</ele><time>2026-03-22T15:06:09.37Z</time></trkpt><trkpt lat="45.7348367" lon="8.6098817"><ele>214.0</ele><time>2026-03-22T15:06:10.37Z</time></trkpt><trkpt lat="45.734965" lon="8.6097267"><ele>214.0</ele><time>2026-03-22T15:06:11.37Z</time></trkpt><trkpt lat="45.7350917" lon="8.6095783"><ele>215.0</ele><time>2026-03-22T15:06:12.37Z</time></trkpt><trkpt lat="45.7352233" lon="8.609425"><ele>216.0</ele><time>2026-03-22T15:06:13.37Z</time></trkpt><trkpt lat="45.73535" lon="8.6092783"><ele>217.0</ele><time>2026-03-22T15:06:14.37Z</time></trkpt><trkpt lat="45.7354783" lon="8.609135"><ele>217.0</ele><time>2026-03-22T15:06:15.37Z</time></trkpt><trkpt lat="45.7355983" lon="8.608995"><ele>217.0</ele><time>2026-03-22T15:06:16.37Z</time></trkpt><trkpt lat="45.7357167" lon="8.6088683"><ele>217.0</ele><time>2026-03-22T15:06:17.37Z</time></trkpt><trkpt lat="45.7358383" lon="8.60875"><ele>217.0</ele><time>2026-03-22T15:06:18.37Z</time></trkpt><trkpt lat="45.7359583" lon="8.6086283"><ele>217.66666666666666</ele><time>2026-03-22T15:06:19.37Z</time></trkpt><trkpt lat="45.73608" lon="8.6085067"><ele>218.33333333333331</ele><time>2026-03-22T15:06:20.37Z</time></trkpt><trkpt lat="45.7362083" lon="8.60837"><ele>219.0</ele><time>2026-03-22T15:06:21.37Z</time></trkpt><trkpt lat="45.7363383" lon="8.60822"><ele>219.0</ele><time>2026-03-22T15:06:22.37Z</time></trkpt><trkpt lat="45.7364767" lon="8.6080583"><ele>219.0</ele><time>2026-03-22T15:06:23.37Z</time></trkpt><trkpt lat="45.7366133" lon="8.6078917"><ele>219.0</ele><time>2026-03-22T15:06:24.37Z</time></trkpt><trkpt lat="45.7367483" lon="8.6077317"><ele>220.0</ele><time>2026-03-22T15:06:25.37Z</time></trkpt><trkpt lat="45.7368833" lon="8.6075717"><ele>221.0</ele><time>2026-03-22T15:06:26.37Z</time></trkpt><trkpt lat="45.737015" lon="8.6074167"><ele>222.0</ele><time>2026-03-22T15:06:27.37Z</time></trkpt><trkpt lat="45.7371467" lon="8.60727"><ele>222.0</ele><time>2026-03-22T15:06:28.37Z</time></trkpt><trkpt lat="45.7372717" lon="8.6071283"><ele>222.0</ele><time>2026-03-22T15:06:29.37Z</time></trkpt><trkpt lat="45.7373917" lon="8.6069917"><ele>222.0</ele><time>2026-03-22T15:06:30.37Z</time></trkpt><trkpt lat="45.7375083" lon="8.6068583"><ele>221.5</ele><time>2026-03-22T15:06:31.37Z</time></trkpt><trkpt lat="45.7376217" lon="8.6067267"><ele>221.0</ele><time>2026-03-22T15:06:32.37Z</time></trkpt><trkpt lat="45.7377333" lon="8.6065933"><ele>220.5</ele><time>2026-03-22T15:06:33.37Z</time></trkpt><trkpt lat="45.73784" lon="8.6064533"><ele>220.0</ele><time>2026-03-22T15:06:34.37Z</time></trkpt><trkpt lat="45.7379467" lon="8.6063083"><ele>217.66666666666666</ele><time>2026-03-22T15:06:35.37Z</time></trkpt><trkpt lat="45.7380583" lon="8.6061567"><ele>215.33333333333331</ele><time>2026-03-22T15:06:36.37Z</time></trkpt><trkpt lat="45.7381767" lon="8.6060117"><ele>213.0</ele><time>2026-03-22T15:06:37.37Z</time></trkpt><trkpt lat="45.7382933" lon="8.6058517"><ele>213.0</ele><time>2026-03-22T15:06:38.37Z</time></trkpt><trkpt lat="45.73842" lon="8.6056817"><ele>213.0</ele><time>2026-03-22T15:06:39.37Z</time></trkpt><trkpt lat="45.7385517" lon="8.6055117"><ele>213.0</ele><time>2026-03-22T15:06:40.37Z</time></trkpt><trkpt lat="45.738685" lon="8.6053383"><ele>212.33333333333331</ele><time>2026-03-22T15:06:41.37Z</time></trkpt><trkpt lat="45.7388133" lon="8.60516"><ele>211.66666666666666</ele><time>2026-03-22T15:06:42.37Z</time></trkpt><trkpt lat="45.7389383" lon="8.6049967"><ele>211.0</ele><time>2026-03-22T15:06:43.37Z</time></trkpt><trkpt lat="45.7390617" lon="8.6048383"><ele>211.0</ele><time>2026-03-22T15:06:44.37Z</time></trkpt><trkpt lat="45.7391833" lon="8.6046867"><ele>211.0</ele><time>2026-03-22T15:06:45.37Z</time></trkpt><trkpt lat="45.7393117" lon="8.6045283"><ele>211.0</ele><time>2026-03-22T15:06:46.37Z</time></trkpt><trkpt lat="45.7394367" lon="8.6043683"><ele>211.66666666666666</ele><time>2026-03-22T15:06:47.37Z</time></trkpt><trkpt lat="45.739565" lon="8.604205"><ele>212.33333333333331</ele><time>2026-03-22T15:06:48.37Z</time></trkpt><trkpt lat="45.73969" lon="8.60404"><ele>213.0</ele><time>2026-03-22T15:06:49.371Z</time></trkpt><trkpt lat="45.7398167" lon="8.6038733"><ele>213.0</ele><time>2026-03-22T15:06:50.37Z</time></trkpt><trkpt lat="45.73995" lon="8.6037033"><ele>213.0</ele><time>2026-03-22T15:06:51.37Z</time></trkpt><trkpt lat="45.7400783" lon="8.6035317"><ele>213.0</ele><time>2026-03-22T15:06:52.37Z</time></trkpt><trkpt lat="45.7402083" lon="8.6033583"><ele>212.66666666666669</ele><time>2026-03-22T15:06:53.37Z</time></trkpt><trkpt lat="45.7403417" lon="8.6032"><ele>212.33333333333334</ele><time>2026-03-22T15:06:54.37Z</time></trkpt><trkpt lat="45.7404583" lon="8.60304"><ele>212.0</ele><time>2026-03-22T15:06:55.37Z</time></trkpt><trkpt lat="45.7405767" lon="8.6028917"><ele>212.0</ele><time>2026-03-22T15:06:56.37Z</time></trkpt><trkpt lat="45.74069" lon="8.602755"><ele>212.0</ele><time>2026-03-22T15:06:57.37Z</time></trkpt><trkpt lat="45.7407983" lon="8.60263"><ele>212.0</ele><time>2026-03-22T15:06:58.37Z</time></trkpt><trkpt lat="45.7408933" lon="8.6025067"><ele>212.0</ele><time>2026-03-22T15:06:59.37Z</time></trkpt><trkpt lat="45.7409767" lon="8.6024"><ele>212.0</ele><time>2026-03-22T15:07:00.37Z</time></trkpt><trkpt lat="45.7410483" lon="8.6022867"><ele>212.0</ele><time>2026-03-22T15:07:01.37Z</time></trkpt><trkpt lat="45.7411167" lon="8.6021867"><ele>212.0</ele><time>2026-03-22T15:07:02.37Z</time></trkpt><trkpt lat="45.7411733" lon="8.602105"><ele>212.0</ele><time>2026-03-22T15:07:03.37Z</time></trkpt><trkpt lat="45.7412567" lon="8.6020017"><ele>212.0</ele><time>2026-03-22T15:07:05.37Z</time></trkpt><trkpt lat="45.7412983" lon="8.6019333"><ele>212.0</ele><time>2026-03-22T15:07:08.37Z</time></trkpt><trkpt lat="45.7413633" lon="8.6018583"><ele>212.0</ele><time>2026-03-22T15:07:10.37Z</time></trkpt><trkpt lat="45.7414733" lon="8.601765"><ele>212.0</ele><time>2026-03-22T15:07:12.37Z</time></trkpt><trkpt lat="45.741545" lon="8.6017117"><ele>212.0</ele><time>2026-03-22T15:07:13.37Z</time></trkpt><trkpt lat="45.7416217" lon="8.6016633"><ele>212.0</ele><time>2026-03-22T15:07:14.37Z</time></trkpt><trkpt lat="45.7416933" lon="8.601615"><ele>212.0</ele><time>2026-03-22T15:07:15.37Z</time></trkpt><trkpt lat="45.7417717" lon="8.6015683"><ele>212.0</ele><time>2026-03-22T15:07:16.37Z</time></trkpt><trkpt lat="45.7418617" lon="8.6015067"><ele>212.0</ele><time>2026-03-22T15:07:17.37Z</time></trkpt><trkpt lat="45.74196" lon="8.6014433"><ele>212.0</ele><time>2026-03-22T15:07:18.37Z</time></trkpt><trkpt lat="45.74207" lon="8.60139"><ele>212.0</ele><time>2026-03-22T15:07:19.37Z</time></trkpt><trkpt lat="45.7421833" lon="8.6013317"><ele>212.0</ele><time>2026-03-22T15:07:20.37Z</time></trkpt><trkpt lat="45.742295" lon="8.6012733"><ele>212.0</ele><time>2026-03-22T15:07:21.37Z</time></trkpt><trkpt lat="45.7424017" lon="8.6012083"><ele>212.0</ele><time>2026-03-22T15:07:22.37Z</time></trkpt><trkpt lat="45.742505" lon="8.6011533"><ele>212.0</ele><time>2026-03-22T15:07:23.37Z</time></trkpt><trkpt lat="45.7426183" lon="8.6010933"><ele>211.75</ele><time>2026-03-22T15:07:24.37Z</time></trkpt><trkpt lat="45.7427367" lon="8.6010183"><ele>211.5</ele><time>2026-03-22T15:07:25.37Z</time></trkpt><trkpt lat="45.7428533" lon="8.6009583"><ele>211.25</ele><time>2026-03-22T15:07:26.37Z</time></trkpt><trkpt lat="45.742975" lon="8.6008917"><ele>211.0</ele><time>2026-03-22T15:07:27.37Z</time></trkpt><trkpt lat="45.7430867" lon="8.6008267"><ele>211.0</ele><time>2026-03-22T15:07:28.37Z</time></trkpt><trkpt lat="45.7431983" lon="8.60076"><ele>211.0</ele><time>2026-03-22T15:07:29.37Z</time></trkpt><trkpt lat="45.7433133" lon="8.6006967"><ele>211.0</ele><time>2026-03-22T15:07:30.37Z</time></trkpt><trkpt lat="45.74343" lon="8.6006333"><ele>211.0</ele><time>2026-03-22T15:07:31.37Z</time></trkpt><trkpt lat="45.7435517" lon="8.6005633"><ele>211.0</ele><time>2026-03-22T15:07:32.37Z</time></trkpt><trkpt lat="45.743675" lon="8.6004867"><ele>211.0</ele><time>2026-03-22T15:07:33.37Z</time></trkpt><trkpt lat="45.7438" lon="8.6004083"><ele>211.0</ele><time>2026-03-22T15:07:34.37Z</time></trkpt><trkpt lat="45.743925" lon="8.600335"><ele>211.0</ele><time>2026-03-22T15:07:35.37Z</time></trkpt><trkpt lat="45.744045" lon="8.6002617"><ele>211.0</ele><time>2026-03-22T15:07:36.37Z</time></trkpt><trkpt lat="45.7441667" lon="8.600195"><ele>211.0</ele><time>2026-03-22T15:07:37.37Z</time></trkpt><trkpt lat="45.74429" lon="8.6001217"><ele>211.0</ele><time>2026-03-22T15:07:38.37Z</time></trkpt><trkpt lat="45.744415" lon="8.6000533"><ele>211.0</ele><time>2026-03-22T15:07:39.37Z</time></trkpt><trkpt lat="45.7445467" lon="8.5999733"><ele>210.75</ele><time>2026-03-22T15:07:40.37Z</time></trkpt><trkpt lat="45.744675" lon="8.5998983"><ele>210.5</ele><time>2026-03-22T15:07:41.37Z</time></trkpt><trkpt lat="45.744795" lon="8.599825"><ele>210.25</ele><time>2026-03-22T15:07:42.37Z</time></trkpt><trkpt lat="45.7449183" lon="8.5997567"><ele>210.0</ele><time>2026-03-22T15:07:43.37Z</time></trkpt><trkpt lat="45.7450417" lon="8.5996933"><ele>210.0</ele><time>2026-03-22T15:07:44.37Z</time></trkpt><trkpt lat="45.745165" lon="8.5996267"><ele>210.0</ele><time>2026-03-22T15:07:45.37Z</time></trkpt><trkpt lat="45.7452833" lon="8.59956"><ele>210.0</ele><time>2026-03-22T15:07:46.37Z</time></trkpt><trkpt lat="45.7453983" lon="8.5994917"><ele>210.0</ele><time>2026-03-22T15:07:47.37Z</time></trkpt><trkpt lat="45.7455083" lon="8.59943"><ele>209.25</ele><time>2026-03-22T15:07:48.37Z</time></trkpt><trkpt lat="45.7456267" lon="8.5993617"><ele>208.5</ele><time>2026-03-22T15:07:49.37Z</time></trkpt><trkpt lat="45.7457417" lon="8.5992883"><ele>207.75</ele><time>2026-03-22T15:07:50.37Z</time></trkpt><trkpt lat="45.7458667" lon="8.5992117"><ele>207.0</ele><time>2026-03-22T15:07:51.37Z</time></trkpt><trkpt lat="45.7460067" lon="8.59913"><ele>206.66666666666669</ele><time>2026-03-22T15:07:52.37Z</time></trkpt><trkpt lat="45.74615" lon="8.5990417"><ele>206.33333333333334</ele><time>2026-03-22T15:07:53.37Z</time></trkpt><trkpt lat="45.7463033" lon="8.5989383"><ele>206.0</ele><time>2026-03-22T15:07:54.37Z</time></trkpt><trkpt lat="45.74646" lon="8.5988317"><ele>206.0</ele><time>2026-03-22T15:07:55.37Z</time></trkpt><trkpt lat="45.7466167" lon="8.59875"><ele>206.0</ele><time>2026-03-22T15:07:56.37Z</time></trkpt><trkpt lat="45.7467617" lon="8.5986717"><ele>206.0</ele><time>2026-03-22T15:07:57.37Z</time></trkpt><trkpt lat="45.7468967" lon="8.5985933"><ele>206.0</ele><time>2026-03-22T15:07:58.37Z</time></trkpt><trkpt lat="45.7470317" lon="8.5985183"><ele>206.0</ele><time>2026-03-22T15:07:59.37Z</time></trkpt><trkpt lat="45.747165" lon="8.59844"><ele>206.0</ele><time>2026-03-22T15:08:00.37Z</time></trkpt><trkpt lat="45.7473083" lon="8.59836"><ele>206.0</ele><time>2026-03-22T15:08:01.37Z</time></trkpt><trkpt lat="45.7474617" lon="8.5982717"><ele>206.0</ele><time>2026-03-22T15:08:02.37Z</time></trkpt><trkpt lat="45.74761" lon="8.59819"><ele>206.0</ele><time>2026-03-22T15:08:03.37Z</time></trkpt><trkpt lat="45.7477667" lon="8.5980967"><ele>206.0</ele><time>2026-03-22T15:08:04.37Z</time></trkpt><trkpt lat="45.7479217" lon="8.5980033"><ele>206.0</ele><time>2026-03-22T15:08:05.37Z</time></trkpt><trkpt lat="45.74807" lon="8.59793"><ele>206.0</ele><time>2026-03-22T15:08:06.37Z</time></trkpt><trkpt lat="45.74821" lon="8.5978533"><ele>206.0</ele><time>2026-03-22T15:08:07.37Z</time></trkpt><trkpt lat="45.7483467" lon="8.597785"><ele>206.0</ele><time>2026-03-22T15:08:08.37Z</time></trkpt><trkpt lat="45.74847" lon="8.5977083"><ele>206.0</ele><time>2026-03-22T15:08:09.37Z</time></trkpt><trkpt lat="45.7485883" lon="8.5976367"><ele>206.0</ele><time>2026-03-22T15:08:10.37Z</time></trkpt><trkpt lat="45.74871" lon="8.5975633"><ele>206.0</ele><time>2026-03-22T15:08:11.37Z</time></trkpt><trkpt lat="45.7488283" lon="8.5974983"><ele>206.25</ele><time>2026-03-22T15:08:12.37Z</time></trkpt><trkpt lat="45.7489417" lon="8.5974283"><ele>206.5</ele><time>2026-03-22T15:08:13.37Z</time></trkpt><trkpt lat="45.7490567" lon="8.59736"><ele>206.75</ele><time>2026-03-22T15:08:14.37Z</time></trkpt><trkpt lat="45.7491767" lon="8.5972933"><ele>207.0</ele><time>2026-03-22T15:08:15.37Z</time></trkpt><trkpt lat="45.7493033" lon="8.59722"><ele>207.0</ele><time>2026-03-22T15:08:16.37Z</time></trkpt><trkpt lat="45.7494283" lon="8.5971467"><ele>207.0</ele><time>2026-03-22T15:08:17.37Z</time></trkpt><trkpt lat="45.7495417" lon="8.59708"><ele>207.0</ele><time>2026-03-22T15:08:18.37Z</time></trkpt><trkpt lat="45.749655" lon="8.59702"><ele>207.0</ele><time>2026-03-22T15:08:19.37Z</time></trkpt><trkpt lat="45.7497617" lon="8.5969683"><ele>207.0</ele><time>2026-03-22T15:08:20.37Z</time></trkpt><trkpt lat="45.7498617" lon="8.596925"><ele>207.0</ele><time>2026-03-22T15:08:21.37Z</time></trkpt><trkpt lat="45.749965" lon="8.5969033"><ele>207.0</ele><time>2026-03-22T15:08:22.37Z</time></trkpt><trkpt lat="45.7500783" lon="8.596885"><ele>207.0</ele><time>2026-03-22T15:08:23.37Z</time></trkpt><trkpt lat="45.7502" lon="8.59689"><ele>207.0</ele><time>2026-03-22T15:08:24.37Z</time></trkpt><trkpt lat="45.7503283" lon="8.5968983"><ele>207.0</ele><time>2026-03-22T15:08:25.37Z</time></trkpt><trkpt lat="45.7504683" lon="8.59694"><ele>207.0</ele><time>2026-03-22T15:08:26.37Z</time></trkpt><trkpt lat="45.7506017" lon="8.5969983"><ele>207.0</ele><time>2026-03-22T15:08:27.37Z</time></trkpt><trkpt lat="45.75074" lon="8.597075"><ele>207.0</ele><time>2026-03-22T15:08:28.37Z</time></trkpt><trkpt lat="45.7508617" lon="8.59714"><ele>207.0</ele><time>2026-03-22T15:08:29.37Z</time></trkpt><trkpt lat="45.7509767" lon="8.5971883"><ele>207.0</ele><time>2026-03-22T15:08:30.37Z</time></trkpt><trkpt lat="45.7510883" lon="8.5972317"><ele>207.0</ele><time>2026-03-22T15:08:31.37Z</time></trkpt><trkpt lat="45.75121" lon="8.59729"><ele>207.0</ele><time>2026-03-22T15:08:32.37Z</time></trkpt><trkpt lat="45.751335" lon="8.5973533"><ele>207.0</ele><time>2026-03-22T15:08:33.37Z</time></trkpt><trkpt lat="45.7514517" lon="8.59741"><ele>207.0</ele><time>2026-03-22T15:08:34.37Z</time></trkpt><trkpt lat="45.7515617" lon="8.597465"><ele>207.0</ele><time>2026-03-22T15:08:35.37Z</time></trkpt><trkpt lat="45.7516633" lon="8.597515"><ele>207.0</ele><time>2026-03-22T15:08:36.37Z</time></trkpt><trkpt lat="45.7517633" lon="8.597565"><ele>207.0</ele><time>2026-03-22T15:08:37.37Z</time></trkpt><trkpt lat="45.7518683" lon="8.597605"><ele>207.0</ele><time>2026-03-22T15:08:38.37Z</time></trkpt><trkpt lat="45.75198" lon="8.5976533"><ele>207.0</ele><time>2026-03-22T15:08:39.37Z</time></trkpt><trkpt lat="45.7520967" lon="8.5977183"><ele>207.0</ele><time>2026-03-22T15:08:40.37Z</time></trkpt><trkpt lat="45.7522233" lon="8.5977867"><ele>207.75</ele><time>2026-03-22T15:08:41.37Z</time></trkpt><trkpt lat="45.75235" lon="8.5978533"><ele>208.5</ele><time>2026-03-22T15:08:42.37Z</time></trkpt><trkpt lat="45.75249" lon="8.59791"><ele>209.25</ele><time>2026-03-22T15:08:43.37Z</time></trkpt><trkpt lat="45.752625" lon="8.5979617"><ele>210.0</ele><time>2026-03-22T15:08:44.37Z</time></trkpt><trkpt lat="45.7527533" lon="8.59802"><ele>210.0</ele><time>2026-03-22T15:08:45.37Z</time></trkpt><trkpt lat="45.7528783" lon="8.5980733"><ele>210.0</ele><time>2026-03-22T15:08:46.37Z</time></trkpt><trkpt lat="45.7530033" lon="8.59813"><ele>210.0</ele><time>2026-03-22T15:08:47.37Z</time></trkpt><trkpt lat="45.7531317" lon="8.5981967"><ele>210.0</ele><time>2026-03-22T15:08:48.37Z</time></trkpt><trkpt lat="45.7532683" lon="8.5982567"><ele>210.0</ele><time>2026-03-22T15:08:49.37Z</time></trkpt><trkpt lat="45.7534083" lon="8.5983217"><ele>210.0</ele><time>2026-03-22T15:08:50.37Z</time></trkpt><trkpt lat="45.7535517" lon="8.5983833"><ele>210.0</ele><time>2026-03-22T15:08:51.37Z</time></trkpt><trkpt lat="45.75369" lon="8.5984517"><ele>210.0</ele><time>2026-03-22T15:08:52.37Z</time></trkpt><trkpt lat="45.7538317" lon="8.5985233"><ele>209.66666666666669</ele><time>2026-03-22T15:08:53.37Z</time></trkpt><trkpt lat="45.7539817" lon="8.5985967"><ele>209.33333333333334</ele><time>2026-03-22T15:08:54.37Z</time></trkpt><trkpt lat="45.7541383" lon="8.5986683"><ele>209.0</ele><time>2026-03-22T15:08:55.37Z</time></trkpt><trkpt lat="45.7542983" lon="8.59874"><ele>210.33333333333334</ele><time>2026-03-22T15:08:56.37Z</time></trkpt><trkpt lat="45.754455" lon="8.5988133"><ele>211.66666666666669</ele><time>2026-03-22T15:08:57.37Z</time></trkpt><trkpt lat="45.7546033" lon="8.5988833"><ele>213.0</ele><time>2026-03-22T15:08:58.37Z</time></trkpt><trkpt lat="45.7547517" lon="8.5989533"><ele>213.0</ele><time>2026-03-22T15:08:59.37Z</time></trkpt><trkpt lat="45.754895" lon="8.599025"><ele>213.0</ele><time>2026-03-22T15:09:00.37Z</time></trkpt><trkpt lat="45.7550433" lon="8.5990917"><ele>213.0</ele><time>2026-03-22T15:09:01.371Z</time></trkpt><trkpt lat="45.7551867" lon="8.5991567"><ele>212.75</ele><time>2026-03-22T15:09:02.37Z</time></trkpt><trkpt lat="45.7553217" lon="8.5992167"><ele>212.5</ele><time>2026-03-22T15:09:03.37Z</time></trkpt><trkpt lat="45.7554633" lon="8.59927"><ele>212.25</ele><time>2026-03-22T15:09:04.37Z</time></trkpt><trkpt lat="45.7556067" lon="8.5993317"><ele>212.0</ele><time>2026-03-22T15:09:05.37Z</time></trkpt><trkpt lat="45.755755" lon="8.59941"><ele>212.0</ele><time>2026-03-22T15:09:06.37Z</time></trkpt><trkpt lat="45.755905" lon="8.5994833"><ele>212.0</ele><time>2026-03-22T15:09:07.37Z</time></trkpt><trkpt lat="45.7560567" lon="8.5995533"><ele>212.0</ele><time>2026-03-22T15:09:08.37Z</time></trkpt><trkpt lat="45.756205" lon="8.5996083"><ele>212.0</ele><time>2026-03-22T15:09:09.37Z</time></trkpt><trkpt lat="45.7563417" lon="8.5996533"><ele>212.0</ele><time>2026-03-22T15:09:10.37Z</time></trkpt><trkpt lat="45.756475" lon="8.59969"><ele>212.0</ele><time>2026-03-22T15:09:11.37Z</time></trkpt><trkpt lat="45.756605" lon="8.5997133"><ele>212.0</ele><time>2026-03-22T15:09:12.37Z</time></trkpt><trkpt lat="45.75674" lon="8.599735"><ele>211.5</ele><time>2026-03-22T15:09:13.37Z</time></trkpt><trkpt lat="45.7568767" lon="8.59975"><ele>211.0</ele><time>2026-03-22T15:09:14.37Z</time></trkpt><trkpt lat="45.7570033" lon="8.5997767"><ele>210.5</ele><time>2026-03-22T15:09:15.37Z</time></trkpt><trkpt lat="45.7571233" lon="8.5997983"><ele>210.0</ele><time>2026-03-22T15:09:16.37Z</time></trkpt><trkpt lat="45.7572467" lon="8.5998033"><ele>210.0</ele><time>2026-03-22T15:09:17.37Z</time></trkpt><trkpt lat="45.757375" lon="8.5998167"><ele>210.0</ele><time>2026-03-22T15:09:18.37Z</time></trkpt><trkpt lat="45.7575033" lon="8.5998433"><ele>210.0</ele><time>2026-03-22T15:09:19.37Z</time></trkpt><trkpt lat="45.757635" lon="8.5998583"><ele>210.0</ele><time>2026-03-22T15:09:20.37Z</time></trkpt><trkpt lat="45.7577767" lon="8.59987"><ele>210.33333333333331</ele><time>2026-03-22T15:09:21.37Z</time></trkpt><trkpt lat="45.7579233" lon="8.59989"><ele>210.66666666666666</ele><time>2026-03-22T15:09:22.37Z</time></trkpt><trkpt lat="45.7580783" lon="8.5999017"><ele>211.0</ele><time>2026-03-22T15:09:23.37Z</time></trkpt><trkpt lat="45.7582367" lon="8.5999133"><ele>211.0</ele><time>2026-03-22T15:09:24.37Z</time></trkpt><trkpt lat="45.7583933" lon="8.599925"><ele>211.0</ele><time>2026-03-22T15:09:25.37Z</time></trkpt><trkpt lat="45.7585417" lon="8.599945"><ele>211.0</ele><time>2026-03-22T15:09:26.37Z</time></trkpt><trkpt lat="45.7586883" lon="8.5999633"><ele>210.75</ele><time>2026-03-22T15:09:27.37Z</time></trkpt><trkpt lat="45.7588267" lon="8.5999783"><ele>210.5</ele><time>2026-03-22T15:09:28.37Z</time></trkpt><trkpt lat="45.7589633" lon="8.5999917"><ele>210.25</ele><time>2026-03-22T15:09:29.37Z</time></trkpt><trkpt lat="45.7590767" lon="8.6000033"><ele>210.0</ele><time>2026-03-22T15:09:30.37Z</time></trkpt><trkpt lat="45.7591917" lon="8.6000183"><ele>210.0</ele><time>2026-03-22T15:09:31.37Z</time></trkpt><trkpt lat="45.7593033" lon="8.6000333"><ele>210.0</ele><time>2026-03-22T15:09:32.37Z</time></trkpt><trkpt lat="45.7594133" lon="8.6000467"><ele>210.0</ele><time>2026-03-22T15:09:33.37Z</time></trkpt><trkpt lat="45.759535" lon="8.60006"><ele>210.0</ele><time>2026-03-22T15:09:34.37Z</time></trkpt><trkpt lat="45.759675" lon="8.6000767"><ele>209.33333333333331</ele><time>2026-03-22T15:09:35.37Z</time></trkpt><trkpt lat="45.7598267" lon="8.600085"><ele>208.66666666666666</ele><time>2026-03-22T15:09:36.37Z</time></trkpt><trkpt lat="45.7599883" lon="8.6000983"><ele>208.0</ele><time>2026-03-22T15:09:37.37Z</time></trkpt><trkpt lat="45.7601583" lon="8.600095"><ele>207.66666666666666</ele><time>2026-03-22T15:09:38.37Z</time></trkpt><trkpt lat="45.7603233" lon="8.6000783"><ele>207.33333333333331</ele><time>2026-03-22T15:09:39.37Z</time></trkpt><trkpt lat="45.760495" lon="8.6000533"><ele>207.0</ele><time>2026-03-22T15:09:40.37Z</time></trkpt><trkpt lat="45.7606783" lon="8.6000283"><ele>207.0</ele><time>2026-03-22T15:09:41.37Z</time></trkpt><trkpt lat="45.7608683" lon="8.59998"><ele>207.0</ele><time>2026-03-22T15:09:42.37Z</time></trkpt><trkpt lat="45.7610433" lon="8.5999367"><ele>207.0</ele><time>2026-03-22T15:09:43.37Z</time></trkpt><trkpt lat="45.761215" lon="8.599895"><ele>207.66666666666669</ele><time>2026-03-22T15:09:44.37Z</time></trkpt><trkpt lat="45.76139" lon="8.5998517"><ele>208.33333333333334</ele><time>2026-03-22T15:09:45.37Z</time></trkpt><trkpt lat="45.76156" lon="8.59981"><ele>209.0</ele><time>2026-03-22T15:09:46.37Z</time></trkpt><trkpt lat="45.7617217" lon="8.599755"><ele>209.66666666666669</ele><time>2026-03-22T15:09:47.37Z</time></trkpt><trkpt lat="45.76188" lon="8.59968"><ele>210.33333333333331</ele><time>2026-03-22T15:09:48.37Z</time></trkpt><trkpt lat="45.76203" lon="8.5995983"><ele>211.0</ele><time>2026-03-22T15:09:49.37Z</time></trkpt><trkpt lat="45.76218" lon="8.5995117"><ele>211.0</ele><time>2026-03-22T15:09:50.371Z</time></trkpt><trkpt lat="45.7623283" lon="8.599415"><ele>211.0</ele><time>2026-03-22T15:09:51.37Z</time></trkpt><trkpt lat="45.76247" lon="8.599325"><ele>211.0</ele><time>2026-03-22T15:09:52.37Z</time></trkpt><trkpt lat="45.762595" lon="8.599235"><ele>210.33333333333331</ele><time>2026-03-22T15:09:53.37Z</time></trkpt><trkpt lat="45.76273" lon="8.5991283"><ele>209.66666666666669</ele><time>2026-03-22T15:09:54.37Z</time></trkpt><trkpt lat="45.76286" lon="8.599025"><ele>209.0</ele><time>2026-03-22T15:09:55.37Z</time></trkpt><trkpt lat="45.7629983" lon="8.5989117"><ele>209.0</ele><time>2026-03-22T15:09:56.37Z</time></trkpt><trkpt lat="45.7631317" lon="8.5987967"><ele>209.0</ele><time>2026-03-22T15:09:57.37Z</time></trkpt><trkpt lat="45.763265" lon="8.59868"><ele>209.0</ele><time>2026-03-22T15:09:58.37Z</time></trkpt><trkpt lat="45.7633933" lon="8.59857"><ele>209.0</ele><time>2026-03-22T15:09:59.37Z</time></trkpt><trkpt lat="45.7635117" lon="8.5984583"><ele>209.0</ele><time>2026-03-22T15:10:00.37Z</time></trkpt><trkpt lat="45.7636367" lon="8.5983483"><ele>209.0</ele><time>2026-03-22T15:10:01.37Z</time></trkpt><trkpt lat="45.7637683" lon="8.5982183"><ele>209.0</ele><time>2026-03-22T15:10:02.37Z</time></trkpt><trkpt lat="45.7639083" lon="8.59809"><ele>209.0</ele><time>2026-03-22T15:10:03.37Z</time></trkpt><trkpt lat="45.7640517" lon="8.597975"><ele>209.0</ele><time>2026-03-22T15:10:04.37Z</time></trkpt><trkpt lat="45.76418" lon="8.5978633"><ele>209.0</ele><time>2026-03-22T15:10:05.37Z</time></trkpt><trkpt lat="45.7643083" lon="8.5977533"><ele>209.5</ele><time>2026-03-22T15:10:06.37Z</time></trkpt><trkpt lat="45.7644333" lon="8.5976417"><ele>210.0</ele><time>2026-03-22T15:10:07.37Z</time></trkpt><trkpt lat="45.76456" lon="8.5975383"><ele>210.5</ele><time>2026-03-22T15:10:08.37Z</time></trkpt><trkpt lat="45.7646767" lon="8.5974367"><ele>211.0</ele><time>2026-03-22T15:10:09.37Z</time></trkpt><trkpt lat="45.764785" lon="8.5973467"><ele>211.0</ele><time>2026-03-22T15:10:10.37Z</time></trkpt><trkpt lat="45.7648883" lon="8.5972583"><ele>211.0</ele><time>2026-03-22T15:10:11.37Z</time></trkpt><trkpt lat="45.764985" lon="8.59718"><ele>211.0</ele><time>2026-03-22T15:10:12.37Z</time></trkpt><trkpt lat="45.7650783" lon="8.5971"><ele>211.0</ele><time>2026-03-22T15:10:13.37Z</time></trkpt><trkpt lat="45.765175" lon="8.5970033"><ele>210.5</ele><time>2026-03-22T15:10:14.37Z</time></trkpt><trkpt lat="45.7652767" lon="8.5969067"><ele>210.0</ele><time>2026-03-22T15:10:15.37Z</time></trkpt><trkpt lat="45.7653817" lon="8.5968083"><ele>209.5</ele><time>2026-03-22T15:10:16.37Z</time></trkpt><trkpt lat="45.7654983" lon="8.5967067"><ele>209.0</ele><time>2026-03-22T15:10:17.37Z</time></trkpt><trkpt lat="45.7656167" lon="8.5966083"><ele>209.0</ele><time>2026-03-22T15:10:18.37Z</time></trkpt><trkpt lat="45.7657333" lon="8.596495"><ele>209.0</ele><time>2026-03-22T15:10:19.37Z</time></trkpt><trkpt lat="45.7658533" lon="8.596395"><ele>209.0</ele><time>2026-03-22T15:10:20.37Z</time></trkpt><trkpt lat="45.7659733" lon="8.5962933"><ele>209.0</ele><time>2026-03-22T15:10:21.37Z</time></trkpt><trkpt lat="45.7661033" lon="8.5961967"><ele>208.25</ele><time>2026-03-22T15:10:22.37Z</time></trkpt><trkpt lat="45.7662317" lon="8.5961067"><ele>207.5</ele><time>2026-03-22T15:10:23.37Z</time></trkpt><trkpt lat="45.7663633" lon="8.59603"><ele>206.75</ele><time>2026-03-22T15:10:24.37Z</time></trkpt><trkpt lat="45.7664983" lon="8.5959633"><ele>206.0</ele><time>2026-03-22T15:10:25.37Z</time></trkpt><trkpt lat="45.766625" lon="8.5959133"><ele>206.0</ele><time>2026-03-22T15:10:26.37Z</time></trkpt><trkpt lat="45.7667517" lon="8.5958567"><ele>206.0</ele><time>2026-03-22T15:10:27.37Z</time></trkpt><trkpt lat="45.7668767" lon="8.5958033"><ele>206.0</ele><time>2026-03-22T15:10:28.37Z</time></trkpt><trkpt lat="45.7670017" lon="8.5957483"><ele>206.0</ele><time>2026-03-22T15:10:29.37Z</time></trkpt><trkpt lat="45.7671217" lon="8.5957083"><ele>206.4</ele><time>2026-03-22T15:10:30.37Z</time></trkpt><trkpt lat="45.7672283" lon="8.595675"><ele>206.8</ele><time>2026-03-22T15:10:31.37Z</time></trkpt><trkpt lat="45.767335" lon="8.5956467"><ele>207.20000000000002</ele><time>2026-03-22T15:10:32.37Z</time></trkpt><trkpt lat="45.767445" lon="8.5956233"><ele>207.60000000000002</ele><time>2026-03-22T15:10:33.37Z</time></trkpt><trkpt lat="45.7675517" lon="8.5955967"><ele>208.0</ele><time>2026-03-22T15:10:34.37Z</time></trkpt><trkpt lat="45.7676633" lon="8.5955667"><ele>208.25</ele><time>2026-03-22T15:10:35.37Z</time></trkpt><trkpt lat="45.7677833" lon="8.5955233"><ele>208.5</ele><time>2026-03-22T15:10:36.37Z</time></trkpt><trkpt lat="45.7678933" lon="8.5954833"><ele>208.75</ele><time>2026-03-22T15:10:37.37Z</time></trkpt><trkpt lat="45.7680083" lon="8.595445"><ele>209.0</ele><time>2026-03-22T15:10:38.37Z</time></trkpt><trkpt lat="45.7681133" lon="8.5954133"><ele>209.0</ele><time>2026-03-22T15:10:39.37Z</time></trkpt><trkpt lat="45.76822" lon="8.5954"><ele>209.0</ele><time>2026-03-22T15:10:40.37Z</time></trkpt><trkpt lat="45.7683133" lon="8.5953733"><ele>209.0</ele><time>2026-03-22T15:10:41.37Z</time></trkpt><trkpt lat="45.7683967" lon="8.5953483"><ele>209.0</ele><time>2026-03-22T15:10:42.37Z</time></trkpt><trkpt lat="45.76848" lon="8.5953283"><ele>209.0</ele><time>2026-03-22T15:10:43.37Z</time></trkpt><trkpt lat="45.7685583" lon="8.59531"><ele>209.0</ele><time>2026-03-22T15:10:44.37Z</time></trkpt><trkpt lat="45.76863" lon="8.5952983"><ele>209.0</ele><time>2026-03-22T15:10:45.37Z</time></trkpt><trkpt lat="45.7687133" lon="8.5952767"><ele>209.0</ele><time>2026-03-22T15:10:46.37Z</time></trkpt><trkpt lat="45.7688117" lon="8.59525"><ele>209.0</ele><time>2026-03-22T15:10:47.37Z</time></trkpt><trkpt lat="45.7689083" lon="8.5952183"><ele>209.0</ele><time>2026-03-22T15:10:48.37Z</time></trkpt><trkpt lat="45.7690183" lon="8.5951783"><ele>209.0</ele><time>2026-03-22T15:10:49.37Z</time></trkpt><trkpt lat="45.7691167" lon="8.5951417"><ele>209.0</ele><time>2026-03-22T15:10:50.37Z</time></trkpt><trkpt lat="45.7692117" lon="8.595105"><ele>209.0</ele><time>2026-03-22T15:10:51.37Z</time></trkpt><trkpt lat="45.7693133" lon="8.595065"><ele>209.0</ele><time>2026-03-22T15:10:52.37Z</time></trkpt><trkpt lat="45.7694217" lon="8.5950183"><ele>209.0</ele><time>2026-03-22T15:10:53.37Z</time></trkpt><trkpt lat="45.7695317" lon="8.59497"><ele>209.0</ele><time>2026-03-22T15:10:54.37Z</time></trkpt><trkpt lat="45.7696333" lon="8.5949083"><ele>209.0</ele><time>2026-03-22T15:10:55.37Z</time></trkpt><trkpt lat="45.7697367" lon="8.5948517"><ele>209.0</ele><time>2026-03-22T15:10:56.37Z</time></trkpt><trkpt lat="45.76984" lon="8.5947833"><ele>209.0</ele><time>2026-03-22T15:10:57.37Z</time></trkpt><trkpt lat="45.76995" lon="8.5947183"><ele>209.0</ele><time>2026-03-22T15:10:58.37Z</time></trkpt><trkpt lat="45.7700517" lon="8.5946517"><ele>209.0</ele><time>2026-03-22T15:10:59.37Z</time></trkpt><trkpt lat="45.770145" lon="8.5945783"><ele>209.0</ele><time>2026-03-22T15:11:00.37Z</time></trkpt><trkpt lat="45.7702467" lon="8.5945183"><ele>209.0</ele><time>2026-03-22T15:11:01.37Z</time></trkpt><trkpt lat="45.770345" lon="8.5944483"><ele>209.0</ele><time>2026-03-22T15:11:02.37Z</time></trkpt><trkpt lat="45.7704467" lon="8.5943783"><ele>209.25</ele><time>2026-03-22T15:11:03.37Z</time></trkpt><trkpt lat="45.770555" lon="8.5942983"><ele>209.5</ele><time>2026-03-22T15:11:04.37Z</time></trkpt><trkpt lat="45.77067" lon="8.594225"><ele>209.75</ele><time>2026-03-22T15:11:05.37Z</time></trkpt><trkpt lat="45.7707833" lon="8.59414"><ele>210.0</ele><time>2026-03-22T15:11:06.37Z</time></trkpt><trkpt lat="45.770905" lon="8.59405"><ele>210.0</ele><time>2026-03-22T15:11:07.37Z</time></trkpt><trkpt lat="45.7710367" lon="8.5939433"><ele>210.0</ele><time>2026-03-22T15:11:08.37Z</time></trkpt><trkpt lat="45.7711883" lon="8.5938383"><ele>210.0</ele><time>2026-03-22T15:11:09.37Z</time></trkpt><trkpt lat="45.7713417" lon="8.593735"><ele>210.0</ele><time>2026-03-22T15:11:10.37Z</time></trkpt><trkpt lat="45.7714817" lon="8.5936467"><ele>210.0</ele><time>2026-03-22T15:11:11.37Z</time></trkpt><trkpt lat="45.771615" lon="8.5935517"><ele>210.0</ele><time>2026-03-22T15:11:12.37Z</time></trkpt><trkpt lat="45.7717533" lon="8.5934667"><ele>209.75</ele><time>2026-03-22T15:11:13.37Z</time></trkpt><trkpt lat="45.77189" lon="8.59337"><ele>209.5</ele><time>2026-03-22T15:11:14.37Z</time></trkpt><trkpt lat="45.7720233" lon="8.5932817"><ele>209.25</ele><time>2026-03-22T15:11:15.37Z</time></trkpt><trkpt lat="45.7721383" lon="8.5931967"><ele>209.0</ele><time>2026-03-22T15:11:16.37Z</time></trkpt><trkpt lat="45.7722417" lon="8.5931183"><ele>209.0</ele><time>2026-03-22T15:11:17.37Z</time></trkpt><trkpt lat="45.77235" lon="8.59305"><ele>209.0</ele><time>2026-03-22T15:11:18.37Z</time></trkpt><trkpt lat="45.77245" lon="8.592975"><ele>209.0</ele><time>2026-03-22T15:11:19.37Z</time></trkpt><trkpt lat="45.77255" lon="8.5929117"><ele>209.0</ele><time>2026-03-22T15:11:20.37Z</time></trkpt><trkpt lat="45.772645" lon="8.59284"><ele>209.0</ele><time>2026-03-22T15:11:21.37Z</time></trkpt><trkpt lat="45.7727433" lon="8.5927683"><ele>208.5</ele><time>2026-03-22T15:11:22.37Z</time></trkpt><trkpt lat="45.772855" lon="8.5926867"><ele>208.0</ele><time>2026-03-22T15:11:23.37Z</time></trkpt><trkpt lat="45.7729683" lon="8.592605"><ele>207.5</ele><time>2026-03-22T15:11:24.37Z</time></trkpt><trkpt lat="45.7730783" lon="8.5925267"><ele>207.0</ele><time>2026-03-22T15:11:25.37Z</time></trkpt><trkpt lat="45.773195" lon="8.5924533"><ele>207.0</ele><time>2026-03-22T15:11:26.37Z</time></trkpt><trkpt lat="45.7733067" lon="8.5923683"><ele>207.0</ele><time>2026-03-22T15:11:27.37Z</time></trkpt><trkpt lat="45.7734067" lon="8.5922617"><ele>207.0</ele><time>2026-03-22T15:11:28.37Z</time></trkpt><trkpt lat="45.7735067" lon="8.5921517"><ele>207.0</ele><time>2026-03-22T15:11:29.37Z</time></trkpt><trkpt lat="45.7736083" lon="8.5920383"><ele>207.25</ele><time>2026-03-22T15:11:30.37Z</time></trkpt><trkpt lat="45.7737083" lon="8.5919233"><ele>207.5</ele><time>2026-03-22T15:11:31.37Z</time></trkpt><trkpt lat="45.7737983" lon="8.5918"><ele>207.75</ele><time>2026-03-22T15:11:32.37Z</time></trkpt><trkpt lat="45.7738917" lon="8.5916717"><ele>208.0</ele><time>2026-03-22T15:11:33.37Z</time></trkpt><trkpt lat="45.773975" lon="8.591535"><ele>208.0</ele><time>2026-03-22T15:11:34.37Z</time></trkpt><trkpt lat="45.7740567" lon="8.5913933"><ele>208.0</ele><time>2026-03-22T15:11:35.37Z</time></trkpt><trkpt lat="45.7741267" lon="8.5912467"><ele>208.0</ele><time>2026-03-22T15:11:36.37Z</time></trkpt><trkpt lat="45.7741983" lon="8.5910917"><ele>208.0</ele><time>2026-03-22T15:11:37.37Z</time></trkpt><trkpt lat="45.7742633" lon="8.5909433"><ele>207.75</ele><time>2026-03-22T15:11:38.37Z</time></trkpt><trkpt lat="45.7743217" lon="8.5907917"><ele>207.5</ele><time>2026-03-22T15:11:39.37Z</time></trkpt><trkpt lat="45.7743733" lon="8.59063"><ele>207.25</ele><time>2026-03-22T15:11:40.37Z</time></trkpt><trkpt lat="45.7744283" lon="8.59047"><ele>207.0</ele><time>2026-03-22T15:11:41.37Z</time></trkpt><trkpt lat="45.774475" lon="8.5903133"><ele>207.75</ele><time>2026-03-22T15:11:42.37Z</time></trkpt><trkpt lat="45.7745283" lon="8.5901633"><ele>208.5</ele><time>2026-03-22T15:11:43.37Z</time></trkpt><trkpt lat="45.7745867" lon="8.59001"><ele>209.25</ele><time>2026-03-22T15:11:44.37Z</time></trkpt><trkpt lat="45.77464" lon="8.589875"><ele>210.0</ele><time>2026-03-22T15:11:45.37Z</time></trkpt><trkpt lat="45.77469" lon="8.5897417"><ele>210.0</ele><time>2026-03-22T15:11:46.37Z</time></trkpt><trkpt lat="45.7747517" lon="8.5896333"><ele>210.0</ele><time>2026-03-22T15:11:47.37Z</time></trkpt><trkpt lat="45.774815" lon="8.5895433"><ele>210.0</ele><time>2026-03-22T15:11:48.37Z</time></trkpt><trkpt lat="45.7748717" lon="8.5894733"><ele>210.0</ele><time>2026-03-22T15:11:49.37Z</time></trkpt><trkpt lat="45.7749233" lon="8.5894083"><ele>210.0</ele><time>2026-03-22T15:11:50.37Z</time></trkpt><trkpt lat="45.7750167" lon="8.589325"><ele>210.0</ele><time>2026-03-22T15:11:52.37Z</time></trkpt><trkpt lat="45.7750633" lon="8.589255"><ele>209.66666666666666</ele><time>2026-03-22T15:11:54.37Z</time></trkpt><trkpt lat="45.7750333" lon="8.58915"><ele>209.33333333333331</ele><time>2026-03-22T15:11:58.37Z</time></trkpt><trkpt lat="45.7749917" lon="8.58908"><ele>209.0</ele><time>2026-03-22T15:11:59.37Z</time></trkpt><trkpt lat="45.7749567" lon="8.589"><ele>208.66666666666666</ele><time>2026-03-22T15:12:00.37Z</time></trkpt><trkpt lat="45.7749567" lon="8.5889067"><ele>208.33333333333331</ele><time>2026-03-22T15:12:01.37Z</time></trkpt><trkpt lat="45.77498" lon="8.58878"><ele>208.0</ele><time>2026-03-22T15:12:02.37Z</time></trkpt><trkpt lat="45.7750083" lon="8.588625"><ele>208.0</ele><time>2026-03-22T15:12:03.37Z</time></trkpt><trkpt lat="45.7750367" lon="8.5884667"><ele>208.0</ele><time>2026-03-22T15:12:04.37Z</time></trkpt><trkpt lat="45.7750667" lon="8.58829"><ele>208.0</ele><time>2026-03-22T15:12:05.37Z</time></trkpt><trkpt lat="45.7750883" lon="8.5880983"><ele>208.0</ele><time>2026-03-22T15:12:06.37Z</time></trkpt><trkpt lat="45.7750933" lon="8.587915"><ele>208.0</ele><time>2026-03-22T15:12:07.37Z</time></trkpt><trkpt lat="45.7750933" lon="8.587735"><ele>208.0</ele><time>2026-03-22T15:12:08.37Z</time></trkpt><trkpt lat="45.7750833" lon="8.58755"><ele>208.0</ele><time>2026-03-22T15:12:09.37Z</time></trkpt><trkpt lat="45.7750717" lon="8.5873617"><ele>208.0</ele><time>2026-03-22T15:12:10.37Z</time></trkpt><trkpt lat="45.77505" lon="8.58717"><ele>208.25</ele><time>2026-03-22T15:12:11.37Z</time></trkpt><trkpt lat="45.7750217" lon="8.5869767"><ele>208.5</ele><time>2026-03-22T15:12:12.37Z</time></trkpt><trkpt lat="45.7749867" lon="8.586795"><ele>208.75</ele><time>2026-03-22T15:12:13.37Z</time></trkpt><trkpt lat="45.7749583" lon="8.5866133"><ele>209.0</ele><time>2026-03-22T15:12:14.37Z</time></trkpt><trkpt lat="45.7749283" lon="8.5864283"><ele>209.0</ele><time>2026-03-22T15:12:15.37Z</time></trkpt><trkpt lat="45.7748883" lon="8.58625"><ele>209.0</ele><time>2026-03-22T15:12:16.37Z</time></trkpt><trkpt lat="45.7748417" lon="8.5860733"><ele>209.0</ele><time>2026-03-22T15:12:17.37Z</time></trkpt><trkpt lat="45.7747917" lon="8.5858917"><ele>209.0</ele><time>2026-03-22T15:12:18.37Z</time></trkpt><trkpt lat="45.774745" lon="8.5857167"><ele>209.25</ele><time>2026-03-22T15:12:19.37Z</time></trkpt><trkpt lat="45.7747033" lon="8.5855383"><ele>209.5</ele><time>2026-03-22T15:12:20.37Z</time></trkpt><trkpt lat="45.774665" lon="8.5853667"><ele>209.75</ele><time>2026-03-22T15:12:21.37Z</time></trkpt><trkpt lat="45.7746283" lon="8.585205"><ele>210.0</ele><time>2026-03-22T15:12:22.37Z</time></trkpt><trkpt lat="45.77459" lon="8.5850533"><ele>210.0</ele><time>2026-03-22T15:12:23.37Z</time></trkpt><trkpt lat="45.774555" lon="8.5849083"><ele>210.0</ele><time>2026-03-22T15:12:24.37Z</time></trkpt><trkpt lat="45.7745217" lon="8.5847733"><ele>210.0</ele><time>2026-03-22T15:12:25.37Z</time></trkpt><trkpt lat="45.7744867" lon="8.5846317"><ele>210.0</ele><time>2026-03-22T15:12:26.37Z</time></trkpt><trkpt lat="45.7744467" lon="8.5844917"><ele>210.0</ele><time>2026-03-22T15:12:27.37Z</time></trkpt><trkpt lat="45.7744133" lon="8.5843517"><ele>210.0</ele><time>2026-03-22T15:12:28.37Z</time></trkpt><trkpt lat="45.7743767" lon="8.584215"><ele>210.0</ele><time>2026-03-22T15:12:29.37Z</time></trkpt><trkpt lat="45.7743367" lon="8.5840767"><ele>210.0</ele><time>2026-03-22T15:12:30.37Z</time></trkpt><trkpt lat="45.7743033" lon="8.583945"><ele>210.0</ele><time>2026-03-22T15:12:31.37Z</time></trkpt><trkpt lat="45.7742717" lon="8.5838167"><ele>210.0</ele><time>2026-03-22T15:12:32.37Z</time></trkpt><trkpt lat="45.77424" lon="8.58369"><ele>210.2</ele><time>2026-03-22T15:12:33.37Z</time></trkpt><trkpt lat="45.7742083" lon="8.5835617"><ele>210.4</ele><time>2026-03-22T15:12:34.37Z</time></trkpt><trkpt lat="45.7741717" lon="8.5834283"><ele>210.60000000000002</ele><time>2026-03-22T15:12:35.37Z</time></trkpt><trkpt lat="45.7741333" lon="8.58328"><ele>210.8</ele><time>2026-03-22T15:12:36.37Z</time></trkpt><trkpt lat="45.77409" lon="8.583105"><ele>211.0</ele><time>2026-03-22T15:12:37.37Z</time></trkpt><trkpt lat="45.7740467" lon="8.5829117"><ele>211.0</ele><time>2026-03-22T15:12:38.37Z</time></trkpt><trkpt lat="45.7739967" lon="8.5827383"><ele>211.0</ele><time>2026-03-22T15:12:39.37Z</time></trkpt><trkpt lat="45.7739533" lon="8.582575"><ele>211.0</ele><time>2026-03-22T15:12:40.37Z</time></trkpt><trkpt lat="45.773915" lon="8.5824183"><ele>211.0</ele><time>2026-03-22T15:12:41.37Z</time></trkpt><trkpt lat="45.7738883" lon="8.5822667"><ele>211.0</ele><time>2026-03-22T15:12:42.37Z</time></trkpt><trkpt lat="45.7738533" lon="8.5821167"><ele>211.0</ele><time>2026-03-22T15:12:43.37Z</time></trkpt><trkpt lat="45.7738183" lon="8.581985"><ele>211.0</ele><time>2026-03-22T15:12:44.37Z</time></trkpt><trkpt lat="45.773785" lon="8.5818567"><ele>211.0</ele><time>2026-03-22T15:12:45.37Z</time></trkpt><trkpt lat="45.773755" lon="8.5817167"><ele>211.0</ele><time>2026-03-22T15:12:46.37Z</time></trkpt><trkpt lat="45.77372" lon="8.58157"><ele>211.0</ele><time>2026-03-22T15:12:47.37Z</time></trkpt><trkpt lat="45.77369" lon="8.5814217"><ele>211.0</ele><time>2026-03-22T15:12:48.37Z</time></trkpt><trkpt lat="45.773665" lon="8.58127"><ele>211.0</ele><time>2026-03-22T15:12:49.37Z</time></trkpt><trkpt lat="45.7736433" lon="8.5811167"><ele>211.0</ele><time>2026-03-22T15:12:50.37Z</time></trkpt><trkpt lat="45.7736317" lon="8.58096"><ele>211.0</ele><time>2026-03-22T15:12:51.37Z</time></trkpt><trkpt lat="45.7736317" lon="8.580805"><ele>210.8</ele><time>2026-03-22T15:12:52.37Z</time></trkpt><trkpt lat="45.7736233" lon="8.580655"><ele>210.60000000000002</ele><time>2026-03-22T15:12:53.37Z</time></trkpt><trkpt lat="45.7736167" lon="8.5805083"><ele>210.4</ele><time>2026-03-22T15:12:54.37Z</time></trkpt><trkpt lat="45.773605" lon="8.5803783"><ele>210.2</ele><time>2026-03-22T15:12:55.37Z</time></trkpt><trkpt lat="45.7735933" lon="8.580245"><ele>210.0</ele><time>2026-03-22T15:12:56.37Z</time></trkpt><trkpt lat="45.77359" lon="8.5801133"><ele>210.0</ele><time>2026-03-22T15:12:57.37Z</time></trkpt><trkpt lat="45.773585" lon="8.5799883"><ele>210.0</ele><time>2026-03-22T15:12:58.37Z</time></trkpt><trkpt lat="45.77357" lon="8.5798583"><ele>210.0</ele><time>2026-03-22T15:12:59.37Z</time></trkpt><trkpt lat="45.7735583" lon="8.5797333"><ele>210.0</ele><time>2026-03-22T15:13:00.37Z</time></trkpt><trkpt lat="45.7735517" lon="8.579615"><ele>210.0</ele><time>2026-03-22T15:13:01.37Z</time></trkpt><trkpt lat="45.77355" lon="8.5794983"><ele>210.0</ele><time>2026-03-22T15:13:02.37Z</time></trkpt><trkpt lat="45.7735417" lon="8.5793933"><ele>209.8</ele><time>2026-03-22T15:13:03.37Z</time></trkpt><trkpt lat="45.7735283" lon="8.579305"><ele>209.6</ele><time>2026-03-22T15:13:04.37Z</time></trkpt><trkpt lat="45.773525" lon="8.5791433"><ele>209.39999999999998</ele><time>2026-03-22T15:13:06.37Z</time></trkpt><trkpt lat="45.7735283" lon="8.5790217"><ele>209.2</ele><time>2026-03-22T15:13:08.37Z</time></trkpt><trkpt lat="45.7735683" lon="8.5789"><ele>209.0</ele><time>2026-03-22T15:13:10.37Z</time></trkpt><trkpt lat="45.7736517" lon="8.5788283"><ele>209.0</ele><time>2026-03-22T15:13:12.37Z</time></trkpt><trkpt lat="45.7737217" lon="8.5788317"><ele>209.0</ele><time>2026-03-22T15:13:13.37Z</time></trkpt><trkpt lat="45.7738067" lon="8.5788433"><ele>209.0</ele><time>2026-03-22T15:13:14.37Z</time></trkpt><trkpt lat="45.77391" lon="8.5788617"><ele>209.0</ele><time>2026-03-22T15:13:15.37Z</time></trkpt><trkpt lat="45.7740217" lon="8.5788733"><ele>209.0</ele><time>2026-03-22T15:13:16.37Z</time></trkpt><trkpt lat="45.7741317" lon="8.57889"><ele>209.0</ele><time>2026-03-22T15:13:17.37Z</time></trkpt><trkpt lat="45.774245" lon="8.5789133"><ele>209.0</ele><time>2026-03-22T15:13:18.37Z</time></trkpt><trkpt lat="45.7743617" lon="8.5789367"><ele>209.0</ele><time>2026-03-22T15:13:19.37Z</time></trkpt><trkpt lat="45.7744833" lon="8.5789583"><ele>209.0</ele><time>2026-03-22T15:13:20.37Z</time></trkpt><trkpt lat="45.7746033" lon="8.5789867"><ele>210.33333333333334</ele><time>2026-03-22T15:13:21.37Z</time></trkpt><trkpt lat="45.774705" lon="8.5790117"><ele>211.66666666666669</ele><time>2026-03-22T15:13:22.37Z</time></trkpt><trkpt lat="45.7747883" lon="8.579035"><ele>213.0</ele><time>2026-03-22T15:13:23.37Z</time></trkpt><trkpt lat="45.7748517" lon="8.5790533"><ele>214.33333333333331</ele><time>2026-03-22T15:13:24.37Z</time></trkpt><trkpt lat="45.77492" lon="8.5790633"><ele>215.66666666666666</ele><time>2026-03-22T15:13:26.37Z</time></trkpt><trkpt lat="45.7749583" lon="8.5789833"><ele>217.0</ele><time>2026-03-22T15:13:28.37Z</time></trkpt><trkpt lat="45.7749683" lon="8.5787933"><ele>216.39999999999998</ele><time>2026-03-22T15:13:30.37Z</time></trkpt><trkpt lat="45.7749767" lon="8.5786717"><ele>215.79999999999998</ele><time>2026-03-22T15:13:31.37Z</time></trkpt><trkpt lat="45.77499" lon="8.57852"><ele>215.2</ele><time>2026-03-22T15:13:32.37Z</time></trkpt><trkpt lat="45.77501" lon="8.5783783"><ele>214.6</ele><time>2026-03-22T15:13:33.37Z</time></trkpt><trkpt lat="45.775025" lon="8.5782583"><ele>214.0</ele><time>2026-03-22T15:13:34.37Z</time></trkpt><trkpt lat="45.775035" lon="8.578155"><ele>213.99999999999997</ele><time>2026-03-22T15:13:35.37Z</time></trkpt><trkpt lat="45.77505" lon="8.5780667"><ele>214.0</ele><time>2026-03-22T15:13:36.37Z</time></trkpt><trkpt lat="45.7750633" lon="8.5779533"><ele>214.0</ele><time>2026-03-22T15:13:37.37Z</time></trkpt><trkpt lat="45.7750817" lon="8.5778283"><ele>214.0</ele><time>2026-03-22T15:13:38.37Z</time></trkpt><trkpt lat="45.775095" lon="8.5776867"><ele>213.99999999999997</ele><time>2026-03-22T15:13:39.37Z</time></trkpt><trkpt lat="45.7750917" lon="8.5775517"><ele>214.0</ele><time>2026-03-22T15:13:40.37Z</time></trkpt><trkpt lat="45.7750717" lon="8.5774067"><ele>213.6</ele><time>2026-03-22T15:13:41.37Z</time></trkpt><trkpt lat="45.7750383" lon="8.577275"><ele>213.2</ele><time>2026-03-22T15:13:42.37Z</time></trkpt><trkpt lat="45.7750133" lon="8.5771583"><ele>212.79999999999998</ele><time>2026-03-22T15:13:43.37Z</time></trkpt><trkpt lat="45.775005" lon="8.5770333"><ele>212.39999999999998</ele><time>2026-03-22T15:13:44.37Z</time></trkpt><trkpt lat="45.77502" lon="8.5768783"><ele>212.0</ele><time>2026-03-22T15:13:45.37Z</time></trkpt><trkpt lat="45.7750567" lon="8.5767017"><ele>212.0</ele><time>2026-03-22T15:13:46.37Z</time></trkpt><trkpt lat="45.7750917" lon="8.5765"><ele>212.0</ele><time>2026-03-22T15:13:47.37Z</time></trkpt><trkpt lat="45.7751183" lon="8.5763"><ele>212.0</ele><time>2026-03-22T15:13:48.37Z</time></trkpt><trkpt lat="45.7751367" lon="8.5761083"><ele>212.0</ele><time>2026-03-22T15:13:49.37Z</time></trkpt><trkpt lat="45.7751667" lon="8.5759233"><ele>213.5</ele><time>2026-03-22T15:13:50.37Z</time></trkpt><trkpt lat="45.7751967" lon="8.5757317"><ele>215.0</ele><time>2026-03-22T15:13:51.37Z</time></trkpt><trkpt lat="45.77522" lon="8.57556"><ele>216.5</ele><time>2026-03-22T15:13:52.37Z</time></trkpt><trkpt lat="45.7752417" lon="8.5754067"><ele>218.0</ele><time>2026-03-22T15:13:53.37Z</time></trkpt><trkpt lat="45.77527" lon="8.5752967"><ele>217.8</ele><time>2026-03-22T15:13:54.37Z</time></trkpt><trkpt lat="45.775315" lon="8.575175"><ele>217.60000000000002</ele><time>2026-03-22T15:13:56.37Z</time></trkpt><trkpt lat="45.7753067" lon="8.5750667"><ele>217.39999999999998</ele><time>2026-03-22T15:13:58.37Z</time></trkpt><trkpt lat="45.7752333" lon="8.5749717"><ele>217.2</ele><time>2026-03-22T15:14:00.37Z</time></trkpt><trkpt lat="45.7751683" lon="8.5748583"><ele>217.0</ele><time>2026-03-22T15:14:02.37Z</time></trkpt><trkpt lat="45.7751783" lon="8.5746567"><ele>219.0</ele><time>2026-03-22T15:14:04.37Z</time></trkpt><trkpt lat="45.7751967" lon="8.5745117"><ele>221.0</ele><time>2026-03-22T15:14:05.37Z</time></trkpt><trkpt lat="45.77522" lon="8.5743367"><ele>223.0</ele><time>2026-03-22T15:14:06.37Z</time></trkpt><trkpt lat="45.7752433" lon="8.5741683"><ele>225.0</ele><time>2026-03-22T15:14:07.37Z</time></trkpt><trkpt lat="45.77527" lon="8.5740233"><ele>225.0</ele><time>2026-03-22T15:14:08.37Z</time></trkpt><trkpt lat="45.775295" lon="8.5738967"><ele>225.0</ele><time>2026-03-22T15:14:09.37Z</time></trkpt><trkpt lat="45.77532" lon="8.57377"><ele>225.0</ele><time>2026-03-22T15:14:10.37Z</time></trkpt><trkpt lat="45.7753367" lon="8.573645"><ele>225.0</ele><time>2026-03-22T15:14:11.37Z</time></trkpt><trkpt lat="45.7753533" lon="8.5735067"><ele>225.0</ele><time>2026-03-22T15:14:12.37Z</time></trkpt><trkpt lat="45.7753617" lon="8.5733683"><ele>225.5</ele><time>2026-03-22T15:14:13.37Z</time></trkpt><trkpt lat="45.77538" lon="8.5732483"><ele>226.0</ele><time>2026-03-22T15:14:14.37Z</time></trkpt><trkpt lat="45.775415" lon="8.57316"><ele>226.5</ele><time>2026-03-22T15:14:15.37Z</time></trkpt><trkpt lat="45.775475" lon="8.5731167"><ele>227.0</ele><time>2026-03-22T15:14:16.37Z</time></trkpt><trkpt lat="45.7755667" lon="8.5731183"><ele>227.5</ele><time>2026-03-22T15:14:17.37Z</time></trkpt><trkpt lat="45.775675" lon="8.57316"><ele>228.0</ele><time>2026-03-22T15:14:18.37Z</time></trkpt><trkpt lat="45.7757867" lon="8.573205"><ele>228.0</ele><time>2026-03-22T15:14:19.37Z</time></trkpt><trkpt lat="45.775885" lon="8.57323"><ele>228.0</ele><time>2026-03-22T15:14:20.37Z</time></trkpt><trkpt lat="45.77597" lon="8.573225"><ele>228.0</ele><time>2026-03-22T15:14:21.37Z</time></trkpt><trkpt lat="45.7760483" lon="8.5731833"><ele>228.0</ele><time>2026-03-22T15:14:22.37Z</time></trkpt><trkpt lat="45.77611" lon="8.5731033"><ele>228.0</ele><time>2026-03-22T15:14:23.37Z</time></trkpt><trkpt lat="45.7761633" lon="8.5729733"><ele>229.2</ele><time>2026-03-22T15:14:24.37Z</time></trkpt><trkpt lat="45.7762117" lon="8.57284"><ele>230.4</ele><time>2026-03-22T15:14:25.37Z</time></trkpt><trkpt lat="45.77625" lon="8.5727167"><ele>231.59999999999997</ele><time>2026-03-22T15:14:26.37Z</time></trkpt><trkpt lat="45.77629" lon="8.5726"><ele>232.79999999999998</ele><time>2026-03-22T15:14:27.37Z</time></trkpt><trkpt lat="45.776325" lon="8.5724583"><ele>234.0</ele><time>2026-03-22T15:14:28.37Z</time></trkpt><trkpt lat="45.776355" lon="8.5722967"><ele>234.0</ele><time>2026-03-22T15:14:29.37Z</time></trkpt><trkpt lat="45.7763833" lon="8.5721217"><ele>234.0</ele><time>2026-03-22T15:14:30.37Z</time></trkpt><trkpt lat="45.7764233" lon="8.5719333"><ele>234.0</ele><time>2026-03-22T15:14:31.37Z</time></trkpt><trkpt lat="45.776465" lon="8.57174"><ele>234.0</ele><time>2026-03-22T15:14:32.37Z</time></trkpt><trkpt lat="45.77651" lon="8.57157"><ele>234.66666666666666</ele><time>2026-03-22T15:14:33.37Z</time></trkpt><trkpt lat="45.776535" lon="8.5714333"><ele>235.33333333333331</ele><time>2026-03-22T15:14:34.37Z</time></trkpt><trkpt lat="45.7765417" lon="8.571335"><ele>236.0</ele><time>2026-03-22T15:14:35.37Z</time></trkpt><trkpt lat="45.776495" lon="8.5712183"><ele>236.66666666666666</ele><time>2026-03-22T15:14:37.37Z</time></trkpt><trkpt lat="45.7764117" lon="8.5712483"><ele>237.33333333333331</ele><time>2026-03-22T15:14:39.37Z</time></trkpt><trkpt lat="45.776375" lon="8.5713267"><ele>238.0</ele><time>2026-03-22T15:14:40.37Z</time></trkpt><trkpt lat="45.7763333" lon="8.5714217"><ele>237.99999999999997</ele><time>2026-03-22T15:14:41.37Z</time></trkpt><trkpt lat="45.776285" lon="8.5715083"><ele>238.0</ele><time>2026-03-22T15:14:42.37Z</time></trkpt><trkpt lat="45.7762333" lon="8.571585"><ele>238.0</ele><time>2026-03-22T15:14:43.37Z</time></trkpt><trkpt lat="45.7761733" lon="8.5716267"><ele>238.0</ele><time>2026-03-22T15:14:44.37Z</time></trkpt><trkpt lat="45.7760983" lon="8.5716383"><ele>237.99999999999997</ele><time>2026-03-22T15:14:45.37Z</time></trkpt><trkpt lat="45.776015" lon="8.5716"><ele>238.0</ele><time>2026-03-22T15:14:46.37Z</time></trkpt><trkpt lat="45.7759133" lon="8.5715283"><ele>240.5</ele><time>2026-03-22T15:14:47.37Z</time></trkpt><trkpt lat="45.7758067" lon="8.5714183"><ele>243.0</ele><time>2026-03-22T15:14:48.37Z</time></trkpt><trkpt lat="45.775715" lon="8.5713017"><ele>245.5</ele><time>2026-03-22T15:14:49.37Z</time></trkpt><trkpt lat="45.7756383" lon="8.57119"><ele>248.0</ele><time>2026-03-22T15:14:50.37Z</time></trkpt><trkpt lat="45.7755483" lon="8.5710967"><ele>250.2</ele><time>2026-03-22T15:14:51.37Z</time></trkpt><trkpt lat="45.77545" lon="8.5710383"><ele>252.4</ele><time>2026-03-22T15:14:52.37Z</time></trkpt><trkpt lat="45.7753467" lon="8.5710083"><ele>254.59999999999997</ele><time>2026-03-22T15:14:53.37Z</time></trkpt><trkpt lat="45.77524" lon="8.5710267"><ele>256.8</ele><time>2026-03-22T15:14:54.37Z</time></trkpt><trkpt lat="45.7751467" lon="8.57106"><ele>259.0</ele><time>2026-03-22T15:14:55.37Z</time></trkpt><trkpt lat="45.7750617" lon="8.571115"><ele>258.5</ele><time>2026-03-22T15:14:56.37Z</time></trkpt><trkpt lat="45.775" lon="8.5711733"><ele>258.0</ele><time>2026-03-22T15:14:57.37Z</time></trkpt><trkpt lat="45.774925" lon="8.5712433"><ele>257.5</ele><time>2026-03-22T15:14:59.37Z</time></trkpt><trkpt lat="45.7748583" lon="8.5712"><ele>257.0</ele><time>2026-03-22T15:15:02.37Z</time></trkpt><trkpt lat="45.7748667" lon="8.5710983"><ele>256.5</ele><time>2026-03-22T15:15:04.37Z</time></trkpt><trkpt lat="45.774935" lon="8.5710183"><ele>256.0</ele><time>2026-03-22T15:15:21.37Z</time></trkpt><trkpt lat="45.7748933" lon="8.5711267"><ele>255.99999999999997</ele><time>2026-03-22T15:23:35.371Z</time></trkpt><trkpt lat="45.774915" lon="8.57124"><ele>256.0</ele><time>2026-03-22T15:23:38.371Z</time></trkpt><trkpt lat="45.7749783" lon="8.571195"><ele>256.0</ele><time>2026-03-22T15:23:40.371Z</time></trkpt><trkpt lat="45.7750883" lon="8.5711033"><ele>256.0</ele><time>2026-03-22T15:23:42.372Z</time></trkpt><trkpt lat="45.7751633" lon="8.5710667"><ele>255.99999999999997</ele><time>2026-03-22T15:23:43.371Z</time></trkpt><trkpt lat="45.7752433" lon="8.5710467"><ele>256.0</ele><time>2026-03-22T15:23:44.371Z</time></trkpt><trkpt lat="45.77533" lon="8.5710533"><ele>256.6</ele><time>2026-03-22T15:23:45.371Z</time></trkpt><trkpt lat="45.7754267" lon="8.5710733"><ele>257.20000000000005</ele><time>2026-03-22T15:23:46.371Z</time></trkpt><trkpt lat="45.775525" lon="8.571105"><ele>257.79999999999995</ele><time>2026-03-22T15:23:47.371Z</time></trkpt><trkpt lat="45.7756167" lon="8.5711783"><ele>258.4</ele><time>2026-03-22T15:23:48.371Z</time></trkpt><trkpt lat="45.7756967" lon="8.57126"><ele>259.0</ele><time>2026-03-22T15:23:49.371Z</time></trkpt><trkpt lat="45.7757783" lon="8.5713717"><ele>256.8</ele><time>2026-03-22T15:23:50.371Z</time></trkpt><trkpt lat="45.7758633" lon="8.5714667"><ele>254.59999999999997</ele><time>2026-03-22T15:23:51.371Z</time></trkpt><trkpt lat="45.775945" lon="8.5715583"><ele>252.4</ele><time>2026-03-22T15:23:52.371Z</time></trkpt><trkpt lat="45.7760267" lon="8.571625"><ele>250.2</ele><time>2026-03-22T15:23:53.371Z</time></trkpt><trkpt lat="45.7761133" lon="8.571655"><ele>248.0</ele><time>2026-03-22T15:23:54.371Z</time></trkpt><trkpt lat="45.7761983" lon="8.5716417"><ele>246.33333333333334</ele><time>2026-03-22T15:23:55.371Z</time></trkpt><trkpt lat="45.776275" lon="8.57159"><ele>244.66666666666669</ele><time>2026-03-22T15:23:56.371Z</time></trkpt><trkpt lat="45.7763283" lon="8.5715017"><ele>243.0</ele><time>2026-03-22T15:23:57.371Z</time></trkpt><trkpt lat="45.776365" lon="8.5714"><ele>241.33333333333331</ele><time>2026-03-22T15:23:58.371Z</time></trkpt><trkpt lat="45.7764083" lon="8.57133"><ele>239.66666666666666</ele><time>2026-03-22T15:23:59.371Z</time></trkpt><trkpt lat="45.7764967" lon="8.5713033"><ele>238.0</ele><time>2026-03-22T15:24:01.371Z</time></trkpt><trkpt lat="45.77653" lon="8.5714133"><ele>237.99999999999997</ele><time>2026-03-22T15:24:03.371Z</time></trkpt><trkpt lat="45.7765117" lon="8.5715"><ele>238.0</ele><time>2026-03-22T15:24:04.371Z</time></trkpt><trkpt lat="45.776495" lon="8.5716"><ele>238.0</ele><time>2026-03-22T15:24:05.371Z</time></trkpt><trkpt lat="45.77648" lon="8.571725"><ele>238.0</ele><time>2026-03-22T15:24:06.371Z</time></trkpt><trkpt lat="45.776455" lon="8.5718683"><ele>237.99999999999997</ele><time>2026-03-22T15:24:07.371Z</time></trkpt><trkpt lat="45.7764217" lon="8.5720167"><ele>238.0</ele><time>2026-03-22T15:24:08.371Z</time></trkpt><trkpt lat="45.77639" lon="8.5721533"><ele>237.2</ele><time>2026-03-22T15:24:09.371Z</time></trkpt><trkpt lat="45.776355" lon="8.5722967"><ele>236.4</ele><time>2026-03-22T15:24:10.371Z</time></trkpt><trkpt lat="45.7763317" lon="8.5724383"><ele>235.59999999999997</ele><time>2026-03-22T15:24:11.371Z</time></trkpt><trkpt lat="45.7762983" lon="8.57257"><ele>234.79999999999998</ele><time>2026-03-22T15:24:12.371Z</time></trkpt><trkpt lat="45.7762517" lon="8.5726967"><ele>234.0</ele><time>2026-03-22T15:24:13.371Z</time></trkpt><trkpt lat="45.7762017" lon="8.5728167"><ele>233.2</ele><time>2026-03-22T15:24:14.371Z</time></trkpt><trkpt lat="45.7761483" lon="8.5729417"><ele>232.39999999999998</ele><time>2026-03-22T15:24:15.371Z</time></trkpt><trkpt lat="45.7761067" lon="8.5730667"><ele>231.6</ele><time>2026-03-22T15:24:16.371Z</time></trkpt><trkpt lat="45.7760483" lon="8.5731583"><ele>230.8</ele><time>2026-03-22T15:24:17.371Z</time></trkpt><trkpt lat="45.77597" lon="8.5732133"><ele>230.0</ele><time>2026-03-22T15:24:18.371Z</time></trkpt><trkpt lat="45.775875" lon="8.5732183"><ele>229.6</ele><time>2026-03-22T15:24:19.371Z</time></trkpt><trkpt lat="45.7757767" lon="8.5731867"><ele>229.2</ele><time>2026-03-22T15:24:20.371Z</time></trkpt><trkpt lat="45.7756733" lon="8.5731467"><ele>228.8</ele><time>2026-03-22T15:24:21.371Z</time></trkpt><trkpt lat="45.7755767" lon="8.573115"><ele>228.4</ele><time>2026-03-22T15:24:22.371Z</time></trkpt><trkpt lat="45.775495" lon="8.5731"><ele>228.0</ele><time>2026-03-22T15:24:23.371Z</time></trkpt><trkpt lat="45.7754283" lon="8.57313"><ele>228.0</ele><time>2026-03-22T15:24:24.371Z</time></trkpt><trkpt lat="45.775375" lon="8.5732"><ele>228.0</ele><time>2026-03-22T15:24:25.371Z</time></trkpt><trkpt lat="45.7753517" lon="8.5733017"><ele>228.0</ele><time>2026-03-22T15:24:26.371Z</time></trkpt><trkpt lat="45.77534" lon="8.573405"><ele>228.0</ele><time>2026-03-22T15:24:27.371Z</time></trkpt><trkpt lat="45.7753333" lon="8.5735217"><ele>228.0</ele><time>2026-03-22T15:24:28.371Z</time></trkpt><trkpt lat="45.7753267" lon="8.573645"><ele>228.0</ele><time>2026-03-22T15:24:29.371Z</time></trkpt><trkpt lat="45.7753133" lon="8.5737783"><ele>227.4</ele><time>2026-03-22T15:24:30.371Z</time></trkpt><trkpt lat="45.775295" lon="8.573915"><ele>226.8</ele><time>2026-03-22T15:24:31.371Z</time></trkpt><trkpt lat="45.7752717" lon="8.5740483"><ele>226.2</ele><time>2026-03-22T15:24:32.371Z</time></trkpt><trkpt lat="45.77525" lon="8.5741817"><ele>225.6</ele><time>2026-03-22T15:24:33.371Z</time></trkpt><trkpt lat="45.7752283" lon="8.574315"><ele>225.0</ele><time>2026-03-22T15:24:34.371Z</time></trkpt><trkpt lat="45.7752083" lon="8.5744467"><ele>224.5</ele><time>2026-03-22T15:24:35.371Z</time></trkpt><trkpt lat="45.7751883" lon="8.574575"><ele>224.0</ele><time>2026-03-22T15:24:36.371Z</time></trkpt><trkpt lat="45.7751733" lon="8.574685"><ele>223.5</ele><time>2026-03-22T15:24:37.371Z</time></trkpt><trkpt lat="45.77516" lon="8.574775"><ele>223.0</ele><time>2026-03-22T15:24:38.371Z</time></trkpt><trkpt lat="45.7751433" lon="8.5748967"><ele>222.5</ele><time>2026-03-22T15:24:40.371Z</time></trkpt><trkpt lat="45.775175" lon="8.5749883"><ele>222.0</ele><time>2026-03-22T15:24:49.371Z</time></trkpt><trkpt lat="45.77525" lon="8.5750667"><ele>222.0</ele><time>2026-03-22T15:24:51.371Z</time></trkpt><trkpt lat="45.7752817" lon="8.5751683"><ele>222.0</ele><time>2026-03-22T15:24:53.371Z</time></trkpt><trkpt lat="45.77526" lon="8.5753517"><ele>222.0</ele><time>2026-03-22T15:24:55.371Z</time></trkpt><trkpt lat="45.77524" lon="8.5754833"><ele>222.0</ele><time>2026-03-22T15:24:56.371Z</time></trkpt><trkpt lat="45.7752167" lon="8.575625"><ele>222.0</ele><time>2026-03-22T15:24:57.371Z</time></trkpt><trkpt lat="45.7751883" lon="8.5757767"><ele>220.39999999999998</ele><time>2026-03-22T15:24:58.371Z</time></trkpt><trkpt lat="45.7751617" lon="8.57593"><ele>218.79999999999998</ele><time>2026-03-22T15:24:59.371Z</time></trkpt><trkpt lat="45.7751383" lon="8.57609"><ele>217.2</ele><time>2026-03-22T15:25:00.371Z</time></trkpt><trkpt lat="45.7751133" lon="8.57625"><ele>215.6</ele><time>2026-03-22T15:25:01.371Z</time></trkpt><trkpt lat="45.7750883" lon="8.5764017"><ele>214.0</ele><time>2026-03-22T15:25:02.371Z</time></trkpt><trkpt lat="45.7750667" lon="8.5765433"><ele>213.66666666666666</ele><time>2026-03-22T15:25:03.372Z</time></trkpt><trkpt lat="45.7750467" lon="8.5766767"><ele>213.33333333333331</ele><time>2026-03-22T15:25:04.371Z</time></trkpt><trkpt lat="45.7750283" lon="8.5767967"><ele>213.0</ele><time>2026-03-22T15:25:05.371Z</time></trkpt><trkpt lat="45.7750133" lon="8.5769033"><ele>212.66666666666669</ele><time>2026-03-22T15:25:06.371Z</time></trkpt><trkpt lat="45.775" lon="8.5769933"><ele>212.33333333333334</ele><time>2026-03-22T15:25:07.371Z</time></trkpt><trkpt lat="45.774955" lon="8.5770917"><ele>212.0</ele><time>2026-03-22T15:25:09.371Z</time></trkpt><trkpt lat="45.7748767" lon="8.5770533"><ele>212.00000000000003</ele><time>2026-03-22T15:25:12.371Z</time></trkpt><trkpt lat="45.7747933" lon="8.5769717"><ele>212.0</ele><time>2026-03-22T15:25:14.371Z</time></trkpt><trkpt lat="45.77469" lon="8.57686"><ele>212.0</ele><time>2026-03-22T15:25:16.371Z</time></trkpt><trkpt lat="45.7746417" lon="8.5767983"><ele>212.0</ele><time>2026-03-22T15:25:17.371Z</time></trkpt><trkpt lat="45.7745933" lon="8.576735"><ele>212.00000000000003</ele><time>2026-03-22T15:25:18.371Z</time></trkpt><trkpt lat="45.7745433" lon="8.57668"><ele>212.0</ele><time>2026-03-22T15:25:19.371Z</time></trkpt><trkpt lat="45.7744417" lon="8.57658"><ele>211.8</ele><time>2026-03-22T15:25:21.371Z</time></trkpt><trkpt lat="45.7743533" lon="8.5764783"><ele>211.6</ele><time>2026-03-22T15:25:23.371Z</time></trkpt><trkpt lat="45.7742683" lon="8.5763517"><ele>211.4</ele><time>2026-03-22T15:25:25.371Z</time></trkpt><trkpt lat="45.7741933" lon="8.5762217"><ele>211.20000000000002</ele><time>2026-03-22T15:25:27.371Z</time></trkpt><trkpt lat="45.774165" lon="8.5761367"><ele>211.0</ele><time>2026-03-22T15:25:28.371Z</time></trkpt><trkpt lat="45.7741467" lon="8.5760483"><ele>211.0</ele><time>2026-03-22T15:25:29.371Z</time></trkpt><trkpt lat="45.7741233" lon="8.5759583"><ele>211.0</ele><time>2026-03-22T15:25:30.371Z</time></trkpt><trkpt lat="45.7741" lon="8.5758667"><ele>211.0</ele><time>2026-03-22T15:25:31.371Z</time></trkpt><trkpt lat="45.7740767" lon="8.5757767"><ele>211.0</ele><time>2026-03-22T15:25:32.371Z</time></trkpt><trkpt lat="45.774055" lon="8.5756767"><ele>211.0</ele><time>2026-03-22T15:25:33.371Z</time></trkpt><trkpt lat="45.7740267" lon="8.5755717"><ele>211.0</ele><time>2026-03-22T15:25:34.371Z</time></trkpt><trkpt lat="45.773985" lon="8.5754817"><ele>211.0</ele><time>2026-03-22T15:25:35.371Z</time></trkpt><trkpt lat="45.773955" lon="8.5753767"><ele>211.14285714285714</ele><time>2026-03-22T15:25:36.371Z</time></trkpt><trkpt lat="45.7739217" lon="8.5752767"><ele>211.28571428571428</ele><time>2026-03-22T15:25:37.371Z</time></trkpt><trkpt lat="45.7738883" lon="8.5751783"><ele>211.42857142857144</ele><time>2026-03-22T15:25:38.371Z</time></trkpt><trkpt lat="45.7738583" lon="8.575085"><ele>211.57142857142856</ele><time>2026-03-22T15:25:39.371Z</time></trkpt><trkpt lat="45.7738267" lon="8.5749933"><ele>211.7142857142857</ele><time>2026-03-22T15:25:40.371Z</time></trkpt><trkpt lat="45.7738033" lon="8.5749017"><ele>211.85714285714286</ele><time>2026-03-22T15:25:41.371Z</time></trkpt><trkpt lat="45.7737917" lon="8.57481"><ele>212.0</ele><time>2026-03-22T15:25:42.371Z</time></trkpt><trkpt lat="45.7737533" lon="8.57469"><ele>212.00000000000003</ele><time>2026-03-22T15:25:44.371Z</time></trkpt><trkpt lat="45.77379" lon="8.5746017"><ele>212.0</ele><time>2026-03-22T15:25:47.371Z</time></trkpt><trkpt lat="45.7737383" lon="8.574545"><ele>212.0</ele><time>2026-03-22T15:25:58.371Z</time></trkpt><trkpt lat="45.7736683" lon="8.574485"><ele>212.0</ele><time>2026-03-22T15:26:00.371Z</time></trkpt><trkpt lat="45.7735733" lon="8.5744417"><ele>212.00000000000003</ele><time>2026-03-22T15:26:02.371Z</time></trkpt><trkpt lat="45.7734617" lon="8.5743917"><ele>212.0</ele><time>2026-03-22T15:26:04.371Z</time></trkpt><trkpt lat="45.773385" lon="8.5743683"><ele>211.71428571428572</ele><time>2026-03-22T15:26:05.371Z</time></trkpt><trkpt lat="45.7733233" lon="8.5743433"><ele>211.42857142857142</ele><time>2026-03-22T15:26:06.371Z</time></trkpt><trkpt lat="45.7732517" lon="8.57432"><ele>211.14285714285714</ele><time>2026-03-22T15:26:07.371Z</time></trkpt><trkpt lat="45.7731883" lon="8.5742967"><ele>210.85714285714286</ele><time>2026-03-22T15:26:08.371Z</time></trkpt><trkpt lat="45.7731233" lon="8.5742567"><ele>210.57142857142856</ele><time>2026-03-22T15:26:09.371Z</time></trkpt><trkpt lat="45.773065" lon="8.5742217"><ele>210.28571428571428</ele><time>2026-03-22T15:26:10.371Z</time></trkpt><trkpt lat="45.7729583" lon="8.5741833"><ele>210.0</ele><time>2026-03-22T15:26:12.371Z</time></trkpt><trkpt lat="45.7728533" lon="8.5741633"><ele>210.0</ele><time>2026-03-22T15:26:14.371Z</time></trkpt><trkpt lat="45.7727817" lon="8.5741717"><ele>210.0</ele><time>2026-03-22T15:26:16.371Z</time></trkpt><trkpt lat="45.7727133" lon="8.5741067"><ele>210.0</ele><time>2026-03-22T15:26:19.371Z</time></trkpt><trkpt lat="45.7726667" lon="8.57399"><ele>210.0</ele><time>2026-03-22T15:26:21.371Z</time></trkpt><trkpt lat="45.772625" lon="8.57386"><ele>210.0</ele><time>2026-03-22T15:26:23.371Z</time></trkpt><trkpt lat="45.772575" lon="8.57373"><ele>209.8</ele><time>2026-03-22T15:26:25.371Z</time></trkpt><trkpt lat="45.7725433" lon="8.5735583"><ele>209.6</ele><time>2026-03-22T15:26:27.371Z</time></trkpt><trkpt lat="45.7725" lon="8.5734"><ele>209.39999999999998</ele><time>2026-03-22T15:26:29.371Z</time></trkpt><trkpt lat="45.7724667" lon="8.5733217"><ele>209.2</ele><time>2026-03-22T15:26:30.371Z</time></trkpt><trkpt lat="45.7724317" lon="8.5732283"><ele>209.0</ele><time>2026-03-22T15:26:31.371Z</time></trkpt><trkpt lat="45.7723917" lon="8.5731333"><ele>209.0</ele><time>2026-03-22T15:26:32.371Z</time></trkpt><trkpt lat="45.77236" lon="8.5730383"><ele>209.0</ele><time>2026-03-22T15:26:33.371Z</time></trkpt><trkpt lat="45.7723333" lon="8.5729283"><ele>209.0</ele><time>2026-03-22T15:26:34.371Z</time></trkpt><trkpt lat="45.7723167" lon="8.5728317"><ele>209.0</ele><time>2026-03-22T15:26:35.371Z</time></trkpt><trkpt lat="45.7722867" lon="8.572735"><ele>209.0</ele><time>2026-03-22T15:26:36.371Z</time></trkpt><trkpt lat="45.7722583" lon="8.5726383"><ele>209.0</ele><time>2026-03-22T15:26:37.371Z</time></trkpt><trkpt lat="45.77223" lon="8.5725383"><ele>209.0</ele><time>2026-03-22T15:26:38.371Z</time></trkpt><trkpt lat="45.7721983" lon="8.57243"><ele>209.66666666666669</ele><time>2026-03-22T15:26:39.371Z</time></trkpt><trkpt lat="45.7721733" lon="8.572315"><ele>210.33333333333334</ele><time>2026-03-22T15:26:40.371Z</time></trkpt><trkpt lat="45.7721533" lon="8.5722083"><ele>211.0</ele><time>2026-03-22T15:26:41.371Z</time></trkpt><trkpt lat="45.7721333" lon="8.5720933"><ele>211.66666666666669</ele><time>2026-03-22T15:26:42.371Z</time></trkpt><trkpt lat="45.772115" lon="8.5719783"><ele>212.33333333333334</ele><time>2026-03-22T15:26:43.371Z</time></trkpt><trkpt lat="45.772095" lon="8.5718617"><ele>213.0</ele><time>2026-03-22T15:26:44.371Z</time></trkpt><trkpt lat="45.7720767" lon="8.5717483"><ele>213.83333333333334</ele><time>2026-03-22T15:26:45.371Z</time></trkpt><trkpt lat="45.772055" lon="8.571635"><ele>214.66666666666669</ele><time>2026-03-22T15:26:46.371Z</time></trkpt><trkpt lat="45.7720367" lon="8.571525"><ele>215.5</ele><time>2026-03-22T15:26:47.371Z</time></trkpt><trkpt lat="45.7720183" lon="8.5714133"><ele>216.33333333333334</ele><time>2026-03-22T15:26:48.371Z</time></trkpt><trkpt lat="45.772" lon="8.57131"><ele>217.16666666666669</ele><time>2026-03-22T15:26:49.371Z</time></trkpt><trkpt lat="45.7719817" lon="8.571205"><ele>218.0</ele><time>2026-03-22T15:26:50.371Z</time></trkpt><trkpt lat="45.7719667" lon="8.571105"><ele>218.50000000000003</ele><time>2026-03-22T15:26:51.371Z</time></trkpt><trkpt lat="45.7719517" lon="8.5710017"><ele>219.0</ele><time>2026-03-22T15:26:52.371Z</time></trkpt><trkpt lat="45.7719433" lon="8.5708917"><ele>219.5</ele><time>2026-03-22T15:26:53.371Z</time></trkpt><trkpt lat="45.7719383" lon="8.5707733"><ele>220.0</ele><time>2026-03-22T15:26:54.371Z</time></trkpt><trkpt lat="45.7719383" lon="8.5706483"><ele>220.50000000000003</ele><time>2026-03-22T15:26:55.371Z</time></trkpt><trkpt lat="45.7719367" lon="8.5705183"><ele>221.0</ele><time>2026-03-22T15:26:56.371Z</time></trkpt><trkpt lat="45.77194" lon="8.5703833"><ele>218.60000000000002</ele><time>2026-03-22T15:26:57.371Z</time></trkpt><trkpt lat="45.771945" lon="8.5702467"><ele>216.20000000000002</ele><time>2026-03-22T15:26:58.371Z</time></trkpt><trkpt lat="45.7719533" lon="8.5701117"><ele>213.8</ele><time>2026-03-22T15:26:59.371Z</time></trkpt><trkpt lat="45.771965" lon="8.5699733"><ele>211.39999999999998</ele><time>2026-03-22T15:27:00.371Z</time></trkpt><trkpt lat="45.7719767" lon="8.5698317"><ele>209.0</ele><time>2026-03-22T15:27:01.371Z</time></trkpt><trkpt lat="45.771985" lon="8.5697"><ele>209.00000000000003</ele><time>2026-03-22T15:27:02.371Z</time></trkpt><trkpt lat="45.77198" lon="8.5695783"><ele>209.0</ele><time>2026-03-22T15:27:03.371Z</time></trkpt><trkpt lat="45.7719733" lon="8.5694633"><ele>209.0</ele><time>2026-03-22T15:27:04.371Z</time></trkpt><trkpt lat="45.771985" lon="8.5693433"><ele>209.0</ele><time>2026-03-22T15:27:05.371Z</time></trkpt><trkpt lat="45.7719917" lon="8.5692417"><ele>209.00000000000003</ele><time>2026-03-22T15:27:06.371Z</time></trkpt><trkpt lat="45.7719933" lon="8.5691433"><ele>209.0</ele><time>2026-03-22T15:27:07.371Z</time></trkpt><trkpt lat="45.7719883" lon="8.5689967"><ele>207.79999999999998</ele><time>2026-03-22T15:27:09.371Z</time></trkpt><trkpt lat="45.772025" lon="8.568885"><ele>206.6</ele><time>2026-03-22T15:27:12.371Z</time></trkpt><trkpt lat="45.77209" lon="8.5688267"><ele>205.4</ele><time>2026-03-22T15:27:14.371Z</time></trkpt><trkpt lat="45.7722017" lon="8.56873"><ele>204.2</ele><time>2026-03-22T15:27:16.371Z</time></trkpt><trkpt lat="45.77228" lon="8.568665"><ele>203.0</ele><time>2026-03-22T15:27:17.371Z</time></trkpt><trkpt lat="45.7723767" lon="8.568585"><ele>202.75</ele><time>2026-03-22T15:27:18.371Z</time></trkpt><trkpt lat="45.77248" lon="8.5685067"><ele>202.5</ele><time>2026-03-22T15:27:19.371Z</time></trkpt><trkpt lat="45.772585" lon="8.56843"><ele>202.25</ele><time>2026-03-22T15:27:20.371Z</time></trkpt><trkpt lat="45.77269" lon="8.5683567"><ele>202.0</ele><time>2026-03-22T15:27:21.371Z</time></trkpt><trkpt lat="45.772795" lon="8.5682933"><ele>202.0</ele><time>2026-03-22T15:27:22.371Z</time></trkpt><trkpt lat="45.7729017" lon="8.56824"><ele>202.0</ele><time>2026-03-22T15:27:23.371Z</time></trkpt><trkpt lat="45.7730133" lon="8.5681933"><ele>202.0</ele><time>2026-03-22T15:27:24.371Z</time></trkpt><trkpt lat="45.7731167" lon="8.568155"><ele>202.0</ele><time>2026-03-22T15:27:25.371Z</time></trkpt><trkpt lat="45.7732167" lon="8.568125"><ele>202.0</ele><time>2026-03-22T15:27:26.371Z</time></trkpt><trkpt lat="45.7733183" lon="8.5681033"><ele>202.0</ele><time>2026-03-22T15:27:27.371Z</time></trkpt><trkpt lat="45.7734183" lon="8.568085"><ele>202.0</ele><time>2026-03-22T15:27:28.371Z</time></trkpt><trkpt lat="45.7735183" lon="8.5680667"><ele>202.0</ele><time>2026-03-22T15:27:29.371Z</time></trkpt><trkpt lat="45.7736167" lon="8.5680517"><ele>202.0</ele><time>2026-03-22T15:27:30.371Z</time></trkpt><trkpt lat="45.7737117" lon="8.568035"><ele>202.0</ele><time>2026-03-22T15:27:31.371Z</time></trkpt><trkpt lat="45.773805" lon="8.5680217"><ele>203.0</ele><time>2026-03-22T15:27:32.371Z</time></trkpt><trkpt lat="45.773895" lon="8.56801"><ele>204.0</ele><time>2026-03-22T15:27:33.371Z</time></trkpt><trkpt lat="45.7739783" lon="8.5680017"><ele>205.0</ele><time>2026-03-22T15:27:34.371Z</time></trkpt><trkpt lat="45.7740583" lon="8.568005"><ele>206.0</ele><time>2026-03-22T15:27:35.371Z</time></trkpt><trkpt lat="45.7741883" lon="8.5680033"><ele>207.0</ele><time>2026-03-22T15:27:37.371Z</time></trkpt><trkpt lat="45.7742683" lon="8.5679883"><ele>206.6</ele><time>2026-03-22T15:27:38.371Z</time></trkpt><trkpt lat="45.774355" lon="8.5679717"><ele>206.2</ele><time>2026-03-22T15:27:39.371Z</time></trkpt><trkpt lat="45.774445" lon="8.5679383"><ele>205.8</ele><time>2026-03-22T15:27:40.371Z</time></trkpt><trkpt lat="45.77454" lon="8.567885"><ele>205.4</ele><time>2026-03-22T15:27:41.371Z</time></trkpt><trkpt lat="45.77465" lon="8.567815"><ele>205.0</ele><time>2026-03-22T15:27:42.371Z</time></trkpt><trkpt lat="45.7747583" lon="8.56773"><ele>205.0</ele><time>2026-03-22T15:27:43.371Z</time></trkpt><trkpt lat="45.77486" lon="8.5676383"><ele>205.0</ele><time>2026-03-22T15:27:44.371Z</time></trkpt><trkpt lat="45.7749567" lon="8.56753"><ele>205.0</ele><time>2026-03-22T15:27:45.371Z</time></trkpt><trkpt lat="45.7750583" lon="8.5674117"><ele>205.0</ele><time>2026-03-22T15:27:46.371Z</time></trkpt><trkpt lat="45.7751567" lon="8.5672917"><ele>204.25</ele><time>2026-03-22T15:27:47.371Z</time></trkpt><trkpt lat="45.7752533" lon="8.5671733"><ele>203.5</ele><time>2026-03-22T15:27:48.371Z</time></trkpt><trkpt lat="45.7753433" lon="8.5670617"><ele>202.75</ele><time>2026-03-22T15:27:49.371Z</time></trkpt><trkpt lat="45.77543" lon="8.566965"><ele>202.0</ele><time>2026-03-22T15:27:50.371Z</time></trkpt><trkpt lat="45.77551" lon="8.5668767"><ele>202.0</ele><time>2026-03-22T15:27:51.371Z</time></trkpt><trkpt lat="45.7756017" lon="8.5668017"><ele>202.0</ele><time>2026-03-22T15:27:52.371Z</time></trkpt><trkpt lat="45.77571" lon="8.566745"><ele>202.0</ele><time>2026-03-22T15:27:53.371Z</time></trkpt><trkpt lat="45.7758283" lon="8.5667033"><ele>202.0</ele><time>2026-03-22T15:27:54.371Z</time></trkpt><trkpt lat="45.7759567" lon="8.56666"><ele>204.5</ele><time>2026-03-22T15:27:55.371Z</time></trkpt><trkpt lat="45.7760917" lon="8.5666117"><ele>207.0</ele><time>2026-03-22T15:27:56.371Z</time></trkpt><trkpt lat="45.77622" lon="8.5665383"><ele>209.5</ele><time>2026-03-22T15:27:57.371Z</time></trkpt><trkpt lat="45.7763467" lon="8.5664417"><ele>212.0</ele><time>2026-03-22T15:27:58.371Z</time></trkpt><trkpt lat="45.776475" lon="8.566325"><ele>212.0</ele><time>2026-03-22T15:27:59.371Z</time></trkpt><trkpt lat="45.7766017" lon="8.5662033"><ele>212.0</ele><time>2026-03-22T15:28:00.371Z</time></trkpt><trkpt lat="45.7767233" lon="8.5660867"><ele>212.0</ele><time>2026-03-22T15:28:01.371Z</time></trkpt><trkpt lat="45.77684" lon="8.5659717"><ele>212.0</ele><time>2026-03-22T15:28:02.371Z</time></trkpt><trkpt lat="45.7769617" lon="8.56586"><ele>211.33333333333334</ele><time>2026-03-22T15:28:03.371Z</time></trkpt><trkpt lat="45.77709" lon="8.56575"><ele>210.66666666666669</ele><time>2026-03-22T15:28:04.371Z</time></trkpt><trkpt lat="45.777225" lon="8.5656333"><ele>210.0</ele><time>2026-03-22T15:28:05.371Z</time></trkpt><trkpt lat="45.7773667" lon="8.565515"><ele>210.0</ele><time>2026-03-22T15:28:06.371Z</time></trkpt><trkpt lat="45.7775183" lon="8.565385"><ele>210.0</ele><time>2026-03-22T15:28:07.371Z</time></trkpt><trkpt lat="45.7776717" lon="8.5652533"><ele>210.0</ele><time>2026-03-22T15:28:08.371Z</time></trkpt><trkpt lat="45.7778167" lon="8.5651317"><ele>211.25</ele><time>2026-03-22T15:28:09.371Z</time></trkpt><trkpt lat="45.77795" lon="8.5650133"><ele>212.5</ele><time>2026-03-22T15:28:10.371Z</time></trkpt><trkpt lat="45.7780733" lon="8.5649033"><ele>213.75</ele><time>2026-03-22T15:28:11.371Z</time></trkpt><trkpt lat="45.7781867" lon="8.5647733"><ele>215.0</ele><time>2026-03-22T15:28:12.371Z</time></trkpt><trkpt lat="45.7782983" lon="8.564645"><ele>214.75</ele><time>2026-03-22T15:28:13.371Z</time></trkpt><trkpt lat="45.778415" lon="8.564515"><ele>214.5</ele><time>2026-03-22T15:28:14.371Z</time></trkpt><trkpt lat="45.77854" lon="8.5643917"><ele>214.25</ele><time>2026-03-22T15:28:15.371Z</time></trkpt><trkpt lat="45.7786733" lon="8.564295"><ele>214.0</ele><time>2026-03-22T15:28:16.371Z</time></trkpt><trkpt lat="45.7788217" lon="8.56423"><ele>214.0</ele><time>2026-03-22T15:28:17.371Z</time></trkpt><trkpt lat="45.7789733" lon="8.564185"><ele>214.0</ele><time>2026-03-22T15:28:18.371Z</time></trkpt><trkpt lat="45.7791283" lon="8.5641533"><ele>214.0</ele><time>2026-03-22T15:28:19.371Z</time></trkpt><trkpt lat="45.7792867" lon="8.5641217"><ele>213.66666666666666</ele><time>2026-03-22T15:28:20.371Z</time></trkpt><trkpt lat="45.7794433" lon="8.564095"><ele>213.33333333333331</ele><time>2026-03-22T15:28:21.371Z</time></trkpt><trkpt lat="45.779595" lon="8.5640733"><ele>213.0</ele><time>2026-03-22T15:28:22.371Z</time></trkpt><trkpt lat="45.779745" lon="8.5640633"><ele>213.0</ele><time>2026-03-22T15:28:23.371Z</time></trkpt><trkpt lat="45.7798867" lon="8.56406"><ele>213.0</ele><time>2026-03-22T15:28:24.371Z</time></trkpt><trkpt lat="45.7800333" lon="8.5640883"><ele>213.0</ele><time>2026-03-22T15:28:25.371Z</time></trkpt><trkpt lat="45.780185" lon="8.564135"><ele>213.0</ele><time>2026-03-22T15:28:26.371Z</time></trkpt><trkpt lat="45.780345" lon="8.564185"><ele>210.0</ele><time>2026-03-22T15:28:27.371Z</time></trkpt><trkpt lat="45.78051" lon="8.5642383"><ele>207.0</ele><time>2026-03-22T15:28:28.371Z</time></trkpt><trkpt lat="45.7806883" lon="8.5643"><ele>204.0</ele><time>2026-03-22T15:28:29.371Z</time></trkpt><trkpt lat="45.7808717" lon="8.5643517"><ele>202.33333333333331</ele><time>2026-03-22T15:28:30.371Z</time></trkpt><trkpt lat="45.7810533" lon="8.56441"><ele>200.66666666666666</ele><time>2026-03-22T15:28:31.371Z</time></trkpt><trkpt lat="45.7812267" lon="8.5644633"><ele>199.0</ele><time>2026-03-22T15:28:32.371Z</time></trkpt><trkpt lat="45.781395" lon="8.5645217"><ele>202.33333333333331</ele><time>2026-03-22T15:28:33.371Z</time></trkpt><trkpt lat="45.7815667" lon="8.564575"><ele>205.66666666666669</ele><time>2026-03-22T15:28:34.371Z</time></trkpt><trkpt lat="45.7817383" lon="8.5645867"><ele>209.0</ele><time>2026-03-22T15:28:35.371Z</time></trkpt><trkpt lat="45.7818867" lon="8.56458"><ele>209.0</ele><time>2026-03-22T15:28:36.371Z</time></trkpt><trkpt lat="45.782035" lon="8.5645633"><ele>209.0</ele><time>2026-03-22T15:28:37.371Z</time></trkpt><trkpt lat="45.7821933" lon="8.5645817"><ele>209.0</ele><time>2026-03-22T15:28:38.371Z</time></trkpt><trkpt lat="45.782345" lon="8.5646183"><ele>209.0</ele><time>2026-03-22T15:28:39.371Z</time></trkpt><trkpt lat="45.7825167" lon="8.564665"><ele>209.0</ele><time>2026-03-22T15:28:40.372Z</time></trkpt><trkpt lat="45.7826967" lon="8.5647183"><ele>209.0</ele><time>2026-03-22T15:28:41.371Z</time></trkpt><trkpt lat="45.7828817" lon="8.56477"><ele>206.66666666666669</ele><time>2026-03-22T15:28:42.371Z</time></trkpt><trkpt lat="45.7830667" lon="8.5648217"><ele>204.33333333333331</ele><time>2026-03-22T15:28:43.371Z</time></trkpt><trkpt lat="45.7832333" lon="8.5648783"><ele>202.0</ele><time>2026-03-22T15:28:44.371Z</time></trkpt><trkpt lat="45.7834" lon="8.5649217"><ele>203.0</ele><time>2026-03-22T15:28:45.371Z</time></trkpt><trkpt lat="45.783565" lon="8.5649283"><ele>204.0</ele><time>2026-03-22T15:28:46.371Z</time></trkpt><trkpt lat="45.7837417" lon="8.5649"><ele>205.0</ele><time>2026-03-22T15:28:47.371Z</time></trkpt><trkpt lat="45.7839133" lon="8.5648367"><ele>205.0</ele><time>2026-03-22T15:28:48.371Z</time></trkpt><trkpt lat="45.7840817" lon="8.5647467"><ele>205.0</ele><time>2026-03-22T15:28:49.371Z</time></trkpt><trkpt lat="45.7842483" lon="8.5646517"><ele>205.0</ele><time>2026-03-22T15:28:50.371Z</time></trkpt><trkpt lat="45.784405" lon="8.5645633"><ele>202.75</ele><time>2026-03-22T15:28:51.371Z</time></trkpt><trkpt lat="45.7845483" lon="8.5644867"><ele>200.5</ele><time>2026-03-22T15:28:52.371Z</time></trkpt><trkpt lat="45.7846917" lon="8.564435"><ele>198.25</ele><time>2026-03-22T15:28:53.371Z</time></trkpt><trkpt lat="45.7848333" lon="8.5644033"><ele>196.0</ele><time>2026-03-22T15:28:54.371Z</time></trkpt><trkpt lat="45.7849683" lon="8.5643933"><ele>196.0</ele><time>2026-03-22T15:28:55.371Z</time></trkpt><trkpt lat="45.7851117" lon="8.5644017"><ele>196.0</ele><time>2026-03-22T15:28:56.372Z</time></trkpt><trkpt lat="45.7852533" lon="8.5644283"><ele>196.0</ele><time>2026-03-22T15:28:57.371Z</time></trkpt><trkpt lat="45.7853883" lon="8.564485"><ele>196.0</ele><time>2026-03-22T15:28:58.371Z</time></trkpt><trkpt lat="45.785525" lon="8.5645517"><ele>200.33333333333331</ele><time>2026-03-22T15:28:59.371Z</time></trkpt><trkpt lat="45.7856667" lon="8.5646233"><ele>204.66666666666669</ele><time>2026-03-22T15:29:00.371Z</time></trkpt><trkpt lat="45.78582" lon="8.56471"><ele>209.0</ele><time>2026-03-22T15:29:01.371Z</time></trkpt><trkpt lat="45.7859683" lon="8.5647933"><ele>206.33333333333334</ele><time>2026-03-22T15:29:02.371Z</time></trkpt><trkpt lat="45.7861267" lon="8.5648817"><ele>203.66666666666669</ele><time>2026-03-22T15:29:03.371Z</time></trkpt><trkpt lat="45.7862833" lon="8.564965"><ele>201.0</ele><time>2026-03-22T15:29:04.371Z</time></trkpt><trkpt lat="45.7864433" lon="8.5650533"><ele>201.0</ele><time>2026-03-22T15:29:05.371Z</time></trkpt><trkpt lat="45.786605" lon="8.5651383"><ele>201.0</ele><time>2026-03-22T15:29:06.371Z</time></trkpt><trkpt lat="45.7867717" lon="8.5652183"><ele>201.0</ele><time>2026-03-22T15:29:07.371Z</time></trkpt><trkpt lat="45.7869267" lon="8.5653167"><ele>201.66666666666669</ele><time>2026-03-22T15:29:08.371Z</time></trkpt><trkpt lat="45.7870667" lon="8.5654333"><ele>202.33333333333334</ele><time>2026-03-22T15:29:09.371Z</time></trkpt><trkpt lat="45.7872067" lon="8.5655417"><ele>203.0</ele><time>2026-03-22T15:29:10.371Z</time></trkpt><trkpt lat="45.7873417" lon="8.5656517"><ele>203.0</ele><time>2026-03-22T15:29:11.371Z</time></trkpt><trkpt lat="45.78747" lon="8.56575"><ele>203.0</ele><time>2026-03-22T15:29:12.371Z</time></trkpt><trkpt lat="45.7875967" lon="8.5658383"><ele>203.0</ele><time>2026-03-22T15:29:13.371Z</time></trkpt><trkpt lat="45.7877233" lon="8.5659283"><ele>203.0</ele><time>2026-03-22T15:29:14.371Z</time></trkpt><trkpt lat="45.78785" lon="8.5660067"><ele>202.5</ele><time>2026-03-22T15:29:15.371Z</time></trkpt><trkpt lat="45.7879833" lon="8.5660833"><ele>202.0</ele><time>2026-03-22T15:29:16.371Z</time></trkpt><trkpt lat="45.788125" lon="8.5661483"><ele>201.5</ele><time>2026-03-22T15:29:17.371Z</time></trkpt><trkpt lat="45.7882733" lon="8.5661883"><ele>201.0</ele><time>2026-03-22T15:29:18.371Z</time></trkpt><trkpt lat="45.788425" lon="8.5662067"><ele>202.5</ele><time>2026-03-22T15:29:19.371Z</time></trkpt><trkpt lat="45.78857" lon="8.56622"><ele>204.0</ele><time>2026-03-22T15:29:20.371Z</time></trkpt><trkpt lat="45.7887167" lon="8.5662417"><ele>205.5</ele><time>2026-03-22T15:29:21.371Z</time></trkpt><trkpt lat="45.7888417" lon="8.5662717"><ele>207.0</ele><time>2026-03-22T15:29:22.371Z</time></trkpt><trkpt lat="45.7889783" lon="8.5663233"><ele>207.0</ele><time>2026-03-22T15:29:23.371Z</time></trkpt><trkpt lat="45.7891117" lon="8.5663917"><ele>207.0</ele><time>2026-03-22T15:29:24.371Z</time></trkpt><trkpt lat="45.7892567" lon="8.5664817"><ele>207.0</ele><time>2026-03-22T15:29:25.371Z</time></trkpt><trkpt lat="45.7894033" lon="8.56658"><ele>204.33333333333331</ele><time>2026-03-22T15:29:26.371Z</time></trkpt><trkpt lat="45.78954" lon="8.5666717"><ele>201.66666666666666</ele><time>2026-03-22T15:29:27.371Z</time></trkpt><trkpt lat="45.7896733" lon="8.56676"><ele>199.0</ele><time>2026-03-22T15:29:28.371Z</time></trkpt><trkpt lat="45.7898183" lon="8.5668317"><ele>199.0</ele><time>2026-03-22T15:29:29.371Z</time></trkpt><trkpt lat="45.78996" lon="8.5668967"><ele>199.0</ele><time>2026-03-22T15:29:30.371Z</time></trkpt><trkpt lat="45.7901017" lon="8.56694"><ele>199.0</ele><time>2026-03-22T15:29:31.371Z</time></trkpt><trkpt lat="45.7902433" lon="8.5669833"><ele>199.0</ele><time>2026-03-22T15:29:32.371Z</time></trkpt><trkpt lat="45.7903933" lon="8.5670583"><ele>201.25</ele><time>2026-03-22T15:29:33.371Z</time></trkpt><trkpt lat="45.7905367" lon="8.567105"><ele>203.5</ele><time>2026-03-22T15:29:34.371Z</time></trkpt><trkpt lat="45.790675" lon="8.5671567"><ele>205.75</ele><time>2026-03-22T15:29:35.371Z</time></trkpt><trkpt lat="45.790815" lon="8.5672"><ele>208.0</ele><time>2026-03-22T15:29:36.371Z</time></trkpt><trkpt lat="45.7909467" lon="8.5672467"><ele>207.25</ele><time>2026-03-22T15:29:37.371Z</time></trkpt><trkpt lat="45.7910733" lon="8.5672817"><ele>206.5</ele><time>2026-03-22T15:29:38.371Z</time></trkpt><trkpt lat="45.7911933" lon="8.5673067"><ele>205.75</ele><time>2026-03-22T15:29:39.371Z</time></trkpt><trkpt lat="45.7913083" lon="8.5673117"><ele>205.0</ele><time>2026-03-22T15:29:40.371Z</time></trkpt><trkpt lat="45.79142" lon="8.5673267"><ele>205.0</ele><time>2026-03-22T15:29:41.371Z</time></trkpt><trkpt lat="45.791535" lon="8.5673333"><ele>205.0</ele><time>2026-03-22T15:29:42.371Z</time></trkpt><trkpt lat="45.791645" lon="8.5673483"><ele>205.0</ele><time>2026-03-22T15:29:43.371Z</time></trkpt><trkpt lat="45.7917467" lon="8.5673583"><ele>205.0</ele><time>2026-03-22T15:29:44.371Z</time></trkpt><trkpt lat="45.7918483" lon="8.5673983"><ele>205.0</ele><time>2026-03-22T15:29:45.371Z</time></trkpt><trkpt lat="45.7919467" lon="8.5674583"><ele>204.0</ele><time>2026-03-22T15:29:46.371Z</time></trkpt><trkpt lat="45.7920433" lon="8.5675467"><ele>203.0</ele><time>2026-03-22T15:29:47.371Z</time></trkpt><trkpt lat="45.79215" lon="8.5676517"><ele>202.0</ele><time>2026-03-22T15:29:48.371Z</time></trkpt><trkpt lat="45.7922567" lon="8.5677667"><ele>201.0</ele><time>2026-03-22T15:29:49.371Z</time></trkpt><trkpt lat="45.7923667" lon="8.5678767"><ele>201.0</ele><time>2026-03-22T15:29:50.371Z</time></trkpt><trkpt lat="45.7924767" lon="8.5679683"><ele>201.0</ele><time>2026-03-22T15:29:51.371Z</time></trkpt><trkpt lat="45.7925833" lon="8.568075"><ele>201.0</ele><time>2026-03-22T15:29:52.371Z</time></trkpt><trkpt lat="45.7926983" lon="8.5681717"><ele>201.0</ele><time>2026-03-22T15:29:53.371Z</time></trkpt><trkpt lat="45.7928367" lon="8.5682683"><ele>201.0</ele><time>2026-03-22T15:29:54.371Z</time></trkpt><trkpt lat="45.7929917" lon="8.56835"><ele>201.0</ele><time>2026-03-22T15:29:55.371Z</time></trkpt><trkpt lat="45.7931467" lon="8.5684233"><ele>201.0</ele><time>2026-03-22T15:29:56.371Z</time></trkpt><trkpt lat="45.7933" lon="8.5684933"><ele>201.0</ele><time>2026-03-22T15:29:57.371Z</time></trkpt><trkpt lat="45.7934467" lon="8.56857"><ele>201.0</ele><time>2026-03-22T15:29:58.371Z</time></trkpt><trkpt lat="45.7935867" lon="8.5686283"><ele>201.0</ele><time>2026-03-22T15:29:59.371Z</time></trkpt><trkpt lat="45.7937233" lon="8.568685"><ele>201.0</ele><time>2026-03-22T15:30:00.371Z</time></trkpt><trkpt lat="45.7938467" lon="8.568745"><ele>201.25</ele><time>2026-03-22T15:30:01.371Z</time></trkpt><trkpt lat="45.79398" lon="8.568805"><ele>201.5</ele><time>2026-03-22T15:30:02.371Z</time></trkpt><trkpt lat="45.7941083" lon="8.5688683"><ele>201.75</ele><time>2026-03-22T15:30:03.371Z</time></trkpt><trkpt lat="45.7942433" lon="8.5689333"><ele>202.0</ele><time>2026-03-22T15:30:04.371Z</time></trkpt><trkpt lat="45.7943783" lon="8.5690017"><ele>202.0</ele><time>2026-03-22T15:30:05.371Z</time></trkpt><trkpt lat="45.7945017" lon="8.5690533"><ele>202.0</ele><time>2026-03-22T15:30:06.371Z</time></trkpt><trkpt lat="45.7946283" lon="8.5690783"><ele>202.0</ele><time>2026-03-22T15:30:07.371Z</time></trkpt><trkpt lat="45.79476" lon="8.569085"><ele>202.0</ele><time>2026-03-22T15:30:08.371Z</time></trkpt><trkpt lat="45.7949" lon="8.5690867"><ele>202.0</ele><time>2026-03-22T15:30:09.371Z</time></trkpt><trkpt lat="45.79504" lon="8.569065"><ele>202.0</ele><time>2026-03-22T15:30:10.371Z</time></trkpt><trkpt lat="45.795175" lon="8.569055"><ele>202.0</ele><time>2026-03-22T15:30:11.371Z</time></trkpt><trkpt lat="45.7953083" lon="8.5690433"><ele>202.0</ele><time>2026-03-22T15:30:12.371Z</time></trkpt><trkpt lat="45.79543" lon="8.5690333"><ele>202.5</ele><time>2026-03-22T15:30:13.371Z</time></trkpt><trkpt lat="45.7955483" lon="8.569025"><ele>203.0</ele><time>2026-03-22T15:30:14.371Z</time></trkpt><trkpt lat="45.79567" lon="8.5690067"><ele>203.5</ele><time>2026-03-22T15:30:15.371Z</time></trkpt><trkpt lat="45.79579" lon="8.5689783"><ele>204.0</ele><time>2026-03-22T15:30:16.371Z</time></trkpt><trkpt lat="45.7959067" lon="8.5689367"><ele>204.0</ele><time>2026-03-22T15:30:17.371Z</time></trkpt><trkpt lat="45.7960117" lon="8.56888"><ele>204.0</ele><time>2026-03-22T15:30:18.371Z</time></trkpt><trkpt lat="45.7961167" lon="8.5688283"><ele>204.0</ele><time>2026-03-22T15:30:19.371Z</time></trkpt><trkpt lat="45.796225" lon="8.5687833"><ele>204.0</ele><time>2026-03-22T15:30:20.371Z</time></trkpt><trkpt lat="45.796335" lon="8.5687583"><ele>204.0</ele><time>2026-03-22T15:30:21.371Z</time></trkpt><trkpt lat="45.79644" lon="8.5687533"><ele>204.0</ele><time>2026-03-22T15:30:22.371Z</time></trkpt><trkpt lat="45.7965517" lon="8.5687517"><ele>204.0</ele><time>2026-03-22T15:30:23.371Z</time></trkpt><trkpt lat="45.7966617" lon="8.5687567"><ele>204.0</ele><time>2026-03-22T15:30:24.371Z</time></trkpt><trkpt lat="45.7967667" lon="8.5687467"><ele>204.0</ele><time>2026-03-22T15:30:25.371Z</time></trkpt><trkpt lat="45.7968717" lon="8.5687483"><ele>204.0</ele><time>2026-03-22T15:30:26.371Z</time></trkpt><trkpt lat="45.7969717" lon="8.5687433"><ele>204.39999999999998</ele><time>2026-03-22T15:30:27.371Z</time></trkpt><trkpt lat="45.79706" lon="8.5687483"><ele>204.8</ele><time>2026-03-22T15:30:28.371Z</time></trkpt><trkpt lat="45.79714" lon="8.568755"><ele>205.2</ele><time>2026-03-22T15:30:29.372Z</time></trkpt><trkpt lat="45.7972083" lon="8.5687683"><ele>205.60000000000002</ele><time>2026-03-22T15:30:30.371Z</time></trkpt><trkpt lat="45.7973183" lon="8.5687983"><ele>206.0</ele><time>2026-03-22T15:30:32.371Z</time></trkpt><trkpt lat="45.7974283" lon="8.5688483"><ele>206.0</ele><time>2026-03-22T15:30:34.371Z</time></trkpt><trkpt lat="45.7975517" lon="8.5689717"><ele>206.0</ele><time>2026-03-22T15:30:36.371Z</time></trkpt><trkpt lat="45.797635" lon="8.5690617"><ele>206.0</ele><time>2026-03-22T15:30:37.371Z</time></trkpt><trkpt lat="45.797725" lon="8.5691517"><ele>206.0</ele><time>2026-03-22T15:30:38.371Z</time></trkpt><trkpt lat="45.7978117" lon="8.5692483"><ele>206.33333333333334</ele><time>2026-03-22T15:30:39.371Z</time></trkpt><trkpt lat="45.7978983" lon="8.5693367"><ele>206.66666666666669</ele><time>2026-03-22T15:30:40.371Z</time></trkpt><trkpt lat="45.7979733" lon="8.56941"><ele>207.0</ele><time>2026-03-22T15:30:41.371Z</time></trkpt><trkpt lat="45.79803" lon="8.5694867"><ele>207.33333333333331</ele><time>2026-03-22T15:30:42.371Z</time></trkpt><trkpt lat="45.798065" lon="8.5695683"><ele>207.66666666666666</ele><time>2026-03-22T15:30:43.371Z</time></trkpt><trkpt lat="45.7980867" lon="8.5696583"><ele>208.0</ele><time>2026-03-22T15:30:44.371Z</time></trkpt><trkpt lat="45.7980783" lon="8.5697733"><ele>209.2</ele><time>2026-03-22T15:30:45.371Z</time></trkpt><trkpt lat="45.7980517" lon="8.5699067"><ele>210.4</ele><time>2026-03-22T15:30:46.371Z</time></trkpt><trkpt lat="45.798015" lon="8.5700483"><ele>211.59999999999997</ele><time>2026-03-22T15:30:47.371Z</time></trkpt><trkpt lat="45.7979633" lon="8.570195"><ele>212.79999999999998</ele><time>2026-03-22T15:30:48.371Z</time></trkpt><trkpt lat="45.79791" lon="8.5703433"><ele>214.0</ele><time>2026-03-22T15:30:49.371Z</time></trkpt><trkpt lat="45.797845" lon="8.570495"><ele>214.6</ele><time>2026-03-22T15:30:50.371Z</time></trkpt><trkpt lat="45.7977783" lon="8.5706383"><ele>215.2</ele><time>2026-03-22T15:30:51.371Z</time></trkpt><trkpt lat="45.7977117" lon="8.570775"><ele>215.79999999999998</ele><time>2026-03-22T15:30:52.371Z</time></trkpt><trkpt lat="45.79766" lon="8.57089"><ele>216.39999999999998</ele><time>2026-03-22T15:30:53.371Z</time></trkpt><trkpt lat="45.7976" lon="8.5710017"><ele>217.0</ele><time>2026-03-22T15:30:54.371Z</time></trkpt><trkpt lat="45.797565" lon="8.5711267"><ele>217.8</ele><time>2026-03-22T15:30:55.371Z</time></trkpt><trkpt lat="45.7975233" lon="8.5712467"><ele>218.6</ele><time>2026-03-22T15:30:56.371Z</time></trkpt><trkpt lat="45.7974633" lon="8.5713583"><ele>219.40000000000003</ele><time>2026-03-22T15:30:57.371Z</time></trkpt><trkpt lat="45.7973867" lon="8.5714733"><ele>220.20000000000002</ele><time>2026-03-22T15:30:58.371Z</time></trkpt><trkpt lat="45.797315" lon="8.5716017"><ele>221.0</ele><time>2026-03-22T15:30:59.371Z</time></trkpt><trkpt lat="45.797255" lon="8.5717283"><ele>221.00000000000003</ele><time>2026-03-22T15:31:00.371Z</time></trkpt><trkpt lat="45.7972233" lon="8.5718533"><ele>221.0</ele><time>2026-03-22T15:31:01.371Z</time></trkpt><trkpt lat="45.7972083" lon="8.5719783"><ele>221.0</ele><time>2026-03-22T15:31:02.371Z</time></trkpt><trkpt lat="45.79722" lon="8.5721017"><ele>221.0</ele><time>2026-03-22T15:31:03.371Z</time></trkpt><trkpt lat="45.797255" lon="8.5722117"><ele>221.00000000000003</ele><time>2026-03-22T15:31:04.371Z</time></trkpt><trkpt lat="45.7973117" lon="8.5723133"><ele>221.0</ele><time>2026-03-22T15:31:05.371Z</time></trkpt><trkpt lat="45.79739" lon="8.5724133"><ele>221.4</ele><time>2026-03-22T15:31:06.371Z</time></trkpt><trkpt lat="45.7974817" lon="8.5725083"><ele>221.8</ele><time>2026-03-22T15:31:07.371Z</time></trkpt><trkpt lat="45.797565" lon="8.5725983"><ele>222.20000000000002</ele><time>2026-03-22T15:31:08.371Z</time></trkpt><trkpt lat="45.7976283" lon="8.572695"><ele>222.60000000000002</ele><time>2026-03-22T15:31:09.371Z</time></trkpt><trkpt lat="45.7976733" lon="8.5728183"><ele>223.0</ele><time>2026-03-22T15:31:10.371Z</time></trkpt><trkpt lat="45.7977017" lon="8.572965"><ele>223.4</ele><time>2026-03-22T15:31:11.371Z</time></trkpt><trkpt lat="45.7977117" lon="8.5731167"><ele>223.8</ele><time>2026-03-22T15:31:12.371Z</time></trkpt><trkpt lat="45.7976883" lon="8.5732667"><ele>224.2</ele><time>2026-03-22T15:31:13.371Z</time></trkpt><trkpt lat="45.79765" lon="8.5734067"><ele>224.6</ele><time>2026-03-22T15:31:14.371Z</time></trkpt><trkpt lat="45.7975967" lon="8.5735433"><ele>225.0</ele><time>2026-03-22T15:31:15.371Z</time></trkpt><trkpt lat="45.7975333" lon="8.5736767"><ele>227.0</ele><time>2026-03-22T15:31:16.371Z</time></trkpt><trkpt lat="45.797475" lon="8.573805"><ele>229.0</ele><time>2026-03-22T15:31:17.371Z</time></trkpt><trkpt lat="45.79741" lon="8.573915"><ele>231.0</ele><time>2026-03-22T15:31:18.371Z</time></trkpt><trkpt lat="45.7973583" lon="8.5740433"><ele>233.0</ele><time>2026-03-22T15:31:19.371Z</time></trkpt><trkpt lat="45.7973083" lon="8.57419"><ele>235.0</ele><time>2026-03-22T15:31:20.371Z</time></trkpt><trkpt lat="45.79726" lon="8.574375"><ele>234.0</ele><time>2026-03-22T15:31:21.371Z</time></trkpt><trkpt lat="45.7972017" lon="8.5745867"><ele>233.0</ele><time>2026-03-22T15:31:22.371Z</time></trkpt><trkpt lat="45.7971317" lon="8.574815"><ele>232.0</ele><time>2026-03-22T15:31:23.371Z</time></trkpt><trkpt lat="45.7970483" lon="8.5750483"><ele>232.0</ele><time>2026-03-22T15:31:24.371Z</time></trkpt><trkpt lat="45.796965" lon="8.5752983"><ele>232.0</ele><time>2026-03-22T15:31:25.371Z</time></trkpt><trkpt lat="45.7968817" lon="8.57553"><ele>232.0</ele><time>2026-03-22T15:31:26.371Z</time></trkpt><trkpt lat="45.7967983" lon="8.5757517"><ele>234.33333333333331</ele><time>2026-03-22T15:31:27.371Z</time></trkpt><trkpt lat="45.7967267" lon="8.57596"><ele>236.66666666666669</ele><time>2026-03-22T15:31:28.371Z</time></trkpt><trkpt lat="45.7966417" lon="8.576155"><ele>239.0</ele><time>2026-03-22T15:31:29.371Z</time></trkpt><trkpt lat="45.79655" lon="8.5763383"><ele>239.0</ele><time>2026-03-22T15:31:30.371Z</time></trkpt><trkpt lat="45.7964733" lon="8.5765167"><ele>239.0</ele><time>2026-03-22T15:31:31.371Z</time></trkpt><trkpt lat="45.796395" lon="8.576705"><ele>239.0</ele><time>2026-03-22T15:31:32.371Z</time></trkpt><trkpt lat="45.796315" lon="8.5768767"><ele>239.0</ele><time>2026-03-22T15:31:33.371Z</time></trkpt><trkpt lat="45.7962433" lon="8.577045"><ele>239.0</ele><time>2026-03-22T15:31:34.371Z</time></trkpt><trkpt lat="45.7961683" lon="8.5772033"><ele>239.0</ele><time>2026-03-22T15:31:35.371Z</time></trkpt><trkpt lat="45.796095" lon="8.5773617"><ele>239.0</ele><time>2026-03-22T15:31:36.371Z</time></trkpt><trkpt lat="45.7960283" lon="8.5775267"><ele>239.0</ele><time>2026-03-22T15:31:37.371Z</time></trkpt><trkpt lat="45.7959567" lon="8.57769"><ele>240.33333333333334</ele><time>2026-03-22T15:31:38.371Z</time></trkpt><trkpt lat="45.79588" lon="8.5778567"><ele>241.66666666666669</ele><time>2026-03-22T15:31:39.371Z</time></trkpt><trkpt lat="45.7957933" lon="8.578035"><ele>243.0</ele><time>2026-03-22T15:31:40.371Z</time></trkpt><trkpt lat="45.7957" lon="8.57822"><ele>243.0</ele><time>2026-03-22T15:31:41.371Z</time></trkpt><trkpt lat="45.7956033" lon="8.5784117"><ele>243.0</ele><time>2026-03-22T15:31:42.371Z</time></trkpt><trkpt lat="45.795515" lon="8.5786033"><ele>243.0</ele><time>2026-03-22T15:31:43.371Z</time></trkpt><trkpt lat="45.7954333" lon="8.5787867"><ele>242.66666666666669</ele><time>2026-03-22T15:31:44.371Z</time></trkpt><trkpt lat="45.795355" lon="8.5789667"><ele>242.33333333333334</ele><time>2026-03-22T15:31:45.371Z</time></trkpt><trkpt lat="45.795275" lon="8.5791483"><ele>242.0</ele><time>2026-03-22T15:31:46.371Z</time></trkpt><trkpt lat="45.79519" lon="8.5793383"><ele>241.66666666666669</ele><time>2026-03-22T15:31:47.371Z</time></trkpt><trkpt lat="45.795105" lon="8.5795283"><ele>241.33333333333331</ele><time>2026-03-22T15:31:48.371Z</time></trkpt><trkpt lat="45.7950167" lon="8.5797267"><ele>241.0</ele><time>2026-03-22T15:31:49.371Z</time></trkpt><trkpt lat="45.7949317" lon="8.57993"><ele>241.0</ele><time>2026-03-22T15:31:50.371Z</time></trkpt><trkpt lat="45.7948317" lon="8.58014"><ele>241.0</ele><time>2026-03-22T15:31:51.371Z</time></trkpt><trkpt lat="45.79473" lon="8.5803433"><ele>241.0</ele><time>2026-03-22T15:31:52.371Z</time></trkpt><trkpt lat="45.7946217" lon="8.5805367"><ele>239.66666666666666</ele><time>2026-03-22T15:31:53.371Z</time></trkpt><trkpt lat="45.7945333" lon="8.580705"><ele>238.33333333333331</ele><time>2026-03-22T15:31:54.371Z</time></trkpt><trkpt lat="45.7944417" lon="8.580885"><ele>237.0</ele><time>2026-03-22T15:31:55.371Z</time></trkpt><trkpt lat="45.7943517" lon="8.5810583"><ele>237.0</ele><time>2026-03-22T15:31:56.372Z</time></trkpt><trkpt lat="45.79426" lon="8.5812417"><ele>237.0</ele><time>2026-03-22T15:31:57.371Z</time></trkpt><trkpt lat="45.7941717" lon="8.5814167"><ele>237.0</ele><time>2026-03-22T15:31:58.371Z</time></trkpt><trkpt lat="45.7940817" lon="8.5815933"><ele>237.0</ele><time>2026-03-22T15:31:59.371Z</time></trkpt><trkpt lat="45.7939833" lon="8.5817633"><ele>237.0</ele><time>2026-03-22T15:32:00.371Z</time></trkpt><trkpt lat="45.79389" lon="8.5819433"><ele>237.0</ele><time>2026-03-22T15:32:01.371Z</time></trkpt><trkpt lat="45.7938033" lon="8.582125"><ele>237.25</ele><time>2026-03-22T15:32:02.371Z</time></trkpt><trkpt lat="45.7937167" lon="8.5823017"><ele>237.5</ele><time>2026-03-22T15:32:03.371Z</time></trkpt><trkpt lat="45.7936333" lon="8.5824717"><ele>237.75</ele><time>2026-03-22T15:32:04.371Z</time></trkpt><trkpt lat="45.7935417" lon="8.5826417"><ele>238.0</ele><time>2026-03-22T15:32:05.371Z</time></trkpt><trkpt lat="45.793445" lon="8.5828117"><ele>237.33333333333331</ele><time>2026-03-22T15:32:06.371Z</time></trkpt><trkpt lat="45.7933433" lon="8.5829783"><ele>236.66666666666669</ele><time>2026-03-22T15:32:07.371Z</time></trkpt><trkpt lat="45.7932383" lon="8.5831433"><ele>236.0</ele><time>2026-03-22T15:32:08.371Z</time></trkpt><trkpt lat="45.7931333" lon="8.5833033"><ele>236.0</ele><time>2026-03-22T15:32:09.371Z</time></trkpt><trkpt lat="45.7930283" lon="8.5834633"><ele>236.0</ele><time>2026-03-22T15:32:10.371Z</time></trkpt><trkpt lat="45.7929267" lon="8.5836183"><ele>236.0</ele><time>2026-03-22T15:32:11.371Z</time></trkpt><trkpt lat="45.7928233" lon="8.5837667"><ele>236.0</ele><time>2026-03-22T15:32:12.371Z</time></trkpt><trkpt lat="45.7927167" lon="8.58391"><ele>238.0</ele><time>2026-03-22T15:32:13.371Z</time></trkpt><trkpt lat="45.7926083" lon="8.58406"><ele>240.0</ele><time>2026-03-22T15:32:14.371Z</time></trkpt><trkpt lat="45.7924983" lon="8.5842167"><ele>242.0</ele><time>2026-03-22T15:32:15.371Z</time></trkpt><trkpt lat="45.792385" lon="8.584375"><ele>240.0</ele><time>2026-03-22T15:32:16.371Z</time></trkpt><trkpt lat="45.7922733" lon="8.5845317"><ele>238.0</ele><time>2026-03-22T15:32:17.371Z</time></trkpt><trkpt lat="45.7921683" lon="8.5846783"><ele>236.0</ele><time>2026-03-22T15:32:18.371Z</time></trkpt><trkpt lat="45.7920583" lon="8.584825"><ele>236.0</ele><time>2026-03-22T15:32:19.371Z</time></trkpt><trkpt lat="45.7919667" lon="8.58496"><ele>236.0</ele><time>2026-03-22T15:32:20.371Z</time></trkpt><trkpt lat="45.79188" lon="8.5851267"><ele>236.0</ele><time>2026-03-22T15:32:21.371Z</time></trkpt><trkpt lat="45.7918033" lon="8.5853333"><ele>236.0</ele><time>2026-03-22T15:32:22.371Z</time></trkpt><trkpt lat="45.7917167" lon="8.5855667"><ele>235.33333333333334</ele><time>2026-03-22T15:32:23.371Z</time></trkpt><trkpt lat="45.7916117" lon="8.5858217"><ele>234.66666666666669</ele><time>2026-03-22T15:32:24.371Z</time></trkpt><trkpt lat="45.7914967" lon="8.5860867"><ele>234.0</ele><time>2026-03-22T15:32:25.371Z</time></trkpt><trkpt lat="45.7913867" lon="8.586355"><ele>234.0</ele><time>2026-03-22T15:32:26.371Z</time></trkpt><trkpt lat="45.79129" lon="8.586615"><ele>234.0</ele><time>2026-03-22T15:32:27.371Z</time></trkpt><trkpt lat="45.791195" lon="8.58686"><ele>234.0</ele><time>2026-03-22T15:32:28.371Z</time></trkpt><trkpt lat="45.7911017" lon="8.5870917"><ele>232.33333333333331</ele><time>2026-03-22T15:32:29.371Z</time></trkpt><trkpt lat="45.79101" lon="8.5873083"><ele>230.66666666666666</ele><time>2026-03-22T15:32:30.371Z</time></trkpt><trkpt lat="45.7909217" lon="8.587515"><ele>229.0</ele><time>2026-03-22T15:32:31.371Z</time></trkpt><trkpt lat="45.7908367" lon="8.58771"><ele>229.66666666666666</ele><time>2026-03-22T15:32:32.371Z</time></trkpt><trkpt lat="45.7907617" lon="8.5879017"><ele>230.33333333333331</ele><time>2026-03-22T15:32:33.371Z</time></trkpt><trkpt lat="45.7906833" lon="8.5880867"><ele>231.0</ele><time>2026-03-22T15:32:34.371Z</time></trkpt><trkpt lat="45.7905967" lon="8.5882683"><ele>231.0</ele><time>2026-03-22T15:32:35.371Z</time></trkpt><trkpt lat="45.79051" lon="8.58845"><ele>231.0</ele><time>2026-03-22T15:32:36.371Z</time></trkpt><trkpt lat="45.7904217" lon="8.5886333"><ele>231.0</ele><time>2026-03-22T15:32:37.371Z</time></trkpt><trkpt lat="45.790335" lon="8.5888167"><ele>230.0</ele><time>2026-03-22T15:32:38.371Z</time></trkpt><trkpt lat="45.7902517" lon="8.5889933"><ele>229.0</ele><time>2026-03-22T15:32:39.371Z</time></trkpt><trkpt lat="45.79017" lon="8.5891683"><ele>228.0</ele><time>2026-03-22T15:32:40.371Z</time></trkpt><trkpt lat="45.7900833" lon="8.5893383"><ele>227.0</ele><time>2026-03-22T15:32:41.371Z</time></trkpt><trkpt lat="45.78999" lon="8.5895017"><ele>228.0</ele><time>2026-03-22T15:32:42.371Z</time></trkpt><trkpt lat="45.789885" lon="8.5896567"><ele>229.0</ele><time>2026-03-22T15:32:43.371Z</time></trkpt><trkpt lat="45.7897717" lon="8.5898033"><ele>230.0</ele><time>2026-03-22T15:32:44.371Z</time></trkpt><trkpt lat="45.7896567" lon="8.5899533"><ele>230.0</ele><time>2026-03-22T15:32:45.371Z</time></trkpt><trkpt lat="45.789545" lon="8.5901033"><ele>230.0</ele><time>2026-03-22T15:32:46.371Z</time></trkpt><trkpt lat="45.78944" lon="8.59025"><ele>230.0</ele><time>2026-03-22T15:32:47.371Z</time></trkpt><trkpt lat="45.7893367" lon="8.5903883"><ele>230.0</ele><time>2026-03-22T15:32:48.371Z</time></trkpt><trkpt lat="45.7892433" lon="8.5905183"><ele>230.0</ele><time>2026-03-22T15:32:49.371Z</time></trkpt><trkpt lat="45.7891533" lon="8.5906433"><ele>230.0</ele><time>2026-03-22T15:32:50.371Z</time></trkpt><trkpt lat="45.789065" lon="8.5907617"><ele>230.0</ele><time>2026-03-22T15:32:51.371Z</time></trkpt><trkpt lat="45.7889817" lon="8.59088"><ele>230.0</ele><time>2026-03-22T15:32:52.371Z</time></trkpt><trkpt lat="45.788895" lon="8.5909983"><ele>230.0</ele><time>2026-03-22T15:32:53.371Z</time></trkpt><trkpt lat="45.788805" lon="8.5911167"><ele>230.0</ele><time>2026-03-22T15:32:54.371Z</time></trkpt><trkpt lat="45.7887133" lon="8.5912367"><ele>230.0</ele><time>2026-03-22T15:32:55.371Z</time></trkpt><trkpt lat="45.7886167" lon="8.5913533"><ele>230.0</ele><time>2026-03-22T15:32:56.371Z</time></trkpt><trkpt lat="45.7885183" lon="8.5914717"><ele>229.0</ele><time>2026-03-22T15:32:57.371Z</time></trkpt><trkpt lat="45.7884217" lon="8.59159"><ele>228.0</ele><time>2026-03-22T15:32:58.371Z</time></trkpt><trkpt lat="45.7883233" lon="8.5917033"><ele>227.0</ele><time>2026-03-22T15:32:59.371Z</time></trkpt><trkpt lat="45.7882233" lon="8.591805"><ele>226.0</ele><time>2026-03-22T15:33:00.371Z</time></trkpt><trkpt lat="45.7881233" lon="8.5919017"><ele>226.0</ele><time>2026-03-22T15:33:01.371Z</time></trkpt><trkpt lat="45.78802" lon="8.5920017"><ele>226.0</ele><time>2026-03-22T15:33:02.371Z</time></trkpt><trkpt lat="45.7879133" lon="8.5920967"><ele>226.0</ele><time>2026-03-22T15:33:03.371Z</time></trkpt><trkpt lat="45.787805" lon="8.5921983"><ele>226.0</ele><time>2026-03-22T15:33:04.371Z</time></trkpt><trkpt lat="45.7876933" lon="8.5922983"><ele>225.0</ele><time>2026-03-22T15:33:05.371Z</time></trkpt><trkpt lat="45.78758" lon="8.5924"><ele>224.0</ele><time>2026-03-22T15:33:06.371Z</time></trkpt><trkpt lat="45.7874683" lon="8.5925"><ele>223.0</ele><time>2026-03-22T15:33:07.371Z</time></trkpt><trkpt lat="45.787355" lon="8.5925983"><ele>222.0</ele><time>2026-03-22T15:33:08.371Z</time></trkpt><trkpt lat="45.78724" lon="8.592695"><ele>222.0</ele><time>2026-03-22T15:33:09.371Z</time></trkpt><trkpt lat="45.7871267" lon="8.5927933"><ele>222.0</ele><time>2026-03-22T15:33:10.371Z</time></trkpt><trkpt lat="45.7870117" lon="8.5928917"><ele>222.0</ele><time>2026-03-22T15:33:11.371Z</time></trkpt><trkpt lat="45.7869" lon="8.592995"><ele>222.0</ele><time>2026-03-22T15:33:12.371Z</time></trkpt><trkpt lat="45.7867867" lon="8.593105"><ele>220.75</ele><time>2026-03-22T15:33:13.371Z</time></trkpt><trkpt lat="45.786685" lon="8.5932233"><ele>219.5</ele><time>2026-03-22T15:33:14.371Z</time></trkpt><trkpt lat="45.78659" lon="8.5933567"><ele>218.25</ele><time>2026-03-22T15:33:15.371Z</time></trkpt><trkpt lat="45.7865067" lon="8.5934933"><ele>217.0</ele><time>2026-03-22T15:33:16.371Z</time></trkpt><trkpt lat="45.7864283" lon="8.593625"><ele>216.49999999999997</ele><time>2026-03-22T15:33:17.371Z</time></trkpt><trkpt lat="45.7863567" lon="8.5937383"><ele>216.0</ele><time>2026-03-22T15:33:18.371Z</time></trkpt><trkpt lat="45.7862917" lon="8.59383"><ele>215.5</ele><time>2026-03-22T15:33:19.371Z</time></trkpt><trkpt lat="45.78623" lon="8.5939033"><ele>215.0</ele><time>2026-03-22T15:33:20.371Z</time></trkpt><trkpt lat="45.7861683" lon="8.5939583"><ele>214.49999999999997</ele><time>2026-03-22T15:33:21.371Z</time></trkpt><trkpt lat="45.78611" lon="8.594015"><ele>214.0</ele><time>2026-03-22T15:33:22.371Z</time></trkpt><trkpt lat="45.7860583" lon="8.5941517"><ele>214.0</ele><time>2026-03-22T15:33:24.371Z</time></trkpt><trkpt lat="45.7861283" lon="8.59427"><ele>213.99999999999997</ele><time>2026-03-22T15:33:26.371Z</time></trkpt><trkpt lat="45.7862" lon="8.59428"><ele>213.99999999999997</ele><time>2026-03-22T15:33:27.371Z</time></trkpt><trkpt lat="45.7862833" lon="8.5942883"><ele>214.0</ele><time>2026-03-22T15:33:28.371Z</time></trkpt><trkpt lat="45.7863867" lon="8.594305"><ele>214.0</ele><time>2026-03-22T15:33:29.371Z</time></trkpt><trkpt lat="45.7865167" lon="8.594335"><ele>214.0</ele><time>2026-03-22T15:33:30.371Z</time></trkpt><trkpt lat="45.786655" lon="8.5943617"><ele>214.0</ele><time>2026-03-22T15:33:31.371Z</time></trkpt><trkpt lat="45.786785" lon="8.5943867"><ele>214.0</ele><time>2026-03-22T15:33:32.371Z</time></trkpt><trkpt lat="45.7869117" lon="8.594415"><ele>214.0</ele><time>2026-03-22T15:33:33.371Z</time></trkpt><trkpt lat="45.7870367" lon="8.594455"><ele>214.0</ele><time>2026-03-22T15:33:34.371Z</time></trkpt><trkpt lat="45.787165" lon="8.5944933"><ele>214.0</ele><time>2026-03-22T15:33:35.371Z</time></trkpt><trkpt lat="45.787295" lon="8.594545"><ele>214.0</ele><time>2026-03-22T15:33:36.371Z</time></trkpt><trkpt lat="45.78742" lon="8.5945933"><ele>214.0</ele><time>2026-03-22T15:33:37.371Z</time></trkpt><trkpt lat="45.7875383" lon="8.59464"><ele>213.75</ele><time>2026-03-22T15:33:38.371Z</time></trkpt><trkpt lat="45.787655" lon="8.59469"><ele>213.5</ele><time>2026-03-22T15:33:39.371Z</time></trkpt><trkpt lat="45.78777" lon="8.5947467"><ele>213.25</ele><time>2026-03-22T15:33:40.372Z</time></trkpt><trkpt lat="45.787885" lon="8.5948133"><ele>213.0</ele><time>2026-03-22T15:33:41.371Z</time></trkpt><trkpt lat="45.7879967" lon="8.5948883"><ele>212.5</ele><time>2026-03-22T15:33:42.371Z</time></trkpt><trkpt lat="45.7881067" lon="8.594975"><ele>212.0</ele><time>2026-03-22T15:33:43.371Z</time></trkpt><trkpt lat="45.7882167" lon="8.5950733"><ele>211.5</ele><time>2026-03-22T15:33:44.371Z</time></trkpt><trkpt lat="45.788325" lon="8.5951867"><ele>211.0</ele><time>2026-03-22T15:33:45.371Z</time></trkpt><trkpt lat="45.7884333" lon="8.59532"><ele>210.5</ele><time>2026-03-22T15:33:46.371Z</time></trkpt><trkpt lat="45.788535" lon="8.5954583"><ele>210.0</ele><time>2026-03-22T15:33:47.371Z</time></trkpt><trkpt lat="45.7886317" lon="8.5955983"><ele>209.5</ele><time>2026-03-22T15:33:48.371Z</time></trkpt><trkpt lat="45.788725" lon="8.59574"><ele>209.0</ele><time>2026-03-22T15:33:49.371Z</time></trkpt><trkpt lat="45.78881" lon="8.59588"><ele>209.0</ele><time>2026-03-22T15:33:50.371Z</time></trkpt><trkpt lat="45.788905" lon="8.59601"><ele>209.0</ele><time>2026-03-22T15:33:51.371Z</time></trkpt><trkpt lat="45.7889983" lon="8.59615"><ele>209.0</ele><time>2026-03-22T15:33:52.371Z</time></trkpt><trkpt lat="45.7891017" lon="8.5963117"><ele>209.0</ele><time>2026-03-22T15:33:53.371Z</time></trkpt><trkpt lat="45.78922" lon="8.5964767"><ele>209.0</ele><time>2026-03-22T15:33:54.371Z</time></trkpt><trkpt lat="45.78935" lon="8.596655"><ele>209.0</ele><time>2026-03-22T15:33:55.371Z</time></trkpt><trkpt lat="45.789485" lon="8.5968533"><ele>209.0</ele><time>2026-03-22T15:33:56.371Z</time></trkpt><trkpt lat="45.78963" lon="8.597065"><ele>209.33333333333334</ele><time>2026-03-22T15:33:57.371Z</time></trkpt><trkpt lat="45.7897733" lon="8.5972917"><ele>209.66666666666669</ele><time>2026-03-22T15:33:58.371Z</time></trkpt><trkpt lat="45.7899117" lon="8.597515"><ele>210.0</ele><time>2026-03-22T15:33:59.371Z</time></trkpt><trkpt lat="45.7900467" lon="8.5977217"><ele>209.66666666666669</ele><time>2026-03-22T15:34:00.371Z</time></trkpt><trkpt lat="45.7901733" lon="8.5979133"><ele>209.33333333333334</ele><time>2026-03-22T15:34:01.371Z</time></trkpt><trkpt lat="45.7902933" lon="8.5981"><ele>209.0</ele><time>2026-03-22T15:34:02.371Z</time></trkpt><trkpt lat="45.790415" lon="8.5982817"><ele>209.0</ele><time>2026-03-22T15:34:03.371Z</time></trkpt><trkpt lat="45.7905367" lon="8.5984633"><ele>209.0</ele><time>2026-03-22T15:34:04.371Z</time></trkpt><trkpt lat="45.790655" lon="8.59864"><ele>209.0</ele><time>2026-03-22T15:34:05.371Z</time></trkpt><trkpt lat="45.7907717" lon="8.5988067"><ele>208.66666666666669</ele><time>2026-03-22T15:34:06.371Z</time></trkpt><trkpt lat="45.790885" lon="8.5989867"><ele>208.33333333333331</ele><time>2026-03-22T15:34:07.371Z</time></trkpt><trkpt lat="45.791005" lon="8.599155"><ele>208.0</ele><time>2026-03-22T15:34:08.371Z</time></trkpt><trkpt lat="45.79113" lon="8.599335"><ele>209.0</ele><time>2026-03-22T15:34:09.371Z</time></trkpt><trkpt lat="45.7912517" lon="8.5995217"><ele>210.0</ele><time>2026-03-22T15:34:10.371Z</time></trkpt><trkpt lat="45.7913767" lon="8.5997033"><ele>211.0</ele><time>2026-03-22T15:34:11.371Z</time></trkpt><trkpt lat="45.7914983" lon="8.5998883"><ele>211.0</ele><time>2026-03-22T15:34:12.372Z</time></trkpt><trkpt lat="45.7916183" lon="8.60008"><ele>211.0</ele><time>2026-03-22T15:34:13.371Z</time></trkpt><trkpt lat="45.7917417" lon="8.60026"><ele>211.0</ele><time>2026-03-22T15:34:14.371Z</time></trkpt><trkpt lat="45.7918617" lon="8.600445"><ele>212.66666666666666</ele><time>2026-03-22T15:34:15.371Z</time></trkpt><trkpt lat="45.7919833" lon="8.6006217"><ele>214.33333333333331</ele><time>2026-03-22T15:34:16.371Z</time></trkpt><trkpt lat="45.7921017" lon="8.6007883"><ele>216.0</ele><time>2026-03-22T15:34:17.371Z</time></trkpt><trkpt lat="45.79222" lon="8.6009617"><ele>216.0</ele><time>2026-03-22T15:34:18.371Z</time></trkpt><trkpt lat="45.7923417" lon="8.60113"><ele>216.0</ele><time>2026-03-22T15:34:19.371Z</time></trkpt><trkpt lat="45.792465" lon="8.601285"><ele>216.0</ele><time>2026-03-22T15:34:20.371Z</time></trkpt><trkpt lat="45.7925983" lon="8.6014317"><ele>215.33333333333331</ele><time>2026-03-22T15:34:21.371Z</time></trkpt><trkpt lat="45.79274" lon="8.6015683"><ele>214.66666666666666</ele><time>2026-03-22T15:34:22.371Z</time></trkpt><trkpt lat="45.792895" lon="8.6017033"><ele>214.0</ele><time>2026-03-22T15:34:23.371Z</time></trkpt><trkpt lat="45.7930467" lon="8.601835"><ele>214.0</ele><time>2026-03-22T15:34:24.371Z</time></trkpt><trkpt lat="45.7932" lon="8.6019683"><ele>214.0</ele><time>2026-03-22T15:34:25.371Z</time></trkpt><trkpt lat="45.79336" lon="8.6021"><ele>214.0</ele><time>2026-03-22T15:34:26.371Z</time></trkpt><trkpt lat="45.7935233" lon="8.6022467"><ele>214.66666666666666</ele><time>2026-03-22T15:34:27.371Z</time></trkpt><trkpt lat="45.79368" lon="8.60239"><ele>215.33333333333331</ele><time>2026-03-22T15:34:28.371Z</time></trkpt><trkpt lat="45.7938367" lon="8.60253"><ele>216.0</ele><time>2026-03-22T15:34:29.371Z</time></trkpt><trkpt lat="45.7939917" lon="8.6026617"><ele>216.0</ele><time>2026-03-22T15:34:30.371Z</time></trkpt><trkpt lat="45.7941417" lon="8.602795"><ele>216.0</ele><time>2026-03-22T15:34:31.371Z</time></trkpt><trkpt lat="45.7942967" lon="8.6029283"><ele>216.0</ele><time>2026-03-22T15:34:32.371Z</time></trkpt><trkpt lat="45.79445" lon="8.6030667"><ele>215.66666666666669</ele><time>2026-03-22T15:34:33.371Z</time></trkpt><trkpt lat="45.7946" lon="8.603205"><ele>215.33333333333334</ele><time>2026-03-22T15:34:34.371Z</time></trkpt><trkpt lat="45.7947533" lon="8.6033517"><ele>215.0</ele><time>2026-03-22T15:34:35.371Z</time></trkpt><trkpt lat="45.7949" lon="8.6034967"><ele>215.0</ele><time>2026-03-22T15:34:36.371Z</time></trkpt><trkpt lat="45.7950567" lon="8.6036267"><ele>215.0</ele><time>2026-03-22T15:34:37.371Z</time></trkpt><trkpt lat="45.79521" lon="8.6037617"><ele>215.0</ele><time>2026-03-22T15:34:38.371Z</time></trkpt><trkpt lat="45.7953633" lon="8.6038983"><ele>214.66666666666669</ele><time>2026-03-22T15:34:39.371Z</time></trkpt><trkpt lat="45.7955183" lon="8.6040367"><ele>214.33333333333331</ele><time>2026-03-22T15:34:40.371Z</time></trkpt><trkpt lat="45.795675" lon="8.6041767"><ele>214.0</ele><time>2026-03-22T15:34:41.371Z</time></trkpt><trkpt lat="45.7958367" lon="8.6043167"><ele>214.0</ele><time>2026-03-22T15:34:42.371Z</time></trkpt><trkpt lat="45.796" lon="8.60446"><ele>214.0</ele><time>2026-03-22T15:34:43.371Z</time></trkpt><trkpt lat="45.7961633" lon="8.6046033"><ele>214.0</ele><time>2026-03-22T15:34:44.371Z</time></trkpt><trkpt lat="45.7963233" lon="8.6047417"><ele>213.33333333333331</ele><time>2026-03-22T15:34:45.371Z</time></trkpt><trkpt lat="45.79648" lon="8.6048933"><ele>212.66666666666669</ele><time>2026-03-22T15:34:46.371Z</time></trkpt><trkpt lat="45.7966333" lon="8.6050467"><ele>212.0</ele><time>2026-03-22T15:34:47.371Z</time></trkpt><trkpt lat="45.79678" lon="8.6052267"><ele>212.66666666666669</ele><time>2026-03-22T15:34:48.371Z</time></trkpt><trkpt lat="45.7969233" lon="8.6054083"><ele>213.33333333333331</ele><time>2026-03-22T15:34:49.371Z</time></trkpt><trkpt lat="45.7970667" lon="8.6055867"><ele>214.0</ele><time>2026-03-22T15:34:50.371Z</time></trkpt><trkpt lat="45.7972083" lon="8.605765"><ele>214.0</ele><time>2026-03-22T15:34:51.371Z</time></trkpt><trkpt lat="45.7973467" lon="8.605925"><ele>214.0</ele><time>2026-03-22T15:34:52.371Z</time></trkpt><trkpt lat="45.79748" lon="8.606095"><ele>214.0</ele><time>2026-03-22T15:34:53.371Z</time></trkpt><trkpt lat="45.79762" lon="8.6062733"><ele>214.66666666666666</ele><time>2026-03-22T15:34:54.371Z</time></trkpt><trkpt lat="45.7977633" lon="8.606445"><ele>215.33333333333331</ele><time>2026-03-22T15:34:55.371Z</time></trkpt><trkpt lat="45.7979017" lon="8.6066167"><ele>216.0</ele><time>2026-03-22T15:34:56.371Z</time></trkpt><trkpt lat="45.7980333" lon="8.60679"><ele>216.0</ele><time>2026-03-22T15:34:57.371Z</time></trkpt><trkpt lat="45.79817" lon="8.60697"><ele>216.0</ele><time>2026-03-22T15:34:58.371Z</time></trkpt><trkpt lat="45.7983033" lon="8.6071417"><ele>216.0</ele><time>2026-03-22T15:34:59.371Z</time></trkpt><trkpt lat="45.79844" lon="8.6073133"><ele>215.0</ele><time>2026-03-22T15:35:00.371Z</time></trkpt><trkpt lat="45.7985717" lon="8.6074867"><ele>214.0</ele><time>2026-03-22T15:35:01.371Z</time></trkpt><trkpt lat="45.7987067" lon="8.607655"><ele>213.0</ele><time>2026-03-22T15:35:02.371Z</time></trkpt><trkpt lat="45.79885" lon="8.6078217"><ele>212.33333333333331</ele><time>2026-03-22T15:35:03.371Z</time></trkpt><trkpt lat="45.798985" lon="8.6079883"><ele>211.66666666666666</ele><time>2026-03-22T15:35:04.371Z</time></trkpt><trkpt lat="45.79912" lon="8.6081617"><ele>211.0</ele><time>2026-03-22T15:35:05.371Z</time></trkpt><trkpt lat="45.7992517" lon="8.6083317"><ele>211.33333333333331</ele><time>2026-03-22T15:35:06.371Z</time></trkpt><trkpt lat="45.7993917" lon="8.6085017"><ele>211.66666666666669</ele><time>2026-03-22T15:35:07.371Z</time></trkpt><trkpt lat="45.7995233" lon="8.6086683"><ele>212.0</ele><time>2026-03-22T15:35:08.371Z</time></trkpt><trkpt lat="45.7996583" lon="8.6088317"><ele>212.66666666666669</ele><time>2026-03-22T15:35:09.371Z</time></trkpt><trkpt lat="45.79979" lon="8.6089967"><ele>213.33333333333331</ele><time>2026-03-22T15:35:10.371Z</time></trkpt><trkpt lat="45.7999167" lon="8.6091483"><ele>214.0</ele><time>2026-03-22T15:35:11.371Z</time></trkpt><trkpt lat="45.8000433" lon="8.609285"><ele>214.0</ele><time>2026-03-22T15:35:12.371Z</time></trkpt><trkpt lat="45.8001583" lon="8.6093917"><ele>214.0</ele><time>2026-03-22T15:35:13.371Z</time></trkpt><trkpt lat="45.8002633" lon="8.6094817"><ele>214.0</ele><time>2026-03-22T15:35:14.371Z</time></trkpt><trkpt lat="45.8003783" lon="8.6095583"><ele>214.0</ele><time>2026-03-22T15:35:15.371Z</time></trkpt><trkpt lat="45.800495" lon="8.60961"><ele>214.66666666666666</ele><time>2026-03-22T15:35:16.371Z</time></trkpt><trkpt lat="45.800625" lon="8.6096317"><ele>215.33333333333331</ele><time>2026-03-22T15:35:17.371Z</time></trkpt><trkpt lat="45.8007783" lon="8.609635"><ele>216.0</ele><time>2026-03-22T15:35:18.371Z</time></trkpt><trkpt lat="45.800955" lon="8.6096267"><ele>216.66666666666669</ele><time>2026-03-22T15:35:19.371Z</time></trkpt><trkpt lat="45.8011233" lon="8.6096317"><ele>217.33333333333334</ele><time>2026-03-22T15:35:20.371Z</time></trkpt><trkpt lat="45.8012933" lon="8.6096267"><ele>218.0</ele><time>2026-03-22T15:35:21.371Z</time></trkpt><trkpt lat="45.801455" lon="8.609625"><ele>218.0</ele><time>2026-03-22T15:35:22.371Z</time></trkpt><trkpt lat="45.8016183" lon="8.60962"><ele>218.0</ele><time>2026-03-22T15:35:23.371Z</time></trkpt><trkpt lat="45.801785" lon="8.6096117"><ele>218.0</ele><time>2026-03-22T15:35:24.371Z</time></trkpt><trkpt lat="45.8019533" lon="8.6096117"><ele>217.33333333333334</ele><time>2026-03-22T15:35:25.371Z</time></trkpt><trkpt lat="45.8021217" lon="8.6096083"><ele>216.66666666666669</ele><time>2026-03-22T15:35:26.371Z</time></trkpt><trkpt lat="45.8022867" lon="8.6096083"><ele>216.0</ele><time>2026-03-22T15:35:27.371Z</time></trkpt><trkpt lat="45.8024483" lon="8.60959"><ele>216.0</ele><time>2026-03-22T15:35:28.371Z</time></trkpt><trkpt lat="45.8026133" lon="8.6095867"><ele>216.0</ele><time>2026-03-22T15:35:29.371Z</time></trkpt><trkpt lat="45.8027767" lon="8.6095767"><ele>216.0</ele><time>2026-03-22T15:35:30.371Z</time></trkpt><trkpt lat="45.80295" lon="8.6095783"><ele>214.66666666666669</ele><time>2026-03-22T15:35:31.371Z</time></trkpt><trkpt lat="45.8031117" lon="8.60957"><ele>213.33333333333334</ele><time>2026-03-22T15:35:32.371Z</time></trkpt><trkpt lat="45.8032783" lon="8.6095683"><ele>212.0</ele><time>2026-03-22T15:35:33.371Z</time></trkpt><trkpt lat="45.803445" lon="8.6095617"><ele>211.66666666666669</ele><time>2026-03-22T15:35:34.371Z</time></trkpt><trkpt lat="45.803605" lon="8.60956"><ele>211.33333333333331</ele><time>2026-03-22T15:35:35.371Z</time></trkpt><trkpt lat="45.8037683" lon="8.6095567"><ele>211.0</ele><time>2026-03-22T15:35:36.371Z</time></trkpt><trkpt lat="45.8039333" lon="8.60955"><ele>211.0</ele><time>2026-03-22T15:35:37.371Z</time></trkpt><trkpt lat="45.8041" lon="8.6095467"><ele>211.0</ele><time>2026-03-22T15:35:38.371Z</time></trkpt><trkpt lat="45.80427" lon="8.6095483"><ele>211.0</ele><time>2026-03-22T15:35:39.371Z</time></trkpt><trkpt lat="45.80444" lon="8.60956"><ele>211.0</ele><time>2026-03-22T15:35:40.371Z</time></trkpt><trkpt lat="45.8046167" lon="8.6095633"><ele>211.0</ele><time>2026-03-22T15:35:41.371Z</time></trkpt><trkpt lat="45.80479" lon="8.6095667"><ele>211.0</ele><time>2026-03-22T15:35:42.371Z</time></trkpt><trkpt lat="45.804965" lon="8.6095867"><ele>211.0</ele><time>2026-03-22T15:35:43.371Z</time></trkpt><trkpt lat="45.8051283" lon="8.6096"><ele>211.0</ele><time>2026-03-22T15:35:44.371Z</time></trkpt><trkpt lat="45.8052983" lon="8.6096333"><ele>211.0</ele><time>2026-03-22T15:35:45.371Z</time></trkpt><trkpt lat="45.80547" lon="8.609695"><ele>209.66666666666666</ele><time>2026-03-22T15:35:46.371Z</time></trkpt><trkpt lat="45.80563" lon="8.60976"><ele>208.33333333333331</ele><time>2026-03-22T15:35:47.371Z</time></trkpt><trkpt lat="45.8057817" lon="8.609845"><ele>207.0</ele><time>2026-03-22T15:35:48.371Z</time></trkpt><trkpt lat="45.8059217" lon="8.60994"><ele>207.25</ele><time>2026-03-22T15:35:49.371Z</time></trkpt><trkpt lat="45.8060517" lon="8.610045"><ele>207.5</ele><time>2026-03-22T15:35:50.371Z</time></trkpt><trkpt lat="45.8061783" lon="8.6101533"><ele>207.75</ele><time>2026-03-22T15:35:51.371Z</time></trkpt><trkpt lat="45.8063017" lon="8.6102717"><ele>208.0</ele><time>2026-03-22T15:35:52.371Z</time></trkpt><trkpt lat="45.806415" lon="8.6104033"><ele>208.0</ele><time>2026-03-22T15:35:53.371Z</time></trkpt><trkpt lat="45.8065217" lon="8.61055"><ele>208.0</ele><time>2026-03-22T15:35:54.371Z</time></trkpt><trkpt lat="45.8066233" lon="8.6106983"><ele>208.0</ele><time>2026-03-22T15:35:55.371Z</time></trkpt><trkpt lat="45.8067183" lon="8.61085"><ele>208.0</ele><time>2026-03-22T15:35:56.371Z</time></trkpt><trkpt lat="45.80681" lon="8.6110017"><ele>208.75</ele><time>2026-03-22T15:35:57.371Z</time></trkpt><trkpt lat="45.8068917" lon="8.6111533"><ele>209.5</ele><time>2026-03-22T15:35:58.371Z</time></trkpt><trkpt lat="45.8069667" lon="8.6113167"><ele>210.25</ele><time>2026-03-22T15:35:59.371Z</time></trkpt><trkpt lat="45.807035" lon="8.6114983"><ele>211.0</ele><time>2026-03-22T15:36:00.371Z</time></trkpt><trkpt lat="45.8071017" lon="8.61168"><ele>211.33333333333331</ele><time>2026-03-22T15:36:01.371Z</time></trkpt><trkpt lat="45.807165" lon="8.61188"><ele>211.66666666666669</ele><time>2026-03-22T15:36:02.371Z</time></trkpt><trkpt lat="45.8072267" lon="8.6121017"><ele>212.0</ele><time>2026-03-22T15:36:03.371Z</time></trkpt><trkpt lat="45.807305" lon="8.6123533"><ele>212.0</ele><time>2026-03-22T15:36:04.371Z</time></trkpt><trkpt lat="45.8073733" lon="8.6126367"><ele>212.0</ele><time>2026-03-22T15:36:05.371Z</time></trkpt><trkpt lat="45.8074433" lon="8.612935"><ele>212.0</ele><time>2026-03-22T15:36:06.371Z</time></trkpt><trkpt lat="45.80751" lon="8.61325"><ele>211.0</ele><time>2026-03-22T15:36:07.371Z</time></trkpt><trkpt lat="45.80758" lon="8.6135683"><ele>210.0</ele><time>2026-03-22T15:36:08.371Z</time></trkpt><trkpt lat="45.807655" lon="8.6138933"><ele>209.66666666666669</ele><time>2026-03-22T15:36:09.371Z</time></trkpt><trkpt lat="45.8077217" lon="8.6142033"><ele>209.33333333333334</ele><time>2026-03-22T15:36:10.371Z</time></trkpt><trkpt lat="45.807795" lon="8.6144883"><ele>209.0</ele><time>2026-03-22T15:36:11.371Z</time></trkpt><trkpt lat="45.8078633" lon="8.6147717"><ele>209.66666666666669</ele><time>2026-03-22T15:36:12.371Z</time></trkpt><trkpt lat="45.8079283" lon="8.61505"><ele>210.33333333333331</ele><time>2026-03-22T15:36:13.371Z</time></trkpt><trkpt lat="45.8079933" lon="8.6153217"><ele>211.0</ele><time>2026-03-22T15:36:14.371Z</time></trkpt><trkpt lat="45.80806" lon="8.6155983"><ele>211.33333333333331</ele><time>2026-03-22T15:36:15.371Z</time></trkpt><trkpt lat="45.8081267" lon="8.6158667"><ele>211.66666666666669</ele><time>2026-03-22T15:36:16.372Z</time></trkpt><trkpt lat="45.8081917" lon="8.6161367"><ele>212.0</ele><time>2026-03-22T15:36:17.372Z</time></trkpt><trkpt lat="45.8082567" lon="8.6164"><ele>212.0</ele><time>2026-03-22T15:36:18.372Z</time></trkpt><trkpt lat="45.8083183" lon="8.61666"><ele>212.0</ele><time>2026-03-22T15:36:19.372Z</time></trkpt><trkpt lat="45.8083817" lon="8.616915"><ele>212.0</ele><time>2026-03-22T15:36:20.372Z</time></trkpt><trkpt lat="45.8084383" lon="8.6171683"><ele>212.0</ele><time>2026-03-22T15:36:21.372Z</time></trkpt><trkpt lat="45.8084967" lon="8.617415"><ele>212.0</ele><time>2026-03-22T15:36:22.372Z</time></trkpt><trkpt lat="45.8085617" lon="8.6176517"><ele>212.0</ele><time>2026-03-22T15:36:23.372Z</time></trkpt><trkpt lat="45.8086333" lon="8.6178733"><ele>212.0</ele><time>2026-03-22T15:36:24.372Z</time></trkpt><trkpt lat="45.808725" lon="8.6180867"><ele>212.0</ele><time>2026-03-22T15:36:25.372Z</time></trkpt><trkpt lat="45.8088333" lon="8.6182917"><ele>212.0</ele><time>2026-03-22T15:36:26.372Z</time></trkpt><trkpt lat="45.8089383" lon="8.6184817"><ele>212.66666666666669</ele><time>2026-03-22T15:36:27.372Z</time></trkpt><trkpt lat="45.8090533" lon="8.6186633"><ele>213.33333333333331</ele><time>2026-03-22T15:36:28.372Z</time></trkpt><trkpt lat="45.8091667" lon="8.61882"><ele>214.0</ele><time>2026-03-22T15:36:29.372Z</time></trkpt><trkpt lat="45.8092883" lon="8.6189633"><ele>213.66666666666666</ele><time>2026-03-22T15:36:30.372Z</time></trkpt><trkpt lat="45.8094183" lon="8.619095"><ele>213.33333333333331</ele><time>2026-03-22T15:36:31.372Z</time></trkpt><trkpt lat="45.809555" lon="8.6192133"><ele>213.0</ele><time>2026-03-22T15:36:32.372Z</time></trkpt><trkpt lat="45.8097017" lon="8.619315"><ele>213.0</ele><time>2026-03-22T15:36:33.372Z</time></trkpt><trkpt lat="45.8098417" lon="8.6194"><ele>213.0</ele><time>2026-03-22T15:36:34.372Z</time></trkpt><trkpt lat="45.8099833" lon="8.6194633"><ele>213.0</ele><time>2026-03-22T15:36:35.372Z</time></trkpt><trkpt lat="45.8101133" lon="8.6195167"><ele>213.0</ele><time>2026-03-22T15:36:36.372Z</time></trkpt><trkpt lat="45.810245" lon="8.6195533"><ele>212.60000000000002</ele><time>2026-03-22T15:36:37.372Z</time></trkpt><trkpt lat="45.8103667" lon="8.6195883"><ele>212.20000000000002</ele><time>2026-03-22T15:36:38.372Z</time></trkpt><trkpt lat="45.8104833" lon="8.619615"><ele>211.8</ele><time>2026-03-22T15:36:39.372Z</time></trkpt><trkpt lat="45.810585" lon="8.6196367"><ele>211.4</ele><time>2026-03-22T15:36:40.372Z</time></trkpt><trkpt lat="45.81068" lon="8.6196667"><ele>211.0</ele><time>2026-03-22T15:36:41.372Z</time></trkpt><trkpt lat="45.8107667" lon="8.6197283"><ele>210.99999999999997</ele><time>2026-03-22T15:36:42.372Z</time></trkpt><trkpt lat="45.810835" lon="8.61981"><ele>211.0</ele><time>2026-03-22T15:36:43.372Z</time></trkpt><trkpt lat="45.81089" lon="8.6198767"><ele>211.0</ele><time>2026-03-22T15:36:44.372Z</time></trkpt><trkpt lat="45.8109533" lon="8.6199267"><ele>211.0</ele><time>2026-03-22T15:36:45.372Z</time></trkpt><trkpt lat="45.8110317" lon="8.6199483"><ele>210.99999999999997</ele><time>2026-03-22T15:36:46.372Z</time></trkpt><trkpt lat="45.8111067" lon="8.61992"><ele>211.0</ele><time>2026-03-22T15:36:47.372Z</time></trkpt><trkpt lat="45.81117" lon="8.6198667"><ele>210.99999999999997</ele><time>2026-03-22T15:36:48.372Z</time></trkpt><trkpt lat="45.811235" lon="8.6198083"><ele>211.0</ele><time>2026-03-22T15:36:49.372Z</time></trkpt><trkpt lat="45.8113017" lon="8.6197667"><ele>211.0</ele><time>2026-03-22T15:36:50.372Z</time></trkpt><trkpt lat="45.8113617" lon="8.619735"><ele>211.0</ele><time>2026-03-22T15:36:51.372Z</time></trkpt><trkpt lat="45.8114833" lon="8.619675"><ele>210.99999999999997</ele><time>2026-03-22T15:36:53.372Z</time></trkpt><trkpt lat="45.81155" lon="8.619645"><ele>211.0</ele><time>2026-03-22T15:36:54.372Z</time></trkpt><trkpt lat="45.8116117" lon="8.6196183"><ele>211.0</ele><time>2026-03-22T15:36:55.372Z</time></trkpt><trkpt lat="45.8117167" lon="8.61958"><ele>211.0</ele><time>2026-03-22T15:36:57.372Z</time></trkpt><trkpt lat="45.8117983" lon="8.6195433"><ele>211.0</ele><time>2026-03-22T15:36:59.372Z</time></trkpt><trkpt lat="45.8118783" lon="8.6195167"><ele>211.0</ele><time>2026-03-22T15:37:03.372Z</time></trkpt><trkpt lat="45.811955" lon="8.6195367"><ele>211.0</ele><time>2026-03-22T15:37:05.372Z</time></trkpt><trkpt lat="45.81205" lon="8.619585"><ele>211.16666666666666</ele><time>2026-03-22T15:37:07.372Z</time></trkpt><trkpt lat="45.812165" lon="8.6196017"><ele>211.33333333333331</ele><time>2026-03-22T15:37:09.372Z</time></trkpt><trkpt lat="45.8122383" lon="8.6196183"><ele>211.5</ele><time>2026-03-22T15:37:10.372Z</time></trkpt><trkpt lat="45.8122967" lon="8.6196533"><ele>211.66666666666669</ele><time>2026-03-22T15:37:11.372Z</time></trkpt><trkpt lat="45.8123983" lon="8.619745"><ele>211.83333333333334</ele><time>2026-03-22T15:37:13.372Z</time></trkpt><trkpt lat="45.8124533" lon="8.6198"><ele>212.0</ele><time>2026-03-22T15:37:14.372Z</time></trkpt><trkpt lat="45.812515" lon="8.6198567"><ele>212.0</ele><time>2026-03-22T15:37:15.372Z</time></trkpt><trkpt lat="45.8125817" lon="8.6199233"><ele>212.0</ele><time>2026-03-22T15:37:16.372Z</time></trkpt><trkpt lat="45.81265" lon="8.6199833"><ele>212.0</ele><time>2026-03-22T15:37:17.372Z</time></trkpt><trkpt lat="45.8127233" lon="8.6200483"><ele>212.0</ele><time>2026-03-22T15:37:18.372Z</time></trkpt><trkpt lat="45.81281" lon="8.6201117"><ele>212.0</ele><time>2026-03-22T15:37:19.372Z</time></trkpt><trkpt lat="45.8129033" lon="8.6201817"><ele>211.8</ele><time>2026-03-22T15:37:20.372Z</time></trkpt><trkpt lat="45.812995" lon="8.62027"><ele>211.6</ele><time>2026-03-22T15:37:21.372Z</time></trkpt><trkpt lat="45.8130883" lon="8.6203533"><ele>211.4</ele><time>2026-03-22T15:37:22.372Z</time></trkpt><trkpt lat="45.8131767" lon="8.6204367"><ele>211.20000000000002</ele><time>2026-03-22T15:37:23.372Z</time></trkpt><trkpt lat="45.8132667" lon="8.6205217"><ele>211.0</ele><time>2026-03-22T15:37:24.372Z</time></trkpt><trkpt lat="45.8133533" lon="8.6206033"><ele>211.0</ele><time>2026-03-22T15:37:25.372Z</time></trkpt><trkpt lat="45.8134383" lon="8.620685"><ele>211.0</ele><time>2026-03-22T15:37:26.372Z</time></trkpt><trkpt lat="45.81353" lon="8.6207567"><ele>211.0</ele><time>2026-03-22T15:37:27.372Z</time></trkpt><trkpt lat="45.8136217" lon="8.6208267"><ele>211.0</ele><time>2026-03-22T15:37:28.372Z</time></trkpt><trkpt lat="45.8137083" lon="8.6208933"><ele>211.0</ele><time>2026-03-22T15:37:29.372Z</time></trkpt><trkpt lat="45.8137983" lon="8.6209517"><ele>210.83333333333331</ele><time>2026-03-22T15:37:30.372Z</time></trkpt><trkpt lat="45.8138833" lon="8.6210217"><ele>210.66666666666666</ele><time>2026-03-22T15:37:31.372Z</time></trkpt><trkpt lat="45.813965" lon="8.6210767"><ele>210.5</ele><time>2026-03-22T15:37:32.372Z</time></trkpt><trkpt lat="45.8140333" lon="8.6211233"><ele>210.33333333333331</ele><time>2026-03-22T15:37:33.372Z</time></trkpt><trkpt lat="45.814105" lon="8.6211783"><ele>210.16666666666666</ele><time>2026-03-22T15:37:34.372Z</time></trkpt><trkpt lat="45.814175" lon="8.62122"><ele>210.0</ele><time>2026-03-22T15:37:35.373Z</time></trkpt><trkpt lat="45.8142517" lon="8.6212767"><ele>209.8</ele><time>2026-03-22T15:37:36.372Z</time></trkpt><trkpt lat="45.8143317" lon="8.621335"><ele>209.6</ele><time>2026-03-22T15:37:37.372Z</time></trkpt><trkpt lat="45.8144133" lon="8.6213933"><ele>209.39999999999998</ele><time>2026-03-22T15:37:38.372Z</time></trkpt><trkpt lat="45.8144983" lon="8.6214533"><ele>209.2</ele><time>2026-03-22T15:37:39.372Z</time></trkpt><trkpt lat="45.8145867" lon="8.6215083"><ele>209.0</ele><time>2026-03-22T15:37:40.372Z</time></trkpt><trkpt lat="45.8146883" lon="8.62157"><ele>209.0</ele><time>2026-03-22T15:37:41.372Z</time></trkpt><trkpt lat="45.8147917" lon="8.62164"><ele>209.0</ele><time>2026-03-22T15:37:42.372Z</time></trkpt><trkpt lat="45.8148933" lon="8.6217217"><ele>209.0</ele><time>2026-03-22T15:37:43.372Z</time></trkpt><trkpt lat="45.8149833" lon="8.6217983"><ele>209.0</ele><time>2026-03-22T15:37:44.372Z</time></trkpt><trkpt lat="45.815075" lon="8.62186"><ele>209.0</ele><time>2026-03-22T15:37:45.372Z</time></trkpt><trkpt lat="45.815155" lon="8.621915"><ele>209.16666666666669</ele><time>2026-03-22T15:37:46.372Z</time></trkpt><trkpt lat="45.81523" lon="8.6219683"><ele>209.33333333333334</ele><time>2026-03-22T15:37:47.372Z</time></trkpt><trkpt lat="45.8153033" lon="8.6220217"><ele>209.5</ele><time>2026-03-22T15:37:48.372Z</time></trkpt><trkpt lat="45.8153767" lon="8.622075"><ele>209.66666666666669</ele><time>2026-03-22T15:37:49.372Z</time></trkpt><trkpt lat="45.8154483" lon="8.6221317"><ele>209.83333333333334</ele><time>2026-03-22T15:37:50.372Z</time></trkpt><trkpt lat="45.8155217" lon="8.6221933"><ele>210.0</ele><time>2026-03-22T15:37:51.372Z</time></trkpt><trkpt lat="45.8156083" lon="8.622255"><ele>210.4</ele><time>2026-03-22T15:37:52.372Z</time></trkpt><trkpt lat="45.8156917" lon="8.6223183"><ele>210.8</ele><time>2026-03-22T15:37:53.372Z</time></trkpt><trkpt lat="45.815785" lon="8.62238"><ele>211.2</ele><time>2026-03-22T15:37:54.372Z</time></trkpt><trkpt lat="45.8158867" lon="8.62245"><ele>211.6</ele><time>2026-03-22T15:37:55.372Z</time></trkpt><trkpt lat="45.8159967" lon="8.6225217"><ele>212.0</ele><time>2026-03-22T15:37:56.372Z</time></trkpt><trkpt lat="45.8161167" lon="8.6225917"><ele>211.25</ele><time>2026-03-22T15:37:57.372Z</time></trkpt><trkpt lat="45.8162333" lon="8.6226767"><ele>210.5</ele><time>2026-03-22T15:37:58.372Z</time></trkpt><trkpt lat="45.8163467" lon="8.62276"><ele>209.75</ele><time>2026-03-22T15:37:59.372Z</time></trkpt><trkpt lat="45.816465" lon="8.62283"><ele>209.0</ele><time>2026-03-22T15:38:00.372Z</time></trkpt><trkpt lat="45.8165883" lon="8.6229067"><ele>209.0</ele><time>2026-03-22T15:38:01.372Z</time></trkpt><trkpt lat="45.81671" lon="8.622985"><ele>209.0</ele><time>2026-03-22T15:38:02.372Z</time></trkpt><trkpt lat="45.81684" lon="8.6230567"><ele>209.0</ele><time>2026-03-22T15:38:03.372Z</time></trkpt><trkpt lat="45.8169733" lon="8.623115"><ele>209.0</ele><time>2026-03-22T15:38:04.372Z</time></trkpt><trkpt lat="45.8171083" lon="8.623165"><ele>208.75</ele><time>2026-03-22T15:38:05.372Z</time></trkpt><trkpt lat="45.817245" lon="8.6232067"><ele>208.5</ele><time>2026-03-22T15:38:06.372Z</time></trkpt><trkpt lat="45.817385" lon="8.6232417"><ele>208.25</ele><time>2026-03-22T15:38:07.372Z</time></trkpt><trkpt lat="45.8175317" lon="8.6232767"><ele>208.0</ele><time>2026-03-22T15:38:08.372Z</time></trkpt><trkpt lat="45.8176733" lon="8.6233033"><ele>207.75</ele><time>2026-03-22T15:38:09.372Z</time></trkpt><trkpt lat="45.8178183" lon="8.6233217"><ele>207.5</ele><time>2026-03-22T15:38:10.372Z</time></trkpt><trkpt lat="45.8179517" lon="8.6233433"><ele>207.25</ele><time>2026-03-22T15:38:11.372Z</time></trkpt><trkpt lat="45.8180767" lon="8.62336"><ele>207.0</ele><time>2026-03-22T15:38:12.372Z</time></trkpt><trkpt lat="45.8181983" lon="8.6233733"><ele>207.0</ele><time>2026-03-22T15:38:13.372Z</time></trkpt><trkpt lat="45.8183067" lon="8.6233833"><ele>207.0</ele><time>2026-03-22T15:38:14.372Z</time></trkpt><trkpt lat="45.8184083" lon="8.623405"><ele>207.0</ele><time>2026-03-22T15:38:15.372Z</time></trkpt><trkpt lat="45.818505" lon="8.623415"><ele>207.0</ele><time>2026-03-22T15:38:16.372Z</time></trkpt><trkpt lat="45.8186067" lon="8.6234267"><ele>207.0</ele><time>2026-03-22T15:38:17.372Z</time></trkpt><trkpt lat="45.8187083" lon="8.6234233"><ele>207.0</ele><time>2026-03-22T15:38:18.372Z</time></trkpt><trkpt lat="45.8188033" lon="8.62343"><ele>207.0</ele><time>2026-03-22T15:38:19.372Z</time></trkpt><trkpt lat="45.81888" lon="8.62344"><ele>207.0</ele><time>2026-03-22T15:38:20.372Z</time></trkpt><trkpt lat="45.81895" lon="8.6234533"><ele>207.0</ele><time>2026-03-22T15:38:21.372Z</time></trkpt><trkpt lat="45.8190133" lon="8.6234883"><ele>207.0</ele><time>2026-03-22T15:38:22.372Z</time></trkpt><trkpt lat="45.819105" lon="8.62362"><ele>207.0</ele><time>2026-03-22T15:38:24.372Z</time></trkpt><trkpt lat="45.8191383" lon="8.623705"><ele>206.8</ele><time>2026-03-22T15:38:25.372Z</time></trkpt><trkpt lat="45.8191933" lon="8.6237867"><ele>206.6</ele><time>2026-03-22T15:38:26.372Z</time></trkpt><trkpt lat="45.8192783" lon="8.623835"><ele>206.4</ele><time>2026-03-22T15:38:27.372Z</time></trkpt><trkpt lat="45.8193783" lon="8.6238583"><ele>206.20000000000002</ele><time>2026-03-22T15:38:28.372Z</time></trkpt><trkpt lat="45.8194967" lon="8.6239033"><ele>206.0</ele><time>2026-03-22T15:38:29.372Z</time></trkpt><trkpt lat="45.8196267" lon="8.6239817"><ele>206.0</ele><time>2026-03-22T15:38:30.372Z</time></trkpt><trkpt lat="45.81976" lon="8.624075"><ele>206.0</ele><time>2026-03-22T15:38:31.372Z</time></trkpt><trkpt lat="45.8198983" lon="8.6241633"><ele>206.0</ele><time>2026-03-22T15:38:32.372Z</time></trkpt><trkpt lat="45.8200483" lon="8.6242633"><ele>205.33333333333334</ele><time>2026-03-22T15:38:33.372Z</time></trkpt><trkpt lat="45.8202067" lon="8.624365"><ele>204.66666666666669</ele><time>2026-03-22T15:38:34.372Z</time></trkpt><trkpt lat="45.8203567" lon="8.624465"><ele>204.0</ele><time>2026-03-22T15:38:35.372Z</time></trkpt><trkpt lat="45.8205017" lon="8.6245533"><ele>204.0</ele><time>2026-03-22T15:38:36.372Z</time></trkpt><trkpt lat="45.8206483" lon="8.6246317"><ele>204.0</ele><time>2026-03-22T15:38:37.372Z</time></trkpt><trkpt lat="45.8207983" lon="8.6247183"><ele>204.0</ele><time>2026-03-22T15:38:38.372Z</time></trkpt><trkpt lat="45.8209483" lon="8.624815"><ele>204.0</ele><time>2026-03-22T15:38:39.372Z</time></trkpt><trkpt lat="45.8210967" lon="8.6249083"><ele>204.0</ele><time>2026-03-22T15:38:40.372Z</time></trkpt><trkpt lat="45.821245" lon="8.6249983"><ele>204.0</ele><time>2026-03-22T15:38:41.372Z</time></trkpt><trkpt lat="45.8214067" lon="8.625095"><ele>204.0</ele><time>2026-03-22T15:38:42.372Z</time></trkpt><trkpt lat="45.82156" lon="8.625185"><ele>204.0</ele><time>2026-03-22T15:38:43.372Z</time></trkpt><trkpt lat="45.8217117" lon="8.62527"><ele>204.0</ele><time>2026-03-22T15:38:44.372Z</time></trkpt><trkpt lat="45.82186" lon="8.625355"><ele>204.0</ele><time>2026-03-22T15:38:45.372Z</time></trkpt><trkpt lat="45.82202" lon="8.6254417"><ele>204.0</ele><time>2026-03-22T15:38:46.372Z</time></trkpt><trkpt lat="45.8221867" lon="8.6255283"><ele>204.0</ele><time>2026-03-22T15:38:47.372Z</time></trkpt><trkpt lat="45.8223567" lon="8.6256167"><ele>204.0</ele><time>2026-03-22T15:38:48.372Z</time></trkpt><trkpt lat="45.8225333" lon="8.6257167"><ele>204.0</ele><time>2026-03-22T15:38:49.372Z</time></trkpt><trkpt lat="45.8226883" lon="8.6258233"><ele>204.0</ele><time>2026-03-22T15:38:50.372Z</time></trkpt><trkpt lat="45.82284" lon="8.6259267"><ele>203.66666666666669</ele><time>2026-03-22T15:38:51.372Z</time></trkpt><trkpt lat="45.8229883" lon="8.6260067"><ele>203.33333333333334</ele><time>2026-03-22T15:38:52.372Z</time></trkpt><trkpt lat="45.823135" lon="8.6260767"><ele>203.0</ele><time>2026-03-22T15:38:53.372Z</time></trkpt><trkpt lat="45.8232783" lon="8.6261567"><ele>203.0</ele><time>2026-03-22T15:38:54.372Z</time></trkpt><trkpt lat="45.82342" lon="8.62624"><ele>203.0</ele><time>2026-03-22T15:38:55.372Z</time></trkpt><trkpt lat="45.8235533" lon="8.62632"><ele>203.0</ele><time>2026-03-22T15:38:56.372Z</time></trkpt><trkpt lat="45.8236883" lon="8.6264"><ele>203.0</ele><time>2026-03-22T15:38:57.372Z</time></trkpt><trkpt lat="45.8238233" lon="8.6264783"><ele>202.5</ele><time>2026-03-22T15:38:58.372Z</time></trkpt><trkpt lat="45.8239517" lon="8.62655"><ele>202.0</ele><time>2026-03-22T15:38:59.372Z</time></trkpt><trkpt lat="45.824085" lon="8.626625"><ele>201.5</ele><time>2026-03-22T15:39:00.372Z</time></trkpt><trkpt lat="45.8242117" lon="8.626695"><ele>201.0</ele><time>2026-03-22T15:39:01.372Z</time></trkpt><trkpt lat="45.8243383" lon="8.6267717"><ele>200.66666666666669</ele><time>2026-03-22T15:39:02.372Z</time></trkpt><trkpt lat="45.82447" lon="8.626845"><ele>200.33333333333334</ele><time>2026-03-22T15:39:03.372Z</time></trkpt><trkpt lat="45.8246117" lon="8.6269283"><ele>200.0</ele><time>2026-03-22T15:39:04.372Z</time></trkpt><trkpt lat="45.8247667" lon="8.627"><ele>201.0</ele><time>2026-03-22T15:39:05.372Z</time></trkpt><trkpt lat="45.8249167" lon="8.62707"><ele>202.0</ele><time>2026-03-22T15:39:06.372Z</time></trkpt><trkpt lat="45.8250683" lon="8.6271317"><ele>203.0</ele><time>2026-03-22T15:39:07.372Z</time></trkpt><trkpt lat="45.825225" lon="8.6271767"><ele>203.0</ele><time>2026-03-22T15:39:08.372Z</time></trkpt><trkpt lat="45.8253833" lon="8.62721"><ele>203.0</ele><time>2026-03-22T15:39:09.372Z</time></trkpt><trkpt lat="45.8255367" lon="8.6272333"><ele>203.0</ele><time>2026-03-22T15:39:10.372Z</time></trkpt><trkpt lat="45.82569" lon="8.6272433"><ele>203.0</ele><time>2026-03-22T15:39:11.372Z</time></trkpt><trkpt lat="45.82584" lon="8.6272517"><ele>203.0</ele><time>2026-03-22T15:39:12.372Z</time></trkpt><trkpt lat="45.8259917" lon="8.6272517"><ele>203.0</ele><time>2026-03-22T15:39:13.372Z</time></trkpt><trkpt lat="45.8261417" lon="8.62725"><ele>202.33333333333334</ele><time>2026-03-22T15:39:14.372Z</time></trkpt><trkpt lat="45.8262983" lon="8.6272483"><ele>201.66666666666669</ele><time>2026-03-22T15:39:15.372Z</time></trkpt><trkpt lat="45.8264583" lon="8.6272583"><ele>201.0</ele><time>2026-03-22T15:39:16.372Z</time></trkpt><trkpt lat="45.8266267" lon="8.6272667"><ele>201.0</ele><time>2026-03-22T15:39:17.372Z</time></trkpt><trkpt lat="45.826795" lon="8.6272717"><ele>201.0</ele><time>2026-03-22T15:39:18.372Z</time></trkpt><trkpt lat="45.8269633" lon="8.6272767"><ele>201.0</ele><time>2026-03-22T15:39:19.372Z</time></trkpt><trkpt lat="45.82713" lon="8.6272783"><ele>202.0</ele><time>2026-03-22T15:39:20.372Z</time></trkpt><trkpt lat="45.827295" lon="8.6272817"><ele>203.0</ele><time>2026-03-22T15:39:21.372Z</time></trkpt><trkpt lat="45.8274633" lon="8.6272833"><ele>204.0</ele><time>2026-03-22T15:39:22.372Z</time></trkpt><trkpt lat="45.8276283" lon="8.6272817"><ele>204.66666666666669</ele><time>2026-03-22T15:39:23.372Z</time></trkpt><trkpt lat="45.8277883" lon="8.6272867"><ele>205.33333333333334</ele><time>2026-03-22T15:39:24.372Z</time></trkpt><trkpt lat="45.8279467" lon="8.6272883"><ele>206.0</ele><time>2026-03-22T15:39:25.372Z</time></trkpt><trkpt lat="45.8280983" lon="8.6272917"><ele>206.0</ele><time>2026-03-22T15:39:26.372Z</time></trkpt><trkpt lat="45.8282517" lon="8.6272983"><ele>206.0</ele><time>2026-03-22T15:39:27.372Z</time></trkpt><trkpt lat="45.8284017" lon="8.6273067"><ele>206.0</ele><time>2026-03-22T15:39:28.372Z</time></trkpt><trkpt lat="45.8285533" lon="8.627315"><ele>206.66666666666669</ele><time>2026-03-22T15:39:29.372Z</time></trkpt><trkpt lat="45.828705" lon="8.6273217"><ele>207.33333333333331</ele><time>2026-03-22T15:39:30.372Z</time></trkpt><trkpt lat="45.82886" lon="8.6273233"><ele>208.0</ele><time>2026-03-22T15:39:31.372Z</time></trkpt><trkpt lat="45.8290117" lon="8.6273217"><ele>208.0</ele><time>2026-03-22T15:39:32.372Z</time></trkpt><trkpt lat="45.82917" lon="8.6273233"><ele>208.0</ele><time>2026-03-22T15:39:33.372Z</time></trkpt><trkpt lat="45.8293183" lon="8.6273183"><ele>208.0</ele><time>2026-03-22T15:39:34.372Z</time></trkpt><trkpt lat="45.8294633" lon="8.627295"><ele>208.0</ele><time>2026-03-22T15:39:35.372Z</time></trkpt><trkpt lat="45.8296133" lon="8.627265"><ele>208.0</ele><time>2026-03-22T15:39:36.372Z</time></trkpt><trkpt lat="45.82976" lon="8.627225"><ele>208.0</ele><time>2026-03-22T15:39:37.372Z</time></trkpt><trkpt lat="45.8299017" lon="8.6271933"><ele>208.0</ele><time>2026-03-22T15:39:38.372Z</time></trkpt><trkpt lat="45.8300583" lon="8.6271767"><ele>207.25</ele><time>2026-03-22T15:39:39.372Z</time></trkpt><trkpt lat="45.8302017" lon="8.6271783"><ele>206.5</ele><time>2026-03-22T15:39:40.372Z</time></trkpt><trkpt lat="45.8303383" lon="8.62721"><ele>205.75</ele><time>2026-03-22T15:39:41.372Z</time></trkpt><trkpt lat="45.8304833" lon="8.627255"><ele>205.0</ele><time>2026-03-22T15:39:42.372Z</time></trkpt><trkpt lat="45.8306283" lon="8.6273067"><ele>205.0</ele><time>2026-03-22T15:39:43.372Z</time></trkpt><trkpt lat="45.830775" lon="8.6273533"><ele>205.0</ele><time>2026-03-22T15:39:44.372Z</time></trkpt><trkpt lat="45.8309217" lon="8.6274067"><ele>205.0</ele><time>2026-03-22T15:39:45.372Z</time></trkpt><trkpt lat="45.8310867" lon="8.6274833"><ele>204.0</ele><time>2026-03-22T15:39:46.372Z</time></trkpt><trkpt lat="45.8312417" lon="8.6275683"><ele>203.0</ele><time>2026-03-22T15:39:47.372Z</time></trkpt><trkpt lat="45.8313883" lon="8.6276583"><ele>202.0</ele><time>2026-03-22T15:39:48.372Z</time></trkpt><trkpt lat="45.8315383" lon="8.6277567"><ele>203.0</ele><time>2026-03-22T15:39:49.372Z</time></trkpt><trkpt lat="45.8316883" lon="8.62785"><ele>204.0</ele><time>2026-03-22T15:39:50.372Z</time></trkpt><trkpt lat="45.8318433" lon="8.6279383"><ele>205.0</ele><time>2026-03-22T15:39:51.372Z</time></trkpt><trkpt lat="45.8319983" lon="8.6280183"><ele>205.0</ele><time>2026-03-22T15:39:52.372Z</time></trkpt><trkpt lat="45.8321533" lon="8.6281067"><ele>205.0</ele><time>2026-03-22T15:39:53.372Z</time></trkpt><trkpt lat="45.8323283" lon="8.6281983"><ele>205.0</ele><time>2026-03-22T15:39:54.372Z</time></trkpt><trkpt lat="45.8324967" lon="8.6282767"><ele>202.33333333333331</ele><time>2026-03-22T15:39:55.372Z</time></trkpt><trkpt lat="45.8326733" lon="8.6283383"><ele>199.66666666666669</ele><time>2026-03-22T15:39:56.372Z</time></trkpt><trkpt lat="45.8328567" lon="8.6283933"><ele>197.0</ele><time>2026-03-22T15:39:57.372Z</time></trkpt><trkpt lat="45.833035" lon="8.6284517"><ele>197.0</ele><time>2026-03-22T15:39:58.372Z</time></trkpt><trkpt lat="45.83322" lon="8.6285133"><ele>197.0</ele><time>2026-03-22T15:39:59.372Z</time></trkpt><trkpt lat="45.8334083" lon="8.6285767"><ele>197.0</ele><time>2026-03-22T15:40:00.372Z</time></trkpt><trkpt lat="45.83359" lon="8.628645"><ele>198.33333333333334</ele><time>2026-03-22T15:40:01.372Z</time></trkpt><trkpt lat="45.8337783" lon="8.6287167"><ele>199.66666666666669</ele><time>2026-03-22T15:40:02.372Z</time></trkpt><trkpt lat="45.8339717" lon="8.6287817"><ele>201.0</ele><time>2026-03-22T15:40:03.372Z</time></trkpt><trkpt lat="45.8341633" lon="8.6288533"><ele>200.66666666666669</ele><time>2026-03-22T15:40:04.372Z</time></trkpt><trkpt lat="45.8343467" lon="8.6289167"><ele>200.33333333333334</ele><time>2026-03-22T15:40:05.372Z</time></trkpt><trkpt lat="45.8345317" lon="8.6289817"><ele>200.0</ele><time>2026-03-22T15:40:06.372Z</time></trkpt><trkpt lat="45.8347167" lon="8.62904"><ele>200.0</ele><time>2026-03-22T15:40:07.372Z</time></trkpt><trkpt lat="45.8349033" lon="8.6291033"><ele>200.0</ele><time>2026-03-22T15:40:08.372Z</time></trkpt><trkpt lat="45.8350933" lon="8.629155"><ele>200.0</ele><time>2026-03-22T15:40:09.372Z</time></trkpt><trkpt lat="45.835275" lon="8.6291983"><ele>200.0</ele><time>2026-03-22T15:40:10.372Z</time></trkpt><trkpt lat="45.8354567" lon="8.6292283"><ele>200.0</ele><time>2026-03-22T15:40:11.372Z</time></trkpt><trkpt lat="45.8356417" lon="8.6292417"><ele>200.0</ele><time>2026-03-22T15:40:12.372Z</time></trkpt><trkpt lat="45.8358233" lon="8.6292317"><ele>200.0</ele><time>2026-03-22T15:40:13.372Z</time></trkpt><trkpt lat="45.83601" lon="8.6292033"><ele>200.0</ele><time>2026-03-22T15:40:14.372Z</time></trkpt><trkpt lat="45.836195" lon="8.6291517"><ele>200.0</ele><time>2026-03-22T15:40:15.372Z</time></trkpt><trkpt lat="45.836385" lon="8.6290733"><ele>200.0</ele><time>2026-03-22T15:40:16.372Z</time></trkpt><trkpt lat="45.8365617" lon="8.6289883"><ele>200.0</ele><time>2026-03-22T15:40:17.372Z</time></trkpt><trkpt lat="45.836735" lon="8.62892"><ele>200.0</ele><time>2026-03-22T15:40:18.372Z</time></trkpt><trkpt lat="45.836895" lon="8.6288433"><ele>200.25</ele><time>2026-03-22T15:40:19.372Z</time></trkpt><trkpt lat="45.837035" lon="8.6287883"><ele>200.5</ele><time>2026-03-22T15:40:20.372Z</time></trkpt><trkpt lat="45.8371717" lon="8.628735"><ele>200.75</ele><time>2026-03-22T15:40:21.372Z</time></trkpt><trkpt lat="45.8372917" lon="8.6286917"><ele>201.0</ele><time>2026-03-22T15:40:22.372Z</time></trkpt><trkpt lat="45.8374033" lon="8.6286583"><ele>201.0</ele><time>2026-03-22T15:40:23.372Z</time></trkpt><trkpt lat="45.8375067" lon="8.6286417"><ele>201.0</ele><time>2026-03-22T15:40:24.372Z</time></trkpt><trkpt lat="45.8376" lon="8.6286367"><ele>201.0</ele><time>2026-03-22T15:40:25.372Z</time></trkpt><trkpt lat="45.8376917" lon="8.6286367"><ele>201.0</ele><time>2026-03-22T15:40:26.372Z</time></trkpt><trkpt lat="45.8377917" lon="8.6286283"><ele>201.0</ele><time>2026-03-22T15:40:27.372Z</time></trkpt><trkpt lat="45.8379017" lon="8.6286333"><ele>201.0</ele><time>2026-03-22T15:40:28.372Z</time></trkpt><trkpt lat="45.838025" lon="8.6286383"><ele>201.0</ele><time>2026-03-22T15:40:29.372Z</time></trkpt><trkpt lat="45.8381633" lon="8.62865"><ele>201.0</ele><time>2026-03-22T15:40:30.372Z</time></trkpt><trkpt lat="45.83831" lon="8.6286633"><ele>201.0</ele><time>2026-03-22T15:40:31.372Z</time></trkpt><trkpt lat="45.8384517" lon="8.628675"><ele>200.75</ele><time>2026-03-22T15:40:32.372Z</time></trkpt><trkpt lat="45.8386017" lon="8.6286933"><ele>200.5</ele><time>2026-03-22T15:40:33.372Z</time></trkpt><trkpt lat="45.8387467" lon="8.6287117"><ele>200.25</ele><time>2026-03-22T15:40:34.372Z</time></trkpt><trkpt lat="45.8388933" lon="8.6287283"><ele>200.0</ele><time>2026-03-22T15:40:35.372Z</time></trkpt><trkpt lat="45.83904" lon="8.6287417"><ele>200.0</ele><time>2026-03-22T15:40:36.372Z</time></trkpt><trkpt lat="45.8391933" lon="8.6287483"><ele>200.0</ele><time>2026-03-22T15:40:37.372Z</time></trkpt><trkpt lat="45.8393467" lon="8.6287633"><ele>200.0</ele><time>2026-03-22T15:40:38.372Z</time></trkpt><trkpt lat="45.8395033" lon="8.628775"><ele>200.0</ele><time>2026-03-22T15:40:39.372Z</time></trkpt><trkpt lat="45.8396667" lon="8.62879"><ele>200.0</ele><time>2026-03-22T15:40:40.372Z</time></trkpt><trkpt lat="45.8398267" lon="8.6288083"><ele>200.0</ele><time>2026-03-22T15:40:41.372Z</time></trkpt><trkpt lat="45.8399817" lon="8.6288417"><ele>200.33333333333334</ele><time>2026-03-22T15:40:42.372Z</time></trkpt><trkpt lat="45.840145" lon="8.6288583"><ele>200.66666666666669</ele><time>2026-03-22T15:40:43.372Z</time></trkpt><trkpt lat="45.8403067" lon="8.6288717"><ele>201.0</ele><time>2026-03-22T15:40:44.372Z</time></trkpt><trkpt lat="45.8404667" lon="8.628885"><ele>201.0</ele><time>2026-03-22T15:40:45.372Z</time></trkpt><trkpt lat="45.8406217" lon="8.6289"><ele>201.0</ele><time>2026-03-22T15:40:46.372Z</time></trkpt><trkpt lat="45.84078" lon="8.6289133"><ele>201.0</ele><time>2026-03-22T15:40:47.372Z</time></trkpt><trkpt lat="45.8409367" lon="8.62893"><ele>201.66666666666669</ele><time>2026-03-22T15:40:48.372Z</time></trkpt><trkpt lat="45.8410933" lon="8.6289467"><ele>202.33333333333334</ele><time>2026-03-22T15:40:49.372Z</time></trkpt><trkpt lat="45.84125" lon="8.628965"><ele>203.0</ele><time>2026-03-22T15:40:50.372Z</time></trkpt><trkpt lat="45.841405" lon="8.62898"><ele>203.0</ele><time>2026-03-22T15:40:51.372Z</time></trkpt><trkpt lat="45.84156" lon="8.628995"><ele>203.0</ele><time>2026-03-22T15:40:52.372Z</time></trkpt><trkpt lat="45.8417233" lon="8.6290083"><ele>203.0</ele><time>2026-03-22T15:40:53.372Z</time></trkpt><trkpt lat="45.841895" lon="8.6290167"><ele>204.0</ele><time>2026-03-22T15:40:54.372Z</time></trkpt><trkpt lat="45.842075" lon="8.6290217"><ele>205.0</ele><time>2026-03-22T15:40:55.372Z</time></trkpt><trkpt lat="45.8422567" lon="8.629025"><ele>206.0</ele><time>2026-03-22T15:40:56.372Z</time></trkpt><trkpt lat="45.8424367" lon="8.6290233"><ele>206.0</ele><time>2026-03-22T15:40:57.372Z</time></trkpt><trkpt lat="45.8426183" lon="8.6290183"><ele>206.0</ele><time>2026-03-22T15:40:58.372Z</time></trkpt><trkpt lat="45.8427983" lon="8.6290133"><ele>206.0</ele><time>2026-03-22T15:40:59.372Z</time></trkpt><trkpt lat="45.842975" lon="8.6290083"><ele>207.33333333333334</ele><time>2026-03-22T15:41:00.372Z</time></trkpt><trkpt lat="45.8431517" lon="8.62901"><ele>208.66666666666669</ele><time>2026-03-22T15:41:01.372Z</time></trkpt><trkpt lat="45.8433333" lon="8.6290217"><ele>210.0</ele><time>2026-03-22T15:41:02.372Z</time></trkpt><trkpt lat="45.84352" lon="8.6290117"><ele>210.0</ele><time>2026-03-22T15:41:03.372Z</time></trkpt><trkpt lat="45.8436983" lon="8.6290167"><ele>210.0</ele><time>2026-03-22T15:41:04.372Z</time></trkpt><trkpt lat="45.843875" lon="8.6290217"><ele>210.0</ele><time>2026-03-22T15:41:05.372Z</time></trkpt><trkpt lat="45.8440483" lon="8.6290233"><ele>210.0</ele><time>2026-03-22T15:41:06.372Z</time></trkpt><trkpt lat="45.84422" lon="8.6290217"><ele>210.0</ele><time>2026-03-22T15:41:07.372Z</time></trkpt><trkpt lat="45.84439" lon="8.6290167"><ele>210.0</ele><time>2026-03-22T15:41:08.372Z</time></trkpt><trkpt lat="45.8445617" lon="8.6290067"><ele>210.0</ele><time>2026-03-22T15:41:09.372Z</time></trkpt><trkpt lat="45.8447383" lon="8.6290033"><ele>210.0</ele><time>2026-03-22T15:41:10.372Z</time></trkpt><trkpt lat="45.8449117" lon="8.6290017"><ele>210.0</ele><time>2026-03-22T15:41:11.372Z</time></trkpt><trkpt lat="45.8450867" lon="8.629"><ele>210.33333333333331</ele><time>2026-03-22T15:41:12.372Z</time></trkpt><trkpt lat="45.845255" lon="8.629"><ele>210.66666666666666</ele><time>2026-03-22T15:41:13.372Z</time></trkpt><trkpt lat="45.8454183" lon="8.6289967"><ele>211.0</ele><time>2026-03-22T15:41:14.372Z</time></trkpt><trkpt lat="45.845575" lon="8.6289967"><ele>211.0</ele><time>2026-03-22T15:41:15.372Z</time></trkpt><trkpt lat="45.8457317" lon="8.6289983"><ele>211.0</ele><time>2026-03-22T15:41:16.372Z</time></trkpt><trkpt lat="45.8458867" lon="8.6290033"><ele>211.0</ele><time>2026-03-22T15:41:17.372Z</time></trkpt><trkpt lat="45.8460483" lon="8.6290267"><ele>212.0</ele><time>2026-03-22T15:41:18.372Z</time></trkpt><trkpt lat="45.846205" lon="8.629075"><ele>213.0</ele><time>2026-03-22T15:41:19.372Z</time></trkpt><trkpt lat="45.8463633" lon="8.629135"><ele>214.0</ele><time>2026-03-22T15:41:20.372Z</time></trkpt><trkpt lat="45.846515" lon="8.6292067"><ele>214.0</ele><time>2026-03-22T15:41:21.372Z</time></trkpt><trkpt lat="45.8466767" lon="8.6292717"><ele>214.0</ele><time>2026-03-22T15:41:22.372Z</time></trkpt><trkpt lat="45.8468417" lon="8.6293367"><ele>214.0</ele><time>2026-03-22T15:41:23.372Z</time></trkpt><trkpt lat="45.8470167" lon="8.6294"><ele>214.0</ele><time>2026-03-22T15:41:24.372Z</time></trkpt><trkpt lat="45.8471933" lon="8.6294533"><ele>214.0</ele><time>2026-03-22T15:41:25.372Z</time></trkpt><trkpt lat="45.8473683" lon="8.6294933"><ele>214.0</ele><time>2026-03-22T15:41:26.372Z</time></trkpt><trkpt lat="45.8475483" lon="8.6295033"><ele>213.0</ele><time>2026-03-22T15:41:27.372Z</time></trkpt><trkpt lat="45.8477317" lon="8.62949"><ele>212.0</ele><time>2026-03-22T15:41:28.372Z</time></trkpt><trkpt lat="45.84791" lon="8.6294517"><ele>211.0</ele><time>2026-03-22T15:41:29.372Z</time></trkpt><trkpt lat="45.8480867" lon="8.6293667"><ele>210.0</ele><time>2026-03-22T15:41:30.372Z</time></trkpt><trkpt lat="45.848255" lon="8.6292567"><ele>209.0</ele><time>2026-03-22T15:41:31.372Z</time></trkpt><trkpt lat="45.8484167" lon="8.6291183"><ele>208.0</ele><time>2026-03-22T15:41:32.372Z</time></trkpt><trkpt lat="45.8485633" lon="8.6289567"><ele>208.0</ele><time>2026-03-22T15:41:33.372Z</time></trkpt><trkpt lat="45.8487133" lon="8.62879"><ele>208.0</ele><time>2026-03-22T15:41:34.372Z</time></trkpt><trkpt lat="45.848865" lon="8.6286317"><ele>208.0</ele><time>2026-03-22T15:41:35.372Z</time></trkpt><trkpt lat="45.849015" lon="8.62847"><ele>207.33333333333331</ele><time>2026-03-22T15:41:36.372Z</time></trkpt><trkpt lat="45.8491683" lon="8.6282933"><ele>206.66666666666669</ele><time>2026-03-22T15:41:37.372Z</time></trkpt><trkpt lat="45.8493383" lon="8.6281033"><ele>206.0</ele><time>2026-03-22T15:41:38.372Z</time></trkpt><trkpt lat="45.8495183" lon="8.627925"><ele>206.33333333333334</ele><time>2026-03-22T15:41:39.372Z</time></trkpt><trkpt lat="45.8496917" lon="8.6277683"><ele>206.66666666666669</ele><time>2026-03-22T15:41:40.372Z</time></trkpt><trkpt lat="45.849855" lon="8.6276067"><ele>207.0</ele><time>2026-03-22T15:41:41.372Z</time></trkpt><trkpt lat="45.8500133" lon="8.6274567"><ele>207.0</ele><time>2026-03-22T15:41:42.372Z</time></trkpt><trkpt lat="45.85016" lon="8.627305"><ele>207.0</ele><time>2026-03-22T15:41:43.372Z</time></trkpt><trkpt lat="45.850275" lon="8.627165"><ele>207.0</ele><time>2026-03-22T15:41:44.372Z</time></trkpt><trkpt lat="45.850385" lon="8.627035"><ele>207.0</ele><time>2026-03-22T15:41:45.372Z</time></trkpt><trkpt lat="45.850505" lon="8.6269117"><ele>207.0</ele><time>2026-03-22T15:41:46.372Z</time></trkpt><trkpt lat="45.8506117" lon="8.6268167"><ele>207.0</ele><time>2026-03-22T15:41:47.372Z</time></trkpt><trkpt lat="45.850715" lon="8.6267383"><ele>207.0</ele><time>2026-03-22T15:41:48.372Z</time></trkpt><trkpt lat="45.850815" lon="8.6266617"><ele>207.0</ele><time>2026-03-22T15:41:49.372Z</time></trkpt><trkpt lat="45.850915" lon="8.626595"><ele>207.0</ele><time>2026-03-22T15:41:50.372Z</time></trkpt><trkpt lat="45.85101" lon="8.6265367"><ele>207.0</ele><time>2026-03-22T15:41:51.372Z</time></trkpt><trkpt lat="45.8511" lon="8.6264867"><ele>207.0</ele><time>2026-03-22T15:41:52.372Z</time></trkpt><trkpt lat="45.8511883" lon="8.62645"><ele>207.0</ele><time>2026-03-22T15:41:53.372Z</time></trkpt><trkpt lat="45.85128" lon="8.6264233"><ele>207.6</ele><time>2026-03-22T15:41:54.372Z</time></trkpt><trkpt lat="45.85137" lon="8.626415"><ele>208.2</ele><time>2026-03-22T15:41:55.372Z</time></trkpt><trkpt lat="45.851465" lon="8.62638"><ele>208.8</ele><time>2026-03-22T15:41:56.372Z</time></trkpt><trkpt lat="45.8515733" lon="8.62633"><ele>209.4</ele><time>2026-03-22T15:41:57.372Z</time></trkpt><trkpt lat="45.8516817" lon="8.6262933"><ele>210.0</ele><time>2026-03-22T15:41:58.372Z</time></trkpt><trkpt lat="45.8517833" lon="8.6262683"><ele>210.0</ele><time>2026-03-22T15:41:59.372Z</time></trkpt><trkpt lat="45.85189" lon="8.6262417"><ele>210.0</ele><time>2026-03-22T15:42:00.372Z</time></trkpt><trkpt lat="45.852005" lon="8.6262233"><ele>210.0</ele><time>2026-03-22T15:42:01.372Z</time></trkpt><trkpt lat="45.8521233" lon="8.6261967"><ele>210.0</ele><time>2026-03-22T15:42:02.372Z</time></trkpt><trkpt lat="45.8522433" lon="8.6261667"><ele>209.75</ele><time>2026-03-22T15:42:03.372Z</time></trkpt><trkpt lat="45.8523667" lon="8.626135"><ele>209.5</ele><time>2026-03-22T15:42:04.372Z</time></trkpt><trkpt lat="45.8525067" lon="8.6261183"><ele>209.25</ele><time>2026-03-22T15:42:05.372Z</time></trkpt><trkpt lat="45.8526583" lon="8.6260867"><ele>209.0</ele><time>2026-03-22T15:42:06.372Z</time></trkpt><trkpt lat="45.85282" lon="8.6260483"><ele>209.0</ele><time>2026-03-22T15:42:07.372Z</time></trkpt><trkpt lat="45.852985" lon="8.62601"><ele>209.0</ele><time>2026-03-22T15:42:08.372Z</time></trkpt><trkpt lat="45.853145" lon="8.6259783"><ele>209.0</ele><time>2026-03-22T15:42:09.372Z</time></trkpt><trkpt lat="45.853295" lon="8.6259517"><ele>209.0</ele><time>2026-03-22T15:42:10.372Z</time></trkpt><trkpt lat="45.8534467" lon="8.62592"><ele>209.0</ele><time>2026-03-22T15:42:11.372Z</time></trkpt><trkpt lat="45.8536067" lon="8.6258867"><ele>209.0</ele><time>2026-03-22T15:42:12.372Z</time></trkpt><trkpt lat="45.8537617" lon="8.625855"><ele>209.66666666666669</ele><time>2026-03-22T15:42:13.372Z</time></trkpt><trkpt lat="45.8539133" lon="8.62581"><ele>210.33333333333331</ele><time>2026-03-22T15:42:14.372Z</time></trkpt><trkpt lat="45.8540633" lon="8.6257733"><ele>211.0</ele><time>2026-03-22T15:42:15.372Z</time></trkpt><trkpt lat="45.8542083" lon="8.6257333"><ele>210.75</ele><time>2026-03-22T15:42:16.372Z</time></trkpt><trkpt lat="45.854355" lon="8.6256783"><ele>210.5</ele><time>2026-03-22T15:42:17.372Z</time></trkpt><trkpt lat="45.8544967" lon="8.625605"><ele>210.25</ele><time>2026-03-22T15:42:18.372Z</time></trkpt><trkpt lat="45.85463" lon="8.6255217"><ele>210.0</ele><time>2026-03-22T15:42:19.372Z</time></trkpt><trkpt lat="45.8547567" lon="8.6254333"><ele>210.0</ele><time>2026-03-22T15:42:20.372Z</time></trkpt><trkpt lat="45.8548817" lon="8.62533"><ele>210.0</ele><time>2026-03-22T15:42:21.372Z</time></trkpt><trkpt lat="45.855005" lon="8.62521"><ele>210.0</ele><time>2026-03-22T15:42:22.372Z</time></trkpt><trkpt lat="45.8551283" lon="8.6250667"><ele>209.66666666666669</ele><time>2026-03-22T15:42:23.372Z</time></trkpt><trkpt lat="45.8552533" lon="8.6249117"><ele>209.33333333333334</ele><time>2026-03-22T15:42:24.372Z</time></trkpt><trkpt lat="45.85537" lon="8.62473"><ele>209.0</ele><time>2026-03-22T15:42:25.372Z</time></trkpt><trkpt lat="45.8554767" lon="8.6245317"><ele>209.0</ele><time>2026-03-22T15:42:26.372Z</time></trkpt><trkpt lat="45.8555767" lon="8.624315"><ele>209.0</ele><time>2026-03-22T15:42:27.372Z</time></trkpt><trkpt lat="45.8556733" lon="8.6240917"><ele>209.0</ele><time>2026-03-22T15:42:28.372Z</time></trkpt><trkpt lat="45.85575" lon="8.623865"><ele>209.33333333333334</ele><time>2026-03-22T15:42:29.372Z</time></trkpt><trkpt lat="45.855815" lon="8.62364"><ele>209.66666666666669</ele><time>2026-03-22T15:42:30.372Z</time></trkpt><trkpt lat="45.8558667" lon="8.6234167"><ele>210.0</ele><time>2026-03-22T15:42:31.372Z</time></trkpt><trkpt lat="45.85591" lon="8.62319"><ele>210.0</ele><time>2026-03-22T15:42:32.372Z</time></trkpt><trkpt lat="45.8559483" lon="8.62295"><ele>210.0</ele><time>2026-03-22T15:42:33.372Z</time></trkpt><trkpt lat="45.8559867" lon="8.622715"><ele>210.0</ele><time>2026-03-22T15:42:34.372Z</time></trkpt><trkpt lat="45.8560217" lon="8.62249"><ele>216.33333333333331</ele><time>2026-03-22T15:42:35.372Z</time></trkpt><trkpt lat="45.85606" lon="8.6222583"><ele>222.66666666666666</ele><time>2026-03-22T15:42:36.372Z</time></trkpt><trkpt lat="45.8560933" lon="8.6220267"><ele>229.0</ele><time>2026-03-22T15:42:37.372Z</time></trkpt><trkpt lat="45.8561217" lon="8.6217983"><ele>231.0</ele><time>2026-03-22T15:42:38.372Z</time></trkpt><trkpt lat="45.8561367" lon="8.6215683"><ele>233.0</ele><time>2026-03-22T15:42:39.372Z</time></trkpt><trkpt lat="45.8561433" lon="8.621335"><ele>235.0</ele><time>2026-03-22T15:42:40.372Z</time></trkpt><trkpt lat="45.8561333" lon="8.6210883"><ele>236.0</ele><time>2026-03-22T15:42:41.372Z</time></trkpt><trkpt lat="45.856105" lon="8.6208417"><ele>237.0</ele><time>2026-03-22T15:42:42.372Z</time></trkpt><trkpt lat="45.8560617" lon="8.620595"><ele>238.0</ele><time>2026-03-22T15:42:43.372Z</time></trkpt><trkpt lat="45.8560067" lon="8.620355"><ele>231.33333333333331</ele><time>2026-03-22T15:42:44.372Z</time></trkpt><trkpt lat="45.855935" lon="8.62011"><ele>224.66666666666669</ele><time>2026-03-22T15:42:45.372Z</time></trkpt><trkpt lat="45.8558467" lon="8.6198733"><ele>218.0</ele><time>2026-03-22T15:42:46.372Z</time></trkpt><trkpt lat="45.855735" lon="8.6196583"><ele>224.33333333333334</ele><time>2026-03-22T15:42:47.372Z</time></trkpt><trkpt lat="45.8556133" lon="8.61946"><ele>230.66666666666669</ele><time>2026-03-22T15:42:48.372Z</time></trkpt><trkpt lat="45.8554833" lon="8.6192867"><ele>237.0</ele><time>2026-03-22T15:42:49.372Z</time></trkpt><trkpt lat="45.85535" lon="8.6191167"><ele>237.0</ele><time>2026-03-22T15:42:50.372Z</time></trkpt><trkpt lat="45.855225" lon="8.6189383"><ele>237.0</ele><time>2026-03-22T15:42:51.372Z</time></trkpt><trkpt lat="45.8551033" lon="8.618785"><ele>237.0</ele><time>2026-03-22T15:42:52.372Z</time></trkpt><trkpt lat="45.8549783" lon="8.61863"><ele>233.33333333333331</ele><time>2026-03-22T15:42:53.372Z</time></trkpt><trkpt lat="45.8548717" lon="8.6184733"><ele>229.66666666666666</ele><time>2026-03-22T15:42:54.372Z</time></trkpt><trkpt lat="45.85476" lon="8.6183217"><ele>226.0</ele><time>2026-03-22T15:42:55.372Z</time></trkpt><trkpt lat="45.8546567" lon="8.61815"><ele>226.0</ele><time>2026-03-22T15:42:56.372Z</time></trkpt><trkpt lat="45.8545683" lon="8.61797"><ele>226.0</ele><time>2026-03-22T15:42:57.372Z</time></trkpt><trkpt lat="45.85449" lon="8.6177667"><ele>226.0</ele><time>2026-03-22T15:42:58.372Z</time></trkpt><trkpt lat="45.8544167" lon="8.617545"><ele>225.66666666666666</ele><time>2026-03-22T15:42:59.372Z</time></trkpt><trkpt lat="45.854335" lon="8.6173233"><ele>225.33333333333331</ele><time>2026-03-22T15:43:00.373Z</time></trkpt><trkpt lat="45.8542517" lon="8.6171033"><ele>225.0</ele><time>2026-03-22T15:43:01.372Z</time></trkpt><trkpt lat="45.85417" lon="8.61689"><ele>225.0</ele><time>2026-03-22T15:43:02.372Z</time></trkpt><trkpt lat="45.8540867" lon="8.6166767"><ele>225.0</ele><time>2026-03-22T15:43:03.372Z</time></trkpt><trkpt lat="45.8540117" lon="8.6164417"><ele>225.0</ele><time>2026-03-22T15:43:04.372Z</time></trkpt><trkpt lat="45.853935" lon="8.6162217"><ele>226.66666666666669</ele><time>2026-03-22T15:43:05.372Z</time></trkpt><trkpt lat="45.8538767" lon="8.6160017"><ele>228.33333333333334</ele><time>2026-03-22T15:43:06.372Z</time></trkpt><trkpt lat="45.8538233" lon="8.6157833"><ele>230.0</ele><time>2026-03-22T15:43:07.372Z</time></trkpt><trkpt lat="45.8537817" lon="8.6155633"><ele>230.0</ele><time>2026-03-22T15:43:08.372Z</time></trkpt><trkpt lat="45.85374" lon="8.6153683"><ele>230.0</ele><time>2026-03-22T15:43:09.372Z</time></trkpt><trkpt lat="45.8537083" lon="8.615175"><ele>230.0</ele><time>2026-03-22T15:43:10.372Z</time></trkpt><trkpt lat="45.85368" lon="8.6150117"><ele>230.0</ele><time>2026-03-22T15:43:11.372Z</time></trkpt><trkpt lat="45.8536567" lon="8.61486"><ele>228.8</ele><time>2026-03-22T15:43:12.372Z</time></trkpt><trkpt lat="45.8536483" lon="8.6147167"><ele>227.6</ele><time>2026-03-22T15:43:13.372Z</time></trkpt><trkpt lat="45.8536617" lon="8.6145617"><ele>226.39999999999998</ele><time>2026-03-22T15:43:14.372Z</time></trkpt><trkpt lat="45.8537117" lon="8.6144167"><ele>225.2</ele><time>2026-03-22T15:43:15.372Z</time></trkpt><trkpt lat="45.8537917" lon="8.6142833"><ele>224.0</ele><time>2026-03-22T15:43:16.372Z</time></trkpt><trkpt lat="45.8538933" lon="8.6141833"><ele>222.0</ele><time>2026-03-22T15:43:17.372Z</time></trkpt><trkpt lat="45.8540217" lon="8.6140783"><ele>220.0</ele><time>2026-03-22T15:43:18.372Z</time></trkpt><trkpt lat="45.854165" lon="8.61397"><ele>218.0</ele><time>2026-03-22T15:43:19.372Z</time></trkpt><trkpt lat="45.8543017" lon="8.6138483"><ele>218.0</ele><time>2026-03-22T15:43:20.372Z</time></trkpt><trkpt lat="45.8544333" lon="8.6137183"><ele>218.0</ele><time>2026-03-22T15:43:21.372Z</time></trkpt><trkpt lat="45.8545617" lon="8.6136017"><ele>218.0</ele><time>2026-03-22T15:43:22.372Z</time></trkpt><trkpt lat="45.8546967" lon="8.6134983"><ele>215.66666666666669</ele><time>2026-03-22T15:43:23.372Z</time></trkpt><trkpt lat="45.8548317" lon="8.6133967"><ele>213.33333333333331</ele><time>2026-03-22T15:43:24.372Z</time></trkpt><trkpt lat="45.8549767" lon="8.6133233"><ele>211.0</ele><time>2026-03-22T15:43:25.372Z</time></trkpt><trkpt lat="45.8551267" lon="8.6132967"><ele>211.0</ele><time>2026-03-22T15:43:26.372Z</time></trkpt><trkpt lat="45.8552833" lon="8.613295"><ele>211.0</ele><time>2026-03-22T15:43:27.372Z</time></trkpt><trkpt lat="45.8554617" lon="8.613305"><ele>211.0</ele><time>2026-03-22T15:43:28.372Z</time></trkpt><trkpt lat="45.855635" lon="8.6133133"><ele>211.0</ele><time>2026-03-22T15:43:29.372Z</time></trkpt><trkpt lat="45.8557967" lon="8.6133267"><ele>211.0</ele><time>2026-03-22T15:43:30.372Z</time></trkpt><trkpt lat="45.8559683" lon="8.6133383"><ele>211.0</ele><time>2026-03-22T15:43:31.372Z</time></trkpt><trkpt lat="45.8561467" lon="8.6133533"><ele>211.0</ele><time>2026-03-22T15:43:32.372Z</time></trkpt><trkpt lat="45.856315" lon="8.6133717"><ele>211.0</ele><time>2026-03-22T15:43:33.372Z</time></trkpt><trkpt lat="45.8564933" lon="8.61338"><ele>211.0</ele><time>2026-03-22T15:43:34.372Z</time></trkpt><trkpt lat="45.85667" lon="8.61339"><ele>210.66666666666666</ele><time>2026-03-22T15:43:35.372Z</time></trkpt><trkpt lat="45.85684" lon="8.6134"><ele>210.33333333333331</ele><time>2026-03-22T15:43:36.372Z</time></trkpt><trkpt lat="45.857015" lon="8.6134017"><ele>210.0</ele><time>2026-03-22T15:43:37.372Z</time></trkpt><trkpt lat="45.8571833" lon="8.6134167"><ele>210.0</ele><time>2026-03-22T15:43:38.372Z</time></trkpt><trkpt lat="45.8573567" lon="8.613425"><ele>210.0</ele><time>2026-03-22T15:43:39.373Z</time></trkpt><trkpt lat="45.8575267" lon="8.6134433"><ele>210.0</ele><time>2026-03-22T15:43:40.372Z</time></trkpt><trkpt lat="45.8576967" lon="8.61346"><ele>208.33333333333331</ele><time>2026-03-22T15:43:41.372Z</time></trkpt><trkpt lat="45.8578733" lon="8.613485"><ele>206.66666666666666</ele><time>2026-03-22T15:43:42.372Z</time></trkpt><trkpt lat="45.8580417" lon="8.6135083"><ele>205.0</ele><time>2026-03-22T15:43:43.372Z</time></trkpt><trkpt lat="45.8582" lon="8.6135417"><ele>205.0</ele><time>2026-03-22T15:43:44.372Z</time></trkpt><trkpt lat="45.85835" lon="8.6135583"><ele>205.0</ele><time>2026-03-22T15:43:45.372Z</time></trkpt><trkpt lat="45.85849" lon="8.6135883"><ele>205.0</ele><time>2026-03-22T15:43:46.372Z</time></trkpt><trkpt lat="45.858625" lon="8.6136083"><ele>205.0</ele><time>2026-03-22T15:43:47.372Z</time></trkpt><trkpt lat="45.8587533" lon="8.6136217"><ele>205.5</ele><time>2026-03-22T15:43:48.372Z</time></trkpt><trkpt lat="45.8588767" lon="8.613615"><ele>206.0</ele><time>2026-03-22T15:43:49.372Z</time></trkpt><trkpt lat="45.8589983" lon="8.61359"><ele>206.5</ele><time>2026-03-22T15:43:50.372Z</time></trkpt><trkpt lat="45.85911" lon="8.6135183"><ele>207.0</ele><time>2026-03-22T15:43:51.372Z</time></trkpt><trkpt lat="45.859195" lon="8.6133983"><ele>207.0</ele><time>2026-03-22T15:43:52.372Z</time></trkpt><trkpt lat="45.8592717" lon="8.6132333"><ele>207.0</ele><time>2026-03-22T15:43:53.372Z</time></trkpt><trkpt lat="45.8593683" lon="8.6130233"><ele>207.0</ele><time>2026-03-22T15:43:54.372Z</time></trkpt><trkpt lat="45.85947" lon="8.6127917"><ele>206.66666666666669</ele><time>2026-03-22T15:43:55.372Z</time></trkpt><trkpt lat="45.8595867" lon="8.61256"><ele>206.33333333333334</ele><time>2026-03-22T15:43:56.372Z</time></trkpt><trkpt lat="45.8597133" lon="8.61232"><ele>206.0</ele><time>2026-03-22T15:43:57.372Z</time></trkpt><trkpt lat="45.85984" lon="8.61211"><ele>208.5</ele><time>2026-03-22T15:43:58.372Z</time></trkpt><trkpt lat="45.8599517" lon="8.6119383"><ele>211.0</ele><time>2026-03-22T15:43:59.372Z</time></trkpt><trkpt lat="45.860055" lon="8.6117983"><ele>213.5</ele><time>2026-03-22T15:44:00.372Z</time></trkpt><trkpt lat="45.860175" lon="8.6116983"><ele>216.0</ele><time>2026-03-22T15:44:01.372Z</time></trkpt><trkpt lat="45.8602917" lon="8.6116333"><ele>217.25</ele><time>2026-03-22T15:44:02.372Z</time></trkpt><trkpt lat="45.86041" lon="8.611635"><ele>218.5</ele><time>2026-03-22T15:44:03.372Z</time></trkpt><trkpt lat="45.8605283" lon="8.6117117"><ele>219.75</ele><time>2026-03-22T15:44:04.372Z</time></trkpt><trkpt lat="45.8606367" lon="8.611815"><ele>221.0</ele><time>2026-03-22T15:44:05.372Z</time></trkpt><trkpt lat="45.8607183" lon="8.6119233"><ele>221.20000000000002</ele><time>2026-03-22T15:44:06.372Z</time></trkpt><trkpt lat="45.8608017" lon="8.6120367"><ele>221.40000000000003</ele><time>2026-03-22T15:44:07.372Z</time></trkpt><trkpt lat="45.8608867" lon="8.6121433"><ele>221.6</ele><time>2026-03-22T15:44:08.372Z</time></trkpt><trkpt lat="45.8609783" lon="8.6122167"><ele>221.8</ele><time>2026-03-22T15:44:09.372Z</time></trkpt><trkpt lat="45.8610717" lon="8.61227"><ele>222.0</ele><time>2026-03-22T15:44:10.372Z</time></trkpt><trkpt lat="45.86117" lon="8.6123267"><ele>222.0</ele><time>2026-03-22T15:44:11.372Z</time></trkpt><trkpt lat="45.8612667" lon="8.6123817"><ele>222.0</ele><time>2026-03-22T15:44:12.372Z</time></trkpt><trkpt lat="45.8613733" lon="8.6124267"><ele>222.0</ele><time>2026-03-22T15:44:13.372Z</time></trkpt><trkpt lat="45.86148" lon="8.6124467"><ele>222.0</ele><time>2026-03-22T15:44:14.372Z</time></trkpt><trkpt lat="45.8615933" lon="8.6124467"><ele>222.0</ele><time>2026-03-22T15:44:15.372Z</time></trkpt><trkpt lat="45.8617" lon="8.6124183"><ele>223.25</ele><time>2026-03-22T15:44:16.372Z</time></trkpt><trkpt lat="45.8618033" lon="8.6123417"><ele>224.5</ele><time>2026-03-22T15:44:17.372Z</time></trkpt><trkpt lat="45.8619017" lon="8.6122367"><ele>225.75</ele><time>2026-03-22T15:44:18.372Z</time></trkpt><trkpt lat="45.8619983" lon="8.6121167"><ele>227.0</ele><time>2026-03-22T15:44:19.372Z</time></trkpt><trkpt lat="45.8620917" lon="8.6119967"><ele>227.25</ele><time>2026-03-22T15:44:20.372Z</time></trkpt><trkpt lat="45.8621783" lon="8.6118767"><ele>227.5</ele><time>2026-03-22T15:44:21.372Z</time></trkpt><trkpt lat="45.8622667" lon="8.61176"><ele>227.75</ele><time>2026-03-22T15:44:22.372Z</time></trkpt><trkpt lat="45.86235" lon="8.611645"><ele>228.0</ele><time>2026-03-22T15:44:23.372Z</time></trkpt><trkpt lat="45.8624383" lon="8.6115433"><ele>228.0</ele><time>2026-03-22T15:44:24.372Z</time></trkpt><trkpt lat="45.862525" lon="8.6114533"><ele>228.0</ele><time>2026-03-22T15:44:25.372Z</time></trkpt><trkpt lat="45.86262" lon="8.6113983"><ele>228.0</ele><time>2026-03-22T15:44:26.372Z</time></trkpt><trkpt lat="45.8627133" lon="8.611345"><ele>228.0</ele><time>2026-03-22T15:44:27.372Z</time></trkpt><trkpt lat="45.86282" lon="8.61131"><ele>228.0</ele><time>2026-03-22T15:44:28.372Z</time></trkpt><trkpt lat="45.8629233" lon="8.6112683"><ele>227.83333333333334</ele><time>2026-03-22T15:44:29.372Z</time></trkpt><trkpt lat="45.863015" lon="8.6112183"><ele>227.66666666666669</ele><time>2026-03-22T15:44:30.372Z</time></trkpt><trkpt lat="45.863095" lon="8.6111833"><ele>227.5</ele><time>2026-03-22T15:44:31.372Z</time></trkpt><trkpt lat="45.8631583" lon="8.6111583"><ele>227.33333333333334</ele><time>2026-03-22T15:44:32.373Z</time></trkpt><trkpt lat="45.863245" lon="8.6111333"><ele>227.16666666666669</ele><time>2026-03-22T15:44:34.372Z</time></trkpt><trkpt lat="45.86332" lon="8.611115"><ele>227.0</ele><time>2026-03-22T15:44:37.372Z</time></trkpt><trkpt lat="45.8633783" lon="8.611075"><ele>227.50000000000003</ele><time>2026-03-22T15:44:47.372Z</time></trkpt><trkpt lat="45.86345" lon="8.611045"><ele>228.0</ele><time>2026-03-22T15:44:49.372Z</time></trkpt><trkpt lat="45.8635433" lon="8.6110317"><ele>228.5</ele><time>2026-03-22T15:45:08.372Z</time></trkpt><trkpt lat="45.863605" lon="8.611005"><ele>229.0</ele><time>2026-03-22T15:45:09.373Z</time></trkpt><trkpt lat="45.86369" lon="8.61097"><ele>229.50000000000003</ele><time>2026-03-22T15:45:10.372Z</time></trkpt><trkpt lat="45.8638033" lon="8.6109083"><ele>230.0</ele><time>2026-03-22T15:45:11.372Z</time></trkpt><trkpt lat="45.863915" lon="8.6108367"><ele>230.0</ele><time>2026-03-22T15:45:12.372Z</time></trkpt><trkpt lat="45.864055" lon="8.6107433"><ele>230.0</ele><time>2026-03-22T15:45:13.372Z</time></trkpt><trkpt lat="45.8641767" lon="8.6106617"><ele>230.0</ele><time>2026-03-22T15:45:14.372Z</time></trkpt><trkpt lat="45.8643067" lon="8.6105583"><ele>230.0</ele><time>2026-03-22T15:45:15.372Z</time></trkpt><trkpt lat="45.8644433" lon="8.6104467"><ele>230.0</ele><time>2026-03-22T15:45:16.372Z</time></trkpt><trkpt lat="45.8645733" lon="8.6103533"><ele>230.0</ele><time>2026-03-22T15:45:17.372Z</time></trkpt><trkpt lat="45.8647033" lon="8.6102767"><ele>230.0</ele><time>2026-03-22T15:45:18.372Z</time></trkpt><trkpt lat="45.8648183" lon="8.6101867"><ele>230.0</ele><time>2026-03-22T15:45:19.372Z</time></trkpt><trkpt lat="45.8649517" lon="8.610095"><ele>230.0</ele><time>2026-03-22T15:45:20.372Z</time></trkpt><trkpt lat="45.865085" lon="8.609995"><ele>230.0</ele><time>2026-03-22T15:45:21.372Z</time></trkpt><trkpt lat="45.8652233" lon="8.609905"><ele>230.0</ele><time>2026-03-22T15:45:22.372Z</time></trkpt><trkpt lat="45.8653783" lon="8.60982"><ele>231.0</ele><time>2026-03-22T15:45:23.372Z</time></trkpt><trkpt lat="45.865545" lon="8.60974"><ele>232.0</ele><time>2026-03-22T15:45:24.372Z</time></trkpt><trkpt lat="45.8657067" lon="8.6096833"><ele>233.0</ele><time>2026-03-22T15:45:25.372Z</time></trkpt><trkpt lat="45.8658683" lon="8.609635"><ele>234.66666666666669</ele><time>2026-03-22T15:45:26.372Z</time></trkpt><trkpt lat="45.86603" lon="8.6095967"><ele>236.33333333333331</ele><time>2026-03-22T15:45:27.372Z</time></trkpt><trkpt lat="45.8661933" lon="8.6095683"><ele>238.0</ele><time>2026-03-22T15:45:28.372Z</time></trkpt><trkpt lat="45.866345" lon="8.6095417"><ele>238.0</ele><time>2026-03-22T15:45:29.372Z</time></trkpt><trkpt lat="45.866485" lon="8.6095167"><ele>238.0</ele><time>2026-03-22T15:45:30.372Z</time></trkpt><trkpt lat="45.866625" lon="8.6094967"><ele>238.0</ele><time>2026-03-22T15:45:31.372Z</time></trkpt><trkpt lat="45.8667717" lon="8.6094717"><ele>238.0</ele><time>2026-03-22T15:45:32.372Z</time></trkpt><trkpt lat="45.8669233" lon="8.6094567"><ele>238.25</ele><time>2026-03-22T15:45:33.372Z</time></trkpt><trkpt lat="45.8670667" lon="8.6094333"><ele>238.5</ele><time>2026-03-22T15:45:34.372Z</time></trkpt><trkpt lat="45.8672133" lon="8.6094183"><ele>238.75</ele><time>2026-03-22T15:45:35.372Z</time></trkpt><trkpt lat="45.8673517" lon="8.6093917"><ele>239.0</ele><time>2026-03-22T15:45:36.372Z</time></trkpt><trkpt lat="45.8674883" lon="8.6093733"><ele>241.5</ele><time>2026-03-22T15:45:37.372Z</time></trkpt><trkpt lat="45.8676133" lon="8.6093567"><ele>244.0</ele><time>2026-03-22T15:45:38.372Z</time></trkpt><trkpt lat="45.8677333" lon="8.6093383"><ele>246.5</ele><time>2026-03-22T15:45:39.372Z</time></trkpt><trkpt lat="45.86786" lon="8.6093133"><ele>249.0</ele><time>2026-03-22T15:45:40.372Z</time></trkpt><trkpt lat="45.86799" lon="8.6092883"><ele>249.0</ele><time>2026-03-22T15:45:41.372Z</time></trkpt><trkpt lat="45.86813" lon="8.609265"><ele>249.0</ele><time>2026-03-22T15:45:42.372Z</time></trkpt><trkpt lat="45.8682783" lon="8.6092417"><ele>249.0</ele><time>2026-03-22T15:45:43.372Z</time></trkpt><trkpt lat="45.8684333" lon="8.609235"><ele>249.0</ele><time>2026-03-22T15:45:44.372Z</time></trkpt><trkpt lat="45.8685867" lon="8.6092317"><ele>248.5</ele><time>2026-03-22T15:45:45.372Z</time></trkpt><trkpt lat="45.8687333" lon="8.60925"><ele>248.0</ele><time>2026-03-22T15:45:46.372Z</time></trkpt><trkpt lat="45.8688717" lon="8.6092683"><ele>247.5</ele><time>2026-03-22T15:45:47.372Z</time></trkpt><trkpt lat="45.868995" lon="8.60929"><ele>247.0</ele><time>2026-03-22T15:45:48.372Z</time></trkpt><trkpt lat="45.8691183" lon="8.6093117"><ele>246.99999999999997</ele><time>2026-03-22T15:45:49.372Z</time></trkpt><trkpt lat="45.86922" lon="8.60934"><ele>247.0</ele><time>2026-03-22T15:45:50.372Z</time></trkpt><trkpt lat="45.869305" lon="8.6093767"><ele>247.0</ele><time>2026-03-22T15:45:51.372Z</time></trkpt><trkpt lat="45.8693783" lon="8.60941"><ele>247.0</ele><time>2026-03-22T15:45:52.372Z</time></trkpt><trkpt lat="45.869445" lon="8.609445"><ele>246.99999999999997</ele><time>2026-03-22T15:45:53.372Z</time></trkpt><trkpt lat="45.869505" lon="8.6094817"><ele>247.0</ele><time>2026-03-22T15:45:54.372Z</time></trkpt><trkpt lat="45.8696117" lon="8.6095383"><ele>246.83333333333331</ele><time>2026-03-22T15:45:56.372Z</time></trkpt><trkpt lat="45.8696933" lon="8.6095867"><ele>246.66666666666666</ele><time>2026-03-22T15:45:58.372Z</time></trkpt><trkpt lat="45.8697667" lon="8.60964"><ele>246.5</ele><time>2026-03-22T15:46:01.372Z</time></trkpt><trkpt lat="45.8698367" lon="8.6096783"><ele>246.33333333333331</ele><time>2026-03-22T15:46:03.372Z</time></trkpt><trkpt lat="45.869915" lon="8.609705"><ele>246.16666666666666</ele><time>2026-03-22T15:46:04.372Z</time></trkpt><trkpt lat="45.87003" lon="8.6097483"><ele>246.0</ele><time>2026-03-22T15:46:05.372Z</time></trkpt><trkpt lat="45.8701683" lon="8.60981"><ele>246.0</ele><time>2026-03-22T15:46:06.372Z</time></trkpt><trkpt lat="45.8703317" lon="8.60988"><ele>246.0</ele><time>2026-03-22T15:46:07.372Z</time></trkpt><trkpt lat="45.8704967" lon="8.6099517"><ele>246.0</ele><time>2026-03-22T15:46:08.372Z</time></trkpt><trkpt lat="45.8706583" lon="8.6100217"><ele>246.0</ele><time>2026-03-22T15:46:09.372Z</time></trkpt><trkpt lat="45.870805" lon="8.610085"><ele>246.0</ele><time>2026-03-22T15:46:10.372Z</time></trkpt><trkpt lat="45.870965" lon="8.610115"><ele>246.0</ele><time>2026-03-22T15:46:11.372Z</time></trkpt><trkpt lat="45.871125" lon="8.6101067"><ele>245.66666666666669</ele><time>2026-03-22T15:46:12.372Z</time></trkpt><trkpt lat="45.87131" lon="8.6100717"><ele>245.33333333333334</ele><time>2026-03-22T15:46:13.372Z</time></trkpt><trkpt lat="45.871515" lon="8.6100067"><ele>245.0</ele><time>2026-03-22T15:46:14.372Z</time></trkpt><trkpt lat="45.8717267" lon="8.6099267"><ele>244.0</ele><time>2026-03-22T15:46:15.372Z</time></trkpt><trkpt lat="45.871945" lon="8.609835"><ele>243.0</ele><time>2026-03-22T15:46:16.372Z</time></trkpt><trkpt lat="45.8721617" lon="8.609745"><ele>243.0</ele><time>2026-03-22T15:46:17.372Z</time></trkpt><trkpt lat="45.8723867" lon="8.6096367"><ele>243.0</ele><time>2026-03-22T15:46:18.372Z</time></trkpt><trkpt lat="45.8726117" lon="8.609535"><ele>244.0</ele><time>2026-03-22T15:46:19.372Z</time></trkpt><trkpt lat="45.8728233" lon="8.6094483"><ele>245.0</ele><time>2026-03-22T15:46:20.372Z</time></trkpt><trkpt lat="45.87303" lon="8.6093617"><ele>246.0</ele><time>2026-03-22T15:46:21.372Z</time></trkpt><trkpt lat="45.8732267" lon="8.6092683"><ele>246.0</ele><time>2026-03-22T15:46:22.372Z</time></trkpt><trkpt lat="45.8734283" lon="8.6091783"><ele>246.0</ele><time>2026-03-22T15:46:23.372Z</time></trkpt><trkpt lat="45.8736317" lon="8.6090917"><ele>246.0</ele><time>2026-03-22T15:46:24.372Z</time></trkpt><trkpt lat="45.87383" lon="8.6089967"><ele>244.0</ele><time>2026-03-22T15:46:25.372Z</time></trkpt><trkpt lat="45.874025" lon="8.60891"><ele>242.0</ele><time>2026-03-22T15:46:26.372Z</time></trkpt><trkpt lat="45.874235" lon="8.6088283"><ele>240.0</ele><time>2026-03-22T15:46:27.372Z</time></trkpt><trkpt lat="45.8744517" lon="8.6087167"><ele>239.66666666666669</ele><time>2026-03-22T15:46:28.372Z</time></trkpt><trkpt lat="45.8746617" lon="8.608615"><ele>239.33333333333334</ele><time>2026-03-22T15:46:29.372Z</time></trkpt><trkpt lat="45.8748767" lon="8.6085267"><ele>239.0</ele><time>2026-03-22T15:46:30.372Z</time></trkpt><trkpt lat="45.8751033" lon="8.6084283"><ele>239.0</ele><time>2026-03-22T15:46:31.372Z</time></trkpt><trkpt lat="45.8753367" lon="8.6083117"><ele>239.0</ele><time>2026-03-22T15:46:32.372Z</time></trkpt><trkpt lat="45.8755667" lon="8.6082017"><ele>239.0</ele><time>2026-03-22T15:46:33.372Z</time></trkpt><trkpt lat="45.875795" lon="8.6080983"><ele>239.0</ele><time>2026-03-22T15:46:34.372Z</time></trkpt><trkpt lat="45.8760083" lon="8.608"><ele>238.66666666666669</ele><time>2026-03-22T15:46:35.372Z</time></trkpt><trkpt lat="45.8762133" lon="8.60791"><ele>238.33333333333331</ele><time>2026-03-22T15:46:36.372Z</time></trkpt><trkpt lat="45.8764133" lon="8.60782"><ele>238.0</ele><time>2026-03-22T15:46:37.372Z</time></trkpt><trkpt lat="45.87661" lon="8.6077217"><ele>236.0</ele><time>2026-03-22T15:46:38.372Z</time></trkpt><trkpt lat="45.8768133" lon="8.607615"><ele>234.0</ele><time>2026-03-22T15:46:39.372Z</time></trkpt><trkpt lat="45.8770067" lon="8.60749"><ele>232.0</ele><time>2026-03-22T15:46:40.372Z</time></trkpt><trkpt lat="45.8771833" lon="8.6073717"><ele>232.0</ele><time>2026-03-22T15:46:41.372Z</time></trkpt><trkpt lat="45.877355" lon="8.6072367"><ele>232.0</ele><time>2026-03-22T15:46:42.372Z</time></trkpt><trkpt lat="45.8775283" lon="8.6070833"><ele>232.0</ele><time>2026-03-22T15:46:43.372Z</time></trkpt><trkpt lat="45.8777067" lon="8.6069217"><ele>232.0</ele><time>2026-03-22T15:46:44.372Z</time></trkpt><trkpt lat="45.8778783" lon="8.6067667"><ele>232.0</ele><time>2026-03-22T15:46:45.372Z</time></trkpt><trkpt lat="45.878055" lon="8.6066133"><ele>232.0</ele><time>2026-03-22T15:46:46.372Z</time></trkpt><trkpt lat="45.87823" lon="8.6064583"><ele>232.0</ele><time>2026-03-22T15:46:47.372Z</time></trkpt><trkpt lat="45.878395" lon="8.6063133"><ele>232.0</ele><time>2026-03-22T15:46:48.372Z</time></trkpt><trkpt lat="45.8785583" lon="8.60616"><ele>232.0</ele><time>2026-03-22T15:46:49.373Z</time></trkpt><trkpt lat="45.878725" lon="8.60601"><ele>232.33333333333331</ele><time>2026-03-22T15:46:50.373Z</time></trkpt><trkpt lat="45.8788883" lon="8.6058733"><ele>232.66666666666669</ele><time>2026-03-22T15:46:51.373Z</time></trkpt><trkpt lat="45.87903" lon="8.6057467"><ele>233.0</ele><time>2026-03-22T15:46:52.373Z</time></trkpt><trkpt lat="45.8791633" lon="8.6056267"><ele>234.25</ele><time>2026-03-22T15:46:53.373Z</time></trkpt><trkpt lat="45.8792833" lon="8.60552"><ele>235.5</ele><time>2026-03-22T15:46:54.373Z</time></trkpt><trkpt lat="45.879395" lon="8.605425"><ele>236.75</ele><time>2026-03-22T15:46:55.373Z</time></trkpt><trkpt lat="45.879495" lon="8.60534"><ele>238.0</ele><time>2026-03-22T15:46:56.373Z</time></trkpt><trkpt lat="45.879575" lon="8.605265"><ele>238.0</ele><time>2026-03-22T15:46:57.373Z</time></trkpt><trkpt lat="45.8796433" lon="8.6051833"><ele>238.0</ele><time>2026-03-22T15:46:58.373Z</time></trkpt><trkpt lat="45.87971" lon="8.605105"><ele>238.0</ele><time>2026-03-22T15:46:59.373Z</time></trkpt><trkpt lat="45.8797683" lon="8.6050067"><ele>238.0</ele><time>2026-03-22T15:47:00.373Z</time></trkpt><trkpt lat="45.8798217" lon="8.6048983"><ele>238.0</ele><time>2026-03-22T15:47:01.373Z</time></trkpt><trkpt lat="45.8798667" lon="8.60478"><ele>238.0</ele><time>2026-03-22T15:47:02.373Z</time></trkpt><trkpt lat="45.8799083" lon="8.6046433"><ele>238.0</ele><time>2026-03-22T15:47:03.373Z</time></trkpt><trkpt lat="45.87995" lon="8.6044933"><ele>238.0</ele><time>2026-03-22T15:47:04.373Z</time></trkpt><trkpt lat="45.87999" lon="8.6043383"><ele>238.0</ele><time>2026-03-22T15:47:05.373Z</time></trkpt><trkpt lat="45.88003" lon="8.6041733"><ele>237.5</ele><time>2026-03-22T15:47:06.373Z</time></trkpt><trkpt lat="45.8800667" lon="8.6040067"><ele>237.0</ele><time>2026-03-22T15:47:07.373Z</time></trkpt><trkpt lat="45.8801067" lon="8.6038467"><ele>236.5</ele><time>2026-03-22T15:47:08.373Z</time></trkpt><trkpt lat="45.8801383" lon="8.603675"><ele>236.0</ele><time>2026-03-22T15:47:09.373Z</time></trkpt><trkpt lat="45.8801783" lon="8.6035117"><ele>234.20000000000002</ele><time>2026-03-22T15:47:10.373Z</time></trkpt><trkpt lat="45.8802167" lon="8.603355"><ele>232.40000000000003</ele><time>2026-03-22T15:47:11.373Z</time></trkpt><trkpt lat="45.8802533" lon="8.6031983"><ele>230.6</ele><time>2026-03-22T15:47:12.373Z</time></trkpt><trkpt lat="45.8802933" lon="8.60305"><ele>228.8</ele><time>2026-03-22T15:47:13.373Z</time></trkpt><trkpt lat="45.88033" lon="8.6029217"><ele>227.0</ele><time>2026-03-22T15:47:14.373Z</time></trkpt><trkpt lat="45.880375" lon="8.6027967"><ele>226.0</ele><time>2026-03-22T15:47:15.373Z</time></trkpt><trkpt lat="45.8804267" lon="8.6026817"><ele>225.0</ele><time>2026-03-22T15:47:16.373Z</time></trkpt><trkpt lat="45.8804883" lon="8.60258"><ele>224.0</ele><time>2026-03-22T15:47:17.373Z</time></trkpt><trkpt lat="45.8805617" lon="8.602475"><ele>223.0</ele><time>2026-03-22T15:47:18.373Z</time></trkpt><trkpt lat="45.8806483" lon="8.6023867"><ele>222.0</ele><time>2026-03-22T15:47:19.373Z</time></trkpt><trkpt lat="45.880745" lon="8.602305"><ele>222.0</ele><time>2026-03-22T15:47:20.373Z</time></trkpt><trkpt lat="45.88085" lon="8.6022"><ele>222.0</ele><time>2026-03-22T15:47:21.373Z</time></trkpt><trkpt lat="45.8809633" lon="8.6020717"><ele>222.0</ele><time>2026-03-22T15:47:22.373Z</time></trkpt><trkpt lat="45.8810683" lon="8.6019317"><ele>222.0</ele><time>2026-03-22T15:47:23.373Z</time></trkpt><trkpt lat="45.881175" lon="8.601785"><ele>222.5</ele><time>2026-03-22T15:47:24.373Z</time></trkpt><trkpt lat="45.88127" lon="8.601635"><ele>223.0</ele><time>2026-03-22T15:47:25.373Z</time></trkpt><trkpt lat="45.881375" lon="8.6015017"><ele>223.5</ele><time>2026-03-22T15:47:26.373Z</time></trkpt><trkpt lat="45.8814783" lon="8.6013767"><ele>224.0</ele><time>2026-03-22T15:47:27.373Z</time></trkpt><trkpt lat="45.8815833" lon="8.6012667"><ele>224.0</ele><time>2026-03-22T15:47:28.373Z</time></trkpt><trkpt lat="45.8817" lon="8.6011917"><ele>224.0</ele><time>2026-03-22T15:47:29.373Z</time></trkpt><trkpt lat="45.8818467" lon="8.6011583"><ele>224.0</ele><time>2026-03-22T15:47:30.373Z</time></trkpt><trkpt lat="45.8820033" lon="8.601145"><ele>224.0</ele><time>2026-03-22T15:47:31.373Z</time></trkpt><trkpt lat="45.8821833" lon="8.6011683"><ele>224.33333333333334</ele><time>2026-03-22T15:47:32.373Z</time></trkpt><trkpt lat="45.8823583" lon="8.601195"><ele>224.66666666666669</ele><time>2026-03-22T15:47:33.373Z</time></trkpt><trkpt lat="45.8825433" lon="8.6012033"><ele>225.0</ele><time>2026-03-22T15:47:34.373Z</time></trkpt><trkpt lat="45.88273" lon="8.60119"><ele>220.33333333333331</ele><time>2026-03-22T15:47:35.373Z</time></trkpt><trkpt lat="45.8829083" lon="8.60115"><ele>215.66666666666666</ele><time>2026-03-22T15:47:36.373Z</time></trkpt><trkpt lat="45.8830983" lon="8.6010917"><ele>211.0</ele><time>2026-03-22T15:47:37.373Z</time></trkpt><trkpt lat="45.8832783" lon="8.6010383"><ele>214.66666666666666</ele><time>2026-03-22T15:47:38.373Z</time></trkpt><trkpt lat="45.8834383" lon="8.600985"><ele>218.33333333333331</ele><time>2026-03-22T15:47:39.373Z</time></trkpt><trkpt lat="45.8836" lon="8.6009267"><ele>222.0</ele><time>2026-03-22T15:47:40.373Z</time></trkpt><trkpt lat="45.883765" lon="8.6008767"><ele>222.0</ele><time>2026-03-22T15:47:41.373Z</time></trkpt><trkpt lat="45.8839383" lon="8.6008383"><ele>222.0</ele><time>2026-03-22T15:47:42.373Z</time></trkpt><trkpt lat="45.884115" lon="8.60082"><ele>222.0</ele><time>2026-03-22T15:47:43.373Z</time></trkpt><trkpt lat="45.8842967" lon="8.6008267"><ele>221.33333333333331</ele><time>2026-03-22T15:47:44.373Z</time></trkpt><trkpt lat="45.8844883" lon="8.6008483"><ele>220.66666666666666</ele><time>2026-03-22T15:47:45.373Z</time></trkpt><trkpt lat="45.88467" lon="8.6008767"><ele>220.0</ele><time>2026-03-22T15:47:46.373Z</time></trkpt><trkpt lat="45.8848533" lon="8.6008717"><ele>220.0</ele><time>2026-03-22T15:47:47.373Z</time></trkpt><trkpt lat="45.88503" lon="8.6008283"><ele>220.0</ele><time>2026-03-22T15:47:48.373Z</time></trkpt><trkpt lat="45.885215" lon="8.600755"><ele>220.0</ele><time>2026-03-22T15:47:49.373Z</time></trkpt><trkpt lat="45.8853967" lon="8.6006583"><ele>221.0</ele><time>2026-03-22T15:47:50.373Z</time></trkpt><trkpt lat="45.8855817" lon="8.6005767"><ele>222.0</ele><time>2026-03-22T15:47:51.373Z</time></trkpt><trkpt lat="45.8857617" lon="8.6004867"><ele>223.0</ele><time>2026-03-22T15:47:52.373Z</time></trkpt><trkpt lat="45.885945" lon="8.6004117"><ele>220.33333333333331</ele><time>2026-03-22T15:47:53.373Z</time></trkpt><trkpt lat="45.8861217" lon="8.6003117"><ele>217.66666666666669</ele><time>2026-03-22T15:47:54.373Z</time></trkpt><trkpt lat="45.886295" lon="8.6002133"><ele>215.0</ele><time>2026-03-22T15:47:55.373Z</time></trkpt><trkpt lat="45.8864733" lon="8.600115"><ele>215.0</ele><time>2026-03-22T15:47:56.373Z</time></trkpt><trkpt lat="45.8866433" lon="8.600005"><ele>215.0</ele><time>2026-03-22T15:47:57.373Z</time></trkpt><trkpt lat="45.8868267" lon="8.5999033"><ele>215.0</ele><time>2026-03-22T15:47:58.373Z</time></trkpt><trkpt lat="45.8869983" lon="8.599805"><ele>216.33333333333334</ele><time>2026-03-22T15:47:59.373Z</time></trkpt><trkpt lat="45.887165" lon="8.5997067"><ele>217.66666666666669</ele><time>2026-03-22T15:48:00.373Z</time></trkpt><trkpt lat="45.8873383" lon="8.5996183"><ele>219.0</ele><time>2026-03-22T15:48:01.373Z</time></trkpt><trkpt lat="45.8875033" lon="8.5995317"><ele>217.0</ele><time>2026-03-22T15:48:02.373Z</time></trkpt><trkpt lat="45.8876633" lon="8.5994533"><ele>215.0</ele><time>2026-03-22T15:48:03.373Z</time></trkpt><trkpt lat="45.88783" lon="8.5993767"><ele>213.0</ele><time>2026-03-22T15:48:04.373Z</time></trkpt><trkpt lat="45.8880017" lon="8.5992917"><ele>213.0</ele><time>2026-03-22T15:48:05.373Z</time></trkpt><trkpt lat="45.8881783" lon="8.5992317"><ele>213.0</ele><time>2026-03-22T15:48:06.373Z</time></trkpt><trkpt lat="45.8883583" lon="8.599165"><ele>213.0</ele><time>2026-03-22T15:48:07.373Z</time></trkpt><trkpt lat="45.8885517" lon="8.5991"><ele>216.0</ele><time>2026-03-22T15:48:08.373Z</time></trkpt><trkpt lat="45.8887367" lon="8.599025"><ele>219.0</ele><time>2026-03-22T15:48:09.373Z</time></trkpt><trkpt lat="45.8889167" lon="8.5989517"><ele>222.0</ele><time>2026-03-22T15:48:10.373Z</time></trkpt><trkpt lat="45.889095" lon="8.5988883"><ele>222.33333333333331</ele><time>2026-03-22T15:48:11.373Z</time></trkpt><trkpt lat="45.8892683" lon="8.5988183"><ele>222.66666666666666</ele><time>2026-03-22T15:48:12.373Z</time></trkpt><trkpt lat="45.889445" lon="8.5987633"><ele>223.0</ele><time>2026-03-22T15:48:13.373Z</time></trkpt><trkpt lat="45.88962" lon="8.5987117"><ele>220.0</ele><time>2026-03-22T15:48:14.373Z</time></trkpt><trkpt lat="45.88979" lon="8.5986467"><ele>217.0</ele><time>2026-03-22T15:48:15.373Z</time></trkpt><trkpt lat="45.8899633" lon="8.5985767"><ele>214.0</ele><time>2026-03-22T15:48:16.373Z</time></trkpt><trkpt lat="45.89014" lon="8.59851"><ele>213.33333333333331</ele><time>2026-03-22T15:48:17.373Z</time></trkpt><trkpt lat="45.8903167" lon="8.59845"><ele>212.66666666666669</ele><time>2026-03-22T15:48:18.373Z</time></trkpt><trkpt lat="45.8904883" lon="8.598385"><ele>212.0</ele><time>2026-03-22T15:48:19.373Z</time></trkpt><trkpt lat="45.89066" lon="8.598325"><ele>212.0</ele><time>2026-03-22T15:48:20.373Z</time></trkpt><trkpt lat="45.8908133" lon="8.5982667"><ele>212.0</ele><time>2026-03-22T15:48:21.374Z</time></trkpt><trkpt lat="45.8909717" lon="8.5982117"><ele>212.0</ele><time>2026-03-22T15:48:22.373Z</time></trkpt><trkpt lat="45.891125" lon="8.5981733"><ele>212.33333333333334</ele><time>2026-03-22T15:48:23.373Z</time></trkpt><trkpt lat="45.8912833" lon="8.598135"><ele>212.66666666666669</ele><time>2026-03-22T15:48:24.373Z</time></trkpt><trkpt lat="45.8914367" lon="8.5981117"><ele>213.0</ele><time>2026-03-22T15:48:25.373Z</time></trkpt><trkpt lat="45.8916067" lon="8.5981133"><ele>214.33333333333331</ele><time>2026-03-22T15:48:26.373Z</time></trkpt><trkpt lat="45.89178" lon="8.5981167"><ele>215.66666666666666</ele><time>2026-03-22T15:48:27.373Z</time></trkpt><trkpt lat="45.8919617" lon="8.598115"><ele>217.0</ele><time>2026-03-22T15:48:28.373Z</time></trkpt><trkpt lat="45.8921417" lon="8.598115"><ele>217.0</ele><time>2026-03-22T15:48:29.373Z</time></trkpt><trkpt lat="45.892315" lon="8.598115"><ele>217.0</ele><time>2026-03-22T15:48:30.373Z</time></trkpt><trkpt lat="45.8924883" lon="8.59812"><ele>217.0</ele><time>2026-03-22T15:48:31.373Z</time></trkpt><trkpt lat="45.8926617" lon="8.5981267"><ele>218.66666666666666</ele><time>2026-03-22T15:48:32.373Z</time></trkpt><trkpt lat="45.8928467" lon="8.5981317"><ele>220.33333333333331</ele><time>2026-03-22T15:48:33.373Z</time></trkpt><trkpt lat="45.89302" lon="8.5981333"><ele>222.0</ele><time>2026-03-22T15:48:34.373Z</time></trkpt><trkpt lat="45.8931883" lon="8.5981367"><ele>222.0</ele><time>2026-03-22T15:48:35.373Z</time></trkpt><trkpt lat="45.8933567" lon="8.5981383"><ele>222.0</ele><time>2026-03-22T15:48:36.373Z</time></trkpt><trkpt lat="45.893525" lon="8.5981367"><ele>222.0</ele><time>2026-03-22T15:48:37.373Z</time></trkpt><trkpt lat="45.8937" lon="8.5981367"><ele>222.0</ele><time>2026-03-22T15:48:38.373Z</time></trkpt><trkpt lat="45.89387" lon="8.5981383"><ele>222.0</ele><time>2026-03-22T15:48:39.373Z</time></trkpt><trkpt lat="45.8940367" lon="8.5981417"><ele>222.0</ele><time>2026-03-22T15:48:40.373Z</time></trkpt><trkpt lat="45.8941933" lon="8.5981367"><ele>221.75</ele><time>2026-03-22T15:48:41.373Z</time></trkpt><trkpt lat="45.8943383" lon="8.59815"><ele>221.5</ele><time>2026-03-22T15:48:42.373Z</time></trkpt><trkpt lat="45.89448" lon="8.5981583"><ele>221.25</ele><time>2026-03-22T15:48:43.373Z</time></trkpt><trkpt lat="45.89463" lon="8.5981833"><ele>221.0</ele><time>2026-03-22T15:48:44.373Z</time></trkpt><trkpt lat="45.89478" lon="8.5982117"><ele>221.0</ele><time>2026-03-22T15:48:45.373Z</time></trkpt><trkpt lat="45.8949433" lon="8.5982467"><ele>221.0</ele><time>2026-03-22T15:48:46.373Z</time></trkpt><trkpt lat="45.8950983" lon="8.5983083"><ele>221.0</ele><time>2026-03-22T15:48:47.373Z</time></trkpt><trkpt lat="45.8952467" lon="8.5983617"><ele>217.66666666666669</ele><time>2026-03-22T15:48:48.373Z</time></trkpt><trkpt lat="45.8954017" lon="8.5984133"><ele>214.33333333333331</ele><time>2026-03-22T15:48:49.373Z</time></trkpt><trkpt lat="45.895555" lon="8.59847"><ele>211.0</ele><time>2026-03-22T15:48:50.373Z</time></trkpt><trkpt lat="45.8957067" lon="8.5985183"><ele>211.0</ele><time>2026-03-22T15:48:51.373Z</time></trkpt><trkpt lat="45.8958567" lon="8.5985517"><ele>211.0</ele><time>2026-03-22T15:48:52.373Z</time></trkpt><trkpt lat="45.8960083" lon="8.5985733"><ele>211.0</ele><time>2026-03-22T15:48:53.373Z</time></trkpt><trkpt lat="45.8961667" lon="8.5985667"><ele>211.0</ele><time>2026-03-22T15:48:54.373Z</time></trkpt><trkpt lat="45.8963233" lon="8.5985233"><ele>211.0</ele><time>2026-03-22T15:48:55.373Z</time></trkpt><trkpt lat="45.8964917" lon="8.5984533"><ele>211.0</ele><time>2026-03-22T15:48:56.373Z</time></trkpt><trkpt lat="45.8966617" lon="8.5983683"><ele>212.0</ele><time>2026-03-22T15:48:57.373Z</time></trkpt><trkpt lat="45.8968317" lon="8.598285"><ele>213.0</ele><time>2026-03-22T15:48:58.373Z</time></trkpt><trkpt lat="45.896985" lon="8.5982033"><ele>214.0</ele><time>2026-03-22T15:48:59.373Z</time></trkpt><trkpt lat="45.8971517" lon="8.59812"><ele>214.0</ele><time>2026-03-22T15:49:00.373Z</time></trkpt><trkpt lat="45.8973133" lon="8.5980467"><ele>214.0</ele><time>2026-03-22T15:49:01.373Z</time></trkpt><trkpt lat="45.8974733" lon="8.5979867"><ele>214.0</ele><time>2026-03-22T15:49:02.373Z</time></trkpt><trkpt lat="45.8976183" lon="8.5979283"><ele>213.25</ele><time>2026-03-22T15:49:03.373Z</time></trkpt><trkpt lat="45.8977467" lon="8.5978517"><ele>212.5</ele><time>2026-03-22T15:49:04.373Z</time></trkpt><trkpt lat="45.8978883" lon="8.5977767"><ele>211.75</ele><time>2026-03-22T15:49:05.373Z</time></trkpt><trkpt lat="45.898025" lon="8.5977083"><ele>211.0</ele><time>2026-03-22T15:49:06.373Z</time></trkpt><trkpt lat="45.898155" lon="8.5976433"><ele>211.0</ele><time>2026-03-22T15:49:07.373Z</time></trkpt><trkpt lat="45.8982917" lon="8.5975767"><ele>211.0</ele><time>2026-03-22T15:49:08.373Z</time></trkpt><trkpt lat="45.898425" lon="8.5975033"><ele>211.0</ele><time>2026-03-22T15:49:09.373Z</time></trkpt><trkpt lat="45.8985633" lon="8.5974233"><ele>211.0</ele><time>2026-03-22T15:49:10.373Z</time></trkpt><trkpt lat="45.8986983" lon="8.5973467"><ele>213.25</ele><time>2026-03-22T15:49:11.373Z</time></trkpt><trkpt lat="45.89883" lon="8.597295"><ele>215.5</ele><time>2026-03-22T15:49:12.373Z</time></trkpt><trkpt lat="45.8989517" lon="8.5972367"><ele>217.75</ele><time>2026-03-22T15:49:13.373Z</time></trkpt><trkpt lat="45.89908" lon="8.5972183"><ele>220.0</ele><time>2026-03-22T15:49:14.373Z</time></trkpt><trkpt lat="45.899205" lon="8.597225"><ele>219.5</ele><time>2026-03-22T15:49:15.373Z</time></trkpt><trkpt lat="45.8993433" lon="8.5972617"><ele>219.0</ele><time>2026-03-22T15:49:16.373Z</time></trkpt><trkpt lat="45.8994733" lon="8.5972767"><ele>218.5</ele><time>2026-03-22T15:49:17.373Z</time></trkpt><trkpt lat="45.899625" lon="8.5973367"><ele>218.0</ele><time>2026-03-22T15:49:18.373Z</time></trkpt><trkpt lat="45.8997783" lon="8.5974217"><ele>218.0</ele><time>2026-03-22T15:49:19.373Z</time></trkpt><trkpt lat="45.8999433" lon="8.5974883"><ele>218.0</ele><time>2026-03-22T15:49:20.373Z</time></trkpt><trkpt lat="45.9001083" lon="8.5975667"><ele>218.0</ele><time>2026-03-22T15:49:21.373Z</time></trkpt><trkpt lat="45.9002783" lon="8.597615"><ele>216.33333333333334</ele><time>2026-03-22T15:49:22.373Z</time></trkpt><trkpt lat="45.9004483" lon="8.5976717"><ele>214.66666666666669</ele><time>2026-03-22T15:49:23.373Z</time></trkpt><trkpt lat="45.9006167" lon="8.597735"><ele>213.0</ele><time>2026-03-22T15:49:24.373Z</time></trkpt><trkpt lat="45.9007783" lon="8.5977917"><ele>217.33333333333331</ele><time>2026-03-22T15:49:25.373Z</time></trkpt><trkpt lat="45.9009333" lon="8.5978617"><ele>221.66666666666666</ele><time>2026-03-22T15:49:26.373Z</time></trkpt><trkpt lat="45.9010917" lon="8.5979267"><ele>226.0</ele><time>2026-03-22T15:49:27.373Z</time></trkpt><trkpt lat="45.9012467" lon="8.5980017"><ele>226.0</ele><time>2026-03-22T15:49:28.373Z</time></trkpt><trkpt lat="45.901395" lon="8.598085"><ele>226.0</ele><time>2026-03-22T15:49:29.373Z</time></trkpt><trkpt lat="45.9015633" lon="8.59819"><ele>226.0</ele><time>2026-03-22T15:49:30.373Z</time></trkpt><trkpt lat="45.9017183" lon="8.59831"><ele>220.33333333333331</ele><time>2026-03-22T15:49:31.373Z</time></trkpt><trkpt lat="45.9018817" lon="8.5984217"><ele>214.66666666666669</ele><time>2026-03-22T15:49:32.373Z</time></trkpt><trkpt lat="45.9020467" lon="8.5985183"><ele>209.0</ele><time>2026-03-22T15:49:33.373Z</time></trkpt><trkpt lat="45.9021883" lon="8.5986283"><ele>214.33333333333334</ele><time>2026-03-22T15:49:34.373Z</time></trkpt><trkpt lat="45.9023317" lon="8.59874"><ele>219.66666666666669</ele><time>2026-03-22T15:49:35.373Z</time></trkpt><trkpt lat="45.90247" lon="8.5988383"><ele>225.0</ele><time>2026-03-22T15:49:36.373Z</time></trkpt><trkpt lat="45.90261" lon="8.59892"><ele>225.0</ele><time>2026-03-22T15:49:37.373Z</time></trkpt><trkpt lat="45.9027583" lon="8.5989567"><ele>225.0</ele><time>2026-03-22T15:49:38.373Z</time></trkpt><trkpt lat="45.9029133" lon="8.59895"><ele>225.0</ele><time>2026-03-22T15:49:39.373Z</time></trkpt><trkpt lat="45.9030917" lon="8.5989367"><ele>225.0</ele><time>2026-03-22T15:49:40.373Z</time></trkpt><trkpt lat="45.9032583" lon="8.5988983"><ele>225.0</ele><time>2026-03-22T15:49:41.373Z</time></trkpt><trkpt lat="45.903415" lon="8.5988733"><ele>225.0</ele><time>2026-03-22T15:49:42.373Z</time></trkpt><trkpt lat="45.9035633" lon="8.5988433"><ele>224.0</ele><time>2026-03-22T15:49:43.373Z</time></trkpt><trkpt lat="45.9036933" lon="8.5988267"><ele>223.0</ele><time>2026-03-22T15:49:44.373Z</time></trkpt><trkpt lat="45.9038167" lon="8.59884"><ele>222.0</ele><time>2026-03-22T15:49:45.373Z</time></trkpt><trkpt lat="45.9039367" lon="8.5988833"><ele>221.0</ele><time>2026-03-22T15:49:46.373Z</time></trkpt><trkpt lat="45.9040683" lon="8.5989667"><ele>221.0</ele><time>2026-03-22T15:49:47.373Z</time></trkpt><trkpt lat="45.9042133" lon="8.5990517"><ele>221.0</ele><time>2026-03-22T15:49:48.373Z</time></trkpt><trkpt lat="45.9043417" lon="8.5991267"><ele>221.0</ele><time>2026-03-22T15:49:49.373Z</time></trkpt><trkpt lat="45.90447" lon="8.5992"><ele>221.0</ele><time>2026-03-22T15:49:50.373Z</time></trkpt><trkpt lat="45.9045867" lon="8.5992783"><ele>221.33333333333334</ele><time>2026-03-22T15:49:51.373Z</time></trkpt><trkpt lat="45.9047067" lon="8.59939"><ele>221.66666666666669</ele><time>2026-03-22T15:49:52.373Z</time></trkpt><trkpt lat="45.9048383" lon="8.5995283"><ele>222.0</ele><time>2026-03-22T15:49:53.373Z</time></trkpt><trkpt lat="45.9049717" lon="8.5996767"><ele>217.66666666666669</ele><time>2026-03-22T15:49:54.373Z</time></trkpt><trkpt lat="45.905105" lon="8.599825"><ele>213.33333333333334</ele><time>2026-03-22T15:49:55.373Z</time></trkpt><trkpt lat="45.9052333" lon="8.5999633"><ele>209.0</ele><time>2026-03-22T15:49:56.373Z</time></trkpt><trkpt lat="45.90534" lon="8.60011"><ele>209.0</ele><time>2026-03-22T15:49:57.373Z</time></trkpt><trkpt lat="45.9054233" lon="8.600255"><ele>209.0</ele><time>2026-03-22T15:49:58.373Z</time></trkpt><trkpt lat="45.905485" lon="8.600425"><ele>209.0</ele><time>2026-03-22T15:49:59.373Z</time></trkpt><trkpt lat="45.9055217" lon="8.6006283"><ele>209.0</ele><time>2026-03-22T15:50:00.373Z</time></trkpt><trkpt lat="45.9055583" lon="8.6008167"><ele>211.0</ele><time>2026-03-22T15:50:01.373Z</time></trkpt><trkpt lat="45.905585" lon="8.6010017"><ele>213.0</ele><time>2026-03-22T15:50:02.373Z</time></trkpt><trkpt lat="45.905605" lon="8.6011967"><ele>215.0</ele><time>2026-03-22T15:50:03.373Z</time></trkpt><trkpt lat="45.9056083" lon="8.60139"><ele>217.0</ele><time>2026-03-22T15:50:04.373Z</time></trkpt><trkpt lat="45.905615" lon="8.6015883"><ele>217.0</ele><time>2026-03-22T15:50:05.373Z</time></trkpt><trkpt lat="45.9056183" lon="8.60178"><ele>217.0</ele><time>2026-03-22T15:50:06.373Z</time></trkpt><trkpt lat="45.9056333" lon="8.601955"><ele>217.0</ele><time>2026-03-22T15:50:07.373Z</time></trkpt><trkpt lat="45.9056517" lon="8.6021217"><ele>217.0</ele><time>2026-03-22T15:50:08.373Z</time></trkpt><trkpt lat="45.9056733" lon="8.6022883"><ele>218.25</ele><time>2026-03-22T15:50:09.373Z</time></trkpt><trkpt lat="45.905705" lon="8.6024533"><ele>219.5</ele><time>2026-03-22T15:50:10.373Z</time></trkpt><trkpt lat="45.905745" lon="8.6026183"><ele>220.75</ele><time>2026-03-22T15:50:11.373Z</time></trkpt><trkpt lat="45.90579" lon="8.6027767"><ele>222.0</ele><time>2026-03-22T15:50:12.373Z</time></trkpt><trkpt lat="45.905835" lon="8.6029267"><ele>222.5</ele><time>2026-03-22T15:50:13.373Z</time></trkpt><trkpt lat="45.905885" lon="8.6030717"><ele>223.0</ele><time>2026-03-22T15:50:14.373Z</time></trkpt><trkpt lat="45.9059483" lon="8.60321"><ele>223.5</ele><time>2026-03-22T15:50:15.373Z</time></trkpt><trkpt lat="45.90601" lon="8.6033417"><ele>224.0</ele><time>2026-03-22T15:50:16.373Z</time></trkpt><trkpt lat="45.9060817" lon="8.6034733"><ele>221.25</ele><time>2026-03-22T15:50:17.373Z</time></trkpt><trkpt lat="45.9061567" lon="8.6036033"><ele>218.5</ele><time>2026-03-22T15:50:18.373Z</time></trkpt><trkpt lat="45.906225" lon="8.6037383"><ele>215.75</ele><time>2026-03-22T15:50:19.373Z</time></trkpt><trkpt lat="45.90629" lon="8.60388"><ele>213.0</ele><time>2026-03-22T15:50:20.373Z</time></trkpt><trkpt lat="45.9063567" lon="8.6040383"><ele>213.0</ele><time>2026-03-22T15:50:21.373Z</time></trkpt><trkpt lat="45.9064133" lon="8.60421"><ele>213.0</ele><time>2026-03-22T15:50:22.373Z</time></trkpt><trkpt lat="45.9064583" lon="8.6043917"><ele>213.0</ele><time>2026-03-22T15:50:23.373Z</time></trkpt><trkpt lat="45.9065117" lon="8.6045783"><ele>213.0</ele><time>2026-03-22T15:50:24.373Z</time></trkpt><trkpt lat="45.9065517" lon="8.6047583"><ele>213.5</ele><time>2026-03-22T15:50:25.373Z</time></trkpt><trkpt lat="45.9065733" lon="8.6049333"><ele>214.0</ele><time>2026-03-22T15:50:26.373Z</time></trkpt><trkpt lat="45.90659" lon="8.6051133"><ele>214.5</ele><time>2026-03-22T15:50:27.374Z</time></trkpt><trkpt lat="45.9066117" lon="8.60528"><ele>215.0</ele><time>2026-03-22T15:50:28.373Z</time></trkpt><trkpt lat="45.9066317" lon="8.6054317"><ele>216.4</ele><time>2026-03-22T15:50:29.373Z</time></trkpt><trkpt lat="45.906655" lon="8.6055717"><ele>217.8</ele><time>2026-03-22T15:50:30.373Z</time></trkpt><trkpt lat="45.906675" lon="8.6057067"><ele>219.2</ele><time>2026-03-22T15:50:31.373Z</time></trkpt><trkpt lat="45.9066917" lon="8.6058483"><ele>220.6</ele><time>2026-03-22T15:50:32.373Z</time></trkpt><trkpt lat="45.906695" lon="8.6059967"><ele>222.0</ele><time>2026-03-22T15:50:33.373Z</time></trkpt><trkpt lat="45.9066833" lon="8.6061517"><ele>221.0</ele><time>2026-03-22T15:50:34.373Z</time></trkpt><trkpt lat="45.906645" lon="8.6063117"><ele>220.0</ele><time>2026-03-22T15:50:35.373Z</time></trkpt><trkpt lat="45.9065933" lon="8.6064767"><ele>219.0</ele><time>2026-03-22T15:50:36.373Z</time></trkpt><trkpt lat="45.9065267" lon="8.60664"><ele>218.0</ele><time>2026-03-22T15:50:37.373Z</time></trkpt><trkpt lat="45.906465" lon="8.6067833"><ele>218.0</ele><time>2026-03-22T15:50:38.373Z</time></trkpt><trkpt lat="45.9064017" lon="8.6069283"><ele>218.0</ele><time>2026-03-22T15:50:39.373Z</time></trkpt><trkpt lat="45.9063533" lon="8.6070833"><ele>218.0</ele><time>2026-03-22T15:50:40.373Z</time></trkpt><trkpt lat="45.9063017" lon="8.6072583"><ele>218.0</ele><time>2026-03-22T15:50:41.373Z</time></trkpt><trkpt lat="45.90627" lon="8.6074567"><ele>217.25</ele><time>2026-03-22T15:50:42.373Z</time></trkpt><trkpt lat="45.9062583" lon="8.60765"><ele>216.5</ele><time>2026-03-22T15:50:43.373Z</time></trkpt><trkpt lat="45.9062667" lon="8.6078467"><ele>215.75</ele><time>2026-03-22T15:50:44.373Z</time></trkpt><trkpt lat="45.90629" lon="8.6080333"><ele>215.0</ele><time>2026-03-22T15:50:45.373Z</time></trkpt><trkpt lat="45.9063067" lon="8.6082217"><ele>213.75</ele><time>2026-03-22T15:50:46.373Z</time></trkpt><trkpt lat="45.906325" lon="8.6084067"><ele>212.5</ele><time>2026-03-22T15:50:47.373Z</time></trkpt><trkpt lat="45.9063383" lon="8.6085933"><ele>211.25</ele><time>2026-03-22T15:50:48.373Z</time></trkpt><trkpt lat="45.9063583" lon="8.6087733"><ele>210.0</ele><time>2026-03-22T15:50:49.373Z</time></trkpt><trkpt lat="45.9063767" lon="8.6089517"><ele>209.75</ele><time>2026-03-22T15:50:50.373Z</time></trkpt><trkpt lat="45.906405" lon="8.609135"><ele>209.5</ele><time>2026-03-22T15:50:51.373Z</time></trkpt><trkpt lat="45.9064367" lon="8.6093117"><ele>209.25</ele><time>2026-03-22T15:50:52.373Z</time></trkpt><trkpt lat="45.9064633" lon="8.6094867"><ele>209.0</ele><time>2026-03-22T15:50:53.373Z</time></trkpt><trkpt lat="45.906485" lon="8.60966"><ele>210.75</ele><time>2026-03-22T15:50:54.373Z</time></trkpt><trkpt lat="45.9065" lon="8.6098467"><ele>212.5</ele><time>2026-03-22T15:50:55.373Z</time></trkpt><trkpt lat="45.9065017" lon="8.61005"><ele>214.25</ele><time>2026-03-22T15:50:56.373Z</time></trkpt><trkpt lat="45.9064933" lon="8.6102433"><ele>216.0</ele><time>2026-03-22T15:50:57.373Z</time></trkpt><trkpt lat="45.9064817" lon="8.61044"><ele>216.25</ele><time>2026-03-22T15:50:58.373Z</time></trkpt><trkpt lat="45.9064917" lon="8.6106317"><ele>216.5</ele><time>2026-03-22T15:50:59.373Z</time></trkpt><trkpt lat="45.9065133" lon="8.6108183"><ele>216.75</ele><time>2026-03-22T15:51:00.373Z</time></trkpt><trkpt lat="45.9065283" lon="8.6110217"><ele>217.0</ele><time>2026-03-22T15:51:01.373Z</time></trkpt><trkpt lat="45.90653" lon="8.6112467"><ele>215.33333333333331</ele><time>2026-03-22T15:51:02.373Z</time></trkpt><trkpt lat="45.9065333" lon="8.611505"><ele>213.66666666666669</ele><time>2026-03-22T15:51:03.373Z</time></trkpt><trkpt lat="45.9065267" lon="8.6117967"><ele>212.0</ele><time>2026-03-22T15:51:04.373Z</time></trkpt><trkpt lat="45.906505" lon="8.61208"><ele>209.66666666666669</ele><time>2026-03-22T15:51:05.373Z</time></trkpt><trkpt lat="45.9064726" lon="8.6123494"><ele>207.33333333333331</ele><time>2026-03-22T15:51:06.373Z</time></trkpt><trkpt lat="45.9064444" lon="8.6125997"><ele>205.0</ele><time>2026-03-22T15:51:07.373Z</time></trkpt><trkpt lat="45.9064319" lon="8.6128282"><ele>205.0</ele><time>2026-03-22T15:51:08.373Z</time></trkpt><trkpt lat="45.9064333" lon="8.6130435"><ele>205.0</ele><time>2026-03-22T15:51:09.374Z</time></trkpt><trkpt lat="45.9064615" lon="8.6132378"><ele>205.0</ele><time>2026-03-22T15:51:10.373Z</time></trkpt><trkpt lat="45.9065021" lon="8.6134305"><ele>205.0</ele><time>2026-03-22T15:51:11.373Z</time></trkpt><trkpt lat="45.9065595" lon="8.6136194"><ele>203.5</ele><time>2026-03-22T15:51:12.373Z</time></trkpt><trkpt lat="45.9066364" lon="8.6138076"><ele>202.0</ele><time>2026-03-22T15:51:13.373Z</time></trkpt><trkpt lat="45.9067353" lon="8.6139665"><ele>200.5</ele><time>2026-03-22T15:51:14.373Z</time></trkpt><trkpt lat="45.9068484" lon="8.6140998"><ele>199.0</ele><time>2026-03-22T15:51:15.373Z</time></trkpt><trkpt lat="45.9069633" lon="8.6142064"><ele>199.0</ele><time>2026-03-22T15:51:16.373Z</time></trkpt><trkpt lat="45.907075" lon="8.6143005"><ele>199.0</ele><time>2026-03-22T15:51:17.373Z</time></trkpt><trkpt lat="45.9071696" lon="8.6143947"><ele>199.0</ele><time>2026-03-22T15:51:18.373Z</time></trkpt><trkpt lat="45.9072463" lon="8.6144953"><ele>199.0</ele><time>2026-03-22T15:51:19.373Z</time></trkpt><trkpt lat="45.9073145" lon="8.6146105"><ele>200.0</ele><time>2026-03-22T15:51:20.373Z</time></trkpt><trkpt lat="45.9073594" lon="8.61475"><ele>201.0</ele><time>2026-03-22T15:51:21.373Z</time></trkpt><trkpt lat="45.9073762" lon="8.614912"><ele>202.0</ele><time>2026-03-22T15:51:22.373Z</time></trkpt><trkpt lat="45.9073612" lon="8.6150841"><ele>203.0</ele><time>2026-03-22T15:51:23.373Z</time></trkpt><trkpt lat="45.9073234" lon="8.6152727"><ele>201.25</ele><time>2026-03-22T15:51:24.373Z</time></trkpt><trkpt lat="45.9072803" lon="8.6154661"><ele>199.5</ele><time>2026-03-22T15:51:25.373Z</time></trkpt><trkpt lat="45.9072271" lon="8.6156467"><ele>197.75</ele><time>2026-03-22T15:51:26.373Z</time></trkpt><trkpt lat="45.9071744" lon="8.6158119"><ele>196.0</ele><time>2026-03-22T15:51:27.373Z</time></trkpt><trkpt lat="45.9071234" lon="8.6159584"><ele>196.0</ele><time>2026-03-22T15:51:28.373Z</time></trkpt><trkpt lat="45.9070706" lon="8.6160891"><ele>196.0</ele><time>2026-03-22T15:51:29.373Z</time></trkpt><trkpt lat="45.9070027" lon="8.6161992"><ele>196.0</ele><time>2026-03-22T15:51:30.373Z</time></trkpt><trkpt lat="45.9069173" lon="8.6162982"><ele>196.0</ele><time>2026-03-22T15:51:31.373Z</time></trkpt><trkpt lat="45.9068186" lon="8.6163959"><ele>196.0</ele><time>2026-03-22T15:51:32.373Z</time></trkpt><trkpt lat="45.9067065" lon="8.6165065"><ele>197.0</ele><time>2026-03-22T15:51:33.373Z</time></trkpt><trkpt lat="45.9065942" lon="8.6166296"><ele>198.0</ele><time>2026-03-22T15:51:34.373Z</time></trkpt><trkpt lat="45.9064809" lon="8.6167643"><ele>199.0</ele><time>2026-03-22T15:51:35.373Z</time></trkpt><trkpt lat="45.906376" lon="8.6169236"><ele>200.0</ele><time>2026-03-22T15:51:36.373Z</time></trkpt><trkpt lat="45.9062853" lon="8.6170848"><ele>200.0</ele><time>2026-03-22T15:51:37.373Z</time></trkpt><trkpt lat="45.9062082" lon="8.6172556"><ele>200.0</ele><time>2026-03-22T15:51:38.373Z</time></trkpt><trkpt lat="45.9061422" lon="8.6174303"><ele>200.0</ele><time>2026-03-22T15:51:39.373Z</time></trkpt><trkpt lat="45.9060843" lon="8.6176084"><ele>200.0</ele><time>2026-03-22T15:51:40.373Z</time></trkpt><trkpt lat="45.9060215" lon="8.617789"><ele>201.0</ele><time>2026-03-22T15:51:41.373Z</time></trkpt><trkpt lat="45.905963" lon="8.617957"><ele>202.0</ele><time>2026-03-22T15:51:42.373Z</time></trkpt><trkpt lat="45.9059141" lon="8.6181096"><ele>203.0</ele><time>2026-03-22T15:51:43.373Z</time></trkpt><trkpt lat="45.9058767" lon="8.6182527"><ele>204.0</ele><time>2026-03-22T15:51:44.373Z</time></trkpt><trkpt lat="45.9058464" lon="8.618393"><ele>203.6</ele><time>2026-03-22T15:51:45.373Z</time></trkpt><trkpt lat="45.9058252" lon="8.6185164"><ele>203.2</ele><time>2026-03-22T15:51:46.373Z</time></trkpt><trkpt lat="45.9058137" lon="8.6186163"><ele>202.79999999999998</ele><time>2026-03-22T15:51:47.373Z</time></trkpt><trkpt lat="45.9057917" lon="8.6187583"><ele>202.39999999999998</ele><time>2026-03-22T15:51:49.373Z</time></trkpt><trkpt lat="45.9057617" lon="8.618895"><ele>202.0</ele><time>2026-03-22T15:51:51.373Z</time></trkpt><trkpt lat="45.9058017" lon="8.619025"><ele>202.0</ele><time>2026-03-22T15:51:53.373Z</time></trkpt><trkpt lat="45.9058433" lon="8.6190967"><ele>202.0</ele><time>2026-03-22T15:51:54.373Z</time></trkpt><trkpt lat="45.9058967" lon="8.6191867"><ele>202.0</ele><time>2026-03-22T15:51:55.373Z</time></trkpt><trkpt lat="45.9059633" lon="8.6193017"><ele>202.0</ele><time>2026-03-22T15:51:56.373Z</time></trkpt><trkpt lat="45.9060183" lon="8.6194267"><ele>202.0</ele><time>2026-03-22T15:51:57.373Z</time></trkpt><trkpt lat="45.9060767" lon="8.6195617"><ele>201.25</ele><time>2026-03-22T15:51:58.373Z</time></trkpt><trkpt lat="45.90614" lon="8.6197133"><ele>200.5</ele><time>2026-03-22T15:51:59.373Z</time></trkpt><trkpt lat="45.9062033" lon="8.6198483"><ele>199.75</ele><time>2026-03-22T15:52:00.373Z</time></trkpt><trkpt lat="45.9062767" lon="8.6199833"><ele>199.0</ele><time>2026-03-22T15:52:01.373Z</time></trkpt><trkpt lat="45.9063567" lon="8.620115"><ele>199.0</ele><time>2026-03-22T15:52:02.373Z</time></trkpt><trkpt lat="45.906445" lon="8.6202383"><ele>199.0</ele><time>2026-03-22T15:52:03.373Z</time></trkpt><trkpt lat="45.9065267" lon="8.6203567"><ele>199.0</ele><time>2026-03-22T15:52:04.373Z</time></trkpt><trkpt lat="45.9066183" lon="8.6204683"><ele>199.0</ele><time>2026-03-22T15:52:05.373Z</time></trkpt><trkpt lat="45.9067167" lon="8.620565"><ele>199.25</ele><time>2026-03-22T15:52:06.373Z</time></trkpt><trkpt lat="45.90682" lon="8.6206633"><ele>199.5</ele><time>2026-03-22T15:52:07.373Z</time></trkpt><trkpt lat="45.9069217" lon="8.620755"><ele>199.75</ele><time>2026-03-22T15:52:08.373Z</time></trkpt><trkpt lat="45.90702" lon="8.6208367"><ele>200.0</ele><time>2026-03-22T15:52:09.373Z</time></trkpt><trkpt lat="45.9071083" lon="8.620905"><ele>200.00000000000003</ele><time>2026-03-22T15:52:10.373Z</time></trkpt><trkpt lat="45.90719" lon="8.6209683"><ele>200.0</ele><time>2026-03-22T15:52:11.373Z</time></trkpt><trkpt lat="45.9072717" lon="8.6210383"><ele>200.0</ele><time>2026-03-22T15:52:12.373Z</time></trkpt><trkpt lat="45.9073467" lon="8.6211067"><ele>200.0</ele><time>2026-03-22T15:52:13.373Z</time></trkpt><trkpt lat="45.9074183" lon="8.621165"><ele>200.00000000000003</ele><time>2026-03-22T15:52:14.373Z</time></trkpt><trkpt lat="45.907495" lon="8.6211983"><ele>200.0</ele><time>2026-03-22T15:52:15.373Z</time></trkpt><trkpt lat="45.90756" lon="8.6211967"><ele>200.2</ele><time>2026-03-22T15:52:16.373Z</time></trkpt><trkpt lat="45.9076233" lon="8.62115"><ele>200.4</ele><time>2026-03-22T15:52:17.373Z</time></trkpt><trkpt lat="45.9076833" lon="8.621055"><ele>200.60000000000002</ele><time>2026-03-22T15:52:18.373Z</time></trkpt><trkpt lat="45.9077467" lon="8.6209217"><ele>200.8</ele><time>2026-03-22T15:52:19.373Z</time></trkpt><trkpt lat="45.9078217" lon="8.6207767"><ele>201.0</ele><time>2026-03-22T15:52:20.373Z</time></trkpt><trkpt lat="45.9078967" lon="8.62063"><ele>201.0</ele><time>2026-03-22T15:52:21.373Z</time></trkpt><trkpt lat="45.907965" lon="8.6204933"><ele>201.0</ele><time>2026-03-22T15:52:22.373Z</time></trkpt><trkpt lat="45.9080283" lon="8.6203467"><ele>201.0</ele><time>2026-03-22T15:52:23.374Z</time></trkpt><trkpt lat="45.908095" lon="8.6202017"><ele>201.0</ele><time>2026-03-22T15:52:24.373Z</time></trkpt><trkpt lat="45.9081583" lon="8.6200683"><ele>201.0</ele><time>2026-03-22T15:52:25.373Z</time></trkpt><trkpt lat="45.90822" lon="8.6199333"><ele>201.0</ele><time>2026-03-22T15:52:26.373Z</time></trkpt><trkpt lat="45.908275" lon="8.6198083"><ele>201.0</ele><time>2026-03-22T15:52:27.373Z</time></trkpt><trkpt lat="45.9083283" lon="8.6196867"><ele>201.0</ele><time>2026-03-22T15:52:28.373Z</time></trkpt><trkpt lat="45.90838" lon="8.6195733"><ele>201.0</ele><time>2026-03-22T15:52:29.373Z</time></trkpt><trkpt lat="45.9084233" lon="8.6194767"><ele>201.0</ele><time>2026-03-22T15:52:30.373Z</time></trkpt><trkpt lat="45.9084633" lon="8.6193983"><ele>201.0</ele><time>2026-03-22T15:52:31.373Z</time></trkpt><trkpt lat="45.908515" lon="8.6193117"><ele>201.0</ele><time>2026-03-22T15:52:33.373Z</time></trkpt><trkpt lat="45.9085633" lon="8.6193717"><ele>201.0</ele><time>2026-03-22T15:52:37.373Z</time></trkpt><trkpt lat="45.90853" lon="8.6194583"><ele>201.0</ele><time>2026-03-22T15:52:39.373Z</time></trkpt><trkpt lat="45.908485" lon="8.619525"><ele>201.0</ele><time>2026-03-22T15:52:40.373Z</time></trkpt><trkpt lat="45.9084367" lon="8.619625"><ele>201.0</ele><time>2026-03-22T15:52:41.373Z</time></trkpt><trkpt lat="45.9083817" lon="8.6197433"><ele>201.0</ele><time>2026-03-22T15:52:42.373Z</time></trkpt><trkpt lat="45.9083217" lon="8.6198717"><ele>201.0</ele><time>2026-03-22T15:52:43.373Z</time></trkpt><trkpt lat="45.9082667" lon="8.6199983"><ele>201.0</ele><time>2026-03-22T15:52:44.373Z</time></trkpt><trkpt lat="45.9082083" lon="8.6201333"><ele>201.0</ele><time>2026-03-22T15:52:45.373Z</time></trkpt><trkpt lat="45.9081417" lon="8.6202617"><ele>201.0</ele><time>2026-03-22T15:52:46.373Z</time></trkpt><trkpt lat="45.908075" lon="8.6203967"><ele>201.0</ele><time>2026-03-22T15:52:47.373Z</time></trkpt><trkpt lat="45.908015" lon="8.6205183"><ele>201.0</ele><time>2026-03-22T15:52:48.373Z</time></trkpt><trkpt lat="45.9079633" lon="8.62062"><ele>201.0</ele><time>2026-03-22T15:52:49.373Z</time></trkpt><trkpt lat="45.9079117" lon="8.6207083"><ele>201.0</ele><time>2026-03-22T15:52:50.373Z</time></trkpt><trkpt lat="45.9078667" lon="8.6207817"><ele>201.0</ele><time>2026-03-22T15:52:51.373Z</time></trkpt><trkpt lat="45.907825" lon="8.6208517"><ele>201.0</ele><time>2026-03-22T15:52:52.373Z</time></trkpt><trkpt lat="45.9077483" lon="8.6210033"><ele>201.0</ele><time>2026-03-22T15:52:54.373Z</time></trkpt><trkpt lat="45.9077067" lon="8.6210933"><ele>201.0</ele><time>2026-03-22T15:52:55.373Z</time></trkpt><trkpt lat="45.90766" lon="8.6211833"><ele>201.0</ele><time>2026-03-22T15:52:56.373Z</time></trkpt><trkpt lat="45.9076167" lon="8.6212767"><ele>201.0</ele><time>2026-03-22T15:52:57.373Z</time></trkpt><trkpt lat="45.90759" lon="8.6213767"><ele>201.0</ele><time>2026-03-22T15:52:58.373Z</time></trkpt><trkpt lat="45.9075533" lon="8.6214683"><ele>201.0</ele><time>2026-03-22T15:52:59.373Z</time></trkpt><trkpt lat="45.907515" lon="8.6215433"><ele>201.0</ele><time>2026-03-22T15:53:00.373Z</time></trkpt><trkpt lat="45.907455" lon="8.6216933"><ele>201.33333333333334</ele><time>2026-03-22T15:53:02.373Z</time></trkpt><trkpt lat="45.9073867" lon="8.62185"><ele>201.66666666666669</ele><time>2026-03-22T15:53:04.373Z</time></trkpt><trkpt lat="45.907355" lon="8.6219333"><ele>202.0</ele><time>2026-03-22T15:53:05.373Z</time></trkpt><trkpt lat="45.90732" lon="8.6220133"><ele>202.33333333333334</ele><time>2026-03-22T15:53:06.373Z</time></trkpt><trkpt lat="45.9072683" lon="8.6220833"><ele>202.66666666666669</ele><time>2026-03-22T15:53:07.373Z</time></trkpt><trkpt lat="45.9072267" lon="8.6221633"><ele>203.0</ele><time>2026-03-22T15:53:08.373Z</time></trkpt><trkpt lat="45.907195" lon="8.6222433"><ele>203.00000000000003</ele><time>2026-03-22T15:53:09.373Z</time></trkpt><trkpt lat="45.9071517" lon="8.622315"><ele>203.0</ele><time>2026-03-22T15:53:10.373Z</time></trkpt><trkpt lat="45.9070433" lon="8.6223983"><ele>203.0</ele><time>2026-03-22T15:53:12.373Z</time></trkpt><trkpt lat="45.906965" lon="8.6224233"><ele>203.0</ele><time>2026-03-22T15:53:13.373Z</time></trkpt><trkpt lat="45.9068983" lon="8.6224667"><ele>203.00000000000003</ele><time>2026-03-22T15:53:14.373Z</time></trkpt><trkpt lat="45.90683" lon="8.6225483"><ele>203.0</ele><time>2026-03-22T15:53:15.373Z</time></trkpt><trkpt lat="45.906775" lon="8.62265"><ele>202.8</ele><time>2026-03-22T15:53:16.373Z</time></trkpt><trkpt lat="45.90672" lon="8.622755"><ele>202.60000000000002</ele><time>2026-03-22T15:53:17.373Z</time></trkpt><trkpt lat="45.9066583" lon="8.62287"><ele>202.39999999999998</ele><time>2026-03-22T15:53:18.373Z</time></trkpt><trkpt lat="45.90659" lon="8.62299"><ele>202.2</ele><time>2026-03-22T15:53:19.373Z</time></trkpt><trkpt lat="45.9065233" lon="8.623115"><ele>202.0</ele><time>2026-03-22T15:53:20.373Z</time></trkpt><trkpt lat="45.9064583" lon="8.6232417"><ele>201.8</ele><time>2026-03-22T15:53:21.373Z</time></trkpt><trkpt lat="45.9063917" lon="8.6233667"><ele>201.6</ele><time>2026-03-22T15:53:22.373Z</time></trkpt><trkpt lat="45.9063267" lon="8.6234817"><ele>201.4</ele><time>2026-03-22T15:53:23.373Z</time></trkpt><trkpt lat="45.9062667" lon="8.623575"><ele>201.20000000000002</ele><time>2026-03-22T15:53:24.373Z</time></trkpt><trkpt lat="45.9062117" lon="8.623675"><ele>201.0</ele><time>2026-03-22T15:53:25.373Z</time></trkpt><trkpt lat="45.9061633" lon="8.623775"><ele>201.60000000000002</ele><time>2026-03-22T15:53:26.373Z</time></trkpt><trkpt lat="45.9061117" lon="8.6238733"><ele>202.2</ele><time>2026-03-22T15:53:27.373Z</time></trkpt><trkpt lat="45.9060567" lon="8.6239767"><ele>202.8</ele><time>2026-03-22T15:53:28.373Z</time></trkpt><trkpt lat="45.9060033" lon="8.6240817"><ele>203.39999999999998</ele><time>2026-03-22T15:53:29.373Z</time></trkpt><trkpt lat="45.9059483" lon="8.62419"><ele>204.0</ele><time>2026-03-22T15:53:30.373Z</time></trkpt><trkpt lat="45.90589" lon="8.6242967"><ele>204.0</ele><time>2026-03-22T15:53:31.373Z</time></trkpt><trkpt lat="45.90583" lon="8.6244133"><ele>204.0</ele><time>2026-03-22T15:53:32.373Z</time></trkpt><trkpt lat="45.9057667" lon="8.624525"><ele>204.0</ele><time>2026-03-22T15:53:33.373Z</time></trkpt><trkpt lat="45.9057067" lon="8.624605"><ele>204.0</ele><time>2026-03-22T15:53:34.373Z</time></trkpt><trkpt lat="45.90564" lon="8.6247017"><ele>204.0</ele><time>2026-03-22T15:53:35.373Z</time></trkpt><trkpt lat="45.9055783" lon="8.6248067"><ele>205.0</ele><time>2026-03-22T15:53:36.373Z</time></trkpt><trkpt lat="45.9055" lon="8.624905"><ele>206.0</ele><time>2026-03-22T15:53:37.373Z</time></trkpt><trkpt lat="45.9054317" lon="8.6250067"><ele>207.0</ele><time>2026-03-22T15:53:38.373Z</time></trkpt><trkpt lat="45.9053617" lon="8.625115"><ele>208.0</ele><time>2026-03-22T15:53:39.373Z</time></trkpt><trkpt lat="45.9052867" lon="8.62522"><ele>209.0</ele><time>2026-03-22T15:53:40.373Z</time></trkpt><trkpt lat="45.9052083" lon="8.6253367"><ele>209.25</ele><time>2026-03-22T15:53:41.373Z</time></trkpt><trkpt lat="45.9051267" lon="8.6254533"><ele>209.5</ele><time>2026-03-22T15:53:42.373Z</time></trkpt><trkpt lat="45.9050533" lon="8.6255867"><ele>209.75</ele><time>2026-03-22T15:53:43.373Z</time></trkpt><trkpt lat="45.9049733" lon="8.6257283"><ele>210.0</ele><time>2026-03-22T15:53:44.373Z</time></trkpt><trkpt lat="45.9048833" lon="8.6258817"><ele>210.0</ele><time>2026-03-22T15:53:45.373Z</time></trkpt><trkpt lat="45.90479" lon="8.626055"><ele>210.0</ele><time>2026-03-22T15:53:46.373Z</time></trkpt><trkpt lat="45.9046983" lon="8.6262267"><ele>210.0</ele><time>2026-03-22T15:53:47.373Z</time></trkpt><trkpt lat="45.9046117" lon="8.6263733"><ele>210.0</ele><time>2026-03-22T15:53:48.373Z</time></trkpt><trkpt lat="45.9045367" lon="8.6265167"><ele>212.25</ele><time>2026-03-22T15:53:49.373Z</time></trkpt><trkpt lat="45.904465" lon="8.6266633"><ele>214.5</ele><time>2026-03-22T15:53:50.373Z</time></trkpt><trkpt lat="45.904415" lon="8.6268317"><ele>216.75</ele><time>2026-03-22T15:53:51.373Z</time></trkpt><trkpt lat="45.9043867" lon="8.6270067"><ele>219.0</ele><time>2026-03-22T15:53:52.373Z</time></trkpt><trkpt lat="45.9043917" lon="8.6271933"><ele>221.25</ele><time>2026-03-22T15:53:53.373Z</time></trkpt><trkpt lat="45.904415" lon="8.6273867"><ele>223.5</ele><time>2026-03-22T15:53:54.373Z</time></trkpt><trkpt lat="45.9044633" lon="8.6275867"><ele>225.75</ele><time>2026-03-22T15:53:55.373Z</time></trkpt><trkpt lat="45.9045183" lon="8.6277917"><ele>228.0</ele><time>2026-03-22T15:53:56.373Z</time></trkpt><trkpt lat="45.90457" lon="8.6280117"><ele>229.33333333333331</ele><time>2026-03-22T15:53:57.373Z</time></trkpt><trkpt lat="45.9046167" lon="8.6282283"><ele>230.66666666666666</ele><time>2026-03-22T15:53:58.373Z</time></trkpt><trkpt lat="45.904645" lon="8.6284467"><ele>232.0</ele><time>2026-03-22T15:53:59.373Z</time></trkpt><trkpt lat="45.9046667" lon="8.628675"><ele>233.33333333333331</ele><time>2026-03-22T15:54:00.373Z</time></trkpt><trkpt lat="45.9046717" lon="8.6289183"><ele>234.66666666666669</ele><time>2026-03-22T15:54:01.373Z</time></trkpt><trkpt lat="45.904665" lon="8.62918"><ele>236.0</ele><time>2026-03-22T15:54:02.373Z</time></trkpt><trkpt lat="45.9046567" lon="8.62945"><ele>236.66666666666669</ele><time>2026-03-22T15:54:03.373Z</time></trkpt><trkpt lat="45.9046317" lon="8.62971"><ele>237.33333333333331</ele><time>2026-03-22T15:54:04.373Z</time></trkpt><trkpt lat="45.9046133" lon="8.6299533"><ele>238.0</ele><time>2026-03-22T15:54:05.373Z</time></trkpt><trkpt lat="45.90458" lon="8.6301917"><ele>239.0</ele><time>2026-03-22T15:54:06.373Z</time></trkpt><trkpt lat="45.9045533" lon="8.6304267"><ele>240.0</ele><time>2026-03-22T15:54:07.373Z</time></trkpt><trkpt lat="45.904495" lon="8.63066"><ele>241.0</ele><time>2026-03-22T15:54:08.373Z</time></trkpt><trkpt lat="45.9044333" lon="8.63089"><ele>241.0</ele><time>2026-03-22T15:54:09.373Z</time></trkpt><trkpt lat="45.904335" lon="8.6311133"><ele>241.0</ele><time>2026-03-22T15:54:10.373Z</time></trkpt><trkpt lat="45.90423" lon="8.6313267"><ele>241.0</ele><time>2026-03-22T15:54:11.373Z</time></trkpt><trkpt lat="45.9041283" lon="8.6315383"><ele>236.66666666666666</ele><time>2026-03-22T15:54:12.373Z</time></trkpt><trkpt lat="45.9040283" lon="8.6317517"><ele>232.33333333333331</ele><time>2026-03-22T15:54:13.373Z</time></trkpt><trkpt lat="45.9039317" lon="8.6319567"><ele>228.0</ele><time>2026-03-22T15:54:14.373Z</time></trkpt><trkpt lat="45.9038183" lon="8.63213"><ele>237.0</ele><time>2026-03-22T15:54:15.373Z</time></trkpt><trkpt lat="45.9036883" lon="8.6322833"><ele>246.0</ele><time>2026-03-22T15:54:16.373Z</time></trkpt><trkpt lat="45.9035433" lon="8.63242"><ele>255.0</ele><time>2026-03-22T15:54:17.373Z</time></trkpt><trkpt lat="45.9034217" lon="8.6325517"><ele>245.66666666666669</ele><time>2026-03-22T15:54:18.373Z</time></trkpt><trkpt lat="45.9033067" lon="8.63269"><ele>236.33333333333334</ele><time>2026-03-22T15:54:19.373Z</time></trkpt><trkpt lat="45.903195" lon="8.6328317"><ele>227.0</ele><time>2026-03-22T15:54:20.373Z</time></trkpt><trkpt lat="45.9030967" lon="8.6330067"><ele>227.0</ele><time>2026-03-22T15:54:21.373Z</time></trkpt><trkpt lat="45.90302" lon="8.6331833"><ele>227.0</ele><time>2026-03-22T15:54:22.373Z</time></trkpt><trkpt lat="45.9029417" lon="8.633365"><ele>227.0</ele><time>2026-03-22T15:54:23.373Z</time></trkpt><trkpt lat="45.902865" lon="8.633565"><ele>230.66666666666669</ele><time>2026-03-22T15:54:24.373Z</time></trkpt><trkpt lat="45.90279" lon="8.6337983"><ele>234.33333333333331</ele><time>2026-03-22T15:54:25.373Z</time></trkpt><trkpt lat="45.902715" lon="8.634055"><ele>238.0</ele><time>2026-03-22T15:54:26.373Z</time></trkpt><trkpt lat="45.9026417" lon="8.6343233"><ele>233.33333333333331</ele><time>2026-03-22T15:54:27.373Z</time></trkpt><trkpt lat="45.9025617" lon="8.6345767"><ele>228.66666666666669</ele><time>2026-03-22T15:54:28.373Z</time></trkpt><trkpt lat="45.9024867" lon="8.634825"><ele>224.0</ele><time>2026-03-22T15:54:29.373Z</time></trkpt><trkpt lat="45.9024167" lon="8.6350667"><ele>224.0</ele><time>2026-03-22T15:54:30.373Z</time></trkpt><trkpt lat="45.902345" lon="8.6353017"><ele>224.0</ele><time>2026-03-22T15:54:31.373Z</time></trkpt><trkpt lat="45.90227" lon="8.63554"><ele>224.0</ele><time>2026-03-22T15:54:32.374Z</time></trkpt><trkpt lat="45.9022017" lon="8.6357883"><ele>226.66666666666669</ele><time>2026-03-22T15:54:33.373Z</time></trkpt><trkpt lat="45.9021317" lon="8.6360317"><ele>229.33333333333331</ele><time>2026-03-22T15:54:34.373Z</time></trkpt><trkpt lat="45.9020617" lon="8.6362717"><ele>232.0</ele><time>2026-03-22T15:54:35.373Z</time></trkpt><trkpt lat="45.9019967" lon="8.6365217"><ele>234.0</ele><time>2026-03-22T15:54:36.373Z</time></trkpt><trkpt lat="45.9019467" lon="8.6367733"><ele>236.0</ele><time>2026-03-22T15:54:37.373Z</time></trkpt><trkpt lat="45.90189" lon="8.6370183"><ele>238.0</ele><time>2026-03-22T15:54:38.373Z</time></trkpt><trkpt lat="45.901835" lon="8.6372617"><ele>234.33333333333331</ele><time>2026-03-22T15:54:39.373Z</time></trkpt><trkpt lat="45.901775" lon="8.637505"><ele>230.66666666666669</ele><time>2026-03-22T15:54:40.373Z</time></trkpt><trkpt lat="45.9017183" lon="8.6377417"><ele>227.0</ele><time>2026-03-22T15:54:41.373Z</time></trkpt><trkpt lat="45.9016667" lon="8.637975"><ele>227.0</ele><time>2026-03-22T15:54:42.373Z</time></trkpt><trkpt lat="45.9016183" lon="8.6382033"><ele>227.0</ele><time>2026-03-22T15:54:43.373Z</time></trkpt><trkpt lat="45.901565" lon="8.6384267"><ele>227.0</ele><time>2026-03-22T15:54:44.373Z</time></trkpt><trkpt lat="45.9015117" lon="8.63865"><ele>230.0</ele><time>2026-03-22T15:54:45.373Z</time></trkpt><trkpt lat="45.9014567" lon="8.6388767"><ele>233.0</ele><time>2026-03-22T15:54:46.373Z</time></trkpt><trkpt lat="45.9014" lon="8.6391083"><ele>236.0</ele><time>2026-03-22T15:54:47.373Z</time></trkpt><trkpt lat="45.9013417" lon="8.639335"><ele>239.0</ele><time>2026-03-22T15:54:48.373Z</time></trkpt><trkpt lat="45.901285" lon="8.6395533"><ele>242.0</ele><time>2026-03-22T15:54:49.373Z</time></trkpt><trkpt lat="45.90122" lon="8.6397733"><ele>245.0</ele><time>2026-03-22T15:54:50.373Z</time></trkpt><trkpt lat="45.9011483" lon="8.6399933"><ele>245.0</ele><time>2026-03-22T15:54:51.373Z</time></trkpt><trkpt lat="45.9010717" lon="8.64022"><ele>245.0</ele><time>2026-03-22T15:54:52.373Z</time></trkpt><trkpt lat="45.9010017" lon="8.6404367"><ele>245.0</ele><time>2026-03-22T15:54:53.373Z</time></trkpt><trkpt lat="45.9009267" lon="8.6406517"><ele>240.66666666666669</ele><time>2026-03-22T15:54:54.373Z</time></trkpt><trkpt lat="45.9008517" lon="8.6408583"><ele>236.33333333333331</ele><time>2026-03-22T15:54:55.373Z</time></trkpt><trkpt lat="45.90078" lon="8.6410633"><ele>232.0</ele><time>2026-03-22T15:54:56.373Z</time></trkpt><trkpt lat="45.9007017" lon="8.6412667"><ele>232.0</ele><time>2026-03-22T15:54:57.373Z</time></trkpt><trkpt lat="45.90063" lon="8.641475"><ele>232.0</ele><time>2026-03-22T15:54:58.373Z</time></trkpt><trkpt lat="45.9005633" lon="8.6416867"><ele>232.0</ele><time>2026-03-22T15:54:59.373Z</time></trkpt><trkpt lat="45.9005133" lon="8.6419183"><ele>234.66666666666666</ele><time>2026-03-22T15:55:00.373Z</time></trkpt><trkpt lat="45.9004867" lon="8.642165"><ele>237.33333333333331</ele><time>2026-03-22T15:55:01.373Z</time></trkpt><trkpt lat="45.9004817" lon="8.642415"><ele>240.0</ele><time>2026-03-22T15:55:02.373Z</time></trkpt><trkpt lat="45.900485" lon="8.642665"><ele>240.0</ele><time>2026-03-22T15:55:03.373Z</time></trkpt><trkpt lat="45.90049" lon="8.6429133"><ele>240.0</ele><time>2026-03-22T15:55:04.373Z</time></trkpt><trkpt lat="45.900485" lon="8.6431483"><ele>240.0</ele><time>2026-03-22T15:55:05.373Z</time></trkpt><trkpt lat="45.900485" lon="8.6433833"><ele>240.0</ele><time>2026-03-22T15:55:06.373Z</time></trkpt><trkpt lat="45.900485" lon="8.6436083"><ele>240.0</ele><time>2026-03-22T15:55:07.373Z</time></trkpt><trkpt lat="45.9004833" lon="8.6438233"><ele>240.0</ele><time>2026-03-22T15:55:08.373Z</time></trkpt><trkpt lat="45.9004717" lon="8.6440417"><ele>240.25</ele><time>2026-03-22T15:55:09.373Z</time></trkpt><trkpt lat="45.900465" lon="8.644265"><ele>240.5</ele><time>2026-03-22T15:55:10.373Z</time></trkpt><trkpt lat="45.900455" lon="8.6444733"><ele>240.75</ele><time>2026-03-22T15:55:11.373Z</time></trkpt><trkpt lat="45.9004333" lon="8.6446767"><ele>241.0</ele><time>2026-03-22T15:55:12.373Z</time></trkpt><trkpt lat="45.9003933" lon="8.64488"><ele>242.0</ele><time>2026-03-22T15:55:13.373Z</time></trkpt><trkpt lat="45.90034" lon="8.6451"><ele>243.0</ele><time>2026-03-22T15:55:14.373Z</time></trkpt><trkpt lat="45.90027" lon="8.64532"><ele>244.0</ele><time>2026-03-22T15:55:15.373Z</time></trkpt><trkpt lat="45.90018" lon="8.6455383"><ele>238.66666666666666</ele><time>2026-03-22T15:55:16.373Z</time></trkpt><trkpt lat="45.90006" lon="8.64573"><ele>233.33333333333331</ele><time>2026-03-22T15:55:17.373Z</time></trkpt><trkpt lat="45.8999383" lon="8.64591"><ele>228.0</ele><time>2026-03-22T15:55:18.373Z</time></trkpt><trkpt lat="45.8998233" lon="8.6460767"><ele>230.66666666666669</ele><time>2026-03-22T15:55:19.373Z</time></trkpt><trkpt lat="45.8997083" lon="8.6462583"><ele>233.33333333333334</ele><time>2026-03-22T15:55:20.373Z</time></trkpt><trkpt lat="45.8996017" lon="8.6464183"><ele>236.0</ele><time>2026-03-22T15:55:21.373Z</time></trkpt><trkpt lat="45.8994967" lon="8.646585"><ele>236.0</ele><time>2026-03-22T15:55:22.373Z</time></trkpt><trkpt lat="45.8993933" lon="8.646755"><ele>236.0</ele><time>2026-03-22T15:55:23.373Z</time></trkpt><trkpt lat="45.8992867" lon="8.6469183"><ele>236.0</ele><time>2026-03-22T15:55:24.373Z</time></trkpt><trkpt lat="45.8991667" lon="8.6470833"><ele>232.66666666666669</ele><time>2026-03-22T15:55:25.373Z</time></trkpt><trkpt lat="45.8990583" lon="8.6472467"><ele>229.33333333333331</ele><time>2026-03-22T15:55:26.373Z</time></trkpt><trkpt lat="45.8989533" lon="8.6474067"><ele>226.0</ele><time>2026-03-22T15:55:27.373Z</time></trkpt><trkpt lat="45.8988517" lon="8.6475717"><ele>226.0</ele><time>2026-03-22T15:55:28.373Z</time></trkpt><trkpt lat="45.8987433" lon="8.64774"><ele>226.0</ele><time>2026-03-22T15:55:29.373Z</time></trkpt><trkpt lat="45.8986367" lon="8.64792"><ele>226.0</ele><time>2026-03-22T15:55:30.373Z</time></trkpt><trkpt lat="45.89852" lon="8.6480983"><ele>226.0</ele><time>2026-03-22T15:55:31.373Z</time></trkpt><trkpt lat="45.8984067" lon="8.6482767"><ele>226.0</ele><time>2026-03-22T15:55:32.373Z</time></trkpt><trkpt lat="45.898285" lon="8.6484483"><ele>226.0</ele><time>2026-03-22T15:55:33.373Z</time></trkpt><trkpt lat="45.8981733" lon="8.6486267"><ele>228.0</ele><time>2026-03-22T15:55:34.373Z</time></trkpt><trkpt lat="45.89805" lon="8.6488117"><ele>230.0</ele><time>2026-03-22T15:55:35.373Z</time></trkpt><trkpt lat="45.8979317" lon="8.649"><ele>232.0</ele><time>2026-03-22T15:55:36.373Z</time></trkpt><trkpt lat="45.8978183" lon="8.6491767"><ele>232.0</ele><time>2026-03-22T15:55:37.373Z</time></trkpt><trkpt lat="45.89771" lon="8.6493517"><ele>232.0</ele><time>2026-03-22T15:55:38.373Z</time></trkpt><trkpt lat="45.8976067" lon="8.6495183"><ele>232.0</ele><time>2026-03-22T15:55:39.373Z</time></trkpt><trkpt lat="45.8975017" lon="8.6496833"><ele>231.33333333333331</ele><time>2026-03-22T15:55:40.373Z</time></trkpt><trkpt lat="45.897395" lon="8.6498533"><ele>230.66666666666669</ele><time>2026-03-22T15:55:41.373Z</time></trkpt><trkpt lat="45.89729" lon="8.6500167"><ele>230.0</ele><time>2026-03-22T15:55:42.373Z</time></trkpt><trkpt lat="45.8972" lon="8.6501783"><ele>231.0</ele><time>2026-03-22T15:55:43.373Z</time></trkpt><trkpt lat="45.8971017" lon="8.650335"><ele>232.0</ele><time>2026-03-22T15:55:44.373Z</time></trkpt><trkpt lat="45.8970033" lon="8.6504833"><ele>233.0</ele><time>2026-03-22T15:55:45.373Z</time></trkpt><trkpt lat="45.8969017" lon="8.6506317"><ele>234.0</ele><time>2026-03-22T15:55:46.373Z</time></trkpt><trkpt lat="45.8968067" lon="8.6507767"><ele>234.0</ele><time>2026-03-22T15:55:47.373Z</time></trkpt><trkpt lat="45.896715" lon="8.65093"><ele>234.0</ele><time>2026-03-22T15:55:48.373Z</time></trkpt><trkpt lat="45.8966233" lon="8.651085"><ele>234.0</ele><time>2026-03-22T15:55:49.373Z</time></trkpt><trkpt lat="45.8965267" lon="8.6512383"><ele>234.0</ele><time>2026-03-22T15:55:50.373Z</time></trkpt><trkpt lat="45.896435" lon="8.6513867"><ele>234.0</ele><time>2026-03-22T15:55:51.373Z</time></trkpt><trkpt lat="45.8963383" lon="8.6515367"><ele>234.0</ele><time>2026-03-22T15:55:52.373Z</time></trkpt><trkpt lat="45.8962483" lon="8.6516817"><ele>234.0</ele><time>2026-03-22T15:55:53.373Z</time></trkpt><trkpt lat="45.8961583" lon="8.6518333"><ele>234.0</ele><time>2026-03-22T15:55:54.373Z</time></trkpt><trkpt lat="45.8960683" lon="8.651975"><ele>234.0</ele><time>2026-03-22T15:55:55.373Z</time></trkpt><trkpt lat="45.8959717" lon="8.6521083"><ele>234.0</ele><time>2026-03-22T15:55:56.373Z</time></trkpt><trkpt lat="45.895885" lon="8.652245"><ele>234.0</ele><time>2026-03-22T15:55:57.373Z</time></trkpt><trkpt lat="45.8958" lon="8.6523717"><ele>234.0</ele><time>2026-03-22T15:55:58.373Z</time></trkpt><trkpt lat="45.895715" lon="8.6525067"><ele>234.0</ele><time>2026-03-22T15:55:59.373Z</time></trkpt><trkpt lat="45.8956367" lon="8.652635"><ele>234.0</ele><time>2026-03-22T15:56:00.373Z</time></trkpt><trkpt lat="45.8955617" lon="8.6527633"><ele>234.0</ele><time>2026-03-22T15:56:01.373Z</time></trkpt><trkpt lat="45.89548" lon="8.6529033"><ele>234.0</ele><time>2026-03-22T15:56:02.373Z</time></trkpt><trkpt lat="45.8953967" lon="8.653045"><ele>235.0</ele><time>2026-03-22T15:56:03.373Z</time></trkpt><trkpt lat="45.8953217" lon="8.6531917"><ele>236.0</ele><time>2026-03-22T15:56:04.373Z</time></trkpt><trkpt lat="45.895245" lon="8.65335"><ele>237.0</ele><time>2026-03-22T15:56:05.373Z</time></trkpt><trkpt lat="45.8951767" lon="8.6535033"><ele>238.0</ele><time>2026-03-22T15:56:06.373Z</time></trkpt><trkpt lat="45.8951067" lon="8.6536517"><ele>238.25</ele><time>2026-03-22T15:56:07.373Z</time></trkpt><trkpt lat="45.8950533" lon="8.65383"><ele>238.5</ele><time>2026-03-22T15:56:08.373Z</time></trkpt><trkpt lat="45.8949983" lon="8.6540383"><ele>238.75</ele><time>2026-03-22T15:56:09.373Z</time></trkpt><trkpt lat="45.89494" lon="8.6542483"><ele>239.0</ele><time>2026-03-22T15:56:10.373Z</time></trkpt><trkpt lat="45.8948967" lon="8.6544633"><ele>239.0</ele><time>2026-03-22T15:56:11.373Z</time></trkpt><trkpt lat="45.8948717" lon="8.6546967"><ele>239.0</ele><time>2026-03-22T15:56:12.373Z</time></trkpt><trkpt lat="45.8948533" lon="8.6549317"><ele>239.0</ele><time>2026-03-22T15:56:13.373Z</time></trkpt><trkpt lat="45.894845" lon="8.65516"><ele>239.0</ele><time>2026-03-22T15:56:14.373Z</time></trkpt><trkpt lat="45.8948417" lon="8.6553833"><ele>239.0</ele><time>2026-03-22T15:56:15.373Z</time></trkpt><trkpt lat="45.894845" lon="8.655595"><ele>239.0</ele><time>2026-03-22T15:56:16.373Z</time></trkpt><trkpt lat="45.8948533" lon="8.6557998"><ele>239.0</ele><time>2026-03-22T15:56:17.373Z</time></trkpt><trkpt lat="45.8948602" lon="8.6560006"><ele>239.25</ele><time>2026-03-22T15:56:18.373Z</time></trkpt><trkpt lat="45.8948636" lon="8.6562079"><ele>239.5</ele><time>2026-03-22T15:56:19.373Z</time></trkpt><trkpt lat="45.8948703" lon="8.6564165"><ele>239.75</ele><time>2026-03-22T15:56:20.373Z</time></trkpt><trkpt lat="45.8948782" lon="8.6566252"><ele>240.0</ele><time>2026-03-22T15:56:21.373Z</time></trkpt><trkpt lat="45.8948817" lon="8.6568351"><ele>240.5</ele><time>2026-03-22T15:56:22.373Z</time></trkpt><trkpt lat="45.8948834" lon="8.6570277"><ele>241.0</ele><time>2026-03-22T15:56:23.373Z</time></trkpt><trkpt lat="45.8948866" lon="8.6572248"><ele>241.5</ele><time>2026-03-22T15:56:24.373Z</time></trkpt><trkpt lat="45.8948829" lon="8.6574307"><ele>242.0</ele><time>2026-03-22T15:56:25.373Z</time></trkpt><trkpt lat="45.8948756" lon="8.657628"><ele>241.75</ele><time>2026-03-22T15:56:26.373Z</time></trkpt><trkpt lat="45.894868" lon="8.6578248"><ele>241.5</ele><time>2026-03-22T15:56:27.373Z</time></trkpt><trkpt lat="45.8948637" lon="8.6580239"><ele>241.25</ele><time>2026-03-22T15:56:28.373Z</time></trkpt><trkpt lat="45.8948514" lon="8.6582119"><ele>241.0</ele><time>2026-03-22T15:56:29.373Z</time></trkpt><trkpt lat="45.894843" lon="8.6583918"><ele>241.0</ele><time>2026-03-22T15:56:30.373Z</time></trkpt><trkpt lat="45.8948366" lon="8.658562"><ele>241.0</ele><time>2026-03-22T15:56:31.373Z</time></trkpt><trkpt lat="45.8948288" lon="8.6587343"><ele>241.0</ele><time>2026-03-22T15:56:32.373Z</time></trkpt><trkpt lat="45.8948115" lon="8.6589064"><ele>241.0</ele><time>2026-03-22T15:56:33.373Z</time></trkpt><trkpt lat="45.8948019" lon="8.6590836"><ele>241.25</ele><time>2026-03-22T15:56:34.373Z</time></trkpt><trkpt lat="45.8947921" lon="8.6592572"><ele>241.5</ele><time>2026-03-22T15:56:35.373Z</time></trkpt><trkpt lat="45.8947861" lon="8.659438"><ele>241.75</ele><time>2026-03-22T15:56:36.373Z</time></trkpt><trkpt lat="45.894779" lon="8.6596245"><ele>242.0</ele><time>2026-03-22T15:56:37.373Z</time></trkpt><trkpt lat="45.8947671" lon="8.6598171"><ele>242.25</ele><time>2026-03-22T15:56:38.373Z</time></trkpt><trkpt lat="45.8947545" lon="8.6600145"><ele>242.5</ele><time>2026-03-22T15:56:39.373Z</time></trkpt><trkpt lat="45.8947408" lon="8.6602104"><ele>242.75</ele><time>2026-03-22T15:56:40.373Z</time></trkpt><trkpt lat="45.8947286" lon="8.6604047"><ele>243.0</ele><time>2026-03-22T15:56:41.373Z</time></trkpt><trkpt lat="45.8947197" lon="8.6606027"><ele>243.0</ele><time>2026-03-22T15:56:42.373Z</time></trkpt><trkpt lat="45.8947102" lon="8.6607995"><ele>243.0</ele><time>2026-03-22T15:56:43.373Z</time></trkpt><trkpt lat="45.8947119" lon="8.6609948"><ele>243.0</ele><time>2026-03-22T15:56:44.373Z</time></trkpt><trkpt lat="45.8947123" lon="8.6611835"><ele>243.0</ele><time>2026-03-22T15:56:45.373Z</time></trkpt><trkpt lat="45.8947197" lon="8.6613709"><ele>242.75</ele><time>2026-03-22T15:56:46.373Z</time></trkpt><trkpt lat="45.8947367" lon="8.6615604"><ele>242.5</ele><time>2026-03-22T15:56:47.373Z</time></trkpt><trkpt lat="45.8947574" lon="8.661739"><ele>242.25</ele><time>2026-03-22T15:56:48.373Z</time></trkpt><trkpt lat="45.8947855" lon="8.6619088"><ele>242.0</ele><time>2026-03-22T15:56:49.373Z</time></trkpt><trkpt lat="45.8948221" lon="8.6620614"><ele>241.8</ele><time>2026-03-22T15:56:50.373Z</time></trkpt><trkpt lat="45.8948537" lon="8.6622103"><ele>241.6</ele><time>2026-03-22T15:56:51.373Z</time></trkpt><trkpt lat="45.8948786" lon="8.6623439"><ele>241.40000000000003</ele><time>2026-03-22T15:56:52.373Z</time></trkpt><trkpt lat="45.8948997" lon="8.6624654"><ele>241.20000000000002</ele><time>2026-03-22T15:56:53.373Z</time></trkpt><trkpt lat="45.8949198" lon="8.6625793"><ele>241.0</ele><time>2026-03-22T15:56:54.373Z</time></trkpt><trkpt lat="45.8949485" lon="8.6626946"><ele>240.83333333333331</ele><time>2026-03-22T15:56:55.373Z</time></trkpt><trkpt lat="45.8949747" lon="8.6628143"><ele>240.66666666666666</ele><time>2026-03-22T15:56:56.373Z</time></trkpt><trkpt lat="45.8949972" lon="8.6629285"><ele>240.5</ele><time>2026-03-22T15:56:57.373Z</time></trkpt><trkpt lat="45.8950181" lon="8.6630331"><ele>240.33333333333331</ele><time>2026-03-22T15:56:58.373Z</time></trkpt><trkpt lat="45.8950337" lon="8.6631407"><ele>240.16666666666666</ele><time>2026-03-22T15:56:59.373Z</time></trkpt><trkpt lat="45.8950492" lon="8.6632545"><ele>240.0</ele><time>2026-03-22T15:57:00.373Z</time></trkpt><trkpt lat="45.8950684" lon="8.6633876"><ele>241.5</ele><time>2026-03-22T15:57:01.373Z</time></trkpt><trkpt lat="45.8950903" lon="8.6635331"><ele>243.0</ele><time>2026-03-22T15:57:02.373Z</time></trkpt><trkpt lat="45.8951222" lon="8.6636954"><ele>244.5</ele><time>2026-03-22T15:57:03.373Z</time></trkpt><trkpt lat="45.8951611" lon="8.663867"><ele>246.0</ele><time>2026-03-22T15:57:04.373Z</time></trkpt><trkpt lat="45.8952001" lon="8.6640447"><ele>246.25</ele><time>2026-03-22T15:57:05.373Z</time></trkpt><trkpt lat="45.8952448" lon="8.6642214"><ele>246.5</ele><time>2026-03-22T15:57:06.373Z</time></trkpt><trkpt lat="45.8952796" lon="8.6643939"><ele>246.75</ele><time>2026-03-22T15:57:07.373Z</time></trkpt><trkpt lat="45.8953095" lon="8.6645605"><ele>247.0</ele><time>2026-03-22T15:57:08.373Z</time></trkpt><trkpt lat="45.895338" lon="8.6647089"><ele>247.0</ele><time>2026-03-22T15:57:09.374Z</time></trkpt><trkpt lat="45.8953603" lon="8.6648189"><ele>247.0</ele><time>2026-03-22T15:57:10.374Z</time></trkpt><trkpt lat="45.8953873" lon="8.6649021"><ele>247.0</ele><time>2026-03-22T15:57:11.374Z</time></trkpt><trkpt lat="45.8954635" lon="8.6649961"><ele>247.0</ele><time>2026-03-22T15:57:13.374Z</time></trkpt><trkpt lat="45.8955859" lon="8.6650078"><ele>247.0</ele><time>2026-03-22T15:57:15.374Z</time></trkpt><trkpt lat="45.895678" lon="8.66498"><ele>247.0</ele><time>2026-03-22T15:57:16.374Z</time></trkpt><trkpt lat="45.8957754" lon="8.6649363"><ele>247.0</ele><time>2026-03-22T15:57:17.374Z</time></trkpt><trkpt lat="45.8958678" lon="8.6648731"><ele>247.0</ele><time>2026-03-22T15:57:18.374Z</time></trkpt><trkpt lat="45.895966" lon="8.6648064"><ele>247.0</ele><time>2026-03-22T15:57:19.375Z</time></trkpt><trkpt lat="45.8960614" lon="8.6647377"><ele>247.0</ele><time>2026-03-22T15:57:20.374Z</time></trkpt><trkpt lat="45.8961493" lon="8.6646783"><ele>248.6</ele><time>2026-03-22T15:57:21.374Z</time></trkpt><trkpt lat="45.8962343" lon="8.6646221"><ele>250.2</ele><time>2026-03-22T15:57:22.374Z</time></trkpt><trkpt lat="45.8963223" lon="8.6645832"><ele>251.8</ele><time>2026-03-22T15:57:23.374Z</time></trkpt><trkpt lat="45.896421" lon="8.6645685"><ele>253.4</ele><time>2026-03-22T15:57:24.374Z</time></trkpt><trkpt lat="45.8965244" lon="8.6645628"><ele>255.0</ele><time>2026-03-22T15:57:25.374Z</time></trkpt><trkpt lat="45.8966126" lon="8.6645572"><ele>255.0</ele><time>2026-03-22T15:57:26.374Z</time></trkpt><trkpt lat="45.8966911" lon="8.6645512"><ele>255.0</ele><time>2026-03-22T15:57:27.374Z</time></trkpt><trkpt lat="45.8967644" lon="8.6645463"><ele>255.0</ele><time>2026-03-22T15:57:28.374Z</time></trkpt><trkpt lat="45.8968389" lon="8.664545"><ele>255.0</ele><time>2026-03-22T15:57:29.374Z</time></trkpt><trkpt lat="45.896917" lon="8.6645399"><ele>255.0</ele><time>2026-03-22T15:57:30.374Z</time></trkpt><trkpt lat="45.8970007" lon="8.6645404"><ele>255.0</ele><time>2026-03-22T15:57:31.374Z</time></trkpt><trkpt lat="45.8970835" lon="8.6645406"><ele>256.6</ele><time>2026-03-22T15:57:32.374Z</time></trkpt><trkpt lat="45.897181" lon="8.6645102"><ele>258.2</ele><time>2026-03-22T15:57:33.374Z</time></trkpt><trkpt lat="45.8972866" lon="8.6644454"><ele>259.8</ele><time>2026-03-22T15:57:34.374Z</time></trkpt><trkpt lat="45.8973914" lon="8.6643834"><ele>261.4</ele><time>2026-03-22T15:57:35.374Z</time></trkpt><trkpt lat="45.89748" lon="8.6643345"><ele>263.0</ele><time>2026-03-22T15:57:36.374Z</time></trkpt><trkpt lat="45.8975542" lon="8.6643189"><ele>265.1666666666667</ele><time>2026-03-22T15:57:37.374Z</time></trkpt><trkpt lat="45.89763" lon="8.6643138"><ele>267.33333333333337</ele><time>2026-03-22T15:57:38.374Z</time></trkpt><trkpt lat="45.897707" lon="8.6643094"><ele>269.5</ele><time>2026-03-22T15:57:39.374Z</time></trkpt><trkpt lat="45.8977806" lon="8.6643104"><ele>271.6666666666667</ele><time>2026-03-22T15:57:40.374Z</time></trkpt><trkpt lat="45.8978558" lon="8.6643199"><ele>273.8333333333333</ele><time>2026-03-22T15:57:41.374Z</time></trkpt><trkpt lat="45.8979315" lon="8.6643369"><ele>276.0</ele><time>2026-03-22T15:57:42.374Z</time></trkpt><trkpt lat="45.8980039" lon="8.6643595"><ele>276.0</ele><time>2026-03-22T15:57:43.374Z</time></trkpt><trkpt lat="45.898065" lon="8.6643904"><ele>276.0</ele><time>2026-03-22T15:57:44.374Z</time></trkpt><trkpt lat="45.8981803" lon="8.6644418"><ele>276.0</ele><time>2026-03-22T15:57:46.374Z</time></trkpt><trkpt lat="45.8982847" lon="8.6644434"><ele>276.0</ele><time>2026-03-22T15:57:48.374Z</time></trkpt><trkpt lat="45.8983767" lon="8.6643675"><ele>276.0</ele><time>2026-03-22T15:57:50.374Z</time></trkpt><trkpt lat="45.8984241" lon="8.6642686"><ele>283.75</ele><time>2026-03-22T15:57:51.374Z</time></trkpt><trkpt lat="45.898478" lon="8.6641286"><ele>291.5</ele><time>2026-03-22T15:57:52.374Z</time></trkpt><trkpt lat="45.8985495" lon="8.6639798"><ele>299.25</ele><time>2026-03-22T15:57:53.374Z</time></trkpt><trkpt lat="45.898629" lon="8.6638341"><ele>307.0</ele><time>2026-03-22T15:57:54.374Z</time></trkpt><trkpt lat="45.8986999" lon="8.6636888"><ele>302.5</ele><time>2026-03-22T15:57:55.374Z</time></trkpt><trkpt lat="45.8987707" lon="8.6635445"><ele>298.0</ele><time>2026-03-22T15:57:56.374Z</time></trkpt><trkpt lat="45.8988542" lon="8.663412"><ele>293.5</ele><time>2026-03-22T15:57:57.374Z</time></trkpt><trkpt lat="45.898955" lon="8.6632833"><ele>289.0</ele><time>2026-03-22T15:57:58.374Z</time></trkpt><trkpt lat="45.8990517" lon="8.66315"><ele>289.0</ele><time>2026-03-22T15:57:59.374Z</time></trkpt><trkpt lat="45.8991383" lon="8.663005"><ele>289.0</ele><time>2026-03-22T15:58:00.374Z</time></trkpt><trkpt lat="45.899205" lon="8.6628483"><ele>289.0</ele><time>2026-03-22T15:58:01.374Z</time></trkpt><trkpt lat="45.8992567" lon="8.6627117"><ele>289.0</ele><time>2026-03-22T15:58:02.374Z</time></trkpt><trkpt lat="45.8993117" lon="8.6626017"><ele>290.5</ele><time>2026-03-22T15:58:03.374Z</time></trkpt><trkpt lat="45.8993783" lon="8.6625217"><ele>292.0</ele><time>2026-03-22T15:58:04.374Z</time></trkpt><trkpt lat="45.8994517" lon="8.6624883"><ele>293.5</ele><time>2026-03-22T15:58:05.374Z</time></trkpt><trkpt lat="45.8995383" lon="8.6624667"><ele>295.0</ele><time>2026-03-22T15:58:06.374Z</time></trkpt><trkpt lat="45.8996183" lon="8.662415"><ele>296.5</ele><time>2026-03-22T15:58:07.374Z</time></trkpt><trkpt lat="45.8996867" lon="8.6623317"><ele>298.0</ele><time>2026-03-22T15:58:08.374Z</time></trkpt><trkpt lat="45.8997467" lon="8.662245"><ele>298.0</ele><time>2026-03-22T15:58:09.374Z</time></trkpt><trkpt lat="45.8998067" lon="8.6621817"><ele>298.0</ele><time>2026-03-22T15:58:10.374Z</time></trkpt><trkpt lat="45.8998867" lon="8.6621433"><ele>298.0</ele><time>2026-03-22T15:58:11.374Z</time></trkpt><trkpt lat="45.8999833" lon="8.6621233"><ele>298.0</ele><time>2026-03-22T15:58:12.374Z</time></trkpt><trkpt lat="45.9001" lon="8.6620983"><ele>298.0</ele><time>2026-03-22T15:58:13.374Z</time></trkpt><trkpt lat="45.9002183" lon="8.66204"><ele>298.0</ele><time>2026-03-22T15:58:14.374Z</time></trkpt><trkpt lat="45.9003283" lon="8.6619617"><ele>298.0</ele><time>2026-03-22T15:58:15.374Z</time></trkpt><trkpt lat="45.90044" lon="8.66188"><ele>298.0</ele><time>2026-03-22T15:58:16.374Z</time></trkpt><trkpt lat="45.900545" lon="8.6618133"><ele>298.0</ele><time>2026-03-22T15:58:17.374Z</time></trkpt><trkpt lat="45.9006367" lon="8.66175"><ele>298.0</ele><time>2026-03-22T15:58:18.374Z</time></trkpt><trkpt lat="45.90071" lon="8.6616967"><ele>298.0</ele><time>2026-03-22T15:58:19.374Z</time></trkpt><trkpt lat="45.900775" lon="8.6616583"><ele>298.0</ele><time>2026-03-22T15:58:20.374Z</time></trkpt><trkpt lat="45.90086" lon="8.6616617"><ele>298.0</ele><time>2026-03-22T15:58:22.374Z</time></trkpt><trkpt lat="45.9008033" lon="8.6617967"><ele>298.0</ele><time>2026-03-22T15:58:25.374Z</time></trkpt><trkpt lat="45.9007233" lon="8.6618317"><ele>298.0</ele><time>2026-03-22T15:58:26.374Z</time></trkpt><trkpt lat="45.9006483" lon="8.661885"><ele>300.8</ele><time>2026-03-22T15:58:27.374Z</time></trkpt><trkpt lat="45.9006" lon="8.661965"><ele>303.6</ele><time>2026-03-22T15:58:28.374Z</time></trkpt><trkpt lat="45.9006" lon="8.66208"><ele>306.4</ele><time>2026-03-22T15:58:29.374Z</time></trkpt><trkpt lat="45.9006267" lon="8.66222"><ele>309.2</ele><time>2026-03-22T15:58:30.374Z</time></trkpt><trkpt lat="45.900675" lon="8.66237"><ele>312.0</ele><time>2026-03-22T15:58:31.374Z</time></trkpt><trkpt lat="45.9007333" lon="8.6625167"><ele>312.0</ele><time>2026-03-22T15:58:32.374Z</time></trkpt><trkpt lat="45.9007733" lon="8.6626567"><ele>312.0</ele><time>2026-03-22T15:58:33.374Z</time></trkpt><trkpt lat="45.9007917" lon="8.6627717"><ele>312.0</ele><time>2026-03-22T15:58:34.374Z</time></trkpt><trkpt lat="45.9007733" lon="8.6628767"><ele>312.0</ele><time>2026-03-22T15:58:35.374Z</time></trkpt><trkpt lat="45.90073" lon="8.6629733"><ele>312.0</ele><time>2026-03-22T15:58:36.374Z</time></trkpt><trkpt lat="45.9006617" lon="8.663065"><ele>312.0</ele><time>2026-03-22T15:58:37.374Z</time></trkpt><trkpt lat="45.9005817" lon="8.6631817"><ele>316.0</ele><time>2026-03-22T15:58:38.374Z</time></trkpt><trkpt lat="45.9005067" lon="8.6633133"><ele>320.0</ele><time>2026-03-22T15:58:39.374Z</time></trkpt><trkpt lat="45.900435" lon="8.663455"><ele>324.0</ele><time>2026-03-22T15:58:40.374Z</time></trkpt><trkpt lat="45.90036" lon="8.66359"><ele>328.0</ele><time>2026-03-22T15:58:41.374Z</time></trkpt><trkpt lat="45.9002883" lon="8.6637333"><ele>334.5</ele><time>2026-03-22T15:58:42.374Z</time></trkpt><trkpt lat="45.900235" lon="8.6638783"><ele>341.0</ele><time>2026-03-22T15:58:43.374Z</time></trkpt><trkpt lat="45.9001933" lon="8.6640317"><ele>347.5</ele><time>2026-03-22T15:58:44.374Z</time></trkpt><trkpt lat="45.9001483" lon="8.6641783"><ele>354.0</ele><time>2026-03-22T15:58:45.374Z</time></trkpt><trkpt lat="45.9000883" lon="8.6643117"><ele>353.1666666666667</ele><time>2026-03-22T15:58:46.374Z</time></trkpt><trkpt lat="45.9000183" lon="8.6644133"><ele>352.3333333333333</ele><time>2026-03-22T15:58:47.374Z</time></trkpt><trkpt lat="45.8999467" lon="8.6644733"><ele>351.5</ele><time>2026-03-22T15:58:48.374Z</time></trkpt><trkpt lat="45.8998733" lon="8.6645167"><ele>350.66666666666663</ele><time>2026-03-22T15:58:49.374Z</time></trkpt><trkpt lat="45.89979" lon="8.6645383"><ele>349.8333333333333</ele><time>2026-03-22T15:58:50.374Z</time></trkpt><trkpt lat="45.899705" lon="8.6645817"><ele>349.0</ele><time>2026-03-22T15:58:51.374Z</time></trkpt><trkpt lat="45.899635" lon="8.6646883"><ele>349.0</ele><time>2026-03-22T15:58:52.374Z</time></trkpt><trkpt lat="45.899565" lon="8.6648133"><ele>349.0</ele><time>2026-03-22T15:58:53.374Z</time></trkpt><trkpt lat="45.8994867" lon="8.6649133"><ele>349.0</ele><time>2026-03-22T15:58:54.374Z</time></trkpt><trkpt lat="45.899405" lon="8.6649833"><ele>349.0</ele><time>2026-03-22T15:58:55.374Z</time></trkpt><trkpt lat="45.89932" lon="8.6650267"><ele>349.0</ele><time>2026-03-22T15:58:56.374Z</time></trkpt><trkpt lat="45.8992667" lon="8.6650917"><ele>349.0</ele><time>2026-03-22T15:58:57.374Z</time></trkpt><trkpt lat="45.8992633" lon="8.6652317"><ele>349.0</ele><time>2026-03-22T15:58:59.374Z</time></trkpt><trkpt lat="45.8993917" lon="8.6653133"><ele>349.0</ele><time>2026-03-22T15:59:01.374Z</time></trkpt><trkpt lat="45.89947" lon="8.6653317"><ele>349.0</ele><time>2026-03-22T15:59:02.374Z</time></trkpt><trkpt lat="45.89954" lon="8.665305"><ele>349.0</ele><time>2026-03-22T15:59:03.374Z</time></trkpt><trkpt lat="45.8996017" lon="8.6652283"><ele>349.0</ele><time>2026-03-22T15:59:04.374Z</time></trkpt><trkpt lat="45.8996717" lon="8.6651217"><ele>349.0</ele><time>2026-03-22T15:59:05.374Z</time></trkpt><trkpt lat="45.8997417" lon="8.6650233"><ele>349.0</ele><time>2026-03-22T15:59:06.374Z</time></trkpt><trkpt lat="45.8998183" lon="8.6649567"><ele>349.0</ele><time>2026-03-22T15:59:07.374Z</time></trkpt><trkpt lat="45.8998967" lon="8.6649317"><ele>349.0</ele><time>2026-03-22T15:59:08.374Z</time></trkpt><trkpt lat="45.8999833" lon="8.6649083"><ele>349.0</ele><time>2026-03-22T15:59:09.374Z</time></trkpt><trkpt lat="45.9000683" lon="8.6648683"><ele>349.0</ele><time>2026-03-22T15:59:10.374Z</time></trkpt><trkpt lat="45.900155" lon="8.664795"><ele>349.0</ele><time>2026-03-22T15:59:11.374Z</time></trkpt><trkpt lat="45.9002417" lon="8.6647083"><ele>349.0</ele><time>2026-03-22T15:59:12.374Z</time></trkpt><trkpt lat="45.90032" lon="8.6646183"><ele>349.0</ele><time>2026-03-22T15:59:13.374Z</time></trkpt><trkpt lat="45.9003883" lon="8.6645217"><ele>354.4</ele><time>2026-03-22T15:59:14.374Z</time></trkpt><trkpt lat="45.900455" lon="8.6644633"><ele>359.79999999999995</ele><time>2026-03-22T15:59:15.374Z</time></trkpt><trkpt lat="45.9005417" lon="8.6644717"><ele>365.20000000000005</ele><time>2026-03-22T15:59:17.374Z</time></trkpt><trkpt lat="45.9005317" lon="8.6645717"><ele>370.6</ele><time>2026-03-22T15:59:19.374Z</time></trkpt><trkpt lat="45.900415" lon="8.6646517"><ele>376.0</ele><time>2026-03-22T15:59:21.374Z</time></trkpt><trkpt lat="45.9003267" lon="8.6647283"><ele>376.0</ele><time>2026-03-22T15:59:22.374Z</time></trkpt><trkpt lat="45.900235" lon="8.66484"><ele>376.0</ele><time>2026-03-22T15:59:23.374Z</time></trkpt><trkpt lat="45.900135" lon="8.6649917"><ele>376.0</ele><time>2026-03-22T15:59:24.374Z</time></trkpt><trkpt lat="45.9000633" lon="8.66514"><ele>376.0</ele><time>2026-03-22T15:59:25.374Z</time></trkpt><trkpt lat="45.9000133" lon="8.6652683"><ele>376.0</ele><time>2026-03-22T15:59:26.374Z</time></trkpt><trkpt lat="45.8999717" lon="8.6653733"><ele>376.0</ele><time>2026-03-22T15:59:27.374Z</time></trkpt><trkpt lat="45.8999767" lon="8.6655133"><ele>376.0</ele><time>2026-03-22T15:59:29.374Z</time></trkpt><trkpt lat="45.90006" lon="8.6654983"><ele>376.0</ele><time>2026-03-22T15:59:31.374Z</time></trkpt><trkpt lat="45.9001167" lon="8.66542"><ele>376.0</ele><time>2026-03-22T15:59:32.374Z</time></trkpt><trkpt lat="45.900165" lon="8.6653017"><ele>376.0</ele><time>2026-03-22T15:59:33.374Z</time></trkpt><trkpt lat="45.9002167" lon="8.6651767"><ele>376.0</ele><time>2026-03-22T15:59:34.374Z</time></trkpt><trkpt lat="45.9002883" lon="8.665075"><ele>376.0</ele><time>2026-03-22T15:59:35.374Z</time></trkpt><trkpt lat="45.900375" lon="8.6649967"><ele>376.0</ele><time>2026-03-22T15:59:36.374Z</time></trkpt><trkpt lat="45.900475" lon="8.6649367"><ele>376.0</ele><time>2026-03-22T15:59:37.374Z</time></trkpt><trkpt lat="45.90058" lon="8.6648767"><ele>376.0</ele><time>2026-03-22T15:59:38.374Z</time></trkpt><trkpt lat="45.900695" lon="8.6648083"><ele>376.0</ele><time>2026-03-22T15:59:39.374Z</time></trkpt><trkpt lat="45.9008283" lon="8.664725"><ele>376.0</ele><time>2026-03-22T15:59:40.374Z</time></trkpt><trkpt lat="45.900965" lon="8.6646267"><ele>376.0</ele><time>2026-03-22T15:59:41.374Z</time></trkpt><trkpt lat="45.901095" lon="8.664505"><ele>376.75</ele><time>2026-03-22T15:59:42.374Z</time></trkpt><trkpt lat="45.9012183" lon="8.664385"><ele>377.5</ele><time>2026-03-22T15:59:43.374Z</time></trkpt><trkpt lat="45.9013267" lon="8.664275"><ele>378.25</ele><time>2026-03-22T15:59:44.374Z</time></trkpt><trkpt lat="45.9014133" lon="8.664195"><ele>379.0</ele><time>2026-03-22T15:59:45.375Z</time></trkpt><trkpt lat="45.9014833" lon="8.6641033"><ele>379.0</ele><time>2026-03-22T15:59:46.374Z</time></trkpt><trkpt lat="45.901545" lon="8.6640233"><ele>379.0</ele><time>2026-03-22T15:59:47.374Z</time></trkpt><trkpt lat="45.90163" lon="8.663975"><ele>379.0</ele><time>2026-03-22T15:59:49.374Z</time></trkpt><trkpt lat="45.9016433" lon="8.66407"><ele>379.0</ele><time>2026-03-22T15:59:51.374Z</time></trkpt><trkpt lat="45.9016167" lon="8.6641533"><ele>379.0</ele><time>2026-03-22T15:59:52.374Z</time></trkpt><trkpt lat="45.901555" lon="8.66425"><ele>379.0</ele><time>2026-03-22T15:59:53.374Z</time></trkpt><trkpt lat="45.90146" lon="8.66437"><ele>386.0</ele><time>2026-03-22T15:59:54.374Z</time></trkpt><trkpt lat="45.90135" lon="8.6645167"><ele>393.0</ele><time>2026-03-22T15:59:55.374Z</time></trkpt><trkpt lat="45.9012383" lon="8.6646883"><ele>400.0</ele><time>2026-03-22T15:59:56.374Z</time></trkpt><trkpt lat="45.90114" lon="8.6648667"><ele>400.0</ele><time>2026-03-22T15:59:57.374Z</time></trkpt><trkpt lat="45.9010533" lon="8.6650167"><ele>400.0</ele><time>2026-03-22T15:59:58.374Z</time></trkpt><trkpt lat="45.9009833" lon="8.6651233"><ele>400.0</ele><time>2026-03-22T15:59:59.374Z</time></trkpt><trkpt lat="45.9009417" lon="8.6652"><ele>400.0</ele><time>2026-03-22T16:00:00.374Z</time></trkpt><trkpt lat="45.9009233" lon="8.6653733"><ele>400.0</ele><time>2026-03-22T16:00:02.374Z</time></trkpt><trkpt lat="45.900955" lon="8.66548"><ele>402.5</ele><time>2026-03-22T16:00:03.374Z</time></trkpt><trkpt lat="45.9010167" lon="8.66562"><ele>405.0</ele><time>2026-03-22T16:00:04.374Z</time></trkpt><trkpt lat="45.9011017" lon="8.6657733"><ele>407.5</ele><time>2026-03-22T16:00:05.374Z</time></trkpt><trkpt lat="45.9011717" lon="8.6659183"><ele>410.0</ele><time>2026-03-22T16:00:06.374Z</time></trkpt><trkpt lat="45.9012567" lon="8.6660717"><ele>409.8</ele><time>2026-03-22T16:00:07.374Z</time></trkpt><trkpt lat="45.9013283" lon="8.6662083"><ele>409.6</ele><time>2026-03-22T16:00:08.374Z</time></trkpt><trkpt lat="45.9013883" lon="8.6663383"><ele>409.4</ele><time>2026-03-22T16:00:09.374Z</time></trkpt><trkpt lat="45.9014283" lon="8.6664333"><ele>409.2</ele><time>2026-03-22T16:00:10.374Z</time></trkpt><trkpt lat="45.9015" lon="8.6665133"><ele>409.0</ele><time>2026-03-22T16:00:12.374Z</time></trkpt><trkpt lat="45.9015583" lon="8.6664483"><ele>409.0</ele><time>2026-03-22T16:00:14.374Z</time></trkpt><trkpt lat="45.9015733" lon="8.666245"><ele>409.0</ele><time>2026-03-22T16:00:16.374Z</time></trkpt><trkpt lat="45.9015567" lon="8.6660733"><ele>409.0</ele><time>2026-03-22T16:00:17.374Z</time></trkpt><trkpt lat="45.9015333" lon="8.6658767"><ele>409.0</ele><time>2026-03-22T16:00:18.374Z</time></trkpt><trkpt lat="45.9015283" lon="8.6656967"><ele>409.2</ele><time>2026-03-22T16:00:19.374Z</time></trkpt><trkpt lat="45.9015383" lon="8.665525"><ele>409.4</ele><time>2026-03-22T16:00:20.374Z</time></trkpt><trkpt lat="45.9015583" lon="8.6653867"><ele>409.6</ele><time>2026-03-22T16:00:21.374Z</time></trkpt><trkpt lat="45.9016017" lon="8.6652783"><ele>409.8</ele><time>2026-03-22T16:00:22.374Z</time></trkpt><trkpt lat="45.9016567" lon="8.6651883"><ele>410.0</ele><time>2026-03-22T16:00:23.374Z</time></trkpt><trkpt lat="45.9017283" lon="8.6651033"><ele>411.25</ele><time>2026-03-22T16:00:24.374Z</time></trkpt><trkpt lat="45.9018333" lon="8.6650333"><ele>412.5</ele><time>2026-03-22T16:00:25.374Z</time></trkpt><trkpt lat="45.9019467" lon="8.6649817"><ele>413.75</ele><time>2026-03-22T16:00:26.374Z</time></trkpt><trkpt lat="45.902065" lon="8.6649533"><ele>415.0</ele><time>2026-03-22T16:00:27.374Z</time></trkpt><trkpt lat="45.9021833" lon="8.6649483"><ele>415.0</ele><time>2026-03-22T16:00:28.374Z</time></trkpt><trkpt lat="45.902285" lon="8.6649617"><ele>415.0</ele><time>2026-03-22T16:00:29.374Z</time></trkpt><trkpt lat="45.9023783" lon="8.66498"><ele>415.0</ele><time>2026-03-22T16:00:30.374Z</time></trkpt><trkpt lat="45.9024633" lon="8.665025"><ele>415.0</ele><time>2026-03-22T16:00:31.374Z</time></trkpt><trkpt lat="45.9025617" lon="8.6650983"><ele>415.0</ele><time>2026-03-22T16:00:32.374Z</time></trkpt><trkpt lat="45.9026717" lon="8.66517"><ele>413.75</ele><time>2026-03-22T16:00:33.374Z</time></trkpt><trkpt lat="45.9027883" lon="8.665245"><ele>412.5</ele><time>2026-03-22T16:00:34.374Z</time></trkpt><trkpt lat="45.90289" lon="8.6652483"><ele>411.25</ele><time>2026-03-22T16:00:35.374Z</time></trkpt><trkpt lat="45.9029883" lon="8.6652417"><ele>410.0</ele><time>2026-03-22T16:00:36.374Z</time></trkpt><trkpt lat="45.90311" lon="8.6652633"><ele>410.0</ele><time>2026-03-22T16:00:37.374Z</time></trkpt><trkpt lat="45.90323" lon="8.6652717"><ele>410.0</ele><time>2026-03-22T16:00:38.374Z</time></trkpt><trkpt lat="45.9033367" lon="8.665295"><ele>410.0</ele><time>2026-03-22T16:00:39.374Z</time></trkpt><trkpt lat="45.9034333" lon="8.6653417"><ele>410.0</ele><time>2026-03-22T16:00:40.374Z</time></trkpt><trkpt lat="45.9035267" lon="8.6654033"><ele>410.0</ele><time>2026-03-22T16:00:41.374Z</time></trkpt><trkpt lat="45.903635" lon="8.665485"><ele>416.75</ele><time>2026-03-22T16:00:42.374Z</time></trkpt><trkpt lat="45.9037517" lon="8.665575"><ele>423.5</ele><time>2026-03-22T16:00:43.374Z</time></trkpt><trkpt lat="45.9038783" lon="8.6656633"><ele>430.25</ele><time>2026-03-22T16:00:44.374Z</time></trkpt><trkpt lat="45.9040183" lon="8.6657767"><ele>437.0</ele><time>2026-03-22T16:00:45.374Z</time></trkpt><trkpt lat="45.9041533" lon="8.665875"><ele>440.5</ele><time>2026-03-22T16:00:46.374Z</time></trkpt><trkpt lat="45.9042817" lon="8.6659467"><ele>444.0</ele><time>2026-03-22T16:00:47.374Z</time></trkpt><trkpt lat="45.9043943" lon="8.666009"><ele>447.5</ele><time>2026-03-22T16:00:48.374Z</time></trkpt><trkpt lat="45.9044947" lon="8.6660373"><ele>451.0</ele><time>2026-03-22T16:00:49.374Z</time></trkpt><trkpt lat="45.9045919" lon="8.6660275"><ele>451.0</ele><time>2026-03-22T16:00:50.374Z</time></trkpt><trkpt lat="45.9046966" lon="8.6659833"><ele>451.0</ele><time>2026-03-22T16:00:51.374Z</time></trkpt><trkpt lat="45.904805" lon="8.665908"><ele>451.0</ele><time>2026-03-22T16:00:52.374Z</time></trkpt><trkpt lat="45.9049015" lon="8.6658204"><ele>451.0</ele><time>2026-03-22T16:00:53.374Z</time></trkpt><trkpt lat="45.9049839" lon="8.6657377"><ele>451.0</ele><time>2026-03-22T16:00:54.374Z</time></trkpt><trkpt lat="45.9050524" lon="8.6656676"><ele>455.6</ele><time>2026-03-22T16:00:55.374Z</time></trkpt><trkpt lat="45.9051194" lon="8.6656238"><ele>460.20000000000005</ele><time>2026-03-22T16:00:56.374Z</time></trkpt><trkpt lat="45.90519" lon="8.6655995"><ele>464.79999999999995</ele><time>2026-03-22T16:00:57.374Z</time></trkpt><trkpt lat="45.9052759" lon="8.6655866"><ele>469.4</ele><time>2026-03-22T16:00:58.374Z</time></trkpt><trkpt lat="45.9053932" lon="8.6655853"><ele>474.0</ele><time>2026-03-22T16:00:59.374Z</time></trkpt><trkpt lat="45.9055289" lon="8.6655802"><ele>474.0</ele><time>2026-03-22T16:01:00.374Z</time></trkpt><trkpt lat="45.905677" lon="8.6655723"><ele>474.0</ele><time>2026-03-22T16:01:01.374Z</time></trkpt><trkpt lat="45.9058336" lon="8.6655711"><ele>474.0</ele><time>2026-03-22T16:01:02.375Z</time></trkpt><trkpt lat="45.905986" lon="8.6655764"><ele>477.0</ele><time>2026-03-22T16:01:03.374Z</time></trkpt><trkpt lat="45.9061365" lon="8.6656151"><ele>480.0</ele><time>2026-03-22T16:01:04.374Z</time></trkpt><trkpt lat="45.9062755" lon="8.6656736"><ele>483.0</ele><time>2026-03-22T16:01:05.374Z</time></trkpt><trkpt lat="45.9063908" lon="8.6657527"><ele>486.0</ele><time>2026-03-22T16:01:06.374Z</time></trkpt><trkpt lat="45.90648" lon="8.6658343"><ele>486.0</ele><time>2026-03-22T16:01:07.374Z</time></trkpt><trkpt lat="45.9065586" lon="8.6658927"><ele>486.0</ele><time>2026-03-22T16:01:08.374Z</time></trkpt><trkpt lat="45.9066297" lon="8.6659114"><ele>486.0</ele><time>2026-03-22T16:01:09.374Z</time></trkpt><trkpt lat="45.9067116" lon="8.6659058"><ele>486.0</ele><time>2026-03-22T16:01:10.374Z</time></trkpt><trkpt lat="45.9068042" lon="8.6658637"><ele>486.0</ele><time>2026-03-22T16:01:11.374Z</time></trkpt><trkpt lat="45.9069106" lon="8.6657705"><ele>486.25</ele><time>2026-03-22T16:01:12.374Z</time></trkpt><trkpt lat="45.9070063" lon="8.6656465"><ele>486.5</ele><time>2026-03-22T16:01:13.374Z</time></trkpt><trkpt lat="45.9070825" lon="8.6655078"><ele>486.75</ele><time>2026-03-22T16:01:14.374Z</time></trkpt><trkpt lat="45.9071329" lon="8.6653456"><ele>487.0</ele><time>2026-03-22T16:01:15.374Z</time></trkpt><trkpt lat="45.9071897" lon="8.6651738"><ele>487.0</ele><time>2026-03-22T16:01:16.374Z</time></trkpt><trkpt lat="45.9072556" lon="8.6650186"><ele>487.00000000000006</ele><time>2026-03-22T16:01:17.374Z</time></trkpt><trkpt lat="45.9073333" lon="8.6649052"><ele>487.00000000000006</ele><time>2026-03-22T16:01:18.374Z</time></trkpt><trkpt lat="45.9074064" lon="8.664842"><ele>487.0</ele><time>2026-03-22T16:01:19.374Z</time></trkpt><trkpt lat="45.9074787" lon="8.6648109"><ele>487.0</ele><time>2026-03-22T16:01:20.374Z</time></trkpt><trkpt lat="45.9075615" lon="8.6647906"><ele>488.1666666666667</ele><time>2026-03-22T16:01:21.374Z</time></trkpt><trkpt lat="45.9076437" lon="8.6647591"><ele>489.33333333333337</ele><time>2026-03-22T16:01:22.374Z</time></trkpt><trkpt lat="45.9077188" lon="8.6647167"><ele>490.5</ele><time>2026-03-22T16:01:23.374Z</time></trkpt><trkpt lat="45.9077842" lon="8.6646683"><ele>491.66666666666663</ele><time>2026-03-22T16:01:24.374Z</time></trkpt><trkpt lat="45.9078419" lon="8.6645895"><ele>492.8333333333333</ele><time>2026-03-22T16:01:25.374Z</time></trkpt><trkpt lat="45.9078949" lon="8.6644742"><ele>494.0</ele><time>2026-03-22T16:01:26.374Z</time></trkpt><trkpt lat="45.9079536" lon="8.6643658"><ele>493.99999999999994</ele><time>2026-03-22T16:01:27.374Z</time></trkpt><trkpt lat="45.9080072" lon="8.6642891"><ele>494.0</ele><time>2026-03-22T16:01:28.374Z</time></trkpt><trkpt lat="45.9080669" lon="8.6642511"><ele>494.0</ele><time>2026-03-22T16:01:29.374Z</time></trkpt><trkpt lat="45.9081362" lon="8.6642367"><ele>494.0</ele><time>2026-03-22T16:01:30.374Z</time></trkpt><trkpt lat="45.9082192" lon="8.6642435"><ele>493.99999999999994</ele><time>2026-03-22T16:01:31.374Z</time></trkpt><trkpt lat="45.9083166" lon="8.6642378"><ele>494.0</ele><time>2026-03-22T16:01:32.374Z</time></trkpt><trkpt lat="45.9084291" lon="8.6641918"><ele>506.25</ele><time>2026-03-22T16:01:33.374Z</time></trkpt><trkpt lat="45.908548" lon="8.6641093"><ele>518.5</ele><time>2026-03-22T16:01:34.374Z</time></trkpt><trkpt lat="45.9086671" lon="8.6640123"><ele>530.75</ele><time>2026-03-22T16:01:35.374Z</time></trkpt><trkpt lat="45.9087957" lon="8.6639276"><ele>543.0</ele><time>2026-03-22T16:01:36.374Z</time></trkpt><trkpt lat="45.9089149" lon="8.663839"><ele>543.0</ele><time>2026-03-22T16:01:37.374Z</time></trkpt><trkpt lat="45.9090221" lon="8.6637571"><ele>543.0</ele><time>2026-03-22T16:01:38.374Z</time></trkpt><trkpt lat="45.9091137" lon="8.6636932"><ele>543.0</ele><time>2026-03-22T16:01:39.374Z</time></trkpt><trkpt lat="45.9091875" lon="8.6636352"><ele>543.0</ele><time>2026-03-22T16:01:40.374Z</time></trkpt><trkpt lat="45.909242" lon="8.6635766"><ele>543.0</ele><time>2026-03-22T16:01:41.374Z</time></trkpt><trkpt lat="45.909271" lon="8.6634935"><ele>543.0</ele><time>2026-03-22T16:01:42.374Z</time></trkpt><trkpt lat="45.9092875" lon="8.6633837"><ele>549.0</ele><time>2026-03-22T16:01:43.374Z</time></trkpt><trkpt lat="45.9093132" lon="8.6632567"><ele>555.0</ele><time>2026-03-22T16:01:44.374Z</time></trkpt><trkpt lat="45.9093557" lon="8.6631301"><ele>561.0</ele><time>2026-03-22T16:01:45.374Z</time></trkpt><trkpt lat="45.9094247" lon="8.6630171"><ele>567.0</ele><time>2026-03-22T16:01:46.374Z</time></trkpt><trkpt lat="45.90951" lon="8.662904"><ele>573.0</ele><time>2026-03-22T16:01:47.374Z</time></trkpt><trkpt lat="45.9095937" lon="8.662785"><ele>566.0</ele><time>2026-03-22T16:01:48.374Z</time></trkpt><trkpt lat="45.9096648" lon="8.6626605"><ele>559.0</ele><time>2026-03-22T16:01:49.374Z</time></trkpt><trkpt lat="45.9097286" lon="8.6625093"><ele>552.0</ele><time>2026-03-22T16:01:50.374Z</time></trkpt><trkpt lat="45.9097857" lon="8.6623467"><ele>545.0</ele><time>2026-03-22T16:01:51.374Z</time></trkpt><trkpt lat="45.9098354" lon="8.6621699"><ele>545.0</ele><time>2026-03-22T16:01:52.374Z</time></trkpt><trkpt lat="45.9098652" lon="8.6619975"><ele>545.0</ele><time>2026-03-22T16:01:53.374Z</time></trkpt><trkpt lat="45.9098832" lon="8.6618486"><ele>545.0</ele><time>2026-03-22T16:01:54.374Z</time></trkpt><trkpt lat="45.9099017" lon="8.6617383"><ele>545.0</ele><time>2026-03-22T16:01:55.374Z</time></trkpt><trkpt lat="45.9099383" lon="8.6616417"><ele>545.0</ele><time>2026-03-22T16:01:56.374Z</time></trkpt><trkpt lat="45.90999" lon="8.6615533"><ele>543.0</ele><time>2026-03-22T16:01:57.374Z</time></trkpt><trkpt lat="45.910075" lon="8.6614433"><ele>541.0</ele><time>2026-03-22T16:01:58.374Z</time></trkpt><trkpt lat="45.9101567" lon="8.6613633"><ele>539.0</ele><time>2026-03-22T16:01:59.374Z</time></trkpt><trkpt lat="45.9102533" lon="8.6613267"><ele>537.0</ele><time>2026-03-22T16:02:00.374Z</time></trkpt><trkpt lat="45.910335" lon="8.6613183"><ele>535.0</ele><time>2026-03-22T16:02:01.374Z</time></trkpt><trkpt lat="45.9104083" lon="8.66134"><ele>535.0</ele><time>2026-03-22T16:02:02.374Z</time></trkpt><trkpt lat="45.91047" lon="8.66138"><ele>535.0</ele><time>2026-03-22T16:02:03.374Z</time></trkpt><trkpt lat="45.9105233" lon="8.66145"><ele>535.0</ele><time>2026-03-22T16:02:04.374Z</time></trkpt><trkpt lat="45.910575" lon="8.6615367"><ele>535.0</ele><time>2026-03-22T16:02:05.374Z</time></trkpt><trkpt lat="45.910635" lon="8.6616583"><ele>535.0</ele><time>2026-03-22T16:02:06.374Z</time></trkpt><trkpt lat="45.9107" lon="8.6617767"><ele>535.0</ele><time>2026-03-22T16:02:07.374Z</time></trkpt><trkpt lat="45.9107733" lon="8.66189"><ele>541.3333333333334</ele><time>2026-03-22T16:02:08.374Z</time></trkpt><trkpt lat="45.9108567" lon="8.66199"><ele>547.6666666666667</ele><time>2026-03-22T16:02:09.374Z</time></trkpt><trkpt lat="45.9109417" lon="8.6620667"><ele>554.0</ele><time>2026-03-22T16:02:10.374Z</time></trkpt><trkpt lat="45.9110217" lon="8.66211"><ele>560.3333333333334</ele><time>2026-03-22T16:02:11.374Z</time></trkpt><trkpt lat="45.9111033" lon="8.6621267"><ele>566.6666666666666</ele><time>2026-03-22T16:02:12.374Z</time></trkpt><trkpt lat="45.911175" lon="8.66212"><ele>573.0</ele><time>2026-03-22T16:02:13.374Z</time></trkpt><trkpt lat="45.9112467" lon="8.6620833"><ele>571.1999999999999</ele><time>2026-03-22T16:02:14.374Z</time></trkpt><trkpt lat="45.9113117" lon="8.6620233"><ele>569.4</ele><time>2026-03-22T16:02:15.374Z</time></trkpt><trkpt lat="45.91136" lon="8.6619367"><ele>567.5999999999999</ele><time>2026-03-22T16:02:16.374Z</time></trkpt><trkpt lat="45.9113983" lon="8.6618167"><ele>565.8</ele><time>2026-03-22T16:02:17.374Z</time></trkpt><trkpt lat="45.91143" lon="8.6616683"><ele>564.0</ele><time>2026-03-22T16:02:18.374Z</time></trkpt><trkpt lat="45.911475" lon="8.6615283"><ele>564.0</ele><time>2026-03-22T16:02:19.374Z</time></trkpt><trkpt lat="45.9115467" lon="8.661405"><ele>564.0</ele><time>2026-03-22T16:02:20.374Z</time></trkpt><trkpt lat="45.9116167" lon="8.6612817"><ele>564.0</ele><time>2026-03-22T16:02:21.374Z</time></trkpt><trkpt lat="45.9116867" lon="8.66119"><ele>564.0</ele><time>2026-03-22T16:02:22.374Z</time></trkpt><trkpt lat="45.911745" lon="8.6611017"><ele>564.0</ele><time>2026-03-22T16:02:23.374Z</time></trkpt><trkpt lat="45.9117833" lon="8.661015"><ele>565.8333333333334</ele><time>2026-03-22T16:02:24.374Z</time></trkpt><trkpt lat="45.911795" lon="8.6609083"><ele>567.6666666666666</ele><time>2026-03-22T16:02:25.374Z</time></trkpt><trkpt lat="45.9117917" lon="8.66078"><ele>569.5</ele><time>2026-03-22T16:02:26.374Z</time></trkpt><trkpt lat="45.9117917" lon="8.660655"><ele>571.3333333333333</ele><time>2026-03-22T16:02:27.374Z</time></trkpt><trkpt lat="45.911815" lon="8.660535"><ele>573.1666666666666</ele><time>2026-03-22T16:02:28.374Z</time></trkpt><trkpt lat="45.9118467" lon="8.6604467"><ele>575.0</ele><time>2026-03-22T16:02:29.374Z</time></trkpt><trkpt lat="45.9119467" lon="8.6603783"><ele>575.0</ele><time>2026-03-22T16:02:31.374Z</time></trkpt><trkpt lat="45.9120567" lon="8.6604833"><ele>575.0</ele><time>2026-03-22T16:02:33.374Z</time></trkpt><trkpt lat="45.9121267" lon="8.66057"><ele>575.0</ele><time>2026-03-22T16:02:34.374Z</time></trkpt><trkpt lat="45.9122183" lon="8.6606833"><ele>575.0</ele><time>2026-03-22T16:02:35.374Z</time></trkpt><trkpt lat="45.9123067" lon="8.6607717"><ele>575.0</ele><time>2026-03-22T16:02:36.374Z</time></trkpt><trkpt lat="45.9123933" lon="8.66083"><ele>575.0</ele><time>2026-03-22T16:02:37.374Z</time></trkpt><trkpt lat="45.91246" lon="8.6608517"><ele>575.0</ele><time>2026-03-22T16:02:38.374Z</time></trkpt><trkpt lat="45.9125183" lon="8.6607317"><ele>575.0</ele><time>2026-03-22T16:02:40.374Z</time></trkpt><trkpt lat="45.9125367" lon="8.6606233"><ele>575.0</ele><time>2026-03-22T16:02:41.374Z</time></trkpt><trkpt lat="45.9125683" lon="8.6605133"><ele>575.0</ele><time>2026-03-22T16:02:42.374Z</time></trkpt><trkpt lat="45.9126083" lon="8.660395"><ele>581.0</ele><time>2026-03-22T16:02:43.374Z</time></trkpt><trkpt lat="45.9126233" lon="8.6602617"><ele>587.0</ele><time>2026-03-22T16:02:44.374Z</time></trkpt><trkpt lat="45.9126317" lon="8.6601117"><ele>593.0</ele><time>2026-03-22T16:02:45.374Z</time></trkpt><trkpt lat="45.9126217" lon="8.6599583"><ele>599.0</ele><time>2026-03-22T16:02:46.374Z</time></trkpt><trkpt lat="45.91261" lon="8.6598183"><ele>605.0</ele><time>2026-03-22T16:02:47.374Z</time></trkpt><trkpt lat="45.912615" lon="8.659695"><ele>605.0</ele><time>2026-03-22T16:02:48.374Z</time></trkpt><trkpt lat="45.9126433" lon="8.6595983"><ele>605.0</ele><time>2026-03-22T16:02:49.374Z</time></trkpt><trkpt lat="45.9126883" lon="8.6595133"><ele>605.0</ele><time>2026-03-22T16:02:50.374Z</time></trkpt><trkpt lat="45.9127533" lon="8.659425"><ele>605.0</ele><time>2026-03-22T16:02:51.374Z</time></trkpt><trkpt lat="45.9128233" lon="8.6593283"><ele>605.0</ele><time>2026-03-22T16:02:52.374Z</time></trkpt><trkpt lat="45.91289" lon="8.659225"><ele>605.0</ele><time>2026-03-22T16:02:53.374Z</time></trkpt><trkpt lat="45.912965" lon="8.6591467"><ele>604.0</ele><time>2026-03-22T16:02:54.374Z</time></trkpt><trkpt lat="45.9130467" lon="8.6590917"><ele>603.0</ele><time>2026-03-22T16:02:55.374Z</time></trkpt><trkpt lat="45.9131333" lon="8.6590433"><ele>602.0</ele><time>2026-03-22T16:02:56.374Z</time></trkpt><trkpt lat="45.9132083" lon="8.6589783"><ele>601.0</ele><time>2026-03-22T16:02:57.374Z</time></trkpt><trkpt lat="45.9132633" lon="8.6588983"><ele>600.0</ele><time>2026-03-22T16:02:58.374Z</time></trkpt><trkpt lat="45.9133067" lon="8.6587917"><ele>599.0</ele><time>2026-03-22T16:02:59.374Z</time></trkpt><trkpt lat="45.9133217" lon="8.658665"><ele>600.0</ele><time>2026-03-22T16:03:00.374Z</time></trkpt><trkpt lat="45.91331" lon="8.6585317"><ele>601.0</ele><time>2026-03-22T16:03:01.374Z</time></trkpt><trkpt lat="45.9132767" lon="8.65841"><ele>602.0</ele><time>2026-03-22T16:03:02.374Z</time></trkpt><trkpt lat="45.91321" lon="8.6583"><ele>603.0</ele><time>2026-03-22T16:03:03.374Z</time></trkpt><trkpt lat="45.91313" lon="8.6582117"><ele>604.0</ele><time>2026-03-22T16:03:04.374Z</time></trkpt><trkpt lat="45.9130433" lon="8.6581183"><ele>604.0</ele><time>2026-03-22T16:03:05.374Z</time></trkpt><trkpt lat="45.9129617" lon="8.6580267"><ele>604.0</ele><time>2026-03-22T16:03:06.374Z</time></trkpt><trkpt lat="45.9129" lon="8.657935"><ele>604.0</ele><time>2026-03-22T16:03:07.374Z</time></trkpt><trkpt lat="45.912855" lon="8.6578267"><ele>604.0</ele><time>2026-03-22T16:03:08.374Z</time></trkpt><trkpt lat="45.9128467" lon="8.6577233"><ele>604.0</ele><time>2026-03-22T16:03:09.374Z</time></trkpt><trkpt lat="45.9128617" lon="8.6576067"><ele>604.0</ele><time>2026-03-22T16:03:10.374Z</time></trkpt><trkpt lat="45.91289" lon="8.6574883"><ele>604.8</ele><time>2026-03-22T16:03:11.374Z</time></trkpt><trkpt lat="45.9129467" lon="8.6573617"><ele>605.5999999999999</ele><time>2026-03-22T16:03:12.374Z</time></trkpt><trkpt lat="45.9130133" lon="8.657265"><ele>606.4</ele><time>2026-03-22T16:03:13.374Z</time></trkpt><trkpt lat="45.9130883" lon="8.65718"><ele>607.1999999999999</ele><time>2026-03-22T16:03:14.374Z</time></trkpt><trkpt lat="45.913185" lon="8.6571233"><ele>608.0</ele><time>2026-03-22T16:03:15.374Z</time></trkpt><trkpt lat="45.9132867" lon="8.6570533"><ele>605.25</ele><time>2026-03-22T16:03:16.374Z</time></trkpt><trkpt lat="45.9133783" lon="8.6569417"><ele>602.5</ele><time>2026-03-22T16:03:17.374Z</time></trkpt><trkpt lat="45.9134633" lon="8.6568067"><ele>599.75</ele><time>2026-03-22T16:03:18.374Z</time></trkpt><trkpt lat="45.913545" lon="8.6566433"><ele>597.0</ele><time>2026-03-22T16:03:19.375Z</time></trkpt><trkpt lat="45.9136283" lon="8.6564817"><ele>602.2</ele><time>2026-03-22T16:03:20.374Z</time></trkpt><trkpt lat="45.9137083" lon="8.6563517"><ele>607.4000000000001</ele><time>2026-03-22T16:03:21.374Z</time></trkpt><trkpt lat="45.913795" lon="8.6562567"><ele>612.5999999999999</ele><time>2026-03-22T16:03:22.374Z</time></trkpt><trkpt lat="45.91388" lon="8.6562"><ele>617.8</ele><time>2026-03-22T16:03:23.374Z</time></trkpt><trkpt lat="45.913965" lon="8.6561733"><ele>623.0</ele><time>2026-03-22T16:03:24.374Z</time></trkpt><trkpt lat="45.9140483" lon="8.6561717"><ele>623.0</ele><time>2026-03-22T16:03:25.375Z</time></trkpt><trkpt lat="45.91414" lon="8.65619"><ele>623.0</ele><time>2026-03-22T16:03:26.374Z</time></trkpt><trkpt lat="45.9142283" lon="8.656205"><ele>623.0</ele><time>2026-03-22T16:03:27.374Z</time></trkpt><trkpt lat="45.9142967" lon="8.6561883"><ele>623.0</ele><time>2026-03-22T16:03:28.374Z</time></trkpt><trkpt lat="45.91436" lon="8.656155"><ele>623.0</ele><time>2026-03-22T16:03:29.374Z</time></trkpt><trkpt lat="45.91438" lon="8.656055"><ele>623.0</ele><time>2026-03-22T16:03:30.374Z</time></trkpt><trkpt lat="45.9143983" lon="8.6559417"><ele>620.8</ele><time>2026-03-22T16:03:31.374Z</time></trkpt><trkpt lat="45.914415" lon="8.6558217"><ele>618.5999999999999</ele><time>2026-03-22T16:03:32.374Z</time></trkpt><trkpt lat="45.914445" lon="8.65569"><ele>616.4000000000001</ele><time>2026-03-22T16:03:33.374Z</time></trkpt><trkpt lat="45.91451" lon="8.655565"><ele>614.2</ele><time>2026-03-22T16:03:34.374Z</time></trkpt><trkpt lat="45.9145817" lon="8.6554683"><ele>612.0</ele><time>2026-03-22T16:03:35.374Z</time></trkpt><trkpt lat="45.914655" lon="8.6554033"><ele>612.0</ele><time>2026-03-22T16:03:36.374Z</time></trkpt><trkpt lat="45.9147367" lon="8.6553783"><ele>612.0</ele><time>2026-03-22T16:03:37.374Z</time></trkpt><trkpt lat="45.91482" lon="8.65538"><ele>612.0</ele><time>2026-03-22T16:03:38.374Z</time></trkpt><trkpt lat="45.9149117" lon="8.65541"><ele>612.0</ele><time>2026-03-22T16:03:39.374Z</time></trkpt><trkpt lat="45.91501" lon="8.655455"><ele>612.0</ele><time>2026-03-22T16:03:40.374Z</time></trkpt><trkpt lat="45.9150983" lon="8.6555317"><ele>614.0</ele><time>2026-03-22T16:03:41.374Z</time></trkpt><trkpt lat="45.9151783" lon="8.6556333"><ele>616.0</ele><time>2026-03-22T16:03:42.374Z</time></trkpt><trkpt lat="45.915235" lon="8.6557417"><ele>618.0</ele><time>2026-03-22T16:03:43.374Z</time></trkpt><trkpt lat="45.9152883" lon="8.6558483"><ele>620.0</ele><time>2026-03-22T16:03:44.374Z</time></trkpt><trkpt lat="45.91535" lon="8.65592"><ele>622.0</ele><time>2026-03-22T16:03:45.374Z</time></trkpt><trkpt lat="45.91544" lon="8.6559567"><ele>622.0</ele><time>2026-03-22T16:03:46.374Z</time></trkpt><trkpt lat="45.9155333" lon="8.65595"><ele>622.0</ele><time>2026-03-22T16:03:47.374Z</time></trkpt><trkpt lat="45.9156383" lon="8.65594"><ele>622.0</ele><time>2026-03-22T16:03:48.374Z</time></trkpt><trkpt lat="45.915755" lon="8.6558983"><ele>622.0</ele><time>2026-03-22T16:03:49.374Z</time></trkpt><trkpt lat="45.9158783" lon="8.6558317"><ele>623.0</ele><time>2026-03-22T16:03:50.374Z</time></trkpt><trkpt lat="45.9159967" lon="8.6557433"><ele>624.0</ele><time>2026-03-22T16:03:51.374Z</time></trkpt><trkpt lat="45.916105" lon="8.6556883"><ele>625.0</ele><time>2026-03-22T16:03:52.374Z</time></trkpt><trkpt lat="45.9162083" lon="8.65567"><ele>626.0</ele><time>2026-03-22T16:03:53.374Z</time></trkpt><trkpt lat="45.9163133" lon="8.6556817"><ele>626.0</ele><time>2026-03-22T16:03:54.374Z</time></trkpt><trkpt lat="45.916425" lon="8.6557117"><ele>626.0</ele><time>2026-03-22T16:03:55.374Z</time></trkpt><trkpt lat="45.9165283" lon="8.6557533"><ele>626.0</ele><time>2026-03-22T16:03:56.374Z</time></trkpt><trkpt lat="45.9166167" lon="8.6557933"><ele>626.0</ele><time>2026-03-22T16:03:57.374Z</time></trkpt><trkpt lat="45.9167017" lon="8.6558017"><ele>626.0</ele><time>2026-03-22T16:03:58.374Z</time></trkpt><trkpt lat="45.9167733" lon="8.6557867"><ele>630.1666666666666</ele><time>2026-03-22T16:03:59.374Z</time></trkpt><trkpt lat="45.9168317" lon="8.6557383"><ele>634.3333333333333</ele><time>2026-03-22T16:04:00.374Z</time></trkpt><trkpt lat="45.9168683" lon="8.6556433"><ele>638.5</ele><time>2026-03-22T16:04:01.374Z</time></trkpt><trkpt lat="45.9168933" lon="8.6555233"><ele>642.6666666666666</ele><time>2026-03-22T16:04:02.374Z</time></trkpt><trkpt lat="45.916935" lon="8.655395"><ele>646.8333333333334</ele><time>2026-03-22T16:04:03.374Z</time></trkpt><trkpt lat="45.916995" lon="8.6552733"><ele>651.0</ele><time>2026-03-22T16:04:04.374Z</time></trkpt><trkpt lat="45.91707" lon="8.6551433"><ele>651.0</ele><time>2026-03-22T16:04:05.374Z</time></trkpt><trkpt lat="45.9171333" lon="8.6550017"><ele>651.0</ele><time>2026-03-22T16:04:06.374Z</time></trkpt><trkpt lat="45.9171733" lon="8.6548367"><ele>651.0</ele><time>2026-03-22T16:04:07.374Z</time></trkpt><trkpt lat="45.91721" lon="8.654685"><ele>651.0</ele><time>2026-03-22T16:04:08.375Z</time></trkpt><trkpt lat="45.9172433" lon="8.65456"><ele>651.0</ele><time>2026-03-22T16:04:09.374Z</time></trkpt><trkpt lat="45.9172967" lon="8.65447"><ele>649.8</ele><time>2026-03-22T16:04:10.374Z</time></trkpt><trkpt lat="45.9173567" lon="8.6544083"><ele>648.5999999999999</ele><time>2026-03-22T16:04:11.374Z</time></trkpt><trkpt lat="45.91743" lon="8.6543617"><ele>647.4</ele><time>2026-03-22T16:04:12.374Z</time></trkpt><trkpt lat="45.917515" lon="8.6543133"><ele>646.2</ele><time>2026-03-22T16:04:13.374Z</time></trkpt><trkpt lat="45.9176217" lon="8.654265"><ele>645.0</ele><time>2026-03-22T16:04:14.374Z</time></trkpt><trkpt lat="45.917745" lon="8.6542217"><ele>645.0</ele><time>2026-03-22T16:04:15.374Z</time></trkpt><trkpt lat="45.9178633" lon="8.6541617"><ele>645.0</ele><time>2026-03-22T16:04:16.374Z</time></trkpt><trkpt lat="45.9179817" lon="8.65411"><ele>645.0</ele><time>2026-03-22T16:04:17.374Z</time></trkpt><trkpt lat="45.9181017" lon="8.6540733"><ele>645.0</ele><time>2026-03-22T16:04:18.374Z</time></trkpt><trkpt lat="45.918215" lon="8.6540517"><ele>645.0</ele><time>2026-03-22T16:04:19.374Z</time></trkpt><trkpt lat="45.9183133" lon="8.6540467"><ele>645.0</ele><time>2026-03-22T16:04:20.374Z</time></trkpt><trkpt lat="45.9183917" lon="8.6540633"><ele>645.0</ele><time>2026-03-22T16:04:21.374Z</time></trkpt><trkpt lat="45.9184533" lon="8.6540933"><ele>645.0</ele><time>2026-03-22T16:04:22.374Z</time></trkpt><trkpt lat="45.918515" lon="8.6541933"><ele>645.0</ele><time>2026-03-22T16:04:24.374Z</time></trkpt><trkpt lat="45.9184417" lon="8.654265"><ele>645.0</ele><time>2026-03-22T16:04:27.374Z</time></trkpt><trkpt lat="45.91831" lon="8.6542633"><ele>645.0</ele><time>2026-03-22T16:04:28.374Z</time></trkpt><trkpt lat="45.9181833" lon="8.65428"><ele>645.0</ele><time>2026-03-22T16:04:29.374Z</time></trkpt><trkpt lat="45.918055" lon="8.6543083"><ele>645.0</ele><time>2026-03-22T16:04:30.374Z</time></trkpt><trkpt lat="45.9179233" lon="8.65436"><ele>645.0</ele><time>2026-03-22T16:04:31.374Z</time></trkpt><trkpt lat="45.9178" lon="8.6544283"><ele>646.2</ele><time>2026-03-22T16:04:32.374Z</time></trkpt><trkpt lat="45.91768" lon="8.6545033"><ele>647.4</ele><time>2026-03-22T16:04:33.374Z</time></trkpt><trkpt lat="45.9176017" lon="8.6545367"><ele>648.5999999999999</ele><time>2026-03-22T16:04:34.375Z</time></trkpt><trkpt lat="45.9175417" lon="8.654625"><ele>649.8</ele><time>2026-03-22T16:04:36.374Z</time></trkpt><trkpt lat="45.9175917" lon="8.654685"><ele>651.0</ele><time>2026-03-22T16:04:38.374Z</time></trkpt><trkpt lat="45.9177033" lon="8.6546283"><ele>655.75</ele><time>2026-03-22T16:04:40.374Z</time></trkpt><trkpt lat="45.9177867" lon="8.6545717"><ele>660.5</ele><time>2026-03-22T16:04:41.374Z</time></trkpt><trkpt lat="45.9179033" lon="8.6545183"><ele>665.25</ele><time>2026-03-22T16:04:42.374Z</time></trkpt><trkpt lat="45.9180267" lon="8.6545133"><ele>670.0</ele><time>2026-03-22T16:04:43.374Z</time></trkpt><trkpt lat="45.9181483" lon="8.6545083"><ele>670.0</ele><time>2026-03-22T16:04:44.374Z</time></trkpt><trkpt lat="45.9182733" lon="8.6545267"><ele>670.0</ele><time>2026-03-22T16:04:45.374Z</time></trkpt><trkpt lat="45.91837" lon="8.654555"><ele>670.0</ele><time>2026-03-22T16:04:46.374Z</time></trkpt><trkpt lat="45.91845" lon="8.65462"><ele>670.0</ele><time>2026-03-22T16:04:47.374Z</time></trkpt><trkpt lat="45.9185383" lon="8.65473"><ele>670.0</ele><time>2026-03-22T16:04:48.374Z</time></trkpt><trkpt lat="45.918625" lon="8.65485"><ele>667.5</ele><time>2026-03-22T16:04:49.374Z</time></trkpt><trkpt lat="45.918705" lon="8.6549667"><ele>665.0</ele><time>2026-03-22T16:04:50.374Z</time></trkpt><trkpt lat="45.9187867" lon="8.655085"><ele>662.5</ele><time>2026-03-22T16:04:51.374Z</time></trkpt><trkpt lat="45.918885" lon="8.6551817"><ele>660.0</ele><time>2026-03-22T16:04:52.374Z</time></trkpt><trkpt lat="45.9189967" lon="8.65526"><ele>666.5</ele><time>2026-03-22T16:04:53.374Z</time></trkpt><trkpt lat="45.9191183" lon="8.65532"><ele>673.0</ele><time>2026-03-22T16:04:54.374Z</time></trkpt><trkpt lat="45.9192367" lon="8.6553617"><ele>679.5</ele><time>2026-03-22T16:04:55.374Z</time></trkpt><trkpt lat="45.9193583" lon="8.65539"><ele>686.0</ele><time>2026-03-22T16:04:56.374Z</time></trkpt><trkpt lat="45.9194717" lon="8.6554117"><ele>686.3333333333333</ele><time>2026-03-22T16:04:57.374Z</time></trkpt><trkpt lat="45.9195817" lon="8.655415"><ele>686.6666666666666</ele><time>2026-03-22T16:04:58.374Z</time></trkpt><trkpt lat="45.91969" lon="8.65541"><ele>687.0</ele><time>2026-03-22T16:04:59.374Z</time></trkpt><trkpt lat="45.9197633" lon="8.6553983"><ele>687.3333333333334</ele><time>2026-03-22T16:05:00.374Z</time></trkpt><trkpt lat="45.91983" lon="8.6554567"><ele>687.6666666666667</ele><time>2026-03-22T16:05:02.374Z</time></trkpt><trkpt lat="45.9197867" lon="8.6555367"><ele>688.0</ele><time>2026-03-22T16:05:04.374Z</time></trkpt><trkpt lat="45.919705" lon="8.65554"><ele>688.0</ele><time>2026-03-22T16:05:05.374Z</time></trkpt><trkpt lat="45.9196117" lon="8.6555233"><ele>688.0</ele><time>2026-03-22T16:05:06.374Z</time></trkpt><trkpt lat="45.9194967" lon="8.6555217"><ele>688.0</ele><time>2026-03-22T16:05:07.374Z</time></trkpt><trkpt lat="45.919375" lon="8.6555433"><ele>688.0</ele><time>2026-03-22T16:05:08.374Z</time></trkpt><trkpt lat="45.9192583" lon="8.6555567"><ele>688.0</ele><time>2026-03-22T16:05:09.374Z</time></trkpt><trkpt lat="45.9191317" lon="8.65554"><ele>687.5</ele><time>2026-03-22T16:05:10.374Z</time></trkpt><trkpt lat="45.91899" lon="8.6554983"><ele>687.0</ele><time>2026-03-22T16:05:11.374Z</time></trkpt><trkpt lat="45.91885" lon="8.6554417"><ele>686.5</ele><time>2026-03-22T16:05:12.374Z</time></trkpt><trkpt lat="45.9187267" lon="8.6553667"><ele>686.0</ele><time>2026-03-22T16:05:13.374Z</time></trkpt><trkpt lat="45.9186167" lon="8.6552883"><ele>683.3333333333333</ele><time>2026-03-22T16:05:14.374Z</time></trkpt><trkpt lat="45.9185283" lon="8.6552033"><ele>680.6666666666666</ele><time>2026-03-22T16:05:15.374Z</time></trkpt><trkpt lat="45.9184617" lon="8.655125"><ele>678.0</ele><time>2026-03-22T16:05:16.374Z</time></trkpt><trkpt lat="45.9184083" lon="8.6550767"><ele>675.3333333333334</ele><time>2026-03-22T16:05:17.374Z</time></trkpt><trkpt lat="45.9183333" lon="8.6550767"><ele>672.6666666666667</ele><time>2026-03-22T16:05:19.374Z</time></trkpt><trkpt lat="45.9183633" lon="8.65517"><ele>670.0</ele><time>2026-03-22T16:05:21.374Z</time></trkpt><trkpt lat="45.91846" lon="8.6552783"><ele>672.6666666666667</ele><time>2026-03-22T16:05:23.374Z</time></trkpt><trkpt lat="45.918515" lon="8.65535"><ele>675.3333333333334</ele><time>2026-03-22T16:05:24.374Z</time></trkpt><trkpt lat="45.9185783" lon="8.65542"><ele>678.0</ele><time>2026-03-22T16:05:25.374Z</time></trkpt><trkpt lat="45.9186517" lon="8.655485"><ele>680.6666666666666</ele><time>2026-03-22T16:05:26.374Z</time></trkpt><trkpt lat="45.918735" lon="8.6555483"><ele>683.3333333333333</ele><time>2026-03-22T16:05:27.374Z</time></trkpt><trkpt lat="45.9188267" lon="8.65562"><ele>686.0</ele><time>2026-03-22T16:05:28.374Z</time></trkpt><trkpt lat="45.91892" lon="8.65571"><ele>686.0</ele><time>2026-03-22T16:05:29.374Z</time></trkpt><trkpt lat="45.919015" lon="8.6558033"><ele>686.0</ele><time>2026-03-22T16:05:30.374Z</time></trkpt><trkpt lat="45.9191033" lon="8.6559017"><ele>686.0</ele><time>2026-03-22T16:05:31.374Z</time></trkpt><trkpt lat="45.9191767" lon="8.655995"><ele>686.0</ele><time>2026-03-22T16:05:32.374Z</time></trkpt><trkpt lat="45.9192333" lon="8.6560867"><ele>686.0</ele><time>2026-03-22T16:05:33.374Z</time></trkpt><trkpt lat="45.919295" lon="8.6561433"><ele>686.4</ele><time>2026-03-22T16:05:34.374Z</time></trkpt><trkpt lat="45.9194083" lon="8.65611"><ele>686.8</ele><time>2026-03-22T16:05:36.374Z</time></trkpt><trkpt lat="45.9194783" lon="8.6560683"><ele>687.1999999999999</ele><time>2026-03-22T16:05:37.374Z</time></trkpt><trkpt lat="45.919555" lon="8.656055"><ele>687.5999999999999</ele><time>2026-03-22T16:05:38.374Z</time></trkpt><trkpt lat="45.9196383" lon="8.65608"><ele>688.0</ele><time>2026-03-22T16:05:39.374Z</time></trkpt><trkpt lat="45.9197267" lon="8.656135"><ele>692.5999999999999</ele><time>2026-03-22T16:05:40.374Z</time></trkpt><trkpt lat="45.9198217" lon="8.6562033"><ele>697.1999999999999</ele><time>2026-03-22T16:05:41.374Z</time></trkpt><trkpt lat="45.9199167" lon="8.656235"><ele>701.8</ele><time>2026-03-22T16:05:42.374Z</time></trkpt><trkpt lat="45.920005" lon="8.6562333"><ele>706.4</ele><time>2026-03-22T16:05:43.374Z</time></trkpt><trkpt lat="45.9200817" lon="8.65618"><ele>711.0</ele><time>2026-03-22T16:05:44.374Z</time></trkpt><trkpt lat="45.9201667" lon="8.6560967"><ele>711.3333333333334</ele><time>2026-03-22T16:05:45.374Z</time></trkpt><trkpt lat="45.9202383" lon="8.6560183"><ele>711.6666666666666</ele><time>2026-03-22T16:05:46.374Z</time></trkpt><trkpt lat="45.9203033" lon="8.6559867"><ele>712.0</ele><time>2026-03-22T16:05:47.374Z</time></trkpt><trkpt lat="45.9203767" lon="8.655995"><ele>712.3333333333333</ele><time>2026-03-22T16:05:48.374Z</time></trkpt><trkpt lat="45.9204483" lon="8.65602"><ele>712.6666666666666</ele><time>2026-03-22T16:05:49.374Z</time></trkpt><trkpt lat="45.92055" lon="8.6561"><ele>713.0</ele><time>2026-03-22T16:05:50.374Z</time></trkpt><trkpt lat="45.9206617" lon="8.6561983"><ele>713.5</ele><time>2026-03-22T16:05:51.374Z</time></trkpt><trkpt lat="45.9207617" lon="8.6563117"><ele>714.0</ele><time>2026-03-22T16:05:52.374Z</time></trkpt><trkpt lat="45.9208483" lon="8.6564183"><ele>714.5</ele><time>2026-03-22T16:05:53.374Z</time></trkpt><trkpt lat="45.920935" lon="8.6565583"><ele>715.0</ele><time>2026-03-22T16:05:54.374Z</time></trkpt><trkpt lat="45.9210267" lon="8.6566883"><ele>717.2</ele><time>2026-03-22T16:05:55.374Z</time></trkpt><trkpt lat="45.9211" lon="8.6567933"><ele>719.4</ele><time>2026-03-22T16:05:56.374Z</time></trkpt><trkpt lat="45.9211783" lon="8.6568567"><ele>721.5999999999999</ele><time>2026-03-22T16:05:57.374Z</time></trkpt><trkpt lat="45.92124" lon="8.6568833"><ele>723.8</ele><time>2026-03-22T16:05:58.374Z</time></trkpt><trkpt lat="45.9212933" lon="8.6567883"><ele>726.0</ele><time>2026-03-22T16:06:01.374Z</time></trkpt><trkpt lat="45.9212183" lon="8.6566017"><ele>726.0</ele><time>2026-03-22T16:06:03.374Z</time></trkpt><trkpt lat="45.9211683" lon="8.6564717"><ele>726.0</ele><time>2026-03-22T16:06:04.374Z</time></trkpt><trkpt lat="45.9211217" lon="8.6563133"><ele>726.0</ele><time>2026-03-22T16:06:05.374Z</time></trkpt><trkpt lat="45.9210867" lon="8.656145"><ele>726.0</ele><time>2026-03-22T16:06:06.374Z</time></trkpt><trkpt lat="45.92105" lon="8.655995"><ele>727.8</ele><time>2026-03-22T16:06:07.374Z</time></trkpt><trkpt lat="45.9209983" lon="8.655855"><ele>729.5999999999999</ele><time>2026-03-22T16:06:08.374Z</time></trkpt><trkpt lat="45.9209633" lon="8.6557083"><ele>731.4</ele><time>2026-03-22T16:06:09.374Z</time></trkpt><trkpt lat="45.920955" lon="8.6555567"><ele>733.2</ele><time>2026-03-22T16:06:10.374Z</time></trkpt><trkpt lat="45.92096" lon="8.65544"><ele>735.0</ele><time>2026-03-22T16:06:11.374Z</time></trkpt><trkpt lat="45.9209733" lon="8.65534"><ele>735.1666666666666</ele><time>2026-03-22T16:06:12.374Z</time></trkpt><trkpt lat="45.9210483" lon="8.6552317"><ele>735.3333333333334</ele><time>2026-03-22T16:06:14.374Z</time></trkpt><trkpt lat="45.92111" lon="8.6552117"><ele>735.5</ele><time>2026-03-22T16:06:15.374Z</time></trkpt><trkpt lat="45.921185" lon="8.6552017"><ele>735.6666666666667</ele><time>2026-03-22T16:06:16.374Z</time></trkpt><trkpt lat="45.9212533" lon="8.6551767"><ele>735.8333333333334</ele><time>2026-03-22T16:06:17.374Z</time></trkpt><trkpt lat="45.9212883" lon="8.6550533"><ele>736.0</ele><time>2026-03-22T16:06:19.374Z</time></trkpt><trkpt lat="45.9212083" lon="8.6549617"><ele>736.0</ele><time>2026-03-22T16:06:21.374Z</time></trkpt><trkpt lat="45.9211267" lon="8.6549333"><ele>736.0</ele><time>2026-03-22T16:06:22.374Z</time></trkpt><trkpt lat="45.9210333" lon="8.6549067"><ele>736.0</ele><time>2026-03-22T16:06:23.374Z</time></trkpt><trkpt lat="45.9209483" lon="8.6548833"><ele>736.0</ele><time>2026-03-22T16:06:24.374Z</time></trkpt><trkpt lat="45.9208867" lon="8.6548283"><ele>736.0</ele><time>2026-03-22T16:06:25.374Z</time></trkpt><trkpt lat="45.920855" lon="8.654745"><ele>736.0</ele><time>2026-03-22T16:06:26.374Z</time></trkpt><trkpt lat="45.9208617" lon="8.65464"><ele>736.0</ele><time>2026-03-22T16:06:27.374Z</time></trkpt><trkpt lat="45.9209" lon="8.6545083"><ele>736.0</ele><time>2026-03-22T16:06:28.374Z</time></trkpt><trkpt lat="45.9209533" lon="8.6543533"><ele>736.0</ele><time>2026-03-22T16:06:29.374Z</time></trkpt><trkpt lat="45.9210167" lon="8.65418"><ele>736.0</ele><time>2026-03-22T16:06:30.374Z</time></trkpt><trkpt lat="45.9210817" lon="8.6540083"><ele>737.25</ele><time>2026-03-22T16:06:31.374Z</time></trkpt><trkpt lat="45.9211483" lon="8.653855"><ele>738.5</ele><time>2026-03-22T16:06:32.374Z</time></trkpt><trkpt lat="45.9212117" lon="8.6537183"><ele>739.75</ele><time>2026-03-22T16:06:33.374Z</time></trkpt><trkpt lat="45.9212683" lon="8.6535683"><ele>741.0</ele><time>2026-03-22T16:06:34.374Z</time></trkpt><trkpt lat="45.9213167" lon="8.6533867"><ele>741.0</ele><time>2026-03-22T16:06:35.374Z</time></trkpt><trkpt lat="45.921365" lon="8.653185"><ele>741.0</ele><time>2026-03-22T16:06:36.374Z</time></trkpt><trkpt lat="45.9214033" lon="8.6529933"><ele>741.0</ele><time>2026-03-22T16:06:37.374Z</time></trkpt><trkpt lat="45.9214417" lon="8.6528267"><ele>741.0</ele><time>2026-03-22T16:06:38.374Z</time></trkpt><trkpt lat="45.9214833" lon="8.6526767"><ele>741.0</ele><time>2026-03-22T16:06:39.374Z</time></trkpt><trkpt lat="45.9215367" lon="8.6525367"><ele>741.0</ele><time>2026-03-22T16:06:40.374Z</time></trkpt><trkpt lat="45.9215917" lon="8.6524"><ele>741.0</ele><time>2026-03-22T16:06:41.374Z</time></trkpt><trkpt lat="45.9216367" lon="8.652255"><ele>741.0</ele><time>2026-03-22T16:06:42.374Z</time></trkpt><trkpt lat="45.9216683" lon="8.652115"><ele>741.0</ele><time>2026-03-22T16:06:43.374Z</time></trkpt><trkpt lat="45.9216967" lon="8.6519817"><ele>741.0</ele><time>2026-03-22T16:06:44.374Z</time></trkpt><trkpt lat="45.9217267" lon="8.6518717"><ele>741.0</ele><time>2026-03-22T16:06:45.374Z</time></trkpt><trkpt lat="45.92176" lon="8.651715"><ele>741.0</ele><time>2026-03-22T16:06:47.374Z</time></trkpt><trkpt lat="45.9217367" lon="8.6515733"><ele>741.0</ele><time>2026-03-22T16:06:49.374Z</time></trkpt><trkpt lat="45.9216733" lon="8.6514017"><ele>741.0</ele><time>2026-03-22T16:06:51.374Z</time></trkpt><trkpt lat="45.9216467" lon="8.6512767"><ele>741.0</ele><time>2026-03-22T16:06:52.374Z</time></trkpt><trkpt lat="45.9216333" lon="8.65113"><ele>741.0</ele><time>2026-03-22T16:06:53.374Z</time></trkpt><trkpt lat="45.921625" lon="8.6509733"><ele>741.0</ele><time>2026-03-22T16:06:54.374Z</time></trkpt><trkpt lat="45.9216217" lon="8.6508133"><ele>741.0</ele><time>2026-03-22T16:06:55.374Z</time></trkpt><trkpt lat="45.92162" lon="8.65065"><ele>741.0</ele><time>2026-03-22T16:06:56.374Z</time></trkpt><trkpt lat="45.9216167" lon="8.650495"><ele>741.4</ele><time>2026-03-22T16:06:57.374Z</time></trkpt><trkpt lat="45.9216167" lon="8.65034"><ele>741.8</ele><time>2026-03-22T16:06:58.374Z</time></trkpt><trkpt lat="45.9216183" lon="8.6501883"><ele>742.1999999999999</ele><time>2026-03-22T16:06:59.374Z</time></trkpt><trkpt lat="45.921625" lon="8.6500517"><ele>742.5999999999999</ele><time>2026-03-22T16:07:00.374Z</time></trkpt><trkpt lat="45.9216367" lon="8.6499233"><ele>743.0</ele><time>2026-03-22T16:07:01.374Z</time></trkpt><trkpt lat="45.9216567" lon="8.6498133"><ele>743.0</ele><time>2026-03-22T16:07:02.374Z</time></trkpt><trkpt lat="45.921685" lon="8.6497167"><ele>743.0</ele><time>2026-03-22T16:07:03.374Z</time></trkpt><trkpt lat="45.92173" lon="8.649625"><ele>743.0</ele><time>2026-03-22T16:07:04.374Z</time></trkpt><trkpt lat="45.9217833" lon="8.64954"><ele>743.0</ele><time>2026-03-22T16:07:05.374Z</time></trkpt><trkpt lat="45.9218333" lon="8.6494683"><ele>743.0</ele><time>2026-03-22T16:07:06.374Z</time></trkpt><trkpt lat="45.9218783" lon="8.64933"><ele>743.0</ele><time>2026-03-22T16:07:08.374Z</time></trkpt><trkpt lat="45.9218083" lon="8.64919"><ele>742.8</ele><time>2026-03-22T16:07:10.374Z</time></trkpt><trkpt lat="45.92176" lon="8.64911"><ele>742.5999999999999</ele><time>2026-03-22T16:07:11.374Z</time></trkpt><trkpt lat="45.9217233" lon="8.6490167"><ele>742.4000000000001</ele><time>2026-03-22T16:07:12.374Z</time></trkpt><trkpt lat="45.92169" lon="8.648905"><ele>742.2</ele><time>2026-03-22T16:07:13.374Z</time></trkpt><trkpt lat="45.92167" lon="8.6487517"><ele>742.0</ele><time>2026-03-22T16:07:14.374Z</time></trkpt><trkpt lat="45.9216583" lon="8.6485933"><ele>743.4000000000001</ele><time>2026-03-22T16:07:15.374Z</time></trkpt><trkpt lat="45.92165" lon="8.6484333"><ele>744.8000000000001</ele><time>2026-03-22T16:07:16.374Z</time></trkpt><trkpt lat="45.9216433" lon="8.6482867"><ele>746.2</ele><time>2026-03-22T16:07:17.374Z</time></trkpt><trkpt lat="45.92163" lon="8.6481483"><ele>747.6</ele><time>2026-03-22T16:07:18.374Z</time></trkpt><trkpt lat="45.92161" lon="8.648015"><ele>749.0</ele><time>2026-03-22T16:07:19.374Z</time></trkpt><trkpt lat="45.9215967" lon="8.64789"><ele>749.5</ele><time>2026-03-22T16:07:20.374Z</time></trkpt><trkpt lat="45.921575" lon="8.6477683"><ele>750.0</ele><time>2026-03-22T16:07:21.374Z</time></trkpt><trkpt lat="45.9215567" lon="8.647655"><ele>750.5</ele><time>2026-03-22T16:07:22.374Z</time></trkpt><trkpt lat="45.9215333" lon="8.64754"><ele>751.0</ele><time>2026-03-22T16:07:23.374Z</time></trkpt><trkpt lat="45.92152" lon="8.6474233"><ele>751.5</ele><time>2026-03-22T16:07:24.374Z</time></trkpt><trkpt lat="45.9215083" lon="8.647295"><ele>752.0</ele><time>2026-03-22T16:07:25.374Z</time></trkpt><trkpt lat="45.9215" lon="8.6471817"><ele>752.0</ele><time>2026-03-22T16:07:26.374Z</time></trkpt><trkpt lat="45.9214867" lon="8.647075"><ele>752.0</ele><time>2026-03-22T16:07:27.374Z</time></trkpt><trkpt lat="45.9214283" lon="8.64694"><ele>752.0</ele><time>2026-03-22T16:07:29.374Z</time></trkpt><trkpt lat="45.9213633" lon="8.6468983"><ele>752.0</ele><time>2026-03-22T16:07:30.374Z</time></trkpt><trkpt lat="45.9212783" lon="8.646895"><ele>752.0</ele><time>2026-03-22T16:07:31.374Z</time></trkpt><trkpt lat="45.9211817" lon="8.6469233"><ele>752.0</ele><time>2026-03-22T16:07:32.374Z</time></trkpt><trkpt lat="45.9210917" lon="8.6469467"><ele>751.2</ele><time>2026-03-22T16:07:33.374Z</time></trkpt><trkpt lat="45.9209933" lon="8.64693"><ele>750.4000000000001</ele><time>2026-03-22T16:07:34.374Z</time></trkpt><trkpt lat="45.920895" lon="8.6468867"><ele>749.5999999999999</ele><time>2026-03-22T16:07:35.374Z</time></trkpt><trkpt lat="45.920805" lon="8.6468367"><ele>748.8</ele><time>2026-03-22T16:07:36.374Z</time></trkpt><trkpt lat="45.92073" lon="8.6467733"><ele>748.0</ele><time>2026-03-22T16:07:37.374Z</time></trkpt><trkpt lat="45.9206717" lon="8.6466983"><ele>748.0</ele><time>2026-03-22T16:07:38.374Z</time></trkpt><trkpt lat="45.9206317" lon="8.6466167"><ele>748.0</ele><time>2026-03-22T16:07:39.374Z</time></trkpt><trkpt lat="45.9206067" lon="8.64651"><ele>748.0</ele><time>2026-03-22T16:07:40.374Z</time></trkpt><trkpt lat="45.9205833" lon="8.6463833"><ele>748.0</ele><time>2026-03-22T16:07:41.374Z</time></trkpt><trkpt lat="45.9205633" lon="8.6462233"><ele>748.0</ele><time>2026-03-22T16:07:42.374Z</time></trkpt><trkpt lat="45.9205567" lon="8.646065"><ele>750.2</ele><time>2026-03-22T16:07:43.374Z</time></trkpt><trkpt lat="45.920545" lon="8.6459117"><ele>752.4</ele><time>2026-03-22T16:07:44.374Z</time></trkpt><trkpt lat="45.9205317" lon="8.64577"><ele>754.6</ele><time>2026-03-22T16:07:45.374Z</time></trkpt><trkpt lat="45.9205067" lon="8.6456317"><ele>756.8000000000001</ele><time>2026-03-22T16:07:46.374Z</time></trkpt><trkpt lat="45.9204767" lon="8.6454967"><ele>759.0</ele><time>2026-03-22T16:07:47.374Z</time></trkpt><trkpt lat="45.9204383" lon="8.64537"><ele>761.6</ele><time>2026-03-22T16:07:48.374Z</time></trkpt><trkpt lat="45.9203967" lon="8.64524"><ele>764.2</ele><time>2026-03-22T16:07:49.374Z</time></trkpt><trkpt lat="45.92035" lon="8.6451133"><ele>766.8000000000001</ele><time>2026-03-22T16:07:50.374Z</time></trkpt><trkpt lat="45.920295" lon="8.644995"><ele>769.4000000000001</ele><time>2026-03-22T16:07:51.374Z</time></trkpt><trkpt lat="45.9202367" lon="8.6448933"><ele>772.0</ele><time>2026-03-22T16:07:52.374Z</time></trkpt><trkpt lat="45.9201983" lon="8.6447833"><ele>771.9999999999999</ele><time>2026-03-22T16:07:53.374Z</time></trkpt><trkpt lat="45.9201633" lon="8.6446567"><ele>772.0</ele><time>2026-03-22T16:07:54.374Z</time></trkpt><trkpt lat="45.920135" lon="8.644535"><ele>772.0</ele><time>2026-03-22T16:07:55.374Z</time></trkpt><trkpt lat="45.9201083" lon="8.64443"><ele>772.0</ele><time>2026-03-22T16:07:56.374Z</time></trkpt><trkpt lat="45.9200817" lon="8.64434"><ele>771.9999999999999</ele><time>2026-03-22T16:07:57.374Z</time></trkpt><trkpt lat="45.9200533" lon="8.644255"><ele>772.0</ele><time>2026-03-22T16:07:58.374Z</time></trkpt><trkpt lat="45.919965" lon="8.6441033"><ele>771.0</ele><time>2026-03-22T16:08:00.374Z</time></trkpt><trkpt lat="45.9199033" lon="8.6440233"><ele>770.0</ele><time>2026-03-22T16:08:01.374Z</time></trkpt><trkpt lat="45.9198367" lon="8.6439267"><ele>769.0</ele><time>2026-03-22T16:08:02.374Z</time></trkpt><trkpt lat="45.9197767" lon="8.6438117"><ele>768.0</ele><time>2026-03-22T16:08:03.374Z</time></trkpt><trkpt lat="45.9197283" lon="8.6436933"><ele>767.0</ele><time>2026-03-22T16:08:04.374Z</time></trkpt><trkpt lat="45.9196867" lon="8.6435983"><ele>767.0</ele><time>2026-03-22T16:08:05.374Z</time></trkpt><trkpt lat="45.9196467" lon="8.643515"><ele>767.0</ele><time>2026-03-22T16:08:06.374Z</time></trkpt><trkpt lat="45.9195883" lon="8.64341"><ele>767.0</ele><time>2026-03-22T16:08:08.374Z</time></trkpt><trkpt lat="45.9195383" lon="8.6433483"><ele>767.0</ele><time>2026-03-22T16:08:12.374Z</time></trkpt><trkpt lat="45.919595" lon="8.6434567"><ele>767.0</ele><time>2026-03-22T16:09:13.374Z</time></trkpt><trkpt lat="45.919665" lon="8.64361"><ele>765.6666666666666</ele><time>2026-03-22T16:09:15.374Z</time></trkpt><trkpt lat="45.919705" lon="8.64371"><ele>764.3333333333333</ele><time>2026-03-22T16:09:16.374Z</time></trkpt><trkpt lat="45.9197567" lon="8.6438117"><ele>763.0</ele><time>2026-03-22T16:09:17.374Z</time></trkpt><trkpt lat="45.919805" lon="8.64393"><ele>761.6666666666666</ele><time>2026-03-22T16:09:18.374Z</time></trkpt><trkpt lat="45.91986" lon="8.6440367"><ele>760.3333333333334</ele><time>2026-03-22T16:09:19.374Z</time></trkpt><trkpt lat="45.9199167" lon="8.6441333"><ele>759.0</ele><time>2026-03-22T16:09:20.374Z</time></trkpt><trkpt lat="45.9199683" lon="8.6442083"><ele>759.0</ele><time>2026-03-22T16:09:21.374Z</time></trkpt><trkpt lat="45.9200133" lon="8.64428"><ele>759.0</ele><time>2026-03-22T16:09:22.374Z</time></trkpt><trkpt lat="45.920055" lon="8.6443567"><ele>759.0</ele><time>2026-03-22T16:09:23.374Z</time></trkpt><trkpt lat="45.920095" lon="8.6444483"><ele>759.0</ele><time>2026-03-22T16:09:24.374Z</time></trkpt><trkpt lat="45.920125" lon="8.6445817"><ele>759.0</ele><time>2026-03-22T16:09:25.374Z</time></trkpt><trkpt lat="45.9201617" lon="8.6447233"><ele>759.0</ele><time>2026-03-22T16:09:26.374Z</time></trkpt><trkpt lat="45.9202033" lon="8.64487"><ele>759.0</ele><time>2026-03-22T16:09:27.374Z</time></trkpt><trkpt lat="45.92026" lon="8.6449983"><ele>759.0</ele><time>2026-03-22T16:09:28.374Z</time></trkpt><trkpt lat="45.9203217" lon="8.6451133"><ele>759.0</ele><time>2026-03-22T16:09:29.374Z</time></trkpt><trkpt lat="45.9203867" lon="8.6452267"><ele>759.0</ele><time>2026-03-22T16:09:30.374Z</time></trkpt><trkpt lat="45.9204417" lon="8.6453483"><ele>759.0</ele><time>2026-03-22T16:09:31.374Z</time></trkpt><trkpt lat="45.9204833" lon="8.6454767"><ele>759.0</ele><time>2026-03-22T16:09:32.374Z</time></trkpt><trkpt lat="45.9205217" lon="8.645625"><ele>759.0</ele><time>2026-03-22T16:09:33.374Z</time></trkpt><trkpt lat="45.9205417" lon="8.645795"><ele>759.0</ele><time>2026-03-22T16:09:34.374Z</time></trkpt><trkpt lat="45.9205517" lon="8.6459617"><ele>759.0</ele><time>2026-03-22T16:09:35.374Z</time></trkpt><trkpt lat="45.9205633" lon="8.64613"><ele>756.8000000000001</ele><time>2026-03-22T16:09:36.374Z</time></trkpt><trkpt lat="45.920575" lon="8.646285"><ele>754.6</ele><time>2026-03-22T16:09:37.374Z</time></trkpt><trkpt lat="45.9205883" lon="8.6464217"><ele>752.4</ele><time>2026-03-22T16:09:38.374Z</time></trkpt><trkpt lat="45.9206033" lon="8.6465417"><ele>750.2</ele><time>2026-03-22T16:09:39.374Z</time></trkpt><trkpt lat="45.9206333" lon="8.6466517"><ele>748.0</ele><time>2026-03-22T16:09:40.374Z</time></trkpt><trkpt lat="45.920685" lon="8.6467433"><ele>748.0</ele><time>2026-03-22T16:09:41.374Z</time></trkpt><trkpt lat="45.9207583" lon="8.646815"><ele>748.0</ele><time>2026-03-22T16:09:42.374Z</time></trkpt><trkpt lat="45.9208483" lon="8.6468767"><ele>748.0</ele><time>2026-03-22T16:09:43.374Z</time></trkpt><trkpt lat="45.9209483" lon="8.64693"><ele>748.0</ele><time>2026-03-22T16:09:44.374Z</time></trkpt><trkpt lat="45.9210383" lon="8.6469567"><ele>748.0</ele><time>2026-03-22T16:09:45.374Z</time></trkpt><trkpt lat="45.92113" lon="8.646965"><ele>748.8</ele><time>2026-03-22T16:09:46.374Z</time></trkpt><trkpt lat="45.9212133" lon="8.6469433"><ele>749.5999999999999</ele><time>2026-03-22T16:09:47.374Z</time></trkpt><trkpt lat="45.9212967" lon="8.6469233"><ele>750.4000000000001</ele><time>2026-03-22T16:09:48.374Z</time></trkpt><trkpt lat="45.9213733" lon="8.6469217"><ele>751.2</ele><time>2026-03-22T16:09:49.374Z</time></trkpt><trkpt lat="45.9214783" lon="8.6469967"><ele>752.0</ele><time>2026-03-22T16:09:51.374Z</time></trkpt><trkpt lat="45.921515" lon="8.6471767"><ele>752.0</ele><time>2026-03-22T16:09:53.374Z</time></trkpt><trkpt lat="45.92151" lon="8.6473017"><ele>752.0</ele><time>2026-03-22T16:09:54.374Z</time></trkpt><trkpt lat="45.921515" lon="8.6474767"><ele>752.0</ele><time>2026-03-22T16:09:55.374Z</time></trkpt><trkpt lat="45.92153" lon="8.6476833"><ele>752.0</ele><time>2026-03-22T16:09:56.374Z</time></trkpt><trkpt lat="45.92156" lon="8.64789"><ele>751.25</ele><time>2026-03-22T16:09:57.374Z</time></trkpt><trkpt lat="45.92159" lon="8.6480767"><ele>750.5</ele><time>2026-03-22T16:09:58.374Z</time></trkpt><trkpt lat="45.921615" lon="8.6482483"><ele>749.75</ele><time>2026-03-22T16:09:59.374Z</time></trkpt><trkpt lat="45.92163" lon="8.6484083"><ele>749.0</ele><time>2026-03-22T16:10:00.375Z</time></trkpt><trkpt lat="45.9216467" lon="8.648565"><ele>747.6</ele><time>2026-03-22T16:10:01.375Z</time></trkpt><trkpt lat="45.9216583" lon="8.6487083"><ele>746.2</ele><time>2026-03-22T16:10:02.375Z</time></trkpt><trkpt lat="45.921675" lon="8.6488583"><ele>744.8000000000001</ele><time>2026-03-22T16:10:03.375Z</time></trkpt><trkpt lat="45.9216883" lon="8.6489933"><ele>743.4000000000001</ele><time>2026-03-22T16:10:04.375Z</time></trkpt><trkpt lat="45.9217217" lon="8.6491117"><ele>742.0</ele><time>2026-03-22T16:10:05.375Z</time></trkpt><trkpt lat="45.9217717" lon="8.6492083"><ele>742.1666666666667</ele><time>2026-03-22T16:10:06.375Z</time></trkpt><trkpt lat="45.9218167" lon="8.64929"><ele>742.3333333333334</ele><time>2026-03-22T16:10:07.375Z</time></trkpt><trkpt lat="45.9218583" lon="8.6493717"><ele>742.5</ele><time>2026-03-22T16:10:08.375Z</time></trkpt><trkpt lat="45.921835" lon="8.6495117"><ele>742.6666666666666</ele><time>2026-03-22T16:10:10.375Z</time></trkpt><trkpt lat="45.9217733" lon="8.64957"><ele>742.8333333333333</ele><time>2026-03-22T16:10:11.375Z</time></trkpt><trkpt lat="45.921715" lon="8.6496467"><ele>743.0</ele><time>2026-03-22T16:10:12.375Z</time></trkpt><trkpt lat="45.921685" lon="8.6497283"><ele>743.0</ele><time>2026-03-22T16:10:13.375Z</time></trkpt><trkpt lat="45.921665" lon="8.6498233"><ele>743.0</ele><time>2026-03-22T16:10:14.375Z</time></trkpt><trkpt lat="45.921635" lon="8.649965"><ele>743.0</ele><time>2026-03-22T16:10:15.375Z</time></trkpt><trkpt lat="45.9216167" lon="8.650135"><ele>743.0</ele><time>2026-03-22T16:10:16.375Z</time></trkpt><trkpt lat="45.921605" lon="8.650295"><ele>743.0</ele><time>2026-03-22T16:10:17.375Z</time></trkpt><trkpt lat="45.9215917" lon="8.65044"><ele>743.5</ele><time>2026-03-22T16:10:18.375Z</time></trkpt><trkpt lat="45.9215933" lon="8.6506067"><ele>744.0</ele><time>2026-03-22T16:10:19.375Z</time></trkpt><trkpt lat="45.921605" lon="8.65079"><ele>744.5</ele><time>2026-03-22T16:10:20.375Z</time></trkpt><trkpt lat="45.921615" lon="8.6509633"><ele>745.0</ele><time>2026-03-22T16:10:21.375Z</time></trkpt><trkpt lat="45.9216267" lon="8.6511333"><ele>744.2</ele><time>2026-03-22T16:10:22.375Z</time></trkpt><trkpt lat="45.9216467" lon="8.651285"><ele>743.4</ele><time>2026-03-22T16:10:23.375Z</time></trkpt><trkpt lat="45.9216783" lon="8.6514167"><ele>742.5999999999999</ele><time>2026-03-22T16:10:24.375Z</time></trkpt><trkpt lat="45.921715" lon="8.6515383"><ele>741.8</ele><time>2026-03-22T16:10:25.375Z</time></trkpt><trkpt lat="45.9217633" lon="8.6516467"><ele>741.0</ele><time>2026-03-22T16:10:26.375Z</time></trkpt><trkpt lat="45.9218067" lon="8.651755"><ele>746.3333333333334</ele><time>2026-03-22T16:10:27.375Z</time></trkpt><trkpt lat="45.9218333" lon="8.6518667"><ele>751.6666666666667</ele><time>2026-03-22T16:10:28.375Z</time></trkpt><trkpt lat="45.9218467" lon="8.6519767"><ele>757.0</ele><time>2026-03-22T16:10:29.375Z</time></trkpt><trkpt lat="45.92184" lon="8.65209"><ele>762.3333333333334</ele><time>2026-03-22T16:10:30.375Z</time></trkpt><trkpt lat="45.921825" lon="8.6522117"><ele>767.6666666666667</ele><time>2026-03-22T16:10:31.375Z</time></trkpt><trkpt lat="45.9218083" lon="8.6523417"><ele>773.0</ele><time>2026-03-22T16:10:32.375Z</time></trkpt><trkpt lat="45.9217983" lon="8.6524783"><ele>772.8333333333334</ele><time>2026-03-22T16:10:33.375Z</time></trkpt><trkpt lat="45.9217983" lon="8.6526317"><ele>772.6666666666667</ele><time>2026-03-22T16:10:34.375Z</time></trkpt><trkpt lat="45.9218067" lon="8.65277"><ele>772.5</ele><time>2026-03-22T16:10:35.375Z</time></trkpt><trkpt lat="45.9218133" lon="8.6528867"><ele>772.3333333333333</ele><time>2026-03-22T16:10:36.375Z</time></trkpt><trkpt lat="45.9218167" lon="8.6529783"><ele>772.1666666666666</ele><time>2026-03-22T16:10:37.375Z</time></trkpt><trkpt lat="45.9218233" lon="8.6530883"><ele>772.0</ele><time>2026-03-22T16:10:39.375Z</time></trkpt><trkpt lat="45.92185" lon="8.6531817"><ele>772.0000000000001</ele><time>2026-03-22T16:10:47.375Z</time></trkpt><trkpt lat="45.921845" lon="8.653085"><ele>772.0</ele><time>2026-03-22T16:36:27.375Z</time></trkpt><trkpt lat="45.9218333" lon="8.6529783"><ele>772.0</ele><time>2026-03-22T16:36:29.375Z</time></trkpt><trkpt lat="45.921825" lon="8.6528267"><ele>772.0</ele><time>2026-03-22T16:36:31.375Z</time></trkpt><trkpt lat="45.9218217" lon="8.652735"><ele>772.0</ele><time>2026-03-22T16:36:32.375Z</time></trkpt><trkpt lat="45.921815" lon="8.6526417"><ele>772.0000000000001</ele><time>2026-03-22T16:36:33.375Z</time></trkpt><trkpt lat="45.9218117" lon="8.6525417"><ele>772.0</ele><time>2026-03-22T16:36:34.375Z</time></trkpt><trkpt lat="45.92181" lon="8.6524383"><ele>772.1428571428572</ele><time>2026-03-22T16:36:35.375Z</time></trkpt><trkpt lat="45.9218167" lon="8.65233"><ele>772.2857142857143</ele><time>2026-03-22T16:36:36.375Z</time></trkpt><trkpt lat="45.9218283" lon="8.6522283"><ele>772.4285714285714</ele><time>2026-03-22T16:36:37.375Z</time></trkpt><trkpt lat="45.9218433" lon="8.6521367"><ele>772.5714285714287</ele><time>2026-03-22T16:36:38.375Z</time></trkpt><trkpt lat="45.921855" lon="8.6520467"><ele>772.7142857142857</ele><time>2026-03-22T16:36:39.375Z</time></trkpt><trkpt lat="45.9218617" lon="8.651955"><ele>772.8571428571429</ele><time>2026-03-22T16:36:40.375Z</time></trkpt><trkpt lat="45.9218333" lon="8.6518183"><ele>773.0</ele><time>2026-03-22T16:36:42.375Z</time></trkpt><trkpt lat="45.9217633" lon="8.6518167"><ele>766.5999999999999</ele><time>2026-03-22T16:36:44.375Z</time></trkpt><trkpt lat="45.9216883" lon="8.651935"><ele>760.1999999999999</ele><time>2026-03-22T16:36:46.375Z</time></trkpt><trkpt lat="45.9216633" lon="8.6520483"><ele>753.8</ele><time>2026-03-22T16:36:47.375Z</time></trkpt><trkpt lat="45.9216333" lon="8.6521867"><ele>747.4</ele><time>2026-03-22T16:36:48.375Z</time></trkpt><trkpt lat="45.9216033" lon="8.6523233"><ele>741.0</ele><time>2026-03-22T16:36:49.375Z</time></trkpt><trkpt lat="45.9215517" lon="8.65247"><ele>741.0</ele><time>2026-03-22T16:36:50.375Z</time></trkpt><trkpt lat="45.9214917" lon="8.6526167"><ele>741.0</ele><time>2026-03-22T16:36:51.375Z</time></trkpt><trkpt lat="45.9214433" lon="8.6527733"><ele>741.0</ele><time>2026-03-22T16:36:52.375Z</time></trkpt><trkpt lat="45.9214033" lon="8.6529367"><ele>741.0</ele><time>2026-03-22T16:36:53.375Z</time></trkpt><trkpt lat="45.92137" lon="8.65311"><ele>741.0</ele><time>2026-03-22T16:36:54.375Z</time></trkpt><trkpt lat="45.9213317" lon="8.6532833"><ele>741.0</ele><time>2026-03-22T16:36:55.375Z</time></trkpt><trkpt lat="45.921295" lon="8.6534383"><ele>741.0</ele><time>2026-03-22T16:36:56.374Z</time></trkpt><trkpt lat="45.9212533" lon="8.65358"><ele>741.0</ele><time>2026-03-22T16:36:57.374Z</time></trkpt><trkpt lat="45.9212083" lon="8.6537183"><ele>741.0</ele><time>2026-03-22T16:36:58.374Z</time></trkpt><trkpt lat="45.92115" lon="8.6538533"><ele>741.0</ele><time>2026-03-22T16:36:59.374Z</time></trkpt><trkpt lat="45.921095" lon="8.6539817"><ele>741.0</ele><time>2026-03-22T16:37:00.374Z</time></trkpt><trkpt lat="45.9210383" lon="8.6541233"><ele>741.0</ele><time>2026-03-22T16:37:01.374Z</time></trkpt><trkpt lat="45.9209817" lon="8.6542767"><ele>741.0</ele><time>2026-03-22T16:37:02.374Z</time></trkpt><trkpt lat="45.9209367" lon="8.6544267"><ele>741.0</ele><time>2026-03-22T16:37:03.374Z</time></trkpt><trkpt lat="45.920895" lon="8.65456"><ele>741.0</ele><time>2026-03-22T16:37:04.374Z</time></trkpt><trkpt lat="45.9208617" lon="8.6546817"><ele>741.0</ele><time>2026-03-22T16:37:05.374Z</time></trkpt><trkpt lat="45.9208467" lon="8.65478"><ele>741.0</ele><time>2026-03-22T16:37:06.374Z</time></trkpt><trkpt lat="45.9208917" lon="8.6549317"><ele>740.0</ele><time>2026-03-22T16:37:08.374Z</time></trkpt><trkpt lat="45.921015" lon="8.6550033"><ele>739.0</ele><time>2026-03-22T16:37:10.374Z</time></trkpt><trkpt lat="45.9211083" lon="8.6550183"><ele>738.0</ele><time>2026-03-22T16:37:11.374Z</time></trkpt><trkpt lat="45.9211933" lon="8.6550433"><ele>737.0</ele><time>2026-03-22T16:37:12.374Z</time></trkpt><trkpt lat="45.921255" lon="8.6550667"><ele>736.0</ele><time>2026-03-22T16:37:13.374Z</time></trkpt><trkpt lat="45.921295" lon="8.65517"><ele>736.0</ele><time>2026-03-22T16:37:15.374Z</time></trkpt><trkpt lat="45.9212233" lon="8.6552433"><ele>736.0</ele><time>2026-03-22T16:37:17.374Z</time></trkpt><trkpt lat="45.9211583" lon="8.6552533"><ele>736.0</ele><time>2026-03-22T16:37:18.374Z</time></trkpt><trkpt lat="45.9210917" lon="8.6552733"><ele>736.0</ele><time>2026-03-22T16:37:19.374Z</time></trkpt><trkpt lat="45.92103" lon="8.6553167"><ele>736.0</ele><time>2026-03-22T16:37:20.374Z</time></trkpt><trkpt lat="45.9209883" lon="8.6553917"><ele>736.0</ele><time>2026-03-22T16:37:21.374Z</time></trkpt><trkpt lat="45.9209717" lon="8.655485"><ele>736.0</ele><time>2026-03-22T16:37:22.374Z</time></trkpt><trkpt lat="45.9209767" lon="8.6556083"><ele>735.8</ele><time>2026-03-22T16:37:23.374Z</time></trkpt><trkpt lat="45.921" lon="8.6557383"><ele>735.5999999999999</ele><time>2026-03-22T16:37:24.374Z</time></trkpt><trkpt lat="45.921035" lon="8.6558683"><ele>735.4</ele><time>2026-03-22T16:37:25.374Z</time></trkpt><trkpt lat="45.9210683" lon="8.65599"><ele>735.2</ele><time>2026-03-22T16:37:26.374Z</time></trkpt><trkpt lat="45.921095" lon="8.65611"><ele>735.0</ele><time>2026-03-22T16:37:27.374Z</time></trkpt><trkpt lat="45.9211233" lon="8.656225"><ele>733.5</ele><time>2026-03-22T16:37:28.374Z</time></trkpt><trkpt lat="45.9211467" lon="8.6563317"><ele>732.0</ele><time>2026-03-22T16:37:29.374Z</time></trkpt><trkpt lat="45.9211817" lon="8.656425"><ele>730.5</ele><time>2026-03-22T16:37:30.374Z</time></trkpt><trkpt lat="45.9212133" lon="8.656515"><ele>729.0</ele><time>2026-03-22T16:37:31.374Z</time></trkpt><trkpt lat="45.9212433" lon="8.65661"><ele>727.5</ele><time>2026-03-22T16:37:32.374Z</time></trkpt><trkpt lat="45.9212667" lon="8.6566967"><ele>726.0</ele><time>2026-03-22T16:37:33.374Z</time></trkpt><trkpt lat="45.9212717" lon="8.6568483"><ele>726.0</ele><time>2026-03-22T16:37:35.374Z</time></trkpt><trkpt lat="45.9212067" lon="8.6568467"><ele>726.0</ele><time>2026-03-22T16:37:37.374Z</time></trkpt><trkpt lat="45.92115" lon="8.6567933"><ele>726.0</ele><time>2026-03-22T16:37:38.374Z</time></trkpt><trkpt lat="45.9210833" lon="8.6567133"><ele>726.0</ele><time>2026-03-22T16:37:39.374Z</time></trkpt><trkpt lat="45.9210067" lon="8.6566167"><ele>726.0</ele><time>2026-03-22T16:37:40.374Z</time></trkpt><trkpt lat="45.920935" lon="8.6565117"><ele>726.0</ele><time>2026-03-22T16:37:41.374Z</time></trkpt><trkpt lat="45.92085" lon="8.65639"><ele>723.8</ele><time>2026-03-22T16:37:42.374Z</time></trkpt><trkpt lat="45.920765" lon="8.6562767"><ele>721.5999999999999</ele><time>2026-03-22T16:37:43.374Z</time></trkpt><trkpt lat="45.9206717" lon="8.6561867"><ele>719.4</ele><time>2026-03-22T16:37:44.374Z</time></trkpt><trkpt lat="45.92057" lon="8.6561083"><ele>717.2</ele><time>2026-03-22T16:37:45.374Z</time></trkpt><trkpt lat="45.920475" lon="8.656045"><ele>715.0</ele><time>2026-03-22T16:37:46.374Z</time></trkpt><trkpt lat="45.9203933" lon="8.6560067"><ele>714.6</ele><time>2026-03-22T16:37:47.374Z</time></trkpt><trkpt lat="45.9202967" lon="8.6559967"><ele>714.2</ele><time>2026-03-22T16:37:48.374Z</time></trkpt><trkpt lat="45.92021" lon="8.6560217"><ele>713.8</ele><time>2026-03-22T16:37:49.374Z</time></trkpt><trkpt lat="45.92013" lon="8.6560933"><ele>713.4</ele><time>2026-03-22T16:37:50.374Z</time></trkpt><trkpt lat="45.920055" lon="8.6561817"><ele>713.0</ele><time>2026-03-22T16:37:51.374Z</time></trkpt><trkpt lat="45.9199717" lon="8.6562633"><ele>712.6666666666666</ele><time>2026-03-22T16:37:52.374Z</time></trkpt><trkpt lat="45.919895" lon="8.6562983"><ele>712.3333333333333</ele><time>2026-03-22T16:37:53.374Z</time></trkpt><trkpt lat="45.9198233" lon="8.65627"><ele>712.0</ele><time>2026-03-22T16:37:54.374Z</time></trkpt><trkpt lat="45.91975" lon="8.6562067"><ele>711.6666666666666</ele><time>2026-03-22T16:37:55.374Z</time></trkpt><trkpt lat="45.91966" lon="8.656135"><ele>711.3333333333334</ele><time>2026-03-22T16:37:56.374Z</time></trkpt><trkpt lat="45.9195783" lon="8.6560733"><ele>711.0</ele><time>2026-03-22T16:37:57.374Z</time></trkpt><trkpt lat="45.91949" lon="8.6560567"><ele>711.0</ele><time>2026-03-22T16:37:58.374Z</time></trkpt><trkpt lat="45.91941" lon="8.6560783"><ele>711.0</ele><time>2026-03-22T16:37:59.374Z</time></trkpt><trkpt lat="45.91934" lon="8.6561267"><ele>711.0</ele><time>2026-03-22T16:38:00.374Z</time></trkpt><trkpt lat="45.919275" lon="8.6561533"><ele>711.0</ele><time>2026-03-22T16:38:01.374Z</time></trkpt><trkpt lat="45.9191633" lon="8.6560883"><ele>711.0</ele><time>2026-03-22T16:38:03.374Z</time></trkpt><trkpt lat="45.9191067" lon="8.6559867"><ele>711.0</ele><time>2026-03-22T16:38:04.374Z</time></trkpt><trkpt lat="45.9190383" lon="8.6558717"><ele>704.75</ele><time>2026-03-22T16:38:05.374Z</time></trkpt><trkpt lat="45.9189417" lon="8.6557567"><ele>698.5</ele><time>2026-03-22T16:38:06.374Z</time></trkpt><trkpt lat="45.9188333" lon="8.6556583"><ele>692.25</ele><time>2026-03-22T16:38:07.374Z</time></trkpt><trkpt lat="45.9187233" lon="8.6555817"><ele>686.0</ele><time>2026-03-22T16:38:08.374Z</time></trkpt><trkpt lat="45.9186183" lon="8.6555"><ele>686.0</ele><time>2026-03-22T16:38:09.374Z</time></trkpt><trkpt lat="45.9185317" lon="8.6554"><ele>686.0</ele><time>2026-03-22T16:38:10.374Z</time></trkpt><trkpt lat="45.91846" lon="8.6553"><ele>686.0</ele><time>2026-03-22T16:38:11.374Z</time></trkpt><trkpt lat="45.9184083" lon="8.6552283"><ele>686.0</ele><time>2026-03-22T16:38:12.374Z</time></trkpt><trkpt lat="45.9183883" lon="8.65511"><ele>686.0</ele><time>2026-03-22T16:38:14.374Z</time></trkpt><trkpt lat="45.91845" lon="8.6550883"><ele>686.0</ele><time>2026-03-22T16:38:16.374Z</time></trkpt><trkpt lat="45.9185267" lon="8.6552217"><ele>686.0</ele><time>2026-03-22T16:38:18.374Z</time></trkpt><trkpt lat="45.9185933" lon="8.6553033"><ele>686.0</ele><time>2026-03-22T16:38:19.374Z</time></trkpt><trkpt lat="45.918685" lon="8.6553683"><ele>686.0</ele><time>2026-03-22T16:38:20.374Z</time></trkpt><trkpt lat="45.9187967" lon="8.6554317"><ele>686.0</ele><time>2026-03-22T16:38:21.374Z</time></trkpt><trkpt lat="45.91891" lon="8.6554933"><ele>686.0</ele><time>2026-03-22T16:38:22.374Z</time></trkpt><trkpt lat="45.9190117" lon="8.655545"><ele>686.0</ele><time>2026-03-22T16:38:23.374Z</time></trkpt><trkpt lat="45.9191083" lon="8.6555733"><ele>686.0</ele><time>2026-03-22T16:38:24.374Z</time></trkpt><trkpt lat="45.919205" lon="8.6555883"><ele>686.0</ele><time>2026-03-22T16:38:25.374Z</time></trkpt><trkpt lat="45.9193033" lon="8.6555883"><ele>686.0</ele><time>2026-03-22T16:38:26.374Z</time></trkpt><trkpt lat="45.91941" lon="8.65556"><ele>686.0</ele><time>2026-03-22T16:38:27.374Z</time></trkpt><trkpt lat="45.9195133" lon="8.6555367"><ele>686.4</ele><time>2026-03-22T16:38:28.374Z</time></trkpt><trkpt lat="45.919615" lon="8.65553"><ele>686.8</ele><time>2026-03-22T16:38:29.374Z</time></trkpt><trkpt lat="45.919705" lon="8.6555533"><ele>687.1999999999999</ele><time>2026-03-22T16:38:30.374Z</time></trkpt><trkpt lat="45.9198117" lon="8.65553"><ele>687.5999999999999</ele><time>2026-03-22T16:38:32.374Z</time></trkpt><trkpt lat="45.91976" lon="8.6554183"><ele>688.0</ele><time>2026-03-22T16:38:35.374Z</time></trkpt><trkpt lat="45.919675" lon="8.655415"><ele>688.0</ele><time>2026-03-22T16:38:36.374Z</time></trkpt><trkpt lat="45.9195817" lon="8.6554183"><ele>688.0</ele><time>2026-03-22T16:38:37.374Z</time></trkpt><trkpt lat="45.9194733" lon="8.6554083"><ele>688.0</ele><time>2026-03-22T16:38:38.374Z</time></trkpt><trkpt lat="45.91936" lon="8.655385"><ele>688.0</ele><time>2026-03-22T16:38:39.374Z</time></trkpt><trkpt lat="45.9192383" lon="8.6553517"><ele>688.0</ele><time>2026-03-22T16:38:40.374Z</time></trkpt><trkpt lat="45.9191083" lon="8.655295"><ele>681.0</ele><time>2026-03-22T16:38:41.374Z</time></trkpt><trkpt lat="45.91899" lon="8.6552383"><ele>674.0</ele><time>2026-03-22T16:38:42.374Z</time></trkpt><trkpt lat="45.9188683" lon="8.6551667"><ele>667.0</ele><time>2026-03-22T16:38:43.374Z</time></trkpt><trkpt lat="45.9187667" lon="8.6550667"><ele>660.0</ele><time>2026-03-22T16:38:44.374Z</time></trkpt><trkpt lat="45.918685" lon="8.6549483"><ele>660.0</ele><time>2026-03-22T16:38:45.374Z</time></trkpt><trkpt lat="45.9186017" lon="8.6548233"><ele>660.0</ele><time>2026-03-22T16:38:46.374Z</time></trkpt><trkpt lat="45.9185167" lon="8.6547033"><ele>660.0</ele><time>2026-03-22T16:38:47.374Z</time></trkpt><trkpt lat="45.9184433" lon="8.6546033"><ele>660.0</ele><time>2026-03-22T16:38:48.374Z</time></trkpt><trkpt lat="45.9183683" lon="8.6545283"><ele>660.0</ele><time>2026-03-22T16:38:49.374Z</time></trkpt><trkpt lat="45.9182717" lon="8.6544967"><ele>662.5</ele><time>2026-03-22T16:38:50.374Z</time></trkpt><trkpt lat="45.9181633" lon="8.6544983"><ele>665.0</ele><time>2026-03-22T16:38:51.374Z</time></trkpt><trkpt lat="45.91804" lon="8.6545033"><ele>667.5</ele><time>2026-03-22T16:38:52.374Z</time></trkpt><trkpt lat="45.917925" lon="8.6545133"><ele>670.0</ele><time>2026-03-22T16:38:53.374Z</time></trkpt><trkpt lat="45.9178167" lon="8.6545533"><ele>670.0</ele><time>2026-03-22T16:38:54.374Z</time></trkpt><trkpt lat="45.9177333" lon="8.6546217"><ele>670.0</ele><time>2026-03-22T16:38:55.374Z</time></trkpt><trkpt lat="45.9176633" lon="8.654675"><ele>670.0</ele><time>2026-03-22T16:38:56.374Z</time></trkpt><trkpt lat="45.9175867" lon="8.6546667"><ele>670.0</ele><time>2026-03-22T16:38:58.374Z</time></trkpt><trkpt lat="45.9176067" lon="8.6545633"><ele>670.0</ele><time>2026-03-22T16:39:00.374Z</time></trkpt><trkpt lat="45.9177333" lon="8.6544817"><ele>663.75</ele><time>2026-03-22T16:39:02.374Z</time></trkpt><trkpt lat="45.9178383" lon="8.65443"><ele>657.5</ele><time>2026-03-22T16:39:03.374Z</time></trkpt><trkpt lat="45.9179667" lon="8.6543883"><ele>651.25</ele><time>2026-03-22T16:39:04.374Z</time></trkpt><trkpt lat="45.9180883" lon="8.65437"><ele>645.0</ele><time>2026-03-22T16:39:05.374Z</time></trkpt><trkpt lat="45.9182083" lon="8.654355"><ele>645.0</ele><time>2026-03-22T16:39:06.374Z</time></trkpt><trkpt lat="45.9183167" lon="8.65436"><ele>645.0</ele><time>2026-03-22T16:39:07.374Z</time></trkpt><trkpt lat="45.9184067" lon="8.6543683"><ele>645.0</ele><time>2026-03-22T16:39:08.374Z</time></trkpt><trkpt lat="45.91847" lon="8.6543533"><ele>645.0</ele><time>2026-03-22T16:39:09.374Z</time></trkpt><trkpt lat="45.918535" lon="8.654255"><ele>645.0</ele><time>2026-03-22T16:39:11.374Z</time></trkpt><trkpt lat="45.9184783" lon="8.6541383"><ele>645.0</ele><time>2026-03-22T16:39:13.374Z</time></trkpt><trkpt lat="45.918405" lon="8.6541083"><ele>645.0</ele><time>2026-03-22T16:39:14.374Z</time></trkpt><trkpt lat="45.918295" lon="8.6541117"><ele>645.0</ele><time>2026-03-22T16:39:15.374Z</time></trkpt><trkpt lat="45.9181683" lon="8.6541417"><ele>645.0</ele><time>2026-03-22T16:39:16.374Z</time></trkpt><trkpt lat="45.91803" lon="8.6541717"><ele>645.0</ele><time>2026-03-22T16:39:17.374Z</time></trkpt><trkpt lat="45.9178883" lon="8.6542"><ele>645.0</ele><time>2026-03-22T16:39:18.374Z</time></trkpt><trkpt lat="45.917735" lon="8.6542417"><ele>645.0</ele><time>2026-03-22T16:39:19.374Z</time></trkpt><trkpt lat="45.9175933" lon="8.6542783"><ele>645.0</ele><time>2026-03-22T16:39:20.374Z</time></trkpt><trkpt lat="45.91746" lon="8.6543033"><ele>644.1666666666666</ele><time>2026-03-22T16:39:21.374Z</time></trkpt><trkpt lat="45.917345" lon="8.6543217"><ele>643.3333333333334</ele><time>2026-03-22T16:39:22.374Z</time></trkpt><trkpt lat="45.9172567" lon="8.6543567"><ele>642.5</ele><time>2026-03-22T16:39:23.374Z</time></trkpt><trkpt lat="45.917195" lon="8.6544267"><ele>641.6666666666667</ele><time>2026-03-22T16:39:24.374Z</time></trkpt><trkpt lat="45.917145" lon="8.6545067"><ele>640.8333333333334</ele><time>2026-03-22T16:39:25.374Z</time></trkpt><trkpt lat="45.9171233" lon="8.654625"><ele>640.0</ele><time>2026-03-22T16:39:26.374Z</time></trkpt><trkpt lat="45.9171133" lon="8.654765"><ele>642.2</ele><time>2026-03-22T16:39:27.374Z</time></trkpt><trkpt lat="45.91709" lon="8.654915"><ele>644.4</ele><time>2026-03-22T16:39:28.374Z</time></trkpt><trkpt lat="45.9170667" lon="8.6550733"><ele>646.5999999999999</ele><time>2026-03-22T16:39:29.374Z</time></trkpt><trkpt lat="45.9170167" lon="8.6552083"><ele>648.8</ele><time>2026-03-22T16:39:30.374Z</time></trkpt><trkpt lat="45.91694" lon="8.6553333"><ele>651.0</ele><time>2026-03-22T16:39:31.374Z</time></trkpt><trkpt lat="45.9168767" lon="8.6554717"><ele>654.1999999999999</ele><time>2026-03-22T16:39:32.374Z</time></trkpt><trkpt lat="45.9168317" lon="8.6556167"><ele>657.4</ele><time>2026-03-22T16:39:33.374Z</time></trkpt><trkpt lat="45.9167917" lon="8.655735"><ele>660.6</ele><time>2026-03-22T16:39:34.374Z</time></trkpt><trkpt lat="45.9167483" lon="8.6558067"><ele>663.8</ele><time>2026-03-22T16:39:35.374Z</time></trkpt><trkpt lat="45.9166217" lon="8.6558"><ele>667.0</ele><time>2026-03-22T16:39:37.374Z</time></trkpt><trkpt lat="45.9165367" lon="8.6557533"><ele>656.75</ele><time>2026-03-22T16:39:38.375Z</time></trkpt><trkpt lat="45.916425" lon="8.6557217"><ele>646.5</ele><time>2026-03-22T16:39:39.374Z</time></trkpt><trkpt lat="45.9163" lon="8.6556967"><ele>636.25</ele><time>2026-03-22T16:39:40.374Z</time></trkpt><trkpt lat="45.9161783" lon="8.6556883"><ele>626.0</ele><time>2026-03-22T16:39:41.374Z</time></trkpt><trkpt lat="45.9160667" lon="8.6557083"><ele>626.0</ele><time>2026-03-22T16:39:42.374Z</time></trkpt><trkpt lat="45.9159483" lon="8.65577"><ele>626.0</ele><time>2026-03-22T16:39:43.374Z</time></trkpt><trkpt lat="45.915825" lon="8.6558417"><ele>626.0</ele><time>2026-03-22T16:39:44.374Z</time></trkpt><trkpt lat="45.9157233" lon="8.6559"><ele>626.0</ele><time>2026-03-22T16:39:45.374Z</time></trkpt><trkpt lat="45.91561" lon="8.6559317"><ele>625.2</ele><time>2026-03-22T16:39:46.374Z</time></trkpt><trkpt lat="45.9155067" lon="8.655935"><ele>624.4000000000001</ele><time>2026-03-22T16:39:47.374Z</time></trkpt><trkpt lat="45.9154067" lon="8.6559167"><ele>623.6</ele><time>2026-03-22T16:39:48.374Z</time></trkpt><trkpt lat="45.9153167" lon="8.6558717"><ele>622.8000000000001</ele><time>2026-03-22T16:39:49.374Z</time></trkpt><trkpt lat="45.915245" lon="8.6558017"><ele>622.0</ele><time>2026-03-22T16:39:50.374Z</time></trkpt><trkpt lat="45.915185" lon="8.6557083"><ele>622.0</ele><time>2026-03-22T16:39:51.374Z</time></trkpt><trkpt lat="45.9151183" lon="8.6556117"><ele>622.0</ele><time>2026-03-22T16:39:52.374Z</time></trkpt><trkpt lat="45.915045" lon="8.6555267"><ele>622.0</ele><time>2026-03-22T16:39:53.374Z</time></trkpt><trkpt lat="45.9149467" lon="8.6554433"><ele>622.0</ele><time>2026-03-22T16:39:54.374Z</time></trkpt><trkpt lat="45.9148517" lon="8.6553883"><ele>622.0</ele><time>2026-03-22T16:39:55.374Z</time></trkpt><trkpt lat="45.914755" lon="8.6553683"><ele>620.0</ele><time>2026-03-22T16:39:56.374Z</time></trkpt><trkpt lat="45.91466" lon="8.6554"><ele>618.0</ele><time>2026-03-22T16:39:57.374Z</time></trkpt><trkpt lat="45.9145683" lon="8.6554517"><ele>616.0</ele><time>2026-03-22T16:39:58.374Z</time></trkpt><trkpt lat="45.91448" lon="8.65555"><ele>614.0</ele><time>2026-03-22T16:39:59.374Z</time></trkpt><trkpt lat="45.9144067" lon="8.6556683"><ele>612.0</ele><time>2026-03-22T16:40:00.374Z</time></trkpt><trkpt lat="45.914365" lon="8.6558183"><ele>612.0</ele><time>2026-03-22T16:40:01.374Z</time></trkpt><trkpt lat="45.9143383" lon="8.655965"><ele>612.0</ele><time>2026-03-22T16:40:02.374Z</time></trkpt><trkpt lat="45.914315" lon="8.656095"><ele>612.0</ele><time>2026-03-22T16:40:03.374Z</time></trkpt><trkpt lat="45.91429" lon="8.6562083"><ele>612.0</ele><time>2026-03-22T16:40:04.374Z</time></trkpt><trkpt lat="45.91426" lon="8.65629"><ele>612.0</ele><time>2026-03-22T16:40:05.374Z</time></trkpt><trkpt lat="45.9141517" lon="8.656325"><ele>614.2</ele><time>2026-03-22T16:40:07.374Z</time></trkpt><trkpt lat="45.9140733" lon="8.656295"><ele>616.4000000000001</ele><time>2026-03-22T16:40:08.374Z</time></trkpt><trkpt lat="45.913985" lon="8.6562883"><ele>618.5999999999999</ele><time>2026-03-22T16:40:09.374Z</time></trkpt><trkpt lat="45.9138783" lon="8.6563017"><ele>620.8</ele><time>2026-03-22T16:40:10.374Z</time></trkpt><trkpt lat="45.9137667" lon="8.6563567"><ele>623.0</ele><time>2026-03-22T16:40:11.374Z</time></trkpt><trkpt lat="45.9136617" lon="8.6564633"><ele>623.0</ele><time>2026-03-22T16:40:12.374Z</time></trkpt><trkpt lat="45.9135617" lon="8.6565917"><ele>623.0</ele><time>2026-03-22T16:40:13.374Z</time></trkpt><trkpt lat="45.9134883" lon="8.65675"><ele>623.0</ele><time>2026-03-22T16:40:14.374Z</time></trkpt><trkpt lat="45.9134217" lon="8.656895"><ele>623.0</ele><time>2026-03-22T16:40:15.374Z</time></trkpt><trkpt lat="45.9133533" lon="8.6570333"><ele>620.0</ele><time>2026-03-22T16:40:16.374Z</time></trkpt><trkpt lat="45.9132717" lon="8.6571533"><ele>617.0</ele><time>2026-03-22T16:40:17.374Z</time></trkpt><trkpt lat="45.9131817" lon="8.657235"><ele>614.0</ele><time>2026-03-22T16:40:18.374Z</time></trkpt><trkpt lat="45.9130883" lon="8.657295"><ele>611.0</ele><time>2026-03-22T16:40:19.374Z</time></trkpt><trkpt lat="45.913" lon="8.6573433"><ele>608.0</ele><time>2026-03-22T16:40:20.374Z</time></trkpt><trkpt lat="45.9129283" lon="8.6574083"><ele>608.0</ele><time>2026-03-22T16:40:21.374Z</time></trkpt><trkpt lat="45.9128717" lon="8.6574967"><ele>608.0</ele><time>2026-03-22T16:40:22.375Z</time></trkpt><trkpt lat="45.91284" lon="8.657625"><ele>608.0</ele><time>2026-03-22T16:40:23.375Z</time></trkpt><trkpt lat="45.9128217" lon="8.6577483"><ele>608.0</ele><time>2026-03-22T16:40:24.375Z</time></trkpt><trkpt lat="45.9128383" lon="8.65786"><ele>608.0</ele><time>2026-03-22T16:40:25.375Z</time></trkpt><trkpt lat="45.9129033" lon="8.65798"><ele>607.0</ele><time>2026-03-22T16:40:26.375Z</time></trkpt><trkpt lat="45.9129967" lon="8.6581067"><ele>606.0</ele><time>2026-03-22T16:40:27.375Z</time></trkpt><trkpt lat="45.9130867" lon="8.6582233"><ele>605.0</ele><time>2026-03-22T16:40:28.375Z</time></trkpt><trkpt lat="45.9131733" lon="8.65833"><ele>604.0</ele><time>2026-03-22T16:40:29.375Z</time></trkpt><trkpt lat="45.9132317" lon="8.6584383"><ele>604.0</ele><time>2026-03-22T16:40:30.375Z</time></trkpt><trkpt lat="45.9132683" lon="8.65855"><ele>604.0</ele><time>2026-03-22T16:40:31.375Z</time></trkpt><trkpt lat="45.9132883" lon="8.65867"><ele>604.0</ele><time>2026-03-22T16:40:32.375Z</time></trkpt><trkpt lat="45.913285" lon="8.6587967"><ele>604.0</ele><time>2026-03-22T16:40:33.375Z</time></trkpt><trkpt lat="45.913255" lon="8.65892"><ele>604.0</ele><time>2026-03-22T16:40:34.375Z</time></trkpt><trkpt lat="45.913195" lon="8.659015"><ele>604.0</ele><time>2026-03-22T16:40:35.375Z</time></trkpt><trkpt lat="45.9131167" lon="8.6590717"><ele>604.2</ele><time>2026-03-22T16:40:36.375Z</time></trkpt><trkpt lat="45.9130217" lon="8.6591083"><ele>604.4</ele><time>2026-03-22T16:40:37.375Z</time></trkpt><trkpt lat="45.9129283" lon="8.6591717"><ele>604.6</ele><time>2026-03-22T16:40:38.375Z</time></trkpt><trkpt lat="45.9128383" lon="8.6592767"><ele>604.8</ele><time>2026-03-22T16:40:39.375Z</time></trkpt><trkpt lat="45.9127533" lon="8.6594133"><ele>605.0</ele><time>2026-03-22T16:40:40.375Z</time></trkpt><trkpt lat="45.912675" lon="8.6595267"><ele>605.0</ele><time>2026-03-22T16:40:41.375Z</time></trkpt><trkpt lat="45.91261" lon="8.6596233"><ele>605.0</ele><time>2026-03-22T16:40:42.375Z</time></trkpt><trkpt lat="45.912575" lon="8.65973"><ele>605.0</ele><time>2026-03-22T16:40:43.375Z</time></trkpt><trkpt lat="45.9125717" lon="8.6598567"><ele>605.0</ele><time>2026-03-22T16:40:44.375Z</time></trkpt><trkpt lat="45.9125883" lon="8.6600083"><ele>605.0</ele><time>2026-03-22T16:40:45.375Z</time></trkpt><trkpt lat="45.9125983" lon="8.660185"><ele>608.2</ele><time>2026-03-22T16:40:46.375Z</time></trkpt><trkpt lat="45.9125883" lon="8.6603517"><ele>611.4</ele><time>2026-03-22T16:40:47.375Z</time></trkpt><trkpt lat="45.91256" lon="8.6604967"><ele>614.6</ele><time>2026-03-22T16:40:48.375Z</time></trkpt><trkpt lat="45.91252" lon="8.6606267"><ele>617.8</ele><time>2026-03-22T16:40:49.375Z</time></trkpt><trkpt lat="45.9124717" lon="8.660745"><ele>621.0</ele><time>2026-03-22T16:40:50.375Z</time></trkpt><trkpt lat="45.91242" lon="8.6608183"><ele>611.8</ele><time>2026-03-22T16:40:51.375Z</time></trkpt><trkpt lat="45.9123333" lon="8.6608683"><ele>602.6</ele><time>2026-03-22T16:40:53.375Z</time></trkpt><trkpt lat="45.9122283" lon="8.6607667"><ele>593.4</ele><time>2026-03-22T16:40:55.375Z</time></trkpt><trkpt lat="45.9121683" lon="8.6606967"><ele>584.2</ele><time>2026-03-22T16:40:56.375Z</time></trkpt><trkpt lat="45.9120967" lon="8.6606017"><ele>575.0</ele><time>2026-03-22T16:40:57.375Z</time></trkpt><trkpt lat="45.91203" lon="8.6605183"><ele>575.0</ele><time>2026-03-22T16:40:58.375Z</time></trkpt><trkpt lat="45.9119667" lon="8.6604733"><ele>575.0</ele><time>2026-03-22T16:40:59.375Z</time></trkpt><trkpt lat="45.9118917" lon="8.6604767"><ele>575.0</ele><time>2026-03-22T16:41:00.375Z</time></trkpt><trkpt lat="45.911835" lon="8.66054"><ele>575.0</ele><time>2026-03-22T16:41:01.375Z</time></trkpt><trkpt lat="45.9118" lon="8.66064"><ele>575.0</ele><time>2026-03-22T16:41:02.375Z</time></trkpt><trkpt lat="45.91178" lon="8.6607767"><ele>575.0</ele><time>2026-03-22T16:41:03.375Z</time></trkpt><trkpt lat="45.91176" lon="8.6609283"><ele>572.8</ele><time>2026-03-22T16:41:04.375Z</time></trkpt><trkpt lat="45.911725" lon="8.6610733"><ele>570.6</ele><time>2026-03-22T16:41:05.375Z</time></trkpt><trkpt lat="45.9116783" lon="8.6611817"><ele>568.4</ele><time>2026-03-22T16:41:06.375Z</time></trkpt><trkpt lat="45.9116167" lon="8.6612967"><ele>566.2</ele><time>2026-03-22T16:41:07.375Z</time></trkpt><trkpt lat="45.9115417" lon="8.6614"><ele>564.0</ele><time>2026-03-22T16:41:08.375Z</time></trkpt><trkpt lat="45.9114583" lon="8.6615167"><ele>564.0</ele><time>2026-03-22T16:41:09.375Z</time></trkpt><trkpt lat="45.911395" lon="8.66163"><ele>564.0</ele><time>2026-03-22T16:41:10.375Z</time></trkpt><trkpt lat="45.9113567" lon="8.66176"><ele>564.0</ele><time>2026-03-22T16:41:11.375Z</time></trkpt><trkpt lat="45.9113317" lon="8.6618933"><ele>564.0</ele><time>2026-03-22T16:41:12.375Z</time></trkpt><trkpt lat="45.9113" lon="8.6620183"><ele>564.0</ele><time>2026-03-22T16:41:13.375Z</time></trkpt><trkpt lat="45.9112533" lon="8.66211"><ele>569.0</ele><time>2026-03-22T16:41:14.375Z</time></trkpt><trkpt lat="45.9111983" lon="8.6621617"><ele>574.0</ele><time>2026-03-22T16:41:15.375Z</time></trkpt><trkpt lat="45.9111217" lon="8.6621633"><ele>579.0</ele><time>2026-03-22T16:41:16.375Z</time></trkpt><trkpt lat="45.91103" lon="8.662135"><ele>584.0</ele><time>2026-03-22T16:41:17.375Z</time></trkpt><trkpt lat="45.9109333" lon="8.6620583"><ele>589.0</ele><time>2026-03-22T16:41:18.375Z</time></trkpt><trkpt lat="45.910825" lon="8.661945"><ele>575.5</ele><time>2026-03-22T16:41:19.375Z</time></trkpt><trkpt lat="45.91072" lon="8.66181"><ele>562.0</ele><time>2026-03-22T16:41:20.375Z</time></trkpt><trkpt lat="45.9106317" lon="8.661675"><ele>548.5</ele><time>2026-03-22T16:41:21.375Z</time></trkpt><trkpt lat="45.9105533" lon="8.66155"><ele>535.0</ele><time>2026-03-22T16:41:22.375Z</time></trkpt><trkpt lat="45.9104733" lon="8.6614283"><ele>535.0</ele><time>2026-03-22T16:41:23.375Z</time></trkpt><trkpt lat="45.9104083" lon="8.66135"><ele>535.0</ele><time>2026-03-22T16:41:24.375Z</time></trkpt><trkpt lat="45.9103367" lon="8.6613033"><ele>535.0</ele><time>2026-03-22T16:41:25.375Z</time></trkpt><trkpt lat="45.9102583" lon="8.6612933"><ele>535.0</ele><time>2026-03-22T16:41:26.375Z</time></trkpt><trkpt lat="45.910175" lon="8.6613217"><ele>535.0</ele><time>2026-03-22T16:41:27.375Z</time></trkpt><trkpt lat="45.91009" lon="8.6613783"><ele>535.0</ele><time>2026-03-22T16:41:28.375Z</time></trkpt><trkpt lat="45.910005" lon="8.6614717"><ele>537.0</ele><time>2026-03-22T16:41:29.375Z</time></trkpt><trkpt lat="45.9099283" lon="8.6615883"><ele>539.0</ele><time>2026-03-22T16:41:30.375Z</time></trkpt><trkpt lat="45.90987" lon="8.6617033"><ele>541.0</ele><time>2026-03-22T16:41:31.375Z</time></trkpt><trkpt lat="45.9098367" lon="8.6618117"><ele>543.0</ele><time>2026-03-22T16:41:32.375Z</time></trkpt><trkpt lat="45.9098283" lon="8.6619467"><ele>545.0</ele><time>2026-03-22T16:41:33.375Z</time></trkpt><trkpt lat="45.9098217" lon="8.6621183"><ele>545.0</ele><time>2026-03-22T16:41:34.375Z</time></trkpt><trkpt lat="45.9098067" lon="8.66232"><ele>545.0</ele><time>2026-03-22T16:41:35.375Z</time></trkpt><trkpt lat="45.9097567" lon="8.6625033"><ele>545.0</ele><time>2026-03-22T16:41:36.375Z</time></trkpt><trkpt lat="45.9096967" lon="8.6626633"><ele>545.0</ele><time>2026-03-22T16:41:37.375Z</time></trkpt><trkpt lat="45.9096267" lon="8.6627933"><ele>552.0</ele><time>2026-03-22T16:41:38.375Z</time></trkpt><trkpt lat="45.9095367" lon="8.6629017"><ele>559.0</ele><time>2026-03-22T16:41:39.375Z</time></trkpt><trkpt lat="45.90944" lon="8.6630083"><ele>566.0</ele><time>2026-03-22T16:41:40.375Z</time></trkpt><trkpt lat="45.90935" lon="8.6631117"><ele>573.0</ele><time>2026-03-22T16:41:41.375Z</time></trkpt><trkpt lat="45.9092867" lon="8.6632233"><ele>573.0</ele><time>2026-03-22T16:41:42.375Z</time></trkpt><trkpt lat="45.90925" lon="8.6633467"><ele>573.0</ele><time>2026-03-22T16:41:43.375Z</time></trkpt><trkpt lat="45.90923" lon="8.6634733"><ele>573.0</ele><time>2026-03-22T16:41:44.375Z</time></trkpt><trkpt lat="45.9092233" lon="8.6635933"><ele>573.0</ele><time>2026-03-22T16:41:45.375Z</time></trkpt><trkpt lat="45.9091867" lon="8.66368"><ele>573.0</ele><time>2026-03-22T16:41:46.375Z</time></trkpt><trkpt lat="45.9091267" lon="8.6637367"><ele>573.0</ele><time>2026-03-22T16:41:47.375Z</time></trkpt><trkpt lat="45.9090383" lon="8.6637767"><ele>567.0</ele><time>2026-03-22T16:41:48.375Z</time></trkpt><trkpt lat="45.9089433" lon="8.66383"><ele>561.0</ele><time>2026-03-22T16:41:49.375Z</time></trkpt><trkpt lat="45.9088483" lon="8.6638917"><ele>555.0</ele><time>2026-03-22T16:41:50.375Z</time></trkpt><trkpt lat="45.9087533" lon="8.6639533"><ele>549.0</ele><time>2026-03-22T16:41:51.375Z</time></trkpt><trkpt lat="45.90867" lon="8.6640067"><ele>543.0</ele><time>2026-03-22T16:41:52.375Z</time></trkpt><trkpt lat="45.908585" lon="8.6640767"><ele>543.0</ele><time>2026-03-22T16:41:53.375Z</time></trkpt><trkpt lat="45.90851" lon="8.6641533"><ele>543.0</ele><time>2026-03-22T16:41:54.375Z</time></trkpt><trkpt lat="45.908435" lon="8.6642283"><ele>543.0</ele><time>2026-03-22T16:41:55.375Z</time></trkpt><trkpt lat="45.9083567" lon="8.6642717"><ele>543.0</ele><time>2026-03-22T16:41:56.375Z</time></trkpt><trkpt lat="45.9082767" lon="8.6642967"><ele>543.0</ele><time>2026-03-22T16:41:57.375Z</time></trkpt><trkpt lat="45.908195" lon="8.6643"><ele>543.0</ele><time>2026-03-22T16:41:58.375Z</time></trkpt><trkpt lat="45.90812" lon="8.664295"><ele>541.1428571428571</ele><time>2026-03-22T16:41:59.375Z</time></trkpt><trkpt lat="45.9080433" lon="8.66429"><ele>539.2857142857142</ele><time>2026-03-22T16:42:00.375Z</time></trkpt><trkpt lat="45.907975" lon="8.6643117"><ele>537.4285714285713</ele><time>2026-03-22T16:42:01.375Z</time></trkpt><trkpt lat="45.9079133" lon="8.6643683"><ele>535.5714285714286</ele><time>2026-03-22T16:42:02.375Z</time></trkpt><trkpt lat="45.90786" lon="8.6644367"><ele>533.7142857142857</ele><time>2026-03-22T16:42:03.375Z</time></trkpt><trkpt lat="45.9078217" lon="8.6645317"><ele>531.8571428571428</ele><time>2026-03-22T16:42:04.375Z</time></trkpt><trkpt lat="45.9077867" lon="8.66462"><ele>530.0</ele><time>2026-03-22T16:42:05.375Z</time></trkpt><trkpt lat="45.907745" lon="8.6647033"><ele>530.0</ele><time>2026-03-22T16:42:06.375Z</time></trkpt><trkpt lat="45.9077017" lon="8.664775"><ele>530.0</ele><time>2026-03-22T16:42:07.375Z</time></trkpt><trkpt lat="45.9076467" lon="8.66482"><ele>530.0</ele><time>2026-03-22T16:42:08.375Z</time></trkpt><trkpt lat="45.9075783" lon="8.6648433"><ele>530.0</ele><time>2026-03-22T16:42:09.375Z</time></trkpt><trkpt lat="45.9075133" lon="8.6648517"><ele>530.0</ele><time>2026-03-22T16:42:10.375Z</time></trkpt><trkpt lat="45.9073867" lon="8.6648783"><ele>530.0</ele><time>2026-03-22T16:42:12.375Z</time></trkpt><trkpt lat="45.9073267" lon="8.66492"><ele>528.8333333333333</ele><time>2026-03-22T16:42:13.375Z</time></trkpt><trkpt lat="45.9072717" lon="8.6649783"><ele>527.6666666666666</ele><time>2026-03-22T16:42:14.375Z</time></trkpt><trkpt lat="45.90722" lon="8.6650517"><ele>526.5</ele><time>2026-03-22T16:42:15.375Z</time></trkpt><trkpt lat="45.9071733" lon="8.66513"><ele>525.3333333333334</ele><time>2026-03-22T16:42:16.375Z</time></trkpt><trkpt lat="45.907125" lon="8.665225"><ele>524.1666666666667</ele><time>2026-03-22T16:42:17.375Z</time></trkpt><trkpt lat="45.9070867" lon="8.6653267"><ele>523.0</ele><time>2026-03-22T16:42:18.375Z</time></trkpt><trkpt lat="45.907045" lon="8.6654333"><ele>523.0</ele><time>2026-03-22T16:42:19.375Z</time></trkpt><trkpt lat="45.9070017" lon="8.6655283"><ele>523.0</ele><time>2026-03-22T16:42:20.375Z</time></trkpt><trkpt lat="45.9069467" lon="8.665605"><ele>523.0</ele><time>2026-03-22T16:42:21.375Z</time></trkpt><trkpt lat="45.9068833" lon="8.6656717"><ele>523.0</ele><time>2026-03-22T16:42:22.375Z</time></trkpt><trkpt lat="45.9068067" lon="8.665735"><ele>523.0</ele><time>2026-03-22T16:42:23.375Z</time></trkpt><trkpt lat="45.90672" lon="8.665795"><ele>523.0</ele><time>2026-03-22T16:42:24.375Z</time></trkpt><trkpt lat="45.9066283" lon="8.665845"><ele>515.6</ele><time>2026-03-22T16:42:25.375Z</time></trkpt><trkpt lat="45.9065483" lon="8.665875"><ele>508.19999999999993</ele><time>2026-03-22T16:42:26.375Z</time></trkpt><trkpt lat="45.90647" lon="8.6658767"><ele>500.8</ele><time>2026-03-22T16:42:27.375Z</time></trkpt><trkpt lat="45.90639" lon="8.66583"><ele>493.4</ele><time>2026-03-22T16:42:28.375Z</time></trkpt><trkpt lat="45.9062967" lon="8.6657467"><ele>486.0</ele><time>2026-03-22T16:42:29.375Z</time></trkpt><trkpt lat="45.9061833" lon="8.6656617"><ele>486.0</ele><time>2026-03-22T16:42:30.375Z</time></trkpt><trkpt lat="45.9060633" lon="8.6656083"><ele>486.0</ele><time>2026-03-22T16:42:31.375Z</time></trkpt><trkpt lat="45.9059483" lon="8.66558"><ele>486.0</ele><time>2026-03-22T16:42:32.375Z</time></trkpt><trkpt lat="45.90584" lon="8.6655717"><ele>486.0</ele><time>2026-03-22T16:42:33.375Z</time></trkpt><trkpt lat="45.905735" lon="8.6655767"><ele>484.0</ele><time>2026-03-22T16:42:34.375Z</time></trkpt><trkpt lat="45.9056283" lon="8.6655767"><ele>482.0</ele><time>2026-03-22T16:42:35.375Z</time></trkpt><trkpt lat="45.9055317" lon="8.6655983"><ele>480.0</ele><time>2026-03-22T16:42:36.375Z</time></trkpt><trkpt lat="45.905445" lon="8.6656233"><ele>478.0</ele><time>2026-03-22T16:42:37.375Z</time></trkpt><trkpt lat="45.9053683" lon="8.6656417"><ele>476.0</ele><time>2026-03-22T16:42:38.375Z</time></trkpt><trkpt lat="45.905295" lon="8.665655"><ele>474.0</ele><time>2026-03-22T16:42:39.375Z</time></trkpt><trkpt lat="45.90519" lon="8.6656567"><ele>474.0</ele><time>2026-03-22T16:42:41.375Z</time></trkpt><trkpt lat="45.9051033" lon="8.6656833"><ele>474.0</ele><time>2026-03-22T16:42:43.375Z</time></trkpt><trkpt lat="45.9050517" lon="8.66575"><ele>474.0</ele><time>2026-03-22T16:42:45.375Z</time></trkpt><trkpt lat="45.905005" lon="8.6658333"><ele>474.0</ele><time>2026-03-22T16:42:47.375Z</time></trkpt><trkpt lat="45.9049533" lon="8.6659"><ele>474.0</ele><time>2026-03-22T16:42:49.375Z</time></trkpt><trkpt lat="45.9048883" lon="8.6659417"><ele>474.0</ele><time>2026-03-22T16:42:51.375Z</time></trkpt><trkpt lat="45.9047683" lon="8.66603"><ele>477.6</ele><time>2026-03-22T16:42:53.375Z</time></trkpt><trkpt lat="45.90469" lon="8.66609"><ele>481.2</ele><time>2026-03-22T16:42:54.375Z</time></trkpt><trkpt lat="45.904605" lon="8.6661267"><ele>484.80000000000007</ele><time>2026-03-22T16:42:55.375Z</time></trkpt><trkpt lat="45.9045233" lon="8.6661417"><ele>488.40000000000003</ele><time>2026-03-22T16:42:56.375Z</time></trkpt><trkpt lat="45.90443" lon="8.666115"><ele>492.0</ele><time>2026-03-22T16:42:57.375Z</time></trkpt><trkpt lat="45.9043283" lon="8.66606"><ele>473.66666666666663</ele><time>2026-03-22T16:42:58.375Z</time></trkpt><trkpt lat="45.9042" lon="8.6659667"><ele>455.3333333333333</ele><time>2026-03-22T16:42:59.375Z</time></trkpt><trkpt lat="45.90406" lon="8.66586"><ele>437.0</ele><time>2026-03-22T16:43:00.375Z</time></trkpt><trkpt lat="45.9039167" lon="8.6657533"><ele>437.0</ele><time>2026-03-22T16:43:01.375Z</time></trkpt><trkpt lat="45.9037867" lon="8.6656567"><ele>437.0</ele><time>2026-03-22T16:43:02.376Z</time></trkpt><trkpt lat="45.9036717" lon="8.665565"><ele>437.0</ele><time>2026-03-22T16:43:03.375Z</time></trkpt><trkpt lat="45.9035667" lon="8.66548"><ele>437.0</ele><time>2026-03-22T16:43:04.375Z</time></trkpt><trkpt lat="45.9034633" lon="8.6654183"><ele>439.0</ele><time>2026-03-22T16:43:05.375Z</time></trkpt><trkpt lat="45.9033417" lon="8.66539"><ele>441.0</ele><time>2026-03-22T16:43:06.375Z</time></trkpt><trkpt lat="45.90322" lon="8.66538"><ele>443.0</ele><time>2026-03-22T16:43:07.375Z</time></trkpt><trkpt lat="45.9030867" lon="8.66536"><ele>445.0</ele><time>2026-03-22T16:43:08.375Z</time></trkpt><trkpt lat="45.9029467" lon="8.66532"><ele>437.5</ele><time>2026-03-22T16:43:09.375Z</time></trkpt><trkpt lat="45.9028217" lon="8.66527"><ele>430.0</ele><time>2026-03-22T16:43:10.375Z</time></trkpt><trkpt lat="45.90269" lon="8.6651817"><ele>422.5</ele><time>2026-03-22T16:43:11.375Z</time></trkpt><trkpt lat="45.9025633" lon="8.6651017"><ele>415.0</ele><time>2026-03-22T16:43:12.375Z</time></trkpt><trkpt lat="45.9024517" lon="8.6650133"><ele>415.0</ele><time>2026-03-22T16:43:13.375Z</time></trkpt><trkpt lat="45.9023567" lon="8.6649433"><ele>415.0</ele><time>2026-03-22T16:43:14.376Z</time></trkpt><trkpt lat="45.9022583" lon="8.664905"><ele>415.0</ele><time>2026-03-22T16:43:15.375Z</time></trkpt><trkpt lat="45.902155" lon="8.6648883"><ele>415.0</ele><time>2026-03-22T16:43:16.375Z</time></trkpt><trkpt lat="45.9020383" lon="8.664905"><ele>415.0</ele><time>2026-03-22T16:43:17.375Z</time></trkpt><trkpt lat="45.9019283" lon="8.6649483"><ele>415.0</ele><time>2026-03-22T16:43:18.375Z</time></trkpt><trkpt lat="45.90182" lon="8.6649967"><ele>415.0</ele><time>2026-03-22T16:43:19.375Z</time></trkpt><trkpt lat="45.90171" lon="8.6650733"><ele>415.0</ele><time>2026-03-22T16:43:20.375Z</time></trkpt><trkpt lat="45.9016283" lon="8.6651683"><ele>415.0</ele><time>2026-03-22T16:43:21.375Z</time></trkpt><trkpt lat="45.9015683" lon="8.6652667"><ele>415.0</ele><time>2026-03-22T16:43:22.375Z</time></trkpt><trkpt lat="45.901525" lon="8.6653867"><ele>413.75</ele><time>2026-03-22T16:43:23.375Z</time></trkpt><trkpt lat="45.9015017" lon="8.665535"><ele>412.5</ele><time>2026-03-22T16:43:24.376Z</time></trkpt><trkpt lat="45.9014883" lon="8.6657183"><ele>411.25</ele><time>2026-03-22T16:43:25.375Z</time></trkpt><trkpt lat="45.9014883" lon="8.6659"><ele>410.0</ele><time>2026-03-22T16:43:26.375Z</time></trkpt><trkpt lat="45.9014983" lon="8.6660667"><ele>409.8</ele><time>2026-03-22T16:43:27.375Z</time></trkpt><trkpt lat="45.901515" lon="8.6662133"><ele>409.6</ele><time>2026-03-22T16:43:28.375Z</time></trkpt><trkpt lat="45.90153" lon="8.666335"><ele>409.4</ele><time>2026-03-22T16:43:29.375Z</time></trkpt><trkpt lat="45.9015217" lon="8.66648"><ele>409.2</ele><time>2026-03-22T16:43:31.375Z</time></trkpt><trkpt lat="45.9014433" lon="8.6664717"><ele>409.0</ele><time>2026-03-22T16:43:33.375Z</time></trkpt><trkpt lat="45.90139" lon="8.6663717"><ele>409.0</ele><time>2026-03-22T16:43:34.375Z</time></trkpt><trkpt lat="45.9013283" lon="8.66622"><ele>409.0</ele><time>2026-03-22T16:43:35.375Z</time></trkpt><trkpt lat="45.90123" lon="8.6660433"><ele>409.0</ele><time>2026-03-22T16:43:36.375Z</time></trkpt><trkpt lat="45.90114" lon="8.6658517"><ele>409.0</ele><time>2026-03-22T16:43:37.375Z</time></trkpt><trkpt lat="45.9010617" lon="8.665675"><ele>409.2</ele><time>2026-03-22T16:43:38.375Z</time></trkpt><trkpt lat="45.9010017" lon="8.6655333"><ele>409.4</ele><time>2026-03-22T16:43:39.375Z</time></trkpt><trkpt lat="45.9009617" lon="8.6654183"><ele>409.6</ele><time>2026-03-22T16:43:40.375Z</time></trkpt><trkpt lat="45.90094" lon="8.6653183"><ele>409.8</ele><time>2026-03-22T16:43:41.375Z</time></trkpt><trkpt lat="45.9009483" lon="8.665165"><ele>410.0</ele><time>2026-03-22T16:43:43.375Z</time></trkpt><trkpt lat="45.9009883" lon="8.6650667"><ele>407.5</ele><time>2026-03-22T16:43:44.375Z</time></trkpt><trkpt lat="45.9010517" lon="8.6649517"><ele>405.0</ele><time>2026-03-22T16:43:45.375Z</time></trkpt><trkpt lat="45.9011333" lon="8.6648233"><ele>402.5</ele><time>2026-03-22T16:43:46.375Z</time></trkpt><trkpt lat="45.9012167" lon="8.6646883"><ele>400.0</ele><time>2026-03-22T16:43:47.375Z</time></trkpt><trkpt lat="45.9013017" lon="8.6645667"><ele>400.0</ele><time>2026-03-22T16:43:48.375Z</time></trkpt><trkpt lat="45.9013833" lon="8.66447"><ele>400.0</ele><time>2026-03-22T16:43:49.375Z</time></trkpt><trkpt lat="45.9014617" lon="8.6643817"><ele>400.0</ele><time>2026-03-22T16:43:50.375Z</time></trkpt><trkpt lat="45.9015383" lon="8.6643033"><ele>400.0</ele><time>2026-03-22T16:43:51.375Z</time></trkpt><trkpt lat="45.9016067" lon="8.6642333"><ele>400.0</ele><time>2026-03-22T16:43:52.375Z</time></trkpt><trkpt lat="45.901655" lon="8.6641617"><ele>395.8</ele><time>2026-03-22T16:43:53.375Z</time></trkpt><trkpt lat="45.9016817" lon="8.66405"><ele>391.6</ele><time>2026-03-22T16:43:55.375Z</time></trkpt><trkpt lat="45.9016" lon="8.6640467"><ele>387.4</ele><time>2026-03-22T16:43:57.375Z</time></trkpt><trkpt lat="45.901525" lon="8.664105"><ele>383.2</ele><time>2026-03-22T16:43:58.375Z</time></trkpt><trkpt lat="45.90142" lon="8.6641933"><ele>379.0</ele><time>2026-03-22T16:43:59.375Z</time></trkpt><trkpt lat="45.90129" lon="8.6643017"><ele>379.0</ele><time>2026-03-22T16:44:00.375Z</time></trkpt><trkpt lat="45.901145" lon="8.6644217"><ele>379.0</ele><time>2026-03-22T16:44:01.375Z</time></trkpt><trkpt lat="45.901015" lon="8.6645383"><ele>379.0</ele><time>2026-03-22T16:44:02.375Z</time></trkpt><trkpt lat="45.9008933" lon="8.6646483"><ele>378.25</ele><time>2026-03-22T16:44:03.375Z</time></trkpt><trkpt lat="45.9007717" lon="8.66475"><ele>377.5</ele><time>2026-03-22T16:44:04.375Z</time></trkpt><trkpt lat="45.90065" lon="8.664825"><ele>376.75</ele><time>2026-03-22T16:44:05.375Z</time></trkpt><trkpt lat="45.9005317" lon="8.6648983"><ele>376.0</ele><time>2026-03-22T16:44:06.375Z</time></trkpt><trkpt lat="45.9004067" lon="8.6649617"><ele>376.0</ele><time>2026-03-22T16:44:07.375Z</time></trkpt><trkpt lat="45.90031" lon="8.6650167"><ele>376.0</ele><time>2026-03-22T16:44:08.375Z</time></trkpt><trkpt lat="45.90023" lon="8.6650867"><ele>376.0</ele><time>2026-03-22T16:44:09.375Z</time></trkpt><trkpt lat="45.9001683" lon="8.6651883"><ele>376.0</ele><time>2026-03-22T16:44:10.375Z</time></trkpt><trkpt lat="45.90012" lon="8.6653167"><ele>376.0</ele><time>2026-03-22T16:44:11.375Z</time></trkpt><trkpt lat="45.90008" lon="8.6654317"><ele>376.0</ele><time>2026-03-22T16:44:12.375Z</time></trkpt><trkpt lat="45.9000117" lon="8.665535"><ele>376.0</ele><time>2026-03-22T16:44:14.375Z</time></trkpt><trkpt lat="45.899965" lon="8.6654633"><ele>376.0</ele><time>2026-03-22T16:44:16.375Z</time></trkpt><trkpt lat="45.9000167" lon="8.6652983"><ele>376.0</ele><time>2026-03-22T16:44:18.375Z</time></trkpt><trkpt lat="45.900075" lon="8.6651767"><ele>376.0</ele><time>2026-03-22T16:44:19.375Z</time></trkpt><trkpt lat="45.9001433" lon="8.6650433"><ele>376.0</ele><time>2026-03-22T16:44:20.375Z</time></trkpt><trkpt lat="45.9002283" lon="8.664905"><ele>376.0</ele><time>2026-03-22T16:44:21.375Z</time></trkpt><trkpt lat="45.9003183" lon="8.6647917"><ele>376.0</ele><time>2026-03-22T16:44:22.375Z</time></trkpt><trkpt lat="45.9003967" lon="8.66471"><ele>376.0</ele><time>2026-03-22T16:44:23.375Z</time></trkpt><trkpt lat="45.9004683" lon="8.6646583"><ele>376.0</ele><time>2026-03-22T16:44:24.375Z</time></trkpt><trkpt lat="45.900525" lon="8.66461"><ele>376.0</ele><time>2026-03-22T16:44:25.375Z</time></trkpt><trkpt lat="45.9005633" lon="8.6645217"><ele>376.0</ele><time>2026-03-22T16:44:27.375Z</time></trkpt><trkpt lat="45.9004717" lon="8.6645033"><ele>376.0</ele><time>2026-03-22T16:44:29.375Z</time></trkpt><trkpt lat="45.9004017" lon="8.6645567"><ele>376.0</ele><time>2026-03-22T16:44:30.375Z</time></trkpt><trkpt lat="45.9003217" lon="8.66464"><ele>376.0</ele><time>2026-03-22T16:44:31.375Z</time></trkpt><trkpt lat="45.9002217" lon="8.664745"><ele>376.0</ele><time>2026-03-22T16:44:32.375Z</time></trkpt><trkpt lat="45.900125" lon="8.66484"><ele>376.0</ele><time>2026-03-22T16:44:33.375Z</time></trkpt><trkpt lat="45.9000267" lon="8.6648983"><ele>376.0</ele><time>2026-03-22T16:44:34.375Z</time></trkpt><trkpt lat="45.8999317" lon="8.6649133"><ele>376.0</ele><time>2026-03-22T16:44:35.375Z</time></trkpt><trkpt lat="45.8998383" lon="8.664925"><ele>376.0</ele><time>2026-03-22T16:44:36.375Z</time></trkpt><trkpt lat="45.8997567" lon="8.664965"><ele>372.16666666666663</ele><time>2026-03-22T16:44:37.375Z</time></trkpt><trkpt lat="45.8996817" lon="8.6650233"><ele>368.3333333333333</ele><time>2026-03-22T16:44:38.375Z</time></trkpt><trkpt lat="45.8996167" lon="8.6651117"><ele>364.5</ele><time>2026-03-22T16:44:39.375Z</time></trkpt><trkpt lat="45.8995633" lon="8.6652"><ele>360.6666666666667</ele><time>2026-03-22T16:44:40.375Z</time></trkpt><trkpt lat="45.8995017" lon="8.6652683"><ele>356.83333333333337</ele><time>2026-03-22T16:44:41.375Z</time></trkpt><trkpt lat="45.8994267" lon="8.6653067"><ele>353.0</ele><time>2026-03-22T16:44:42.375Z</time></trkpt><trkpt lat="45.89935" lon="8.665295"><ele>352.2</ele><time>2026-03-22T16:44:43.375Z</time></trkpt><trkpt lat="45.8992833" lon="8.6652483"><ele>351.4</ele><time>2026-03-22T16:44:44.375Z</time></trkpt><trkpt lat="45.8992483" lon="8.66517"><ele>350.59999999999997</ele><time>2026-03-22T16:44:45.375Z</time></trkpt><trkpt lat="45.8992933" lon="8.6650167"><ele>349.79999999999995</ele><time>2026-03-22T16:44:47.375Z</time></trkpt><trkpt lat="45.8993617" lon="8.6649433"><ele>349.0</ele><time>2026-03-22T16:44:48.375Z</time></trkpt><trkpt lat="45.8994617" lon="8.6648583"><ele>349.0</ele><time>2026-03-22T16:44:49.375Z</time></trkpt><trkpt lat="45.8995483" lon="8.6647467"><ele>349.0</ele><time>2026-03-22T16:44:50.375Z</time></trkpt><trkpt lat="45.8996283" lon="8.6646083"><ele>349.0</ele><time>2026-03-22T16:44:51.375Z</time></trkpt><trkpt lat="45.899715" lon="8.6645"><ele>349.0</ele><time>2026-03-22T16:44:52.375Z</time></trkpt><trkpt lat="45.899795" lon="8.66443"><ele>350.0</ele><time>2026-03-22T16:44:53.375Z</time></trkpt><trkpt lat="45.8998883" lon="8.664405"><ele>351.0</ele><time>2026-03-22T16:44:54.375Z</time></trkpt><trkpt lat="45.899975" lon="8.6643817"><ele>352.0</ele><time>2026-03-22T16:44:55.375Z</time></trkpt><trkpt lat="45.9000567" lon="8.6643283"><ele>353.0</ele><time>2026-03-22T16:44:56.375Z</time></trkpt><trkpt lat="45.9001317" lon="8.6642083"><ele>354.0</ele><time>2026-03-22T16:44:57.375Z</time></trkpt><trkpt lat="45.9001883" lon="8.6640483"><ele>354.0</ele><time>2026-03-22T16:44:58.375Z</time></trkpt><trkpt lat="45.9002483" lon="8.6639117"><ele>354.0</ele><time>2026-03-22T16:44:59.375Z</time></trkpt><trkpt lat="45.900295" lon="8.6637533"><ele>354.0</ele><time>2026-03-22T16:45:00.375Z</time></trkpt><trkpt lat="45.90035" lon="8.6636183"><ele>354.0</ele><time>2026-03-22T16:45:01.375Z</time></trkpt><trkpt lat="45.9004167" lon="8.66349"><ele>348.79999999999995</ele><time>2026-03-22T16:45:02.375Z</time></trkpt><trkpt lat="45.9004817" lon="8.663365"><ele>343.59999999999997</ele><time>2026-03-22T16:45:03.375Z</time></trkpt><trkpt lat="45.900545" lon="8.6632483"><ele>338.4</ele><time>2026-03-22T16:45:04.375Z</time></trkpt><trkpt lat="45.900615" lon="8.6631333"><ele>333.2</ele><time>2026-03-22T16:45:05.375Z</time></trkpt><trkpt lat="45.900685" lon="8.6630167"><ele>328.0</ele><time>2026-03-22T16:45:06.375Z</time></trkpt><trkpt lat="45.9007467" lon="8.6629067"><ele>328.0</ele><time>2026-03-22T16:45:07.375Z</time></trkpt><trkpt lat="45.900785" lon="8.6628133"><ele>328.0</ele><time>2026-03-22T16:45:08.375Z</time></trkpt><trkpt lat="45.9007933" lon="8.6627017"><ele>328.0</ele><time>2026-03-22T16:45:09.375Z</time></trkpt><trkpt lat="45.9007717" lon="8.662575"><ele>328.0</ele><time>2026-03-22T16:45:10.375Z</time></trkpt><trkpt lat="45.9007167" lon="8.66243"><ele>328.0</ele><time>2026-03-22T16:45:11.375Z</time></trkpt><trkpt lat="45.9006667" lon="8.6622983"><ele>325.3333333333333</ele><time>2026-03-22T16:45:12.375Z</time></trkpt><trkpt lat="45.900625" lon="8.66217"><ele>322.66666666666663</ele><time>2026-03-22T16:45:13.375Z</time></trkpt><trkpt lat="45.9006067" lon="8.6620483"><ele>320.0</ele><time>2026-03-22T16:45:14.375Z</time></trkpt><trkpt lat="45.9006117" lon="8.66195"><ele>317.3333333333333</ele><time>2026-03-22T16:45:15.375Z</time></trkpt><trkpt lat="45.9006633" lon="8.6618867"><ele>314.6666666666667</ele><time>2026-03-22T16:45:16.375Z</time></trkpt><trkpt lat="45.90073" lon="8.661845"><ele>312.0</ele><time>2026-03-22T16:45:17.375Z</time></trkpt><trkpt lat="45.9008" lon="8.661805"><ele>309.6666666666667</ele><time>2026-03-22T16:45:18.375Z</time></trkpt><trkpt lat="45.9008617" lon="8.6617617"><ele>307.3333333333333</ele><time>2026-03-22T16:45:19.375Z</time></trkpt><trkpt lat="45.9008967" lon="8.661655"><ele>305.0</ele><time>2026-03-22T16:45:21.375Z</time></trkpt><trkpt lat="45.9008067" lon="8.6616483"><ele>302.66666666666663</ele><time>2026-03-22T16:45:23.375Z</time></trkpt><trkpt lat="45.9007317" lon="8.66171"><ele>300.3333333333333</ele><time>2026-03-22T16:45:24.375Z</time></trkpt><trkpt lat="45.90064" lon="8.661775"><ele>298.0</ele><time>2026-03-22T16:45:25.375Z</time></trkpt><trkpt lat="45.90054" lon="8.661835"><ele>298.0</ele><time>2026-03-22T16:45:26.375Z</time></trkpt><trkpt lat="45.9004383" lon="8.6619033"><ele>298.0</ele><time>2026-03-22T16:45:27.375Z</time></trkpt><trkpt lat="45.900345" lon="8.6619667"><ele>298.0</ele><time>2026-03-22T16:45:28.375Z</time></trkpt><trkpt lat="45.90025" lon="8.6620333"><ele>298.0</ele><time>2026-03-22T16:45:29.375Z</time></trkpt><trkpt lat="45.9001583" lon="8.6620833"><ele>298.0</ele><time>2026-03-22T16:45:30.375Z</time></trkpt><trkpt lat="45.90006" lon="8.66211"><ele>298.0</ele><time>2026-03-22T16:45:31.375Z</time></trkpt><trkpt lat="45.899965" lon="8.662135"><ele>298.0</ele><time>2026-03-22T16:45:32.375Z</time></trkpt><trkpt lat="45.8998583" lon="8.6621483"><ele>298.0</ele><time>2026-03-22T16:45:33.375Z</time></trkpt><trkpt lat="45.89977" lon="8.662195"><ele>298.0</ele><time>2026-03-22T16:45:34.375Z</time></trkpt><trkpt lat="45.8996917" lon="8.662285"><ele>298.0</ele><time>2026-03-22T16:45:35.375Z</time></trkpt><trkpt lat="45.8996183" lon="8.66239"><ele>298.0</ele><time>2026-03-22T16:45:36.375Z</time></trkpt><trkpt lat="45.8995417" lon="8.662465"><ele>298.0</ele><time>2026-03-22T16:45:37.375Z</time></trkpt><trkpt lat="45.8994483" lon="8.6624933"><ele>298.0</ele><time>2026-03-22T16:45:38.375Z</time></trkpt><trkpt lat="45.8993667" lon="8.662515"><ele>298.0</ele><time>2026-03-22T16:45:39.376Z</time></trkpt><trkpt lat="45.89929" lon="8.6625783"><ele>298.0</ele><time>2026-03-22T16:45:40.375Z</time></trkpt><trkpt lat="45.8992233" lon="8.662685"><ele>295.75</ele><time>2026-03-22T16:45:41.375Z</time></trkpt><trkpt lat="45.8991733" lon="8.662825"><ele>293.5</ele><time>2026-03-22T16:45:42.375Z</time></trkpt><trkpt lat="45.8991217" lon="8.66299"><ele>291.25</ele><time>2026-03-22T16:45:43.375Z</time></trkpt><trkpt lat="45.8990433" lon="8.6631317"><ele>289.0</ele><time>2026-03-22T16:45:44.375Z</time></trkpt><trkpt lat="45.8989617" lon="8.6632517"><ele>289.0</ele><time>2026-03-22T16:45:45.375Z</time></trkpt><trkpt lat="45.89887" lon="8.66337"><ele>289.0</ele><time>2026-03-22T16:45:46.375Z</time></trkpt><trkpt lat="45.89879" lon="8.6634883"><ele>289.0</ele><time>2026-03-22T16:45:47.375Z</time></trkpt><trkpt lat="45.89872" lon="8.6636233"><ele>289.0</ele><time>2026-03-22T16:45:48.375Z</time></trkpt><trkpt lat="45.89866" lon="8.6637717"><ele>285.75</ele><time>2026-03-22T16:45:49.375Z</time></trkpt><trkpt lat="45.898595" lon="8.66392"><ele>282.5</ele><time>2026-03-22T16:45:50.375Z</time></trkpt><trkpt lat="45.8985283" lon="8.6640667"><ele>279.25</ele><time>2026-03-22T16:45:51.375Z</time></trkpt><trkpt lat="45.8984733" lon="8.6642133"><ele>276.0</ele><time>2026-03-22T16:45:52.375Z</time></trkpt><trkpt lat="45.8984167" lon="8.664325"><ele>276.0</ele><time>2026-03-22T16:45:53.375Z</time></trkpt><trkpt lat="45.8983417" lon="8.6644"><ele>276.0</ele><time>2026-03-22T16:45:54.375Z</time></trkpt><trkpt lat="45.898265" lon="8.6644317"><ele>276.0</ele><time>2026-03-22T16:45:55.375Z</time></trkpt><trkpt lat="45.8981833" lon="8.664425"><ele>276.0</ele><time>2026-03-22T16:45:56.375Z</time></trkpt><trkpt lat="45.8981017" lon="8.664395"><ele>276.0</ele><time>2026-03-22T16:45:57.375Z</time></trkpt><trkpt lat="45.898015" lon="8.6643617"><ele>276.0</ele><time>2026-03-22T16:45:58.375Z</time></trkpt><trkpt lat="45.89791" lon="8.66434"><ele>276.0</ele><time>2026-03-22T16:45:59.376Z</time></trkpt><trkpt lat="45.8978233" lon="8.66435"><ele>276.0</ele><time>2026-03-22T16:46:00.375Z</time></trkpt><trkpt lat="45.897715" lon="8.66433"><ele>276.0</ele><time>2026-03-22T16:46:01.375Z</time></trkpt><trkpt lat="45.8976133" lon="8.66432"><ele>276.0</ele><time>2026-03-22T16:46:02.375Z</time></trkpt><trkpt lat="45.8975133" lon="8.6643233"><ele>276.0</ele><time>2026-03-22T16:46:03.375Z</time></trkpt><trkpt lat="45.89741" lon="8.66435"><ele>274.0</ele><time>2026-03-22T16:46:04.375Z</time></trkpt><trkpt lat="45.89731" lon="8.6644017"><ele>272.0</ele><time>2026-03-22T16:46:05.375Z</time></trkpt><trkpt lat="45.8972033" lon="8.66446"><ele>270.0</ele><time>2026-03-22T16:46:06.375Z</time></trkpt><trkpt lat="45.8971083" lon="8.6645"><ele>268.0</ele><time>2026-03-22T16:46:07.375Z</time></trkpt><trkpt lat="45.89702" lon="8.66452"><ele>266.0</ele><time>2026-03-22T16:46:08.375Z</time></trkpt><trkpt lat="45.8969333" lon="8.6645333"><ele>266.0</ele><time>2026-03-22T16:46:09.375Z</time></trkpt><trkpt lat="45.896845" lon="8.6645433"><ele>266.0</ele><time>2026-03-22T16:46:10.375Z</time></trkpt><trkpt lat="45.8967583" lon="8.6645483"><ele>266.0</ele><time>2026-03-22T16:46:11.375Z</time></trkpt><trkpt lat="45.8966683" lon="8.6645533"><ele>266.0</ele><time>2026-03-22T16:46:12.375Z</time></trkpt><trkpt lat="45.896575" lon="8.6645567"><ele>266.0</ele><time>2026-03-22T16:46:13.375Z</time></trkpt><trkpt lat="45.89648" lon="8.6645517"><ele>264.1666666666667</ele><time>2026-03-22T16:46:14.375Z</time></trkpt><trkpt lat="45.8963883" lon="8.664565"><ele>262.33333333333337</ele><time>2026-03-22T16:46:15.375Z</time></trkpt><trkpt lat="45.89631" lon="8.6645733"><ele>260.5</ele><time>2026-03-22T16:46:16.375Z</time></trkpt><trkpt lat="45.8962133" lon="8.664605"><ele>258.6666666666667</ele><time>2026-03-22T16:46:18.375Z</time></trkpt><trkpt lat="45.896155" lon="8.6646467"><ele>256.8333333333333</ele><time>2026-03-22T16:46:20.375Z</time></trkpt><trkpt lat="45.89606" lon="8.664725"><ele>255.0</ele><time>2026-03-22T16:46:22.375Z</time></trkpt><trkpt lat="45.8959833" lon="8.6647667"><ele>253.66666666666666</ele><time>2026-03-22T16:46:23.375Z</time></trkpt><trkpt lat="45.8958983" lon="8.6648083"><ele>252.33333333333331</ele><time>2026-03-22T16:46:24.375Z</time></trkpt><trkpt lat="45.895825" lon="8.664845"><ele>251.0</ele><time>2026-03-22T16:46:25.375Z</time></trkpt><trkpt lat="45.8957367" lon="8.6648717"><ele>249.66666666666666</ele><time>2026-03-22T16:46:27.375Z</time></trkpt><trkpt lat="45.8956567" lon="8.6648967"><ele>248.33333333333331</ele><time>2026-03-22T16:46:33.375Z</time></trkpt><trkpt lat="45.89558" lon="8.664905"><ele>247.0</ele><time>2026-03-22T16:46:35.375Z</time></trkpt><trkpt lat="45.8955" lon="8.6649083"><ele>247.0</ele><time>2026-03-22T16:47:03.375Z</time></trkpt><trkpt lat="45.8954267" lon="8.6649617"><ele>247.0</ele><time>2026-03-22T16:47:05.375Z</time></trkpt><trkpt lat="45.895395" lon="8.6651083"><ele>247.0</ele><time>2026-03-22T16:47:07.375Z</time></trkpt><trkpt lat="45.89541" lon="8.665225"><ele>247.0</ele><time>2026-03-22T16:47:08.375Z</time></trkpt><trkpt lat="45.895435" lon="8.6653567"><ele>247.0</ele><time>2026-03-22T16:47:09.375Z</time></trkpt><trkpt lat="45.8954583" lon="8.6655"><ele>247.0</ele><time>2026-03-22T16:47:10.375Z</time></trkpt><trkpt lat="45.895465" lon="8.665655"><ele>247.0</ele><time>2026-03-22T16:47:11.375Z</time></trkpt><trkpt lat="45.8954617" lon="8.66581"><ele>247.0</ele><time>2026-03-22T16:47:12.375Z</time></trkpt><trkpt lat="45.8954133" lon="8.6659667"><ele>247.0</ele><time>2026-03-22T16:47:13.375Z</time></trkpt><trkpt lat="45.8953383" lon="8.666115"><ele>247.0</ele><time>2026-03-22T16:47:14.375Z</time></trkpt><trkpt lat="45.8952583" lon="8.6662767"><ele>247.0</ele><time>2026-03-22T16:47:15.375Z</time></trkpt><trkpt lat="45.8951783" lon="8.6664483"><ele>247.0</ele><time>2026-03-22T16:47:16.375Z</time></trkpt><trkpt lat="45.89509" lon="8.6666317"><ele>247.0</ele><time>2026-03-22T16:47:17.375Z</time></trkpt><trkpt lat="45.8950017" lon="8.666805"><ele>245.66666666666666</ele><time>2026-03-22T16:47:18.375Z</time></trkpt><trkpt lat="45.8949117" lon="8.6669733"><ele>244.33333333333331</ele><time>2026-03-22T16:47:19.375Z</time></trkpt><trkpt lat="45.8948183" lon="8.66716"><ele>243.0</ele><time>2026-03-22T16:47:20.375Z</time></trkpt><trkpt lat="45.8947367" lon="8.667355"><ele>243.0</ele><time>2026-03-22T16:47:21.375Z</time></trkpt><trkpt lat="45.8946733" lon="8.6675683"><ele>243.0</ele><time>2026-03-22T16:47:22.375Z</time></trkpt><trkpt lat="45.894615" lon="8.66779"><ele>243.0</ele><time>2026-03-22T16:47:23.375Z</time></trkpt><trkpt lat="45.894565" lon="8.6680383"><ele>243.75</ele><time>2026-03-22T16:47:24.375Z</time></trkpt><trkpt lat="45.8945233" lon="8.6682667"><ele>244.5</ele><time>2026-03-22T16:47:25.375Z</time></trkpt><trkpt lat="45.8944767" lon="8.6684583"><ele>245.25</ele><time>2026-03-22T16:47:26.375Z</time></trkpt><trkpt lat="45.8944333" lon="8.6686333"><ele>246.0</ele><time>2026-03-22T16:47:27.375Z</time></trkpt><trkpt lat="45.89438" lon="8.6687967"><ele>246.0</ele><time>2026-03-22T16:47:28.375Z</time></trkpt><trkpt lat="45.8943433" lon="8.6689567"><ele>246.00000000000003</ele><time>2026-03-22T16:47:29.375Z</time></trkpt><trkpt lat="45.8943083" lon="8.66911"><ele>246.00000000000003</ele><time>2026-03-22T16:47:30.375Z</time></trkpt><trkpt lat="45.8942617" lon="8.6692267"><ele>246.0</ele><time>2026-03-22T16:47:31.375Z</time></trkpt><trkpt lat="45.89419" lon="8.6693333"><ele>246.0</ele><time>2026-03-22T16:47:32.375Z</time></trkpt><trkpt lat="45.8940933" lon="8.6694167"><ele>246.60000000000002</ele><time>2026-03-22T16:47:33.375Z</time></trkpt><trkpt lat="45.8939867" lon="8.6694517"><ele>247.20000000000002</ele><time>2026-03-22T16:47:34.375Z</time></trkpt><trkpt lat="45.8938883" lon="8.6694817"><ele>247.79999999999998</ele><time>2026-03-22T16:47:35.375Z</time></trkpt><trkpt lat="45.8937967" lon="8.6695083"><ele>248.39999999999998</ele><time>2026-03-22T16:47:36.375Z</time></trkpt><trkpt lat="45.89372" lon="8.6695267"><ele>249.0</ele><time>2026-03-22T16:47:37.375Z</time></trkpt><trkpt lat="45.8936483" lon="8.669545"><ele>249.0</ele><time>2026-03-22T16:47:38.375Z</time></trkpt><trkpt lat="45.893575" lon="8.669565"><ele>249.0</ele><time>2026-03-22T16:47:39.375Z</time></trkpt><trkpt lat="45.8935" lon="8.6695883"><ele>249.0</ele><time>2026-03-22T16:47:40.375Z</time></trkpt><trkpt lat="45.8934267" lon="8.66961"><ele>249.0</ele><time>2026-03-22T16:47:41.375Z</time></trkpt><trkpt lat="45.89335" lon="8.6696283"><ele>249.0</ele><time>2026-03-22T16:47:42.375Z</time></trkpt><trkpt lat="45.8932583" lon="8.6696433"><ele>249.0</ele><time>2026-03-22T16:47:43.375Z</time></trkpt><trkpt lat="45.8931717" lon="8.6696533"><ele>248.2</ele><time>2026-03-22T16:47:44.375Z</time></trkpt><trkpt lat="45.893075" lon="8.6696667"><ele>247.39999999999998</ele><time>2026-03-22T16:47:45.375Z</time></trkpt><trkpt lat="45.892975" lon="8.6696817"><ele>246.6</ele><time>2026-03-22T16:47:46.375Z</time></trkpt><trkpt lat="45.8928783" lon="8.6697017"><ele>245.8</ele><time>2026-03-22T16:47:47.375Z</time></trkpt><trkpt lat="45.8927783" lon="8.6697183"><ele>245.0</ele><time>2026-03-22T16:47:48.375Z</time></trkpt><trkpt lat="45.8926867" lon="8.6697317"><ele>245.0</ele><time>2026-03-22T16:47:49.375Z</time></trkpt><trkpt lat="45.8925917" lon="8.669755"><ele>245.0</ele><time>2026-03-22T16:47:50.375Z</time></trkpt><trkpt lat="45.892495" lon="8.6697683"><ele>245.0</ele><time>2026-03-22T16:47:51.375Z</time></trkpt><trkpt lat="45.8923983" lon="8.6697833"><ele>245.0</ele><time>2026-03-22T16:47:52.375Z</time></trkpt><trkpt lat="45.8923017" lon="8.6697983"><ele>245.0</ele><time>2026-03-22T16:47:53.375Z</time></trkpt><trkpt lat="45.8922083" lon="8.6698183"><ele>245.0</ele><time>2026-03-22T16:47:54.375Z</time></trkpt><trkpt lat="45.892115" lon="8.6698367"><ele>245.0</ele><time>2026-03-22T16:47:55.375Z</time></trkpt><trkpt lat="45.89202" lon="8.669845"><ele>245.0</ele><time>2026-03-22T16:47:56.375Z</time></trkpt><trkpt lat="45.8919283" lon="8.6698517"><ele>245.0</ele><time>2026-03-22T16:47:57.375Z</time></trkpt><trkpt lat="45.8918367" lon="8.6698733"><ele>245.0</ele><time>2026-03-22T16:47:58.375Z</time></trkpt><trkpt lat="45.8917483" lon="8.6698883"><ele>245.16666666666669</ele><time>2026-03-22T16:47:59.375Z</time></trkpt><trkpt lat="45.8916717" lon="8.669905"><ele>245.33333333333334</ele><time>2026-03-22T16:48:00.375Z</time></trkpt><trkpt lat="45.8916" lon="8.66992"><ele>245.5</ele><time>2026-03-22T16:48:01.375Z</time></trkpt><trkpt lat="45.891535" lon="8.6699317"><ele>245.66666666666669</ele><time>2026-03-22T16:48:02.375Z</time></trkpt><trkpt lat="45.8914283" lon="8.669945"><ele>245.83333333333334</ele><time>2026-03-22T16:48:04.375Z</time></trkpt><trkpt lat="45.8913633" lon="8.6699683"><ele>246.0</ele><time>2026-03-22T16:48:06.375Z</time></trkpt><trkpt lat="45.8912667" lon="8.6700267"><ele>246.0</ele><time>2026-03-22T16:48:09.375Z</time></trkpt><trkpt lat="45.8911883" lon="8.67003"><ele>246.0</ele><time>2026-03-22T16:48:11.375Z</time></trkpt><trkpt lat="45.8910967" lon="8.67"><ele>246.0</ele><time>2026-03-22T16:48:14.375Z</time></trkpt><trkpt lat="45.8910333" lon="8.6699717"><ele>246.0</ele><time>2026-03-22T16:48:15.375Z</time></trkpt><trkpt lat="45.8909433" lon="8.669965"><ele>246.0</ele><time>2026-03-22T16:48:16.375Z</time></trkpt><trkpt lat="45.890835" lon="8.6699983"><ele>246.0</ele><time>2026-03-22T16:48:17.375Z</time></trkpt><trkpt lat="45.8907067" lon="8.6700583"><ele>247.0</ele><time>2026-03-22T16:48:18.375Z</time></trkpt><trkpt lat="45.8905433" lon="8.6701133"><ele>248.0</ele><time>2026-03-22T16:48:19.375Z</time></trkpt><trkpt lat="45.89037" lon="8.670145"><ele>249.0</ele><time>2026-03-22T16:48:20.375Z</time></trkpt><trkpt lat="45.890185" lon="8.67018"><ele>249.33333333333331</ele><time>2026-03-22T16:48:21.375Z</time></trkpt><trkpt lat="45.8900033" lon="8.6702133"><ele>249.66666666666666</ele><time>2026-03-22T16:48:22.375Z</time></trkpt><trkpt lat="45.8898267" lon="8.67024"><ele>250.0</ele><time>2026-03-22T16:48:23.375Z</time></trkpt><trkpt lat="45.88966" lon="8.6702617"><ele>250.33333333333331</ele><time>2026-03-22T16:48:24.375Z</time></trkpt><trkpt lat="45.8894983" lon="8.6702933"><ele>250.66666666666669</ele><time>2026-03-22T16:48:25.375Z</time></trkpt><trkpt lat="45.88935" lon="8.67033"><ele>251.0</ele><time>2026-03-22T16:48:26.375Z</time></trkpt><trkpt lat="45.8892017" lon="8.67036"><ele>251.0</ele><time>2026-03-22T16:48:27.375Z</time></trkpt><trkpt lat="45.8890517" lon="8.6703817"><ele>251.0</ele><time>2026-03-22T16:48:28.375Z</time></trkpt><trkpt lat="45.8889083" lon="8.6704017"><ele>251.0</ele><time>2026-03-22T16:48:29.375Z</time></trkpt><trkpt lat="45.88877" lon="8.6704217"><ele>251.0</ele><time>2026-03-22T16:48:30.375Z</time></trkpt><trkpt lat="45.8886383" lon="8.670445"><ele>251.0</ele><time>2026-03-22T16:48:31.375Z</time></trkpt><trkpt lat="45.8885117" lon="8.6704667"><ele>251.0</ele><time>2026-03-22T16:48:32.375Z</time></trkpt><trkpt lat="45.888385" lon="8.670495"><ele>251.0</ele><time>2026-03-22T16:48:33.375Z</time></trkpt><trkpt lat="45.8882583" lon="8.6705133"><ele>251.0</ele><time>2026-03-22T16:48:34.375Z</time></trkpt><trkpt lat="45.8881367" lon="8.6705333"><ele>251.25</ele><time>2026-03-22T16:48:35.375Z</time></trkpt><trkpt lat="45.888015" lon="8.6705667"><ele>251.5</ele><time>2026-03-22T16:48:36.375Z</time></trkpt><trkpt lat="45.8878833" lon="8.670585"><ele>251.75</ele><time>2026-03-22T16:48:37.375Z</time></trkpt><trkpt lat="45.8877483" lon="8.6706017"><ele>252.0</ele><time>2026-03-22T16:48:38.375Z</time></trkpt><trkpt lat="45.88762" lon="8.6706183"><ele>251.75</ele><time>2026-03-22T16:48:39.375Z</time></trkpt><trkpt lat="45.8874983" lon="8.6706417"><ele>251.5</ele><time>2026-03-22T16:48:40.375Z</time></trkpt><trkpt lat="45.887375" lon="8.6706683"><ele>251.25</ele><time>2026-03-22T16:48:41.375Z</time></trkpt><trkpt lat="45.8872433" lon="8.67069"><ele>251.0</ele><time>2026-03-22T16:48:42.375Z</time></trkpt><trkpt lat="45.8871017" lon="8.67072"><ele>251.0</ele><time>2026-03-22T16:48:43.375Z</time></trkpt><trkpt lat="45.886935" lon="8.6707617"><ele>251.0</ele><time>2026-03-22T16:48:44.375Z</time></trkpt><trkpt lat="45.886765" lon="8.6707933"><ele>251.0</ele><time>2026-03-22T16:48:45.375Z</time></trkpt><trkpt lat="45.8866083" lon="8.6708133"><ele>252.0</ele><time>2026-03-22T16:48:46.375Z</time></trkpt><trkpt lat="45.8864717" lon="8.6708183"><ele>253.0</ele><time>2026-03-22T16:48:47.375Z</time></trkpt><trkpt lat="45.886345" lon="8.6708383"><ele>254.0</ele><time>2026-03-22T16:48:48.375Z</time></trkpt><trkpt lat="45.8862283" lon="8.6708567"><ele>255.0</ele><time>2026-03-22T16:48:49.375Z</time></trkpt><trkpt lat="45.8861167" lon="8.6708767"><ele>255.0</ele><time>2026-03-22T16:48:50.375Z</time></trkpt><trkpt lat="45.8860083" lon="8.6708983"><ele>255.0</ele><time>2026-03-22T16:48:51.375Z</time></trkpt><trkpt lat="45.8858833" lon="8.670915"><ele>255.0</ele><time>2026-03-22T16:48:52.375Z</time></trkpt><trkpt lat="45.885755" lon="8.6709283"><ele>255.0</ele><time>2026-03-22T16:48:53.375Z</time></trkpt><trkpt lat="45.8856367" lon="8.6709483"><ele>255.5</ele><time>2026-03-22T16:48:54.375Z</time></trkpt><trkpt lat="45.8855117" lon="8.670975"><ele>256.0</ele><time>2026-03-22T16:48:55.375Z</time></trkpt><trkpt lat="45.8853833" lon="8.6709983"><ele>256.5</ele><time>2026-03-22T16:48:56.375Z</time></trkpt><trkpt lat="45.88526" lon="8.6710233"><ele>257.0</ele><time>2026-03-22T16:48:57.375Z</time></trkpt><trkpt lat="45.88512" lon="8.6710483"><ele>257.25</ele><time>2026-03-22T16:48:58.375Z</time></trkpt><trkpt lat="45.8849733" lon="8.6710767"><ele>257.5</ele><time>2026-03-22T16:48:59.375Z</time></trkpt><trkpt lat="45.8848383" lon="8.671095"><ele>257.75</ele><time>2026-03-22T16:49:00.375Z</time></trkpt><trkpt lat="45.8846967" lon="8.67112"><ele>258.0</ele><time>2026-03-22T16:49:01.375Z</time></trkpt><trkpt lat="45.884575" lon="8.67114"><ele>259.25</ele><time>2026-03-22T16:49:02.375Z</time></trkpt><trkpt lat="45.8844483" lon="8.6711583"><ele>260.5</ele><time>2026-03-22T16:49:03.375Z</time></trkpt><trkpt lat="45.8843267" lon="8.6711683"><ele>261.75</ele><time>2026-03-22T16:49:04.375Z</time></trkpt><trkpt lat="45.8842083" lon="8.6711883"><ele>263.0</ele><time>2026-03-22T16:49:05.375Z</time></trkpt><trkpt lat="45.8840883" lon="8.6712167"><ele>263.0</ele><time>2026-03-22T16:49:06.375Z</time></trkpt><trkpt lat="45.8839683" lon="8.671245"><ele>263.0</ele><time>2026-03-22T16:49:07.375Z</time></trkpt><trkpt lat="45.883855" lon="8.6712683"><ele>263.0</ele><time>2026-03-22T16:49:08.375Z</time></trkpt><trkpt lat="45.88374" lon="8.6712817"><ele>263.0</ele><time>2026-03-22T16:49:09.375Z</time></trkpt><trkpt lat="45.88363" lon="8.67129"><ele>263.0</ele><time>2026-03-22T16:49:10.375Z</time></trkpt><trkpt lat="45.8835083" lon="8.6713017"><ele>263.0</ele><time>2026-03-22T16:49:11.375Z</time></trkpt><trkpt lat="45.8833767" lon="8.6713117"><ele>263.0</ele><time>2026-03-22T16:49:12.375Z</time></trkpt><trkpt lat="45.8832333" lon="8.671315"><ele>263.0</ele><time>2026-03-22T16:49:13.375Z</time></trkpt><trkpt lat="45.88306" lon="8.671305"><ele>263.0</ele><time>2026-03-22T16:49:14.375Z</time></trkpt><trkpt lat="45.8828683" lon="8.6712917"><ele>263.0</ele><time>2026-03-22T16:49:15.375Z</time></trkpt><trkpt lat="45.882675" lon="8.671255"><ele>263.0</ele><time>2026-03-22T16:49:16.375Z</time></trkpt><trkpt lat="45.88248" lon="8.671215"><ele>261.6666666666667</ele><time>2026-03-22T16:49:17.375Z</time></trkpt><trkpt lat="45.8822983" lon="8.6711867"><ele>260.3333333333333</ele><time>2026-03-22T16:49:18.375Z</time></trkpt><trkpt lat="45.88214" lon="8.6711633"><ele>259.0</ele><time>2026-03-22T16:49:19.375Z</time></trkpt><trkpt lat="45.8819983" lon="8.6711783"><ele>259.0</ele><time>2026-03-22T16:49:20.375Z</time></trkpt><trkpt lat="45.8818733" lon="8.671225"><ele>259.0</ele><time>2026-03-22T16:49:21.375Z</time></trkpt><trkpt lat="45.88176" lon="8.6712867"><ele>259.0</ele><time>2026-03-22T16:49:22.375Z</time></trkpt><trkpt lat="45.8816533" lon="8.671315"><ele>259.0</ele><time>2026-03-22T16:49:23.375Z</time></trkpt><trkpt lat="45.8815617" lon="8.6713067"><ele>259.0</ele><time>2026-03-22T16:49:24.375Z</time></trkpt><trkpt lat="45.8814817" lon="8.6713333"><ele>259.0</ele><time>2026-03-22T16:49:25.375Z</time></trkpt><trkpt lat="45.881405" lon="8.6714083"><ele>259.0</ele><time>2026-03-22T16:49:26.375Z</time></trkpt><trkpt lat="45.881345" lon="8.6715367"><ele>259.0</ele><time>2026-03-22T16:49:27.375Z</time></trkpt><trkpt lat="45.8812767" lon="8.6716633"><ele>259.0</ele><time>2026-03-22T16:49:28.375Z</time></trkpt><trkpt lat="45.8811983" lon="8.67178"><ele>259.0</ele><time>2026-03-22T16:49:29.375Z</time></trkpt><trkpt lat="45.8811117" lon="8.671865"><ele>259.0</ele><time>2026-03-22T16:49:30.375Z</time></trkpt><trkpt lat="45.8810333" lon="8.6719233"><ele>259.0</ele><time>2026-03-22T16:49:31.375Z</time></trkpt><trkpt lat="45.8809667" lon="8.6719483"><ele>259.0</ele><time>2026-03-22T16:49:32.375Z</time></trkpt><trkpt lat="45.880905" lon="8.6719667"><ele>259.0</ele><time>2026-03-22T16:49:33.375Z</time></trkpt><trkpt lat="45.8808067" lon="8.671995"><ele>259.0</ele><time>2026-03-22T16:49:35.375Z</time></trkpt><trkpt lat="45.8807317" lon="8.67202"><ele>260.2</ele><time>2026-03-22T16:49:37.375Z</time></trkpt><trkpt lat="45.8806383" lon="8.6720633"><ele>261.4</ele><time>2026-03-22T16:49:39.375Z</time></trkpt><trkpt lat="45.8805783" lon="8.6721017"><ele>262.6</ele><time>2026-03-22T16:49:40.375Z</time></trkpt><trkpt lat="45.88051" lon="8.6721417"><ele>263.8</ele><time>2026-03-22T16:49:41.375Z</time></trkpt><trkpt lat="45.8804167" lon="8.6721683"><ele>265.0</ele><time>2026-03-22T16:49:42.375Z</time></trkpt><trkpt lat="45.8802983" lon="8.67221"><ele>265.0</ele><time>2026-03-22T16:49:43.375Z</time></trkpt><trkpt lat="45.880165" lon="8.6722667"><ele>265.0</ele><time>2026-03-22T16:49:44.375Z</time></trkpt><trkpt lat="45.8800267" lon="8.6723317"><ele>265.0</ele><time>2026-03-22T16:49:45.375Z</time></trkpt><trkpt lat="45.8798783" lon="8.6723983"><ele>265.0</ele><time>2026-03-22T16:49:46.375Z</time></trkpt><trkpt lat="45.8797233" lon="8.67247"><ele>265.0</ele><time>2026-03-22T16:49:47.375Z</time></trkpt><trkpt lat="45.8795717" lon="8.672545"><ele>265.0</ele><time>2026-03-22T16:49:48.375Z</time></trkpt><trkpt lat="45.8794167" lon="8.67261"><ele>265.0</ele><time>2026-03-22T16:49:49.375Z</time></trkpt><trkpt lat="45.87926" lon="8.67268"><ele>265.3333333333333</ele><time>2026-03-22T16:49:50.375Z</time></trkpt><trkpt lat="45.879095" lon="8.6727517"><ele>265.6666666666667</ele><time>2026-03-22T16:49:51.375Z</time></trkpt><trkpt lat="45.8789367" lon="8.67283"><ele>266.0</ele><time>2026-03-22T16:49:52.375Z</time></trkpt><trkpt lat="45.8787767" lon="8.672915"><ele>267.6666666666667</ele><time>2026-03-22T16:49:53.375Z</time></trkpt><trkpt lat="45.878605" lon="8.672985"><ele>269.3333333333333</ele><time>2026-03-22T16:49:54.375Z</time></trkpt><trkpt lat="45.8784417" lon="8.67305"><ele>271.0</ele><time>2026-03-22T16:49:55.375Z</time></trkpt><trkpt lat="45.8782917" lon="8.67312"><ele>271.0</ele><time>2026-03-22T16:49:56.375Z</time></trkpt><trkpt lat="45.87813" lon="8.6731983"><ele>271.0</ele><time>2026-03-22T16:49:57.375Z</time></trkpt><trkpt lat="45.8779667" lon="8.67327"><ele>271.0</ele><time>2026-03-22T16:49:58.375Z</time></trkpt><trkpt lat="45.877795" lon="8.6733533"><ele>271.0</ele><time>2026-03-22T16:49:59.375Z</time></trkpt><trkpt lat="45.8776283" lon="8.6734283"><ele>271.0</ele><time>2026-03-22T16:50:00.376Z</time></trkpt><trkpt lat="45.8774467" lon="8.6734983"><ele>271.0</ele><time>2026-03-22T16:50:01.375Z</time></trkpt><trkpt lat="45.8772683" lon="8.6735433"><ele>270.66666666666663</ele><time>2026-03-22T16:50:02.375Z</time></trkpt><trkpt lat="45.8770817" lon="8.6735883"><ele>270.3333333333333</ele><time>2026-03-22T16:50:03.375Z</time></trkpt><trkpt lat="45.8769017" lon="8.6736167"><ele>270.0</ele><time>2026-03-22T16:50:04.375Z</time></trkpt><trkpt lat="45.8767217" lon="8.6736433"><ele>268.3333333333333</ele><time>2026-03-22T16:50:05.375Z</time></trkpt><trkpt lat="45.8765433" lon="8.6736667"><ele>266.66666666666663</ele><time>2026-03-22T16:50:06.375Z</time></trkpt><trkpt lat="45.8763667" lon="8.673695"><ele>265.0</ele><time>2026-03-22T16:50:07.375Z</time></trkpt><trkpt lat="45.8761967" lon="8.6737017"><ele>265.0</ele><time>2026-03-22T16:50:08.375Z</time></trkpt><trkpt lat="45.8760367" lon="8.6737267"><ele>265.0</ele><time>2026-03-22T16:50:09.375Z</time></trkpt><trkpt lat="45.8758867" lon="8.6737567"><ele>265.0</ele><time>2026-03-22T16:50:10.375Z</time></trkpt><trkpt lat="45.8757517" lon="8.6737817"><ele>265.0</ele><time>2026-03-22T16:50:11.375Z</time></trkpt><trkpt lat="45.8756167" lon="8.6738233"><ele>263.75</ele><time>2026-03-22T16:50:12.375Z</time></trkpt><trkpt lat="45.87549" lon="8.6738617"><ele>262.5</ele><time>2026-03-22T16:50:13.375Z</time></trkpt><trkpt lat="45.8753717" lon="8.6739117"><ele>261.25</ele><time>2026-03-22T16:50:14.375Z</time></trkpt><trkpt lat="45.8752633" lon="8.6739733"><ele>260.0</ele><time>2026-03-22T16:50:15.375Z</time></trkpt><trkpt lat="45.875155" lon="8.6740367"><ele>259.25</ele><time>2026-03-22T16:50:16.375Z</time></trkpt><trkpt lat="45.87505" lon="8.6741067"><ele>258.5</ele><time>2026-03-22T16:50:17.375Z</time></trkpt><trkpt lat="45.8749467" lon="8.6741867"><ele>257.75</ele><time>2026-03-22T16:50:18.375Z</time></trkpt><trkpt lat="45.8748617" lon="8.67427"><ele>257.0</ele><time>2026-03-22T16:50:19.375Z</time></trkpt><trkpt lat="45.8747583" lon="8.6743517"><ele>257.0</ele><time>2026-03-22T16:50:20.375Z</time></trkpt><trkpt lat="45.8746283" lon="8.6744083"><ele>257.0</ele><time>2026-03-22T16:50:21.375Z</time></trkpt><trkpt lat="45.874495" lon="8.6744183"><ele>257.0</ele><time>2026-03-22T16:50:22.375Z</time></trkpt><trkpt lat="45.8743533" lon="8.6743617"><ele>257.0</ele><time>2026-03-22T16:50:23.375Z</time></trkpt><trkpt lat="45.8742267" lon="8.6742767"><ele>256.0</ele><time>2026-03-22T16:50:24.375Z</time></trkpt><trkpt lat="45.8740967" lon="8.6741917"><ele>255.0</ele><time>2026-03-22T16:50:25.375Z</time></trkpt><trkpt lat="45.8739783" lon="8.6741133"><ele>254.0</ele><time>2026-03-22T16:50:26.375Z</time></trkpt><trkpt lat="45.8738633" lon="8.6740467"><ele>253.0</ele><time>2026-03-22T16:50:27.375Z</time></trkpt><trkpt lat="45.873745" lon="8.67398"><ele>253.0</ele><time>2026-03-22T16:50:28.375Z</time></trkpt><trkpt lat="45.873635" lon="8.6739133"><ele>253.0</ele><time>2026-03-22T16:50:29.375Z</time></trkpt><trkpt lat="45.8735183" lon="8.6738483"><ele>253.0</ele><time>2026-03-22T16:50:30.375Z</time></trkpt><trkpt lat="45.8733967" lon="8.6737817"><ele>253.0</ele><time>2026-03-22T16:50:31.375Z</time></trkpt><trkpt lat="45.8732717" lon="8.673705"><ele>251.5</ele><time>2026-03-22T16:50:32.375Z</time></trkpt><trkpt lat="45.873145" lon="8.6736233"><ele>250.0</ele><time>2026-03-22T16:50:33.375Z</time></trkpt><trkpt lat="45.87302" lon="8.6735433"><ele>248.5</ele><time>2026-03-22T16:50:34.375Z</time></trkpt><trkpt lat="45.8728833" lon="8.6734633"><ele>247.0</ele><time>2026-03-22T16:50:35.375Z</time></trkpt><trkpt lat="45.87275" lon="8.673385"><ele>247.0</ele><time>2026-03-22T16:50:36.375Z</time></trkpt><trkpt lat="45.8726133" lon="8.6732967"><ele>247.0</ele><time>2026-03-22T16:50:37.375Z</time></trkpt><trkpt lat="45.8724567" lon="8.6732033"><ele>247.0</ele><time>2026-03-22T16:50:38.375Z</time></trkpt><trkpt lat="45.8722833" lon="8.6731133"><ele>246.33333333333331</ele><time>2026-03-22T16:50:39.375Z</time></trkpt><trkpt lat="45.8720883" lon="8.6730033"><ele>245.66666666666669</ele><time>2026-03-22T16:50:40.375Z</time></trkpt><trkpt lat="45.8719033" lon="8.6728717"><ele>245.0</ele><time>2026-03-22T16:50:41.376Z</time></trkpt><trkpt lat="45.8717233" lon="8.6727533"><ele>244.66666666666669</ele><time>2026-03-22T16:50:42.375Z</time></trkpt><trkpt lat="45.8715567" lon="8.6726383"><ele>244.33333333333331</ele><time>2026-03-22T16:50:43.375Z</time></trkpt><trkpt lat="45.8714067" lon="8.67254"><ele>244.0</ele><time>2026-03-22T16:50:44.375Z</time></trkpt><trkpt lat="45.8712733" lon="8.67246"><ele>244.0</ele><time>2026-03-22T16:50:45.375Z</time></trkpt><trkpt lat="45.871155" lon="8.6723867"><ele>243.99999999999997</ele><time>2026-03-22T16:50:46.375Z</time></trkpt><trkpt lat="45.8710683" lon="8.6722867"><ele>243.99999999999997</ele><time>2026-03-22T16:50:47.375Z</time></trkpt><trkpt lat="45.8710017" lon="8.6721783"><ele>244.0</ele><time>2026-03-22T16:50:48.375Z</time></trkpt><trkpt lat="45.8709467" lon="8.6720533"><ele>244.0</ele><time>2026-03-22T16:50:49.375Z</time></trkpt><trkpt lat="45.87088" lon="8.67194"><ele>243.0</ele><time>2026-03-22T16:50:50.375Z</time></trkpt><trkpt lat="45.8707917" lon="8.6718933"><ele>241.99999999999997</ele><time>2026-03-22T16:50:51.375Z</time></trkpt><trkpt lat="45.870715" lon="8.6718917"><ele>240.99999999999997</ele><time>2026-03-22T16:50:52.375Z</time></trkpt><trkpt lat="45.870625" lon="8.67192"><ele>240.0</ele><time>2026-03-22T16:50:53.375Z</time></trkpt><trkpt lat="45.870525" lon="8.6719317"><ele>239.0</ele><time>2026-03-22T16:50:54.375Z</time></trkpt><trkpt lat="45.87042" lon="8.6719067"><ele>239.0</ele><time>2026-03-22T16:50:55.375Z</time></trkpt><trkpt lat="45.8703067" lon="8.6718533"><ele>239.0</ele><time>2026-03-22T16:50:56.375Z</time></trkpt><trkpt lat="45.8701833" lon="8.6717783"><ele>239.0</ele><time>2026-03-22T16:50:57.375Z</time></trkpt><trkpt lat="45.8700533" lon="8.6716983"><ele>239.0</ele><time>2026-03-22T16:50:58.375Z</time></trkpt><trkpt lat="45.8699267" lon="8.6716167"><ele>238.75</ele><time>2026-03-22T16:50:59.375Z</time></trkpt><trkpt lat="45.869795" lon="8.671535"><ele>238.5</ele><time>2026-03-22T16:51:00.375Z</time></trkpt><trkpt lat="45.8696633" lon="8.6714533"><ele>238.25</ele><time>2026-03-22T16:51:01.375Z</time></trkpt><trkpt lat="45.8695367" lon="8.67137"><ele>238.0</ele><time>2026-03-22T16:51:02.375Z</time></trkpt><trkpt lat="45.8694233" lon="8.671295"><ele>238.0</ele><time>2026-03-22T16:51:03.375Z</time></trkpt><trkpt lat="45.86931" lon="8.6712217"><ele>238.0</ele><time>2026-03-22T16:51:04.375Z</time></trkpt><trkpt lat="45.8691933" lon="8.6711467"><ele>238.0</ele><time>2026-03-22T16:51:05.375Z</time></trkpt><trkpt lat="45.8690717" lon="8.6710783"><ele>238.0</ele><time>2026-03-22T16:51:06.375Z</time></trkpt><trkpt lat="45.868945" lon="8.67101"><ele>237.75</ele><time>2026-03-22T16:51:07.375Z</time></trkpt><trkpt lat="45.8688283" lon="8.6709333"><ele>237.5</ele><time>2026-03-22T16:51:08.375Z</time></trkpt><trkpt lat="45.8687033" lon="8.67086"><ele>237.25</ele><time>2026-03-22T16:51:09.375Z</time></trkpt><trkpt lat="45.86858" lon="8.67078"><ele>237.0</ele><time>2026-03-22T16:51:10.375Z</time></trkpt><trkpt lat="45.86845" lon="8.6707033"><ele>237.0</ele><time>2026-03-22T16:51:11.375Z</time></trkpt><trkpt lat="45.8683333" lon="8.6706233"><ele>237.0</ele><time>2026-03-22T16:51:12.375Z</time></trkpt><trkpt lat="45.8682133" lon="8.6705467"><ele>237.0</ele><time>2026-03-22T16:51:13.375Z</time></trkpt><trkpt lat="45.868105" lon="8.6704817"><ele>237.0</ele><time>2026-03-22T16:51:14.375Z</time></trkpt><trkpt lat="45.86801" lon="8.6704117"><ele>237.0</ele><time>2026-03-22T16:51:15.375Z</time></trkpt><trkpt lat="45.86792" lon="8.6703583"><ele>237.0</ele><time>2026-03-22T16:51:16.375Z</time></trkpt><trkpt lat="45.8678517" lon="8.670295"><ele>237.0</ele><time>2026-03-22T16:51:17.375Z</time></trkpt><trkpt lat="45.8678067" lon="8.6702167"><ele>237.0</ele><time>2026-03-22T16:51:18.375Z</time></trkpt><trkpt lat="45.8677517" lon="8.6700967"><ele>237.0</ele><time>2026-03-22T16:51:20.375Z</time></trkpt><trkpt lat="45.8676583" lon="8.6700333"><ele>237.0</ele><time>2026-03-22T16:56:05.376Z</time></trkpt><trkpt lat="45.8675917" lon="8.6700233"><ele>237.0</ele><time>2026-03-22T16:56:06.376Z</time></trkpt><trkpt lat="45.867405" lon="8.670015"><ele>237.0</ele><time>2026-03-22T16:56:08.376Z</time></trkpt><trkpt lat="45.867275" lon="8.6699483"><ele>237.0</ele><time>2026-03-22T16:56:09.376Z</time></trkpt><trkpt lat="45.86712" lon="8.669855"><ele>237.0</ele><time>2026-03-22T16:56:10.376Z</time></trkpt><trkpt lat="45.86696" lon="8.6697517"><ele>237.0</ele><time>2026-03-22T16:56:11.376Z</time></trkpt><trkpt lat="45.866795" lon="8.6696567"><ele>237.0</ele><time>2026-03-22T16:56:12.376Z</time></trkpt><trkpt lat="45.86663" lon="8.6695567"><ele>236.66666666666669</ele><time>2026-03-22T16:56:13.376Z</time></trkpt><trkpt lat="45.8664633" lon="8.6694583"><ele>236.33333333333334</ele><time>2026-03-22T16:56:14.376Z</time></trkpt><trkpt lat="45.8662983" lon="8.669355"><ele>236.0</ele><time>2026-03-22T16:56:15.376Z</time></trkpt><trkpt lat="45.866115" lon="8.6692433"><ele>235.33333333333334</ele><time>2026-03-22T16:56:16.376Z</time></trkpt><trkpt lat="45.8659283" lon="8.6691333"><ele>234.66666666666669</ele><time>2026-03-22T16:56:17.376Z</time></trkpt><trkpt lat="45.8657467" lon="8.6690217"><ele>234.0</ele><time>2026-03-22T16:56:18.376Z</time></trkpt><trkpt lat="45.865555" lon="8.6689117"><ele>234.0</ele><time>2026-03-22T16:56:19.376Z</time></trkpt><trkpt lat="45.8653783" lon="8.668805"><ele>234.0</ele><time>2026-03-22T16:56:20.376Z</time></trkpt><trkpt lat="45.8652133" lon="8.6687"><ele>234.0</ele><time>2026-03-22T16:56:21.376Z</time></trkpt><trkpt lat="45.865045" lon="8.6686"><ele>234.33333333333331</ele><time>2026-03-22T16:56:22.376Z</time></trkpt><trkpt lat="45.8648817" lon="8.6684883"><ele>234.66666666666666</ele><time>2026-03-22T16:56:23.376Z</time></trkpt><trkpt lat="45.864715" lon="8.66838"><ele>235.0</ele><time>2026-03-22T16:56:24.376Z</time></trkpt><trkpt lat="45.8645533" lon="8.6682717"><ele>235.0</ele><time>2026-03-22T16:56:25.376Z</time></trkpt><trkpt lat="45.8644" lon="8.6681767"><ele>235.0</ele><time>2026-03-22T16:56:26.376Z</time></trkpt><trkpt lat="45.86425" lon="8.6680917"><ele>235.0</ele><time>2026-03-22T16:56:27.376Z</time></trkpt><trkpt lat="45.8640917" lon="8.6680067"><ele>235.0</ele><time>2026-03-22T16:56:28.376Z</time></trkpt><trkpt lat="45.8639267" lon="8.66795"><ele>235.0</ele><time>2026-03-22T16:56:29.376Z</time></trkpt><trkpt lat="45.8637683" lon="8.6679233"><ele>235.0</ele><time>2026-03-22T16:56:30.376Z</time></trkpt><trkpt lat="45.8636217" lon="8.66792"><ele>235.0</ele><time>2026-03-22T16:56:31.376Z</time></trkpt><trkpt lat="45.86347" lon="8.6679417"><ele>235.0</ele><time>2026-03-22T16:56:32.377Z</time></trkpt><trkpt lat="45.86332" lon="8.667995"><ele>235.0</ele><time>2026-03-22T16:56:33.376Z</time></trkpt><trkpt lat="45.8631633" lon="8.6680717"><ele>235.33333333333331</ele><time>2026-03-22T16:56:34.376Z</time></trkpt><trkpt lat="45.8629967" lon="8.6681867"><ele>235.66666666666669</ele><time>2026-03-22T16:56:35.376Z</time></trkpt><trkpt lat="45.8628217" lon="8.6683233"><ele>236.0</ele><time>2026-03-22T16:56:36.376Z</time></trkpt><trkpt lat="45.8626383" lon="8.6684767"><ele>235.66666666666669</ele><time>2026-03-22T16:56:37.376Z</time></trkpt><trkpt lat="45.86245" lon="8.66863"><ele>235.33333333333331</ele><time>2026-03-22T16:56:38.376Z</time></trkpt><trkpt lat="45.8622633" lon="8.6687767"><ele>235.0</ele><time>2026-03-22T16:56:39.376Z</time></trkpt><trkpt lat="45.8620817" lon="8.6689333"><ele>235.0</ele><time>2026-03-22T16:56:40.376Z</time></trkpt><trkpt lat="45.861895" lon="8.6691"><ele>235.0</ele><time>2026-03-22T16:56:41.376Z</time></trkpt><trkpt lat="45.8617133" lon="8.66925"><ele>235.0</ele><time>2026-03-22T16:56:42.376Z</time></trkpt><trkpt lat="45.8615367" lon="8.6694"><ele>234.66666666666666</ele><time>2026-03-22T16:56:43.376Z</time></trkpt><trkpt lat="45.8613567" lon="8.6695467"><ele>234.33333333333331</ele><time>2026-03-22T16:56:44.376Z</time></trkpt><trkpt lat="45.8611817" lon="8.6697"><ele>234.0</ele><time>2026-03-22T16:56:45.376Z</time></trkpt><trkpt lat="45.8610033" lon="8.66986"><ele>234.33333333333331</ele><time>2026-03-22T16:56:46.376Z</time></trkpt><trkpt lat="45.8608233" lon="8.6700067"><ele>234.66666666666666</ele><time>2026-03-22T16:56:47.376Z</time></trkpt><trkpt lat="45.8606367" lon="8.6701567"><ele>235.0</ele><time>2026-03-22T16:56:48.376Z</time></trkpt><trkpt lat="45.86046" lon="8.670305"><ele>235.0</ele><time>2026-03-22T16:56:49.376Z</time></trkpt><trkpt lat="45.86029" lon="8.6704533"><ele>235.0</ele><time>2026-03-22T16:56:50.376Z</time></trkpt><trkpt lat="45.8601167" lon="8.6706017"><ele>235.0</ele><time>2026-03-22T16:56:51.376Z</time></trkpt><trkpt lat="45.8599483" lon="8.6707417"><ele>235.33333333333331</ele><time>2026-03-22T16:56:52.376Z</time></trkpt><trkpt lat="45.859785" lon="8.6708767"><ele>235.66666666666669</ele><time>2026-03-22T16:56:53.376Z</time></trkpt><trkpt lat="45.8596233" lon="8.671015"><ele>236.0</ele><time>2026-03-22T16:56:54.376Z</time></trkpt><trkpt lat="45.859475" lon="8.671135"><ele>236.0</ele><time>2026-03-22T16:56:55.376Z</time></trkpt><trkpt lat="45.8593367" lon="8.6712517"><ele>236.0</ele><time>2026-03-22T16:56:56.376Z</time></trkpt><trkpt lat="45.8592117" lon="8.6713583"><ele>236.0</ele><time>2026-03-22T16:56:57.376Z</time></trkpt><trkpt lat="45.859085" lon="8.6714683"><ele>236.75</ele><time>2026-03-22T16:56:58.376Z</time></trkpt><trkpt lat="45.8589683" lon="8.671565"><ele>237.5</ele><time>2026-03-22T16:56:59.376Z</time></trkpt><trkpt lat="45.8588617" lon="8.67166"><ele>238.25</ele><time>2026-03-22T16:57:00.376Z</time></trkpt><trkpt lat="45.8587517" lon="8.6717517"><ele>239.0</ele><time>2026-03-22T16:57:01.376Z</time></trkpt><trkpt lat="45.8586567" lon="8.671855"><ele>238.5</ele><time>2026-03-22T16:57:02.376Z</time></trkpt><trkpt lat="45.858555" lon="8.6719567"><ele>238.0</ele><time>2026-03-22T16:57:03.376Z</time></trkpt><trkpt lat="45.858455" lon="8.67205"><ele>237.5</ele><time>2026-03-22T16:57:04.376Z</time></trkpt><trkpt lat="45.8583383" lon="8.6721383"><ele>237.0</ele><time>2026-03-22T16:57:05.376Z</time></trkpt><trkpt lat="45.8582033" lon="8.6722367"><ele>237.0</ele><time>2026-03-22T16:57:06.376Z</time></trkpt><trkpt lat="45.8580567" lon="8.6723433"><ele>237.0</ele><time>2026-03-22T16:57:07.376Z</time></trkpt><trkpt lat="45.8578967" lon="8.6724667"><ele>237.0</ele><time>2026-03-22T16:57:08.376Z</time></trkpt><trkpt lat="45.857735" lon="8.672595"><ele>237.0</ele><time>2026-03-22T16:57:09.376Z</time></trkpt><trkpt lat="45.85757" lon="8.67273"><ele>237.0</ele><time>2026-03-22T16:57:10.376Z</time></trkpt><trkpt lat="45.8574067" lon="8.672875"><ele>237.0</ele><time>2026-03-22T16:57:11.376Z</time></trkpt><trkpt lat="45.857245" lon="8.673015"><ele>237.0</ele><time>2026-03-22T16:57:12.376Z</time></trkpt><trkpt lat="45.857085" lon="8.67314"><ele>237.0</ele><time>2026-03-22T16:57:13.376Z</time></trkpt><trkpt lat="45.8569317" lon="8.673255"><ele>237.0</ele><time>2026-03-22T16:57:14.376Z</time></trkpt><trkpt lat="45.8567933" lon="8.673375"><ele>237.33333333333331</ele><time>2026-03-22T16:57:15.376Z</time></trkpt><trkpt lat="45.8566617" lon="8.6735017"><ele>237.66666666666666</ele><time>2026-03-22T16:57:16.376Z</time></trkpt><trkpt lat="45.8565267" lon="8.67362"><ele>238.0</ele><time>2026-03-22T16:57:17.376Z</time></trkpt><trkpt lat="45.85639" lon="8.6737417"><ele>237.0</ele><time>2026-03-22T16:57:18.376Z</time></trkpt><trkpt lat="45.8562483" lon="8.6738583"><ele>236.0</ele><time>2026-03-22T16:57:19.376Z</time></trkpt><trkpt lat="45.856105" lon="8.67397"><ele>235.0</ele><time>2026-03-22T16:57:20.376Z</time></trkpt><trkpt lat="45.8559667" lon="8.6740917"><ele>235.33333333333331</ele><time>2026-03-22T16:57:21.376Z</time></trkpt><trkpt lat="45.8558317" lon="8.674205"><ele>235.66666666666669</ele><time>2026-03-22T16:57:22.376Z</time></trkpt><trkpt lat="45.8556967" lon="8.6743167"><ele>236.0</ele><time>2026-03-22T16:57:23.376Z</time></trkpt><trkpt lat="45.8555717" lon="8.67442"><ele>235.75</ele><time>2026-03-22T16:57:24.376Z</time></trkpt><trkpt lat="45.8554567" lon="8.67453"><ele>235.5</ele><time>2026-03-22T16:57:25.376Z</time></trkpt><trkpt lat="45.8553383" lon="8.6746167"><ele>235.25</ele><time>2026-03-22T16:57:26.376Z</time></trkpt><trkpt lat="45.8552183" lon="8.6746917"><ele>235.0</ele><time>2026-03-22T16:57:27.376Z</time></trkpt><trkpt lat="45.8550967" lon="8.6747667"><ele>235.75</ele><time>2026-03-22T16:57:28.376Z</time></trkpt><trkpt lat="45.8549767" lon="8.674845"><ele>236.5</ele><time>2026-03-22T16:57:29.376Z</time></trkpt><trkpt lat="45.8548483" lon="8.6749017"><ele>237.25</ele><time>2026-03-22T16:57:30.376Z</time></trkpt><trkpt lat="45.854715" lon="8.67495"><ele>238.0</ele><time>2026-03-22T16:57:31.376Z</time></trkpt><trkpt lat="45.854575" lon="8.6750083"><ele>238.0</ele><time>2026-03-22T16:57:32.376Z</time></trkpt><trkpt lat="45.8544383" lon="8.67506"><ele>238.0</ele><time>2026-03-22T16:57:33.376Z</time></trkpt><trkpt lat="45.8543083" lon="8.6751067"><ele>238.0</ele><time>2026-03-22T16:57:34.376Z</time></trkpt><trkpt lat="45.85418" lon="8.67515"><ele>238.0</ele><time>2026-03-22T16:57:35.376Z</time></trkpt><trkpt lat="45.8540583" lon="8.6751917"><ele>237.75</ele><time>2026-03-22T16:57:36.376Z</time></trkpt><trkpt lat="45.85394" lon="8.675235"><ele>237.5</ele><time>2026-03-22T16:57:37.376Z</time></trkpt><trkpt lat="45.853825" lon="8.6752817"><ele>237.25</ele><time>2026-03-22T16:57:38.376Z</time></trkpt><trkpt lat="45.8537083" lon="8.6753267"><ele>237.0</ele><time>2026-03-22T16:57:39.376Z</time></trkpt><trkpt lat="45.8535783" lon="8.6753733"><ele>236.75</ele><time>2026-03-22T16:57:40.376Z</time></trkpt><trkpt lat="45.853455" lon="8.675415"><ele>236.5</ele><time>2026-03-22T16:57:41.376Z</time></trkpt><trkpt lat="45.853335" lon="8.675455"><ele>236.25</ele><time>2026-03-22T16:57:42.376Z</time></trkpt><trkpt lat="45.8532133" lon="8.67549"><ele>236.0</ele><time>2026-03-22T16:57:43.376Z</time></trkpt><trkpt lat="45.8530933" lon="8.67552"><ele>236.0</ele><time>2026-03-22T16:57:44.376Z</time></trkpt><trkpt lat="45.8529883" lon="8.6755617"><ele>236.00000000000003</ele><time>2026-03-22T16:57:45.376Z</time></trkpt><trkpt lat="45.852885" lon="8.6756"><ele>236.00000000000003</ele><time>2026-03-22T16:57:46.376Z</time></trkpt><trkpt lat="45.8527833" lon="8.675635"><ele>236.0</ele><time>2026-03-22T16:57:47.376Z</time></trkpt><trkpt lat="45.852675" lon="8.675675"><ele>236.0</ele><time>2026-03-22T16:57:48.376Z</time></trkpt><trkpt lat="45.852565" lon="8.67571"><ele>236.20000000000002</ele><time>2026-03-22T16:57:49.376Z</time></trkpt><trkpt lat="45.852455" lon="8.6757517"><ele>236.40000000000003</ele><time>2026-03-22T16:57:50.376Z</time></trkpt><trkpt lat="45.8523517" lon="8.67579"><ele>236.6</ele><time>2026-03-22T16:57:51.376Z</time></trkpt><trkpt lat="45.8522467" lon="8.6758233"><ele>236.8</ele><time>2026-03-22T16:57:52.376Z</time></trkpt><trkpt lat="45.8521417" lon="8.6758117"><ele>237.0</ele><time>2026-03-22T16:57:53.376Z</time></trkpt><trkpt lat="45.8520367" lon="8.6757783"><ele>237.0</ele><time>2026-03-22T16:57:54.376Z</time></trkpt><trkpt lat="45.8519367" lon="8.6757217"><ele>237.0</ele><time>2026-03-22T16:57:55.376Z</time></trkpt><trkpt lat="45.8518417" lon="8.6756567"><ele>237.0</ele><time>2026-03-22T16:57:56.377Z</time></trkpt><trkpt lat="45.8517483" lon="8.6755933"><ele>237.0</ele><time>2026-03-22T16:57:57.376Z</time></trkpt><trkpt lat="45.8516583" lon="8.675525"><ele>237.0</ele><time>2026-03-22T16:57:58.376Z</time></trkpt><trkpt lat="45.8515633" lon="8.675475"><ele>237.0</ele><time>2026-03-22T16:57:59.376Z</time></trkpt><trkpt lat="45.8514633" lon="8.6754267"><ele>237.0</ele><time>2026-03-22T16:58:00.376Z</time></trkpt><trkpt lat="45.85136" lon="8.6753633"><ele>237.0</ele><time>2026-03-22T16:58:01.376Z</time></trkpt><trkpt lat="45.8512617" lon="8.6752983"><ele>237.0</ele><time>2026-03-22T16:58:02.376Z</time></trkpt><trkpt lat="45.85116" lon="8.67522"><ele>237.0</ele><time>2026-03-22T16:58:03.376Z</time></trkpt><trkpt lat="45.85106" lon="8.67514"><ele>237.75</ele><time>2026-03-22T16:58:04.376Z</time></trkpt><trkpt lat="45.8509583" lon="8.6750633"><ele>238.5</ele><time>2026-03-22T16:58:05.376Z</time></trkpt><trkpt lat="45.8508583" lon="8.674995"><ele>239.25</ele><time>2026-03-22T16:58:06.376Z</time></trkpt><trkpt lat="45.8507533" lon="8.6749333"><ele>240.0</ele><time>2026-03-22T16:58:07.376Z</time></trkpt><trkpt lat="45.8506467" lon="8.674865"><ele>240.0</ele><time>2026-03-22T16:58:08.376Z</time></trkpt><trkpt lat="45.8505367" lon="8.6747917"><ele>240.0</ele><time>2026-03-22T16:58:09.376Z</time></trkpt><trkpt lat="45.8504267" lon="8.674725"><ele>240.0</ele><time>2026-03-22T16:58:10.376Z</time></trkpt><trkpt lat="45.85031" lon="8.6746517"><ele>240.0</ele><time>2026-03-22T16:58:11.376Z</time></trkpt><trkpt lat="45.8502017" lon="8.6745767"><ele>240.75</ele><time>2026-03-22T16:58:12.376Z</time></trkpt><trkpt lat="45.8500867" lon="8.6744983"><ele>241.5</ele><time>2026-03-22T16:58:13.376Z</time></trkpt><trkpt lat="45.84996" lon="8.6744183"><ele>242.25</ele><time>2026-03-22T16:58:14.376Z</time></trkpt><trkpt lat="45.8498233" lon="8.674345"><ele>243.0</ele><time>2026-03-22T16:58:15.376Z</time></trkpt><trkpt lat="45.849685" lon="8.674275"><ele>243.0</ele><time>2026-03-22T16:58:16.376Z</time></trkpt><trkpt lat="45.849565" lon="8.6742017"><ele>243.0</ele><time>2026-03-22T16:58:17.376Z</time></trkpt><trkpt lat="45.8494467" lon="8.6741317"><ele>243.0</ele><time>2026-03-22T16:58:18.376Z</time></trkpt><trkpt lat="45.8493283" lon="8.67406"><ele>243.0</ele><time>2026-03-22T16:58:19.376Z</time></trkpt><trkpt lat="45.84921" lon="8.6739867"><ele>241.25</ele><time>2026-03-22T16:58:20.376Z</time></trkpt><trkpt lat="45.8491" lon="8.6739133"><ele>239.5</ele><time>2026-03-22T16:58:21.376Z</time></trkpt><trkpt lat="45.8489833" lon="8.6738383"><ele>237.75</ele><time>2026-03-22T16:58:22.376Z</time></trkpt><trkpt lat="45.8488767" lon="8.6737567"><ele>236.0</ele><time>2026-03-22T16:58:23.376Z</time></trkpt><trkpt lat="45.8487717" lon="8.6736767"><ele>236.75</ele><time>2026-03-22T16:58:24.376Z</time></trkpt><trkpt lat="45.8486433" lon="8.6735883"><ele>237.5</ele><time>2026-03-22T16:58:25.376Z</time></trkpt><trkpt lat="45.8485217" lon="8.673485"><ele>238.25</ele><time>2026-03-22T16:58:26.376Z</time></trkpt><trkpt lat="45.8484017" lon="8.6733833"><ele>239.0</ele><time>2026-03-22T16:58:27.376Z</time></trkpt><trkpt lat="45.84828" lon="8.6732933"><ele>239.0</ele><time>2026-03-22T16:58:28.376Z</time></trkpt><trkpt lat="45.8481717" lon="8.673195"><ele>238.99999999999997</ele><time>2026-03-22T16:58:29.376Z</time></trkpt><trkpt lat="45.8480717" lon="8.6731017"><ele>238.99999999999997</ele><time>2026-03-22T16:58:30.376Z</time></trkpt><trkpt lat="45.8479917" lon="8.6730183"><ele>239.0</ele><time>2026-03-22T16:58:31.376Z</time></trkpt><trkpt lat="45.847915" lon="8.6729417"><ele>239.0</ele><time>2026-03-22T16:58:32.376Z</time></trkpt><trkpt lat="45.84784" lon="8.67287"><ele>239.0</ele><time>2026-03-22T16:58:33.376Z</time></trkpt><trkpt lat="45.8477617" lon="8.6727917"><ele>238.99999999999997</ele><time>2026-03-22T16:58:34.376Z</time></trkpt><trkpt lat="45.8476833" lon="8.67272"><ele>238.99999999999997</ele><time>2026-03-22T16:58:35.376Z</time></trkpt><trkpt lat="45.8476067" lon="8.67264"><ele>239.0</ele><time>2026-03-22T16:58:36.376Z</time></trkpt><trkpt lat="45.84752" lon="8.6725567"><ele>239.0</ele><time>2026-03-22T16:58:37.376Z</time></trkpt><trkpt lat="45.8474383" lon="8.672485"><ele>239.16666666666669</ele><time>2026-03-22T16:58:38.376Z</time></trkpt><trkpt lat="45.8473683" lon="8.6724133"><ele>239.33333333333334</ele><time>2026-03-22T16:58:39.376Z</time></trkpt><trkpt lat="45.8472933" lon="8.672355"><ele>239.5</ele><time>2026-03-22T16:58:40.376Z</time></trkpt><trkpt lat="45.8472183" lon="8.6722817"><ele>239.66666666666669</ele><time>2026-03-22T16:58:41.376Z</time></trkpt><trkpt lat="45.8471417" lon="8.672225"><ele>239.83333333333334</ele><time>2026-03-22T16:58:42.376Z</time></trkpt><trkpt lat="45.8470733" lon="8.672175"><ele>240.0</ele><time>2026-03-22T16:58:43.376Z</time></trkpt><trkpt lat="45.84701" lon="8.6721233"><ele>240.0</ele><time>2026-03-22T16:58:44.376Z</time></trkpt><trkpt lat="45.846955" lon="8.672065"><ele>240.0</ele><time>2026-03-22T16:58:45.376Z</time></trkpt><trkpt lat="45.8468533" lon="8.6719633"><ele>240.0</ele><time>2026-03-22T16:58:47.376Z</time></trkpt><trkpt lat="45.8467783" lon="8.6718783"><ele>240.0</ele><time>2026-03-22T16:58:49.377Z</time></trkpt><trkpt lat="45.84669" lon="8.6718217"><ele>240.0</ele><time>2026-03-22T16:59:23.376Z</time></trkpt><trkpt lat="45.8466217" lon="8.6718467"><ele>239.5</ele><time>2026-03-22T16:59:24.376Z</time></trkpt><trkpt lat="45.846515" lon="8.6718733"><ele>239.0</ele><time>2026-03-22T16:59:25.376Z</time></trkpt><trkpt lat="45.8463983" lon="8.6719"><ele>238.5</ele><time>2026-03-22T16:59:26.376Z</time></trkpt><trkpt lat="45.84627" lon="8.6719283"><ele>238.0</ele><time>2026-03-22T16:59:27.376Z</time></trkpt><trkpt lat="45.8461267" lon="8.671955"><ele>237.75</ele><time>2026-03-22T16:59:28.376Z</time></trkpt><trkpt lat="45.8459817" lon="8.67198"><ele>237.5</ele><time>2026-03-22T16:59:29.376Z</time></trkpt><trkpt lat="45.8458433" lon="8.6719967"><ele>237.25</ele><time>2026-03-22T16:59:30.376Z</time></trkpt><trkpt lat="45.845715" lon="8.6720017"><ele>237.0</ele><time>2026-03-22T16:59:31.376Z</time></trkpt><trkpt lat="45.8456017" lon="8.67199"><ele>237.0</ele><time>2026-03-22T16:59:32.376Z</time></trkpt><trkpt lat="45.8455017" lon="8.671945"><ele>237.0</ele><time>2026-03-22T16:59:33.376Z</time></trkpt><trkpt lat="45.845415" lon="8.671865"><ele>237.0</ele><time>2026-03-22T16:59:34.376Z</time></trkpt><trkpt lat="45.845325" lon="8.6717633"><ele>237.0</ele><time>2026-03-22T16:59:35.376Z</time></trkpt><trkpt lat="45.8452233" lon="8.67166"><ele>237.0</ele><time>2026-03-22T16:59:36.376Z</time></trkpt><trkpt lat="45.8451117" lon="8.6715483"><ele>240.0</ele><time>2026-03-22T16:59:37.376Z</time></trkpt><trkpt lat="45.8449933" lon="8.6714567"><ele>243.0</ele><time>2026-03-22T16:59:38.376Z</time></trkpt><trkpt lat="45.8448683" lon="8.6713833"><ele>246.0</ele><time>2026-03-22T16:59:39.376Z</time></trkpt><trkpt lat="45.8447467" lon="8.671325"><ele>249.0</ele><time>2026-03-22T16:59:40.376Z</time></trkpt><trkpt lat="45.8446333" lon="8.67127"><ele>249.0</ele><time>2026-03-22T16:59:41.376Z</time></trkpt><trkpt lat="45.844525" lon="8.6712117"><ele>248.99999999999997</ele><time>2026-03-22T16:59:42.376Z</time></trkpt><trkpt lat="45.844435" lon="8.67116"><ele>248.99999999999997</ele><time>2026-03-22T16:59:43.376Z</time></trkpt><trkpt lat="45.8443517" lon="8.6711217"><ele>249.0</ele><time>2026-03-22T16:59:44.376Z</time></trkpt><trkpt lat="45.84426" lon="8.6710767"><ele>249.0</ele><time>2026-03-22T16:59:45.376Z</time></trkpt><trkpt lat="45.8441733" lon="8.6710217"><ele>247.16666666666666</ele><time>2026-03-22T16:59:46.376Z</time></trkpt><trkpt lat="45.84409" lon="8.670975"><ele>245.33333333333331</ele><time>2026-03-22T16:59:47.376Z</time></trkpt><trkpt lat="45.8440217" lon="8.6709333"><ele>243.5</ele><time>2026-03-22T16:59:48.376Z</time></trkpt><trkpt lat="45.8439283" lon="8.6708783"><ele>241.66666666666666</ele><time>2026-03-22T16:59:50.376Z</time></trkpt><trkpt lat="45.843865" lon="8.6708417"><ele>239.83333333333331</ele><time>2026-03-22T16:59:54.376Z</time></trkpt><trkpt lat="45.8437633" lon="8.67077"><ele>238.0</ele><time>2026-03-22T16:59:57.376Z</time></trkpt><trkpt lat="45.84365" lon="8.6707033"><ele>238.0</ele><time>2026-03-22T16:59:59.376Z</time></trkpt><trkpt lat="45.843545" lon="8.6707433"><ele>238.0</ele><time>2026-03-22T17:00:01.376Z</time></trkpt><trkpt lat="45.843475" lon="8.6708283"><ele>238.0</ele><time>2026-03-22T17:00:02.376Z</time></trkpt><trkpt lat="45.8434017" lon="8.6709567"><ele>238.0</ele><time>2026-03-22T17:00:03.376Z</time></trkpt><trkpt lat="45.8433267" lon="8.6710817"><ele>238.0</ele><time>2026-03-22T17:00:04.376Z</time></trkpt><trkpt lat="45.843255" lon="8.6712033"><ele>240.25</ele><time>2026-03-22T17:00:05.376Z</time></trkpt><trkpt lat="45.84317" lon="8.6713333"><ele>242.5</ele><time>2026-03-22T17:00:06.376Z</time></trkpt><trkpt lat="45.8430767" lon="8.67147"><ele>244.75</ele><time>2026-03-22T17:00:07.376Z</time></trkpt><trkpt lat="45.8429767" lon="8.6716017"><ele>247.0</ele><time>2026-03-22T17:00:08.376Z</time></trkpt><trkpt lat="45.842875" lon="8.6717417"><ele>247.0</ele><time>2026-03-22T17:00:09.376Z</time></trkpt><trkpt lat="45.8427783" lon="8.67187"><ele>247.0</ele><time>2026-03-22T17:00:10.376Z</time></trkpt><trkpt lat="45.842675" lon="8.6720017"><ele>247.0</ele><time>2026-03-22T17:00:11.376Z</time></trkpt><trkpt lat="45.8425817" lon="8.672135"><ele>247.0</ele><time>2026-03-22T17:00:12.376Z</time></trkpt><trkpt lat="45.842485" lon="8.6722583"><ele>246.25</ele><time>2026-03-22T17:00:13.376Z</time></trkpt><trkpt lat="45.8423917" lon="8.672385"><ele>245.5</ele><time>2026-03-22T17:00:14.376Z</time></trkpt><trkpt lat="45.8422917" lon="8.672515"><ele>244.75</ele><time>2026-03-22T17:00:15.376Z</time></trkpt><trkpt lat="45.84221" lon="8.6726683"><ele>244.0</ele><time>2026-03-22T17:00:16.376Z</time></trkpt><trkpt lat="45.84215" lon="8.6728633"><ele>246.0</ele><time>2026-03-22T17:00:17.376Z</time></trkpt><trkpt lat="45.8421171" lon="8.6730895"><ele>248.0</ele><time>2026-03-22T17:00:18.376Z</time></trkpt><trkpt lat="45.8421157" lon="8.6733199"><ele>250.0</ele><time>2026-03-22T17:00:19.376Z</time></trkpt><trkpt lat="45.8421193" lon="8.6735368"><ele>251.33333333333331</ele><time>2026-03-22T17:00:20.376Z</time></trkpt><trkpt lat="45.8421178" lon="8.6737493"><ele>252.66666666666669</ele><time>2026-03-22T17:00:21.376Z</time></trkpt><trkpt lat="45.8421127" lon="8.6739738"><ele>254.0</ele><time>2026-03-22T17:00:22.376Z</time></trkpt><trkpt lat="45.8421074" lon="8.6742025"><ele>254.0</ele><time>2026-03-22T17:00:23.376Z</time></trkpt><trkpt lat="45.8420994" lon="8.6744377"><ele>254.0</ele><time>2026-03-22T17:00:24.376Z</time></trkpt><trkpt lat="45.8420862" lon="8.6746912"><ele>254.0</ele><time>2026-03-22T17:00:25.376Z</time></trkpt><trkpt lat="45.8420728" lon="8.674944"><ele>254.0</ele><time>2026-03-22T17:00:26.376Z</time></trkpt><trkpt lat="45.8420702" lon="8.675215"><ele>254.0</ele><time>2026-03-22T17:00:27.376Z</time></trkpt><trkpt lat="45.842066" lon="8.6754825"><ele>254.0</ele><time>2026-03-22T17:00:28.376Z</time></trkpt><trkpt lat="45.8420589" lon="8.6757329"><ele>254.0</ele><time>2026-03-22T17:00:29.376Z</time></trkpt><trkpt lat="45.8420526" lon="8.6759738"><ele>254.0</ele><time>2026-03-22T17:00:30.376Z</time></trkpt><trkpt lat="45.8420472" lon="8.6762177"><ele>254.0</ele><time>2026-03-22T17:00:31.376Z</time></trkpt><trkpt lat="45.8420477" lon="8.6764641"><ele>254.33333333333334</ele><time>2026-03-22T17:00:32.376Z</time></trkpt><trkpt lat="45.8420517" lon="8.6767179"><ele>254.66666666666669</ele><time>2026-03-22T17:00:33.376Z</time></trkpt><trkpt lat="45.8420571" lon="8.6769629"><ele>255.0</ele><time>2026-03-22T17:00:34.376Z</time></trkpt><trkpt lat="45.8420704" lon="8.6771989"><ele>255.0</ele><time>2026-03-22T17:00:35.376Z</time></trkpt><trkpt lat="45.8420901" lon="8.6774264"><ele>255.0</ele><time>2026-03-22T17:00:36.376Z</time></trkpt><trkpt lat="45.8421153" lon="8.6776288"><ele>255.0</ele><time>2026-03-22T17:00:37.376Z</time></trkpt><trkpt lat="45.8421286" lon="8.677828"><ele>255.0</ele><time>2026-03-22T17:00:38.376Z</time></trkpt><trkpt lat="45.8421511" lon="8.6780301"><ele>255.0</ele><time>2026-03-22T17:00:39.376Z</time></trkpt><trkpt lat="45.842169" lon="8.6782376"><ele>255.0</ele><time>2026-03-22T17:00:40.376Z</time></trkpt><trkpt lat="45.8422073" lon="8.6784479"><ele>255.0</ele><time>2026-03-22T17:00:41.376Z</time></trkpt><trkpt lat="45.8422636" lon="8.6786522"><ele>255.0</ele><time>2026-03-22T17:00:42.376Z</time></trkpt><trkpt lat="45.8423353" lon="8.6788469"><ele>255.0</ele><time>2026-03-22T17:00:43.376Z</time></trkpt><trkpt lat="45.8424182" lon="8.679032"><ele>255.0</ele><time>2026-03-22T17:00:44.376Z</time></trkpt><trkpt lat="45.842507" lon="8.6792009"><ele>255.0</ele><time>2026-03-22T17:00:45.376Z</time></trkpt><trkpt lat="45.842588" lon="8.6793679"><ele>255.0</ele><time>2026-03-22T17:00:46.376Z</time></trkpt><trkpt lat="45.8426625" lon="8.679536"><ele>255.0</ele><time>2026-03-22T17:00:47.376Z</time></trkpt><trkpt lat="45.8427345" lon="8.6797076"><ele>255.0</ele><time>2026-03-22T17:00:48.376Z</time></trkpt><trkpt lat="45.8428086" lon="8.6798776"><ele>255.5</ele><time>2026-03-22T17:00:49.376Z</time></trkpt><trkpt lat="45.8428783" lon="8.680045"><ele>256.0</ele><time>2026-03-22T17:00:50.376Z</time></trkpt><trkpt lat="45.84295" lon="8.6802083"><ele>256.5</ele><time>2026-03-22T17:00:51.376Z</time></trkpt><trkpt lat="45.843005" lon="8.680395"><ele>257.0</ele><time>2026-03-22T17:00:52.376Z</time></trkpt><trkpt lat="45.84305" lon="8.6806033"><ele>257.0</ele><time>2026-03-22T17:00:53.376Z</time></trkpt><trkpt lat="45.8430817" lon="8.680825"><ele>257.0</ele><time>2026-03-22T17:00:54.376Z</time></trkpt><trkpt lat="45.8431083" lon="8.68104"><ele>257.0</ele><time>2026-03-22T17:00:55.376Z</time></trkpt><trkpt lat="45.8431467" lon="8.6812467"><ele>256.75</ele><time>2026-03-22T17:00:56.376Z</time></trkpt><trkpt lat="45.8431767" lon="8.681445"><ele>256.5</ele><time>2026-03-22T17:00:57.376Z</time></trkpt><trkpt lat="45.843205" lon="8.68164"><ele>256.25</ele><time>2026-03-22T17:00:58.376Z</time></trkpt><trkpt lat="45.8432367" lon="8.6818367"><ele>256.0</ele><time>2026-03-22T17:00:59.376Z</time></trkpt><trkpt lat="45.843265" lon="8.6820417"><ele>255.66666666666666</ele><time>2026-03-22T17:01:00.377Z</time></trkpt><trkpt lat="45.8432817" lon="8.6822567"><ele>255.33333333333331</ele><time>2026-03-22T17:01:01.376Z</time></trkpt><trkpt lat="45.843295" lon="8.6824867"><ele>255.0</ele><time>2026-03-22T17:01:02.376Z</time></trkpt><trkpt lat="45.8433067" lon="8.6827167"><ele>254.75</ele><time>2026-03-22T17:01:03.376Z</time></trkpt><trkpt lat="45.8433133" lon="8.6829167"><ele>254.5</ele><time>2026-03-22T17:01:04.376Z</time></trkpt><trkpt lat="45.8433167" lon="8.6831167"><ele>254.25</ele><time>2026-03-22T17:01:05.376Z</time></trkpt><trkpt lat="45.8433217" lon="8.68332"><ele>254.0</ele><time>2026-03-22T17:01:06.376Z</time></trkpt><trkpt lat="45.8433333" lon="8.68353"><ele>254.0</ele><time>2026-03-22T17:01:07.376Z</time></trkpt><trkpt lat="45.843345" lon="8.68373"><ele>254.0</ele><time>2026-03-22T17:01:08.376Z</time></trkpt><trkpt lat="45.84336" lon="8.6839183"><ele>254.0</ele><time>2026-03-22T17:01:09.376Z</time></trkpt><trkpt lat="45.8433717" lon="8.684105"><ele>254.0</ele><time>2026-03-22T17:01:10.376Z</time></trkpt><trkpt lat="45.8433733" lon="8.6842983"><ele>254.25</ele><time>2026-03-22T17:01:11.376Z</time></trkpt><trkpt lat="45.84338" lon="8.6844883"><ele>254.5</ele><time>2026-03-22T17:01:12.376Z</time></trkpt><trkpt lat="45.8433883" lon="8.6846817"><ele>254.75</ele><time>2026-03-22T17:01:13.376Z</time></trkpt><trkpt lat="45.843395" lon="8.6848733"><ele>255.0</ele><time>2026-03-22T17:01:14.376Z</time></trkpt><trkpt lat="45.843405" lon="8.685085"><ele>254.66666666666669</ele><time>2026-03-22T17:01:15.376Z</time></trkpt><trkpt lat="45.8434233" lon="8.685305"><ele>254.33333333333334</ele><time>2026-03-22T17:01:16.376Z</time></trkpt><trkpt lat="45.84343" lon="8.6855217"><ele>254.0</ele><time>2026-03-22T17:01:17.376Z</time></trkpt><trkpt lat="45.8434533" lon="8.6857283"><ele>255.33333333333334</ele><time>2026-03-22T17:01:18.376Z</time></trkpt><trkpt lat="45.8434917" lon="8.6859333"><ele>256.6666666666667</ele><time>2026-03-22T17:01:19.376Z</time></trkpt><trkpt lat="45.8435167" lon="8.6861533"><ele>258.0</ele><time>2026-03-22T17:01:20.376Z</time></trkpt><trkpt lat="45.8435467" lon="8.6863683"><ele>258.0</ele><time>2026-03-22T17:01:21.376Z</time></trkpt><trkpt lat="45.8435867" lon="8.686585"><ele>258.0</ele><time>2026-03-22T17:01:22.376Z</time></trkpt><trkpt lat="45.8436367" lon="8.686795"><ele>258.0</ele><time>2026-03-22T17:01:23.376Z</time></trkpt><trkpt lat="45.843695" lon="8.6869967"><ele>258.25</ele><time>2026-03-22T17:01:24.376Z</time></trkpt><trkpt lat="45.84375" lon="8.6871817"><ele>258.5</ele><time>2026-03-22T17:01:25.376Z</time></trkpt><trkpt lat="45.843805" lon="8.6873717"><ele>258.75</ele><time>2026-03-22T17:01:26.376Z</time></trkpt><trkpt lat="45.8438617" lon="8.6875567"><ele>259.0</ele><time>2026-03-22T17:01:27.376Z</time></trkpt><trkpt lat="45.843915" lon="8.6877517"><ele>258.5</ele><time>2026-03-22T17:01:28.376Z</time></trkpt><trkpt lat="45.843965" lon="8.6879417"><ele>258.0</ele><time>2026-03-22T17:01:29.376Z</time></trkpt><trkpt lat="45.8440167" lon="8.688115"><ele>257.5</ele><time>2026-03-22T17:01:30.376Z</time></trkpt><trkpt lat="45.8440733" lon="8.6882833"><ele>257.0</ele><time>2026-03-22T17:01:31.376Z</time></trkpt><trkpt lat="45.8441317" lon="8.6884517"><ele>256.0</ele><time>2026-03-22T17:01:32.376Z</time></trkpt><trkpt lat="45.84418" lon="8.6886417"><ele>255.0</ele><time>2026-03-22T17:01:33.376Z</time></trkpt><trkpt lat="45.8442133" lon="8.688825"><ele>254.0</ele><time>2026-03-22T17:01:34.376Z</time></trkpt><trkpt lat="45.8442317" lon="8.6890217"><ele>253.0</ele><time>2026-03-22T17:01:35.376Z</time></trkpt><trkpt lat="45.8442283" lon="8.68925"><ele>252.66666666666666</ele><time>2026-03-22T17:01:36.376Z</time></trkpt><trkpt lat="45.8442117" lon="8.689475"><ele>252.33333333333331</ele><time>2026-03-22T17:01:37.376Z</time></trkpt><trkpt lat="45.8441933" lon="8.689695"><ele>252.0</ele><time>2026-03-22T17:01:38.376Z</time></trkpt><trkpt lat="45.8441783" lon="8.6899083"><ele>252.0</ele><time>2026-03-22T17:01:39.376Z</time></trkpt><trkpt lat="45.844165" lon="8.690115"><ele>252.0</ele><time>2026-03-22T17:01:40.376Z</time></trkpt><trkpt lat="45.844145" lon="8.69033"><ele>252.0</ele><time>2026-03-22T17:01:41.376Z</time></trkpt><trkpt lat="45.8441133" lon="8.6905517"><ele>252.0</ele><time>2026-03-22T17:01:42.376Z</time></trkpt><trkpt lat="45.84407" lon="8.69078"><ele>252.0</ele><time>2026-03-22T17:01:43.376Z</time></trkpt><trkpt lat="45.84402" lon="8.6910033"><ele>252.0</ele><time>2026-03-22T17:01:44.376Z</time></trkpt><trkpt lat="45.8439717" lon="8.6912267"><ele>252.66666666666669</ele><time>2026-03-22T17:01:45.376Z</time></trkpt><trkpt lat="45.8439217" lon="8.69145"><ele>253.33333333333334</ele><time>2026-03-22T17:01:46.376Z</time></trkpt><trkpt lat="45.8438783" lon="8.69165"><ele>254.0</ele><time>2026-03-22T17:01:47.376Z</time></trkpt><trkpt lat="45.8438367" lon="8.691845"><ele>254.5</ele><time>2026-03-22T17:01:48.376Z</time></trkpt><trkpt lat="45.8437983" lon="8.6920267"><ele>255.0</ele><time>2026-03-22T17:01:49.376Z</time></trkpt><trkpt lat="45.843765" lon="8.6922"><ele>255.5</ele><time>2026-03-22T17:01:50.376Z</time></trkpt><trkpt lat="45.8437283" lon="8.6923817"><ele>256.0</ele><time>2026-03-22T17:01:51.376Z</time></trkpt><trkpt lat="45.8436883" lon="8.6925717"><ele>256.0</ele><time>2026-03-22T17:01:52.376Z</time></trkpt><trkpt lat="45.8436533" lon="8.6927483"><ele>256.0</ele><time>2026-03-22T17:01:53.376Z</time></trkpt><trkpt lat="45.8436183" lon="8.6929317"><ele>256.0</ele><time>2026-03-22T17:01:54.376Z</time></trkpt><trkpt lat="45.8435733" lon="8.69313"><ele>256.0</ele><time>2026-03-22T17:01:55.376Z</time></trkpt><trkpt lat="45.84353" lon="8.69331"><ele>256.25</ele><time>2026-03-22T17:01:56.376Z</time></trkpt><trkpt lat="45.8434767" lon="8.6934667"><ele>256.5</ele><time>2026-03-22T17:01:57.376Z</time></trkpt><trkpt lat="45.843425" lon="8.693625"><ele>256.75</ele><time>2026-03-22T17:01:58.376Z</time></trkpt><trkpt lat="45.8433517" lon="8.6937533"><ele>257.0</ele><time>2026-03-22T17:01:59.376Z</time></trkpt><trkpt lat="45.84327" lon="8.69386"><ele>257.4</ele><time>2026-03-22T17:02:00.376Z</time></trkpt><trkpt lat="45.8431833" lon="8.6939683"><ele>257.79999999999995</ele><time>2026-03-22T17:02:01.376Z</time></trkpt><trkpt lat="45.8431017" lon="8.69406"><ele>258.2</ele><time>2026-03-22T17:02:02.376Z</time></trkpt><trkpt lat="45.8430183" lon="8.69414"><ele>258.59999999999997</ele><time>2026-03-22T17:02:03.376Z</time></trkpt><trkpt lat="45.8429417" lon="8.6941883"><ele>259.0</ele><time>2026-03-22T17:02:04.376Z</time></trkpt><trkpt lat="45.842865" lon="8.6941983"><ele>259.0</ele><time>2026-03-22T17:02:05.376Z</time></trkpt><trkpt lat="45.8427533" lon="8.6941583"><ele>259.0</ele><time>2026-03-22T17:02:07.376Z</time></trkpt><trkpt lat="45.8427" lon="8.6941"><ele>259.0</ele><time>2026-03-22T17:02:08.376Z</time></trkpt><trkpt lat="45.8426417" lon="8.6940433"><ele>259.0</ele><time>2026-03-22T17:02:09.376Z</time></trkpt><trkpt lat="45.842575" lon="8.694025"><ele>259.0</ele><time>2026-03-22T17:02:10.376Z</time></trkpt><trkpt lat="45.8425033" lon="8.6940517"><ele>259.0</ele><time>2026-03-22T17:02:11.376Z</time></trkpt><trkpt lat="45.8424383" lon="8.6941433"><ele>258.25</ele><time>2026-03-22T17:02:12.376Z</time></trkpt><trkpt lat="45.8423833" lon="8.6942817"><ele>257.5</ele><time>2026-03-22T17:02:13.376Z</time></trkpt><trkpt lat="45.8422983" lon="8.6944267"><ele>256.75</ele><time>2026-03-22T17:02:14.376Z</time></trkpt><trkpt lat="45.8421883" lon="8.6945567"><ele>256.0</ele><time>2026-03-22T17:02:15.376Z</time></trkpt><trkpt lat="45.84207" lon="8.6946317"><ele>256.0</ele><time>2026-03-22T17:02:16.376Z</time></trkpt><trkpt lat="45.8419317" lon="8.6946733"><ele>256.0</ele><time>2026-03-22T17:02:17.376Z</time></trkpt><trkpt lat="45.8417883" lon="8.6946933"><ele>256.0</ele><time>2026-03-22T17:02:18.376Z</time></trkpt><trkpt lat="45.8416517" lon="8.6947083"><ele>256.0</ele><time>2026-03-22T17:02:19.376Z</time></trkpt><trkpt lat="45.8415267" lon="8.6947167"><ele>255.5</ele><time>2026-03-22T17:02:20.376Z</time></trkpt><trkpt lat="45.8414033" lon="8.6947333"><ele>255.0</ele><time>2026-03-22T17:02:21.376Z</time></trkpt><trkpt lat="45.841265" lon="8.694755"><ele>254.5</ele><time>2026-03-22T17:02:22.376Z</time></trkpt><trkpt lat="45.8411133" lon="8.6947917"><ele>254.0</ele><time>2026-03-22T17:02:23.376Z</time></trkpt><trkpt lat="45.8409633" lon="8.6948367"><ele>253.33333333333334</ele><time>2026-03-22T17:02:24.376Z</time></trkpt><trkpt lat="45.8408167" lon="8.6949083"><ele>252.66666666666669</ele><time>2026-03-22T17:02:25.376Z</time></trkpt><trkpt lat="45.8406617" lon="8.6949867"><ele>252.0</ele><time>2026-03-22T17:02:26.376Z</time></trkpt><trkpt lat="45.8405133" lon="8.6950783"><ele>252.0</ele><time>2026-03-22T17:02:27.376Z</time></trkpt><trkpt lat="45.8403617" lon="8.6952017"><ele>252.0</ele><time>2026-03-22T17:02:28.376Z</time></trkpt><trkpt lat="45.8402067" lon="8.6953417"><ele>252.0</ele><time>2026-03-22T17:02:29.376Z</time></trkpt><trkpt lat="45.840045" lon="8.6954917"><ele>251.33333333333331</ele><time>2026-03-22T17:02:30.376Z</time></trkpt><trkpt lat="45.8398933" lon="8.69563"><ele>250.66666666666666</ele><time>2026-03-22T17:02:31.376Z</time></trkpt><trkpt lat="45.83975" lon="8.6957567"><ele>250.0</ele><time>2026-03-22T17:02:32.376Z</time></trkpt><trkpt lat="45.8396" lon="8.695875"><ele>250.0</ele><time>2026-03-22T17:02:33.376Z</time></trkpt><trkpt lat="45.8394583" lon="8.69597"><ele>250.0</ele><time>2026-03-22T17:02:34.376Z</time></trkpt><trkpt lat="45.8393217" lon="8.6960533"><ele>250.0</ele><time>2026-03-22T17:02:35.376Z</time></trkpt><trkpt lat="45.83919" lon="8.6961367"><ele>250.0</ele><time>2026-03-22T17:02:36.376Z</time></trkpt><trkpt lat="45.8390517" lon="8.6962117"><ele>250.33333333333331</ele><time>2026-03-22T17:02:37.376Z</time></trkpt><trkpt lat="45.83891" lon="8.6962867"><ele>250.66666666666669</ele><time>2026-03-22T17:02:38.376Z</time></trkpt><trkpt lat="45.8387567" lon="8.6963617"><ele>251.0</ele><time>2026-03-22T17:02:39.376Z</time></trkpt><trkpt lat="45.838605" lon="8.6964317"><ele>250.0</ele><time>2026-03-22T17:02:40.376Z</time></trkpt><trkpt lat="45.83846" lon="8.6965017"><ele>249.0</ele><time>2026-03-22T17:02:41.376Z</time></trkpt><trkpt lat="45.8383117" lon="8.6965617"><ele>248.0</ele><time>2026-03-22T17:02:42.376Z</time></trkpt><trkpt lat="45.8381717" lon="8.6966017"><ele>248.0</ele><time>2026-03-22T17:02:43.376Z</time></trkpt><trkpt lat="45.83803" lon="8.696625"><ele>248.0</ele><time>2026-03-22T17:02:44.376Z</time></trkpt><trkpt lat="45.8379" lon="8.6966433"><ele>248.0</ele><time>2026-03-22T17:02:45.376Z</time></trkpt><trkpt lat="45.8377683" lon="8.69666"><ele>248.0</ele><time>2026-03-22T17:02:46.376Z</time></trkpt><trkpt lat="45.8376367" lon="8.6966983"><ele>247.25</ele><time>2026-03-22T17:02:47.376Z</time></trkpt><trkpt lat="45.8374967" lon="8.6967517"><ele>246.5</ele><time>2026-03-22T17:02:48.376Z</time></trkpt><trkpt lat="45.8373517" lon="8.6967917"><ele>245.75</ele><time>2026-03-22T17:02:49.376Z</time></trkpt><trkpt lat="45.8372267" lon="8.696835"><ele>245.0</ele><time>2026-03-22T17:02:50.376Z</time></trkpt><trkpt lat="45.837105" lon="8.696855"><ele>245.0</ele><time>2026-03-22T17:02:51.376Z</time></trkpt><trkpt lat="45.83698" lon="8.6968883"><ele>245.0</ele><time>2026-03-22T17:02:52.376Z</time></trkpt><trkpt lat="45.8368317" lon="8.6969417"><ele>245.0</ele><time>2026-03-22T17:02:53.376Z</time></trkpt><trkpt lat="45.8366767" lon="8.697"><ele>245.0</ele><time>2026-03-22T17:02:54.376Z</time></trkpt><trkpt lat="45.836515" lon="8.69705"><ele>247.25</ele><time>2026-03-22T17:02:55.376Z</time></trkpt><trkpt lat="45.8363667" lon="8.6970767"><ele>249.5</ele><time>2026-03-22T17:02:56.376Z</time></trkpt><trkpt lat="45.8362367" lon="8.6971"><ele>251.75</ele><time>2026-03-22T17:02:57.376Z</time></trkpt><trkpt lat="45.8361267" lon="8.6971367"><ele>254.0</ele><time>2026-03-22T17:02:58.376Z</time></trkpt><trkpt lat="45.8360267" lon="8.697185"><ele>254.25</ele><time>2026-03-22T17:02:59.376Z</time></trkpt><trkpt lat="45.83591" lon="8.697265"><ele>254.5</ele><time>2026-03-22T17:03:00.376Z</time></trkpt><trkpt lat="45.8357883" lon="8.69735"><ele>254.75</ele><time>2026-03-22T17:03:01.376Z</time></trkpt><trkpt lat="45.8356783" lon="8.6974283"><ele>255.0</ele><time>2026-03-22T17:03:02.376Z</time></trkpt><trkpt lat="45.835585" lon="8.6974833"><ele>255.0</ele><time>2026-03-22T17:03:03.376Z</time></trkpt><trkpt lat="45.8355183" lon="8.697545"><ele>255.0</ele><time>2026-03-22T17:03:04.376Z</time></trkpt><trkpt lat="45.835455" lon="8.697585"><ele>255.0</ele><time>2026-03-22T17:03:05.376Z</time></trkpt><trkpt lat="45.8353367" lon="8.6976717"><ele>255.0</ele><time>2026-03-22T17:03:07.376Z</time></trkpt><trkpt lat="45.8352583" lon="8.6977267"><ele>255.0</ele><time>2026-03-22T17:03:08.376Z</time></trkpt><trkpt lat="45.8351733" lon="8.6978"><ele>255.66666666666666</ele><time>2026-03-22T17:03:09.376Z</time></trkpt><trkpt lat="45.8351017" lon="8.6978583"><ele>256.3333333333333</ele><time>2026-03-22T17:03:10.376Z</time></trkpt><trkpt lat="45.83502" lon="8.6978933"><ele>257.0</ele><time>2026-03-22T17:03:12.376Z</time></trkpt><trkpt lat="45.8349567" lon="8.69795"><ele>257.66666666666663</ele><time>2026-03-22T17:03:15.376Z</time></trkpt><trkpt lat="45.8349" lon="8.6980533"><ele>258.3333333333333</ele><time>2026-03-22T17:03:21.376Z</time></trkpt><trkpt lat="45.83485" lon="8.6981167"><ele>259.0</ele><time>2026-03-22T17:03:22.376Z</time></trkpt><trkpt lat="45.8347933" lon="8.698215"><ele>259.0</ele><time>2026-03-22T17:03:23.376Z</time></trkpt><trkpt lat="45.8347133" lon="8.6983483"><ele>259.0</ele><time>2026-03-22T17:03:24.376Z</time></trkpt><trkpt lat="45.8346333" lon="8.6985083"><ele>259.0</ele><time>2026-03-22T17:03:25.376Z</time></trkpt><trkpt lat="45.8345517" lon="8.698675"><ele>259.0</ele><time>2026-03-22T17:03:26.376Z</time></trkpt><trkpt lat="45.83447" lon="8.6988383"><ele>259.66666666666663</ele><time>2026-03-22T17:03:27.376Z</time></trkpt><trkpt lat="45.8343767" lon="8.6990133"><ele>260.3333333333333</ele><time>2026-03-22T17:03:28.376Z</time></trkpt><trkpt lat="45.83428" lon="8.6992"><ele>261.0</ele><time>2026-03-22T17:03:29.376Z</time></trkpt><trkpt lat="45.834185" lon="8.6994083"><ele>260.3333333333333</ele><time>2026-03-22T17:03:30.376Z</time></trkpt><trkpt lat="45.8340933" lon="8.69962"><ele>259.66666666666663</ele><time>2026-03-22T17:03:31.376Z</time></trkpt><trkpt lat="45.8339883" lon="8.699825"><ele>259.0</ele><time>2026-03-22T17:03:32.376Z</time></trkpt><trkpt lat="45.8338917" lon="8.7000333"><ele>259.0</ele><time>2026-03-22T17:03:33.376Z</time></trkpt><trkpt lat="45.8337933" lon="8.7002417"><ele>259.0</ele><time>2026-03-22T17:03:34.376Z</time></trkpt><trkpt lat="45.8337017" lon="8.700435"><ele>259.0</ele><time>2026-03-22T17:03:35.376Z</time></trkpt><trkpt lat="45.8336083" lon="8.7006283"><ele>257.66666666666663</ele><time>2026-03-22T17:03:36.376Z</time></trkpt><trkpt lat="45.8335133" lon="8.7008217"><ele>256.3333333333333</ele><time>2026-03-22T17:03:37.376Z</time></trkpt><trkpt lat="45.83343" lon="8.70101"><ele>255.0</ele><time>2026-03-22T17:03:38.376Z</time></trkpt><trkpt lat="45.8333333" lon="8.70122"><ele>254.66666666666669</ele><time>2026-03-22T17:03:39.376Z</time></trkpt><trkpt lat="45.8332383" lon="8.70143"><ele>254.33333333333334</ele><time>2026-03-22T17:03:40.376Z</time></trkpt><trkpt lat="45.8331617" lon="8.70165"><ele>254.0</ele><time>2026-03-22T17:03:41.376Z</time></trkpt><trkpt lat="45.8331117" lon="8.70189"><ele>253.66666666666669</ele><time>2026-03-22T17:03:42.376Z</time></trkpt><trkpt lat="45.8330717" lon="8.7021617"><ele>253.33333333333331</ele><time>2026-03-22T17:03:43.376Z</time></trkpt><trkpt lat="45.8330433" lon="8.7024433"><ele>253.0</ele><time>2026-03-22T17:03:44.376Z</time></trkpt><trkpt lat="45.833005" lon="8.7027217"><ele>253.0</ele><time>2026-03-22T17:03:45.376Z</time></trkpt><trkpt lat="45.8329383" lon="8.7029917"><ele>253.0</ele><time>2026-03-22T17:03:46.376Z</time></trkpt><trkpt lat="45.8328367" lon="8.7032467"><ele>253.0</ele><time>2026-03-22T17:03:47.376Z</time></trkpt><trkpt lat="45.83272" lon="8.70348"><ele>253.0</ele><time>2026-03-22T17:03:48.376Z</time></trkpt><trkpt lat="45.832575" lon="8.703705"><ele>253.0</ele><time>2026-03-22T17:03:49.376Z</time></trkpt><trkpt lat="45.8324333" lon="8.70393"><ele>253.0</ele><time>2026-03-22T17:03:50.376Z</time></trkpt><trkpt lat="45.83231" lon="8.7041533"><ele>253.0</ele><time>2026-03-22T17:03:51.376Z</time></trkpt><trkpt lat="45.832185" lon="8.7043767"><ele>253.0</ele><time>2026-03-22T17:03:52.376Z</time></trkpt><trkpt lat="45.8320667" lon="8.704615"><ele>253.0</ele><time>2026-03-22T17:03:53.377Z</time></trkpt><trkpt lat="45.8319467" lon="8.704865"><ele>251.33333333333331</ele><time>2026-03-22T17:03:54.377Z</time></trkpt><trkpt lat="45.831835" lon="8.7051"><ele>249.66666666666669</ele><time>2026-03-22T17:03:55.377Z</time></trkpt><trkpt lat="45.83173" lon="8.7053383"><ele>248.0</ele><time>2026-03-22T17:03:56.377Z</time></trkpt><trkpt lat="45.8316083" lon="8.70559"><ele>248.0</ele><time>2026-03-22T17:03:57.377Z</time></trkpt><trkpt lat="45.831495" lon="8.705835"><ele>248.0</ele><time>2026-03-22T17:03:58.377Z</time></trkpt><trkpt lat="45.8313817" lon="8.706085"><ele>248.0</ele><time>2026-03-22T17:03:59.377Z</time></trkpt><trkpt lat="45.8312633" lon="8.706325"><ele>245.66666666666669</ele><time>2026-03-22T17:04:00.377Z</time></trkpt><trkpt lat="45.8311533" lon="8.70655"><ele>243.33333333333331</ele><time>2026-03-22T17:04:01.377Z</time></trkpt><trkpt lat="45.8310383" lon="8.70676"><ele>241.0</ele><time>2026-03-22T17:04:02.377Z</time></trkpt><trkpt lat="45.8309117" lon="8.7069683"><ele>246.0</ele><time>2026-03-22T17:04:03.377Z</time></trkpt><trkpt lat="45.8307617" lon="8.70718"><ele>251.0</ele><time>2026-03-22T17:04:04.377Z</time></trkpt><trkpt lat="45.8306033" lon="8.7073967"><ele>256.0</ele><time>2026-03-22T17:04:05.377Z</time></trkpt><trkpt lat="45.83043" lon="8.707615"><ele>256.0</ele><time>2026-03-22T17:04:06.377Z</time></trkpt><trkpt lat="45.8302433" lon="8.7078317"><ele>256.0</ele><time>2026-03-22T17:04:07.377Z</time></trkpt><trkpt lat="45.8300583" lon="8.7080617"><ele>256.0</ele><time>2026-03-22T17:04:08.377Z</time></trkpt><trkpt lat="45.8298617" lon="8.7083117"><ele>256.0</ele><time>2026-03-22T17:04:09.377Z</time></trkpt><trkpt lat="45.829665" lon="8.7085817"><ele>257.5</ele><time>2026-03-22T17:04:10.377Z</time></trkpt><trkpt lat="45.829475" lon="8.708855"><ele>259.0</ele><time>2026-03-22T17:04:11.377Z</time></trkpt><trkpt lat="45.8292867" lon="8.709125"><ele>259.5</ele><time>2026-03-22T17:04:12.377Z</time></trkpt><trkpt lat="45.8291117" lon="8.7093983"><ele>260.0</ele><time>2026-03-22T17:04:13.377Z</time></trkpt><trkpt lat="45.8289467" lon="8.7096483"><ele>260.0</ele><time>2026-03-22T17:04:14.377Z</time></trkpt><trkpt lat="45.82878" lon="8.709895"><ele>260.0</ele><time>2026-03-22T17:04:15.377Z</time></trkpt><trkpt lat="45.8286167" lon="8.710145"><ele>257.5</ele><time>2026-03-22T17:04:16.377Z</time></trkpt><trkpt lat="45.82845" lon="8.7103983"><ele>255.0</ele><time>2026-03-22T17:04:17.377Z</time></trkpt><trkpt lat="45.82829" lon="8.7106517"><ele>255.0</ele><time>2026-03-22T17:04:18.377Z</time></trkpt><trkpt lat="45.8281317" lon="8.71088"><ele>255.0</ele><time>2026-03-22T17:04:19.377Z</time></trkpt><trkpt lat="45.82799" lon="8.7111"><ele>255.0</ele><time>2026-03-22T17:04:20.377Z</time></trkpt><trkpt lat="45.8278483" lon="8.711305"><ele>255.33333333333331</ele><time>2026-03-22T17:04:21.377Z</time></trkpt><trkpt lat="45.8277017" lon="8.7115033"><ele>255.66666666666666</ele><time>2026-03-22T17:04:22.377Z</time></trkpt><trkpt lat="45.8275783" lon="8.7117167"><ele>256.0</ele><time>2026-03-22T17:04:23.377Z</time></trkpt><trkpt lat="45.8274717" lon="8.71195"><ele>258.66666666666663</ele><time>2026-03-22T17:04:24.377Z</time></trkpt><trkpt lat="45.8273517" lon="8.7122083"><ele>261.3333333333333</ele><time>2026-03-22T17:04:25.377Z</time></trkpt><trkpt lat="45.827255" lon="8.712475"><ele>264.0</ele><time>2026-03-22T17:04:26.377Z</time></trkpt><trkpt lat="45.8271583" lon="8.7127367"><ele>263.0</ele><time>2026-03-22T17:04:27.377Z</time></trkpt><trkpt lat="45.8270617" lon="8.7129817"><ele>262.0</ele><time>2026-03-22T17:04:28.377Z</time></trkpt><trkpt lat="45.826965" lon="8.7132183"><ele>261.0</ele><time>2026-03-22T17:04:29.377Z</time></trkpt><trkpt lat="45.82686" lon="8.7134417"><ele>259.3333333333333</ele><time>2026-03-22T17:04:30.377Z</time></trkpt><trkpt lat="45.826755" lon="8.7136467"><ele>257.66666666666663</ele><time>2026-03-22T17:04:31.377Z</time></trkpt><trkpt lat="45.8266417" lon="8.7138517"><ele>256.0</ele><time>2026-03-22T17:04:32.377Z</time></trkpt><trkpt lat="45.8265167" lon="8.7140383"><ele>256.0</ele><time>2026-03-22T17:04:33.377Z</time></trkpt><trkpt lat="45.826385" lon="8.7142217"><ele>256.0</ele><time>2026-03-22T17:04:34.377Z</time></trkpt><trkpt lat="45.826255" lon="8.7144167"><ele>256.0</ele><time>2026-03-22T17:04:35.377Z</time></trkpt><trkpt lat="45.8261317" lon="8.7146167"><ele>254.33333333333331</ele><time>2026-03-22T17:04:36.377Z</time></trkpt><trkpt lat="45.82601" lon="8.714815"><ele>252.66666666666669</ele><time>2026-03-22T17:04:37.377Z</time></trkpt><trkpt lat="45.8258983" lon="8.71501"><ele>251.0</ele><time>2026-03-22T17:04:38.377Z</time></trkpt><trkpt lat="45.82579" lon="8.7152017"><ele>249.0</ele><time>2026-03-22T17:04:39.377Z</time></trkpt><trkpt lat="45.8256767" lon="8.71539"><ele>247.0</ele><time>2026-03-22T17:04:40.377Z</time></trkpt><trkpt lat="45.8255683" lon="8.7155733"><ele>245.0</ele><time>2026-03-22T17:04:41.377Z</time></trkpt><trkpt lat="45.8254583" lon="8.71575"><ele>245.0</ele><time>2026-03-22T17:04:42.377Z</time></trkpt><trkpt lat="45.825345" lon="8.7159067"><ele>245.0</ele><time>2026-03-22T17:04:43.377Z</time></trkpt><trkpt lat="45.82522" lon="8.71606"><ele>245.0</ele><time>2026-03-22T17:04:44.377Z</time></trkpt><trkpt lat="45.8250883" lon="8.7161883"><ele>246.0</ele><time>2026-03-22T17:04:45.377Z</time></trkpt><trkpt lat="45.824945" lon="8.7162983"><ele>247.0</ele><time>2026-03-22T17:04:46.377Z</time></trkpt><trkpt lat="45.8248" lon="8.7164033"><ele>248.0</ele><time>2026-03-22T17:04:47.377Z</time></trkpt><trkpt lat="45.824665" lon="8.716495"><ele>248.0</ele><time>2026-03-22T17:04:48.377Z</time></trkpt><trkpt lat="45.82454" lon="8.7165833"><ele>248.0</ele><time>2026-03-22T17:04:49.377Z</time></trkpt><trkpt lat="45.824425" lon="8.7166533"><ele>248.0</ele><time>2026-03-22T17:04:50.377Z</time></trkpt><trkpt lat="45.824305" lon="8.7167117"><ele>248.0</ele><time>2026-03-22T17:04:51.377Z</time></trkpt><trkpt lat="45.8241867" lon="8.71677"><ele>249.66666666666669</ele><time>2026-03-22T17:04:52.377Z</time></trkpt><trkpt lat="45.82408" lon="8.7167983"><ele>251.33333333333334</ele><time>2026-03-22T17:04:53.377Z</time></trkpt><trkpt lat="45.82399" lon="8.7167917"><ele>253.0</ele><time>2026-03-22T17:04:54.377Z</time></trkpt><trkpt lat="45.8239083" lon="8.71677"><ele>254.66666666666669</ele><time>2026-03-22T17:04:55.377Z</time></trkpt><trkpt lat="45.8238367" lon="8.716745"><ele>256.3333333333333</ele><time>2026-03-22T17:04:56.377Z</time></trkpt><trkpt lat="45.823765" lon="8.71671"><ele>258.0</ele><time>2026-03-22T17:04:57.377Z</time></trkpt><trkpt lat="45.82369" lon="8.7166617"><ele>258.0</ele><time>2026-03-22T17:04:58.377Z</time></trkpt><trkpt lat="45.8236183" lon="8.7166233"><ele>258.0</ele><time>2026-03-22T17:04:59.377Z</time></trkpt><trkpt lat="45.8235467" lon="8.716585"><ele>258.0</ele><time>2026-03-22T17:05:00.377Z</time></trkpt><trkpt lat="45.8234783" lon="8.7165217"><ele>258.0</ele><time>2026-03-22T17:05:01.377Z</time></trkpt><trkpt lat="45.8234133" lon="8.71644"><ele>258.0</ele><time>2026-03-22T17:05:02.377Z</time></trkpt><trkpt lat="45.82335" lon="8.7163417"><ele>258.0</ele><time>2026-03-22T17:05:03.377Z</time></trkpt><trkpt lat="45.823285" lon="8.7162433"><ele>258.2</ele><time>2026-03-22T17:05:04.377Z</time></trkpt><trkpt lat="45.8232233" lon="8.716135"><ele>258.4</ele><time>2026-03-22T17:05:05.377Z</time></trkpt><trkpt lat="45.8231533" lon="8.7160133"><ele>258.59999999999997</ele><time>2026-03-22T17:05:06.377Z</time></trkpt><trkpt lat="45.8230783" lon="8.7158917"><ele>258.8</ele><time>2026-03-22T17:05:07.377Z</time></trkpt><trkpt lat="45.823005" lon="8.7157583"><ele>259.0</ele><time>2026-03-22T17:05:08.377Z</time></trkpt><trkpt lat="45.82293" lon="8.715625"><ele>259.0</ele><time>2026-03-22T17:05:09.377Z</time></trkpt><trkpt lat="45.8228583" lon="8.7154933"><ele>259.0</ele><time>2026-03-22T17:05:10.377Z</time></trkpt><trkpt lat="45.8227917" lon="8.71535"><ele>259.0</ele><time>2026-03-22T17:05:11.377Z</time></trkpt><trkpt lat="45.822715" lon="8.7152033"><ele>259.0</ele><time>2026-03-22T17:05:12.377Z</time></trkpt><trkpt lat="45.8226417" lon="8.7150683"><ele>259.59999999999997</ele><time>2026-03-22T17:05:13.377Z</time></trkpt><trkpt lat="45.8225733" lon="8.714945"><ele>260.2</ele><time>2026-03-22T17:05:14.377Z</time></trkpt><trkpt lat="45.8225167" lon="8.7148133"><ele>260.79999999999995</ele><time>2026-03-22T17:05:15.377Z</time></trkpt><trkpt lat="45.8224583" lon="8.7146883"><ele>261.4</ele><time>2026-03-22T17:05:16.377Z</time></trkpt><trkpt lat="45.82241" lon="8.714555"><ele>262.0</ele><time>2026-03-22T17:05:17.377Z</time></trkpt><trkpt lat="45.8223583" lon="8.7144333"><ele>260.6</ele><time>2026-03-22T17:05:18.377Z</time></trkpt><trkpt lat="45.8223" lon="8.7143083"><ele>259.2</ele><time>2026-03-22T17:05:19.377Z</time></trkpt><trkpt lat="45.8222467" lon="8.7141917"><ele>257.8</ele><time>2026-03-22T17:05:20.378Z</time></trkpt><trkpt lat="45.8221833" lon="8.7141"><ele>256.4</ele><time>2026-03-22T17:05:21.377Z</time></trkpt><trkpt lat="45.8221183" lon="8.7140167"><ele>255.0</ele><time>2026-03-22T17:05:22.377Z</time></trkpt><trkpt lat="45.82205" lon="8.7139367"><ele>255.0</ele><time>2026-03-22T17:05:23.377Z</time></trkpt><trkpt lat="45.8219817" lon="8.7138517"><ele>255.0</ele><time>2026-03-22T17:05:24.377Z</time></trkpt><trkpt lat="45.8219033" lon="8.7137767"><ele>255.0</ele><time>2026-03-22T17:05:25.377Z</time></trkpt><trkpt lat="45.821815" lon="8.71371"><ele>255.0</ele><time>2026-03-22T17:05:26.377Z</time></trkpt><trkpt lat="45.82172" lon="8.7136417"><ele>255.0</ele><time>2026-03-22T17:05:27.377Z</time></trkpt><trkpt lat="45.8216217" lon="8.7135683"><ele>256.4</ele><time>2026-03-22T17:05:28.377Z</time></trkpt><trkpt lat="45.821525" lon="8.7134967"><ele>257.8</ele><time>2026-03-22T17:05:29.377Z</time></trkpt><trkpt lat="45.82143" lon="8.71343"><ele>259.2</ele><time>2026-03-22T17:05:30.377Z</time></trkpt><trkpt lat="45.8213317" lon="8.7133683"><ele>260.6</ele><time>2026-03-22T17:05:31.377Z</time></trkpt><trkpt lat="45.8212333" lon="8.7133067"><ele>262.0</ele><time>2026-03-22T17:05:32.377Z</time></trkpt><trkpt lat="45.8211383" lon="8.7132317"><ele>262.0</ele><time>2026-03-22T17:05:33.377Z</time></trkpt><trkpt lat="45.8210483" lon="8.7131317"><ele>262.0</ele><time>2026-03-22T17:05:34.377Z</time></trkpt><trkpt lat="45.8209617" lon="8.7129883"><ele>262.0</ele><time>2026-03-22T17:05:35.377Z</time></trkpt><trkpt lat="45.82087" lon="8.7128467"><ele>262.0</ele><time>2026-03-22T17:05:36.377Z</time></trkpt><trkpt lat="45.8207767" lon="8.712715"><ele>261.75</ele><time>2026-03-22T17:05:37.377Z</time></trkpt><trkpt lat="45.820685" lon="8.7125817"><ele>261.5</ele><time>2026-03-22T17:05:38.377Z</time></trkpt><trkpt lat="45.8205933" lon="8.7124633"><ele>261.25</ele><time>2026-03-22T17:05:39.377Z</time></trkpt><trkpt lat="45.82051" lon="8.7123417"><ele>261.0</ele><time>2026-03-22T17:05:40.377Z</time></trkpt><trkpt lat="45.8204283" lon="8.7122267"><ele>261.0</ele><time>2026-03-22T17:05:41.377Z</time></trkpt><trkpt lat="45.82034" lon="8.7121383"><ele>261.0</ele><time>2026-03-22T17:05:42.377Z</time></trkpt><trkpt lat="45.8202317" lon="8.7120483"><ele>261.0</ele><time>2026-03-22T17:05:43.377Z</time></trkpt><trkpt lat="45.82012" lon="8.7119733"><ele>261.0</ele><time>2026-03-22T17:05:44.377Z</time></trkpt><trkpt lat="45.820025" lon="8.711885"><ele>259.5</ele><time>2026-03-22T17:05:45.377Z</time></trkpt><trkpt lat="45.81992" lon="8.7117983"><ele>258.0</ele><time>2026-03-22T17:05:46.377Z</time></trkpt><trkpt lat="45.8197967" lon="8.7117283"><ele>256.5</ele><time>2026-03-22T17:05:47.377Z</time></trkpt><trkpt lat="45.8196717" lon="8.7116883"><ele>255.0</ele><time>2026-03-22T17:05:48.377Z</time></trkpt><trkpt lat="45.819535" lon="8.71165"><ele>255.0</ele><time>2026-03-22T17:05:49.377Z</time></trkpt><trkpt lat="45.8193967" lon="8.7116133"><ele>255.0</ele><time>2026-03-22T17:05:50.377Z</time></trkpt><trkpt lat="45.8192717" lon="8.711575"><ele>255.0</ele><time>2026-03-22T17:05:51.377Z</time></trkpt><trkpt lat="45.81914" lon="8.7115467"><ele>255.0</ele><time>2026-03-22T17:05:52.377Z</time></trkpt><trkpt lat="45.819005" lon="8.7115167"><ele>255.0</ele><time>2026-03-22T17:05:53.377Z</time></trkpt><trkpt lat="45.8188667" lon="8.711475"><ele>255.0</ele><time>2026-03-22T17:05:54.377Z</time></trkpt><trkpt lat="45.8187217" lon="8.7114367"><ele>255.0</ele><time>2026-03-22T17:05:55.377Z</time></trkpt><trkpt lat="45.818585" lon="8.7114183"><ele>255.0</ele><time>2026-03-22T17:05:56.377Z</time></trkpt><trkpt lat="45.8184433" lon="8.7113933"><ele>255.0</ele><time>2026-03-22T17:05:57.377Z</time></trkpt><trkpt lat="45.8183083" lon="8.7113783"><ele>255.0</ele><time>2026-03-22T17:05:58.377Z</time></trkpt><trkpt lat="45.818175" lon="8.7113617"><ele>255.0</ele><time>2026-03-22T17:05:59.377Z</time></trkpt><trkpt lat="45.8180483" lon="8.711325"><ele>255.0</ele><time>2026-03-22T17:06:00.377Z</time></trkpt><trkpt lat="45.8179217" lon="8.7113167"><ele>255.0</ele><time>2026-03-22T17:06:01.377Z</time></trkpt><trkpt lat="45.8177883" lon="8.7112867"><ele>255.0</ele><time>2026-03-22T17:06:02.377Z</time></trkpt><trkpt lat="45.8176567" lon="8.711265"><ele>255.0</ele><time>2026-03-22T17:06:03.377Z</time></trkpt><trkpt lat="45.8175267" lon="8.7112383"><ele>255.0</ele><time>2026-03-22T17:06:04.377Z</time></trkpt><trkpt lat="45.817395" lon="8.7112083"><ele>256.0</ele><time>2026-03-22T17:06:05.377Z</time></trkpt><trkpt lat="45.8172783" lon="8.71118"><ele>257.0</ele><time>2026-03-22T17:06:06.377Z</time></trkpt><trkpt lat="45.81716" lon="8.711145"><ele>258.0</ele><time>2026-03-22T17:06:07.377Z</time></trkpt><trkpt lat="45.8170383" lon="8.7111233"><ele>259.0</ele><time>2026-03-22T17:06:08.377Z</time></trkpt><trkpt lat="45.8169167" lon="8.7111167"><ele>259.5</ele><time>2026-03-22T17:06:09.377Z</time></trkpt><trkpt lat="45.816795" lon="8.71111"><ele>260.0</ele><time>2026-03-22T17:06:10.377Z</time></trkpt><trkpt lat="45.81668" lon="8.7110917"><ele>260.5</ele><time>2026-03-22T17:06:11.377Z</time></trkpt><trkpt lat="45.81657" lon="8.7110833"><ele>261.0</ele><time>2026-03-22T17:06:12.377Z</time></trkpt><trkpt lat="45.8164567" lon="8.71109"><ele>261.0</ele><time>2026-03-22T17:06:13.377Z</time></trkpt><trkpt lat="45.8163533" lon="8.7110883"><ele>261.0</ele><time>2026-03-22T17:06:14.377Z</time></trkpt><trkpt lat="45.81624" lon="8.71108"><ele>261.0</ele><time>2026-03-22T17:06:15.377Z</time></trkpt><trkpt lat="45.816105" lon="8.711065"><ele>261.0</ele><time>2026-03-22T17:06:16.377Z</time></trkpt><trkpt lat="45.81596" lon="8.71105"><ele>260.6666666666667</ele><time>2026-03-22T17:06:17.377Z</time></trkpt><trkpt lat="45.8158067" lon="8.7110367"><ele>260.33333333333337</ele><time>2026-03-22T17:06:18.377Z</time></trkpt><trkpt lat="45.8156617" lon="8.7110117"><ele>260.0</ele><time>2026-03-22T17:06:19.377Z</time></trkpt><trkpt lat="45.8155133" lon="8.7109783"><ele>260.0</ele><time>2026-03-22T17:06:20.377Z</time></trkpt><trkpt lat="45.8153783" lon="8.71094"><ele>260.0</ele><time>2026-03-22T17:06:21.377Z</time></trkpt><trkpt lat="45.8152383" lon="8.710895"><ele>260.0</ele><time>2026-03-22T17:06:22.377Z</time></trkpt><trkpt lat="45.8150967" lon="8.7108467"><ele>260.0</ele><time>2026-03-22T17:06:23.377Z</time></trkpt><trkpt lat="45.8149633" lon="8.7108117"><ele>259.75</ele><time>2026-03-22T17:06:24.377Z</time></trkpt><trkpt lat="45.8148283" lon="8.7107667"><ele>259.5</ele><time>2026-03-22T17:06:25.377Z</time></trkpt><trkpt lat="45.8146883" lon="8.7107283"><ele>259.25</ele><time>2026-03-22T17:06:26.377Z</time></trkpt><trkpt lat="45.8145417" lon="8.7106967"><ele>259.0</ele><time>2026-03-22T17:06:27.377Z</time></trkpt><trkpt lat="45.8144083" lon="8.7106517"><ele>259.5</ele><time>2026-03-22T17:06:28.377Z</time></trkpt><trkpt lat="45.8142817" lon="8.7106033"><ele>260.0</ele><time>2026-03-22T17:06:29.377Z</time></trkpt><trkpt lat="45.814155" lon="8.7105583"><ele>260.5</ele><time>2026-03-22T17:06:30.377Z</time></trkpt><trkpt lat="45.81403" lon="8.7105133"><ele>261.0</ele><time>2026-03-22T17:06:31.377Z</time></trkpt><trkpt lat="45.8139033" lon="8.7104783"><ele>261.0</ele><time>2026-03-22T17:06:32.377Z</time></trkpt><trkpt lat="45.813785" lon="8.710445"><ele>261.0</ele><time>2026-03-22T17:06:33.377Z</time></trkpt><trkpt lat="45.8136733" lon="8.7104083"><ele>261.0</ele><time>2026-03-22T17:06:34.377Z</time></trkpt><trkpt lat="45.8135467" lon="8.71038"><ele>261.0</ele><time>2026-03-22T17:06:35.377Z</time></trkpt><trkpt lat="45.813425" lon="8.7103517"><ele>261.25</ele><time>2026-03-22T17:06:36.377Z</time></trkpt><trkpt lat="45.8132833" lon="8.71035"><ele>261.5</ele><time>2026-03-22T17:06:37.377Z</time></trkpt><trkpt lat="45.8131383" lon="8.7103733"><ele>261.75</ele><time>2026-03-22T17:06:38.377Z</time></trkpt><trkpt lat="45.8129917" lon="8.7104117"><ele>262.0</ele><time>2026-03-22T17:06:39.377Z</time></trkpt><trkpt lat="45.812855" lon="8.7104583"><ele>262.0</ele><time>2026-03-22T17:06:40.377Z</time></trkpt><trkpt lat="45.812725" lon="8.7105"><ele>262.0</ele><time>2026-03-22T17:06:41.377Z</time></trkpt><trkpt lat="45.8125917" lon="8.7105117"><ele>262.0</ele><time>2026-03-22T17:06:42.377Z</time></trkpt><trkpt lat="45.81245" lon="8.71051"><ele>262.0</ele><time>2026-03-22T17:06:43.377Z</time></trkpt><trkpt lat="45.8123217" lon="8.7104867"><ele>262.0</ele><time>2026-03-22T17:06:44.377Z</time></trkpt><trkpt lat="45.812195" lon="8.7104433"><ele>262.0</ele><time>2026-03-22T17:06:45.377Z</time></trkpt><trkpt lat="45.8120717" lon="8.7103833"><ele>262.0</ele><time>2026-03-22T17:06:46.377Z</time></trkpt><trkpt lat="45.811935" lon="8.7103217"><ele>262.0</ele><time>2026-03-22T17:06:47.377Z</time></trkpt><trkpt lat="45.81178" lon="8.71025"><ele>263.66666666666663</ele><time>2026-03-22T17:06:48.377Z</time></trkpt><trkpt lat="45.8116066" lon="8.7101696"><ele>265.3333333333333</ele><time>2026-03-22T17:06:49.377Z</time></trkpt><trkpt lat="45.8114214" lon="8.7100754"><ele>267.0</ele><time>2026-03-22T17:06:50.377Z</time></trkpt><trkpt lat="45.8112346" lon="8.7099727"><ele>267.0</ele><time>2026-03-22T17:06:51.377Z</time></trkpt><trkpt lat="45.811049" lon="8.7098724"><ele>267.0</ele><time>2026-03-22T17:06:52.377Z</time></trkpt><trkpt lat="45.8108497" lon="8.7097843"><ele>267.0</ele><time>2026-03-22T17:06:53.377Z</time></trkpt><trkpt lat="45.8106346" lon="8.7097046"><ele>264.5</ele><time>2026-03-22T17:06:54.377Z</time></trkpt><trkpt lat="45.8104035" lon="8.7096216"><ele>262.0</ele><time>2026-03-22T17:06:55.377Z</time></trkpt><trkpt lat="45.8101672" lon="8.70954"><ele>262.5</ele><time>2026-03-22T17:06:56.377Z</time></trkpt><trkpt lat="45.8099454" lon="8.7094617"><ele>263.0</ele><time>2026-03-22T17:06:57.377Z</time></trkpt><trkpt lat="45.8097297" lon="8.7093868"><ele>263.6666666666667</ele><time>2026-03-22T17:06:58.377Z</time></trkpt><trkpt lat="45.8095206" lon="8.7093204"><ele>264.3333333333333</ele><time>2026-03-22T17:06:59.377Z</time></trkpt><trkpt lat="45.8093133" lon="8.7092554"><ele>265.0</ele><time>2026-03-22T17:07:00.377Z</time></trkpt><trkpt lat="45.8091031" lon="8.7091926"><ele>265.0</ele><time>2026-03-22T17:07:01.377Z</time></trkpt><trkpt lat="45.8088913" lon="8.7091251"><ele>265.0</ele><time>2026-03-22T17:07:02.377Z</time></trkpt><trkpt lat="45.8086801" lon="8.7090538"><ele>265.0</ele><time>2026-03-22T17:07:03.377Z</time></trkpt><trkpt lat="45.8084802" lon="8.7089856"><ele>264.3333333333333</ele><time>2026-03-22T17:07:04.377Z</time></trkpt><trkpt lat="45.8082871" lon="8.7089287"><ele>263.6666666666667</ele><time>2026-03-22T17:07:05.377Z</time></trkpt><trkpt lat="45.8080935" lon="8.7088785"><ele>263.0</ele><time>2026-03-22T17:07:06.377Z</time></trkpt><trkpt lat="45.8078906" lon="8.7088429"><ele>263.0</ele><time>2026-03-22T17:07:07.377Z</time></trkpt><trkpt lat="45.8076851" lon="8.7088117"><ele>263.0</ele><time>2026-03-22T17:07:08.377Z</time></trkpt><trkpt lat="45.8074723" lon="8.708785"><ele>263.0</ele><time>2026-03-22T17:07:09.377Z</time></trkpt><trkpt lat="45.8072564" lon="8.7087634"><ele>262.0</ele><time>2026-03-22T17:07:10.377Z</time></trkpt><trkpt lat="45.8070409" lon="8.7087469"><ele>261.0</ele><time>2026-03-22T17:07:11.377Z</time></trkpt><trkpt lat="45.8068334" lon="8.7087316"><ele>260.0</ele><time>2026-03-22T17:07:12.377Z</time></trkpt><trkpt lat="45.8066346" lon="8.7087098"><ele>259.33333333333337</ele><time>2026-03-22T17:07:13.377Z</time></trkpt><trkpt lat="45.8064373" lon="8.7086936"><ele>258.6666666666667</ele><time>2026-03-22T17:07:14.377Z</time></trkpt><trkpt lat="45.8062404" lon="8.708661"><ele>258.0</ele><time>2026-03-22T17:07:15.377Z</time></trkpt><trkpt lat="45.8060286" lon="8.7086496"><ele>258.0</ele><time>2026-03-22T17:07:16.377Z</time></trkpt><trkpt lat="45.8058109" lon="8.708638"><ele>258.0</ele><time>2026-03-22T17:07:17.377Z</time></trkpt><trkpt lat="45.8055897" lon="8.7086228"><ele>258.0</ele><time>2026-03-22T17:07:18.377Z</time></trkpt><trkpt lat="45.8053665" lon="8.7086048"><ele>258.6666666666667</ele><time>2026-03-22T17:07:19.377Z</time></trkpt><trkpt lat="45.8051592" lon="8.7085746"><ele>259.33333333333337</ele><time>2026-03-22T17:07:20.377Z</time></trkpt><trkpt lat="45.804959" lon="8.7085281"><ele>260.0</ele><time>2026-03-22T17:07:21.377Z</time></trkpt><trkpt lat="45.804775" lon="8.7084533"><ele>260.0</ele><time>2026-03-22T17:07:22.377Z</time></trkpt><trkpt lat="45.8046017" lon="8.7083567"><ele>260.0</ele><time>2026-03-22T17:07:23.377Z</time></trkpt><trkpt lat="45.8044383" lon="8.7082133"><ele>260.0</ele><time>2026-03-22T17:07:24.377Z</time></trkpt><trkpt lat="45.8042833" lon="8.7080267"><ele>259.33333333333337</ele><time>2026-03-22T17:07:25.377Z</time></trkpt><trkpt lat="45.8041233" lon="8.707825"><ele>258.6666666666667</ele><time>2026-03-22T17:07:26.377Z</time></trkpt><trkpt lat="45.8039567" lon="8.7076"><ele>258.0</ele><time>2026-03-22T17:07:27.377Z</time></trkpt><trkpt lat="45.8037883" lon="8.7073533"><ele>258.0</ele><time>2026-03-22T17:07:28.377Z</time></trkpt><trkpt lat="45.8036183" lon="8.7071183"><ele>258.0</ele><time>2026-03-22T17:07:29.377Z</time></trkpt><trkpt lat="45.8034583" lon="8.7068983"><ele>256.3333333333333</ele><time>2026-03-22T17:07:30.377Z</time></trkpt><trkpt lat="45.80331" lon="8.70669"><ele>254.66666666666666</ele><time>2026-03-22T17:07:31.377Z</time></trkpt><trkpt lat="45.803155" lon="8.70649"><ele>253.0</ele><time>2026-03-22T17:07:32.377Z</time></trkpt><trkpt lat="45.803005" lon="8.7062833"><ele>253.0</ele><time>2026-03-22T17:07:33.377Z</time></trkpt><trkpt lat="45.8028567" lon="8.7060917"><ele>253.0</ele><time>2026-03-22T17:07:34.377Z</time></trkpt><trkpt lat="45.8027033" lon="8.7059"><ele>253.0</ele><time>2026-03-22T17:07:35.377Z</time></trkpt><trkpt lat="45.80255" lon="8.7057017"><ele>252.33333333333331</ele><time>2026-03-22T17:07:36.377Z</time></trkpt><trkpt lat="45.802385" lon="8.7055067"><ele>251.66666666666669</ele><time>2026-03-22T17:07:37.377Z</time></trkpt><trkpt lat="45.8022" lon="8.70534"><ele>251.0</ele><time>2026-03-22T17:07:38.377Z</time></trkpt><trkpt lat="45.8019967" lon="8.7051983"><ele>251.33333333333334</ele><time>2026-03-22T17:07:39.377Z</time></trkpt><trkpt lat="45.801785" lon="8.7050683"><ele>251.66666666666669</ele><time>2026-03-22T17:07:40.377Z</time></trkpt><trkpt lat="45.80158" lon="8.7049617"><ele>252.0</ele><time>2026-03-22T17:07:41.377Z</time></trkpt><trkpt lat="45.8014" lon="8.7048483"><ele>252.0</ele><time>2026-03-22T17:07:42.377Z</time></trkpt><trkpt lat="45.8012183" lon="8.70475"><ele>252.0</ele><time>2026-03-22T17:07:43.377Z</time></trkpt><trkpt lat="45.8010517" lon="8.7046533"><ele>252.0</ele><time>2026-03-22T17:07:44.377Z</time></trkpt><trkpt lat="45.80089" lon="8.7045717"><ele>252.0</ele><time>2026-03-22T17:07:45.377Z</time></trkpt><trkpt lat="45.8007233" lon="8.70452"><ele>252.0</ele><time>2026-03-22T17:07:46.377Z</time></trkpt><trkpt lat="45.80056" lon="8.704505"><ele>252.0</ele><time>2026-03-22T17:07:47.377Z</time></trkpt><trkpt lat="45.8004017" lon="8.7045067"><ele>252.0</ele><time>2026-03-22T17:07:48.377Z</time></trkpt><trkpt lat="45.800255" lon="8.704485"><ele>252.0</ele><time>2026-03-22T17:07:49.377Z</time></trkpt><trkpt lat="45.8001117" lon="8.704475"><ele>252.0</ele><time>2026-03-22T17:07:50.377Z</time></trkpt><trkpt lat="45.7999783" lon="8.7044783"><ele>252.0</ele><time>2026-03-22T17:07:51.377Z</time></trkpt><trkpt lat="45.79986" lon="8.7044783"><ele>252.33333333333334</ele><time>2026-03-22T17:07:52.377Z</time></trkpt><trkpt lat="45.7997683" lon="8.70447"><ele>252.66666666666669</ele><time>2026-03-22T17:07:53.377Z</time></trkpt><trkpt lat="45.79969" lon="8.704445"><ele>253.0</ele><time>2026-03-22T17:07:54.377Z</time></trkpt><trkpt lat="45.79962" lon="8.704425"><ele>253.33333333333334</ele><time>2026-03-22T17:07:55.377Z</time></trkpt><trkpt lat="45.7995417" lon="8.7044383"><ele>253.66666666666669</ele><time>2026-03-22T17:07:56.377Z</time></trkpt><trkpt lat="45.7994667" lon="8.7045133"><ele>254.0</ele><time>2026-03-22T17:07:57.377Z</time></trkpt><trkpt lat="45.7993883" lon="8.7046267"><ele>253.75</ele><time>2026-03-22T17:07:58.377Z</time></trkpt><trkpt lat="45.7992917" lon="8.7047717"><ele>253.5</ele><time>2026-03-22T17:07:59.377Z</time></trkpt><trkpt lat="45.7991867" lon="8.704915"><ele>253.25</ele><time>2026-03-22T17:08:00.377Z</time></trkpt><trkpt lat="45.7990833" lon="8.7050517"><ele>253.0</ele><time>2026-03-22T17:08:01.377Z</time></trkpt><trkpt lat="45.798985" lon="8.7051967"><ele>253.0</ele><time>2026-03-22T17:08:02.377Z</time></trkpt><trkpt lat="45.7988883" lon="8.7053367"><ele>253.0</ele><time>2026-03-22T17:08:03.377Z</time></trkpt><trkpt lat="45.7988033" lon="8.7054783"><ele>253.0</ele><time>2026-03-22T17:08:04.377Z</time></trkpt><trkpt lat="45.7987267" lon="8.7056283"><ele>253.0</ele><time>2026-03-22T17:08:05.377Z</time></trkpt><trkpt lat="45.798645" lon="8.7057733"><ele>253.0</ele><time>2026-03-22T17:08:06.377Z</time></trkpt><trkpt lat="45.79857" lon="8.7059367"><ele>253.0</ele><time>2026-03-22T17:08:07.377Z</time></trkpt><trkpt lat="45.7984833" lon="8.706095"><ele>253.0</ele><time>2026-03-22T17:08:08.377Z</time></trkpt><trkpt lat="45.7983917" lon="8.7062617"><ele>253.0</ele><time>2026-03-22T17:08:09.377Z</time></trkpt><trkpt lat="45.7982917" lon="8.70644"><ele>250.33333333333331</ele><time>2026-03-22T17:08:10.377Z</time></trkpt><trkpt lat="45.798195" lon="8.7066233"><ele>247.66666666666669</ele><time>2026-03-22T17:08:11.377Z</time></trkpt><trkpt lat="45.798105" lon="8.706785"><ele>245.0</ele><time>2026-03-22T17:08:12.377Z</time></trkpt><trkpt lat="45.7980183" lon="8.7069533"><ele>244.0</ele><time>2026-03-22T17:08:13.377Z</time></trkpt><trkpt lat="45.7979383" lon="8.70712"><ele>243.0</ele><time>2026-03-22T17:08:14.377Z</time></trkpt><trkpt lat="45.7978433" lon="8.7072883"><ele>242.0</ele><time>2026-03-22T17:08:15.377Z</time></trkpt><trkpt lat="45.79775" lon="8.7074733"><ele>242.0</ele><time>2026-03-22T17:08:16.378Z</time></trkpt><trkpt lat="45.7976767" lon="8.7076717"><ele>242.0</ele><time>2026-03-22T17:08:17.377Z</time></trkpt><trkpt lat="45.79762" lon="8.7079017"><ele>242.0</ele><time>2026-03-22T17:08:18.377Z</time></trkpt><trkpt lat="45.7975683" lon="8.7081417"><ele>242.0</ele><time>2026-03-22T17:08:19.377Z</time></trkpt><trkpt lat="45.7975217" lon="8.708395"><ele>242.0</ele><time>2026-03-22T17:08:20.377Z</time></trkpt><trkpt lat="45.797475" lon="8.7086467"><ele>242.0</ele><time>2026-03-22T17:08:21.377Z</time></trkpt><trkpt lat="45.7974267" lon="8.70891"><ele>241.33333333333334</ele><time>2026-03-22T17:08:22.377Z</time></trkpt><trkpt lat="45.7973783" lon="8.7091867"><ele>240.66666666666669</ele><time>2026-03-22T17:08:23.377Z</time></trkpt><trkpt lat="45.797325" lon="8.7094883"><ele>240.0</ele><time>2026-03-22T17:08:24.377Z</time></trkpt><trkpt lat="45.7972783" lon="8.7097833"><ele>241.66666666666669</ele><time>2026-03-22T17:08:25.377Z</time></trkpt><trkpt lat="45.79722" lon="8.7100867"><ele>243.33333333333334</ele><time>2026-03-22T17:08:26.377Z</time></trkpt><trkpt lat="45.7971617" lon="8.710395"><ele>245.0</ele><time>2026-03-22T17:08:27.377Z</time></trkpt><trkpt lat="45.7971067" lon="8.7106917"><ele>245.0</ele><time>2026-03-22T17:08:28.377Z</time></trkpt><trkpt lat="45.7970533" lon="8.71098"><ele>245.0</ele><time>2026-03-22T17:08:29.377Z</time></trkpt><trkpt lat="45.7969933" lon="8.71127"><ele>245.0</ele><time>2026-03-22T17:08:30.377Z</time></trkpt><trkpt lat="45.79694" lon="8.711565"><ele>245.0</ele><time>2026-03-22T17:08:31.377Z</time></trkpt><trkpt lat="45.79688" lon="8.7118633"><ele>245.0</ele><time>2026-03-22T17:08:32.377Z</time></trkpt><trkpt lat="45.7968283" lon="8.71216"><ele>245.0</ele><time>2026-03-22T17:08:33.377Z</time></trkpt><trkpt lat="45.79678" lon="8.7124467"><ele>243.66666666666669</ele><time>2026-03-22T17:08:34.377Z</time></trkpt><trkpt lat="45.7967267" lon="8.7127333"><ele>242.33333333333331</ele><time>2026-03-22T17:08:35.377Z</time></trkpt><trkpt lat="45.7966767" lon="8.7130267"><ele>241.0</ele><time>2026-03-22T17:08:36.377Z</time></trkpt><trkpt lat="45.7966233" lon="8.71333"><ele>242.0</ele><time>2026-03-22T17:08:37.377Z</time></trkpt><trkpt lat="45.7965683" lon="8.7136417"><ele>243.0</ele><time>2026-03-22T17:08:38.377Z</time></trkpt><trkpt lat="45.7965167" lon="8.71396"><ele>243.0</ele><time>2026-03-22T17:08:39.377Z</time></trkpt><trkpt lat="45.7964533" lon="8.7142967"><ele>243.0</ele><time>2026-03-22T17:08:40.377Z</time></trkpt><trkpt lat="45.7963933" lon="8.71465"><ele>243.0</ele><time>2026-03-22T17:08:41.377Z</time></trkpt><trkpt lat="45.79632" lon="8.7150117"><ele>243.0</ele><time>2026-03-22T17:08:42.377Z</time></trkpt><trkpt lat="45.7962633" lon="8.71536"><ele>243.0</ele><time>2026-03-22T17:08:43.377Z</time></trkpt><trkpt lat="45.7962067" lon="8.7157017"><ele>243.0</ele><time>2026-03-22T17:08:44.377Z</time></trkpt><trkpt lat="45.79615" lon="8.716035"><ele>243.5</ele><time>2026-03-22T17:08:45.377Z</time></trkpt><trkpt lat="45.7960883" lon="8.7163833"><ele>244.0</ele><time>2026-03-22T17:08:46.377Z</time></trkpt><trkpt lat="45.79603" lon="8.7167433"><ele>243.5</ele><time>2026-03-22T17:08:47.377Z</time></trkpt><trkpt lat="45.7959633" lon="8.7171167"><ele>243.0</ele><time>2026-03-22T17:08:48.377Z</time></trkpt><trkpt lat="45.795895" lon="8.7175017"><ele>244.0</ele><time>2026-03-22T17:08:49.377Z</time></trkpt><trkpt lat="45.79582" lon="8.7178967"><ele>245.0</ele><time>2026-03-22T17:08:50.377Z</time></trkpt><trkpt lat="45.7957383" lon="8.7182967"><ele>245.0</ele><time>2026-03-22T17:08:51.377Z</time></trkpt><trkpt lat="45.7956583" lon="8.7186983"><ele>245.0</ele><time>2026-03-22T17:08:52.377Z</time></trkpt><trkpt lat="45.7955867" lon="8.7190767"><ele>244.5</ele><time>2026-03-22T17:08:53.377Z</time></trkpt><trkpt lat="45.79552" lon="8.7194383"><ele>244.0</ele><time>2026-03-22T17:08:54.377Z</time></trkpt><trkpt lat="45.7954583" lon="8.7197633"><ele>244.0</ele><time>2026-03-22T17:08:55.377Z</time></trkpt><trkpt lat="45.7953983" lon="8.720075"><ele>244.0</ele><time>2026-03-22T17:08:56.377Z</time></trkpt><trkpt lat="45.7953417" lon="8.7203683"><ele>244.0</ele><time>2026-03-22T17:08:57.377Z</time></trkpt><trkpt lat="45.7952867" lon="8.7206683"><ele>244.0</ele><time>2026-03-22T17:08:58.377Z</time></trkpt><trkpt lat="45.7952633" lon="8.720965"><ele>244.0</ele><time>2026-03-22T17:08:59.377Z</time></trkpt><trkpt lat="45.795255" lon="8.7212517"><ele>244.0</ele><time>2026-03-22T17:09:00.377Z</time></trkpt><trkpt lat="45.7952633" lon="8.7215417"><ele>245.33333333333331</ele><time>2026-03-22T17:09:01.377Z</time></trkpt><trkpt lat="45.7952783" lon="8.7218083"><ele>246.66666666666669</ele><time>2026-03-22T17:09:02.377Z</time></trkpt><trkpt lat="45.7952933" lon="8.7220617"><ele>248.0</ele><time>2026-03-22T17:09:03.377Z</time></trkpt><trkpt lat="45.7953117" lon="8.7223"><ele>248.33333333333334</ele><time>2026-03-22T17:09:04.377Z</time></trkpt><trkpt lat="45.7953317" lon="8.7225417"><ele>248.66666666666669</ele><time>2026-03-22T17:09:05.377Z</time></trkpt><trkpt lat="45.79535" lon="8.7227733"><ele>249.0</ele><time>2026-03-22T17:09:06.377Z</time></trkpt><trkpt lat="45.795365" lon="8.72301"><ele>249.0</ele><time>2026-03-22T17:09:07.377Z</time></trkpt><trkpt lat="45.7953867" lon="8.72325"><ele>249.0</ele><time>2026-03-22T17:09:08.377Z</time></trkpt><trkpt lat="45.7954283" lon="8.7234983"><ele>249.0</ele><time>2026-03-22T17:09:09.377Z</time></trkpt><trkpt lat="45.7954833" lon="8.7237383"><ele>248.33333333333331</ele><time>2026-03-22T17:09:10.377Z</time></trkpt><trkpt lat="45.795545" lon="8.7239683"><ele>247.66666666666666</ele><time>2026-03-22T17:09:11.377Z</time></trkpt><trkpt lat="45.7956167" lon="8.7241917"><ele>247.0</ele><time>2026-03-22T17:09:12.377Z</time></trkpt><trkpt lat="45.79569" lon="8.72441"><ele>247.0</ele><time>2026-03-22T17:09:13.377Z</time></trkpt><trkpt lat="45.795765" lon="8.7246233"><ele>247.0</ele><time>2026-03-22T17:09:14.377Z</time></trkpt><trkpt lat="45.79584" lon="8.7248533"><ele>247.0</ele><time>2026-03-22T17:09:15.377Z</time></trkpt><trkpt lat="45.7959183" lon="8.72509"><ele>247.0</ele><time>2026-03-22T17:09:16.377Z</time></trkpt><trkpt lat="45.7959917" lon="8.7253283"><ele>247.0</ele><time>2026-03-22T17:09:17.377Z</time></trkpt><trkpt lat="45.7960683" lon="8.7255633"><ele>247.0</ele><time>2026-03-22T17:09:18.377Z</time></trkpt><trkpt lat="45.7961417" lon="8.7257983"><ele>246.66666666666666</ele><time>2026-03-22T17:09:19.377Z</time></trkpt><trkpt lat="45.7962033" lon="8.7260267"><ele>246.33333333333331</ele><time>2026-03-22T17:09:20.377Z</time></trkpt><trkpt lat="45.7962517" lon="8.7262583"><ele>246.0</ele><time>2026-03-22T17:09:21.377Z</time></trkpt><trkpt lat="45.7962867" lon="8.7264983"><ele>247.0</ele><time>2026-03-22T17:09:22.377Z</time></trkpt><trkpt lat="45.79631" lon="8.72673"><ele>248.0</ele><time>2026-03-22T17:09:23.377Z</time></trkpt><trkpt lat="45.7963217" lon="8.7269667"><ele>249.0</ele><time>2026-03-22T17:09:24.377Z</time></trkpt><trkpt lat="45.7963117" lon="8.727205"><ele>249.33333333333331</ele><time>2026-03-22T17:09:25.377Z</time></trkpt><trkpt lat="45.7962917" lon="8.7274467"><ele>249.66666666666666</ele><time>2026-03-22T17:09:26.377Z</time></trkpt><trkpt lat="45.7962667" lon="8.7276933"><ele>250.0</ele><time>2026-03-22T17:09:27.377Z</time></trkpt><trkpt lat="45.7962467" lon="8.727975"><ele>250.0</ele><time>2026-03-22T17:09:28.377Z</time></trkpt><trkpt lat="45.7962183" lon="8.7282783"><ele>250.0</ele><time>2026-03-22T17:09:29.377Z</time></trkpt><trkpt lat="45.7961867" lon="8.7286"><ele>250.0</ele><time>2026-03-22T17:09:30.377Z</time></trkpt><trkpt lat="45.796155" lon="8.7289233"><ele>251.0</ele><time>2026-03-22T17:09:31.377Z</time></trkpt><trkpt lat="45.7961233" lon="8.729255"><ele>252.0</ele><time>2026-03-22T17:09:32.377Z</time></trkpt><trkpt lat="45.7960917" lon="8.7295833"><ele>253.5</ele><time>2026-03-22T17:09:33.377Z</time></trkpt><trkpt lat="45.7960667" lon="8.7299283"><ele>255.0</ele><time>2026-03-22T17:09:34.377Z</time></trkpt><trkpt lat="45.7960367" lon="8.7302833"><ele>255.0</ele><time>2026-03-22T17:09:35.377Z</time></trkpt><trkpt lat="45.7960117" lon="8.7306467"><ele>255.0</ele><time>2026-03-22T17:09:36.377Z</time></trkpt><trkpt lat="45.795975" lon="8.731"><ele>250.5</ele><time>2026-03-22T17:09:37.377Z</time></trkpt><trkpt lat="45.7959467" lon="8.7313483"><ele>246.0</ele><time>2026-03-22T17:09:38.377Z</time></trkpt><trkpt lat="45.7959133" lon="8.7316733"><ele>246.66666666666669</ele><time>2026-03-22T17:09:39.377Z</time></trkpt><trkpt lat="45.79588" lon="8.7319817"><ele>247.33333333333334</ele><time>2026-03-22T17:09:40.377Z</time></trkpt><trkpt lat="45.7958533" lon="8.73228"><ele>248.0</ele><time>2026-03-22T17:09:41.377Z</time></trkpt><trkpt lat="45.795825" lon="8.7325717"><ele>248.66666666666669</ele><time>2026-03-22T17:09:42.377Z</time></trkpt><trkpt lat="45.79579" lon="8.7328467"><ele>249.33333333333331</ele><time>2026-03-22T17:09:43.377Z</time></trkpt><trkpt lat="45.7957583" lon="8.7331217"><ele>250.0</ele><time>2026-03-22T17:09:44.377Z</time></trkpt><trkpt lat="45.7957167" lon="8.7333917"><ele>249.66666666666666</ele><time>2026-03-22T17:09:45.377Z</time></trkpt><trkpt lat="45.7956667" lon="8.7336717"><ele>249.33333333333331</ele><time>2026-03-22T17:09:46.377Z</time></trkpt><trkpt lat="45.79561" lon="8.73397"><ele>249.0</ele><time>2026-03-22T17:09:47.377Z</time></trkpt><trkpt lat="45.7955267" lon="8.7342733"><ele>248.0</ele><time>2026-03-22T17:09:48.377Z</time></trkpt><trkpt lat="45.7954333" lon="8.7345817"><ele>247.0</ele><time>2026-03-22T17:09:49.377Z</time></trkpt><trkpt lat="45.795335" lon="8.7348983"><ele>247.0</ele><time>2026-03-22T17:09:50.377Z</time></trkpt><trkpt lat="45.7952483" lon="8.7352017"><ele>247.0</ele><time>2026-03-22T17:09:51.377Z</time></trkpt><trkpt lat="45.7951717" lon="8.7354833"><ele>247.0</ele><time>2026-03-22T17:09:52.377Z</time></trkpt><trkpt lat="45.7951" lon="8.735745"><ele>246.66666666666666</ele><time>2026-03-22T17:09:53.377Z</time></trkpt><trkpt lat="45.79503" lon="8.7359917"><ele>246.33333333333331</ele><time>2026-03-22T17:09:54.377Z</time></trkpt><trkpt lat="45.7949667" lon="8.7362033"><ele>246.0</ele><time>2026-03-22T17:09:55.377Z</time></trkpt><trkpt lat="45.7949017" lon="8.7363967"><ele>246.0</ele><time>2026-03-22T17:09:56.377Z</time></trkpt><trkpt lat="45.7948417" lon="8.7365567"><ele>246.00000000000003</ele><time>2026-03-22T17:09:57.377Z</time></trkpt><trkpt lat="45.7947767" lon="8.736675"><ele>246.00000000000003</ele><time>2026-03-22T17:09:58.377Z</time></trkpt><trkpt lat="45.7947117" lon="8.7367617"><ele>246.0</ele><time>2026-03-22T17:09:59.377Z</time></trkpt><trkpt lat="45.7946533" lon="8.7368667"><ele>246.0</ele><time>2026-03-22T17:10:00.377Z</time></trkpt><trkpt lat="45.7946333" lon="8.7370067"><ele>246.25</ele><time>2026-03-22T17:10:01.377Z</time></trkpt><trkpt lat="45.7946367" lon="8.7371733"><ele>246.5</ele><time>2026-03-22T17:10:02.377Z</time></trkpt><trkpt lat="45.7946233" lon="8.7373633"><ele>246.75</ele><time>2026-03-22T17:10:03.377Z</time></trkpt><trkpt lat="45.7945683" lon="8.737565"><ele>247.0</ele><time>2026-03-22T17:10:04.377Z</time></trkpt><trkpt lat="45.7944917" lon="8.7377767"><ele>247.0</ele><time>2026-03-22T17:10:05.377Z</time></trkpt><trkpt lat="45.7943917" lon="8.7379883"><ele>247.0</ele><time>2026-03-22T17:10:06.377Z</time></trkpt><trkpt lat="45.7942967" lon="8.738205"><ele>247.0</ele><time>2026-03-22T17:10:07.377Z</time></trkpt><trkpt lat="45.79421" lon="8.73842"><ele>248.33333333333331</ele><time>2026-03-22T17:10:08.377Z</time></trkpt><trkpt lat="45.7941267" lon="8.7386417"><ele>249.66666666666669</ele><time>2026-03-22T17:10:09.377Z</time></trkpt><trkpt lat="45.79404" lon="8.7388583"><ele>251.0</ele><time>2026-03-22T17:10:10.377Z</time></trkpt><trkpt lat="45.793955" lon="8.73907"><ele>251.0</ele><time>2026-03-22T17:10:11.377Z</time></trkpt><trkpt lat="45.7938683" lon="8.7392833"><ele>251.0</ele><time>2026-03-22T17:10:12.377Z</time></trkpt><trkpt lat="45.79378" lon="8.7395017"><ele>251.0</ele><time>2026-03-22T17:10:13.377Z</time></trkpt><trkpt lat="45.7936917" lon="8.7397367"><ele>251.66666666666669</ele><time>2026-03-22T17:10:14.377Z</time></trkpt><trkpt lat="45.7935983" lon="8.7399567"><ele>252.33333333333331</ele><time>2026-03-22T17:10:15.377Z</time></trkpt><trkpt lat="45.7935133" lon="8.74016"><ele>253.0</ele><time>2026-03-22T17:10:16.377Z</time></trkpt><trkpt lat="45.79342" lon="8.7403617"><ele>254.0</ele><time>2026-03-22T17:10:17.377Z</time></trkpt><trkpt lat="45.7933367" lon="8.74057"><ele>255.0</ele><time>2026-03-22T17:10:18.377Z</time></trkpt><trkpt lat="45.7932517" lon="8.74079"><ele>256.0</ele><time>2026-03-22T17:10:19.377Z</time></trkpt><trkpt lat="45.7931667" lon="8.7410133"><ele>256.0</ele><time>2026-03-22T17:10:20.377Z</time></trkpt></trkseg></trk></gpx>